<?xml version='1.0' encoding='UTF-8'?><gpx version="1.1" creator="JPX - https://github.com/jenetics/jpx" xmlns="http://www.topografix.com/GPX/1/1"><trk><trkseg><trkpt lat="39.3843367" lon="17.1156117"><ele>57.99999999999999</ele><time>2026-03-29T07:35:41.044Z</time></trkpt><trkpt lat="39.3843533" lon="17.1157217"><ele>58.0</ele><time>2026-03-29T07:36:17.044Z</time></trkpt><trkpt lat="39.3843683" lon="17.1158767"><ele>58.0</ele><time>2026-03-29T07:36:27.044Z</time></trkpt><trkpt lat="39.3843567" lon="17.115985"><ele>58.0</ele><time>2026-03-29T07:36:28.043Z</time></trkpt><trkpt lat="39.3843133" lon="17.11606"><ele>57.99999999999999</ele><time>2026-03-29T07:36:29.044Z</time></trkpt><trkpt lat="39.38425" lon="17.1161"><ele>58.0</ele><time>2026-03-29T07:36:30.044Z</time></trkpt><trkpt lat="39.3841533" lon="17.1161133"><ele>57.0</ele><time>2026-03-29T07:36:31.044Z</time></trkpt><trkpt lat="39.3840283" lon="17.11613"><ele>56.0</ele><time>2026-03-29T07:36:32.044Z</time></trkpt><trkpt lat="39.3839017" lon="17.1161717"><ele>55.0</ele><time>2026-03-29T07:36:33.043Z</time></trkpt><trkpt lat="39.3837883" lon="17.1162233"><ele>54.0</ele><time>2026-03-29T07:36:34.044Z</time></trkpt><trkpt lat="39.3836933" lon="17.116275"><ele>53.2</ele><time>2026-03-29T07:36:35.043Z</time></trkpt><trkpt lat="39.3836067" lon="17.1163283"><ele>52.400000000000006</ele><time>2026-03-29T07:36:36.044Z</time></trkpt><trkpt lat="39.38353" lon="17.1163617"><ele>51.6</ele><time>2026-03-29T07:36:37.044Z</time></trkpt><trkpt lat="39.383435" lon="17.1163733"><ele>50.8</ele><time>2026-03-29T07:36:39.044Z</time></trkpt><trkpt lat="39.3833783" lon="17.1162883"><ele>50.0</ele><time>2026-03-29T07:36:46.044Z</time></trkpt><trkpt lat="39.38338" lon="17.1161583"><ele>50.00000000000001</ele><time>2026-03-29T07:36:48.044Z</time></trkpt><trkpt lat="39.383385" lon="17.116015"><ele>50.0</ele><time>2026-03-29T07:36:50.044Z</time></trkpt><trkpt lat="39.3833817" lon="17.1158533"><ele>50.0</ele><time>2026-03-29T07:36:52.044Z</time></trkpt><trkpt lat="39.3833733" lon="17.1157633"><ele>50.0</ele><time>2026-03-29T07:36:53.043Z</time></trkpt><trkpt lat="39.3833617" lon="17.115675"><ele>50.00000000000001</ele><time>2026-03-29T07:36:54.044Z</time></trkpt><trkpt lat="39.3833467" lon="17.1155933"><ele>50.0</ele><time>2026-03-29T07:36:55.044Z</time></trkpt><trkpt lat="39.3833317" lon="17.1155017"><ele>50.66666666666667</ele><time>2026-03-29T07:36:57.044Z</time></trkpt><trkpt lat="39.383315" lon="17.1154083"><ele>51.333333333333336</ele><time>2026-03-29T07:37:02.044Z</time></trkpt><trkpt lat="39.3833067" lon="17.1153267"><ele>52.0</ele><time>2026-03-29T07:37:05.044Z</time></trkpt><trkpt lat="39.383285" lon="17.1152467"><ele>52.66666666666667</ele><time>2026-03-29T07:37:08.043Z</time></trkpt><trkpt lat="39.3832517" lon="17.1151467"><ele>53.333333333333336</ele><time>2026-03-29T07:37:11.044Z</time></trkpt><trkpt lat="39.3832017" lon="17.1150267"><ele>54.0</ele><time>2026-03-29T07:37:52.044Z</time></trkpt><trkpt lat="39.38315" lon="17.1149"><ele>54.0</ele><time>2026-03-29T07:37:54.044Z</time></trkpt><trkpt lat="39.383115" lon="17.1148233"><ele>54.00000000000001</ele><time>2026-03-29T07:37:55.044Z</time></trkpt><trkpt lat="39.3830767" lon="17.1147183"><ele>54.00000000000001</ele><time>2026-03-29T07:37:56.044Z</time></trkpt><trkpt lat="39.3830317" lon="17.114595"><ele>54.0</ele><time>2026-03-29T07:37:57.044Z</time></trkpt><trkpt lat="39.3829883" lon="17.114455"><ele>54.0</ele><time>2026-03-29T07:37:58.044Z</time></trkpt><trkpt lat="39.3829467" lon="17.114325"><ele>53.666666666666664</ele><time>2026-03-29T07:37:59.044Z</time></trkpt><trkpt lat="39.3829033" lon="17.1142117"><ele>53.33333333333333</ele><time>2026-03-29T07:38:00.044Z</time></trkpt><trkpt lat="39.3828583" lon="17.1141267"><ele>53.0</ele><time>2026-03-29T07:38:01.044Z</time></trkpt><trkpt lat="39.3828" lon="17.1140517"><ele>52.666666666666664</ele><time>2026-03-29T07:38:02.044Z</time></trkpt><trkpt lat="39.3827333" lon="17.1139783"><ele>52.33333333333333</ele><time>2026-03-29T07:38:03.044Z</time></trkpt><trkpt lat="39.3826783" lon="17.1139067"><ele>52.0</ele><time>2026-03-29T07:38:04.044Z</time></trkpt><trkpt lat="39.3826367" lon="17.1138333"><ele>52.0</ele><time>2026-03-29T07:38:05.044Z</time></trkpt><trkpt lat="39.3825933" lon="17.113755"><ele>52.0</ele><time>2026-03-29T07:38:06.044Z</time></trkpt><trkpt lat="39.3825533" lon="17.1136833"><ele>52.0</ele><time>2026-03-29T07:38:07.044Z</time></trkpt><trkpt lat="39.3824917" lon="17.113555"><ele>52.0</ele><time>2026-03-29T07:38:09.044Z</time></trkpt><trkpt lat="39.3824283" lon="17.1134217"><ele>52.0</ele><time>2026-03-29T07:38:11.044Z</time></trkpt><trkpt lat="39.3823883" lon="17.1133283"><ele>52.6</ele><time>2026-03-29T07:38:12.044Z</time></trkpt><trkpt lat="39.3823467" lon="17.1132283"><ele>53.2</ele><time>2026-03-29T07:38:13.043Z</time></trkpt><trkpt lat="39.3822933" lon="17.1131083"><ele>53.8</ele><time>2026-03-29T07:38:14.043Z</time></trkpt><trkpt lat="39.3822383" lon="17.11298"><ele>54.4</ele><time>2026-03-29T07:38:15.044Z</time></trkpt><trkpt lat="39.3821883" lon="17.1128517"><ele>55.0</ele><time>2026-03-29T07:38:16.044Z</time></trkpt><trkpt lat="39.382145" lon="17.11273"><ele>55.25</ele><time>2026-03-29T07:38:17.044Z</time></trkpt><trkpt lat="39.3820967" lon="17.11259"><ele>55.5</ele><time>2026-03-29T07:38:18.044Z</time></trkpt><trkpt lat="39.382055" lon="17.1124483"><ele>55.75</ele><time>2026-03-29T07:38:19.043Z</time></trkpt><trkpt lat="39.3820133" lon="17.112305"><ele>56.0</ele><time>2026-03-29T07:38:20.044Z</time></trkpt><trkpt lat="39.381965" lon="17.112175"><ele>56.199999999999996</ele><time>2026-03-29T07:38:21.044Z</time></trkpt><trkpt lat="39.3819167" lon="17.1120617"><ele>56.39999999999999</ele><time>2026-03-29T07:38:22.043Z</time></trkpt><trkpt lat="39.3818517" lon="17.111965"><ele>56.6</ele><time>2026-03-29T07:38:23.044Z</time></trkpt><trkpt lat="39.3817717" lon="17.1118733"><ele>56.8</ele><time>2026-03-29T07:38:24.044Z</time></trkpt><trkpt lat="39.3817033" lon="17.1117867"><ele>57.0</ele><time>2026-03-29T07:38:25.044Z</time></trkpt><trkpt lat="39.3816483" lon="17.111705"><ele>57.0</ele><time>2026-03-29T07:38:26.043Z</time></trkpt><trkpt lat="39.3816" lon="17.1116433"><ele>57.0</ele><time>2026-03-29T07:38:27.044Z</time></trkpt><trkpt lat="39.3814983" lon="17.1115583"><ele>57.0</ele><time>2026-03-29T07:38:29.043Z</time></trkpt><trkpt lat="39.38144" lon="17.111515"><ele>57.0</ele><time>2026-03-29T07:38:30.044Z</time></trkpt><trkpt lat="39.381395" lon="17.1114533"><ele>57.0</ele><time>2026-03-29T07:38:31.044Z</time></trkpt><trkpt lat="39.3813683" lon="17.1112983"><ele>57.0</ele><time>2026-03-29T07:38:33.044Z</time></trkpt><trkpt lat="39.381375" lon="17.111135"><ele>57.5</ele><time>2026-03-29T07:38:35.044Z</time></trkpt><trkpt lat="39.3813683" lon="17.111015"><ele>58.0</ele><time>2026-03-29T07:38:37.044Z</time></trkpt><trkpt lat="39.3813517" lon="17.110935"><ele>58.5</ele><time>2026-03-29T07:38:39.044Z</time></trkpt><trkpt lat="39.381345" lon="17.1108283"><ele>59.0</ele><time>2026-03-29T07:38:41.044Z</time></trkpt><trkpt lat="39.3813083" lon="17.11067"><ele>59.5</ele><time>2026-03-29T07:38:43.044Z</time></trkpt><trkpt lat="39.3812817" lon="17.11057"><ele>60.0</ele><time>2026-03-29T07:38:44.044Z</time></trkpt><trkpt lat="39.381255" lon="17.11045"><ele>60.2</ele><time>2026-03-29T07:38:45.044Z</time></trkpt><trkpt lat="39.3812183" lon="17.1103383"><ele>60.4</ele><time>2026-03-29T07:38:46.044Z</time></trkpt><trkpt lat="39.3811817" lon="17.1102267"><ele>60.599999999999994</ele><time>2026-03-29T07:38:47.044Z</time></trkpt><trkpt lat="39.3811417" lon="17.1101083"><ele>60.8</ele><time>2026-03-29T07:38:48.044Z</time></trkpt><trkpt lat="39.3810983" lon="17.1099983"><ele>61.0</ele><time>2026-03-29T07:38:49.044Z</time></trkpt><trkpt lat="39.3810583" lon="17.1099"><ele>60.99999999999999</ele><time>2026-03-29T07:38:50.043Z</time></trkpt><trkpt lat="39.3810117" lon="17.1098167"><ele>61.0</ele><time>2026-03-29T07:38:51.043Z</time></trkpt><trkpt lat="39.3809667" lon="17.1097433"><ele>61.0</ele><time>2026-03-29T07:38:52.043Z</time></trkpt><trkpt lat="39.3809233" lon="17.1096617"><ele>61.0</ele><time>2026-03-29T07:38:53.044Z</time></trkpt><trkpt lat="39.38087" lon="17.1095867"><ele>60.99999999999999</ele><time>2026-03-29T07:38:54.044Z</time></trkpt><trkpt lat="39.38081" lon="17.109505"><ele>61.0</ele><time>2026-03-29T07:38:55.043Z</time></trkpt><trkpt lat="39.3807567" lon="17.10943"><ele>61.0</ele><time>2026-03-29T07:38:56.044Z</time></trkpt><trkpt lat="39.3807067" lon="17.1093433"><ele>60.99999999999999</ele><time>2026-03-29T07:38:57.044Z</time></trkpt><trkpt lat="39.38067" lon="17.1092583"><ele>60.99999999999999</ele><time>2026-03-29T07:38:58.044Z</time></trkpt><trkpt lat="39.38064" lon="17.10914"><ele>61.0</ele><time>2026-03-29T07:38:59.044Z</time></trkpt><trkpt lat="39.3806033" lon="17.1090133"><ele>61.0</ele><time>2026-03-29T07:39:00.044Z</time></trkpt><trkpt lat="39.3805733" lon="17.1088983"><ele>60.83333333333333</ele><time>2026-03-29T07:39:01.044Z</time></trkpt><trkpt lat="39.38055" lon="17.1088133"><ele>60.666666666666664</ele><time>2026-03-29T07:39:02.044Z</time></trkpt><trkpt lat="39.3805283" lon="17.1087167"><ele>60.5</ele><time>2026-03-29T07:39:04.044Z</time></trkpt><trkpt lat="39.380505" lon="17.1086283"><ele>60.33333333333333</ele><time>2026-03-29T07:39:06.043Z</time></trkpt><trkpt lat="39.3805183" lon="17.1084667"><ele>60.166666666666664</ele><time>2026-03-29T07:39:08.044Z</time></trkpt><trkpt lat="39.380545" lon="17.1083583"><ele>60.0</ele><time>2026-03-29T07:39:09.044Z</time></trkpt><trkpt lat="39.3805733" lon="17.1082283"><ele>60.4</ele><time>2026-03-29T07:39:10.044Z</time></trkpt><trkpt lat="39.3806" lon="17.10809"><ele>60.8</ele><time>2026-03-29T07:39:11.044Z</time></trkpt><trkpt lat="39.380605" lon="17.107945"><ele>61.2</ele><time>2026-03-29T07:39:12.044Z</time></trkpt><trkpt lat="39.3805933" lon="17.1078133"><ele>61.6</ele><time>2026-03-29T07:39:13.044Z</time></trkpt><trkpt lat="39.3805567" lon="17.10769"><ele>62.0</ele><time>2026-03-29T07:39:14.044Z</time></trkpt><trkpt lat="39.3805117" lon="17.1075633"><ele>62.0</ele><time>2026-03-29T07:39:15.044Z</time></trkpt><trkpt lat="39.380455" lon="17.10743"><ele>62.0</ele><time>2026-03-29T07:39:16.044Z</time></trkpt><trkpt lat="39.3804" lon="17.1072917"><ele>62.0</ele><time>2026-03-29T07:39:17.044Z</time></trkpt><trkpt lat="39.3803583" lon="17.1071567"><ele>62.0</ele><time>2026-03-29T07:39:18.044Z</time></trkpt><trkpt lat="39.38033" lon="17.107035"><ele>62.0</ele><time>2026-03-29T07:39:19.044Z</time></trkpt><trkpt lat="39.3803083" lon="17.1069167"><ele>61.8</ele><time>2026-03-29T07:39:20.043Z</time></trkpt><trkpt lat="39.380285" lon="17.1068033"><ele>61.6</ele><time>2026-03-29T07:39:21.044Z</time></trkpt><trkpt lat="39.380275" lon="17.1066833"><ele>61.39999999999999</ele><time>2026-03-29T07:39:22.044Z</time></trkpt><trkpt lat="39.3802633" lon="17.1065533"><ele>61.199999999999996</ele><time>2026-03-29T07:39:23.044Z</time></trkpt><trkpt lat="39.3802483" lon="17.1064383"><ele>61.0</ele><time>2026-03-29T07:39:24.044Z</time></trkpt><trkpt lat="39.380235" lon="17.10633"><ele>61.0</ele><time>2026-03-29T07:39:25.044Z</time></trkpt><trkpt lat="39.3802267" lon="17.10622"><ele>60.99999999999999</ele><time>2026-03-29T07:39:26.043Z</time></trkpt><trkpt lat="39.38022" lon="17.106105"><ele>60.99999999999999</ele><time>2026-03-29T07:39:27.044Z</time></trkpt><trkpt lat="39.3802133" lon="17.1059867"><ele>61.0</ele><time>2026-03-29T07:39:28.044Z</time></trkpt><trkpt lat="39.3802033" lon="17.1058633"><ele>61.0</ele><time>2026-03-29T07:39:29.044Z</time></trkpt><trkpt lat="39.3801967" lon="17.10575"><ele>60.83333333333333</ele><time>2026-03-29T07:39:30.044Z</time></trkpt><trkpt lat="39.3801867" lon="17.105635"><ele>60.666666666666664</ele><time>2026-03-29T07:39:31.044Z</time></trkpt><trkpt lat="39.38017" lon="17.10553"><ele>60.5</ele><time>2026-03-29T07:39:32.043Z</time></trkpt><trkpt lat="39.3801567" lon="17.1054317"><ele>60.33333333333333</ele><time>2026-03-29T07:39:33.044Z</time></trkpt><trkpt lat="39.38015" lon="17.1053317"><ele>60.166666666666664</ele><time>2026-03-29T07:39:34.044Z</time></trkpt><trkpt lat="39.3801433" lon="17.1052267"><ele>60.0</ele><time>2026-03-29T07:39:35.044Z</time></trkpt><trkpt lat="39.3801317" lon="17.1051183"><ele>60.0</ele><time>2026-03-29T07:39:36.044Z</time></trkpt><trkpt lat="39.3801083" lon="17.1050017"><ele>60.0</ele><time>2026-03-29T07:39:37.044Z</time></trkpt><trkpt lat="39.380085" lon="17.1048767"><ele>60.0</ele><time>2026-03-29T07:39:38.044Z</time></trkpt><trkpt lat="39.3800433" lon="17.10475"><ele>60.0</ele><time>2026-03-29T07:39:39.043Z</time></trkpt><trkpt lat="39.3799933" lon="17.10463"><ele>60.0</ele><time>2026-03-29T07:39:40.044Z</time></trkpt><trkpt lat="39.37995" lon="17.1045117"><ele>59.666666666666664</ele><time>2026-03-29T07:39:41.044Z</time></trkpt><trkpt lat="39.379915" lon="17.1044117"><ele>59.33333333333333</ele><time>2026-03-29T07:39:42.043Z</time></trkpt><trkpt lat="39.37988" lon="17.1043217"><ele>59.0</ele><time>2026-03-29T07:39:43.044Z</time></trkpt><trkpt lat="39.3798483" lon="17.1042333"><ele>58.666666666666664</ele><time>2026-03-29T07:39:44.044Z</time></trkpt><trkpt lat="39.3798317" lon="17.1041283"><ele>58.33333333333333</ele><time>2026-03-29T07:39:45.044Z</time></trkpt><trkpt lat="39.3798267" lon="17.1040217"><ele>58.0</ele><time>2026-03-29T07:39:46.044Z</time></trkpt><trkpt lat="39.3798467" lon="17.10392"><ele>57.99999999999999</ele><time>2026-03-29T07:39:47.044Z</time></trkpt><trkpt lat="39.379875" lon="17.1038133"><ele>58.0</ele><time>2026-03-29T07:39:48.044Z</time></trkpt><trkpt lat="39.3799033" lon="17.1037083"><ele>58.0</ele><time>2026-03-29T07:39:49.044Z</time></trkpt><trkpt lat="39.3799283" lon="17.1035967"><ele>58.0</ele><time>2026-03-29T07:39:50.044Z</time></trkpt><trkpt lat="39.3799483" lon="17.1034983"><ele>57.99999999999999</ele><time>2026-03-29T07:39:51.044Z</time></trkpt><trkpt lat="39.3799717" lon="17.103415"><ele>58.0</ele><time>2026-03-29T07:39:52.043Z</time></trkpt><trkpt lat="39.3799867" lon="17.103335"><ele>57.4</ele><time>2026-03-29T07:39:53.044Z</time></trkpt><trkpt lat="39.38001" lon="17.1032167"><ele>56.8</ele><time>2026-03-29T07:39:55.044Z</time></trkpt><trkpt lat="39.3800333" lon="17.1031167"><ele>56.2</ele><time>2026-03-29T07:39:59.044Z</time></trkpt><trkpt lat="39.3800667" lon="17.1029283"><ele>55.6</ele><time>2026-03-29T07:40:18.044Z</time></trkpt><trkpt lat="39.3800933" lon="17.102795"><ele>55.0</ele><time>2026-03-29T07:40:19.044Z</time></trkpt><trkpt lat="39.380115" lon="17.102695"><ele>55.0</ele><time>2026-03-29T07:40:20.043Z</time></trkpt><trkpt lat="39.380135" lon="17.1025733"><ele>55.0</ele><time>2026-03-29T07:40:22.044Z</time></trkpt><trkpt lat="39.380155" lon="17.1024717"><ele>55.0</ele><time>2026-03-29T07:40:24.044Z</time></trkpt><trkpt lat="39.3801783" lon="17.1023283"><ele>55.0</ele><time>2026-03-29T07:40:26.044Z</time></trkpt><trkpt lat="39.3802017" lon="17.102245"><ele>55.0</ele><time>2026-03-29T07:40:27.044Z</time></trkpt><trkpt lat="39.380235" lon="17.1020933"><ele>55.0</ele><time>2026-03-29T07:40:29.044Z</time></trkpt><trkpt lat="39.3802667" lon="17.1019483"><ele>55.0</ele><time>2026-03-29T07:40:31.043Z</time></trkpt><trkpt lat="39.380295" lon="17.1018183"><ele>55.0</ele><time>2026-03-29T07:40:33.044Z</time></trkpt><trkpt lat="39.38033" lon="17.1016667"><ele>55.0</ele><time>2026-03-29T07:40:35.044Z</time></trkpt><trkpt lat="39.3803517" lon="17.1015667"><ele>55.0</ele><time>2026-03-29T07:40:36.044Z</time></trkpt><trkpt lat="39.3803783" lon="17.101475"><ele>54.83333333333333</ele><time>2026-03-29T07:40:37.044Z</time></trkpt><trkpt lat="39.3804133" lon="17.101385"><ele>54.666666666666664</ele><time>2026-03-29T07:40:38.044Z</time></trkpt><trkpt lat="39.38046" lon="17.1013067"><ele>54.5</ele><time>2026-03-29T07:40:39.043Z</time></trkpt><trkpt lat="39.3805117" lon="17.10123"><ele>54.33333333333333</ele><time>2026-03-29T07:40:40.044Z</time></trkpt><trkpt lat="39.38057" lon="17.1011683"><ele>54.166666666666664</ele><time>2026-03-29T07:40:41.044Z</time></trkpt><trkpt lat="39.380625" lon="17.1011167"><ele>54.0</ele><time>2026-03-29T07:40:42.044Z</time></trkpt><trkpt lat="39.3806867" lon="17.1009933"><ele>54.800000000000004</ele><time>2026-03-29T07:40:44.044Z</time></trkpt><trkpt lat="39.3807017" lon="17.1008567"><ele>55.60000000000001</ele><time>2026-03-29T07:40:46.044Z</time></trkpt><trkpt lat="39.3806783" lon="17.10069"><ele>56.4</ele><time>2026-03-29T07:40:48.044Z</time></trkpt><trkpt lat="39.3806433" lon="17.1005917"><ele>57.2</ele><time>2026-03-29T07:40:49.044Z</time></trkpt><trkpt lat="39.380595" lon="17.1004783"><ele>58.0</ele><time>2026-03-29T07:40:50.044Z</time></trkpt><trkpt lat="39.38055" lon="17.100365"><ele>58.2</ele><time>2026-03-29T07:40:51.044Z</time></trkpt><trkpt lat="39.3805067" lon="17.1002467"><ele>58.4</ele><time>2026-03-29T07:40:52.044Z</time></trkpt><trkpt lat="39.3804617" lon="17.10013"><ele>58.60000000000001</ele><time>2026-03-29T07:40:53.044Z</time></trkpt><trkpt lat="39.380415" lon="17.1000167"><ele>58.800000000000004</ele><time>2026-03-29T07:40:54.044Z</time></trkpt><trkpt lat="39.3803717" lon="17.0999117"><ele>59.0</ele><time>2026-03-29T07:40:55.044Z</time></trkpt><trkpt lat="39.38033" lon="17.099805"><ele>59.833333333333336</ele><time>2026-03-29T07:40:56.044Z</time></trkpt><trkpt lat="39.3802917" lon="17.0997017"><ele>60.66666666666667</ele><time>2026-03-29T07:40:57.044Z</time></trkpt><trkpt lat="39.3802533" lon="17.099595"><ele>61.5</ele><time>2026-03-29T07:40:58.044Z</time></trkpt><trkpt lat="39.380215" lon="17.0994883"><ele>62.33333333333333</ele><time>2026-03-29T07:40:59.043Z</time></trkpt><trkpt lat="39.3801767" lon="17.0993867"><ele>63.166666666666664</ele><time>2026-03-29T07:41:00.044Z</time></trkpt><trkpt lat="39.3801383" lon="17.09929"><ele>64.0</ele><time>2026-03-29T07:41:01.044Z</time></trkpt><trkpt lat="39.3801083" lon="17.0992017"><ele>63.99999999999999</ele><time>2026-03-29T07:41:02.043Z</time></trkpt><trkpt lat="39.3800767" lon="17.099105"><ele>64.0</ele><time>2026-03-29T07:41:03.043Z</time></trkpt><trkpt lat="39.38005" lon="17.0990033"><ele>64.0</ele><time>2026-03-29T07:41:04.044Z</time></trkpt><trkpt lat="39.3800383" lon="17.0989"><ele>64.0</ele><time>2026-03-29T07:41:05.044Z</time></trkpt><trkpt lat="39.38004" lon="17.098775"><ele>63.99999999999999</ele><time>2026-03-29T07:41:06.044Z</time></trkpt><trkpt lat="39.38006" lon="17.0986433"><ele>64.0</ele><time>2026-03-29T07:41:07.044Z</time></trkpt><trkpt lat="39.3800933" lon="17.0984817"><ele>65.66666666666666</ele><time>2026-03-29T07:41:08.044Z</time></trkpt><trkpt lat="39.380125" lon="17.098305"><ele>67.33333333333333</ele><time>2026-03-29T07:41:09.044Z</time></trkpt><trkpt lat="39.38017" lon="17.09811"><ele>69.0</ele><time>2026-03-29T07:41:10.043Z</time></trkpt><trkpt lat="39.380205" lon="17.0979167"><ele>69.25</ele><time>2026-03-29T07:41:11.044Z</time></trkpt><trkpt lat="39.3802333" lon="17.097735"><ele>69.5</ele><time>2026-03-29T07:41:12.044Z</time></trkpt><trkpt lat="39.380265" lon="17.0975733"><ele>69.75</ele><time>2026-03-29T07:41:13.044Z</time></trkpt><trkpt lat="39.3802967" lon="17.0974317"><ele>70.0</ele><time>2026-03-29T07:41:14.044Z</time></trkpt><trkpt lat="39.38032" lon="17.0973133"><ele>70.16666666666666</ele><time>2026-03-29T07:41:15.043Z</time></trkpt><trkpt lat="39.3803317" lon="17.0972083"><ele>70.33333333333333</ele><time>2026-03-29T07:41:16.044Z</time></trkpt><trkpt lat="39.380345" lon="17.0971117"><ele>70.5</ele><time>2026-03-29T07:41:17.044Z</time></trkpt><trkpt lat="39.3803617" lon="17.097015"><ele>70.66666666666667</ele><time>2026-03-29T07:41:18.043Z</time></trkpt><trkpt lat="39.380385" lon="17.0969133"><ele>70.83333333333334</ele><time>2026-03-29T07:41:19.044Z</time></trkpt><trkpt lat="39.3804083" lon="17.0968233"><ele>71.0</ele><time>2026-03-29T07:41:20.044Z</time></trkpt><trkpt lat="39.3804267" lon="17.0967367"><ele>71.0</ele><time>2026-03-29T07:41:21.044Z</time></trkpt><trkpt lat="39.380445" lon="17.0966517"><ele>71.0</ele><time>2026-03-29T07:41:22.044Z</time></trkpt><trkpt lat="39.3804583" lon="17.09656"><ele>71.0</ele><time>2026-03-29T07:41:23.044Z</time></trkpt><trkpt lat="39.3804767" lon="17.0964717"><ele>71.0</ele><time>2026-03-29T07:41:24.044Z</time></trkpt><trkpt lat="39.380495" lon="17.09639"><ele>71.0</ele><time>2026-03-29T07:41:25.044Z</time></trkpt><trkpt lat="39.3805267" lon="17.096245"><ele>71.0</ele><time>2026-03-29T07:41:27.044Z</time></trkpt><trkpt lat="39.380515" lon="17.0961133"><ele>71.6</ele><time>2026-03-29T07:41:29.043Z</time></trkpt><trkpt lat="39.3804483" lon="17.0960333"><ele>72.19999999999999</ele><time>2026-03-29T07:41:31.044Z</time></trkpt><trkpt lat="39.3803333" lon="17.0960417"><ele>72.80000000000001</ele><time>2026-03-29T07:41:33.044Z</time></trkpt><trkpt lat="39.3802633" lon="17.096105"><ele>73.4</ele><time>2026-03-29T07:41:34.044Z</time></trkpt><trkpt lat="39.380195" lon="17.0961883"><ele>74.0</ele><time>2026-03-29T07:41:35.044Z</time></trkpt><trkpt lat="39.3801133" lon="17.0962967"><ele>74.0</ele><time>2026-03-29T07:41:36.044Z</time></trkpt><trkpt lat="39.3800283" lon="17.0963967"><ele>74.0</ele><time>2026-03-29T07:41:37.043Z</time></trkpt><trkpt lat="39.3799567" lon="17.0964767"><ele>74.0</ele><time>2026-03-29T07:41:38.043Z</time></trkpt><trkpt lat="39.379885" lon="17.0965333"><ele>74.0</ele><time>2026-03-29T07:41:39.044Z</time></trkpt><trkpt lat="39.3797867" lon="17.0965767"><ele>74.0</ele><time>2026-03-29T07:41:41.044Z</time></trkpt><trkpt lat="39.3797483" lon="17.0964833"><ele>74.0</ele><time>2026-03-29T07:41:44.044Z</time></trkpt><trkpt lat="39.379785" lon="17.0963817"><ele>74.0</ele><time>2026-03-29T07:41:46.044Z</time></trkpt><trkpt lat="39.3798133" lon="17.096275"><ele>74.0</ele><time>2026-03-29T07:41:48.044Z</time></trkpt><trkpt lat="39.3798283" lon="17.0961"><ele>74.0</ele><time>2026-03-29T07:41:50.043Z</time></trkpt><trkpt lat="39.3798283" lon="17.0959867"><ele>74.0</ele><time>2026-03-29T07:41:51.044Z</time></trkpt><trkpt lat="39.3798117" lon="17.095865"><ele>74.2</ele><time>2026-03-29T07:41:52.044Z</time></trkpt><trkpt lat="39.3797817" lon="17.09574"><ele>74.4</ele><time>2026-03-29T07:41:53.044Z</time></trkpt><trkpt lat="39.3797483" lon="17.09564"><ele>74.6</ele><time>2026-03-29T07:41:54.044Z</time></trkpt><trkpt lat="39.3797" lon="17.09555"><ele>74.8</ele><time>2026-03-29T07:41:55.044Z</time></trkpt><trkpt lat="39.37964" lon="17.09545"><ele>75.0</ele><time>2026-03-29T07:41:56.044Z</time></trkpt><trkpt lat="39.3795867" lon="17.0953617"><ele>75.0</ele><time>2026-03-29T07:41:57.043Z</time></trkpt><trkpt lat="39.3795367" lon="17.0952717"><ele>75.0</ele><time>2026-03-29T07:41:58.044Z</time></trkpt><trkpt lat="39.3794867" lon="17.0951717"><ele>75.0</ele><time>2026-03-29T07:41:59.044Z</time></trkpt><trkpt lat="39.379435" lon="17.09508"><ele>75.0</ele><time>2026-03-29T07:42:00.044Z</time></trkpt><trkpt lat="39.3793767" lon="17.094975"><ele>75.0</ele><time>2026-03-29T07:42:01.042Z</time></trkpt><trkpt lat="39.3793233" lon="17.0948733"><ele>75.6</ele><time>2026-03-29T07:42:02.043Z</time></trkpt><trkpt lat="39.37927" lon="17.0947717"><ele>76.2</ele><time>2026-03-29T07:42:03.043Z</time></trkpt><trkpt lat="39.379225" lon="17.0946633"><ele>76.8</ele><time>2026-03-29T07:42:04.043Z</time></trkpt><trkpt lat="39.3791883" lon="17.0945483"><ele>77.4</ele><time>2026-03-29T07:42:05.042Z</time></trkpt><trkpt lat="39.37915" lon="17.094445"><ele>78.0</ele><time>2026-03-29T07:42:06.043Z</time></trkpt><trkpt lat="39.3791167" lon="17.0943467"><ele>78.0</ele><time>2026-03-29T07:42:07.043Z</time></trkpt><trkpt lat="39.3790833" lon="17.094265"><ele>78.0</ele><time>2026-03-29T07:42:08.042Z</time></trkpt><trkpt lat="39.3790433" lon="17.094145"><ele>78.0</ele><time>2026-03-29T07:42:10.042Z</time></trkpt><trkpt lat="39.3789967" lon="17.0940117"><ele>78.0</ele><time>2026-03-29T07:42:12.043Z</time></trkpt><trkpt lat="39.378955" lon="17.0938567"><ele>78.0</ele><time>2026-03-29T07:42:14.043Z</time></trkpt><trkpt lat="39.3789317" lon="17.0937033"><ele>79.25</ele><time>2026-03-29T07:42:16.043Z</time></trkpt><trkpt lat="39.37891" lon="17.09356"><ele>80.5</ele><time>2026-03-29T07:42:18.043Z</time></trkpt><trkpt lat="39.3789" lon="17.09341"><ele>81.75</ele><time>2026-03-29T07:42:20.043Z</time></trkpt><trkpt lat="39.3788767" lon="17.093265"><ele>83.0</ele><time>2026-03-29T07:42:22.043Z</time></trkpt><trkpt lat="39.37885" lon="17.0931083"><ele>83.16666666666667</ele><time>2026-03-29T07:42:24.043Z</time></trkpt><trkpt lat="39.378835" lon="17.093015"><ele>83.33333333333334</ele><time>2026-03-29T07:42:25.043Z</time></trkpt><trkpt lat="39.378815" lon="17.09293"><ele>83.5</ele><time>2026-03-29T07:42:26.043Z</time></trkpt><trkpt lat="39.3787867" lon="17.0928333"><ele>83.66666666666667</ele><time>2026-03-29T07:42:27.042Z</time></trkpt><trkpt lat="39.3787633" lon="17.092735"><ele>83.83333333333333</ele><time>2026-03-29T07:42:28.043Z</time></trkpt><trkpt lat="39.37874" lon="17.09263"><ele>84.0</ele><time>2026-03-29T07:42:29.043Z</time></trkpt><trkpt lat="39.3787283" lon="17.092525"><ele>84.0</ele><time>2026-03-29T07:42:30.043Z</time></trkpt><trkpt lat="39.378725" lon="17.0924267"><ele>84.0</ele><time>2026-03-29T07:42:31.043Z</time></trkpt><trkpt lat="39.37873" lon="17.0923067"><ele>84.0</ele><time>2026-03-29T07:42:33.043Z</time></trkpt><trkpt lat="39.3787283" lon="17.092225"><ele>84.0</ele><time>2026-03-29T07:42:40.043Z</time></trkpt><trkpt lat="39.37872" lon="17.0921383"><ele>84.0</ele><time>2026-03-29T07:42:44.043Z</time></trkpt><trkpt lat="39.3787067" lon="17.092035"><ele>84.0</ele><time>2026-03-29T07:42:47.043Z</time></trkpt><trkpt lat="39.3786783" lon="17.0919367"><ele>85.4</ele><time>2026-03-29T07:42:49.043Z</time></trkpt><trkpt lat="39.3786533" lon="17.0918533"><ele>86.80000000000001</ele><time>2026-03-29T07:42:51.043Z</time></trkpt><trkpt lat="39.3786217" lon="17.09177"><ele>88.19999999999999</ele><time>2026-03-29T07:42:54.043Z</time></trkpt><trkpt lat="39.3785833" lon="17.0916683"><ele>89.6</ele><time>2026-03-29T07:43:58.043Z</time></trkpt><trkpt lat="39.3785283" lon="17.0915367"><ele>91.0</ele><time>2026-03-29T07:44:00.043Z</time></trkpt><trkpt lat="39.3784667" lon="17.0914233"><ele>91.6</ele><time>2026-03-29T07:44:02.043Z</time></trkpt><trkpt lat="39.3783933" lon="17.09133"><ele>92.19999999999999</ele><time>2026-03-29T07:44:04.042Z</time></trkpt><trkpt lat="39.378295" lon="17.091235"><ele>92.80000000000001</ele><time>2026-03-29T07:44:06.043Z</time></trkpt><trkpt lat="39.3781967" lon="17.0911883"><ele>93.4</ele><time>2026-03-29T07:44:08.042Z</time></trkpt><trkpt lat="39.3781" lon="17.0911383"><ele>94.0</ele><time>2026-03-29T07:44:10.043Z</time></trkpt><trkpt lat="39.37804" lon="17.09111"><ele>95.6</ele><time>2026-03-29T07:44:11.043Z</time></trkpt><trkpt lat="39.37798" lon="17.0910717"><ele>97.2</ele><time>2026-03-29T07:44:12.043Z</time></trkpt><trkpt lat="39.3779183" lon="17.0910417"><ele>98.8</ele><time>2026-03-29T07:44:13.043Z</time></trkpt><trkpt lat="39.3778033" lon="17.09101"><ele>100.39999999999999</ele><time>2026-03-29T07:44:15.043Z</time></trkpt><trkpt lat="39.3776933" lon="17.0910217"><ele>102.0</ele><time>2026-03-29T07:44:17.043Z</time></trkpt><trkpt lat="39.3775833" lon="17.09098"><ele>102.0</ele><time>2026-03-29T07:44:19.043Z</time></trkpt><trkpt lat="39.3775233" lon="17.09095"><ele>102.0</ele><time>2026-03-29T07:44:20.043Z</time></trkpt><trkpt lat="39.37745" lon="17.0909433"><ele>102.0</ele><time>2026-03-29T07:44:21.043Z</time></trkpt><trkpt lat="39.377375" lon="17.090965"><ele>102.0</ele><time>2026-03-29T07:44:22.043Z</time></trkpt><trkpt lat="39.37731" lon="17.0910183"><ele>102.0</ele><time>2026-03-29T07:44:23.043Z</time></trkpt><trkpt lat="39.3772517" lon="17.0910617"><ele>102.0</ele><time>2026-03-29T07:44:24.042Z</time></trkpt><trkpt lat="39.3771383" lon="17.0910283"><ele>102.19999999999999</ele><time>2026-03-29T07:44:26.043Z</time></trkpt><trkpt lat="39.3770883" lon="17.0909567"><ele>102.4</ele><time>2026-03-29T07:44:27.043Z</time></trkpt><trkpt lat="39.37705" lon="17.0908817"><ele>102.6</ele><time>2026-03-29T07:44:28.043Z</time></trkpt><trkpt lat="39.3769633" lon="17.0908033"><ele>102.80000000000001</ele><time>2026-03-29T07:44:30.043Z</time></trkpt><trkpt lat="39.3768583" lon="17.0907517"><ele>103.0</ele><time>2026-03-29T07:44:32.043Z</time></trkpt><trkpt lat="39.3767717" lon="17.09062"><ele>103.83333333333334</ele><time>2026-03-29T07:44:34.043Z</time></trkpt><trkpt lat="39.376725" lon="17.0905517"><ele>104.66666666666667</ele><time>2026-03-29T07:44:35.043Z</time></trkpt><trkpt lat="39.37668" lon="17.0904833"><ele>105.5</ele><time>2026-03-29T07:44:36.042Z</time></trkpt><trkpt lat="39.3766467" lon="17.0904033"><ele>106.33333333333334</ele><time>2026-03-29T07:44:37.043Z</time></trkpt><trkpt lat="39.37661" lon="17.0903233"><ele>107.16666666666667</ele><time>2026-03-29T07:44:38.043Z</time></trkpt><trkpt lat="39.3765117" lon="17.0902333"><ele>108.0</ele><time>2026-03-29T07:44:40.042Z</time></trkpt><trkpt lat="39.3764417" lon="17.0902017"><ele>108.0</ele><time>2026-03-29T07:44:41.043Z</time></trkpt><trkpt lat="39.37637" lon="17.09018"><ele>108.0</ele><time>2026-03-29T07:44:42.043Z</time></trkpt><trkpt lat="39.3763067" lon="17.0901567"><ele>108.0</ele><time>2026-03-29T07:44:43.042Z</time></trkpt><trkpt lat="39.3762033" lon="17.0900917"><ele>108.0</ele><time>2026-03-29T07:44:45.042Z</time></trkpt><trkpt lat="39.3761117" lon="17.0900433"><ele>108.0</ele><time>2026-03-29T07:44:47.043Z</time></trkpt><trkpt lat="39.3760317" lon="17.090005"><ele>108.0</ele><time>2026-03-29T07:44:49.042Z</time></trkpt><trkpt lat="39.37597" lon="17.089955"><ele>109.66666666666667</ele><time>2026-03-29T07:44:51.043Z</time></trkpt><trkpt lat="39.3759133" lon="17.089905"><ele>111.33333333333334</ele><time>2026-03-29T07:44:53.043Z</time></trkpt><trkpt lat="39.3758633" lon="17.0898367"><ele>113.0</ele><time>2026-03-29T07:44:55.043Z</time></trkpt><trkpt lat="39.3757867" lon="17.089755"><ele>114.66666666666667</ele><time>2026-03-29T07:44:57.043Z</time></trkpt><trkpt lat="39.37574" lon="17.0896983"><ele>116.33333333333334</ele><time>2026-03-29T07:44:58.043Z</time></trkpt><trkpt lat="39.375685" lon="17.08965"><ele>118.0</ele><time>2026-03-29T07:44:59.043Z</time></trkpt><trkpt lat="39.3755717" lon="17.0895567"><ele>118.83333333333334</ele><time>2026-03-29T07:45:01.042Z</time></trkpt><trkpt lat="39.37549" lon="17.0895067"><ele>119.66666666666667</ele><time>2026-03-29T07:45:02.042Z</time></trkpt><trkpt lat="39.3754117" lon="17.08946"><ele>120.5</ele><time>2026-03-29T07:45:03.043Z</time></trkpt><trkpt lat="39.3753417" lon="17.089405"><ele>121.33333333333334</ele><time>2026-03-29T07:45:04.043Z</time></trkpt><trkpt lat="39.3752867" lon="17.08934"><ele>122.16666666666667</ele><time>2026-03-29T07:45:05.042Z</time></trkpt><trkpt lat="39.3752333" lon="17.0892733"><ele>123.0</ele><time>2026-03-29T07:45:06.043Z</time></trkpt><trkpt lat="39.3751983" lon="17.0891983"><ele>123.0</ele><time>2026-03-29T07:45:07.043Z</time></trkpt><trkpt lat="39.3751683" lon="17.08911"><ele>123.0</ele><time>2026-03-29T07:45:08.043Z</time></trkpt><trkpt lat="39.3751417" lon="17.0890117"><ele>123.0</ele><time>2026-03-29T07:45:09.043Z</time></trkpt><trkpt lat="39.3751183" lon="17.0888983"><ele>123.0</ele><time>2026-03-29T07:45:10.043Z</time></trkpt><trkpt lat="39.3751" lon="17.0887967"><ele>123.0</ele><time>2026-03-29T07:45:11.043Z</time></trkpt><trkpt lat="39.375085" lon="17.0886983"><ele>123.0</ele><time>2026-03-29T07:45:12.042Z</time></trkpt><trkpt lat="39.37508" lon="17.0885883"><ele>123.0</ele><time>2026-03-29T07:45:13.043Z</time></trkpt><trkpt lat="39.3750717" lon="17.08848"><ele>123.0</ele><time>2026-03-29T07:45:14.043Z</time></trkpt><trkpt lat="39.3750633" lon="17.0883617"><ele>123.0</ele><time>2026-03-29T07:45:15.043Z</time></trkpt><trkpt lat="39.3750483" lon="17.0882633"><ele>123.0</ele><time>2026-03-29T07:45:16.043Z</time></trkpt><trkpt lat="39.3750283" lon="17.0881733"><ele>123.0</ele><time>2026-03-29T07:45:17.043Z</time></trkpt><trkpt lat="39.375" lon="17.0880983"><ele>123.0</ele><time>2026-03-29T07:45:18.043Z</time></trkpt><trkpt lat="39.37494" lon="17.087955"><ele>122.66666666666667</ele><time>2026-03-29T07:45:20.043Z</time></trkpt><trkpt lat="39.3748983" lon="17.0878867"><ele>122.33333333333334</ele><time>2026-03-29T07:45:21.043Z</time></trkpt><trkpt lat="39.3748517" lon="17.0878217"><ele>122.0</ele><time>2026-03-29T07:45:22.042Z</time></trkpt><trkpt lat="39.3748" lon="17.087775"><ele>121.66666666666667</ele><time>2026-03-29T07:45:23.043Z</time></trkpt><trkpt lat="39.3746983" lon="17.087695"><ele>121.33333333333334</ele><time>2026-03-29T07:45:25.043Z</time></trkpt><trkpt lat="39.3746367" lon="17.0876533"><ele>121.0</ele><time>2026-03-29T07:45:26.042Z</time></trkpt><trkpt lat="39.3745683" lon="17.0876183"><ele>122.00000000000001</ele><time>2026-03-29T07:45:27.043Z</time></trkpt><trkpt lat="39.3745033" lon="17.0875883"><ele>123.0</ele><time>2026-03-29T07:45:28.043Z</time></trkpt><trkpt lat="39.3744417" lon="17.087545"><ele>124.0</ele><time>2026-03-29T07:45:29.042Z</time></trkpt><trkpt lat="39.3743617" lon="17.0875233"><ele>125.0</ele><time>2026-03-29T07:45:30.043Z</time></trkpt><trkpt lat="39.37428" lon="17.0874967"><ele>126.00000000000001</ele><time>2026-03-29T07:45:31.043Z</time></trkpt><trkpt lat="39.3741967" lon="17.0874733"><ele>127.0</ele><time>2026-03-29T07:45:32.043Z</time></trkpt><trkpt lat="39.3741267" lon="17.087455"><ele>127.16666666666667</ele><time>2026-03-29T07:45:33.042Z</time></trkpt><trkpt lat="39.3740583" lon="17.0874233"><ele>127.33333333333334</ele><time>2026-03-29T07:45:34.043Z</time></trkpt><trkpt lat="39.3739917" lon="17.0874017"><ele>127.5</ele><time>2026-03-29T07:45:35.042Z</time></trkpt><trkpt lat="39.373875" lon="17.08737"><ele>127.66666666666666</ele><time>2026-03-29T07:45:37.043Z</time></trkpt><trkpt lat="39.3737733" lon="17.0873433"><ele>127.83333333333333</ele><time>2026-03-29T07:45:39.043Z</time></trkpt><trkpt lat="39.3737083" lon="17.087325"><ele>128.0</ele><time>2026-03-29T07:45:42.043Z</time></trkpt><trkpt lat="39.3736217" lon="17.0872917"><ele>128.0</ele><time>2026-03-29T07:45:46.043Z</time></trkpt><trkpt lat="39.3735517" lon="17.087275"><ele>127.99999999999999</ele><time>2026-03-29T07:45:48.043Z</time></trkpt><trkpt lat="39.3734767" lon="17.08725"><ele>128.0</ele><time>2026-03-29T07:45:50.043Z</time></trkpt><trkpt lat="39.3734083" lon="17.0872433"><ele>128.0</ele><time>2026-03-29T07:45:53.043Z</time></trkpt><trkpt lat="39.3733467" lon="17.087215"><ele>127.99999999999999</ele><time>2026-03-29T07:45:56.042Z</time></trkpt><trkpt lat="39.3732767" lon="17.0871817"><ele>128.0</ele><time>2026-03-29T07:46:15.043Z</time></trkpt><trkpt lat="39.3731967" lon="17.0871417"><ele>128.0</ele><time>2026-03-29T07:46:17.043Z</time></trkpt><trkpt lat="39.3731083" lon="17.0870567"><ele>128.0</ele><time>2026-03-29T07:46:19.043Z</time></trkpt><trkpt lat="39.3730583" lon="17.0869267"><ele>128.0</ele><time>2026-03-29T07:46:21.043Z</time></trkpt><trkpt lat="39.373055" lon="17.08684"><ele>128.0</ele><time>2026-03-29T07:46:22.043Z</time></trkpt><trkpt lat="39.373055" lon="17.086755"><ele>128.0</ele><time>2026-03-29T07:46:23.043Z</time></trkpt><trkpt lat="39.37304" lon="17.0865983"><ele>128.0</ele><time>2026-03-29T07:46:25.043Z</time></trkpt><trkpt lat="39.3730283" lon="17.08646"><ele>127.83333333333333</ele><time>2026-03-29T07:46:27.043Z</time></trkpt><trkpt lat="39.3730083" lon="17.0863167"><ele>127.66666666666666</ele><time>2026-03-29T07:46:29.043Z</time></trkpt><trkpt lat="39.3729983" lon="17.0862317"><ele>127.5</ele><time>2026-03-29T07:46:30.042Z</time></trkpt><trkpt lat="39.3729867" lon="17.0861467"><ele>127.33333333333334</ele><time>2026-03-29T07:46:31.043Z</time></trkpt><trkpt lat="39.3729733" lon="17.0860617"><ele>127.16666666666667</ele><time>2026-03-29T07:46:32.043Z</time></trkpt><trkpt lat="39.3729317" lon="17.0859333"><ele>127.0</ele><time>2026-03-29T07:46:34.043Z</time></trkpt><trkpt lat="39.3728667" lon="17.0858217"><ele>129.2</ele><time>2026-03-29T07:46:36.043Z</time></trkpt><trkpt lat="39.3727917" lon="17.085735"><ele>131.39999999999998</ele><time>2026-03-29T07:46:38.043Z</time></trkpt><trkpt lat="39.37274" lon="17.0856567"><ele>133.60000000000002</ele><time>2026-03-29T07:46:40.043Z</time></trkpt><trkpt lat="39.3726833" lon="17.0855467"><ele>135.8</ele><time>2026-03-29T07:46:42.043Z</time></trkpt><trkpt lat="39.3726733" lon="17.085405"><ele>138.0</ele><time>2026-03-29T07:46:44.043Z</time></trkpt><trkpt lat="39.3727367" lon="17.0852733"><ele>138.0</ele><time>2026-03-29T07:46:46.042Z</time></trkpt><trkpt lat="39.3727917" lon="17.0852167"><ele>138.0</ele><time>2026-03-29T07:46:47.043Z</time></trkpt><trkpt lat="39.372845" lon="17.08516"><ele>138.0</ele><time>2026-03-29T07:46:48.043Z</time></trkpt><trkpt lat="39.3728983" lon="17.0851"><ele>138.0</ele><time>2026-03-29T07:46:49.043Z</time></trkpt><trkpt lat="39.372955" lon="17.08503"><ele>138.0</ele><time>2026-03-29T07:46:50.043Z</time></trkpt><trkpt lat="39.3730133" lon="17.0849533"><ele>138.0</ele><time>2026-03-29T07:46:51.043Z</time></trkpt><trkpt lat="39.3730783" lon="17.0848833"><ele>138.0</ele><time>2026-03-29T07:46:52.043Z</time></trkpt><trkpt lat="39.3731283" lon="17.0848017"><ele>138.0</ele><time>2026-03-29T07:46:53.043Z</time></trkpt><trkpt lat="39.373175" lon="17.084715"><ele>138.0</ele><time>2026-03-29T07:46:54.043Z</time></trkpt><trkpt lat="39.37322" lon="17.084625"><ele>138.0</ele><time>2026-03-29T07:46:55.043Z</time></trkpt><trkpt lat="39.3732467" lon="17.0845283"><ele>138.0</ele><time>2026-03-29T07:46:56.043Z</time></trkpt><trkpt lat="39.3732617" lon="17.0844417"><ele>138.0</ele><time>2026-03-29T07:46:57.043Z</time></trkpt><trkpt lat="39.3732817" lon="17.0843033"><ele>138.0</ele><time>2026-03-29T07:46:59.043Z</time></trkpt><trkpt lat="39.3732983" lon="17.0842217"><ele>138.0</ele><time>2026-03-29T07:47:01.043Z</time></trkpt><trkpt lat="39.37332" lon="17.084135"><ele>138.0</ele><time>2026-03-29T07:47:04.043Z</time></trkpt><trkpt lat="39.3733283" lon="17.08405"><ele>138.0</ele><time>2026-03-29T07:47:07.042Z</time></trkpt><trkpt lat="39.3732683" lon="17.0840083"><ele>138.0</ele><time>2026-03-29T07:47:11.043Z</time></trkpt><trkpt lat="39.3732" lon="17.0840433"><ele>138.0</ele><time>2026-03-29T07:47:13.043Z</time></trkpt><trkpt lat="39.37313" lon="17.0841533"><ele>138.0</ele><time>2026-03-29T07:47:15.043Z</time></trkpt><trkpt lat="39.3730783" lon="17.0842717"><ele>138.0</ele><time>2026-03-29T07:47:17.043Z</time></trkpt><trkpt lat="39.3730017" lon="17.0842817"><ele>138.0</ele><time>2026-03-29T07:47:19.043Z</time></trkpt><trkpt lat="39.3729217" lon="17.0842167"><ele>138.0</ele><time>2026-03-29T07:47:21.043Z</time></trkpt><trkpt lat="39.37285" lon="17.0841417"><ele>138.0</ele><time>2026-03-29T07:47:23.042Z</time></trkpt><trkpt lat="39.3727767" lon="17.084085"><ele>142.66666666666666</ele><time>2026-03-29T07:47:25.043Z</time></trkpt><trkpt lat="39.3727083" lon="17.0840133"><ele>147.33333333333334</ele><time>2026-03-29T07:47:27.043Z</time></trkpt><trkpt lat="39.3726417" lon="17.08394"><ele>152.0</ele><time>2026-03-29T07:47:29.043Z</time></trkpt><trkpt lat="39.372575" lon="17.0838633"><ele>156.66666666666669</ele><time>2026-03-29T07:47:31.043Z</time></trkpt><trkpt lat="39.3725317" lon="17.083775"><ele>161.33333333333334</ele><time>2026-03-29T07:47:33.043Z</time></trkpt><trkpt lat="39.37253" lon="17.0836767"><ele>166.0</ele><time>2026-03-29T07:47:35.042Z</time></trkpt><trkpt lat="39.372525" lon="17.083585"><ele>166.0</ele><time>2026-03-29T07:47:37.043Z</time></trkpt><trkpt lat="39.3725133" lon="17.0835033"><ele>166.0</ele><time>2026-03-29T07:47:39.043Z</time></trkpt><trkpt lat="39.3725583" lon="17.083425"><ele>166.0</ele><time>2026-03-29T07:47:41.043Z</time></trkpt><trkpt lat="39.37268" lon="17.083345"><ele>166.0</ele><time>2026-03-29T07:47:43.043Z</time></trkpt><trkpt lat="39.37274" lon="17.083305"><ele>166.0</ele><time>2026-03-29T07:47:44.043Z</time></trkpt><trkpt lat="39.3727933" lon="17.0832383"><ele>166.0</ele><time>2026-03-29T07:47:46.043Z</time></trkpt><trkpt lat="39.372745" lon="17.0831483"><ele>166.5</ele><time>2026-03-29T07:47:48.043Z</time></trkpt><trkpt lat="39.3727" lon="17.08308"><ele>167.0</ele><time>2026-03-29T07:47:49.043Z</time></trkpt><trkpt lat="39.37266" lon="17.083015"><ele>167.5</ele><time>2026-03-29T07:47:50.043Z</time></trkpt><trkpt lat="39.3726233" lon="17.0829467"><ele>168.0</ele><time>2026-03-29T07:47:51.043Z</time></trkpt><trkpt lat="39.372565" lon="17.082845"><ele>168.5</ele><time>2026-03-29T07:47:53.043Z</time></trkpt><trkpt lat="39.3725333" lon="17.0827467"><ele>169.0</ele><time>2026-03-29T07:47:55.043Z</time></trkpt><trkpt lat="39.3725517" lon="17.0826383"><ele>169.0</ele><time>2026-03-29T07:47:57.043Z</time></trkpt><trkpt lat="39.3726033" lon="17.082485"><ele>169.0</ele><time>2026-03-29T07:47:59.043Z</time></trkpt><trkpt lat="39.3726267" lon="17.08239"><ele>169.0</ele><time>2026-03-29T07:48:00.043Z</time></trkpt><trkpt lat="39.3726367" lon="17.0822983"><ele>169.0</ele><time>2026-03-29T07:48:01.043Z</time></trkpt><trkpt lat="39.3726483" lon="17.08217"><ele>169.0</ele><time>2026-03-29T07:48:03.043Z</time></trkpt><trkpt lat="39.3727467" lon="17.0821133"><ele>168.83333333333334</ele><time>2026-03-29T07:48:05.042Z</time></trkpt><trkpt lat="39.3728117" lon="17.0820917"><ele>168.66666666666669</ele><time>2026-03-29T07:48:06.043Z</time></trkpt><trkpt lat="39.3728767" lon="17.0820717"><ele>168.5</ele><time>2026-03-29T07:48:07.043Z</time></trkpt><trkpt lat="39.372945" lon="17.08204"><ele>168.33333333333334</ele><time>2026-03-29T07:48:08.043Z</time></trkpt><trkpt lat="39.373015" lon="17.08201"><ele>168.16666666666666</ele><time>2026-03-29T07:48:09.043Z</time></trkpt><trkpt lat="39.3730833" lon="17.0819733"><ele>168.0</ele><time>2026-03-29T07:48:10.043Z</time></trkpt><trkpt lat="39.3731817" lon="17.0818583"><ele>168.66666666666666</ele><time>2026-03-29T07:48:12.043Z</time></trkpt><trkpt lat="39.3732167" lon="17.08179"><ele>169.33333333333334</ele><time>2026-03-29T07:48:13.043Z</time></trkpt><trkpt lat="39.3732483" lon="17.0817167"><ele>170.0</ele><time>2026-03-29T07:48:14.043Z</time></trkpt><trkpt lat="39.3732817" lon="17.0816433"><ele>170.66666666666669</ele><time>2026-03-29T07:48:15.043Z</time></trkpt><trkpt lat="39.3733733" lon="17.0815367"><ele>171.33333333333334</ele><time>2026-03-29T07:48:17.043Z</time></trkpt><trkpt lat="39.3734717" lon="17.081475"><ele>172.0</ele><time>2026-03-29T07:48:19.043Z</time></trkpt><trkpt lat="39.3735633" lon="17.0814117"><ele>171.0</ele><time>2026-03-29T07:48:21.043Z</time></trkpt><trkpt lat="39.3736417" lon="17.08134"><ele>170.0</ele><time>2026-03-29T07:48:23.043Z</time></trkpt><trkpt lat="39.3737017" lon="17.0813"><ele>169.0</ele><time>2026-03-29T07:48:25.043Z</time></trkpt><trkpt lat="39.373755" lon="17.0812383"><ele>168.0</ele><time>2026-03-29T07:48:29.043Z</time></trkpt><trkpt lat="39.3738083" lon="17.081155"><ele>167.0</ele><time>2026-03-29T07:48:32.043Z</time></trkpt><trkpt lat="39.3738533" lon="17.081035"><ele>166.0</ele><time>2026-03-29T07:48:34.043Z</time></trkpt><trkpt lat="39.3739167" lon="17.0808967"><ele>166.0</ele><time>2026-03-29T07:48:36.043Z</time></trkpt><trkpt lat="39.3739883" lon="17.0807917"><ele>166.0</ele><time>2026-03-29T07:48:38.043Z</time></trkpt><trkpt lat="39.3740533" lon="17.0807183"><ele>166.0</ele><time>2026-03-29T07:48:40.043Z</time></trkpt><trkpt lat="39.3741533" lon="17.080655"><ele>166.0</ele><time>2026-03-29T07:48:42.042Z</time></trkpt><trkpt lat="39.3742567" lon="17.0806"><ele>166.0</ele><time>2026-03-29T07:48:44.043Z</time></trkpt><trkpt lat="39.3743333" lon="17.0805033"><ele>163.25</ele><time>2026-03-29T07:48:46.043Z</time></trkpt><trkpt lat="39.374405" lon="17.0804"><ele>160.5</ele><time>2026-03-29T07:48:48.043Z</time></trkpt><trkpt lat="39.3744983" lon="17.0803033"><ele>157.75</ele><time>2026-03-29T07:48:50.043Z</time></trkpt><trkpt lat="39.3745883" lon="17.0801983"><ele>155.0</ele><time>2026-03-29T07:48:52.043Z</time></trkpt><trkpt lat="39.3746817" lon="17.0801"><ele>156.0</ele><time>2026-03-29T07:48:54.043Z</time></trkpt><trkpt lat="39.3747633" lon="17.0800283"><ele>157.0</ele><time>2026-03-29T07:48:56.043Z</time></trkpt><trkpt lat="39.3748217" lon="17.0799333"><ele>158.0</ele><time>2026-03-29T07:48:58.042Z</time></trkpt><trkpt lat="39.374865" lon="17.0798233"><ele>159.0</ele><time>2026-03-29T07:49:00.043Z</time></trkpt><trkpt lat="39.3748183" lon="17.0799183"><ele>160.0</ele><time>2026-03-29T07:49:20.043Z</time></trkpt><trkpt lat="39.3747417" lon="17.0798733"><ele>160.0</ele><time>2026-03-29T07:49:46.043Z</time></trkpt><trkpt lat="39.374675" lon="17.0798367"><ele>160.0</ele><time>2026-03-29T07:49:48.043Z</time></trkpt><trkpt lat="39.3746617" lon="17.07975"><ele>160.0</ele><time>2026-03-29T07:49:50.043Z</time></trkpt><trkpt lat="39.3747117" lon="17.0796417"><ele>160.0</ele><time>2026-03-29T07:49:52.043Z</time></trkpt><trkpt lat="39.3747483" lon="17.07957"><ele>160.0</ele><time>2026-03-29T07:49:53.043Z</time></trkpt><trkpt lat="39.3747867" lon="17.0794917"><ele>160.0</ele><time>2026-03-29T07:49:54.043Z</time></trkpt><trkpt lat="39.37482" lon="17.0794017"><ele>160.0</ele><time>2026-03-29T07:49:55.043Z</time></trkpt><trkpt lat="39.3748533" lon="17.0793017"><ele>160.0</ele><time>2026-03-29T07:49:56.043Z</time></trkpt><trkpt lat="39.37488" lon="17.0792033"><ele>160.0</ele><time>2026-03-29T07:49:57.043Z</time></trkpt><trkpt lat="39.3748917" lon="17.0791133"><ele>160.0</ele><time>2026-03-29T07:49:58.043Z</time></trkpt><trkpt lat="39.37491" lon="17.0790283"><ele>160.0</ele><time>2026-03-29T07:49:59.043Z</time></trkpt><trkpt lat="39.3749283" lon="17.0789483"><ele>160.0</ele><time>2026-03-29T07:50:00.043Z</time></trkpt><trkpt lat="39.3749767" lon="17.07882"><ele>159.8</ele><time>2026-03-29T07:50:02.042Z</time></trkpt><trkpt lat="39.3749983" lon="17.0787133"><ele>159.6</ele><time>2026-03-29T07:50:04.043Z</time></trkpt><trkpt lat="39.3749483" lon="17.0786417"><ele>159.4</ele><time>2026-03-29T07:50:06.043Z</time></trkpt><trkpt lat="39.374855" lon="17.0786167"><ele>159.2</ele><time>2026-03-29T07:50:08.043Z</time></trkpt><trkpt lat="39.3747633" lon="17.0786517"><ele>159.0</ele><time>2026-03-29T07:50:10.042Z</time></trkpt><trkpt lat="39.37469" lon="17.0787417"><ele>159.83333333333334</ele><time>2026-03-29T07:50:12.042Z</time></trkpt><trkpt lat="39.374665" lon="17.078825"><ele>160.66666666666666</ele><time>2026-03-29T07:50:13.043Z</time></trkpt><trkpt lat="39.3746267" lon="17.07892"><ele>161.5</ele><time>2026-03-29T07:50:14.043Z</time></trkpt><trkpt lat="39.37459" lon="17.0789983"><ele>162.33333333333331</ele><time>2026-03-29T07:50:15.043Z</time></trkpt><trkpt lat="39.3745517" lon="17.079075"><ele>163.16666666666666</ele><time>2026-03-29T07:50:16.043Z</time></trkpt><trkpt lat="39.374475" lon="17.0791617"><ele>164.0</ele><time>2026-03-29T07:50:18.043Z</time></trkpt><trkpt lat="39.3743833" lon="17.079225"><ele>161.66666666666666</ele><time>2026-03-29T07:50:20.043Z</time></trkpt><trkpt lat="39.37429" lon="17.0793367"><ele>159.33333333333331</ele><time>2026-03-29T07:50:22.043Z</time></trkpt><trkpt lat="39.374245" lon="17.07941"><ele>157.0</ele><time>2026-03-29T07:50:23.043Z</time></trkpt><trkpt lat="39.3742017" lon="17.079475"><ele>154.66666666666666</ele><time>2026-03-29T07:50:24.042Z</time></trkpt><trkpt lat="39.3741583" lon="17.0795383"><ele>152.33333333333334</ele><time>2026-03-29T07:50:25.043Z</time></trkpt><trkpt lat="39.3740867" lon="17.07964"><ele>150.0</ele><time>2026-03-29T07:50:27.043Z</time></trkpt><trkpt lat="39.37404" lon="17.079695"><ele>150.0</ele><time>2026-03-29T07:50:28.043Z</time></trkpt><trkpt lat="39.3739867" lon="17.0797533"><ele>150.0</ele><time>2026-03-29T07:50:29.043Z</time></trkpt><trkpt lat="39.3739233" lon="17.07981"><ele>150.0</ele><time>2026-03-29T07:50:30.043Z</time></trkpt><trkpt lat="39.3738483" lon="17.079865"><ele>150.0</ele><time>2026-03-29T07:50:31.043Z</time></trkpt><trkpt lat="39.3737717" lon="17.0799133"><ele>150.0</ele><time>2026-03-29T07:50:32.043Z</time></trkpt><trkpt lat="39.3737067" lon="17.0799567"><ele>150.0</ele><time>2026-03-29T07:50:33.042Z</time></trkpt><trkpt lat="39.3735867" lon="17.0799783"><ele>148.66666666666666</ele><time>2026-03-29T07:50:35.043Z</time></trkpt><trkpt lat="39.37352" lon="17.07997"><ele>147.33333333333334</ele><time>2026-03-29T07:50:36.042Z</time></trkpt><trkpt lat="39.3734483" lon="17.08"><ele>146.0</ele><time>2026-03-29T07:50:37.043Z</time></trkpt><trkpt lat="39.3733767" lon="17.08005"><ele>144.66666666666669</ele><time>2026-03-29T07:50:38.043Z</time></trkpt><trkpt lat="39.3733033" lon="17.080105"><ele>143.33333333333334</ele><time>2026-03-29T07:50:39.043Z</time></trkpt><trkpt lat="39.3732283" lon="17.080165"><ele>142.0</ele><time>2026-03-29T07:50:40.042Z</time></trkpt><trkpt lat="39.3731567" lon="17.0802"><ele>142.0</ele><time>2026-03-29T07:50:41.043Z</time></trkpt><trkpt lat="39.3730833" lon="17.080215"><ele>142.0</ele><time>2026-03-29T07:50:42.043Z</time></trkpt><trkpt lat="39.37301" lon="17.0802033"><ele>142.0</ele><time>2026-03-29T07:50:43.043Z</time></trkpt><trkpt lat="39.3729467" lon="17.08016"><ele>142.0</ele><time>2026-03-29T07:50:44.043Z</time></trkpt><trkpt lat="39.3728817" lon="17.08011"><ele>142.0</ele><time>2026-03-29T07:50:45.043Z</time></trkpt><trkpt lat="39.3728217" lon="17.080055"><ele>142.0</ele><time>2026-03-29T07:50:46.043Z</time></trkpt><trkpt lat="39.3727333" lon="17.0800067"><ele>142.0</ele><time>2026-03-29T07:50:48.043Z</time></trkpt><trkpt lat="39.372705" lon="17.0798933"><ele>142.0</ele><time>2026-03-29T07:50:56.043Z</time></trkpt><trkpt lat="39.372695" lon="17.0798117"><ele>142.0</ele><time>2026-03-29T07:51:03.043Z</time></trkpt><trkpt lat="39.37263" lon="17.0797967"><ele>142.0</ele><time>2026-03-29T07:51:05.043Z</time></trkpt><trkpt lat="39.3725533" lon="17.0797867"><ele>142.0</ele><time>2026-03-29T07:51:07.043Z</time></trkpt><trkpt lat="39.372485" lon="17.0797517"><ele>142.0</ele><time>2026-03-29T07:51:09.042Z</time></trkpt><trkpt lat="39.3723967" lon="17.0797333"><ele>142.0</ele><time>2026-03-29T07:51:11.041Z</time></trkpt><trkpt lat="39.372295" lon="17.079775"><ele>142.0</ele><time>2026-03-29T07:51:13.042Z</time></trkpt><trkpt lat="39.37221" lon="17.0798367"><ele>142.0</ele><time>2026-03-29T07:51:15.042Z</time></trkpt><trkpt lat="39.3721467" lon="17.079935"><ele>142.0</ele><time>2026-03-29T07:51:17.042Z</time></trkpt><trkpt lat="39.37213" lon="17.08004"><ele>142.0</ele><time>2026-03-29T07:51:19.042Z</time></trkpt><trkpt lat="39.3720967" lon="17.0801167"><ele>143.66666666666669</ele><time>2026-03-29T07:51:21.042Z</time></trkpt><trkpt lat="39.372055" lon="17.080185"><ele>145.33333333333334</ele><time>2026-03-29T07:51:23.041Z</time></trkpt><trkpt lat="39.3719967" lon="17.0802633"><ele>147.0</ele><time>2026-03-29T07:51:25.042Z</time></trkpt><trkpt lat="39.3718933" lon="17.0803617"><ele>148.66666666666666</ele><time>2026-03-29T07:51:27.042Z</time></trkpt><trkpt lat="39.3718383" lon="17.0804117"><ele>150.33333333333331</ele><time>2026-03-29T07:51:28.042Z</time></trkpt><trkpt lat="39.371785" lon="17.0804583"><ele>152.0</ele><time>2026-03-29T07:51:29.042Z</time></trkpt><trkpt lat="39.3717067" lon="17.080535"><ele>152.0</ele><time>2026-03-29T07:51:31.041Z</time></trkpt><trkpt lat="39.3716617" lon="17.0806217"><ele>152.0</ele><time>2026-03-29T07:51:33.042Z</time></trkpt><trkpt lat="39.37162" lon="17.0807167"><ele>152.0</ele><time>2026-03-29T07:51:35.042Z</time></trkpt><trkpt lat="39.3715783" lon="17.0808017"><ele>152.0</ele><time>2026-03-29T07:51:37.042Z</time></trkpt><trkpt lat="39.371545" lon="17.0809033"><ele>152.0</ele><time>2026-03-29T07:51:40.042Z</time></trkpt><trkpt lat="39.371475" lon="17.0810567"><ele>153.0</ele><time>2026-03-29T07:52:13.042Z</time></trkpt><trkpt lat="39.37143" lon="17.081155"><ele>154.0</ele><time>2026-03-29T07:52:15.041Z</time></trkpt><trkpt lat="39.371365" lon="17.0812467"><ele>155.0</ele><time>2026-03-29T07:52:17.042Z</time></trkpt><trkpt lat="39.371285" lon="17.0813217"><ele>156.0</ele><time>2026-03-29T07:52:19.042Z</time></trkpt><trkpt lat="39.3712067" lon="17.08138"><ele>157.0</ele><time>2026-03-29T07:52:21.042Z</time></trkpt><trkpt lat="39.3711283" lon="17.0814533"><ele>157.0</ele><time>2026-03-29T07:52:23.042Z</time></trkpt><trkpt lat="39.371105" lon="17.0815617"><ele>157.0</ele><time>2026-03-29T07:52:26.041Z</time></trkpt><trkpt lat="39.3711317" lon="17.0816683"><ele>157.0</ele><time>2026-03-29T07:52:28.042Z</time></trkpt><trkpt lat="39.3711283" lon="17.081785"><ele>157.0</ele><time>2026-03-29T07:52:30.042Z</time></trkpt><trkpt lat="39.3710783" lon="17.0819"><ele>157.0</ele><time>2026-03-29T07:52:32.042Z</time></trkpt><trkpt lat="39.371" lon="17.0819633"><ele>155.33333333333334</ele><time>2026-03-29T07:52:34.042Z</time></trkpt><trkpt lat="39.3709117" lon="17.0819633"><ele>153.66666666666669</ele><time>2026-03-29T07:52:36.042Z</time></trkpt><trkpt lat="39.3708767" lon="17.0820317"><ele>152.0</ele><time>2026-03-29T07:52:38.041Z</time></trkpt><trkpt lat="39.37089" lon="17.08215"><ele>150.33333333333334</ele><time>2026-03-29T07:52:40.042Z</time></trkpt><trkpt lat="39.3709017" lon="17.0822683"><ele>148.66666666666666</ele><time>2026-03-29T07:52:42.042Z</time></trkpt><trkpt lat="39.37091" lon="17.082395"><ele>147.0</ele><time>2026-03-29T07:52:44.042Z</time></trkpt><trkpt lat="39.370885" lon="17.0825333"><ele>145.0</ele><time>2026-03-29T07:52:46.041Z</time></trkpt><trkpt lat="39.3708883" lon="17.082675"><ele>143.0</ele><time>2026-03-29T07:52:48.042Z</time></trkpt><trkpt lat="39.3709117" lon="17.0827533"><ele>141.0</ele><time>2026-03-29T07:52:49.041Z</time></trkpt><trkpt lat="39.370945" lon="17.082825"><ele>139.0</ele><time>2026-03-29T07:52:50.042Z</time></trkpt><trkpt lat="39.37099" lon="17.0829433"><ele>137.0</ele><time>2026-03-29T07:52:52.042Z</time></trkpt><trkpt lat="39.3710117" lon="17.0830233"><ele>135.0</ele><time>2026-03-29T07:52:54.041Z</time></trkpt><trkpt lat="39.37102" lon="17.0831267"><ele>135.0</ele><time>2026-03-29T07:52:56.042Z</time></trkpt><trkpt lat="39.37101" lon="17.0832583"><ele>135.0</ele><time>2026-03-29T07:52:58.042Z</time></trkpt><trkpt lat="39.3709783" lon="17.083375"><ele>135.0</ele><time>2026-03-29T07:53:00.042Z</time></trkpt><trkpt lat="39.37096" lon="17.0834767"><ele>135.0</ele><time>2026-03-29T07:53:02.042Z</time></trkpt><trkpt lat="39.37094" lon="17.0835667"><ele>135.0</ele><time>2026-03-29T07:53:04.042Z</time></trkpt><trkpt lat="39.3708683" lon="17.08364"><ele>135.0</ele><time>2026-03-29T07:53:07.042Z</time></trkpt><trkpt lat="39.3708017" lon="17.0836967"><ele>134.33333333333334</ele><time>2026-03-29T07:53:09.042Z</time></trkpt><trkpt lat="39.370725" lon="17.0837817"><ele>133.66666666666666</ele><time>2026-03-29T07:53:11.042Z</time></trkpt><trkpt lat="39.37065" lon="17.0838567"><ele>133.0</ele><time>2026-03-29T07:53:13.041Z</time></trkpt><trkpt lat="39.3705667" lon="17.0838783"><ele>132.33333333333331</ele><time>2026-03-29T07:53:15.042Z</time></trkpt><trkpt lat="39.3704983" lon="17.0838667"><ele>131.66666666666666</ele><time>2026-03-29T07:53:17.042Z</time></trkpt><trkpt lat="39.3704367" lon="17.0838"><ele>131.0</ele><time>2026-03-29T07:53:20.042Z</time></trkpt><trkpt lat="39.3704017" lon="17.0837167"><ele>135.33333333333331</ele><time>2026-03-29T07:53:22.042Z</time></trkpt><trkpt lat="39.3703717" lon="17.083615"><ele>139.66666666666666</ele><time>2026-03-29T07:53:24.042Z</time></trkpt><trkpt lat="39.3703317" lon="17.0835283"><ele>144.0</ele><time>2026-03-29T07:53:26.042Z</time></trkpt><trkpt lat="39.3702767" lon="17.0834667"><ele>148.33333333333334</ele><time>2026-03-29T07:53:28.042Z</time></trkpt><trkpt lat="39.3701933" lon="17.08342"><ele>152.66666666666669</ele><time>2026-03-29T07:53:30.042Z</time></trkpt><trkpt lat="39.37009" lon="17.0834383"><ele>157.0</ele><time>2026-03-29T07:53:32.042Z</time></trkpt><trkpt lat="39.37003" lon="17.083465"><ele>157.0</ele><time>2026-03-29T07:53:33.042Z</time></trkpt><trkpt lat="39.36992" lon="17.0835233"><ele>157.0</ele><time>2026-03-29T07:53:35.042Z</time></trkpt><trkpt lat="39.3698217" lon="17.0835833"><ele>157.0</ele><time>2026-03-29T07:53:37.041Z</time></trkpt><trkpt lat="39.3697383" lon="17.0836017"><ele>157.0</ele><time>2026-03-29T07:53:39.042Z</time></trkpt><trkpt lat="39.3696867" lon="17.0835317"><ele>157.0</ele><time>2026-03-29T07:53:41.042Z</time></trkpt><trkpt lat="39.3696267" lon="17.0834233"><ele>159.0</ele><time>2026-03-29T07:53:43.042Z</time></trkpt><trkpt lat="39.369565" lon="17.0833233"><ele>161.0</ele><time>2026-03-29T07:53:45.042Z</time></trkpt><trkpt lat="39.3694967" lon="17.08325"><ele>163.0</ele><time>2026-03-29T07:53:47.042Z</time></trkpt><trkpt lat="39.3694367" lon="17.0831633"><ele>165.0</ele><time>2026-03-29T07:53:49.042Z</time></trkpt><trkpt lat="39.3693833" lon="17.0830433"><ele>167.0</ele><time>2026-03-29T07:53:51.042Z</time></trkpt><trkpt lat="39.36939" lon="17.0828983"><ele>170.6</ele><time>2026-03-29T07:53:53.042Z</time></trkpt><trkpt lat="39.3694267" lon="17.0827517"><ele>174.2</ele><time>2026-03-29T07:53:55.041Z</time></trkpt><trkpt lat="39.3694817" lon="17.0826267"><ele>177.8</ele><time>2026-03-29T07:53:57.042Z</time></trkpt><trkpt lat="39.36956" lon="17.082515"><ele>181.4</ele><time>2026-03-29T07:53:59.042Z</time></trkpt><trkpt lat="39.3696317" lon="17.0824233"><ele>185.0</ele><time>2026-03-29T07:54:01.042Z</time></trkpt><trkpt lat="39.3696383" lon="17.082305"><ele>186.83333333333331</ele><time>2026-03-29T07:54:03.042Z</time></trkpt><trkpt lat="39.3696017" lon="17.0822"><ele>188.66666666666666</ele><time>2026-03-29T07:54:05.041Z</time></trkpt><trkpt lat="39.36953" lon="17.08212"><ele>190.5</ele><time>2026-03-29T07:54:07.042Z</time></trkpt><trkpt lat="39.369455" lon="17.0820567"><ele>192.33333333333331</ele><time>2026-03-29T07:54:09.042Z</time></trkpt><trkpt lat="39.3693817" lon="17.082"><ele>194.16666666666666</ele><time>2026-03-29T07:54:11.042Z</time></trkpt><trkpt lat="39.369305" lon="17.0819517"><ele>196.0</ele><time>2026-03-29T07:54:13.042Z</time></trkpt><trkpt lat="39.3692233" lon="17.08189"><ele>196.0</ele><time>2026-03-29T07:54:15.042Z</time></trkpt><trkpt lat="39.369135" lon="17.08181"><ele>196.0</ele><time>2026-03-29T07:54:17.042Z</time></trkpt><trkpt lat="39.3690383" lon="17.081715"><ele>196.0</ele><time>2026-03-29T07:54:19.042Z</time></trkpt><trkpt lat="39.3689733" lon="17.0817167"><ele>196.0</ele><time>2026-03-29T07:54:21.042Z</time></trkpt><trkpt lat="39.3688733" lon="17.0817267"><ele>196.0</ele><time>2026-03-29T07:54:56.041Z</time></trkpt><trkpt lat="39.368815" lon="17.08167"><ele>200.20000000000002</ele><time>2026-03-29T07:55:00.042Z</time></trkpt><trkpt lat="39.3687817" lon="17.0815483"><ele>204.4</ele><time>2026-03-29T07:55:03.042Z</time></trkpt><trkpt lat="39.3688" lon="17.08142"><ele>208.6</ele><time>2026-03-29T07:55:05.042Z</time></trkpt><trkpt lat="39.36881" lon="17.0813033"><ele>212.8</ele><time>2026-03-29T07:55:07.042Z</time></trkpt><trkpt lat="39.3688033" lon="17.0812067"><ele>217.0</ele><time>2026-03-29T07:55:09.042Z</time></trkpt><trkpt lat="39.3687833" lon="17.0811017"><ele>216.99999999999997</ele><time>2026-03-29T07:55:11.042Z</time></trkpt><trkpt lat="39.3687367" lon="17.0809833"><ele>217.0</ele><time>2026-03-29T07:55:13.042Z</time></trkpt><trkpt lat="39.3686717" lon="17.0808817"><ele>217.0</ele><time>2026-03-29T07:55:15.042Z</time></trkpt><trkpt lat="39.36863" lon="17.080795"><ele>217.0</ele><time>2026-03-29T07:55:17.042Z</time></trkpt><trkpt lat="39.3686583" lon="17.0806983"><ele>216.99999999999997</ele><time>2026-03-29T07:55:19.042Z</time></trkpt><trkpt lat="39.3687133" lon="17.0806317"><ele>217.0</ele><time>2026-03-29T07:55:22.042Z</time></trkpt><trkpt lat="39.3687767" lon="17.0805717"><ele>217.99999999999997</ele><time>2026-03-29T07:55:29.042Z</time></trkpt><trkpt lat="39.368755" lon="17.0804717"><ele>219.0</ele><time>2026-03-29T07:55:32.042Z</time></trkpt><trkpt lat="39.3686883" lon="17.0804117"><ele>220.0</ele><time>2026-03-29T07:55:48.042Z</time></trkpt><trkpt lat="39.3686367" lon="17.0803333"><ele>221.0</ele><time>2026-03-29T07:55:51.042Z</time></trkpt><trkpt lat="39.3685733" lon="17.08028"><ele>221.99999999999997</ele><time>2026-03-29T07:55:53.041Z</time></trkpt><trkpt lat="39.3684917" lon="17.0802333"><ele>223.0</ele><time>2026-03-29T07:55:55.042Z</time></trkpt><trkpt lat="39.3684483" lon="17.08014"><ele>222.99999999999997</ele><time>2026-03-29T07:55:58.042Z</time></trkpt><trkpt lat="39.3684333" lon="17.0800433"><ele>223.0</ele><time>2026-03-29T07:56:01.042Z</time></trkpt><trkpt lat="39.3683833" lon="17.0799467"><ele>223.0</ele><time>2026-03-29T07:56:24.042Z</time></trkpt><trkpt lat="39.3683667" lon="17.0798533"><ele>223.0</ele><time>2026-03-29T07:56:26.042Z</time></trkpt><trkpt lat="39.36835" lon="17.079745"><ele>222.99999999999997</ele><time>2026-03-29T07:56:28.042Z</time></trkpt><trkpt lat="39.3683183" lon="17.079645"><ele>223.0</ele><time>2026-03-29T07:56:30.042Z</time></trkpt><trkpt lat="39.3682883" lon="17.0795417"><ele>222.33333333333331</ele><time>2026-03-29T07:56:32.042Z</time></trkpt><trkpt lat="39.3683117" lon="17.07943"><ele>221.66666666666666</ele><time>2026-03-29T07:56:34.041Z</time></trkpt><trkpt lat="39.368365" lon="17.079345"><ele>221.0</ele><time>2026-03-29T07:56:36.042Z</time></trkpt><trkpt lat="39.36843" lon="17.0792967"><ele>220.33333333333331</ele><time>2026-03-29T07:56:38.042Z</time></trkpt><trkpt lat="39.3684983" lon="17.0792667"><ele>219.66666666666666</ele><time>2026-03-29T07:56:43.042Z</time></trkpt><trkpt lat="39.368555" lon="17.079215"><ele>219.0</ele><time>2026-03-29T07:56:48.042Z</time></trkpt><trkpt lat="39.3685967" lon="17.0791417"><ele>215.83333333333334</ele><time>2026-03-29T07:56:53.041Z</time></trkpt><trkpt lat="39.368645" lon="17.079075"><ele>212.66666666666669</ele><time>2026-03-29T07:56:59.042Z</time></trkpt><trkpt lat="39.3686867" lon="17.0789967"><ele>209.5</ele><time>2026-03-29T07:57:04.042Z</time></trkpt><trkpt lat="39.3687117" lon="17.0789033"><ele>206.33333333333334</ele><time>2026-03-29T07:57:09.042Z</time></trkpt><trkpt lat="39.3687383" lon="17.0788083"><ele>203.16666666666669</ele><time>2026-03-29T07:57:14.042Z</time></trkpt><trkpt lat="39.3687417" lon="17.0787067"><ele>200.0</ele><time>2026-03-29T07:57:18.042Z</time></trkpt><trkpt lat="39.36874" lon="17.0785967"><ele>200.00000000000003</ele><time>2026-03-29T07:57:21.042Z</time></trkpt><trkpt lat="39.3687417" lon="17.078485"><ele>200.0</ele><time>2026-03-29T07:57:24.042Z</time></trkpt><trkpt lat="39.36875" lon="17.078385"><ele>200.0</ele><time>2026-03-29T07:57:27.042Z</time></trkpt><trkpt lat="39.3687667" lon="17.0782933"><ele>200.0</ele><time>2026-03-29T07:57:30.041Z</time></trkpt><trkpt lat="39.36877" lon="17.0781883"><ele>200.00000000000003</ele><time>2026-03-29T07:57:33.042Z</time></trkpt><trkpt lat="39.3687683" lon="17.0780933"><ele>200.0</ele><time>2026-03-29T07:57:35.042Z</time></trkpt><trkpt lat="39.3687633" lon="17.0779817"><ele>197.00000000000003</ele><time>2026-03-29T07:57:37.042Z</time></trkpt><trkpt lat="39.3687683" lon="17.0778583"><ele>194.0</ele><time>2026-03-29T07:57:39.042Z</time></trkpt><trkpt lat="39.3687817" lon="17.0777633"><ele>191.0</ele><time>2026-03-29T07:57:41.042Z</time></trkpt><trkpt lat="39.3688" lon="17.077685"><ele>188.0</ele><time>2026-03-29T07:57:43.042Z</time></trkpt><trkpt lat="39.3688117" lon="17.0775967"><ele>185.0</ele><time>2026-03-29T07:57:45.042Z</time></trkpt><trkpt lat="39.3688217" lon="17.0775133"><ele>182.00000000000003</ele><time>2026-03-29T07:57:47.042Z</time></trkpt><trkpt lat="39.3688417" lon="17.0774217"><ele>179.0</ele><time>2026-03-29T07:57:49.042Z</time></trkpt><trkpt lat="39.3688617" lon="17.07733"><ele>177.83333333333331</ele><time>2026-03-29T07:57:51.042Z</time></trkpt><trkpt lat="39.3688733" lon="17.077235"><ele>176.66666666666666</ele><time>2026-03-29T07:57:53.042Z</time></trkpt><trkpt lat="39.3688933" lon="17.0771333"><ele>175.5</ele><time>2026-03-29T07:57:55.042Z</time></trkpt><trkpt lat="39.3689083" lon="17.0770183"><ele>174.33333333333334</ele><time>2026-03-29T07:57:57.042Z</time></trkpt><trkpt lat="39.3689133" lon="17.07693"><ele>173.16666666666669</ele><time>2026-03-29T07:57:59.041Z</time></trkpt><trkpt lat="39.36892" lon="17.0768317"><ele>172.0</ele><time>2026-03-29T07:58:02.041Z</time></trkpt><trkpt lat="39.368925" lon="17.0767167"><ele>172.0</ele><time>2026-03-29T07:58:05.042Z</time></trkpt><trkpt lat="39.368935" lon="17.0766233"><ele>172.0</ele><time>2026-03-29T07:58:07.042Z</time></trkpt><trkpt lat="39.36895" lon="17.0765133"><ele>172.0</ele><time>2026-03-29T07:58:09.041Z</time></trkpt><trkpt lat="39.3689883" lon="17.0764167"><ele>172.0</ele><time>2026-03-29T07:58:11.042Z</time></trkpt><trkpt lat="39.3690433" lon="17.076335"><ele>172.0</ele><time>2026-03-29T07:58:13.042Z</time></trkpt><trkpt lat="39.369075" lon="17.0762383"><ele>172.0</ele><time>2026-03-29T07:58:15.042Z</time></trkpt><trkpt lat="39.369015" lon="17.076155"><ele>170.16666666666669</ele><time>2026-03-29T07:58:18.041Z</time></trkpt><trkpt lat="39.368935" lon="17.0761117"><ele>168.33333333333334</ele><time>2026-03-29T07:58:21.042Z</time></trkpt><trkpt lat="39.3688567" lon="17.0760767"><ele>166.5</ele><time>2026-03-29T07:58:26.042Z</time></trkpt><trkpt lat="39.3687917" lon="17.0760517"><ele>164.66666666666666</ele><time>2026-03-29T07:58:29.042Z</time></trkpt><trkpt lat="39.3687167" lon="17.076055"><ele>162.83333333333331</ele><time>2026-03-29T07:58:32.042Z</time></trkpt><trkpt lat="39.3686433" lon="17.0761"><ele>161.0</ele><time>2026-03-29T07:58:34.042Z</time></trkpt><trkpt lat="39.3685683" lon="17.0761817"><ele>158.16666666666666</ele><time>2026-03-29T07:58:36.042Z</time></trkpt><trkpt lat="39.36848" lon="17.0762833"><ele>155.33333333333331</ele><time>2026-03-29T07:58:38.042Z</time></trkpt><trkpt lat="39.3684117" lon="17.0763767"><ele>152.5</ele><time>2026-03-29T07:58:40.041Z</time></trkpt><trkpt lat="39.3683817" lon="17.0764617"><ele>149.66666666666666</ele><time>2026-03-29T07:58:42.042Z</time></trkpt><trkpt lat="39.3683283" lon="17.0765267"><ele>146.83333333333334</ele><time>2026-03-29T07:58:45.041Z</time></trkpt><trkpt lat="39.3683067" lon="17.0764217"><ele>144.0</ele><time>2026-03-29T07:58:49.042Z</time></trkpt><trkpt lat="39.3683383" lon="17.0763417"><ele>144.0</ele><time>2026-03-29T07:58:52.042Z</time></trkpt><trkpt lat="39.3683817" lon="17.0762483"><ele>144.0</ele><time>2026-03-29T07:58:55.042Z</time></trkpt><trkpt lat="39.3684083" lon="17.0761667"><ele>144.0</ele><time>2026-03-29T07:58:58.042Z</time></trkpt><trkpt lat="39.3684483" lon="17.0760567"><ele>144.0</ele><time>2026-03-29T07:59:49.042Z</time></trkpt><trkpt lat="39.3684633" lon="17.0759483"><ele>144.0</ele><time>2026-03-29T07:59:52.042Z</time></trkpt><trkpt lat="39.36848" lon="17.0758533"><ele>144.0</ele><time>2026-03-29T07:59:54.042Z</time></trkpt><trkpt lat="39.3685083" lon="17.07575"><ele>142.0</ele><time>2026-03-29T07:59:56.042Z</time></trkpt><trkpt lat="39.3685367" lon="17.0756617"><ele>140.0</ele><time>2026-03-29T07:59:58.042Z</time></trkpt><trkpt lat="39.3685567" lon="17.0755783"><ele>138.0</ele><time>2026-03-29T08:00:00.041Z</time></trkpt><trkpt lat="39.368525" lon="17.0754967"><ele>136.0</ele><time>2026-03-29T08:00:02.042Z</time></trkpt><trkpt lat="39.368455" lon="17.07542"><ele>134.0</ele><time>2026-03-29T08:00:04.042Z</time></trkpt><trkpt lat="39.3683883" lon="17.0753517"><ele>132.0</ele><time>2026-03-29T08:00:06.042Z</time></trkpt><trkpt lat="39.3683317" lon="17.07527"><ele>132.0</ele><time>2026-03-29T08:00:08.042Z</time></trkpt><trkpt lat="39.3682917" lon="17.0751567"><ele>132.0</ele><time>2026-03-29T08:00:10.041Z</time></trkpt><trkpt lat="39.3682567" lon="17.07505"><ele>132.0</ele><time>2026-03-29T08:00:12.042Z</time></trkpt><trkpt lat="39.3682183" lon="17.07496"><ele>132.0</ele><time>2026-03-29T08:00:14.042Z</time></trkpt><trkpt lat="39.36817" lon="17.0748633"><ele>132.0</ele><time>2026-03-29T08:00:16.042Z</time></trkpt><trkpt lat="39.368145" lon="17.074755"><ele>132.0</ele><time>2026-03-29T08:00:18.041Z</time></trkpt><trkpt lat="39.368105" lon="17.0746617"><ele>128.16666666666666</ele><time>2026-03-29T08:00:20.042Z</time></trkpt><trkpt lat="39.3680217" lon="17.0745817"><ele>124.33333333333334</ele><time>2026-03-29T08:00:22.042Z</time></trkpt><trkpt lat="39.3679633" lon="17.074545"><ele>120.5</ele><time>2026-03-29T08:00:23.041Z</time></trkpt><trkpt lat="39.3678983" lon="17.0745"><ele>116.66666666666667</ele><time>2026-03-29T08:00:24.041Z</time></trkpt><trkpt lat="39.3678383" lon="17.0744633"><ele>112.83333333333334</ele><time>2026-03-29T08:00:25.042Z</time></trkpt><trkpt lat="39.3677517" lon="17.07441"><ele>109.0</ele><time>2026-03-29T08:00:27.042Z</time></trkpt><trkpt lat="39.367695" lon="17.0743717"><ele>109.00000000000001</ele><time>2026-03-29T08:00:29.042Z</time></trkpt><trkpt lat="39.3676167" lon="17.0743117"><ele>109.0</ele><time>2026-03-29T08:00:32.041Z</time></trkpt><trkpt lat="39.367555" lon="17.0742667"><ele>109.0</ele><time>2026-03-29T08:00:34.042Z</time></trkpt><trkpt lat="39.3674733" lon="17.0742233"><ele>109.0</ele><time>2026-03-29T08:00:37.042Z</time></trkpt><trkpt lat="39.3673933" lon="17.0741483"><ele>109.00000000000001</ele><time>2026-03-29T08:01:21.041Z</time></trkpt><trkpt lat="39.3673183" lon="17.0740917"><ele>109.0</ele><time>2026-03-29T08:01:25.04Z</time></trkpt><trkpt lat="39.3672567" lon="17.07404"><ele>106.4</ele><time>2026-03-29T08:01:27.041Z</time></trkpt><trkpt lat="39.36718" lon="17.0739767"><ele>103.80000000000001</ele><time>2026-03-29T08:01:29.041Z</time></trkpt><trkpt lat="39.3670867" lon="17.07391"><ele>101.19999999999999</ele><time>2026-03-29T08:01:31.041Z</time></trkpt><trkpt lat="39.367005" lon="17.0738483"><ele>98.6</ele><time>2026-03-29T08:01:33.041Z</time></trkpt><trkpt lat="39.3669283" lon="17.0737767"><ele>96.0</ele><time>2026-03-29T08:01:35.041Z</time></trkpt><trkpt lat="39.36682" lon="17.0737017"><ele>96.0</ele><time>2026-03-29T08:01:37.041Z</time></trkpt><trkpt lat="39.3667583" lon="17.0736617"><ele>96.0</ele><time>2026-03-29T08:01:38.041Z</time></trkpt><trkpt lat="39.366695" lon="17.07363"><ele>96.0</ele><time>2026-03-29T08:01:39.041Z</time></trkpt><trkpt lat="39.366585" lon="17.073605"><ele>96.0</ele><time>2026-03-29T08:01:41.041Z</time></trkpt><trkpt lat="39.366485" lon="17.0736017"><ele>96.0</ele><time>2026-03-29T08:01:43.041Z</time></trkpt><trkpt lat="39.3663783" lon="17.0736"><ele>93.8</ele><time>2026-03-29T08:01:45.041Z</time></trkpt><trkpt lat="39.366255" lon="17.0736"><ele>91.6</ele><time>2026-03-29T08:01:47.041Z</time></trkpt><trkpt lat="39.3661867" lon="17.0736083"><ele>89.4</ele><time>2026-03-29T08:01:48.041Z</time></trkpt><trkpt lat="39.3661233" lon="17.0736267"><ele>87.2</ele><time>2026-03-29T08:01:49.04Z</time></trkpt><trkpt lat="39.3660183" lon="17.0736883"><ele>85.0</ele><time>2026-03-29T08:01:51.041Z</time></trkpt><trkpt lat="39.36594" lon="17.07374"><ele>85.0</ele><time>2026-03-29T08:01:53.041Z</time></trkpt><trkpt lat="39.365865" lon="17.073745"><ele>85.0</ele><time>2026-03-29T08:01:55.041Z</time></trkpt><trkpt lat="39.3657817" lon="17.0736967"><ele>85.0</ele><time>2026-03-29T08:01:57.041Z</time></trkpt><trkpt lat="39.36567" lon="17.0736233"><ele>85.0</ele><time>2026-03-29T08:01:59.041Z</time></trkpt><trkpt lat="39.3656033" lon="17.0735917"><ele>85.0</ele><time>2026-03-29T08:02:00.041Z</time></trkpt><trkpt lat="39.3655" lon="17.07355"><ele>83.5</ele><time>2026-03-29T08:02:02.041Z</time></trkpt><trkpt lat="39.36543" lon="17.0735383"><ele>82.0</ele><time>2026-03-29T08:02:04.04Z</time></trkpt><trkpt lat="39.3653667" lon="17.073545"><ele>80.5</ele><time>2026-03-29T08:02:06.04Z</time></trkpt><trkpt lat="39.3652817" lon="17.07357"><ele>79.0</ele><time>2026-03-29T08:02:08.041Z</time></trkpt><trkpt lat="39.3651617" lon="17.0735633"><ele>77.5</ele><time>2026-03-29T08:02:10.04Z</time></trkpt><trkpt lat="39.3650967" lon="17.07354"><ele>76.0</ele><time>2026-03-29T08:02:11.041Z</time></trkpt><trkpt lat="39.3650217" lon="17.0735017"><ele>76.0</ele><time>2026-03-29T08:02:12.04Z</time></trkpt><trkpt lat="39.3649433" lon="17.0734617"><ele>76.0</ele><time>2026-03-29T08:02:13.04Z</time></trkpt><trkpt lat="39.36487" lon="17.07343"><ele>76.0</ele><time>2026-03-29T08:02:14.041Z</time></trkpt><trkpt lat="39.3648067" lon="17.0733967"><ele>76.0</ele><time>2026-03-29T08:02:15.041Z</time></trkpt><trkpt lat="39.3646967" lon="17.0733383"><ele>76.0</ele><time>2026-03-29T08:02:17.04Z</time></trkpt><trkpt lat="39.36459" lon="17.0733117"><ele>75.66666666666666</ele><time>2026-03-29T08:02:19.041Z</time></trkpt><trkpt lat="39.3644933" lon="17.073305"><ele>75.33333333333333</ele><time>2026-03-29T08:02:21.041Z</time></trkpt><trkpt lat="39.3644117" lon="17.0733167"><ele>75.0</ele><time>2026-03-29T08:02:23.041Z</time></trkpt><trkpt lat="39.364345" lon="17.0733417"><ele>74.66666666666667</ele><time>2026-03-29T08:02:25.041Z</time></trkpt><trkpt lat="39.3642783" lon="17.0733433"><ele>74.33333333333334</ele><time>2026-03-29T08:02:27.041Z</time></trkpt><trkpt lat="39.36419" lon="17.0733417"><ele>74.0</ele><time>2026-03-29T08:02:29.041Z</time></trkpt><trkpt lat="39.3641217" lon="17.073335"><ele>74.0</ele><time>2026-03-29T08:02:31.041Z</time></trkpt><trkpt lat="39.3640233" lon="17.073315"><ele>74.0</ele><time>2026-03-29T08:02:34.041Z</time></trkpt><trkpt lat="39.3639267" lon="17.073275"><ele>74.0</ele><time>2026-03-29T08:02:36.041Z</time></trkpt><trkpt lat="39.363815" lon="17.07322"><ele>74.0</ele><time>2026-03-29T08:02:38.041Z</time></trkpt><trkpt lat="39.36371" lon="17.0731667"><ele>74.0</ele><time>2026-03-29T08:02:40.041Z</time></trkpt><trkpt lat="39.3636033" lon="17.0731083"><ele>72.60000000000001</ele><time>2026-03-29T08:02:42.041Z</time></trkpt><trkpt lat="39.3634867" lon="17.0730933"><ele>71.2</ele><time>2026-03-29T08:02:44.041Z</time></trkpt><trkpt lat="39.3633917" lon="17.0731117"><ele>69.80000000000001</ele><time>2026-03-29T08:02:46.041Z</time></trkpt><trkpt lat="39.3632983" lon="17.0730733"><ele>68.4</ele><time>2026-03-29T08:02:48.041Z</time></trkpt><trkpt lat="39.3632483" lon="17.072995"><ele>67.0</ele><time>2026-03-29T08:02:50.041Z</time></trkpt><trkpt lat="39.3632417" lon="17.0729083"><ele>67.0</ele><time>2026-03-29T08:02:52.041Z</time></trkpt><trkpt lat="39.3632717" lon="17.0727883"><ele>67.0</ele><time>2026-03-29T08:02:54.041Z</time></trkpt><trkpt lat="39.3633083" lon="17.0726583"><ele>67.0</ele><time>2026-03-29T08:02:56.04Z</time></trkpt><trkpt lat="39.3633817" lon="17.0725483"><ele>67.0</ele><time>2026-03-29T08:02:58.041Z</time></trkpt><trkpt lat="39.36345" lon="17.0724483"><ele>67.0</ele><time>2026-03-29T08:03:00.041Z</time></trkpt><trkpt lat="39.3635117" lon="17.0723383"><ele>67.5</ele><time>2026-03-29T08:03:02.041Z</time></trkpt><trkpt lat="39.3635583" lon="17.07221"><ele>68.0</ele><time>2026-03-29T08:03:04.041Z</time></trkpt><trkpt lat="39.363605" lon="17.0720767"><ele>68.5</ele><time>2026-03-29T08:03:06.041Z</time></trkpt><trkpt lat="39.3636583" lon="17.071945"><ele>69.0</ele><time>2026-03-29T08:03:08.041Z</time></trkpt><trkpt lat="39.3637217" lon="17.0718083"><ele>69.0</ele><time>2026-03-29T08:03:10.04Z</time></trkpt><trkpt lat="39.3637567" lon="17.0717333"><ele>69.0</ele><time>2026-03-29T08:03:11.041Z</time></trkpt><trkpt lat="39.363785" lon="17.071655"><ele>69.0</ele><time>2026-03-29T08:03:12.041Z</time></trkpt><trkpt lat="39.363785" lon="17.0715017"><ele>69.0</ele><time>2026-03-29T08:03:14.041Z</time></trkpt><trkpt lat="39.3637233" lon="17.071425"><ele>69.0</ele><time>2026-03-29T08:03:15.041Z</time></trkpt><trkpt lat="39.36364" lon="17.0713683"><ele>69.0</ele><time>2026-03-29T08:03:16.041Z</time></trkpt><trkpt lat="39.36355" lon="17.0713467"><ele>69.42857142857143</ele><time>2026-03-29T08:03:17.041Z</time></trkpt><trkpt lat="39.363465" lon="17.07134"><ele>69.85714285714286</ele><time>2026-03-29T08:03:18.04Z</time></trkpt><trkpt lat="39.3633883" lon="17.0713267"><ele>70.28571428571429</ele><time>2026-03-29T08:03:19.04Z</time></trkpt><trkpt lat="39.3633233" lon="17.07129"><ele>70.71428571428572</ele><time>2026-03-29T08:03:20.041Z</time></trkpt><trkpt lat="39.3632717" lon="17.07124"><ele>71.14285714285714</ele><time>2026-03-29T08:03:21.041Z</time></trkpt><trkpt lat="39.3632183" lon="17.0711883"><ele>71.57142857142858</ele><time>2026-03-29T08:03:22.041Z</time></trkpt><trkpt lat="39.363165" lon="17.0711317"><ele>72.0</ele><time>2026-03-29T08:03:23.041Z</time></trkpt><trkpt lat="39.363115" lon="17.0710717"><ele>72.0</ele><time>2026-03-29T08:03:24.041Z</time></trkpt><trkpt lat="39.3630617" lon="17.0710083"><ele>72.0</ele><time>2026-03-29T08:03:25.041Z</time></trkpt><trkpt lat="39.363015" lon="17.07094"><ele>72.0</ele><time>2026-03-29T08:03:26.041Z</time></trkpt><trkpt lat="39.3629783" lon="17.0708517"><ele>72.0</ele><time>2026-03-29T08:03:27.041Z</time></trkpt><trkpt lat="39.3629333" lon="17.070765"><ele>72.0</ele><time>2026-03-29T08:03:28.041Z</time></trkpt><trkpt lat="39.3628867" lon="17.0706817"><ele>72.0</ele><time>2026-03-29T08:03:29.041Z</time></trkpt><trkpt lat="39.36283" lon="17.07063"><ele>70.2</ele><time>2026-03-29T08:03:30.041Z</time></trkpt><trkpt lat="39.3627067" lon="17.0705983"><ele>68.4</ele><time>2026-03-29T08:03:32.041Z</time></trkpt><trkpt lat="39.3626283" lon="17.0705933"><ele>66.6</ele><time>2026-03-29T08:03:33.041Z</time></trkpt><trkpt lat="39.3625417" lon="17.0706"><ele>64.8</ele><time>2026-03-29T08:03:34.041Z</time></trkpt><trkpt lat="39.3624533" lon="17.0705933"><ele>63.0</ele><time>2026-03-29T08:03:35.041Z</time></trkpt><trkpt lat="39.362365" lon="17.0705817"><ele>63.0</ele><time>2026-03-29T08:03:36.041Z</time></trkpt><trkpt lat="39.3622783" lon="17.07057"><ele>63.0</ele><time>2026-03-29T08:03:37.041Z</time></trkpt><trkpt lat="39.3621867" lon="17.070565"><ele>63.0</ele><time>2026-03-29T08:03:38.041Z</time></trkpt><trkpt lat="39.3620867" lon="17.07057"><ele>63.0</ele><time>2026-03-29T08:03:39.041Z</time></trkpt><trkpt lat="39.3619883" lon="17.0705767"><ele>63.0</ele><time>2026-03-29T08:03:40.041Z</time></trkpt><trkpt lat="39.36188" lon="17.0705833"><ele>62.599999999999994</ele><time>2026-03-29T08:03:41.04Z</time></trkpt><trkpt lat="39.3617767" lon="17.0705967"><ele>62.199999999999996</ele><time>2026-03-29T08:03:42.04Z</time></trkpt><trkpt lat="39.3616767" lon="17.0706067"><ele>61.8</ele><time>2026-03-29T08:03:43.041Z</time></trkpt><trkpt lat="39.3615733" lon="17.0706183"><ele>61.4</ele><time>2026-03-29T08:03:44.04Z</time></trkpt><trkpt lat="39.3614717" lon="17.0706333"><ele>61.0</ele><time>2026-03-29T08:03:45.041Z</time></trkpt><trkpt lat="39.36138" lon="17.070635"><ele>60.4</ele><time>2026-03-29T08:03:46.041Z</time></trkpt><trkpt lat="39.361275" lon="17.0706533"><ele>59.8</ele><time>2026-03-29T08:03:47.041Z</time></trkpt><trkpt lat="39.3611667" lon="17.070665"><ele>59.199999999999996</ele><time>2026-03-29T08:03:48.041Z</time></trkpt><trkpt lat="39.36105" lon="17.0706683"><ele>58.599999999999994</ele><time>2026-03-29T08:03:49.041Z</time></trkpt><trkpt lat="39.3609333" lon="17.070685"><ele>58.0</ele><time>2026-03-29T08:03:50.04Z</time></trkpt><trkpt lat="39.3608217" lon="17.0707033"><ele>58.0</ele><time>2026-03-29T08:03:51.041Z</time></trkpt><trkpt lat="39.3607133" lon="17.0707217"><ele>58.0</ele><time>2026-03-29T08:03:52.041Z</time></trkpt><trkpt lat="39.3606" lon="17.07074"><ele>58.0</ele><time>2026-03-29T08:03:53.041Z</time></trkpt><trkpt lat="39.3604933" lon="17.0707533"><ele>58.0</ele><time>2026-03-29T08:03:54.041Z</time></trkpt><trkpt lat="39.36039" lon="17.07076"><ele>58.0</ele><time>2026-03-29T08:03:55.041Z</time></trkpt><trkpt lat="39.360285" lon="17.0707567"><ele>58.0</ele><time>2026-03-29T08:03:56.04Z</time></trkpt><trkpt lat="39.36018" lon="17.0707467"><ele>58.0</ele><time>2026-03-29T08:03:57.04Z</time></trkpt><trkpt lat="39.3600817" lon="17.0707133"><ele>58.0</ele><time>2026-03-29T08:03:58.041Z</time></trkpt><trkpt lat="39.359985" lon="17.0706683"><ele>58.0</ele><time>2026-03-29T08:03:59.041Z</time></trkpt><trkpt lat="39.359895" lon="17.07061"><ele>58.0</ele><time>2026-03-29T08:04:00.041Z</time></trkpt><trkpt lat="39.3597983" lon="17.0705467"><ele>58.0</ele><time>2026-03-29T08:04:01.04Z</time></trkpt><trkpt lat="39.3596933" lon="17.0704867"><ele>58.0</ele><time>2026-03-29T08:04:02.04Z</time></trkpt><trkpt lat="39.359585" lon="17.0704283"><ele>58.0</ele><time>2026-03-29T08:04:03.041Z</time></trkpt><trkpt lat="39.35948" lon="17.0703683"><ele>58.0</ele><time>2026-03-29T08:04:04.041Z</time></trkpt><trkpt lat="39.3593717" lon="17.07031"><ele>58.0</ele><time>2026-03-29T08:04:05.041Z</time></trkpt><trkpt lat="39.35926" lon="17.0702533"><ele>58.0</ele><time>2026-03-29T08:04:06.041Z</time></trkpt><trkpt lat="39.3591517" lon="17.07021"><ele>58.0</ele><time>2026-03-29T08:04:07.041Z</time></trkpt><trkpt lat="39.3590533" lon="17.070155"><ele>58.0</ele><time>2026-03-29T08:04:08.04Z</time></trkpt><trkpt lat="39.3589517" lon="17.070105"><ele>58.0</ele><time>2026-03-29T08:04:09.041Z</time></trkpt><trkpt lat="39.35886" lon="17.07006"><ele>58.8</ele><time>2026-03-29T08:04:10.041Z</time></trkpt><trkpt lat="39.3587667" lon="17.0700183"><ele>59.599999999999994</ele><time>2026-03-29T08:04:11.04Z</time></trkpt><trkpt lat="39.358675" lon="17.069975"><ele>60.400000000000006</ele><time>2026-03-29T08:04:12.041Z</time></trkpt><trkpt lat="39.3585833" lon="17.0699317"><ele>61.2</ele><time>2026-03-29T08:04:13.041Z</time></trkpt><trkpt lat="39.3584917" lon="17.0698883"><ele>62.0</ele><time>2026-03-29T08:04:14.041Z</time></trkpt><trkpt lat="39.3584" lon="17.06984"><ele>62.0</ele><time>2026-03-29T08:04:15.041Z</time></trkpt><trkpt lat="39.3583017" lon="17.0697883"><ele>62.0</ele><time>2026-03-29T08:04:16.041Z</time></trkpt><trkpt lat="39.358205" lon="17.0697433"><ele>62.0</ele><time>2026-03-29T08:04:17.041Z</time></trkpt><trkpt lat="39.3581083" lon="17.0696817"><ele>62.0</ele><time>2026-03-29T08:04:18.041Z</time></trkpt><trkpt lat="39.3580133" lon="17.0696167"><ele>62.0</ele><time>2026-03-29T08:04:19.041Z</time></trkpt><trkpt lat="39.3579217" lon="17.0695533"><ele>59.5</ele><time>2026-03-29T08:04:20.041Z</time></trkpt><trkpt lat="39.3578267" lon="17.069485"><ele>57.0</ele><time>2026-03-29T08:04:21.041Z</time></trkpt><trkpt lat="39.3577317" lon="17.06941"><ele>54.5</ele><time>2026-03-29T08:04:22.041Z</time></trkpt><trkpt lat="39.3576367" lon="17.0693317"><ele>52.0</ele><time>2026-03-29T08:04:23.041Z</time></trkpt><trkpt lat="39.3575367" lon="17.069245"><ele>52.0</ele><time>2026-03-29T08:04:24.041Z</time></trkpt><trkpt lat="39.3574383" lon="17.06916"><ele>52.0</ele><time>2026-03-29T08:04:25.041Z</time></trkpt><trkpt lat="39.357345" lon="17.0690783"><ele>52.0</ele><time>2026-03-29T08:04:26.04Z</time></trkpt><trkpt lat="39.357255" lon="17.0689983"><ele>52.0</ele><time>2026-03-29T08:04:27.041Z</time></trkpt><trkpt lat="39.3571667" lon="17.0689267"><ele>52.0</ele><time>2026-03-29T08:04:28.041Z</time></trkpt><trkpt lat="39.3570783" lon="17.0688633"><ele>51.6</ele><time>2026-03-29T08:04:29.041Z</time></trkpt><trkpt lat="39.3569883" lon="17.0687933"><ele>51.2</ele><time>2026-03-29T08:04:30.041Z</time></trkpt><trkpt lat="39.3568967" lon="17.0687267"><ele>50.8</ele><time>2026-03-29T08:04:31.04Z</time></trkpt><trkpt lat="39.3567967" lon="17.06866"><ele>50.4</ele><time>2026-03-29T08:04:32.041Z</time></trkpt><trkpt lat="39.3567" lon="17.0685967"><ele>50.0</ele><time>2026-03-29T08:04:33.041Z</time></trkpt><trkpt lat="39.3566033" lon="17.068535"><ele>50.0</ele><time>2026-03-29T08:04:34.041Z</time></trkpt><trkpt lat="39.356505" lon="17.068475"><ele>50.0</ele><time>2026-03-29T08:04:35.041Z</time></trkpt><trkpt lat="39.3564" lon="17.0684083"><ele>50.0</ele><time>2026-03-29T08:04:36.041Z</time></trkpt><trkpt lat="39.3562917" lon="17.0683467"><ele>50.0</ele><time>2026-03-29T08:04:37.041Z</time></trkpt><trkpt lat="39.356175" lon="17.0682967"><ele>50.0</ele><time>2026-03-29T08:04:38.041Z</time></trkpt><trkpt lat="39.3560533" lon="17.068275"><ele>50.0</ele><time>2026-03-29T08:04:39.041Z</time></trkpt><trkpt lat="39.3559383" lon="17.0682667"><ele>50.0</ele><time>2026-03-29T08:04:40.041Z</time></trkpt><trkpt lat="39.3558183" lon="17.0682633"><ele>50.0</ele><time>2026-03-29T08:04:41.04Z</time></trkpt><trkpt lat="39.3556983" lon="17.0682667"><ele>50.0</ele><time>2026-03-29T08:04:42.041Z</time></trkpt><trkpt lat="39.3555817" lon="17.0682633"><ele>50.0</ele><time>2026-03-29T08:04:43.041Z</time></trkpt><trkpt lat="39.35546" lon="17.06825"><ele>50.0</ele><time>2026-03-29T08:04:44.041Z</time></trkpt><trkpt lat="39.3553417" lon="17.06824"><ele>50.0</ele><time>2026-03-29T08:04:45.041Z</time></trkpt><trkpt lat="39.3552233" lon="17.0682433"><ele>49.16666666666667</ele><time>2026-03-29T08:04:46.041Z</time></trkpt><trkpt lat="39.3551183" lon="17.0682417"><ele>48.333333333333336</ele><time>2026-03-29T08:04:47.04Z</time></trkpt><trkpt lat="39.3550267" lon="17.0682383"><ele>47.5</ele><time>2026-03-29T08:04:48.041Z</time></trkpt><trkpt lat="39.3549567" lon="17.0682383"><ele>46.66666666666667</ele><time>2026-03-29T08:04:49.04Z</time></trkpt><trkpt lat="39.3548933" lon="17.0682367"><ele>45.833333333333336</ele><time>2026-03-29T08:04:50.041Z</time></trkpt><trkpt lat="39.354805" lon="17.0682433"><ele>45.0</ele><time>2026-03-29T08:04:52.041Z</time></trkpt><trkpt lat="39.35479" lon="17.0681233"><ele>45.0</ele><time>2026-03-29T08:04:59.04Z</time></trkpt><trkpt lat="39.3548683" lon="17.0680733"><ele>45.0</ele><time>2026-03-29T08:05:02.041Z</time></trkpt><trkpt lat="39.3549467" lon="17.06802"><ele>45.0</ele><time>2026-03-29T08:05:04.041Z</time></trkpt><trkpt lat="39.3550483" lon="17.06795"><ele>45.0</ele><time>2026-03-29T08:05:06.041Z</time></trkpt><trkpt lat="39.3551583" lon="17.06788"><ele>45.0</ele><time>2026-03-29T08:05:08.041Z</time></trkpt><trkpt lat="39.355215" lon="17.0678383"><ele>45.0</ele><time>2026-03-29T08:05:09.041Z</time></trkpt><trkpt lat="39.3553233" lon="17.0677567"><ele>45.0</ele><time>2026-03-29T08:05:11.041Z</time></trkpt><trkpt lat="39.3554333" lon="17.0676917"><ele>45.0</ele><time>2026-03-29T08:05:13.041Z</time></trkpt><trkpt lat="39.3555333" lon="17.0676117"><ele>45.0</ele><time>2026-03-29T08:05:15.04Z</time></trkpt><trkpt lat="39.3556233" lon="17.067525"><ele>46.0</ele><time>2026-03-29T08:05:17.041Z</time></trkpt><trkpt lat="39.3557" lon="17.0674467"><ele>47.0</ele><time>2026-03-29T08:05:19.041Z</time></trkpt><trkpt lat="39.3557667" lon="17.0673517"><ele>48.0</ele><time>2026-03-29T08:05:21.041Z</time></trkpt><trkpt lat="39.355835" lon="17.067275"><ele>49.0</ele><time>2026-03-29T08:05:23.041Z</time></trkpt><trkpt lat="39.355905" lon="17.0672183"><ele>50.0</ele><time>2026-03-29T08:05:25.041Z</time></trkpt><trkpt lat="39.3559817" lon="17.0671667"><ele>50.0</ele><time>2026-03-29T08:05:27.041Z</time></trkpt><trkpt lat="39.3560767" lon="17.0671067"><ele>50.0</ele><time>2026-03-29T08:05:29.041Z</time></trkpt><trkpt lat="39.35617" lon="17.0670567"><ele>50.0</ele><time>2026-03-29T08:05:31.04Z</time></trkpt><trkpt lat="39.356235" lon="17.067035"><ele>50.0</ele><time>2026-03-29T08:05:33.041Z</time></trkpt><trkpt lat="39.356315" lon="17.067"><ele>50.0</ele><time>2026-03-29T08:05:35.041Z</time></trkpt><trkpt lat="39.356415" lon="17.0669683"><ele>51.6</ele><time>2026-03-29T08:05:37.041Z</time></trkpt><trkpt lat="39.3565133" lon="17.0669217"><ele>53.2</ele><time>2026-03-29T08:05:39.041Z</time></trkpt><trkpt lat="39.3566217" lon="17.0668633"><ele>54.8</ele><time>2026-03-29T08:05:41.041Z</time></trkpt><trkpt lat="39.3567217" lon="17.0668083"><ele>56.4</ele><time>2026-03-29T08:05:43.041Z</time></trkpt><trkpt lat="39.35682" lon="17.0667517"><ele>58.0</ele><time>2026-03-29T08:05:45.041Z</time></trkpt><trkpt lat="39.3569167" lon="17.0666883"><ele>57.99999999999999</ele><time>2026-03-29T08:05:47.041Z</time></trkpt><trkpt lat="39.357035" lon="17.066635"><ele>58.0</ele><time>2026-03-29T08:05:49.041Z</time></trkpt><trkpt lat="39.3570967" lon="17.0666033"><ele>58.0</ele><time>2026-03-29T08:05:50.041Z</time></trkpt><trkpt lat="39.3571567" lon="17.0665683"><ele>58.0</ele><time>2026-03-29T08:05:51.041Z</time></trkpt><trkpt lat="39.357225" lon="17.066535"><ele>57.99999999999999</ele><time>2026-03-29T08:05:52.041Z</time></trkpt><trkpt lat="39.3572967" lon="17.0665017"><ele>58.0</ele><time>2026-03-29T08:05:53.041Z</time></trkpt><trkpt lat="39.3573683" lon="17.0664683"><ele>57.71428571428572</ele><time>2026-03-29T08:05:54.041Z</time></trkpt><trkpt lat="39.35744" lon="17.06644"><ele>57.42857142857143</ele><time>2026-03-29T08:05:55.041Z</time></trkpt><trkpt lat="39.3575133" lon="17.0664083"><ele>57.142857142857146</ele><time>2026-03-29T08:05:56.041Z</time></trkpt><trkpt lat="39.3575833" lon="17.06637"><ele>56.85714285714286</ele><time>2026-03-29T08:05:57.04Z</time></trkpt><trkpt lat="39.35765" lon="17.066335"><ele>56.57142857142857</ele><time>2026-03-29T08:05:58.041Z</time></trkpt><trkpt lat="39.3577133" lon="17.0663017"><ele>56.285714285714285</ele><time>2026-03-29T08:05:59.041Z</time></trkpt><trkpt lat="39.3577733" lon="17.0662767"><ele>56.0</ele><time>2026-03-29T08:06:00.041Z</time></trkpt><trkpt lat="39.35788" lon="17.0662583"><ele>56.0</ele><time>2026-03-29T08:06:02.041Z</time></trkpt><trkpt lat="39.3579667" lon="17.06626"><ele>55.99999999999999</ele><time>2026-03-29T08:06:04.041Z</time></trkpt><trkpt lat="39.3580467" lon="17.0662817"><ele>55.99999999999999</ele><time>2026-03-29T08:06:06.041Z</time></trkpt><trkpt lat="39.3581267" lon="17.0663117"><ele>56.0</ele><time>2026-03-29T08:06:08.041Z</time></trkpt><trkpt lat="39.35821" lon="17.0663567"><ele>56.0</ele><time>2026-03-29T08:06:10.041Z</time></trkpt><trkpt lat="39.3583017" lon="17.06643"><ele>57.25</ele><time>2026-03-29T08:06:12.041Z</time></trkpt><trkpt lat="39.3583817" lon="17.0665233"><ele>58.5</ele><time>2026-03-29T08:06:14.041Z</time></trkpt><trkpt lat="39.3584817" lon="17.0666167"><ele>59.75</ele><time>2026-03-29T08:06:16.041Z</time></trkpt><trkpt lat="39.3585833" lon="17.0666767"><ele>61.0</ele><time>2026-03-29T08:06:18.041Z</time></trkpt><trkpt lat="39.3586917" lon="17.06672"><ele>61.199999999999996</ele><time>2026-03-29T08:06:20.041Z</time></trkpt><trkpt lat="39.3587883" lon="17.06674"><ele>61.39999999999999</ele><time>2026-03-29T08:06:22.041Z</time></trkpt><trkpt lat="39.3588883" lon="17.0667583"><ele>61.6</ele><time>2026-03-29T08:06:24.041Z</time></trkpt><trkpt lat="39.358995" lon="17.0668017"><ele>61.8</ele><time>2026-03-29T08:06:26.041Z</time></trkpt><trkpt lat="39.3591083" lon="17.066845"><ele>62.0</ele><time>2026-03-29T08:06:28.041Z</time></trkpt><trkpt lat="39.3591967" lon="17.0669"><ele>63.8</ele><time>2026-03-29T08:06:30.041Z</time></trkpt><trkpt lat="39.3592717" lon="17.0669833"><ele>65.6</ele><time>2026-03-29T08:06:32.041Z</time></trkpt><trkpt lat="39.359345" lon="17.06709"><ele>67.39999999999999</ele><time>2026-03-29T08:06:34.041Z</time></trkpt><trkpt lat="39.3594117" lon="17.0672033"><ele>69.2</ele><time>2026-03-29T08:06:36.041Z</time></trkpt><trkpt lat="39.3594717" lon="17.067295"><ele>71.0</ele><time>2026-03-29T08:06:38.041Z</time></trkpt><trkpt lat="39.35953" lon="17.0673583"><ele>71.0</ele><time>2026-03-29T08:06:40.041Z</time></trkpt><trkpt lat="39.3596" lon="17.0674183"><ele>71.0</ele><time>2026-03-29T08:06:42.041Z</time></trkpt><trkpt lat="39.3596717" lon="17.06749"><ele>71.0</ele><time>2026-03-29T08:06:44.041Z</time></trkpt><trkpt lat="39.359755" lon="17.0675617"><ele>71.0</ele><time>2026-03-29T08:06:46.041Z</time></trkpt><trkpt lat="39.359835" lon="17.0676283"><ele>71.0</ele><time>2026-03-29T08:06:48.041Z</time></trkpt><trkpt lat="39.3599117" lon="17.067645"><ele>71.0</ele><time>2026-03-29T08:06:50.041Z</time></trkpt><trkpt lat="39.3599883" lon="17.067665"><ele>73.19999999999999</ele><time>2026-03-29T08:06:52.041Z</time></trkpt><trkpt lat="39.36008" lon="17.0677067"><ele>75.39999999999999</ele><time>2026-03-29T08:06:54.041Z</time></trkpt><trkpt lat="39.3601667" lon="17.067745"><ele>77.6</ele><time>2026-03-29T08:06:56.041Z</time></trkpt><trkpt lat="39.36027" lon="17.0677533"><ele>79.8</ele><time>2026-03-29T08:06:58.04Z</time></trkpt><trkpt lat="39.3603867" lon="17.0677083"><ele>82.0</ele><time>2026-03-29T08:07:00.041Z</time></trkpt><trkpt lat="39.360445" lon="17.0676683"><ele>82.0</ele><time>2026-03-29T08:07:01.041Z</time></trkpt><trkpt lat="39.3605233" lon="17.0676117"><ele>82.0</ele><time>2026-03-29T08:07:03.041Z</time></trkpt><trkpt lat="39.3605883" lon="17.06757"><ele>82.0</ele><time>2026-03-29T08:07:05.041Z</time></trkpt><trkpt lat="39.3606583" lon="17.0675083"><ele>82.0</ele><time>2026-03-29T08:07:08.04Z</time></trkpt><trkpt lat="39.360735" lon="17.0674467"><ele>82.0</ele><time>2026-03-29T08:07:10.041Z</time></trkpt><trkpt lat="39.3608383" lon="17.0673567"><ele>83.16666666666666</ele><time>2026-03-29T08:07:12.041Z</time></trkpt><trkpt lat="39.3609017" lon="17.0673067"><ele>84.33333333333333</ele><time>2026-03-29T08:07:13.041Z</time></trkpt><trkpt lat="39.36103" lon="17.0672783"><ele>85.5</ele><time>2026-03-29T08:07:15.041Z</time></trkpt><trkpt lat="39.3610983" lon="17.0672833"><ele>86.66666666666667</ele><time>2026-03-29T08:07:16.041Z</time></trkpt><trkpt lat="39.3611667" lon="17.067295"><ele>87.83333333333334</ele><time>2026-03-29T08:07:17.041Z</time></trkpt><trkpt lat="39.3612383" lon="17.0672983"><ele>89.0</ele><time>2026-03-29T08:07:18.041Z</time></trkpt><trkpt lat="39.3613183" lon="17.0672967"><ele>89.85714285714285</ele><time>2026-03-29T08:07:19.04Z</time></trkpt><trkpt lat="39.36139" lon="17.0672933"><ele>90.71428571428571</ele><time>2026-03-29T08:07:20.041Z</time></trkpt><trkpt lat="39.361465" lon="17.0672883"><ele>91.57142857142857</ele><time>2026-03-29T08:07:21.041Z</time></trkpt><trkpt lat="39.36154" lon="17.0672783"><ele>92.42857142857142</ele><time>2026-03-29T08:07:22.041Z</time></trkpt><trkpt lat="39.3616083" lon="17.0672717"><ele>93.28571428571429</ele><time>2026-03-29T08:07:23.041Z</time></trkpt><trkpt lat="39.361675" lon="17.0672633"><ele>94.14285714285714</ele><time>2026-03-29T08:07:24.041Z</time></trkpt><trkpt lat="39.3617417" lon="17.0672383"><ele>95.0</ele><time>2026-03-29T08:07:25.041Z</time></trkpt><trkpt lat="39.3618033" lon="17.0671933"><ele>95.0</ele><time>2026-03-29T08:07:26.041Z</time></trkpt><trkpt lat="39.3618633" lon="17.0671517"><ele>95.0</ele><time>2026-03-29T08:07:27.041Z</time></trkpt><trkpt lat="39.3619617" lon="17.0670583"><ele>95.0</ele><time>2026-03-29T08:07:29.041Z</time></trkpt><trkpt lat="39.3620567" lon="17.06697"><ele>95.0</ele><time>2026-03-29T08:07:31.041Z</time></trkpt><trkpt lat="39.3621167" lon="17.0669283"><ele>95.0</ele><time>2026-03-29T08:07:32.04Z</time></trkpt><trkpt lat="39.362185" lon="17.06689"><ele>95.0</ele><time>2026-03-29T08:07:33.041Z</time></trkpt><trkpt lat="39.362255" lon="17.0668383"><ele>95.0</ele><time>2026-03-29T08:07:34.041Z</time></trkpt><trkpt lat="39.3623283" lon="17.0667883"><ele>95.0</ele><time>2026-03-29T08:07:35.041Z</time></trkpt><trkpt lat="39.3624033" lon="17.066735"><ele>95.0</ele><time>2026-03-29T08:07:36.04Z</time></trkpt><trkpt lat="39.36247" lon="17.0666833"><ele>95.0</ele><time>2026-03-29T08:07:37.041Z</time></trkpt><trkpt lat="39.3625317" lon="17.066625"><ele>95.0</ele><time>2026-03-29T08:07:38.041Z</time></trkpt><trkpt lat="39.3625917" lon="17.0665717"><ele>95.0</ele><time>2026-03-29T08:07:39.041Z</time></trkpt><trkpt lat="39.3626583" lon="17.0665283"><ele>95.0</ele><time>2026-03-29T08:07:40.041Z</time></trkpt><trkpt lat="39.3627217" lon="17.066505"><ele>95.0</ele><time>2026-03-29T08:07:41.041Z</time></trkpt><trkpt lat="39.362785" lon="17.0665217"><ele>95.0</ele><time>2026-03-29T08:07:42.041Z</time></trkpt><trkpt lat="39.3628583" lon="17.06655"><ele>95.0</ele><time>2026-03-29T08:07:43.04Z</time></trkpt><trkpt lat="39.362935" lon="17.0665783"><ele>95.0</ele><time>2026-03-29T08:07:44.041Z</time></trkpt><trkpt lat="39.3630017" lon="17.0666133"><ele>95.0</ele><time>2026-03-29T08:07:45.041Z</time></trkpt><trkpt lat="39.3630683" lon="17.06663"><ele>96.0</ele><time>2026-03-29T08:07:46.041Z</time></trkpt><trkpt lat="39.363185" lon="17.0666367"><ele>97.0</ele><time>2026-03-29T08:07:48.041Z</time></trkpt><trkpt lat="39.3633017" lon="17.0666367"><ele>98.0</ele><time>2026-03-29T08:07:50.041Z</time></trkpt><trkpt lat="39.363405" lon="17.0666333"><ele>99.0</ele><time>2026-03-29T08:07:52.041Z</time></trkpt><trkpt lat="39.3634967" lon="17.066625"><ele>100.0</ele><time>2026-03-29T08:07:54.04Z</time></trkpt><trkpt lat="39.363595" lon="17.0666033"><ele>100.0</ele><time>2026-03-29T08:07:56.04Z</time></trkpt><trkpt lat="39.3636983" lon="17.0665617"><ele>100.0</ele><time>2026-03-29T08:07:58.041Z</time></trkpt><trkpt lat="39.3638" lon="17.0665217"><ele>100.0</ele><time>2026-03-29T08:08:00.041Z</time></trkpt><trkpt lat="39.363895" lon="17.06648"><ele>100.0</ele><time>2026-03-29T08:08:02.041Z</time></trkpt><trkpt lat="39.36398" lon="17.066425"><ele>100.0</ele><time>2026-03-29T08:08:04.041Z</time></trkpt><trkpt lat="39.36406" lon="17.06636"><ele>99.16666666666667</ele><time>2026-03-29T08:08:06.04Z</time></trkpt><trkpt lat="39.3641217" lon="17.0662933"><ele>98.33333333333334</ele><time>2026-03-29T08:08:08.041Z</time></trkpt><trkpt lat="39.364185" lon="17.06623"><ele>97.5</ele><time>2026-03-29T08:08:10.041Z</time></trkpt><trkpt lat="39.3642433" lon="17.066155"><ele>96.66666666666667</ele><time>2026-03-29T08:08:12.041Z</time></trkpt><trkpt lat="39.3643067" lon="17.0660733"><ele>95.83333333333334</ele><time>2026-03-29T08:08:14.041Z</time></trkpt><trkpt lat="39.3643717" lon="17.0659983"><ele>95.0</ele><time>2026-03-29T08:08:16.041Z</time></trkpt><trkpt lat="39.36443" lon="17.0659183"><ele>95.0</ele><time>2026-03-29T08:08:18.041Z</time></trkpt><trkpt lat="39.3644833" lon="17.0658417"><ele>95.0</ele><time>2026-03-29T08:08:21.041Z</time></trkpt><trkpt lat="39.3645617" lon="17.0657783"><ele>95.0</ele><time>2026-03-29T08:08:24.041Z</time></trkpt><trkpt lat="39.36464" lon="17.0657117"><ele>95.0</ele><time>2026-03-29T08:08:26.041Z</time></trkpt><trkpt lat="39.3647167" lon="17.0656383"><ele>95.0</ele><time>2026-03-29T08:08:28.041Z</time></trkpt><trkpt lat="39.3647733" lon="17.065565"><ele>95.0</ele><time>2026-03-29T08:08:30.041Z</time></trkpt><trkpt lat="39.3648267" lon="17.065485"><ele>95.8</ele><time>2026-03-29T08:08:32.041Z</time></trkpt><trkpt lat="39.3648867" lon="17.0653817"><ele>96.6</ele><time>2026-03-29T08:08:34.041Z</time></trkpt><trkpt lat="39.3649617" lon="17.0652783"><ele>97.4</ele><time>2026-03-29T08:08:36.04Z</time></trkpt><trkpt lat="39.36502" lon="17.065165"><ele>98.2</ele><time>2026-03-29T08:08:38.041Z</time></trkpt><trkpt lat="39.3651067" lon="17.065085"><ele>99.0</ele><time>2026-03-29T08:08:44.041Z</time></trkpt><trkpt lat="39.36518" lon="17.065025"><ele>99.0</ele><time>2026-03-29T08:08:47.041Z</time></trkpt><trkpt lat="39.36525" lon="17.0649867"><ele>99.0</ele><time>2026-03-29T08:08:49.041Z</time></trkpt><trkpt lat="39.3653233" lon="17.0649067"><ele>99.0</ele><time>2026-03-29T08:08:51.041Z</time></trkpt><trkpt lat="39.3653967" lon="17.0648083"><ele>99.0</ele><time>2026-03-29T08:08:53.041Z</time></trkpt><trkpt lat="39.3654883" lon="17.0647333"><ele>99.0</ele><time>2026-03-29T08:08:55.041Z</time></trkpt><trkpt lat="39.3655967" lon="17.06471"><ele>96.80000000000001</ele><time>2026-03-29T08:08:57.041Z</time></trkpt><trkpt lat="39.36569" lon="17.0647"><ele>94.60000000000001</ele><time>2026-03-29T08:08:59.041Z</time></trkpt><trkpt lat="39.3657983" lon="17.0646983"><ele>92.4</ele><time>2026-03-29T08:09:01.04Z</time></trkpt><trkpt lat="39.3659017" lon="17.06468"><ele>90.2</ele><time>2026-03-29T08:09:03.041Z</time></trkpt><trkpt lat="39.3660133" lon="17.0646533"><ele>88.0</ele><time>2026-03-29T08:09:05.041Z</time></trkpt><trkpt lat="39.3661133" lon="17.0646033"><ele>88.0</ele><time>2026-03-29T08:09:07.04Z</time></trkpt><trkpt lat="39.3662167" lon="17.064555"><ele>88.0</ele><time>2026-03-29T08:09:09.04Z</time></trkpt><trkpt lat="39.3663317" lon="17.0645067"><ele>88.0</ele><time>2026-03-29T08:09:11.041Z</time></trkpt><trkpt lat="39.3663833" lon="17.06446"><ele>88.0</ele><time>2026-03-29T08:09:12.041Z</time></trkpt><trkpt lat="39.3664383" lon="17.0644"><ele>88.0</ele><time>2026-03-29T08:09:13.041Z</time></trkpt><trkpt lat="39.3664917" lon="17.0643467"><ele>88.0</ele><time>2026-03-29T08:09:14.041Z</time></trkpt><trkpt lat="39.366555" lon="17.0643017"><ele>88.42857142857143</ele><time>2026-03-29T08:09:15.041Z</time></trkpt><trkpt lat="39.366615" lon="17.0642517"><ele>88.85714285714286</ele><time>2026-03-29T08:09:16.041Z</time></trkpt><trkpt lat="39.3666767" lon="17.064205"><ele>89.28571428571428</ele><time>2026-03-29T08:09:17.041Z</time></trkpt><trkpt lat="39.3667433" lon="17.0641617"><ele>89.71428571428572</ele><time>2026-03-29T08:09:18.041Z</time></trkpt><trkpt lat="39.3668033" lon="17.0641267"><ele>90.14285714285714</ele><time>2026-03-29T08:09:19.04Z</time></trkpt><trkpt lat="39.3668667" lon="17.0640867"><ele>90.57142857142857</ele><time>2026-03-29T08:09:20.041Z</time></trkpt><trkpt lat="39.3669267" lon="17.0640467"><ele>91.0</ele><time>2026-03-29T08:09:21.041Z</time></trkpt><trkpt lat="39.3669833" lon="17.0640067"><ele>91.0</ele><time>2026-03-29T08:09:22.041Z</time></trkpt><trkpt lat="39.36709" lon="17.0639367"><ele>91.0</ele><time>2026-03-29T08:09:24.041Z</time></trkpt><trkpt lat="39.3671783" lon="17.063895"><ele>91.0</ele><time>2026-03-29T08:09:26.04Z</time></trkpt><trkpt lat="39.3672767" lon="17.0638583"><ele>91.0</ele><time>2026-03-29T08:09:28.041Z</time></trkpt><trkpt lat="39.367405" lon="17.0638367"><ele>91.0</ele><time>2026-03-29T08:09:30.041Z</time></trkpt><trkpt lat="39.3674717" lon="17.0638233"><ele>90.42857142857143</ele><time>2026-03-29T08:09:31.041Z</time></trkpt><trkpt lat="39.36754" lon="17.0638133"><ele>89.85714285714286</ele><time>2026-03-29T08:09:32.041Z</time></trkpt><trkpt lat="39.3676017" lon="17.0637933"><ele>89.28571428571428</ele><time>2026-03-29T08:09:33.041Z</time></trkpt><trkpt lat="39.3676717" lon="17.063775"><ele>88.71428571428572</ele><time>2026-03-29T08:09:34.041Z</time></trkpt><trkpt lat="39.3677433" lon="17.063755"><ele>88.14285714285714</ele><time>2026-03-29T08:09:35.041Z</time></trkpt><trkpt lat="39.36781" lon="17.063735"><ele>87.57142857142857</ele><time>2026-03-29T08:09:36.04Z</time></trkpt><trkpt lat="39.3678817" lon="17.0637217"><ele>87.0</ele><time>2026-03-29T08:09:37.041Z</time></trkpt><trkpt lat="39.36796" lon="17.0637067"><ele>86.5</ele><time>2026-03-29T08:09:38.041Z</time></trkpt><trkpt lat="39.3680383" lon="17.063685"><ele>86.0</ele><time>2026-03-29T08:09:39.041Z</time></trkpt><trkpt lat="39.3681167" lon="17.0636633"><ele>85.5</ele><time>2026-03-29T08:09:40.041Z</time></trkpt><trkpt lat="39.3682" lon="17.0636433"><ele>85.0</ele><time>2026-03-29T08:09:41.041Z</time></trkpt><trkpt lat="39.368275" lon="17.063615"><ele>84.5</ele><time>2026-03-29T08:09:42.041Z</time></trkpt><trkpt lat="39.3683483" lon="17.063585"><ele>84.0</ele><time>2026-03-29T08:09:43.041Z</time></trkpt><trkpt lat="39.3684183" lon="17.06356"><ele>84.0</ele><time>2026-03-29T08:09:44.041Z</time></trkpt><trkpt lat="39.3684933" lon="17.0635367"><ele>84.0</ele><time>2026-03-29T08:09:45.041Z</time></trkpt><trkpt lat="39.368565" lon="17.063515"><ele>84.0</ele><time>2026-03-29T08:09:46.041Z</time></trkpt><trkpt lat="39.368635" lon="17.0634833"><ele>84.0</ele><time>2026-03-29T08:09:47.041Z</time></trkpt><trkpt lat="39.3687033" lon="17.0634683"><ele>84.0</ele><time>2026-03-29T08:09:48.041Z</time></trkpt><trkpt lat="39.3687767" lon="17.0634483"><ele>84.0</ele><time>2026-03-29T08:09:49.041Z</time></trkpt><trkpt lat="39.3688483" lon="17.06343"><ele>84.0</ele><time>2026-03-29T08:09:50.04Z</time></trkpt><trkpt lat="39.3689117" lon="17.063415"><ele>84.0</ele><time>2026-03-29T08:09:51.041Z</time></trkpt><trkpt lat="39.3689817" lon="17.0633933"><ele>84.0</ele><time>2026-03-29T08:09:52.041Z</time></trkpt><trkpt lat="39.369055" lon="17.0633517"><ele>84.0</ele><time>2026-03-29T08:09:53.041Z</time></trkpt><trkpt lat="39.36912" lon="17.0633117"><ele>84.0</ele><time>2026-03-29T08:09:54.04Z</time></trkpt><trkpt lat="39.3691717" lon="17.0632633"><ele>84.0</ele><time>2026-03-29T08:09:55.041Z</time></trkpt><trkpt lat="39.3692233" lon="17.063205"><ele>84.0</ele><time>2026-03-29T08:09:56.041Z</time></trkpt><trkpt lat="39.3692483" lon="17.0631267"><ele>84.0</ele><time>2026-03-29T08:09:57.041Z</time></trkpt><trkpt lat="39.3692567" lon="17.06304"><ele>84.0</ele><time>2026-03-29T08:09:58.04Z</time></trkpt><trkpt lat="39.3692533" lon="17.0629567"><ele>84.0</ele><time>2026-03-29T08:09:59.041Z</time></trkpt><trkpt lat="39.3692967" lon="17.0628133"><ele>84.0</ele><time>2026-03-29T08:10:01.041Z</time></trkpt><trkpt lat="39.369345" lon="17.0627367"><ele>84.0</ele><time>2026-03-29T08:10:02.041Z</time></trkpt><trkpt lat="39.36939" lon="17.06266"><ele>84.0</ele><time>2026-03-29T08:10:03.04Z</time></trkpt><trkpt lat="39.3694283" lon="17.062575"><ele>84.0</ele><time>2026-03-29T08:10:04.041Z</time></trkpt><trkpt lat="39.3694733" lon="17.062495"><ele>85.0</ele><time>2026-03-29T08:10:05.041Z</time></trkpt><trkpt lat="39.3695117" lon="17.0624233"><ele>86.0</ele><time>2026-03-29T08:10:06.041Z</time></trkpt><trkpt lat="39.3695933" lon="17.0623317"><ele>87.0</ele><time>2026-03-29T08:10:08.041Z</time></trkpt><trkpt lat="39.369665" lon="17.0622667"><ele>88.0</ele><time>2026-03-29T08:10:10.04Z</time></trkpt><trkpt lat="39.3697517" lon="17.0622467"><ele>89.0</ele><time>2026-03-29T08:10:12.041Z</time></trkpt><trkpt lat="39.3698617" lon="17.062255"><ele>89.80000000000001</ele><time>2026-03-29T08:10:14.041Z</time></trkpt><trkpt lat="39.3699767" lon="17.0622683"><ele>90.60000000000001</ele><time>2026-03-29T08:10:16.041Z</time></trkpt><trkpt lat="39.3700867" lon="17.062305"><ele>91.4</ele><time>2026-03-29T08:10:18.041Z</time></trkpt><trkpt lat="39.3701867" lon="17.0623317"><ele>92.2</ele><time>2026-03-29T08:10:20.041Z</time></trkpt><trkpt lat="39.3702817" lon="17.0623383"><ele>93.0</ele><time>2026-03-29T08:10:22.041Z</time></trkpt><trkpt lat="39.3703617" lon="17.0622983"><ele>93.0</ele><time>2026-03-29T08:10:24.041Z</time></trkpt><trkpt lat="39.370425" lon="17.06226"><ele>93.0</ele><time>2026-03-29T08:10:26.041Z</time></trkpt><trkpt lat="39.3704767" lon="17.062205"><ele>93.0</ele><time>2026-03-29T08:10:28.041Z</time></trkpt><trkpt lat="39.37052" lon="17.0621117"><ele>93.0</ele><time>2026-03-29T08:10:30.04Z</time></trkpt><trkpt lat="39.370575" lon="17.0620017"><ele>93.0</ele><time>2026-03-29T08:10:32.041Z</time></trkpt><trkpt lat="39.3706267" lon="17.0618983"><ele>93.0</ele><time>2026-03-29T08:10:34.041Z</time></trkpt><trkpt lat="39.37067" lon="17.061795"><ele>92.80000000000001</ele><time>2026-03-29T08:10:36.041Z</time></trkpt><trkpt lat="39.3707" lon="17.0616683"><ele>92.6</ele><time>2026-03-29T08:10:38.041Z</time></trkpt><trkpt lat="39.3707367" lon="17.0615583"><ele>92.4</ele><time>2026-03-29T08:10:40.041Z</time></trkpt><trkpt lat="39.37077" lon="17.0614467"><ele>92.19999999999999</ele><time>2026-03-29T08:10:42.041Z</time></trkpt><trkpt lat="39.3708083" lon="17.0613367"><ele>92.0</ele><time>2026-03-29T08:10:44.041Z</time></trkpt><trkpt lat="39.37084" lon="17.0612383"><ele>93.16666666666667</ele><time>2026-03-29T08:10:46.041Z</time></trkpt><trkpt lat="39.37088" lon="17.0611583"><ele>94.33333333333334</ele><time>2026-03-29T08:10:48.041Z</time></trkpt><trkpt lat="39.370925" lon="17.0610617"><ele>95.5</ele><time>2026-03-29T08:10:50.041Z</time></trkpt><trkpt lat="39.3709667" lon="17.0609717"><ele>96.66666666666667</ele><time>2026-03-29T08:10:52.041Z</time></trkpt><trkpt lat="39.371005" lon="17.060875"><ele>97.83333333333333</ele><time>2026-03-29T08:10:54.04Z</time></trkpt><trkpt lat="39.371045" lon="17.0607633"><ele>99.0</ele><time>2026-03-29T08:10:56.041Z</time></trkpt><trkpt lat="39.3710667" lon="17.06066"><ele>100.6</ele><time>2026-03-29T08:10:58.041Z</time></trkpt><trkpt lat="39.3710617" lon="17.0605483"><ele>102.2</ele><time>2026-03-29T08:11:00.041Z</time></trkpt><trkpt lat="39.3710633" lon="17.0604233"><ele>103.79999999999998</ele><time>2026-03-29T08:11:02.041Z</time></trkpt><trkpt lat="39.3710733" lon="17.0602833"><ele>105.39999999999999</ele><time>2026-03-29T08:11:04.041Z</time></trkpt><trkpt lat="39.3710717" lon="17.06018"><ele>107.0</ele><time>2026-03-29T08:11:06.041Z</time></trkpt><trkpt lat="39.3710733" lon="17.0600683"><ele>106.99999999999999</ele><time>2026-03-29T08:11:12.041Z</time></trkpt><trkpt lat="39.3710817" lon="17.059975"><ele>107.0</ele><time>2026-03-29T08:11:14.041Z</time></trkpt><trkpt lat="39.37108" lon="17.059885"><ele>107.0</ele><time>2026-03-29T08:11:16.041Z</time></trkpt><trkpt lat="39.3710767" lon="17.0597783"><ele>107.0</ele><time>2026-03-29T08:11:18.041Z</time></trkpt><trkpt lat="39.3710683" lon="17.0596433"><ele>106.99999999999999</ele><time>2026-03-29T08:11:20.04Z</time></trkpt><trkpt lat="39.3710883" lon="17.059495"><ele>107.0</ele><time>2026-03-29T08:11:22.041Z</time></trkpt><trkpt lat="39.3711233" lon="17.0593767"><ele>107.6</ele><time>2026-03-29T08:11:24.041Z</time></trkpt><trkpt lat="39.3711767" lon="17.0592383"><ele>108.19999999999999</ele><time>2026-03-29T08:11:26.041Z</time></trkpt><trkpt lat="39.3712167" lon="17.0591267"><ele>108.8</ele><time>2026-03-29T08:11:28.041Z</time></trkpt><trkpt lat="39.371245" lon="17.0590383"><ele>109.4</ele><time>2026-03-29T08:11:32.041Z</time></trkpt><trkpt lat="39.3712783" lon="17.0589167"><ele>110.0</ele><time>2026-03-29T08:42:49.037Z</time></trkpt><trkpt lat="39.3712967" lon="17.0588283"><ele>108.99999999999999</ele><time>2026-03-29T08:42:51.037Z</time></trkpt><trkpt lat="39.3713183" lon="17.0586933"><ele>108.0</ele><time>2026-03-29T08:42:53.037Z</time></trkpt><trkpt lat="39.3713483" lon="17.0585533"><ele>107.0</ele><time>2026-03-29T08:42:55.037Z</time></trkpt><trkpt lat="39.3713717" lon="17.05847"><ele>106.0</ele><time>2026-03-29T08:42:56.036Z</time></trkpt><trkpt lat="39.371395" lon="17.05838"><ele>104.99999999999999</ele><time>2026-03-29T08:42:57.037Z</time></trkpt><trkpt lat="39.3714183" lon="17.058285"><ele>104.0</ele><time>2026-03-29T08:42:58.037Z</time></trkpt><trkpt lat="39.3714383" lon="17.0581883"><ele>103.16666666666666</ele><time>2026-03-29T08:42:59.037Z</time></trkpt><trkpt lat="39.37145" lon="17.058075"><ele>102.33333333333333</ele><time>2026-03-29T08:43:00.036Z</time></trkpt><trkpt lat="39.3714533" lon="17.05797"><ele>101.5</ele><time>2026-03-29T08:43:01.037Z</time></trkpt><trkpt lat="39.3714517" lon="17.0578717"><ele>100.66666666666666</ele><time>2026-03-29T08:43:02.037Z</time></trkpt><trkpt lat="39.3714317" lon="17.0577717"><ele>99.83333333333333</ele><time>2026-03-29T08:43:03.037Z</time></trkpt><trkpt lat="39.3714083" lon="17.0576783"><ele>99.0</ele><time>2026-03-29T08:43:04.037Z</time></trkpt><trkpt lat="39.3713817" lon="17.0575867"><ele>98.33333333333333</ele><time>2026-03-29T08:43:05.037Z</time></trkpt><trkpt lat="39.3713483" lon="17.0575017"><ele>97.66666666666667</ele><time>2026-03-29T08:43:06.037Z</time></trkpt><trkpt lat="39.371315" lon="17.0574167"><ele>97.0</ele><time>2026-03-29T08:43:07.037Z</time></trkpt><trkpt lat="39.3712633" lon="17.0572967"><ele>96.33333333333334</ele><time>2026-03-29T08:43:09.037Z</time></trkpt><trkpt lat="39.37125" lon="17.0571883"><ele>95.66666666666667</ele><time>2026-03-29T08:43:11.037Z</time></trkpt><trkpt lat="39.371255" lon="17.0571"><ele>95.0</ele><time>2026-03-29T08:43:13.037Z</time></trkpt><trkpt lat="39.3712667" lon="17.0570183"><ele>95.0</ele><time>2026-03-29T08:43:16.036Z</time></trkpt><trkpt lat="39.371285" lon="17.0569333"><ele>95.0</ele><time>2026-03-29T08:43:22.037Z</time></trkpt><trkpt lat="39.371295" lon="17.05683"><ele>95.0</ele><time>2026-03-29T08:43:26.037Z</time></trkpt><trkpt lat="39.3713117" lon="17.0567033"><ele>95.0</ele><time>2026-03-29T08:43:29.037Z</time></trkpt><trkpt lat="39.37133" lon="17.05657"><ele>95.0</ele><time>2026-03-29T08:43:31.037Z</time></trkpt><trkpt lat="39.371345" lon="17.0564417"><ele>95.33333333333334</ele><time>2026-03-29T08:43:33.037Z</time></trkpt><trkpt lat="39.371325" lon="17.0563417"><ele>95.66666666666667</ele><time>2026-03-29T08:43:35.037Z</time></trkpt><trkpt lat="39.3712667" lon="17.0562617"><ele>96.0</ele><time>2026-03-29T08:43:37.037Z</time></trkpt><trkpt lat="39.3711833" lon="17.0562333"><ele>96.33333333333334</ele><time>2026-03-29T08:43:39.036Z</time></trkpt><trkpt lat="39.371105" lon="17.05622"><ele>96.66666666666667</ele><time>2026-03-29T08:43:41.036Z</time></trkpt><trkpt lat="39.3710133" lon="17.056205"><ele>97.0</ele><time>2026-03-29T08:43:43.036Z</time></trkpt><trkpt lat="39.370905" lon="17.0561817"><ele>97.0</ele><time>2026-03-29T08:43:45.036Z</time></trkpt><trkpt lat="39.3708417" lon="17.0561733"><ele>97.0</ele><time>2026-03-29T08:43:46.035Z</time></trkpt><trkpt lat="39.37072" lon="17.0561467"><ele>97.0</ele><time>2026-03-29T08:43:48.036Z</time></trkpt><trkpt lat="39.3706583" lon="17.0561183"><ele>97.0</ele><time>2026-03-29T08:43:49.036Z</time></trkpt><trkpt lat="39.3705567" lon="17.056045"><ele>97.0</ele><time>2026-03-29T08:43:51.036Z</time></trkpt><trkpt lat="39.3704967" lon="17.05597"><ele>96.33333333333334</ele><time>2026-03-29T08:43:53.036Z</time></trkpt><trkpt lat="39.37045" lon="17.0559033"><ele>95.66666666666667</ele><time>2026-03-29T08:43:55.036Z</time></trkpt><trkpt lat="39.3703933" lon="17.055855"><ele>95.0</ele><time>2026-03-29T08:43:57.036Z</time></trkpt><trkpt lat="39.3703317" lon="17.0558083"><ele>94.33333333333334</ele><time>2026-03-29T08:43:59.036Z</time></trkpt><trkpt lat="39.370265" lon="17.0557233"><ele>93.66666666666667</ele><time>2026-03-29T08:44:01.036Z</time></trkpt><trkpt lat="39.3702117" lon="17.0556267"><ele>93.0</ele><time>2026-03-29T08:44:03.036Z</time></trkpt><trkpt lat="39.37018" lon="17.0555083"><ele>94.80000000000001</ele><time>2026-03-29T08:44:05.036Z</time></trkpt><trkpt lat="39.37015" lon="17.0554067"><ele>96.6</ele><time>2026-03-29T08:44:07.036Z</time></trkpt><trkpt lat="39.37012" lon="17.0553"><ele>98.4</ele><time>2026-03-29T08:44:09.035Z</time></trkpt><trkpt lat="39.3700817" lon="17.0551767"><ele>100.19999999999999</ele><time>2026-03-29T08:44:11.036Z</time></trkpt><trkpt lat="39.37003" lon="17.055035"><ele>102.0</ele><time>2026-03-29T08:44:13.035Z</time></trkpt><trkpt lat="39.369995" lon="17.0548883"><ele>102.0</ele><time>2026-03-29T08:44:15.036Z</time></trkpt><trkpt lat="39.37" lon="17.0547617"><ele>102.0</ele><time>2026-03-29T08:44:17.036Z</time></trkpt><trkpt lat="39.37002" lon="17.0546517"><ele>102.0</ele><time>2026-03-29T08:44:19.036Z</time></trkpt><trkpt lat="39.3700383" lon="17.05456"><ele>102.0</ele><time>2026-03-29T08:44:21.036Z</time></trkpt><trkpt lat="39.3700083" lon="17.0544383"><ele>102.0</ele><time>2026-03-29T08:44:24.035Z</time></trkpt><trkpt lat="39.3699717" lon="17.054355"><ele>102.0</ele><time>2026-03-29T08:44:27.036Z</time></trkpt><trkpt lat="39.369915" lon="17.0543083"><ele>102.0</ele><time>2026-03-29T08:44:32.036Z</time></trkpt><trkpt lat="39.3698167" lon="17.054225"><ele>102.0</ele><time>2026-03-29T08:44:45.036Z</time></trkpt><trkpt lat="39.3697617" lon="17.0541767"><ele>102.0</ele><time>2026-03-29T08:44:56.036Z</time></trkpt><trkpt lat="39.369675" lon="17.0541133"><ele>102.0</ele><time>2026-03-29T08:45:04.036Z</time></trkpt><trkpt lat="39.369625" lon="17.0540533"><ele>102.0</ele><time>2026-03-29T08:45:07.035Z</time></trkpt><trkpt lat="39.3695533" lon="17.053985"><ele>102.0</ele><time>2026-03-29T08:45:10.036Z</time></trkpt><trkpt lat="39.3695017" lon="17.0539167"><ele>99.8</ele><time>2026-03-29T08:45:12.036Z</time></trkpt><trkpt lat="39.3694483" lon="17.053805"><ele>97.6</ele><time>2026-03-29T08:45:14.036Z</time></trkpt><trkpt lat="39.3694467" lon="17.0536817"><ele>95.39999999999999</ele><time>2026-03-29T08:45:16.036Z</time></trkpt><trkpt lat="39.3695083" lon="17.0536183"><ele>93.19999999999999</ele><time>2026-03-29T08:45:18.036Z</time></trkpt><trkpt lat="39.3695767" lon="17.053535"><ele>91.0</ele><time>2026-03-29T08:45:20.036Z</time></trkpt><trkpt lat="39.369645" lon="17.0534483"><ele>92.19999999999999</ele><time>2026-03-29T08:45:22.036Z</time></trkpt><trkpt lat="39.3697067" lon="17.0533483"><ele>93.39999999999999</ele><time>2026-03-29T08:45:24.036Z</time></trkpt><trkpt lat="39.36977" lon="17.0532383"><ele>94.6</ele><time>2026-03-29T08:45:26.036Z</time></trkpt><trkpt lat="39.3698467" lon="17.05312"><ele>95.8</ele><time>2026-03-29T08:45:28.036Z</time></trkpt><trkpt lat="39.3699167" lon="17.0530183"><ele>97.0</ele><time>2026-03-29T08:45:30.036Z</time></trkpt><trkpt lat="39.3699917" lon="17.0529217"><ele>97.0</ele><time>2026-03-29T08:45:32.036Z</time></trkpt><trkpt lat="39.37007" lon="17.052815"><ele>97.0</ele><time>2026-03-29T08:45:34.035Z</time></trkpt><trkpt lat="39.3701267" lon="17.0526867"><ele>97.0</ele><time>2026-03-29T08:45:36.036Z</time></trkpt><trkpt lat="39.3701517" lon="17.0525517"><ele>97.0</ele><time>2026-03-29T08:45:38.036Z</time></trkpt><trkpt lat="39.3701433" lon="17.0524617"><ele>97.0</ele><time>2026-03-29T08:45:40.036Z</time></trkpt><trkpt lat="39.3701183" lon="17.0523867"><ele>97.33333333333334</ele><time>2026-03-29T08:45:42.036Z</time></trkpt><trkpt lat="39.370085" lon="17.0522533"><ele>97.66666666666667</ele><time>2026-03-29T08:45:44.036Z</time></trkpt><trkpt lat="39.370065" lon="17.0521667"><ele>98.0</ele><time>2026-03-29T08:45:45.036Z</time></trkpt><trkpt lat="39.3700417" lon="17.052075"><ele>98.33333333333334</ele><time>2026-03-29T08:45:46.036Z</time></trkpt><trkpt lat="39.37001" lon="17.0519867"><ele>98.66666666666667</ele><time>2026-03-29T08:45:47.036Z</time></trkpt><trkpt lat="39.3699783" lon="17.0518933"><ele>99.0</ele><time>2026-03-29T08:45:48.036Z</time></trkpt><trkpt lat="39.3699533" lon="17.05181"><ele>99.0</ele><time>2026-03-29T08:45:49.035Z</time></trkpt><trkpt lat="39.36994" lon="17.0517267"><ele>99.0</ele><time>2026-03-29T08:45:50.036Z</time></trkpt><trkpt lat="39.3699567" lon="17.0516033"><ele>99.0</ele><time>2026-03-29T08:45:52.036Z</time></trkpt><trkpt lat="39.37003" lon="17.05148"><ele>99.0</ele><time>2026-03-29T08:45:54.036Z</time></trkpt><trkpt lat="39.3700583" lon="17.0514"><ele>99.0</ele><time>2026-03-29T08:45:55.036Z</time></trkpt><trkpt lat="39.370085" lon="17.05131"><ele>99.0</ele><time>2026-03-29T08:45:56.036Z</time></trkpt><trkpt lat="39.3701083" lon="17.0512333"><ele>100.16666666666667</ele><time>2026-03-29T08:45:57.036Z</time></trkpt><trkpt lat="39.3701617" lon="17.0511083"><ele>101.33333333333334</ele><time>2026-03-29T08:45:59.036Z</time></trkpt><trkpt lat="39.3701983" lon="17.0510117"><ele>102.5</ele><time>2026-03-29T08:46:01.036Z</time></trkpt><trkpt lat="39.3702133" lon="17.0509233"><ele>103.66666666666667</ele><time>2026-03-29T08:46:03.036Z</time></trkpt><trkpt lat="39.3702267" lon="17.0508317"><ele>104.83333333333334</ele><time>2026-03-29T08:46:06.036Z</time></trkpt><trkpt lat="39.3702667" lon="17.0507433"><ele>106.0</ele><time>2026-03-29T08:46:09.036Z</time></trkpt><trkpt lat="39.370325" lon="17.0506217"><ele>106.50000000000001</ele><time>2026-03-29T08:46:11.035Z</time></trkpt><trkpt lat="39.3703883" lon="17.050525"><ele>107.0</ele><time>2026-03-29T08:46:13.036Z</time></trkpt><trkpt lat="39.3704683" lon="17.0504383"><ele>107.5</ele><time>2026-03-29T08:46:15.036Z</time></trkpt><trkpt lat="39.3705233" lon="17.0503833"><ele>108.0</ele><time>2026-03-29T08:46:16.036Z</time></trkpt><trkpt lat="39.3705717" lon="17.0503183"><ele>108.50000000000001</ele><time>2026-03-29T08:46:17.036Z</time></trkpt><trkpt lat="39.3706133" lon="17.0502367"><ele>109.0</ele><time>2026-03-29T08:46:18.036Z</time></trkpt><trkpt lat="39.3706517" lon="17.0501433"><ele>109.00000000000001</ele><time>2026-03-29T08:46:19.035Z</time></trkpt><trkpt lat="39.3706833" lon="17.0500617"><ele>109.0</ele><time>2026-03-29T08:46:20.035Z</time></trkpt><trkpt lat="39.37072" lon="17.0499817"><ele>109.0</ele><time>2026-03-29T08:46:21.036Z</time></trkpt><trkpt lat="39.3707667" lon="17.049925"><ele>109.0</ele><time>2026-03-29T08:46:22.035Z</time></trkpt><trkpt lat="39.3708533" lon="17.04989"><ele>109.00000000000001</ele><time>2026-03-29T08:46:24.036Z</time></trkpt><trkpt lat="39.3709333" lon="17.049885"><ele>109.0</ele><time>2026-03-29T08:46:26.036Z</time></trkpt><trkpt lat="39.371005" lon="17.0498267"><ele>111.16666666666667</ele><time>2026-03-29T08:46:28.036Z</time></trkpt><trkpt lat="39.37106" lon="17.0497433"><ele>113.33333333333334</ele><time>2026-03-29T08:46:31.036Z</time></trkpt><trkpt lat="39.371105" lon="17.049665"><ele>115.5</ele><time>2026-03-29T08:46:33.036Z</time></trkpt><trkpt lat="39.3711867" lon="17.0495917"><ele>117.66666666666666</ele><time>2026-03-29T08:46:35.036Z</time></trkpt><trkpt lat="39.3712267" lon="17.0495267"><ele>119.83333333333333</ele><time>2026-03-29T08:46:36.036Z</time></trkpt><trkpt lat="39.371255" lon="17.04944"><ele>122.0</ele><time>2026-03-29T08:46:37.036Z</time></trkpt><trkpt lat="39.3712817" lon="17.0493533"><ele>121.99999999999999</ele><time>2026-03-29T08:46:38.036Z</time></trkpt><trkpt lat="39.3713083" lon="17.04926"><ele>122.0</ele><time>2026-03-29T08:46:39.036Z</time></trkpt><trkpt lat="39.3713317" lon="17.0491733"><ele>122.0</ele><time>2026-03-29T08:46:40.036Z</time></trkpt><trkpt lat="39.371345" lon="17.0490867"><ele>122.0</ele><time>2026-03-29T08:46:41.036Z</time></trkpt><trkpt lat="39.3713833" lon="17.0489667"><ele>121.99999999999999</ele><time>2026-03-29T08:46:43.036Z</time></trkpt><trkpt lat="39.371455" lon="17.04888"><ele>122.0</ele><time>2026-03-29T08:46:45.035Z</time></trkpt><trkpt lat="39.3715583" lon="17.04886"><ele>124.6</ele><time>2026-03-29T08:46:47.036Z</time></trkpt><trkpt lat="39.37168" lon="17.0488933"><ele>127.19999999999999</ele><time>2026-03-29T08:46:49.036Z</time></trkpt><trkpt lat="39.37179" lon="17.0489367"><ele>129.8</ele><time>2026-03-29T08:46:51.036Z</time></trkpt><trkpt lat="39.37188" lon="17.048905"><ele>132.4</ele><time>2026-03-29T08:46:53.036Z</time></trkpt><trkpt lat="39.371965" lon="17.04888"><ele>135.0</ele><time>2026-03-29T08:46:55.036Z</time></trkpt><trkpt lat="39.3720483" lon="17.0489033"><ele>135.0</ele><time>2026-03-29T08:46:57.036Z</time></trkpt><trkpt lat="39.372125" lon="17.048975"><ele>135.0</ele><time>2026-03-29T08:46:59.036Z</time></trkpt><trkpt lat="39.3722183" lon="17.0490533"><ele>135.0</ele><time>2026-03-29T08:47:01.036Z</time></trkpt><trkpt lat="39.3723183" lon="17.0490367"><ele>135.0</ele><time>2026-03-29T08:47:03.036Z</time></trkpt><trkpt lat="39.3724167" lon="17.0490383"><ele>135.0</ele><time>2026-03-29T08:47:05.036Z</time></trkpt><trkpt lat="39.37249" lon="17.0490617"><ele>133.8</ele><time>2026-03-29T08:47:07.036Z</time></trkpt><trkpt lat="39.37257" lon="17.0490317"><ele>132.6</ele><time>2026-03-29T08:47:09.036Z</time></trkpt><trkpt lat="39.372665" lon="17.048995"><ele>131.4</ele><time>2026-03-29T08:47:11.036Z</time></trkpt><trkpt lat="39.3727533" lon="17.0489317"><ele>130.2</ele><time>2026-03-29T08:47:13.036Z</time></trkpt><trkpt lat="39.3728117" lon="17.0488283"><ele>129.0</ele><time>2026-03-29T08:47:15.036Z</time></trkpt><trkpt lat="39.372845" lon="17.0487383"><ele>129.0</ele><time>2026-03-29T08:47:17.035Z</time></trkpt><trkpt lat="39.3728733" lon="17.0486467"><ele>129.0</ele><time>2026-03-29T08:47:20.036Z</time></trkpt><trkpt lat="39.3729217" lon="17.048565"><ele>129.0</ele><time>2026-03-29T08:47:23.036Z</time></trkpt><trkpt lat="39.3729883" lon="17.0485217"><ele>129.0</ele><time>2026-03-29T08:47:25.036Z</time></trkpt><trkpt lat="39.3730633" lon="17.0484683"><ele>129.0</ele><time>2026-03-29T08:47:27.036Z</time></trkpt><trkpt lat="39.373125" lon="17.04844"><ele>129.0</ele><time>2026-03-29T08:47:29.036Z</time></trkpt><trkpt lat="39.3731867" lon="17.0483767"><ele>128.33333333333334</ele><time>2026-03-29T08:47:32.036Z</time></trkpt><trkpt lat="39.3732633" lon="17.0483317"><ele>127.66666666666666</ele><time>2026-03-29T08:47:34.036Z</time></trkpt><trkpt lat="39.3733417" lon="17.0482733"><ele>127.0</ele><time>2026-03-29T08:47:36.036Z</time></trkpt><trkpt lat="39.37341" lon="17.0482167"><ele>126.33333333333333</ele><time>2026-03-29T08:47:38.036Z</time></trkpt><trkpt lat="39.3734683" lon="17.0481483"><ele>125.66666666666666</ele><time>2026-03-29T08:47:40.035Z</time></trkpt><trkpt lat="39.3735233" lon="17.0480767"><ele>125.0</ele><time>2026-03-29T08:47:42.035Z</time></trkpt><trkpt lat="39.3736117" lon="17.0480533"><ele>126.66666666666666</ele><time>2026-03-29T08:47:44.036Z</time></trkpt><trkpt lat="39.3736883" lon="17.048045"><ele>128.33333333333331</ele><time>2026-03-29T08:47:46.036Z</time></trkpt><trkpt lat="39.373755" lon="17.0480533"><ele>130.0</ele><time>2026-03-29T08:47:49.036Z</time></trkpt><trkpt lat="39.37382" lon="17.0480833"><ele>131.66666666666666</ele><time>2026-03-29T08:47:53.035Z</time></trkpt><trkpt lat="39.3738933" lon="17.0481267"><ele>133.33333333333334</ele><time>2026-03-29T08:47:56.036Z</time></trkpt><trkpt lat="39.373945" lon="17.0481733"><ele>135.0</ele><time>2026-03-29T08:47:58.036Z</time></trkpt><trkpt lat="39.374015" lon="17.048255"><ele>135.5</ele><time>2026-03-29T08:48:01.036Z</time></trkpt><trkpt lat="39.3740717" lon="17.04831"><ele>136.0</ele><time>2026-03-29T08:48:03.036Z</time></trkpt><trkpt lat="39.374135" lon="17.0483667"><ele>136.5</ele><time>2026-03-29T08:48:05.036Z</time></trkpt><trkpt lat="39.3742217" lon="17.0484283"><ele>137.0</ele><time>2026-03-29T08:48:07.036Z</time></trkpt><trkpt lat="39.374315" lon="17.0484633"><ele>137.5</ele><time>2026-03-29T08:48:09.036Z</time></trkpt><trkpt lat="39.3744017" lon="17.048455"><ele>138.0</ele><time>2026-03-29T08:48:12.036Z</time></trkpt><trkpt lat="39.37447" lon="17.0484617"><ele>138.0</ele><time>2026-03-29T08:48:14.036Z</time></trkpt><trkpt lat="39.3745467" lon="17.0484883"><ele>138.0</ele><time>2026-03-29T08:48:16.036Z</time></trkpt><trkpt lat="39.3746133" lon="17.0485133"><ele>138.0</ele><time>2026-03-29T08:48:18.036Z</time></trkpt><trkpt lat="39.37469" lon="17.0485533"><ele>138.0</ele><time>2026-03-29T08:48:21.035Z</time></trkpt><trkpt lat="39.3747983" lon="17.04858"><ele>138.0</ele><time>2026-03-29T08:48:28.036Z</time></trkpt><trkpt lat="39.3748783" lon="17.0485383"><ele>138.0</ele><time>2026-03-29T08:48:31.036Z</time></trkpt><trkpt lat="39.37497" lon="17.04851"><ele>140.20000000000002</ele><time>2026-03-29T08:48:34.036Z</time></trkpt><trkpt lat="39.3750383" lon="17.048495"><ele>142.4</ele><time>2026-03-29T08:48:36.035Z</time></trkpt><trkpt lat="39.375105" lon="17.0484967"><ele>144.60000000000002</ele><time>2026-03-29T08:48:38.036Z</time></trkpt><trkpt lat="39.3752033" lon="17.0484567"><ele>146.8</ele><time>2026-03-29T08:48:40.036Z</time></trkpt><trkpt lat="39.3753133" lon="17.0484033"><ele>149.0</ele><time>2026-03-29T08:48:42.036Z</time></trkpt><trkpt lat="39.3754117" lon="17.0483917"><ele>149.0</ele><time>2026-03-29T08:48:44.035Z</time></trkpt><trkpt lat="39.37547" lon="17.04849"><ele>149.0</ele><time>2026-03-29T08:48:46.036Z</time></trkpt><trkpt lat="39.375515" lon="17.0485533"><ele>149.0</ele><time>2026-03-29T08:48:47.036Z</time></trkpt><trkpt lat="39.375605" lon="17.0486"><ele>149.0</ele><time>2026-03-29T08:48:49.036Z</time></trkpt><trkpt lat="39.37568" lon="17.048575"><ele>149.0</ele><time>2026-03-29T08:48:51.035Z</time></trkpt><trkpt lat="39.375745" lon="17.0484983"><ele>149.0</ele><time>2026-03-29T08:48:57.036Z</time></trkpt><trkpt lat="39.3758067" lon="17.04847"><ele>150.0</ele><time>2026-03-29T08:49:00.036Z</time></trkpt><trkpt lat="39.375885" lon="17.0484617"><ele>151.0</ele><time>2026-03-29T08:49:03.036Z</time></trkpt><trkpt lat="39.3759533" lon="17.0484467"><ele>152.0</ele><time>2026-03-29T08:49:06.036Z</time></trkpt><trkpt lat="39.3759983" lon="17.0483333"><ele>153.0</ele><time>2026-03-29T08:49:13.036Z</time></trkpt><trkpt lat="39.3760117" lon="17.04824"><ele>154.0</ele><time>2026-03-29T08:49:15.036Z</time></trkpt><trkpt lat="39.3759817" lon="17.048145"><ele>155.0</ele><time>2026-03-29T08:49:17.036Z</time></trkpt><trkpt lat="39.375915" lon="17.048085"><ele>158.2</ele><time>2026-03-29T08:49:19.036Z</time></trkpt><trkpt lat="39.3758167" lon="17.0480533"><ele>161.4</ele><time>2026-03-29T08:49:21.036Z</time></trkpt><trkpt lat="39.3757183" lon="17.0480233"><ele>164.60000000000002</ele><time>2026-03-29T08:49:23.036Z</time></trkpt><trkpt lat="39.37561" lon="17.0480017"><ele>167.8</ele><time>2026-03-29T08:49:25.035Z</time></trkpt><trkpt lat="39.3755033" lon="17.0479633"><ele>171.0</ele><time>2026-03-29T08:49:27.036Z</time></trkpt><trkpt lat="39.3754167" lon="17.0479033"><ele>171.0</ele><time>2026-03-29T08:49:29.035Z</time></trkpt><trkpt lat="39.3753367" lon="17.0478433"><ele>171.0</ele><time>2026-03-29T08:49:31.036Z</time></trkpt><trkpt lat="39.3753467" lon="17.0477417"><ele>171.0</ele><time>2026-03-29T08:49:34.036Z</time></trkpt><trkpt lat="39.37544" lon="17.04768"><ele>171.0</ele><time>2026-03-29T08:49:36.036Z</time></trkpt><trkpt lat="39.3755567" lon="17.0476367"><ele>171.0</ele><time>2026-03-29T08:49:38.036Z</time></trkpt><trkpt lat="39.3756233" lon="17.0476133"><ele>174.60000000000002</ele><time>2026-03-29T08:49:39.036Z</time></trkpt><trkpt lat="39.3757417" lon="17.0475633"><ele>178.2</ele><time>2026-03-29T08:49:41.035Z</time></trkpt><trkpt lat="39.37585" lon="17.047515"><ele>181.8</ele><time>2026-03-29T08:49:43.036Z</time></trkpt><trkpt lat="39.3759317" lon="17.0474983"><ele>185.39999999999998</ele><time>2026-03-29T08:49:45.036Z</time></trkpt><trkpt lat="39.3759967" lon="17.0475"><ele>189.0</ele><time>2026-03-29T08:49:47.036Z</time></trkpt><trkpt lat="39.375975" lon="17.0473967"><ele>193.16666666666666</ele><time>2026-03-29T08:49:54.036Z</time></trkpt><trkpt lat="39.3759183" lon="17.047335"><ele>197.33333333333331</ele><time>2026-03-29T08:49:56.036Z</time></trkpt><trkpt lat="39.3758683" lon="17.0472783"><ele>201.5</ele><time>2026-03-29T08:49:58.036Z</time></trkpt><trkpt lat="39.3758067" lon="17.0472567"><ele>205.66666666666666</ele><time>2026-03-29T08:50:00.036Z</time></trkpt><trkpt lat="39.3757383" lon="17.0472283"><ele>209.83333333333331</ele><time>2026-03-29T08:50:02.036Z</time></trkpt><trkpt lat="39.3756483" lon="17.0471833"><ele>214.0</ele><time>2026-03-29T08:50:04.036Z</time></trkpt><trkpt lat="39.3755483" lon="17.0471433"><ele>209.0</ele><time>2026-03-29T08:50:06.036Z</time></trkpt><trkpt lat="39.3754433" lon="17.047125"><ele>203.99999999999997</ele><time>2026-03-29T08:50:08.035Z</time></trkpt><trkpt lat="39.3753633" lon="17.0470967"><ele>199.0</ele><time>2026-03-29T08:50:10.035Z</time></trkpt><trkpt lat="39.375305" lon="17.047035"><ele>194.0</ele><time>2026-03-29T08:50:13.035Z</time></trkpt><trkpt lat="39.3753883" lon="17.0470433"><ele>189.0</ele><time>2026-03-29T08:50:19.036Z</time></trkpt><trkpt lat="39.3755067" lon="17.0470233"><ele>194.0</ele><time>2026-03-29T08:50:21.036Z</time></trkpt><trkpt lat="39.3756017" lon="17.0469917"><ele>199.0</ele><time>2026-03-29T08:50:22.036Z</time></trkpt><trkpt lat="39.3756933" lon="17.04697"><ele>203.99999999999997</ele><time>2026-03-29T08:50:23.036Z</time></trkpt><trkpt lat="39.3757733" lon="17.046955"><ele>209.0</ele><time>2026-03-29T08:50:24.035Z</time></trkpt><trkpt lat="39.37588" lon="17.04695"><ele>214.0</ele><time>2026-03-29T08:50:26.036Z</time></trkpt><trkpt lat="39.3759933" lon="17.0470233"><ele>214.00000000000003</ele><time>2026-03-29T08:51:53.035Z</time></trkpt><trkpt lat="39.3760583" lon="17.0470283"><ele>214.0</ele><time>2026-03-29T08:51:56.035Z</time></trkpt><trkpt lat="39.3761117" lon="17.0469733"><ele>214.0</ele><time>2026-03-29T08:52:06.035Z</time></trkpt><trkpt lat="39.3761217" lon="17.0468717"><ele>214.0</ele><time>2026-03-29T08:52:08.035Z</time></trkpt><trkpt lat="39.3761183" lon="17.0467717"><ele>214.0</ele><time>2026-03-29T08:52:10.034Z</time></trkpt><trkpt lat="39.3761133" lon="17.0466817"><ele>214.00000000000003</ele><time>2026-03-29T08:52:12.035Z</time></trkpt><trkpt lat="39.3760967" lon="17.046585"><ele>214.0</ele><time>2026-03-29T08:52:15.035Z</time></trkpt><trkpt lat="39.3760917" lon="17.0465"><ele>213.99999999999997</ele><time>2026-03-29T08:52:22.035Z</time></trkpt><trkpt lat="39.3761417" lon="17.0464467"><ele>214.0</ele><time>2026-03-29T08:52:26.035Z</time></trkpt><trkpt lat="39.37618" lon="17.0463433"><ele>214.0</ele><time>2026-03-29T08:57:47.034Z</time></trkpt><trkpt lat="39.3762383" lon="17.0462717"><ele>214.0</ele><time>2026-03-29T08:57:50.033Z</time></trkpt><trkpt lat="39.3763033" lon="17.0461983"><ele>213.99999999999997</ele><time>2026-03-29T08:57:53.034Z</time></trkpt><trkpt lat="39.376365" lon="17.0461567"><ele>214.0</ele><time>2026-03-29T08:57:55.034Z</time></trkpt><trkpt lat="39.3764583" lon="17.0461183"><ele>217.16666666666666</ele><time>2026-03-29T08:57:58.033Z</time></trkpt><trkpt lat="39.3765233" lon="17.0460883"><ele>220.33333333333331</ele><time>2026-03-29T08:58:00.034Z</time></trkpt><trkpt lat="39.376585" lon="17.0460517"><ele>223.5</ele><time>2026-03-29T08:58:02.034Z</time></trkpt><trkpt lat="39.3766583" lon="17.0460317"><ele>226.66666666666669</ele><time>2026-03-29T08:58:04.034Z</time></trkpt><trkpt lat="39.376745" lon="17.046"><ele>229.83333333333334</ele><time>2026-03-29T08:58:07.034Z</time></trkpt><trkpt lat="39.37683" lon="17.045975"><ele>233.0</ele><time>2026-03-29T08:58:10.034Z</time></trkpt><trkpt lat="39.3769117" lon="17.0459667"><ele>233.0</ele><time>2026-03-29T08:58:13.034Z</time></trkpt><trkpt lat="39.3769883" lon="17.0459433"><ele>233.0</ele><time>2026-03-29T08:58:15.034Z</time></trkpt><trkpt lat="39.377085" lon="17.045905"><ele>233.0</ele><time>2026-03-29T08:58:17.034Z</time></trkpt><trkpt lat="39.377185" lon="17.045935"><ele>233.0</ele><time>2026-03-29T08:58:19.034Z</time></trkpt><trkpt lat="39.3772933" lon="17.0459667"><ele>233.0</ele><time>2026-03-29T08:58:21.034Z</time></trkpt><trkpt lat="39.3773967" lon="17.0459833"><ele>235.33333333333334</ele><time>2026-03-29T08:58:23.034Z</time></trkpt><trkpt lat="39.3775" lon="17.0459883"><ele>237.66666666666669</ele><time>2026-03-29T08:58:25.033Z</time></trkpt><trkpt lat="39.3776" lon="17.04597"><ele>240.0</ele><time>2026-03-29T08:58:27.034Z</time></trkpt><trkpt lat="39.37767" lon="17.045955"><ele>242.33333333333331</ele><time>2026-03-29T08:58:28.033Z</time></trkpt><trkpt lat="39.37776" lon="17.04591"><ele>244.66666666666666</ele><time>2026-03-29T08:58:30.034Z</time></trkpt><trkpt lat="39.377825" lon="17.0458717"><ele>247.0</ele><time>2026-03-29T08:58:36.034Z</time></trkpt><trkpt lat="39.3779283" lon="17.04583"><ele>247.0</ele><time>2026-03-29T08:58:38.034Z</time></trkpt><trkpt lat="39.3780033" lon="17.0458167"><ele>247.0</ele><time>2026-03-29T08:58:39.033Z</time></trkpt><trkpt lat="39.3780867" lon="17.0458"><ele>247.0</ele><time>2026-03-29T08:58:40.034Z</time></trkpt><trkpt lat="39.3781833" lon="17.045775"><ele>247.0</ele><time>2026-03-29T08:58:41.034Z</time></trkpt><trkpt lat="39.3782867" lon="17.0457533"><ele>247.0</ele><time>2026-03-29T08:58:42.033Z</time></trkpt><trkpt lat="39.3783917" lon="17.04574"><ele>247.8</ele><time>2026-03-29T08:58:43.034Z</time></trkpt><trkpt lat="39.3784933" lon="17.0457233"><ele>248.6</ele><time>2026-03-29T08:58:44.034Z</time></trkpt><trkpt lat="39.37859" lon="17.045715"><ele>249.40000000000003</ele><time>2026-03-29T08:58:45.034Z</time></trkpt><trkpt lat="39.378685" lon="17.0457217"><ele>250.20000000000002</ele><time>2026-03-29T08:58:46.034Z</time></trkpt><trkpt lat="39.37877" lon="17.0457333"><ele>251.0</ele><time>2026-03-29T08:58:47.033Z</time></trkpt><trkpt lat="39.378845" lon="17.04575"><ele>254.00000000000003</ele><time>2026-03-29T08:58:48.034Z</time></trkpt><trkpt lat="39.3789183" lon="17.0457633"><ele>257.0</ele><time>2026-03-29T08:58:49.033Z</time></trkpt><trkpt lat="39.3789867" lon="17.04579"><ele>260.0</ele><time>2026-03-29T08:58:50.033Z</time></trkpt><trkpt lat="39.3790533" lon="17.04582"><ele>263.0</ele><time>2026-03-29T08:58:51.033Z</time></trkpt><trkpt lat="39.3791133" lon="17.0458633"><ele>266.0</ele><time>2026-03-29T08:58:52.034Z</time></trkpt><trkpt lat="39.3791967" lon="17.0459183"><ele>269.0</ele><time>2026-03-29T08:58:54.034Z</time></trkpt><trkpt lat="39.3792633" lon="17.0459583"><ele>269.0</ele><time>2026-03-29T08:58:56.034Z</time></trkpt><trkpt lat="39.3793433" lon="17.046005"><ele>269.0</ele><time>2026-03-29T08:59:02.034Z</time></trkpt><trkpt lat="39.379415" lon="17.0459967"><ele>269.0</ele><time>2026-03-29T08:59:04.034Z</time></trkpt><trkpt lat="39.3794867" lon="17.0459633"><ele>269.0</ele><time>2026-03-29T08:59:06.034Z</time></trkpt><trkpt lat="39.37957" lon="17.045925"><ele>269.0</ele><time>2026-03-29T08:59:08.034Z</time></trkpt><trkpt lat="39.37965" lon="17.0458517"><ele>269.0</ele><time>2026-03-29T08:59:10.034Z</time></trkpt><trkpt lat="39.3797317" lon="17.04577"><ele>275.4</ele><time>2026-03-29T08:59:12.034Z</time></trkpt><trkpt lat="39.3798333" lon="17.045715"><ele>281.79999999999995</ele><time>2026-03-29T08:59:14.034Z</time></trkpt><trkpt lat="39.379935" lon="17.0456983"><ele>288.20000000000005</ele><time>2026-03-29T08:59:16.034Z</time></trkpt><trkpt lat="39.3800467" lon="17.0456567"><ele>294.6</ele><time>2026-03-29T08:59:18.034Z</time></trkpt><trkpt lat="39.38015" lon="17.0456167"><ele>301.0</ele><time>2026-03-29T08:59:20.034Z</time></trkpt><trkpt lat="39.3802483" lon="17.0455367"><ele>301.0</ele><time>2026-03-29T08:59:22.034Z</time></trkpt><trkpt lat="39.3803167" lon="17.0454567"><ele>301.0</ele><time>2026-03-29T08:59:24.034Z</time></trkpt><trkpt lat="39.38039" lon="17.0454183"><ele>301.0</ele><time>2026-03-29T08:59:27.034Z</time></trkpt><trkpt lat="39.380465" lon="17.0453833"><ele>301.0</ele><time>2026-03-29T08:59:29.034Z</time></trkpt><trkpt lat="39.3805583" lon="17.045355"><ele>301.0</ele><time>2026-03-29T08:59:31.034Z</time></trkpt><trkpt lat="39.3806533" lon="17.0453467"><ele>301.0</ele><time>2026-03-29T08:59:33.034Z</time></trkpt><trkpt lat="39.380755" lon="17.0453417"><ele>300.8333333333333</ele><time>2026-03-29T08:59:35.034Z</time></trkpt><trkpt lat="39.3808467" lon="17.0453267"><ele>300.66666666666663</ele><time>2026-03-29T08:59:37.034Z</time></trkpt><trkpt lat="39.3809367" lon="17.0453283"><ele>300.5</ele><time>2026-03-29T08:59:39.034Z</time></trkpt><trkpt lat="39.3810317" lon="17.0453067"><ele>300.3333333333333</ele><time>2026-03-29T08:59:41.034Z</time></trkpt><trkpt lat="39.3811083" lon="17.045285"><ele>300.1666666666667</ele><time>2026-03-29T08:59:44.034Z</time></trkpt><trkpt lat="39.3811817" lon="17.0452667"><ele>300.0</ele><time>2026-03-29T08:59:49.034Z</time></trkpt><trkpt lat="39.381245" lon="17.04525"><ele>300.0</ele><time>2026-03-29T08:59:51.034Z</time></trkpt><trkpt lat="39.3813333" lon="17.0452333"><ele>300.0</ele><time>2026-03-29T08:59:53.034Z</time></trkpt><trkpt lat="39.3814333" lon="17.0452117"><ele>300.0</ele><time>2026-03-29T08:59:55.034Z</time></trkpt><trkpt lat="39.3815467" lon="17.045195"><ele>300.0</ele><time>2026-03-29T08:59:57.034Z</time></trkpt><trkpt lat="39.3816583" lon="17.045195"><ele>300.0</ele><time>2026-03-29T08:59:59.034Z</time></trkpt><trkpt lat="39.3817633" lon="17.04519"><ele>301.6</ele><time>2026-03-29T09:00:01.034Z</time></trkpt><trkpt lat="39.38186" lon="17.0452117"><ele>303.2</ele><time>2026-03-29T09:00:03.034Z</time></trkpt><trkpt lat="39.3819767" lon="17.0452267"><ele>304.8</ele><time>2026-03-29T09:00:05.033Z</time></trkpt><trkpt lat="39.3820733" lon="17.0452317"><ele>306.4</ele><time>2026-03-29T09:00:07.034Z</time></trkpt><trkpt lat="39.3821667" lon="17.045225"><ele>308.0</ele><time>2026-03-29T09:00:09.034Z</time></trkpt><trkpt lat="39.38225" lon="17.0452433"><ele>308.6</ele><time>2026-03-29T09:00:11.033Z</time></trkpt><trkpt lat="39.382335" lon="17.0452417"><ele>309.20000000000005</ele><time>2026-03-29T09:00:14.034Z</time></trkpt><trkpt lat="39.382435" lon="17.045225"><ele>309.8</ele><time>2026-03-29T09:00:17.034Z</time></trkpt><trkpt lat="39.3825183" lon="17.0452167"><ele>310.40000000000003</ele><time>2026-03-29T09:00:19.034Z</time></trkpt><trkpt lat="39.382625" lon="17.045215"><ele>311.0</ele><time>2026-03-29T09:00:21.034Z</time></trkpt><trkpt lat="39.3827117" lon="17.0451517"><ele>311.0</ele><time>2026-03-29T09:00:23.034Z</time></trkpt><trkpt lat="39.38279" lon="17.0450717"><ele>311.0</ele><time>2026-03-29T09:00:25.034Z</time></trkpt><trkpt lat="39.3828517" lon="17.0449983"><ele>311.0</ele><time>2026-03-29T09:00:27.034Z</time></trkpt><trkpt lat="39.3829233" lon="17.04495"><ele>311.0</ele><time>2026-03-29T09:00:29.034Z</time></trkpt><trkpt lat="39.383035" lon="17.044975"><ele>311.0</ele><time>2026-03-29T09:00:31.033Z</time></trkpt><trkpt lat="39.38311" lon="17.0449967"><ele>309.6666666666667</ele><time>2026-03-29T09:00:32.034Z</time></trkpt><trkpt lat="39.3831883" lon="17.0450183"><ele>308.33333333333337</ele><time>2026-03-29T09:00:33.034Z</time></trkpt><trkpt lat="39.383265" lon="17.0450433"><ele>307.0</ele><time>2026-03-29T09:00:34.034Z</time></trkpt><trkpt lat="39.3833433" lon="17.0450717"><ele>305.6666666666667</ele><time>2026-03-29T09:00:35.034Z</time></trkpt><trkpt lat="39.38342" lon="17.0451083"><ele>304.3333333333333</ele><time>2026-03-29T09:00:36.034Z</time></trkpt><trkpt lat="39.3835017" lon="17.0451417"><ele>303.0</ele><time>2026-03-29T09:00:37.034Z</time></trkpt><trkpt lat="39.3835817" lon="17.0451783"><ele>303.0</ele><time>2026-03-29T09:00:38.034Z</time></trkpt><trkpt lat="39.3836633" lon="17.0452133"><ele>303.0</ele><time>2026-03-29T09:00:39.033Z</time></trkpt><trkpt lat="39.3837517" lon="17.04525"><ele>303.0</ele><time>2026-03-29T09:00:40.034Z</time></trkpt><trkpt lat="39.3838317" lon="17.0452817"><ele>303.0</ele><time>2026-03-29T09:00:41.034Z</time></trkpt><trkpt lat="39.3839083" lon="17.045315"><ele>303.0</ele><time>2026-03-29T09:00:42.034Z</time></trkpt><trkpt lat="39.3839817" lon="17.0453467"><ele>303.0</ele><time>2026-03-29T09:00:43.034Z</time></trkpt><trkpt lat="39.3840567" lon="17.045365"><ele>303.0</ele><time>2026-03-29T09:00:44.034Z</time></trkpt><trkpt lat="39.384145" lon="17.0453683"><ele>303.0</ele><time>2026-03-29T09:00:45.034Z</time></trkpt><trkpt lat="39.3842383" lon="17.0453583"><ele>303.0</ele><time>2026-03-29T09:00:46.034Z</time></trkpt><trkpt lat="39.3843383" lon="17.0453217"><ele>303.0</ele><time>2026-03-29T09:00:47.034Z</time></trkpt><trkpt lat="39.3844333" lon="17.04526"><ele>303.0</ele><time>2026-03-29T09:00:48.034Z</time></trkpt><trkpt lat="39.3845283" lon="17.0451817"><ele>303.0</ele><time>2026-03-29T09:00:49.034Z</time></trkpt><trkpt lat="39.3846333" lon="17.0450917"><ele>303.0</ele><time>2026-03-29T09:00:50.034Z</time></trkpt><trkpt lat="39.3847283" lon="17.0449817"><ele>303.0</ele><time>2026-03-29T09:00:51.034Z</time></trkpt><trkpt lat="39.3848117" lon="17.044855"><ele>303.0</ele><time>2026-03-29T09:00:52.034Z</time></trkpt><trkpt lat="39.384875" lon="17.044735"><ele>304.0</ele><time>2026-03-29T09:00:53.034Z</time></trkpt><trkpt lat="39.38492" lon="17.0446333"><ele>305.0</ele><time>2026-03-29T09:00:54.034Z</time></trkpt><trkpt lat="39.3849683" lon="17.044525"><ele>306.0</ele><time>2026-03-29T09:00:56.034Z</time></trkpt><trkpt lat="39.3850283" lon="17.044465"><ele>307.0</ele><time>2026-03-29T09:00:59.034Z</time></trkpt><trkpt lat="39.3851067" lon="17.0444367"><ele>308.0</ele><time>2026-03-29T09:01:19.034Z</time></trkpt><trkpt lat="39.3851683" lon="17.0443817"><ele>309.0</ele><time>2026-03-29T09:01:22.034Z</time></trkpt><trkpt lat="39.3852417" lon="17.044295"><ele>309.00000000000006</ele><time>2026-03-29T09:01:24.034Z</time></trkpt><trkpt lat="39.3852867" lon="17.0442317"><ele>309.0</ele><time>2026-03-29T09:01:25.034Z</time></trkpt><trkpt lat="39.3853417" lon="17.04416"><ele>309.0</ele><time>2026-03-29T09:01:26.034Z</time></trkpt><trkpt lat="39.385395" lon="17.044095"><ele>309.0</ele><time>2026-03-29T09:01:27.033Z</time></trkpt><trkpt lat="39.3854483" lon="17.0440333"><ele>309.0</ele><time>2026-03-29T09:01:28.034Z</time></trkpt><trkpt lat="39.3854833" lon="17.0439617"><ele>309.00000000000006</ele><time>2026-03-29T09:01:29.033Z</time></trkpt><trkpt lat="39.385515" lon="17.0438683"><ele>309.0</ele><time>2026-03-29T09:01:30.034Z</time></trkpt><trkpt lat="39.38555" lon="17.0437617"><ele>309.5</ele><time>2026-03-29T09:01:31.034Z</time></trkpt><trkpt lat="39.38559" lon="17.043655"><ele>310.0</ele><time>2026-03-29T09:01:32.034Z</time></trkpt><trkpt lat="39.3856333" lon="17.0435467"><ele>310.5</ele><time>2026-03-29T09:01:33.034Z</time></trkpt><trkpt lat="39.385665" lon="17.0434467"><ele>311.0</ele><time>2026-03-29T09:01:34.034Z</time></trkpt><trkpt lat="39.3856883" lon="17.0433483"><ele>311.5</ele><time>2026-03-29T09:01:35.034Z</time></trkpt><trkpt lat="39.3857067" lon="17.04324"><ele>312.0</ele><time>2026-03-29T09:01:36.034Z</time></trkpt><trkpt lat="39.3857233" lon="17.0431383"><ele>312.0</ele><time>2026-03-29T09:01:37.034Z</time></trkpt><trkpt lat="39.3857383" lon="17.043045"><ele>312.0</ele><time>2026-03-29T09:01:38.034Z</time></trkpt><trkpt lat="39.38575" lon="17.0429483"><ele>312.0</ele><time>2026-03-29T09:01:39.034Z</time></trkpt><trkpt lat="39.3857917" lon="17.0428183"><ele>312.0</ele><time>2026-03-29T09:01:41.034Z</time></trkpt><trkpt lat="39.385905" lon="17.0427683"><ele>312.0</ele><time>2026-03-29T09:01:43.034Z</time></trkpt><trkpt lat="39.385985" lon="17.0427717"><ele>312.0</ele><time>2026-03-29T09:01:44.034Z</time></trkpt><trkpt lat="39.3860733" lon="17.042785"><ele>312.0</ele><time>2026-03-29T09:01:45.034Z</time></trkpt><trkpt lat="39.3861533" lon="17.0428033"><ele>312.0</ele><time>2026-03-29T09:01:46.034Z</time></trkpt><trkpt lat="39.3862417" lon="17.0428467"><ele>312.0</ele><time>2026-03-29T09:01:47.034Z</time></trkpt><trkpt lat="39.3863083" lon="17.0428667"><ele>312.0</ele><time>2026-03-29T09:01:48.034Z</time></trkpt><trkpt lat="39.3864233" lon="17.0429067"><ele>309.6666666666667</ele><time>2026-03-29T09:01:50.034Z</time></trkpt><trkpt lat="39.3864883" lon="17.04295"><ele>307.3333333333333</ele><time>2026-03-29T09:01:51.034Z</time></trkpt><trkpt lat="39.38655" lon="17.0430017"><ele>305.0</ele><time>2026-03-29T09:01:52.034Z</time></trkpt><trkpt lat="39.38661" lon="17.0430467"><ele>302.66666666666663</ele><time>2026-03-29T09:01:53.034Z</time></trkpt><trkpt lat="39.3866733" lon="17.043095"><ele>300.3333333333333</ele><time>2026-03-29T09:01:54.033Z</time></trkpt><trkpt lat="39.3867333" lon="17.0431633"><ele>298.0</ele><time>2026-03-29T09:01:55.033Z</time></trkpt><trkpt lat="39.3867817" lon="17.04325"><ele>300.0</ele><time>2026-03-29T09:01:56.034Z</time></trkpt><trkpt lat="39.386835" lon="17.043335"><ele>302.0</ele><time>2026-03-29T09:01:57.034Z</time></trkpt><trkpt lat="39.3868717" lon="17.0434167"><ele>304.0</ele><time>2026-03-29T09:01:58.034Z</time></trkpt><trkpt lat="39.3869017" lon="17.0435"><ele>306.0</ele><time>2026-03-29T09:01:59.034Z</time></trkpt><trkpt lat="39.3869417" lon="17.0436417"><ele>308.0</ele><time>2026-03-29T09:02:01.034Z</time></trkpt><trkpt lat="39.3869833" lon="17.0437767"><ele>308.0</ele><time>2026-03-29T09:02:03.033Z</time></trkpt><trkpt lat="39.3870567" lon="17.04388"><ele>308.0</ele><time>2026-03-29T09:02:05.034Z</time></trkpt><trkpt lat="39.3871617" lon="17.043955"><ele>308.0</ele><time>2026-03-29T09:02:07.034Z</time></trkpt><trkpt lat="39.387245" lon="17.04403"><ele>308.0</ele><time>2026-03-29T09:02:09.034Z</time></trkpt><trkpt lat="39.387315" lon="17.0441117"><ele>308.0</ele><time>2026-03-29T09:02:11.034Z</time></trkpt><trkpt lat="39.387385" lon="17.0441917"><ele>305.4</ele><time>2026-03-29T09:02:13.034Z</time></trkpt><trkpt lat="39.387485" lon="17.0442"><ele>302.8</ele><time>2026-03-29T09:02:15.034Z</time></trkpt><trkpt lat="39.38756" lon="17.0441767"><ele>300.2</ele><time>2026-03-29T09:02:16.033Z</time></trkpt><trkpt lat="39.3876317" lon="17.044155"><ele>297.6</ele><time>2026-03-29T09:02:17.034Z</time></trkpt><trkpt lat="39.3877517" lon="17.0441267"><ele>295.0</ele><time>2026-03-29T09:02:19.034Z</time></trkpt><trkpt lat="39.3878633" lon="17.044115"><ele>295.0</ele><time>2026-03-29T09:02:21.034Z</time></trkpt><trkpt lat="39.3879533" lon="17.04414"><ele>295.0</ele><time>2026-03-29T09:02:23.034Z</time></trkpt><trkpt lat="39.3880133" lon="17.0442017"><ele>295.0</ele><time>2026-03-29T09:02:25.034Z</time></trkpt><trkpt lat="39.3880717" lon="17.0442717"><ele>295.0</ele><time>2026-03-29T09:02:27.034Z</time></trkpt><trkpt lat="39.388175" lon="17.0442733"><ele>295.0</ele><time>2026-03-29T09:02:29.034Z</time></trkpt><trkpt lat="39.388225" lon="17.0442217"><ele>295.0</ele><time>2026-03-29T09:02:30.034Z</time></trkpt><trkpt lat="39.38829" lon="17.0441433"><ele>293.4</ele><time>2026-03-29T09:02:31.034Z</time></trkpt><trkpt lat="39.3883617" lon="17.0440633"><ele>291.8</ele><time>2026-03-29T09:02:32.034Z</time></trkpt><trkpt lat="39.38843" lon="17.0440133"><ele>290.2</ele><time>2026-03-29T09:02:33.034Z</time></trkpt><trkpt lat="39.3885" lon="17.0439967"><ele>288.6</ele><time>2026-03-29T09:02:34.034Z</time></trkpt><trkpt lat="39.3886067" lon="17.0440467"><ele>287.0</ele><time>2026-03-29T09:02:36.034Z</time></trkpt><trkpt lat="39.3886767" lon="17.044145"><ele>287.0</ele><time>2026-03-29T09:02:38.034Z</time></trkpt><trkpt lat="39.3888" lon="17.044175"><ele>287.0</ele><time>2026-03-29T09:02:40.034Z</time></trkpt><trkpt lat="39.388865" lon="17.0441767"><ele>287.0</ele><time>2026-03-29T09:02:41.034Z</time></trkpt><trkpt lat="39.388935" lon="17.0441983"><ele>287.0</ele><time>2026-03-29T09:02:42.034Z</time></trkpt><trkpt lat="39.3890033" lon="17.0442083"><ele>287.0</ele><time>2026-03-29T09:02:43.034Z</time></trkpt><trkpt lat="39.38907" lon="17.0441983"><ele>287.0</ele><time>2026-03-29T09:02:44.034Z</time></trkpt><trkpt lat="39.3891383" lon="17.044165"><ele>281.6</ele><time>2026-03-29T09:02:45.034Z</time></trkpt><trkpt lat="39.3892167" lon="17.04411"><ele>276.2</ele><time>2026-03-29T09:02:46.034Z</time></trkpt><trkpt lat="39.3893017" lon="17.0440533"><ele>270.8</ele><time>2026-03-29T09:02:47.034Z</time></trkpt><trkpt lat="39.3893883" lon="17.0439917"><ele>265.4</ele><time>2026-03-29T09:02:48.034Z</time></trkpt><trkpt lat="39.3894683" lon="17.0439267"><ele>260.0</ele><time>2026-03-29T09:02:49.034Z</time></trkpt><trkpt lat="39.3895517" lon="17.043855"><ele>260.0</ele><time>2026-03-29T09:02:50.034Z</time></trkpt><trkpt lat="39.38963" lon="17.0437767"><ele>260.0</ele><time>2026-03-29T09:02:51.034Z</time></trkpt><trkpt lat="39.3897133" lon="17.04371"><ele>260.0</ele><time>2026-03-29T09:02:52.034Z</time></trkpt><trkpt lat="39.3898017" lon="17.0436533"><ele>260.0</ele><time>2026-03-29T09:02:53.033Z</time></trkpt><trkpt lat="39.38989" lon="17.043595"><ele>260.0</ele><time>2026-03-29T09:02:54.034Z</time></trkpt><trkpt lat="39.3899667" lon="17.04354"><ele>259.1666666666667</ele><time>2026-03-29T09:02:55.034Z</time></trkpt><trkpt lat="39.390035" lon="17.0434817"><ele>258.33333333333337</ele><time>2026-03-29T09:02:56.034Z</time></trkpt><trkpt lat="39.3901017" lon="17.0434133"><ele>257.5</ele><time>2026-03-29T09:02:57.034Z</time></trkpt><trkpt lat="39.3901617" lon="17.0433383"><ele>256.6666666666667</ele><time>2026-03-29T09:02:58.033Z</time></trkpt><trkpt lat="39.3902083" lon="17.04325"><ele>255.83333333333334</ele><time>2026-03-29T09:02:59.034Z</time></trkpt><trkpt lat="39.390245" lon="17.0431583"><ele>255.0</ele><time>2026-03-29T09:03:00.034Z</time></trkpt><trkpt lat="39.3902783" lon="17.0430667"><ele>255.0</ele><time>2026-03-29T09:03:01.034Z</time></trkpt><trkpt lat="39.3903067" lon="17.0429733"><ele>255.0</ele><time>2026-03-29T09:03:02.034Z</time></trkpt><trkpt lat="39.3903183" lon="17.0428733"><ele>255.0</ele><time>2026-03-29T09:03:03.033Z</time></trkpt><trkpt lat="39.3903083" lon="17.0427883"><ele>255.0</ele><time>2026-03-29T09:03:04.034Z</time></trkpt><trkpt lat="39.3902567" lon="17.0426683"><ele>255.0</ele><time>2026-03-29T09:03:06.034Z</time></trkpt><trkpt lat="39.3902017" lon="17.042625"><ele>255.0</ele><time>2026-03-29T09:03:08.034Z</time></trkpt><trkpt lat="39.3901683" lon="17.042535"><ele>251.0</ele><time>2026-03-29T09:03:13.034Z</time></trkpt><trkpt lat="39.3901283" lon="17.0424283"><ele>247.0</ele><time>2026-03-29T09:03:16.034Z</time></trkpt><trkpt lat="39.3901017" lon="17.04233"><ele>243.0</ele><time>2026-03-29T09:03:18.034Z</time></trkpt><trkpt lat="39.3901267" lon="17.042225"><ele>239.0</ele><time>2026-03-29T09:03:20.034Z</time></trkpt><trkpt lat="39.3901933" lon="17.0421283"><ele>235.0</ele><time>2026-03-29T09:03:22.034Z</time></trkpt><trkpt lat="39.3902667" lon="17.04206"><ele>231.0</ele><time>2026-03-29T09:03:24.034Z</time></trkpt><trkpt lat="39.3903517" lon="17.0420267"><ele>231.0</ele><time>2026-03-29T09:03:26.033Z</time></trkpt><trkpt lat="39.3904517" lon="17.042025"><ele>231.00000000000003</ele><time>2026-03-29T09:03:28.034Z</time></trkpt><trkpt lat="39.390535" lon="17.0420233"><ele>231.00000000000003</ele><time>2026-03-29T09:03:30.034Z</time></trkpt><trkpt lat="39.3906317" lon="17.0419933"><ele>231.0</ele><time>2026-03-29T09:03:32.034Z</time></trkpt><trkpt lat="39.3907467" lon="17.0419533"><ele>231.0</ele><time>2026-03-29T09:03:34.034Z</time></trkpt><trkpt lat="39.3908367" lon="17.0418883"><ele>232.4</ele><time>2026-03-29T09:03:36.034Z</time></trkpt><trkpt lat="39.3909233" lon="17.0418433"><ele>233.8</ele><time>2026-03-29T09:03:38.034Z</time></trkpt><trkpt lat="39.3910033" lon="17.0417883"><ele>235.20000000000002</ele><time>2026-03-29T09:03:40.034Z</time></trkpt><trkpt lat="39.391105" lon="17.04172"><ele>236.60000000000002</ele><time>2026-03-29T09:03:42.034Z</time></trkpt><trkpt lat="39.391195" lon="17.0416333"><ele>238.0</ele><time>2026-03-29T09:03:44.034Z</time></trkpt><trkpt lat="39.39127" lon="17.0415317"><ele>234.60000000000002</ele><time>2026-03-29T09:03:46.033Z</time></trkpt><trkpt lat="39.391325" lon="17.04144"><ele>231.20000000000002</ele><time>2026-03-29T09:03:48.034Z</time></trkpt><trkpt lat="39.391355" lon="17.04136"><ele>227.8</ele><time>2026-03-29T09:03:50.034Z</time></trkpt><trkpt lat="39.391375" lon="17.04124"><ele>224.4</ele><time>2026-03-29T09:03:52.033Z</time></trkpt><trkpt lat="39.3913917" lon="17.04109"><ele>221.0</ele><time>2026-03-29T09:03:54.033Z</time></trkpt><trkpt lat="39.3914033" lon="17.0409517"><ele>221.0</ele><time>2026-03-29T09:03:56.033Z</time></trkpt><trkpt lat="39.3914283" lon="17.0408517"><ele>221.00000000000003</ele><time>2026-03-29T09:03:58.032Z</time></trkpt><trkpt lat="39.3914767" lon="17.0407533"><ele>221.00000000000003</ele><time>2026-03-29T09:04:00.033Z</time></trkpt><trkpt lat="39.3915483" lon="17.0406583"><ele>221.0</ele><time>2026-03-29T09:04:02.033Z</time></trkpt><trkpt lat="39.3916283" lon="17.0405767"><ele>221.0</ele><time>2026-03-29T09:04:04.033Z</time></trkpt><trkpt lat="39.3917" lon="17.0405267"><ele>218.50000000000003</ele><time>2026-03-29T09:04:06.033Z</time></trkpt><trkpt lat="39.39178" lon="17.0404883"><ele>216.0</ele><time>2026-03-29T09:04:08.033Z</time></trkpt><trkpt lat="39.39187" lon="17.0404383"><ele>213.5</ele><time>2026-03-29T09:04:10.033Z</time></trkpt><trkpt lat="39.391965" lon="17.0404067"><ele>211.0</ele><time>2026-03-29T09:04:12.033Z</time></trkpt><trkpt lat="39.3920483" lon="17.040405"><ele>208.50000000000003</ele><time>2026-03-29T09:04:14.033Z</time></trkpt><trkpt lat="39.392115" lon="17.040395"><ele>206.0</ele><time>2026-03-29T09:04:16.032Z</time></trkpt><trkpt lat="39.39219" lon="17.0403917"><ele>204.16666666666669</ele><time>2026-03-29T09:04:18.033Z</time></trkpt><trkpt lat="39.3922617" lon="17.0403817"><ele>202.33333333333334</ele><time>2026-03-29T09:04:20.033Z</time></trkpt><trkpt lat="39.3923333" lon="17.0403467"><ele>200.5</ele><time>2026-03-29T09:04:22.033Z</time></trkpt><trkpt lat="39.3924017" lon="17.0403"><ele>198.66666666666669</ele><time>2026-03-29T09:04:24.033Z</time></trkpt><trkpt lat="39.3924717" lon="17.040235"><ele>196.83333333333334</ele><time>2026-03-29T09:04:27.033Z</time></trkpt><trkpt lat="39.3925317" lon="17.0401867"><ele>195.0</ele><time>2026-03-29T09:04:30.033Z</time></trkpt><trkpt lat="39.3925983" lon="17.04012"><ele>195.0</ele><time>2026-03-29T09:04:34.033Z</time></trkpt><trkpt lat="39.3926833" lon="17.0401033"><ele>195.0</ele><time>2026-03-29T09:04:37.033Z</time></trkpt><trkpt lat="39.392755" lon="17.0401167"><ele>195.0</ele><time>2026-03-29T09:04:39.033Z</time></trkpt><trkpt lat="39.39284" lon="17.0401867"><ele>195.0</ele><time>2026-03-29T09:04:41.033Z</time></trkpt><trkpt lat="39.3928967" lon="17.0402817"><ele>195.0</ele><time>2026-03-29T09:04:43.033Z</time></trkpt><trkpt lat="39.392955" lon="17.040375"><ele>195.0</ele><time>2026-03-29T09:04:45.033Z</time></trkpt><trkpt lat="39.393015" lon="17.0404517"><ele>191.5</ele><time>2026-03-29T09:04:47.033Z</time></trkpt><trkpt lat="39.3930683" lon="17.0405133"><ele>188.0</ele><time>2026-03-29T09:04:50.033Z</time></trkpt><trkpt lat="39.3931333" lon="17.040555"><ele>184.5</ele><time>2026-03-29T09:04:54.033Z</time></trkpt><trkpt lat="39.3932117" lon="17.0405883"><ele>181.0</ele><time>2026-03-29T09:04:58.033Z</time></trkpt><trkpt lat="39.3933033" lon="17.04061"><ele>177.5</ele><time>2026-03-29T09:05:01.033Z</time></trkpt><trkpt lat="39.393395" lon="17.0406033"><ele>174.0</ele><time>2026-03-29T09:05:04.032Z</time></trkpt><trkpt lat="39.3934933" lon="17.040615"><ele>174.0</ele><time>2026-03-29T09:05:07.032Z</time></trkpt><trkpt lat="39.3935633" lon="17.04062"><ele>174.0</ele><time>2026-03-29T09:05:09.032Z</time></trkpt><trkpt lat="39.39364" lon="17.040625"><ele>174.0</ele><time>2026-03-29T09:05:13.033Z</time></trkpt><trkpt lat="39.3937067" lon="17.0406267"><ele>174.0</ele><time>2026-03-29T09:05:18.033Z</time></trkpt><trkpt lat="39.3937817" lon="17.0406383"><ele>174.0</ele><time>2026-03-29T09:05:23.032Z</time></trkpt><trkpt lat="39.3938583" lon="17.0406517"><ele>174.0</ele><time>2026-03-29T09:05:27.033Z</time></trkpt><trkpt lat="39.3939267" lon="17.04064"><ele>174.0</ele><time>2026-03-29T09:05:32.032Z</time></trkpt><trkpt lat="39.3939933" lon="17.040625"><ele>171.6</ele><time>2026-03-29T09:05:34.033Z</time></trkpt><trkpt lat="39.3940933" lon="17.04059"><ele>169.2</ele><time>2026-03-29T09:05:36.033Z</time></trkpt><trkpt lat="39.3941967" lon="17.0405517"><ele>166.79999999999998</ele><time>2026-03-29T09:05:38.032Z</time></trkpt><trkpt lat="39.3942917" lon="17.0405567"><ele>164.39999999999998</ele><time>2026-03-29T09:05:40.033Z</time></trkpt><trkpt lat="39.3943767" lon="17.0405767"><ele>162.0</ele><time>2026-03-29T09:05:42.033Z</time></trkpt><trkpt lat="39.394455" lon="17.0406033"><ele>162.0</ele><time>2026-03-29T09:05:44.033Z</time></trkpt><trkpt lat="39.3945283" lon="17.040645"><ele>162.0</ele><time>2026-03-29T09:05:46.033Z</time></trkpt><trkpt lat="39.3945917" lon="17.0407117"><ele>162.0</ele><time>2026-03-29T09:05:48.033Z</time></trkpt><trkpt lat="39.3946367" lon="17.0407767"><ele>162.0</ele><time>2026-03-29T09:05:51.033Z</time></trkpt><trkpt lat="39.3946783" lon="17.040865"><ele>162.0</ele><time>2026-03-29T09:05:56.033Z</time></trkpt><trkpt lat="39.39473" lon="17.0409367"><ele>162.0</ele><time>2026-03-29T09:05:59.033Z</time></trkpt><trkpt lat="39.3947783" lon="17.0410017"><ele>161.6</ele><time>2026-03-29T09:06:01.032Z</time></trkpt><trkpt lat="39.3948217" lon="17.0410933"><ele>161.2</ele><time>2026-03-29T09:06:03.033Z</time></trkpt><trkpt lat="39.3948667" lon="17.041155"><ele>160.8</ele><time>2026-03-29T09:06:05.033Z</time></trkpt><trkpt lat="39.3949633" lon="17.0412117"><ele>160.4</ele><time>2026-03-29T09:06:24.032Z</time></trkpt><trkpt lat="39.3950767" lon="17.04124"><ele>160.0</ele><time>2026-03-29T09:06:46.033Z</time></trkpt><trkpt lat="39.3951667" lon="17.04124"><ele>160.0</ele><time>2026-03-29T09:06:53.033Z</time></trkpt><trkpt lat="39.3952617" lon="17.0412267"><ele>160.0</ele><time>2026-03-29T09:07:47.033Z</time></trkpt><trkpt lat="39.3953217" lon="17.0411917"><ele>160.0</ele><time>2026-03-29T09:07:50.033Z</time></trkpt><trkpt lat="39.395425" lon="17.0410817"><ele>160.0</ele><time>2026-03-29T09:10:55.032Z</time></trkpt><trkpt lat="39.3954783" lon="17.040995"><ele>160.0</ele><time>2026-03-29T09:10:59.032Z</time></trkpt><trkpt lat="39.39552" lon="17.0408933"><ele>155.0</ele><time>2026-03-29T09:11:02.032Z</time></trkpt><trkpt lat="39.3955433" lon="17.04079"><ele>150.0</ele><time>2026-03-29T09:11:05.032Z</time></trkpt><trkpt lat="39.3955767" lon="17.0407183"><ele>145.0</ele><time>2026-03-29T09:11:07.032Z</time></trkpt><trkpt lat="39.3956367" lon="17.040685"><ele>140.0</ele><time>2026-03-29T09:11:09.032Z</time></trkpt><trkpt lat="39.39572" lon="17.0406783"><ele>135.0</ele><time>2026-03-29T09:11:11.032Z</time></trkpt><trkpt lat="39.3958167" lon="17.0406783"><ele>130.0</ele><time>2026-03-29T09:11:13.032Z</time></trkpt><trkpt lat="39.3958983" lon="17.04067"><ele>130.0</ele><time>2026-03-29T09:11:15.032Z</time></trkpt><trkpt lat="39.395965" lon="17.0406583"><ele>130.0</ele><time>2026-03-29T09:11:17.032Z</time></trkpt><trkpt lat="39.3960183" lon="17.0405983"><ele>130.0</ele><time>2026-03-29T09:11:19.032Z</time></trkpt><trkpt lat="39.39605" lon="17.0405183"><ele>130.0</ele><time>2026-03-29T09:11:21.032Z</time></trkpt><trkpt lat="39.39609" lon="17.04043"><ele>130.0</ele><time>2026-03-29T09:11:23.032Z</time></trkpt><trkpt lat="39.3961417" lon="17.0403433"><ele>130.0</ele><time>2026-03-29T09:11:25.031Z</time></trkpt><trkpt lat="39.396215" lon="17.0402967"><ele>130.00000000000003</ele><time>2026-03-29T09:11:27.032Z</time></trkpt><trkpt lat="39.3962917" lon="17.0403233"><ele>130.0</ele><time>2026-03-29T09:11:29.032Z</time></trkpt><trkpt lat="39.39636" lon="17.040365"><ele>130.0</ele><time>2026-03-29T09:11:31.031Z</time></trkpt><trkpt lat="39.3964217" lon="17.0404233"><ele>130.0</ele><time>2026-03-29T09:11:33.032Z</time></trkpt><trkpt lat="39.3964567" lon="17.0405067"><ele>130.0</ele><time>2026-03-29T09:11:36.032Z</time></trkpt><trkpt lat="39.3964417" lon="17.0405883"><ele>130.00000000000003</ele><time>2026-03-29T09:11:39.032Z</time></trkpt><trkpt lat="39.3964133" lon="17.040685"><ele>130.0</ele><time>2026-03-29T09:11:43.032Z</time></trkpt><trkpt lat="39.3964" lon="17.040775"><ele>129.8</ele><time>2026-03-29T09:11:47.032Z</time></trkpt><trkpt lat="39.396385" lon="17.0408917"><ele>129.6</ele><time>2026-03-29T09:11:57.032Z</time></trkpt><trkpt lat="39.3964783" lon="17.04087"><ele>129.4</ele><time>2026-03-29T09:12:10.031Z</time></trkpt><trkpt lat="39.396545" lon="17.0407683"><ele>129.2</ele><time>2026-03-29T09:12:12.032Z</time></trkpt><trkpt lat="39.3966217" lon="17.0406483"><ele>129.0</ele><time>2026-03-29T09:12:14.032Z</time></trkpt><trkpt lat="39.3966967" lon="17.0405283"><ele>129.0</ele><time>2026-03-29T09:12:16.032Z</time></trkpt><trkpt lat="39.3967583" lon="17.04044"><ele>129.0</ele><time>2026-03-29T09:12:18.032Z</time></trkpt><trkpt lat="39.3968167" lon="17.0403667"><ele>129.0</ele><time>2026-03-29T09:12:20.032Z</time></trkpt><trkpt lat="39.39685" lon="17.0402717"><ele>129.0</ele><time>2026-03-29T09:12:23.032Z</time></trkpt><trkpt lat="39.3968317" lon="17.0401417"><ele>129.0</ele><time>2026-03-29T09:12:26.032Z</time></trkpt><trkpt lat="39.3967983" lon="17.0400417"><ele>129.0</ele><time>2026-03-29T09:12:28.032Z</time></trkpt><trkpt lat="39.3967583" lon="17.0399617"><ele>130.83333333333334</ele><time>2026-03-29T09:12:30.032Z</time></trkpt><trkpt lat="39.3967167" lon="17.0398533"><ele>132.66666666666666</ele><time>2026-03-29T09:12:33.032Z</time></trkpt><trkpt lat="39.3967633" lon="17.0397633"><ele>134.5</ele><time>2026-03-29T09:12:37.031Z</time></trkpt><trkpt lat="39.3968417" lon="17.039725"><ele>136.33333333333331</ele><time>2026-03-29T09:12:39.032Z</time></trkpt><trkpt lat="39.39692" lon="17.03973"><ele>138.16666666666666</ele><time>2026-03-29T09:12:41.032Z</time></trkpt><trkpt lat="39.3969883" lon="17.039755"><ele>140.0</ele><time>2026-03-29T09:12:43.032Z</time></trkpt><trkpt lat="39.3970517" lon="17.0397267"><ele>140.0</ele><time>2026-03-29T09:12:45.031Z</time></trkpt><trkpt lat="39.3970617" lon="17.0396417"><ele>140.0</ele><time>2026-03-29T09:12:47.032Z</time></trkpt><trkpt lat="39.3970583" lon="17.03954"><ele>140.0</ele><time>2026-03-29T09:12:49.032Z</time></trkpt><trkpt lat="39.39706" lon="17.03944"><ele>140.0</ele><time>2026-03-29T09:12:51.032Z</time></trkpt><trkpt lat="39.39704" lon="17.0393567"><ele>140.0</ele><time>2026-03-29T09:12:53.032Z</time></trkpt><trkpt lat="39.397" lon="17.03927"><ele>140.0</ele><time>2026-03-29T09:12:55.032Z</time></trkpt><trkpt lat="39.396985" lon="17.03918"><ele>140.0</ele><time>2026-03-29T09:12:57.032Z</time></trkpt><trkpt lat="39.39692" lon="17.0390883"><ele>142.8</ele><time>2026-03-29T09:13:00.032Z</time></trkpt><trkpt lat="39.396855" lon="17.0390283"><ele>145.6</ele><time>2026-03-29T09:13:02.032Z</time></trkpt><trkpt lat="39.3968217" lon="17.0389117"><ele>148.4</ele><time>2026-03-29T09:13:05.032Z</time></trkpt><trkpt lat="39.3968417" lon="17.0387967"><ele>151.2</ele><time>2026-03-29T09:13:07.032Z</time></trkpt><trkpt lat="39.396855" lon="17.0386667"><ele>154.0</ele><time>2026-03-29T09:13:09.032Z</time></trkpt><trkpt lat="39.3968633" lon="17.03854"><ele>154.0</ele><time>2026-03-29T09:13:11.032Z</time></trkpt><trkpt lat="39.39689" lon="17.03845"><ele>154.0</ele><time>2026-03-29T09:13:13.032Z</time></trkpt><trkpt lat="39.3969283" lon="17.038375"><ele>154.0</ele><time>2026-03-29T09:13:15.032Z</time></trkpt><trkpt lat="39.396955" lon="17.0382883"><ele>154.0</ele><time>2026-03-29T09:13:17.032Z</time></trkpt><trkpt lat="39.3969883" lon="17.0381817"><ele>154.0</ele><time>2026-03-29T09:13:19.032Z</time></trkpt><trkpt lat="39.39703" lon="17.038075"><ele>154.0</ele><time>2026-03-29T09:13:21.032Z</time></trkpt><trkpt lat="39.3970667" lon="17.0379817"><ele>155.4</ele><time>2026-03-29T09:13:23.032Z</time></trkpt><trkpt lat="39.3971083" lon="17.0378933"><ele>156.8</ele><time>2026-03-29T09:13:26.032Z</time></trkpt><trkpt lat="39.3971283" lon="17.0378017"><ele>158.20000000000002</ele><time>2026-03-29T09:13:29.032Z</time></trkpt><trkpt lat="39.3971617" lon="17.0377017"><ele>159.60000000000002</ele><time>2026-03-29T09:13:31.032Z</time></trkpt><trkpt lat="39.3972183" lon="17.037585"><ele>161.0</ele><time>2026-03-29T09:13:33.031Z</time></trkpt><trkpt lat="39.3972683" lon="17.0374633"><ele>163.60000000000002</ele><time>2026-03-29T09:13:35.032Z</time></trkpt><trkpt lat="39.3972717" lon="17.0373417"><ele>166.2</ele><time>2026-03-29T09:13:37.032Z</time></trkpt><trkpt lat="39.3972533" lon="17.037205"><ele>168.8</ele><time>2026-03-29T09:13:39.032Z</time></trkpt><trkpt lat="39.3972133" lon="17.037065"><ele>171.39999999999998</ele><time>2026-03-29T09:13:41.031Z</time></trkpt><trkpt lat="39.3971533" lon="17.03693"><ele>174.0</ele><time>2026-03-29T09:13:43.032Z</time></trkpt><trkpt lat="39.3970867" lon="17.0368083"><ele>174.0</ele><time>2026-03-29T09:13:45.032Z</time></trkpt><trkpt lat="39.39701" lon="17.0366883"><ele>174.0</ele><time>2026-03-29T09:13:47.032Z</time></trkpt><trkpt lat="39.3969233" lon="17.03658"><ele>174.0</ele><time>2026-03-29T09:13:49.032Z</time></trkpt><trkpt lat="39.396845" lon="17.03646"><ele>174.0</ele><time>2026-03-29T09:13:51.031Z</time></trkpt><trkpt lat="39.39681" lon="17.0363867"><ele>174.0</ele><time>2026-03-29T09:13:52.032Z</time></trkpt><trkpt lat="39.3967483" lon="17.0362567"><ele>176.79999999999998</ele><time>2026-03-29T09:13:54.032Z</time></trkpt><trkpt lat="39.3966833" lon="17.036115"><ele>179.6</ele><time>2026-03-29T09:13:56.032Z</time></trkpt><trkpt lat="39.3966533" lon="17.03604"><ele>182.4</ele><time>2026-03-29T09:13:57.032Z</time></trkpt><trkpt lat="39.3965983" lon="17.03591"><ele>185.2</ele><time>2026-03-29T09:13:59.032Z</time></trkpt><trkpt lat="39.3965317" lon="17.035775"><ele>188.0</ele><time>2026-03-29T09:14:01.032Z</time></trkpt><trkpt lat="39.396515" lon="17.0356567"><ele>190.8</ele><time>2026-03-29T09:14:03.032Z</time></trkpt><trkpt lat="39.3965217" lon="17.0355317"><ele>193.60000000000002</ele><time>2026-03-29T09:14:05.032Z</time></trkpt><trkpt lat="39.396515" lon="17.0354283"><ele>196.39999999999998</ele><time>2026-03-29T09:14:07.032Z</time></trkpt><trkpt lat="39.3965183" lon="17.0353167"><ele>199.2</ele><time>2026-03-29T09:14:09.032Z</time></trkpt><trkpt lat="39.396505" lon="17.035175"><ele>202.0</ele><time>2026-03-29T09:14:11.032Z</time></trkpt><trkpt lat="39.3964867" lon="17.0350417"><ele>203.2</ele><time>2026-03-29T09:14:13.031Z</time></trkpt><trkpt lat="39.396485" lon="17.0349133"><ele>204.39999999999998</ele><time>2026-03-29T09:14:15.032Z</time></trkpt><trkpt lat="39.3964617" lon="17.03479"><ele>205.60000000000002</ele><time>2026-03-29T09:14:17.032Z</time></trkpt><trkpt lat="39.396395" lon="17.0346583"><ele>206.8</ele><time>2026-03-29T09:14:19.032Z</time></trkpt><trkpt lat="39.39637" lon="17.03458"><ele>208.0</ele><time>2026-03-29T09:14:20.032Z</time></trkpt><trkpt lat="39.3963467" lon="17.0344617"><ele>207.99999999999997</ele><time>2026-03-29T09:14:22.032Z</time></trkpt><trkpt lat="39.3963467" lon="17.03438"><ele>208.0</ele><time>2026-03-29T09:14:24.032Z</time></trkpt><trkpt lat="39.3963483" lon="17.0342867"><ele>208.0</ele><time>2026-03-29T09:14:29.032Z</time></trkpt><trkpt lat="39.3963483" lon="17.034175"><ele>208.0</ele><time>2026-03-29T09:14:32.032Z</time></trkpt><trkpt lat="39.396355" lon="17.0340583"><ele>207.99999999999997</ele><time>2026-03-29T09:14:34.032Z</time></trkpt><trkpt lat="39.3963767" lon="17.0339033"><ele>208.0</ele><time>2026-03-29T09:14:36.032Z</time></trkpt><trkpt lat="39.3964" lon="17.03382"><ele>207.49999999999997</ele><time>2026-03-29T09:14:37.032Z</time></trkpt><trkpt lat="39.39643" lon="17.0337317"><ele>207.0</ele><time>2026-03-29T09:14:38.032Z</time></trkpt><trkpt lat="39.3964533" lon="17.0336433"><ele>206.5</ele><time>2026-03-29T09:14:39.032Z</time></trkpt><trkpt lat="39.3964633" lon="17.033555"><ele>206.0</ele><time>2026-03-29T09:14:40.032Z</time></trkpt><trkpt lat="39.3964633" lon="17.0334683"><ele>205.49999999999997</ele><time>2026-03-29T09:14:41.032Z</time></trkpt><trkpt lat="39.39645" lon="17.033385"><ele>205.0</ele><time>2026-03-29T09:14:42.032Z</time></trkpt><trkpt lat="39.3964217" lon="17.033225"><ele>204.66666666666666</ele><time>2026-03-29T09:14:44.032Z</time></trkpt><trkpt lat="39.3963917" lon="17.0330817"><ele>204.33333333333331</ele><time>2026-03-29T09:14:46.032Z</time></trkpt><trkpt lat="39.3963867" lon="17.0329983"><ele>204.0</ele><time>2026-03-29T09:14:47.032Z</time></trkpt><trkpt lat="39.3963817" lon="17.0329117"><ele>203.66666666666669</ele><time>2026-03-29T09:14:48.031Z</time></trkpt><trkpt lat="39.3963867" lon="17.03283"><ele>203.33333333333334</ele><time>2026-03-29T09:14:49.032Z</time></trkpt><trkpt lat="39.3963983" lon="17.0326767"><ele>203.0</ele><time>2026-03-29T09:14:51.032Z</time></trkpt><trkpt lat="39.39642" lon="17.032535"><ele>199.4</ele><time>2026-03-29T09:14:53.032Z</time></trkpt><trkpt lat="39.39645" lon="17.0324033"><ele>195.8</ele><time>2026-03-29T09:14:55.031Z</time></trkpt><trkpt lat="39.3964833" lon="17.032275"><ele>192.2</ele><time>2026-03-29T09:14:57.032Z</time></trkpt><trkpt lat="39.3965" lon="17.0321433"><ele>188.6</ele><time>2026-03-29T09:14:59.032Z</time></trkpt><trkpt lat="39.3965033" lon="17.0320233"><ele>185.0</ele><time>2026-03-29T09:15:01.032Z</time></trkpt><trkpt lat="39.3965" lon="17.0319167"><ele>185.0</ele><time>2026-03-29T09:15:03.032Z</time></trkpt><trkpt lat="39.3965017" lon="17.0317917"><ele>185.0</ele><time>2026-03-29T09:15:05.032Z</time></trkpt><trkpt lat="39.396505" lon="17.0316783"><ele>185.0</ele><time>2026-03-29T09:15:07.032Z</time></trkpt><trkpt lat="39.3965217" lon="17.03154"><ele>185.0</ele><time>2026-03-29T09:15:09.032Z</time></trkpt><trkpt lat="39.3965667" lon="17.0314"><ele>185.0</ele><time>2026-03-29T09:15:11.032Z</time></trkpt><trkpt lat="39.3966067" lon="17.03133"><ele>182.5</ele><time>2026-03-29T09:15:12.032Z</time></trkpt><trkpt lat="39.3966533" lon="17.0312667"><ele>180.0</ele><time>2026-03-29T09:15:13.032Z</time></trkpt><trkpt lat="39.39674" lon="17.031165"><ele>177.5</ele><time>2026-03-29T09:15:15.031Z</time></trkpt><trkpt lat="39.3967867" lon="17.0311067"><ele>175.0</ele><time>2026-03-29T09:15:16.032Z</time></trkpt><trkpt lat="39.396835" lon="17.0310467"><ele>172.5</ele><time>2026-03-29T09:15:17.032Z</time></trkpt><trkpt lat="39.396875" lon="17.0309733"><ele>170.0</ele><time>2026-03-29T09:15:18.031Z</time></trkpt><trkpt lat="39.3969133" lon="17.0308833"><ele>167.83333333333331</ele><time>2026-03-29T09:15:19.031Z</time></trkpt><trkpt lat="39.3969567" lon="17.0307933"><ele>165.66666666666666</ele><time>2026-03-29T09:15:20.031Z</time></trkpt><trkpt lat="39.3969967" lon="17.03072"><ele>163.5</ele><time>2026-03-29T09:15:21.031Z</time></trkpt><trkpt lat="39.3970467" lon="17.030655"><ele>161.33333333333334</ele><time>2026-03-29T09:15:22.031Z</time></trkpt><trkpt lat="39.3971033" lon="17.0306067"><ele>159.16666666666669</ele><time>2026-03-29T09:15:23.031Z</time></trkpt><trkpt lat="39.397215" lon="17.0305383"><ele>157.0</ele><time>2026-03-29T09:15:25.031Z</time></trkpt><trkpt lat="39.397325" lon="17.0304833"><ele>156.99999999999997</ele><time>2026-03-29T09:15:27.031Z</time></trkpt><trkpt lat="39.3973883" lon="17.03045"><ele>157.0</ele><time>2026-03-29T09:15:28.03Z</time></trkpt><trkpt lat="39.39745" lon="17.0304217"><ele>157.0</ele><time>2026-03-29T09:15:29.031Z</time></trkpt><trkpt lat="39.3975167" lon="17.0304033"><ele>157.0</ele><time>2026-03-29T09:15:30.031Z</time></trkpt><trkpt lat="39.39759" lon="17.0304"><ele>157.0</ele><time>2026-03-29T09:15:31.031Z</time></trkpt><trkpt lat="39.397665" lon="17.0304033"><ele>156.99999999999997</ele><time>2026-03-29T09:15:32.03Z</time></trkpt><trkpt lat="39.3977367" lon="17.0304067"><ele>157.0</ele><time>2026-03-29T09:15:33.031Z</time></trkpt><trkpt lat="39.3978083" lon="17.030395"><ele>157.0</ele><time>2026-03-29T09:15:34.031Z</time></trkpt><trkpt lat="39.39792" lon="17.030335"><ele>157.0</ele><time>2026-03-29T09:15:36.03Z</time></trkpt><trkpt lat="39.397975" lon="17.0302867"><ele>157.0</ele><time>2026-03-29T09:15:37.031Z</time></trkpt><trkpt lat="39.3980267" lon="17.03024"><ele>157.0</ele><time>2026-03-29T09:15:38.03Z</time></trkpt><trkpt lat="39.3980967" lon="17.030155"><ele>157.0</ele><time>2026-03-29T09:15:40.031Z</time></trkpt><trkpt lat="39.3981217" lon="17.0300383"><ele>157.0</ele><time>2026-03-29T09:15:42.03Z</time></trkpt><trkpt lat="39.3981633" lon="17.0299133"><ele>153.2</ele><time>2026-03-29T09:15:44.031Z</time></trkpt><trkpt lat="39.398235" lon="17.029825"><ele>149.39999999999998</ele><time>2026-03-29T09:15:46.031Z</time></trkpt><trkpt lat="39.3983133" lon="17.0297533"><ele>145.60000000000002</ele><time>2026-03-29T09:15:48.031Z</time></trkpt><trkpt lat="39.398405" lon="17.0296717"><ele>141.8</ele><time>2026-03-29T09:15:50.031Z</time></trkpt><trkpt lat="39.3984833" lon="17.0296017"><ele>138.0</ele><time>2026-03-29T09:15:52.03Z</time></trkpt><trkpt lat="39.398555" lon="17.02953"><ele>138.0</ele><time>2026-03-29T09:15:54.031Z</time></trkpt><trkpt lat="39.3986183" lon="17.029465"><ele>138.0</ele><time>2026-03-29T09:15:56.031Z</time></trkpt><trkpt lat="39.3986833" lon="17.0294033"><ele>138.0</ele><time>2026-03-29T09:15:58.031Z</time></trkpt><trkpt lat="39.3987517" lon="17.02936"><ele>138.0</ele><time>2026-03-29T09:16:00.031Z</time></trkpt><trkpt lat="39.39883" lon="17.0293067"><ele>138.0</ele><time>2026-03-29T09:16:02.031Z</time></trkpt><trkpt lat="39.398935" lon="17.0292517"><ele>138.0</ele><time>2026-03-29T09:16:04.031Z</time></trkpt><trkpt lat="39.39905" lon="17.0292217"><ele>136.6</ele><time>2026-03-29T09:16:06.03Z</time></trkpt><trkpt lat="39.3991517" lon="17.0292067"><ele>135.20000000000002</ele><time>2026-03-29T09:16:08.031Z</time></trkpt><trkpt lat="39.3992533" lon="17.0291883"><ele>133.8</ele><time>2026-03-29T09:16:10.031Z</time></trkpt><trkpt lat="39.3993433" lon="17.02917"><ele>132.4</ele><time>2026-03-29T09:16:12.031Z</time></trkpt><trkpt lat="39.39941" lon="17.0291433"><ele>131.0</ele><time>2026-03-29T09:16:14.031Z</time></trkpt><trkpt lat="39.3994917" lon="17.0291083"><ele>129.4</ele><time>2026-03-29T09:16:17.031Z</time></trkpt><trkpt lat="39.39957" lon="17.0290567"><ele>127.8</ele><time>2026-03-29T09:16:20.031Z</time></trkpt><trkpt lat="39.3996483" lon="17.0289817"><ele>126.20000000000002</ele><time>2026-03-29T09:16:22.03Z</time></trkpt><trkpt lat="39.399735" lon="17.0288767"><ele>124.60000000000001</ele><time>2026-03-29T09:16:24.031Z</time></trkpt><trkpt lat="39.39982" lon="17.0287783"><ele>123.0</ele><time>2026-03-29T09:16:26.031Z</time></trkpt><trkpt lat="39.3998983" lon="17.028675"><ele>121.66666666666667</ele><time>2026-03-29T09:16:28.031Z</time></trkpt><trkpt lat="39.3999667" lon="17.0285933"><ele>120.33333333333334</ele><time>2026-03-29T09:16:30.03Z</time></trkpt><trkpt lat="39.40002" lon="17.0285117"><ele>119.0</ele><time>2026-03-29T09:16:33.031Z</time></trkpt><trkpt lat="39.4000767" lon="17.0284333"><ele>117.66666666666667</ele><time>2026-03-29T09:16:36.03Z</time></trkpt><trkpt lat="39.4001483" lon="17.0283817"><ele>116.33333333333334</ele><time>2026-03-29T09:16:39.03Z</time></trkpt><trkpt lat="39.4002067" lon="17.02835"><ele>115.0</ele><time>2026-03-29T09:16:41.031Z</time></trkpt><trkpt lat="39.40028" lon="17.0283117"><ele>113.33333333333334</ele><time>2026-03-29T09:16:43.03Z</time></trkpt><trkpt lat="39.4003517" lon="17.0282517"><ele>111.66666666666667</ele><time>2026-03-29T09:16:46.031Z</time></trkpt><trkpt lat="39.400405" lon="17.0281817"><ele>110.0</ele><time>2026-03-29T09:16:49.031Z</time></trkpt><trkpt lat="39.4004583" lon="17.0280783"><ele>108.33333333333334</ele><time>2026-03-29T09:16:52.031Z</time></trkpt><trkpt lat="39.4005017" lon="17.0280133"><ele>106.66666666666667</ele><time>2026-03-29T09:16:54.031Z</time></trkpt><trkpt lat="39.4005433" lon="17.0279467"><ele>105.0</ele><time>2026-03-29T09:16:56.031Z</time></trkpt><trkpt lat="39.4006" lon="17.02788"><ele>102.0</ele><time>2026-03-29T09:16:58.031Z</time></trkpt><trkpt lat="39.40066" lon="17.0278283"><ele>99.0</ele><time>2026-03-29T09:17:00.031Z</time></trkpt><trkpt lat="39.40073" lon="17.0277567"><ele>96.0</ele><time>2026-03-29T09:17:03.03Z</time></trkpt><trkpt lat="39.4007933" lon="17.0277167"><ele>93.0</ele><time>2026-03-29T09:17:07.031Z</time></trkpt><trkpt lat="39.4008683" lon="17.0276917"><ele>90.0</ele><time>2026-03-29T09:17:10.031Z</time></trkpt><trkpt lat="39.400965" lon="17.0276417"><ele>87.0</ele><time>2026-03-29T09:17:13.031Z</time></trkpt><trkpt lat="39.4010583" lon="17.0275917"><ele>87.0</ele><time>2026-03-29T09:17:15.031Z</time></trkpt><trkpt lat="39.401165" lon="17.0275433"><ele>87.0</ele><time>2026-03-29T09:17:17.03Z</time></trkpt><trkpt lat="39.4012267" lon="17.0275167"><ele>87.0</ele><time>2026-03-29T09:17:18.031Z</time></trkpt><trkpt lat="39.4012833" lon="17.02748"><ele>87.0</ele><time>2026-03-29T09:17:19.031Z</time></trkpt><trkpt lat="39.40134" lon="17.027435"><ele>87.0</ele><time>2026-03-29T09:17:20.031Z</time></trkpt><trkpt lat="39.4014367" lon="17.0274217"><ele>87.0</ele><time>2026-03-29T09:17:22.031Z</time></trkpt><trkpt lat="39.4014967" lon="17.0274917"><ele>85.16666666666667</ele><time>2026-03-29T09:17:24.031Z</time></trkpt><trkpt lat="39.4015383" lon="17.02763"><ele>83.33333333333333</ele><time>2026-03-29T09:17:26.031Z</time></trkpt><trkpt lat="39.4015733" lon="17.027715"><ele>81.5</ele><time>2026-03-29T09:17:27.031Z</time></trkpt><trkpt lat="39.401605" lon="17.0277967"><ele>79.66666666666666</ele><time>2026-03-29T09:17:28.031Z</time></trkpt><trkpt lat="39.4016333" lon="17.0278717"><ele>77.83333333333333</ele><time>2026-03-29T09:17:29.031Z</time></trkpt><trkpt lat="39.4017017" lon="17.0279533"><ele>76.0</ele><time>2026-03-29T09:17:31.031Z</time></trkpt><trkpt lat="39.4017717" lon="17.027945"><ele>76.0</ele><time>2026-03-29T09:17:33.031Z</time></trkpt><trkpt lat="39.401855" lon="17.027875"><ele>76.0</ele><time>2026-03-29T09:17:35.031Z</time></trkpt><trkpt lat="39.401905" lon="17.027825"><ele>76.0</ele><time>2026-03-29T09:17:36.031Z</time></trkpt><trkpt lat="39.401965" lon="17.0277733"><ele>76.0</ele><time>2026-03-29T09:17:37.031Z</time></trkpt><trkpt lat="39.402035" lon="17.02772"><ele>76.0</ele><time>2026-03-29T09:17:38.031Z</time></trkpt><trkpt lat="39.40211" lon="17.027665"><ele>76.0</ele><time>2026-03-29T09:17:39.031Z</time></trkpt><trkpt lat="39.40219" lon="17.02761"><ele>74.66666666666666</ele><time>2026-03-29T09:17:40.031Z</time></trkpt><trkpt lat="39.4022667" lon="17.0275467"><ele>73.33333333333333</ele><time>2026-03-29T09:17:41.031Z</time></trkpt><trkpt lat="39.402345" lon="17.0274817"><ele>72.0</ele><time>2026-03-29T09:17:42.031Z</time></trkpt><trkpt lat="39.402425" lon="17.0274167"><ele>70.66666666666667</ele><time>2026-03-29T09:17:43.031Z</time></trkpt><trkpt lat="39.4024917" lon="17.0273667"><ele>69.33333333333334</ele><time>2026-03-29T09:17:44.031Z</time></trkpt><trkpt lat="39.402555" lon="17.027315"><ele>68.0</ele><time>2026-03-29T09:17:45.031Z</time></trkpt><trkpt lat="39.4026183" lon="17.0272683"><ele>67.85714285714285</ele><time>2026-03-29T09:17:46.031Z</time></trkpt><trkpt lat="39.40268" lon="17.02722"><ele>67.71428571428571</ele><time>2026-03-29T09:17:47.031Z</time></trkpt><trkpt lat="39.402745" lon="17.0271883"><ele>67.57142857142857</ele><time>2026-03-29T09:17:48.031Z</time></trkpt><trkpt lat="39.4028133" lon="17.0271617"><ele>67.42857142857142</ele><time>2026-03-29T09:17:49.031Z</time></trkpt><trkpt lat="39.4028917" lon="17.027165"><ele>67.28571428571428</ele><time>2026-03-29T09:17:50.031Z</time></trkpt><trkpt lat="39.40297" lon="17.0272017"><ele>67.14285714285714</ele><time>2026-03-29T09:17:51.031Z</time></trkpt><trkpt lat="39.4030367" lon="17.0272433"><ele>67.0</ele><time>2026-03-29T09:17:52.031Z</time></trkpt><trkpt lat="39.4030933" lon="17.0272967"><ele>67.14285714285714</ele><time>2026-03-29T09:17:53.031Z</time></trkpt><trkpt lat="39.4031583" lon="17.0273567"><ele>67.28571428571428</ele><time>2026-03-29T09:17:54.031Z</time></trkpt><trkpt lat="39.40323" lon="17.0274067"><ele>67.42857142857142</ele><time>2026-03-29T09:17:55.03Z</time></trkpt><trkpt lat="39.4032967" lon="17.0274533"><ele>67.57142857142857</ele><time>2026-03-29T09:17:56.031Z</time></trkpt><trkpt lat="39.4033567" lon="17.0274983"><ele>67.71428571428571</ele><time>2026-03-29T09:17:57.031Z</time></trkpt><trkpt lat="39.403415" lon="17.0275533"><ele>67.85714285714285</ele><time>2026-03-29T09:17:58.031Z</time></trkpt><trkpt lat="39.40346" lon="17.0276167"><ele>68.0</ele><time>2026-03-29T09:17:59.031Z</time></trkpt><trkpt lat="39.4035033" lon="17.0277583"><ele>68.0</ele><time>2026-03-29T09:18:01.031Z</time></trkpt><trkpt lat="39.40352" lon="17.0278433"><ele>68.0</ele><time>2026-03-29T09:18:02.031Z</time></trkpt><trkpt lat="39.4035333" lon="17.0279333"><ele>68.0</ele><time>2026-03-29T09:18:03.031Z</time></trkpt><trkpt lat="39.4035467" lon="17.0280183"><ele>68.0</ele><time>2026-03-29T09:18:04.031Z</time></trkpt><trkpt lat="39.40357" lon="17.028145"><ele>68.0</ele><time>2026-03-29T09:18:06.031Z</time></trkpt><trkpt lat="39.4036083" lon="17.0282233"><ele>68.0</ele><time>2026-03-29T09:18:08.031Z</time></trkpt><trkpt lat="39.4036817" lon="17.0282067"><ele>68.0</ele><time>2026-03-29T09:18:10.031Z</time></trkpt><trkpt lat="39.4037367" lon="17.0281233"><ele>68.0</ele><time>2026-03-29T09:18:12.031Z</time></trkpt><trkpt lat="39.40376" lon="17.027985"><ele>68.0</ele><time>2026-03-29T09:18:14.031Z</time></trkpt><trkpt lat="39.403765" lon="17.0278933"><ele>68.0</ele><time>2026-03-29T09:18:15.031Z</time></trkpt><trkpt lat="39.4037467" lon="17.0278017"><ele>68.0</ele><time>2026-03-29T09:18:16.031Z</time></trkpt><trkpt lat="39.4037183" lon="17.0277117"><ele>68.0</ele><time>2026-03-29T09:18:17.031Z</time></trkpt><trkpt lat="39.403685" lon="17.0275683"><ele>68.6</ele><time>2026-03-29T09:18:19.031Z</time></trkpt><trkpt lat="39.4036983" lon="17.027475"><ele>69.19999999999999</ele><time>2026-03-29T09:18:21.031Z</time></trkpt><trkpt lat="39.40376" lon="17.0274083"><ele>69.8</ele><time>2026-03-29T09:18:24.031Z</time></trkpt><trkpt lat="39.4037617" lon="17.0272933"><ele>70.39999999999999</ele><time>2026-03-29T09:18:27.031Z</time></trkpt><trkpt lat="39.403675" lon="17.0271683"><ele>71.0</ele><time>2026-03-29T09:18:29.031Z</time></trkpt><trkpt lat="39.40362" lon="17.0270967"><ele>71.0</ele><time>2026-03-29T09:18:30.031Z</time></trkpt><trkpt lat="39.4035633" lon="17.0270283"><ele>71.0</ele><time>2026-03-29T09:18:31.031Z</time></trkpt><trkpt lat="39.40351" lon="17.0269667"><ele>71.0</ele><time>2026-03-29T09:18:32.031Z</time></trkpt><trkpt lat="39.4034567" lon="17.0269083"><ele>71.0</ele><time>2026-03-29T09:18:33.031Z</time></trkpt><trkpt lat="39.4034033" lon="17.0268533"><ele>71.0</ele><time>2026-03-29T09:18:34.031Z</time></trkpt><trkpt lat="39.4033433" lon="17.0267967"><ele>71.0</ele><time>2026-03-29T09:18:35.031Z</time></trkpt><trkpt lat="39.4032833" lon="17.0267367"><ele>71.0</ele><time>2026-03-29T09:18:36.031Z</time></trkpt><trkpt lat="39.4032217" lon="17.0266783"><ele>70.83333333333334</ele><time>2026-03-29T09:18:37.03Z</time></trkpt><trkpt lat="39.4031517" lon="17.0266167"><ele>70.66666666666667</ele><time>2026-03-29T09:18:38.031Z</time></trkpt><trkpt lat="39.4030817" lon="17.02655"><ele>70.5</ele><time>2026-03-29T09:18:39.031Z</time></trkpt><trkpt lat="39.4030117" lon="17.02648"><ele>70.33333333333333</ele><time>2026-03-29T09:18:40.031Z</time></trkpt><trkpt lat="39.4029467" lon="17.0263967"><ele>70.16666666666666</ele><time>2026-03-29T09:18:41.031Z</time></trkpt><trkpt lat="39.40289" lon="17.0263117"><ele>70.0</ele><time>2026-03-29T09:18:42.03Z</time></trkpt><trkpt lat="39.4028417" lon="17.0262233"><ele>70.0</ele><time>2026-03-29T09:18:43.031Z</time></trkpt><trkpt lat="39.4028" lon="17.026125"><ele>70.0</ele><time>2026-03-29T09:18:44.031Z</time></trkpt><trkpt lat="39.402765" lon="17.026025"><ele>70.0</ele><time>2026-03-29T09:18:45.031Z</time></trkpt><trkpt lat="39.4027283" lon="17.0259183"><ele>70.0</ele><time>2026-03-29T09:18:46.031Z</time></trkpt><trkpt lat="39.4026967" lon="17.0258183"><ele>70.0</ele><time>2026-03-29T09:18:47.031Z</time></trkpt><trkpt lat="39.402665" lon="17.0257167"><ele>70.0</ele><time>2026-03-29T09:18:48.031Z</time></trkpt><trkpt lat="39.40263" lon="17.0256083"><ele>70.8</ele><time>2026-03-29T09:18:49.03Z</time></trkpt><trkpt lat="39.4026" lon="17.0254917"><ele>71.6</ele><time>2026-03-29T09:18:50.031Z</time></trkpt><trkpt lat="39.4025683" lon="17.0253633"><ele>72.4</ele><time>2026-03-29T09:18:51.031Z</time></trkpt><trkpt lat="39.4025383" lon="17.0252317"><ele>73.2</ele><time>2026-03-29T09:18:52.031Z</time></trkpt><trkpt lat="39.4025133" lon="17.0250933"><ele>74.0</ele><time>2026-03-29T09:18:53.031Z</time></trkpt><trkpt lat="39.402485" lon="17.02496"><ele>75.0</ele><time>2026-03-29T09:18:54.031Z</time></trkpt><trkpt lat="39.40246" lon="17.0248383"><ele>76.0</ele><time>2026-03-29T09:18:55.031Z</time></trkpt><trkpt lat="39.402425" lon="17.024735"><ele>77.0</ele><time>2026-03-29T09:18:56.03Z</time></trkpt><trkpt lat="39.4023717" lon="17.0246467"><ele>78.0</ele><time>2026-03-29T09:18:57.031Z</time></trkpt><trkpt lat="39.4023183" lon="17.0245483"><ele>79.0</ele><time>2026-03-29T09:18:58.031Z</time></trkpt><trkpt lat="39.402255" lon="17.02445"><ele>79.0</ele><time>2026-03-29T09:18:59.03Z</time></trkpt><trkpt lat="39.4021833" lon="17.024345"><ele>79.0</ele><time>2026-03-29T09:19:00.03Z</time></trkpt><trkpt lat="39.40211" lon="17.0242333"><ele>79.0</ele><time>2026-03-29T09:19:01.031Z</time></trkpt><trkpt lat="39.40203" lon="17.024125"><ele>79.0</ele><time>2026-03-29T09:19:02.031Z</time></trkpt><trkpt lat="39.4019533" lon="17.0240317"><ele>79.0</ele><time>2026-03-29T09:19:03.031Z</time></trkpt><trkpt lat="39.40188" lon="17.023945"><ele>78.4</ele><time>2026-03-29T09:19:04.031Z</time></trkpt><trkpt lat="39.4018067" lon="17.0238583"><ele>77.80000000000001</ele><time>2026-03-29T09:19:05.031Z</time></trkpt><trkpt lat="39.4017367" lon="17.0237617"><ele>77.19999999999999</ele><time>2026-03-29T09:19:06.03Z</time></trkpt><trkpt lat="39.4016633" lon="17.0236767"><ele>76.6</ele><time>2026-03-29T09:19:07.031Z</time></trkpt><trkpt lat="39.4015867" lon="17.0235883"><ele>76.0</ele><time>2026-03-29T09:19:08.031Z</time></trkpt><trkpt lat="39.4015083" lon="17.0235183"><ele>76.0</ele><time>2026-03-29T09:19:09.03Z</time></trkpt><trkpt lat="39.4014283" lon="17.0234367"><ele>76.0</ele><time>2026-03-29T09:19:10.031Z</time></trkpt><trkpt lat="39.4013383" lon="17.02337"><ele>76.0</ele><time>2026-03-29T09:19:11.031Z</time></trkpt><trkpt lat="39.4012517" lon="17.0233167"><ele>76.0</ele><time>2026-03-29T09:19:12.031Z</time></trkpt><trkpt lat="39.4011683" lon="17.0232733"><ele>76.0</ele><time>2026-03-29T09:19:13.031Z</time></trkpt><trkpt lat="39.4010833" lon="17.02323"><ele>77.75</ele><time>2026-03-29T09:19:14.031Z</time></trkpt><trkpt lat="39.4009883" lon="17.0231783"><ele>79.5</ele><time>2026-03-29T09:19:15.03Z</time></trkpt><trkpt lat="39.40088" lon="17.02312"><ele>81.25</ele><time>2026-03-29T09:19:16.03Z</time></trkpt><trkpt lat="39.4007517" lon="17.0230517"><ele>83.0</ele><time>2026-03-29T09:19:17.031Z</time></trkpt><trkpt lat="39.4006167" lon="17.0229733"><ele>81.33333333333334</ele><time>2026-03-29T09:19:18.031Z</time></trkpt><trkpt lat="39.4004733" lon="17.0228733"><ele>79.66666666666667</ele><time>2026-03-29T09:19:19.031Z</time></trkpt><trkpt lat="39.40032" lon="17.022785"><ele>78.0</ele><time>2026-03-29T09:19:20.031Z</time></trkpt><trkpt lat="39.4001717" lon="17.0226883"><ele>78.0</ele><time>2026-03-29T09:19:21.031Z</time></trkpt><trkpt lat="39.4000417" lon="17.0225967"><ele>78.0</ele><time>2026-03-29T09:19:22.031Z</time></trkpt><trkpt lat="39.3999167" lon="17.0225017"><ele>78.0</ele><time>2026-03-29T09:19:23.031Z</time></trkpt><trkpt lat="39.399805" lon="17.0224183"><ele>78.0</ele><time>2026-03-29T09:19:24.031Z</time></trkpt><trkpt lat="39.39969" lon="17.0223317"><ele>78.5</ele><time>2026-03-29T09:19:25.031Z</time></trkpt><trkpt lat="39.3995817" lon="17.02224"><ele>79.0</ele><time>2026-03-29T09:19:26.031Z</time></trkpt><trkpt lat="39.3994783" lon="17.022145"><ele>79.5</ele><time>2026-03-29T09:19:27.03Z</time></trkpt><trkpt lat="39.399395" lon="17.0220633"><ele>80.0</ele><time>2026-03-29T09:19:28.031Z</time></trkpt><trkpt lat="39.399325" lon="17.0219833"><ele>80.0</ele><time>2026-03-29T09:19:29.03Z</time></trkpt><trkpt lat="39.3992733" lon="17.02188"><ele>80.0</ele><time>2026-03-29T09:19:30.031Z</time></trkpt><trkpt lat="39.399235" lon="17.0217567"><ele>80.0</ele><time>2026-03-29T09:19:31.031Z</time></trkpt><trkpt lat="39.3991983" lon="17.0216233"><ele>80.0</ele><time>2026-03-29T09:19:32.031Z</time></trkpt><trkpt lat="39.3991683" lon="17.021485"><ele>80.0</ele><time>2026-03-29T09:19:33.031Z</time></trkpt><trkpt lat="39.3991433" lon="17.0213333"><ele>80.4</ele><time>2026-03-29T09:19:34.03Z</time></trkpt><trkpt lat="39.399115" lon="17.0212017"><ele>80.8</ele><time>2026-03-29T09:19:35.031Z</time></trkpt><trkpt lat="39.3990817" lon="17.021065"><ele>81.19999999999999</ele><time>2026-03-29T09:19:36.03Z</time></trkpt><trkpt lat="39.3990433" lon="17.02094"><ele>81.6</ele><time>2026-03-29T09:19:37.03Z</time></trkpt><trkpt lat="39.39901" lon="17.0208167"><ele>82.0</ele><time>2026-03-29T09:19:38.031Z</time></trkpt><trkpt lat="39.3989917" lon="17.0206883"><ele>82.39999999999999</ele><time>2026-03-29T09:19:39.031Z</time></trkpt><trkpt lat="39.398975" lon="17.02056"><ele>82.8</ele><time>2026-03-29T09:19:40.031Z</time></trkpt><trkpt lat="39.3989617" lon="17.0204283"><ele>83.2</ele><time>2026-03-29T09:19:41.031Z</time></trkpt><trkpt lat="39.3989483" lon="17.0203"><ele>83.6</ele><time>2026-03-29T09:19:42.031Z</time></trkpt><trkpt lat="39.398925" lon="17.0201733"><ele>84.0</ele><time>2026-03-29T09:19:43.031Z</time></trkpt><trkpt lat="39.3988967" lon="17.02004"><ele>83.6</ele><time>2026-03-29T09:19:44.03Z</time></trkpt><trkpt lat="39.398875" lon="17.01991"><ele>83.2</ele><time>2026-03-29T09:19:45.031Z</time></trkpt><trkpt lat="39.39885" lon="17.0197817"><ele>82.8</ele><time>2026-03-29T09:19:46.031Z</time></trkpt><trkpt lat="39.3988117" lon="17.019655"><ele>82.39999999999999</ele><time>2026-03-29T09:19:47.031Z</time></trkpt><trkpt lat="39.39877" lon="17.0195317"><ele>82.0</ele><time>2026-03-29T09:19:48.031Z</time></trkpt><trkpt lat="39.39871" lon="17.0194133"><ele>82.0</ele><time>2026-03-29T09:19:49.031Z</time></trkpt><trkpt lat="39.3986317" lon="17.0192883"><ele>82.0</ele><time>2026-03-29T09:19:50.031Z</time></trkpt><trkpt lat="39.398545" lon="17.0191517"><ele>82.0</ele><time>2026-03-29T09:19:51.031Z</time></trkpt><trkpt lat="39.398445" lon="17.0190133"><ele>82.0</ele><time>2026-03-29T09:19:52.03Z</time></trkpt><trkpt lat="39.398345" lon="17.018895"><ele>83.5</ele><time>2026-03-29T09:19:53.03Z</time></trkpt><trkpt lat="39.3982483" lon="17.018775"><ele>85.0</ele><time>2026-03-29T09:19:54.031Z</time></trkpt><trkpt lat="39.3981583" lon="17.0186717"><ele>86.5</ele><time>2026-03-29T09:19:55.03Z</time></trkpt><trkpt lat="39.398065" lon="17.0185717"><ele>88.0</ele><time>2026-03-29T09:19:56.031Z</time></trkpt><trkpt lat="39.39798" lon="17.0184717"><ele>88.0</ele><time>2026-03-29T09:19:57.03Z</time></trkpt><trkpt lat="39.3978917" lon="17.0183883"><ele>88.0</ele><time>2026-03-29T09:19:58.031Z</time></trkpt><trkpt lat="39.3978117" lon="17.0183133"><ele>88.0</ele><time>2026-03-29T09:19:59.031Z</time></trkpt><trkpt lat="39.3977367" lon="17.01824"><ele>88.0</ele><time>2026-03-29T09:20:00.031Z</time></trkpt><trkpt lat="39.397655" lon="17.018165"><ele>88.0</ele><time>2026-03-29T09:20:01.031Z</time></trkpt><trkpt lat="39.3975733" lon="17.018085"><ele>90.0</ele><time>2026-03-29T09:20:02.031Z</time></trkpt><trkpt lat="39.39749" lon="17.0180017"><ele>92.0</ele><time>2026-03-29T09:20:03.031Z</time></trkpt><trkpt lat="39.3973983" lon="17.0179233"><ele>94.0</ele><time>2026-03-29T09:20:04.031Z</time></trkpt><trkpt lat="39.3973117" lon="17.0178583"><ele>96.0</ele><time>2026-03-29T09:20:05.031Z</time></trkpt><trkpt lat="39.39723" lon="17.0177867"><ele>98.0</ele><time>2026-03-29T09:20:06.031Z</time></trkpt><trkpt lat="39.39715" lon="17.017715"><ele>98.2</ele><time>2026-03-29T09:20:07.031Z</time></trkpt><trkpt lat="39.3970667" lon="17.01764"><ele>98.4</ele><time>2026-03-29T09:20:08.031Z</time></trkpt><trkpt lat="39.3969867" lon="17.0175683"><ele>98.60000000000001</ele><time>2026-03-29T09:20:09.031Z</time></trkpt><trkpt lat="39.39691" lon="17.0175017"><ele>98.80000000000001</ele><time>2026-03-29T09:20:10.031Z</time></trkpt><trkpt lat="39.3968367" lon="17.017435"><ele>99.0</ele><time>2026-03-29T09:20:11.03Z</time></trkpt><trkpt lat="39.39675" lon="17.0173833"><ele>100.2</ele><time>2026-03-29T09:20:12.031Z</time></trkpt><trkpt lat="39.3966567" lon="17.0173383"><ele>101.4</ele><time>2026-03-29T09:20:13.031Z</time></trkpt><trkpt lat="39.3965533" lon="17.0173"><ele>102.6</ele><time>2026-03-29T09:20:14.031Z</time></trkpt><trkpt lat="39.3964533" lon="17.0172567"><ele>103.8</ele><time>2026-03-29T09:20:15.031Z</time></trkpt><trkpt lat="39.3963583" lon="17.01722"><ele>105.0</ele><time>2026-03-29T09:20:16.031Z</time></trkpt><trkpt lat="39.3962733" lon="17.01718"><ele>105.0</ele><time>2026-03-29T09:20:17.031Z</time></trkpt><trkpt lat="39.3962083" lon="17.0171483"><ele>105.0</ele><time>2026-03-29T09:20:18.031Z</time></trkpt><trkpt lat="39.396125" lon="17.0171133"><ele>105.0</ele><time>2026-03-29T09:20:20.031Z</time></trkpt><trkpt lat="39.396045" lon="17.0170767"><ele>105.0</ele><time>2026-03-29T09:20:23.031Z</time></trkpt><trkpt lat="39.3959517" lon="17.017035"><ele>105.0</ele><time>2026-03-29T09:20:26.031Z</time></trkpt><trkpt lat="39.3958467" lon="17.0169933"><ele>105.0</ele><time>2026-03-29T09:20:28.031Z</time></trkpt><trkpt lat="39.395785" lon="17.01697"><ele>105.0</ele><time>2026-03-29T09:20:29.031Z</time></trkpt><trkpt lat="39.3957167" lon="17.0169467"><ele>105.0</ele><time>2026-03-29T09:20:30.031Z</time></trkpt><trkpt lat="39.39565" lon="17.0169267"><ele>105.0</ele><time>2026-03-29T09:20:31.031Z</time></trkpt><trkpt lat="39.395585" lon="17.016915"><ele>105.0</ele><time>2026-03-29T09:20:32.031Z</time></trkpt><trkpt lat="39.39551" lon="17.01689"><ele>105.0</ele><time>2026-03-29T09:20:33.03Z</time></trkpt><trkpt lat="39.395435" lon="17.016865"><ele>105.0</ele><time>2026-03-29T09:20:34.031Z</time></trkpt><trkpt lat="39.39536" lon="17.0168433"><ele>104.0</ele><time>2026-03-29T09:20:35.03Z</time></trkpt><trkpt lat="39.39528" lon="17.016825"><ele>103.0</ele><time>2026-03-29T09:20:36.031Z</time></trkpt><trkpt lat="39.3951967" lon="17.0168033"><ele>102.0</ele><time>2026-03-29T09:20:37.031Z</time></trkpt><trkpt lat="39.3951033" lon="17.016785"><ele>101.0</ele><time>2026-03-29T09:20:38.031Z</time></trkpt><trkpt lat="39.3950033" lon="17.0167517"><ele>100.0</ele><time>2026-03-29T09:20:39.03Z</time></trkpt><trkpt lat="39.394905" lon="17.0167217"><ele>100.0</ele><time>2026-03-29T09:20:40.031Z</time></trkpt><trkpt lat="39.3947983" lon="17.0166933"><ele>100.0</ele><time>2026-03-29T09:20:41.031Z</time></trkpt><trkpt lat="39.3947067" lon="17.0166617"><ele>100.0</ele><time>2026-03-29T09:20:42.031Z</time></trkpt><trkpt lat="39.394615" lon="17.01663"><ele>100.0</ele><time>2026-03-29T09:20:43.031Z</time></trkpt><trkpt lat="39.3945267" lon="17.01659"><ele>100.0</ele><time>2026-03-29T09:20:44.031Z</time></trkpt><trkpt lat="39.3944317" lon="17.01654"><ele>99.8</ele><time>2026-03-29T09:20:45.03Z</time></trkpt><trkpt lat="39.3943633" lon="17.016465"><ele>99.6</ele><time>2026-03-29T09:20:46.031Z</time></trkpt><trkpt lat="39.3943033" lon="17.0163717"><ele>99.4</ele><time>2026-03-29T09:20:47.031Z</time></trkpt><trkpt lat="39.3942633" lon="17.0162667"><ele>99.2</ele><time>2026-03-29T09:20:48.031Z</time></trkpt><trkpt lat="39.39423" lon="17.0161417"><ele>99.0</ele><time>2026-03-29T09:20:49.031Z</time></trkpt><trkpt lat="39.3941983" lon="17.01601"><ele>99.0</ele><time>2026-03-29T09:20:50.031Z</time></trkpt><trkpt lat="39.3941667" lon="17.0158767"><ele>99.0</ele><time>2026-03-29T09:20:51.031Z</time></trkpt><trkpt lat="39.3941117" lon="17.0157233"><ele>99.0</ele><time>2026-03-29T09:20:52.031Z</time></trkpt><trkpt lat="39.3940667" lon="17.0155783"><ele>99.0</ele><time>2026-03-29T09:20:53.031Z</time></trkpt><trkpt lat="39.394025" lon="17.0154333"><ele>99.0</ele><time>2026-03-29T09:20:54.031Z</time></trkpt><trkpt lat="39.393985" lon="17.0153067"><ele>99.0</ele><time>2026-03-29T09:20:55.031Z</time></trkpt><trkpt lat="39.3939433" lon="17.0151833"><ele>99.0</ele><time>2026-03-29T09:20:56.031Z</time></trkpt><trkpt lat="39.3939033" lon="17.0150583"><ele>99.0</ele><time>2026-03-29T09:20:57.031Z</time></trkpt><trkpt lat="39.3938583" lon="17.014935"><ele>99.0</ele><time>2026-03-29T09:20:58.031Z</time></trkpt><trkpt lat="39.39382" lon="17.0148283"><ele>99.0</ele><time>2026-03-29T09:20:59.03Z</time></trkpt><trkpt lat="39.3937683" lon="17.0147317"><ele>99.0</ele><time>2026-03-29T09:21:00.031Z</time></trkpt><trkpt lat="39.39372" lon="17.0146317"><ele>99.0</ele><time>2026-03-29T09:21:01.031Z</time></trkpt><trkpt lat="39.39367" lon="17.01453"><ele>99.0</ele><time>2026-03-29T09:21:02.031Z</time></trkpt><trkpt lat="39.393625" lon="17.0144283"><ele>99.0</ele><time>2026-03-29T09:21:03.031Z</time></trkpt><trkpt lat="39.39359" lon="17.01432"><ele>99.0</ele><time>2026-03-29T09:21:04.03Z</time></trkpt><trkpt lat="39.3935467" lon="17.0142233"><ele>99.0</ele><time>2026-03-29T09:21:05.031Z</time></trkpt><trkpt lat="39.3934983" lon="17.01412"><ele>99.0</ele><time>2026-03-29T09:21:06.031Z</time></trkpt><trkpt lat="39.3934483" lon="17.0140217"><ele>99.0</ele><time>2026-03-29T09:21:07.031Z</time></trkpt><trkpt lat="39.3934" lon="17.0139333"><ele>99.0</ele><time>2026-03-29T09:21:08.031Z</time></trkpt><trkpt lat="39.3933333" lon="17.0138567"><ele>99.0</ele><time>2026-03-29T09:21:09.031Z</time></trkpt><trkpt lat="39.3932567" lon="17.0137783"><ele>99.6</ele><time>2026-03-29T09:21:10.031Z</time></trkpt><trkpt lat="39.39319" lon="17.013705"><ele>100.2</ele><time>2026-03-29T09:21:11.031Z</time></trkpt><trkpt lat="39.3931233" lon="17.01362"><ele>100.8</ele><time>2026-03-29T09:21:12.031Z</time></trkpt><trkpt lat="39.39306" lon="17.01352"><ele>101.39999999999999</ele><time>2026-03-29T09:21:13.031Z</time></trkpt><trkpt lat="39.3929933" lon="17.01342"><ele>102.0</ele><time>2026-03-29T09:21:14.031Z</time></trkpt><trkpt lat="39.3929383" lon="17.013325"><ele>102.16666666666667</ele><time>2026-03-29T09:21:15.031Z</time></trkpt><trkpt lat="39.3928783" lon="17.0132283"><ele>102.33333333333334</ele><time>2026-03-29T09:21:16.031Z</time></trkpt><trkpt lat="39.392835" lon="17.01315"><ele>102.5</ele><time>2026-03-29T09:21:17.03Z</time></trkpt><trkpt lat="39.3927867" lon="17.0130733"><ele>102.66666666666667</ele><time>2026-03-29T09:21:18.031Z</time></trkpt><trkpt lat="39.39274" lon="17.0129983"><ele>102.83333333333334</ele><time>2026-03-29T09:21:19.031Z</time></trkpt><trkpt lat="39.3926917" lon="17.0129267"><ele>103.0</ele><time>2026-03-29T09:21:20.031Z</time></trkpt><trkpt lat="39.3926433" lon="17.01285"><ele>103.0</ele><time>2026-03-29T09:21:21.031Z</time></trkpt><trkpt lat="39.3925917" lon="17.0127567"><ele>103.0</ele><time>2026-03-29T09:21:22.031Z</time></trkpt><trkpt lat="39.3925433" lon="17.0126633"><ele>103.0</ele><time>2026-03-29T09:21:23.031Z</time></trkpt><trkpt lat="39.3924883" lon="17.0125733"><ele>103.0</ele><time>2026-03-29T09:21:24.03Z</time></trkpt><trkpt lat="39.39241" lon="17.0124833"><ele>103.0</ele><time>2026-03-29T09:21:26.03Z</time></trkpt><trkpt lat="39.3923483" lon="17.01241"><ele>104.2</ele><time>2026-03-29T09:21:45.031Z</time></trkpt><trkpt lat="39.3923717" lon="17.01231"><ele>105.4</ele><time>2026-03-29T09:21:47.031Z</time></trkpt><trkpt lat="39.3924267" lon="17.0122233"><ele>106.60000000000001</ele><time>2026-03-29T09:21:49.03Z</time></trkpt><trkpt lat="39.392495" lon="17.0121417"><ele>107.80000000000001</ele><time>2026-03-29T09:21:51.031Z</time></trkpt><trkpt lat="39.3926" lon="17.0120633"><ele>109.0</ele><time>2026-03-29T09:21:53.031Z</time></trkpt><trkpt lat="39.3927017" lon="17.0119883"><ele>109.0</ele><time>2026-03-29T09:21:55.031Z</time></trkpt><trkpt lat="39.3927533" lon="17.0119367"><ele>109.0</ele><time>2026-03-29T09:21:56.031Z</time></trkpt><trkpt lat="39.3928133" lon="17.0118867"><ele>109.0</ele><time>2026-03-29T09:21:57.031Z</time></trkpt><trkpt lat="39.39287" lon="17.011825"><ele>109.0</ele><time>2026-03-29T09:21:58.03Z</time></trkpt><trkpt lat="39.3929183" lon="17.0117583"><ele>109.0</ele><time>2026-03-29T09:21:59.031Z</time></trkpt><trkpt lat="39.39297" lon="17.0116867"><ele>109.0</ele><time>2026-03-29T09:22:00.031Z</time></trkpt><trkpt lat="39.393015" lon="17.0116183"><ele>109.0</ele><time>2026-03-29T09:22:01.031Z</time></trkpt><trkpt lat="39.3930617" lon="17.01154"><ele>110.50000000000001</ele><time>2026-03-29T09:22:02.031Z</time></trkpt><trkpt lat="39.393115" lon="17.0114517"><ele>112.0</ele><time>2026-03-29T09:22:03.03Z</time></trkpt><trkpt lat="39.3931617" lon="17.0113617"><ele>113.5</ele><time>2026-03-29T09:22:04.03Z</time></trkpt><trkpt lat="39.3932067" lon="17.0112667"><ele>115.0</ele><time>2026-03-29T09:22:05.03Z</time></trkpt><trkpt lat="39.39325" lon="17.0111783"><ele>116.50000000000001</ele><time>2026-03-29T09:22:06.03Z</time></trkpt><trkpt lat="39.3932867" lon="17.0110917"><ele>118.0</ele><time>2026-03-29T09:22:07.03Z</time></trkpt><trkpt lat="39.3933167" lon="17.0109983"><ele>118.0</ele><time>2026-03-29T09:22:08.03Z</time></trkpt><trkpt lat="39.3933233" lon="17.0109167"><ele>118.00000000000001</ele><time>2026-03-29T09:22:09.03Z</time></trkpt><trkpt lat="39.393355" lon="17.010775"><ele>118.00000000000001</ele><time>2026-03-29T09:22:11.03Z</time></trkpt><trkpt lat="39.39342" lon="17.0106483"><ele>118.0</ele><time>2026-03-29T09:22:13.03Z</time></trkpt><trkpt lat="39.393505" lon="17.0105317"><ele>118.0</ele><time>2026-03-29T09:22:15.03Z</time></trkpt><trkpt lat="39.3935467" lon="17.0104667"><ele>119.14285714285714</ele><time>2026-03-29T09:22:16.03Z</time></trkpt><trkpt lat="39.393595" lon="17.0103917"><ele>120.28571428571429</ele><time>2026-03-29T09:22:17.03Z</time></trkpt><trkpt lat="39.3936367" lon="17.0103083"><ele>121.42857142857143</ele><time>2026-03-29T09:22:18.03Z</time></trkpt><trkpt lat="39.3936767" lon="17.0102333"><ele>122.57142857142857</ele><time>2026-03-29T09:22:19.03Z</time></trkpt><trkpt lat="39.3937183" lon="17.010165"><ele>123.71428571428572</ele><time>2026-03-29T09:22:20.03Z</time></trkpt><trkpt lat="39.3937583" lon="17.0100967"><ele>124.85714285714286</ele><time>2026-03-29T09:22:21.03Z</time></trkpt><trkpt lat="39.3937983" lon="17.0100067"><ele>126.0</ele><time>2026-03-29T09:22:23.03Z</time></trkpt><trkpt lat="39.3938433" lon="17.0099233"><ele>127.5</ele><time>2026-03-29T09:22:26.03Z</time></trkpt><trkpt lat="39.393855" lon="17.0098383"><ele>129.0</ele><time>2026-03-29T09:22:28.03Z</time></trkpt><trkpt lat="39.393875" lon="17.0097467"><ele>130.5</ele><time>2026-03-29T09:22:30.029Z</time></trkpt><trkpt lat="39.3938883" lon="17.009635"><ele>132.0</ele><time>2026-03-29T09:22:32.029Z</time></trkpt><trkpt lat="39.3938933" lon="17.00952"><ele>133.5</ele><time>2026-03-29T09:22:34.029Z</time></trkpt><trkpt lat="39.3939117" lon="17.0094"><ele>135.0</ele><time>2026-03-29T09:22:36.03Z</time></trkpt><trkpt lat="39.3939417" lon="17.0092883"><ele>135.0</ele><time>2026-03-29T09:22:38.03Z</time></trkpt><trkpt lat="39.3939617" lon="17.0091683"><ele>135.0</ele><time>2026-03-29T09:22:40.029Z</time></trkpt><trkpt lat="39.3939717" lon="17.009025"><ele>135.0</ele><time>2026-03-29T09:22:42.03Z</time></trkpt><trkpt lat="39.3939733" lon="17.0089383"><ele>135.0</ele><time>2026-03-29T09:22:43.03Z</time></trkpt><trkpt lat="39.393985" lon="17.00885"><ele>135.0</ele><time>2026-03-29T09:22:44.03Z</time></trkpt><trkpt lat="39.394015" lon="17.00871"><ele>133.8</ele><time>2026-03-29T09:22:46.03Z</time></trkpt><trkpt lat="39.3940567" lon="17.0086183"><ele>132.6</ele><time>2026-03-29T09:22:48.03Z</time></trkpt><trkpt lat="39.3941" lon="17.0085017"><ele>131.4</ele><time>2026-03-29T09:22:50.03Z</time></trkpt><trkpt lat="39.39413" lon="17.00843"><ele>130.2</ele><time>2026-03-29T09:22:51.03Z</time></trkpt><trkpt lat="39.3942067" lon="17.0083383"><ele>129.0</ele><time>2026-03-29T09:22:53.03Z</time></trkpt><trkpt lat="39.39428" lon="17.0082183"><ele>129.0</ele><time>2026-03-29T09:22:55.029Z</time></trkpt><trkpt lat="39.3943233" lon="17.0081567"><ele>129.0</ele><time>2026-03-29T09:22:56.029Z</time></trkpt><trkpt lat="39.3944067" lon="17.0080617"><ele>129.0</ele><time>2026-03-29T09:22:58.03Z</time></trkpt><trkpt lat="39.3944917" lon="17.0079767"><ele>129.0</ele><time>2026-03-29T09:23:00.03Z</time></trkpt><trkpt lat="39.3945833" lon="17.00791"><ele>129.0</ele><time>2026-03-29T09:23:02.03Z</time></trkpt><trkpt lat="39.39468" lon="17.00783"><ele>129.0</ele><time>2026-03-29T09:23:04.03Z</time></trkpt><trkpt lat="39.39475" lon="17.0077183"><ele>129.0</ele><time>2026-03-29T09:23:06.03Z</time></trkpt><trkpt lat="39.3948133" lon="17.0075833"><ele>129.0</ele><time>2026-03-29T09:23:08.03Z</time></trkpt><trkpt lat="39.3948483" lon="17.00744"><ele>129.0</ele><time>2026-03-29T09:23:10.03Z</time></trkpt><trkpt lat="39.394845" lon="17.0072917"><ele>129.0</ele><time>2026-03-29T09:23:12.03Z</time></trkpt><trkpt lat="39.3948417" lon="17.00721"><ele>129.0</ele><time>2026-03-29T09:23:13.03Z</time></trkpt><trkpt lat="39.3948417" lon="17.0071283"><ele>129.0</ele><time>2026-03-29T09:23:14.03Z</time></trkpt><trkpt lat="39.3948283" lon="17.006975"><ele>129.0</ele><time>2026-03-29T09:23:16.029Z</time></trkpt><trkpt lat="39.3947867" lon="17.0069067"><ele>129.0</ele><time>2026-03-29T09:23:17.03Z</time></trkpt><trkpt lat="39.394745" lon="17.0068417"><ele>129.0</ele><time>2026-03-29T09:23:18.03Z</time></trkpt><trkpt lat="39.3946917" lon="17.00677"><ele>129.83333333333334</ele><time>2026-03-29T09:23:19.029Z</time></trkpt><trkpt lat="39.3946433" lon="17.0066967"><ele>130.66666666666666</ele><time>2026-03-29T09:23:20.03Z</time></trkpt><trkpt lat="39.3946067" lon="17.0066217"><ele>131.5</ele><time>2026-03-29T09:23:21.03Z</time></trkpt><trkpt lat="39.3945917" lon="17.0065417"><ele>132.33333333333331</ele><time>2026-03-29T09:23:22.03Z</time></trkpt><trkpt lat="39.394595" lon="17.006435"><ele>133.16666666666666</ele><time>2026-03-29T09:23:23.03Z</time></trkpt><trkpt lat="39.3946117" lon="17.0063217"><ele>134.0</ele><time>2026-03-29T09:23:24.03Z</time></trkpt><trkpt lat="39.3946267" lon="17.0062"><ele>133.4</ele><time>2026-03-29T09:23:25.03Z</time></trkpt><trkpt lat="39.394655" lon="17.0060833"><ele>132.8</ele><time>2026-03-29T09:23:26.03Z</time></trkpt><trkpt lat="39.3947117" lon="17.0059767"><ele>132.2</ele><time>2026-03-29T09:23:27.03Z</time></trkpt><trkpt lat="39.39478" lon="17.005885"><ele>131.6</ele><time>2026-03-29T09:23:28.029Z</time></trkpt><trkpt lat="39.39486" lon="17.00582"><ele>131.0</ele><time>2026-03-29T09:23:29.03Z</time></trkpt><trkpt lat="39.3949367" lon="17.005775"><ele>131.0</ele><time>2026-03-29T09:23:30.03Z</time></trkpt><trkpt lat="39.3950233" lon="17.00577"><ele>131.0</ele><time>2026-03-29T09:23:31.03Z</time></trkpt><trkpt lat="39.3951117" lon="17.0057683"><ele>131.0</ele><time>2026-03-29T09:23:32.03Z</time></trkpt><trkpt lat="39.3951883" lon="17.00576"><ele>131.0</ele><time>2026-03-29T09:23:33.029Z</time></trkpt><trkpt lat="39.3952567" lon="17.0057433"><ele>131.0</ele><time>2026-03-29T09:23:34.03Z</time></trkpt><trkpt lat="39.39533" lon="17.0056833"><ele>131.0</ele><time>2026-03-29T09:23:36.03Z</time></trkpt><trkpt lat="39.3953667" lon="17.0056067"><ele>131.0</ele><time>2026-03-29T09:23:39.03Z</time></trkpt><trkpt lat="39.39541" lon="17.0054983"><ele>131.0</ele><time>2026-03-29T09:23:42.03Z</time></trkpt><trkpt lat="39.39544" lon="17.0054117"><ele>131.0</ele><time>2026-03-29T09:23:45.03Z</time></trkpt><trkpt lat="39.3954167" lon="17.0053167"><ele>131.0</ele><time>2026-03-29T09:23:48.03Z</time></trkpt><trkpt lat="39.3953633" lon="17.005245"><ele>131.0</ele><time>2026-03-29T09:23:50.03Z</time></trkpt><trkpt lat="39.39529" lon="17.0051383"><ele>131.0</ele><time>2026-03-29T09:23:52.03Z</time></trkpt><trkpt lat="39.3952167" lon="17.0050267"><ele>131.5</ele><time>2026-03-29T09:23:54.029Z</time></trkpt><trkpt lat="39.395175" lon="17.0049333"><ele>132.0</ele><time>2026-03-29T09:23:56.03Z</time></trkpt><trkpt lat="39.3951283" lon="17.0048667"><ele>132.5</ele><time>2026-03-29T09:24:02.03Z</time></trkpt><trkpt lat="39.39509" lon="17.0047767"><ele>133.0</ele><time>2026-03-29T09:24:11.03Z</time></trkpt><trkpt lat="39.39507" lon="17.004695"><ele>133.5</ele><time>2026-03-29T09:24:16.03Z</time></trkpt><trkpt lat="39.3951017" lon="17.0045783"><ele>134.0</ele><time>2026-03-29T09:24:20.03Z</time></trkpt><trkpt lat="39.3951517" lon="17.0045117"><ele>134.0</ele><time>2026-03-29T09:24:22.03Z</time></trkpt><trkpt lat="39.3951883" lon="17.00443"><ele>134.0</ele><time>2026-03-29T09:24:25.029Z</time></trkpt><trkpt lat="39.395225" lon="17.0043583"><ele>134.0</ele><time>2026-03-29T09:24:28.03Z</time></trkpt><trkpt lat="39.3952533" lon="17.004275"><ele>134.0</ele><time>2026-03-29T09:24:41.029Z</time></trkpt><trkpt lat="39.395305" lon="17.00419"><ele>134.0</ele><time>2026-03-29T09:24:55.03Z</time></trkpt><trkpt lat="39.395325" lon="17.004095"><ele>134.0</ele><time>2026-03-29T09:24:57.03Z</time></trkpt><trkpt lat="39.3953467" lon="17.003955"><ele>135.0</ele><time>2026-03-29T09:24:59.03Z</time></trkpt><trkpt lat="39.3953417" lon="17.00382"><ele>136.0</ele><time>2026-03-29T09:25:01.03Z</time></trkpt><trkpt lat="39.3953367" lon="17.0037367"><ele>137.0</ele><time>2026-03-29T09:25:02.03Z</time></trkpt><trkpt lat="39.39533" lon="17.0035867"><ele>138.0</ele><time>2026-03-29T09:25:04.03Z</time></trkpt><trkpt lat="39.39534" lon="17.0035033"><ele>139.0</ele><time>2026-03-29T09:25:05.03Z</time></trkpt><trkpt lat="39.395375" lon="17.003355"><ele>139.0</ele><time>2026-03-29T09:25:07.029Z</time></trkpt><trkpt lat="39.3954467" lon="17.00323"><ele>139.0</ele><time>2026-03-29T09:25:09.03Z</time></trkpt><trkpt lat="39.3955617" lon="17.0031417"><ele>139.0</ele><time>2026-03-29T09:25:11.03Z</time></trkpt><trkpt lat="39.395625" lon="17.0030983"><ele>139.0</ele><time>2026-03-29T09:25:12.03Z</time></trkpt><trkpt lat="39.3956883" lon="17.0030267"><ele>139.0</ele><time>2026-03-29T09:25:13.03Z</time></trkpt><trkpt lat="39.39574" lon="17.0029383"><ele>139.0</ele><time>2026-03-29T09:25:14.03Z</time></trkpt><trkpt lat="39.395775" lon="17.0028467"><ele>139.0</ele><time>2026-03-29T09:25:15.03Z</time></trkpt><trkpt lat="39.3958133" lon="17.0027583"><ele>139.0</ele><time>2026-03-29T09:25:16.03Z</time></trkpt><trkpt lat="39.3958667" lon="17.002665"><ele>139.0</ele><time>2026-03-29T09:25:17.03Z</time></trkpt><trkpt lat="39.3959267" lon="17.002565"><ele>139.0</ele><time>2026-03-29T09:25:18.03Z</time></trkpt><trkpt lat="39.39598" lon="17.0024617"><ele>139.0</ele><time>2026-03-29T09:25:19.03Z</time></trkpt><trkpt lat="39.3960267" lon="17.0023633"><ele>139.5</ele><time>2026-03-29T09:25:20.03Z</time></trkpt><trkpt lat="39.39606" lon="17.0022717"><ele>140.0</ele><time>2026-03-29T09:25:21.029Z</time></trkpt><trkpt lat="39.3960833" lon="17.0021783"><ele>140.5</ele><time>2026-03-29T09:25:22.03Z</time></trkpt><trkpt lat="39.3960967" lon="17.0020933"><ele>141.0</ele><time>2026-03-29T09:25:23.03Z</time></trkpt><trkpt lat="39.3961067" lon="17.0019833"><ele>141.5</ele><time>2026-03-29T09:25:25.03Z</time></trkpt><trkpt lat="39.396155" lon="17.001905"><ele>142.0</ele><time>2026-03-29T09:25:30.03Z</time></trkpt><trkpt lat="39.39621" lon="17.00179"><ele>142.0</ele><time>2026-03-29T09:25:32.03Z</time></trkpt><trkpt lat="39.3962417" lon="17.0017083"><ele>142.0</ele><time>2026-03-29T09:25:33.03Z</time></trkpt><trkpt lat="39.3962783" lon="17.001615"><ele>142.0</ele><time>2026-03-29T09:25:34.03Z</time></trkpt><trkpt lat="39.3963133" lon="17.00152"><ele>142.0</ele><time>2026-03-29T09:25:35.03Z</time></trkpt><trkpt lat="39.3963417" lon="17.0014433"><ele>142.0</ele><time>2026-03-29T09:25:36.03Z</time></trkpt><trkpt lat="39.39636" lon="17.00136"><ele>142.0</ele><time>2026-03-29T09:25:37.03Z</time></trkpt><trkpt lat="39.3963917" lon="17.0012267"><ele>142.16666666666669</ele><time>2026-03-29T09:25:39.03Z</time></trkpt><trkpt lat="39.396385" lon="17.0011417"><ele>142.33333333333334</ele><time>2026-03-29T09:25:41.03Z</time></trkpt><trkpt lat="39.3963967" lon="17.0010517"><ele>142.5</ele><time>2026-03-29T09:25:43.029Z</time></trkpt><trkpt lat="39.3964217" lon="17.000955"><ele>142.66666666666666</ele><time>2026-03-29T09:25:45.03Z</time></trkpt><trkpt lat="39.39646" lon="17.000835"><ele>142.83333333333331</ele><time>2026-03-29T09:25:48.029Z</time></trkpt><trkpt lat="39.3964783" lon="17.000705"><ele>143.0</ele><time>2026-03-29T09:25:50.03Z</time></trkpt><trkpt lat="39.3965317" lon="17.0005917"><ele>143.0</ele><time>2026-03-29T09:25:52.03Z</time></trkpt><trkpt lat="39.396595" lon="17.0004767"><ele>143.0</ele><time>2026-03-29T09:25:54.03Z</time></trkpt><trkpt lat="39.3966517" lon="17.0003267"><ele>143.0</ele><time>2026-03-29T09:25:56.03Z</time></trkpt><trkpt lat="39.39666" lon="17.0001667"><ele>143.0</ele><time>2026-03-29T09:25:58.029Z</time></trkpt><trkpt lat="39.39665" lon="17.00008"><ele>143.0</ele><time>2026-03-29T09:25:59.03Z</time></trkpt><trkpt lat="39.396625" lon="17.000005"><ele>143.0</ele><time>2026-03-29T09:26:00.03Z</time></trkpt><trkpt lat="39.3965433" lon="16.999925"><ele>143.0</ele><time>2026-03-29T09:26:02.03Z</time></trkpt><trkpt lat="39.3964633" lon="16.9999483"><ele>143.0</ele><time>2026-03-29T09:26:04.03Z</time></trkpt><trkpt lat="39.3963617" lon="16.999965"><ele>143.0</ele><time>2026-03-29T09:26:06.029Z</time></trkpt><trkpt lat="39.3962767" lon="16.9999767"><ele>143.0</ele><time>2026-03-29T09:26:08.03Z</time></trkpt><trkpt lat="39.3962117" lon="17.00001"><ele>143.0</ele><time>2026-03-29T09:26:10.03Z</time></trkpt><trkpt lat="39.39614" lon="17.0000333"><ele>145.5</ele><time>2026-03-29T09:26:12.03Z</time></trkpt><trkpt lat="39.396055" lon="17.0000533"><ele>148.0</ele><time>2026-03-29T09:26:14.03Z</time></trkpt><trkpt lat="39.3959683" lon="17.00002"><ele>150.5</ele><time>2026-03-29T09:26:16.03Z</time></trkpt><trkpt lat="39.3958733" lon="16.999985"><ele>153.0</ele><time>2026-03-29T09:26:18.03Z</time></trkpt><trkpt lat="39.39579" lon="16.999985"><ele>155.5</ele><time>2026-03-29T09:26:20.03Z</time></trkpt><trkpt lat="39.3957083" lon="16.9999783"><ele>158.0</ele><time>2026-03-29T09:26:22.03Z</time></trkpt><trkpt lat="39.3956167" lon="16.9999783"><ele>158.0</ele><time>2026-03-29T09:26:24.03Z</time></trkpt><trkpt lat="39.3955133" lon="16.999975"><ele>158.0</ele><time>2026-03-29T09:26:26.03Z</time></trkpt><trkpt lat="39.3954083" lon="16.9999383"><ele>158.0</ele><time>2026-03-29T09:26:28.03Z</time></trkpt><trkpt lat="39.39532" lon="16.9999333"><ele>158.0</ele><time>2026-03-29T09:26:30.03Z</time></trkpt><trkpt lat="39.395235" lon="16.9999567"><ele>158.0</ele><time>2026-03-29T09:26:32.03Z</time></trkpt><trkpt lat="39.3951367" lon="16.9999767"><ele>161.0</ele><time>2026-03-29T09:26:34.03Z</time></trkpt><trkpt lat="39.3950317" lon="16.9999567"><ele>164.0</ele><time>2026-03-29T09:26:36.029Z</time></trkpt><trkpt lat="39.3949267" lon="16.9999183"><ele>167.0</ele><time>2026-03-29T09:26:38.03Z</time></trkpt><trkpt lat="39.3948183" lon="16.9998683"><ele>170.0</ele><time>2026-03-29T09:26:40.03Z</time></trkpt><trkpt lat="39.394735" lon="16.9998083"><ele>173.0</ele><time>2026-03-29T09:26:42.03Z</time></trkpt><trkpt lat="39.3946583" lon="16.9997267"><ele>175.0</ele><time>2026-03-29T09:26:44.03Z</time></trkpt><trkpt lat="39.3946133" lon="16.9996233"><ele>177.0</ele><time>2026-03-29T09:26:46.03Z</time></trkpt><trkpt lat="39.39458" lon="16.9994983"><ele>179.0</ele><time>2026-03-29T09:26:48.03Z</time></trkpt><trkpt lat="39.3945283" lon="16.999375"><ele>181.0</ele><time>2026-03-29T09:26:50.03Z</time></trkpt><trkpt lat="39.3944633" lon="16.9992517"><ele>183.0</ele><time>2026-03-29T09:26:52.029Z</time></trkpt><trkpt lat="39.3943717" lon="16.9991633"><ele>185.0</ele><time>2026-03-29T09:26:54.03Z</time></trkpt><trkpt lat="39.3942817" lon="16.9990683"><ele>187.0</ele><time>2026-03-29T09:26:56.03Z</time></trkpt><trkpt lat="39.3942083" lon="16.9989517"><ele>189.0</ele><time>2026-03-29T09:26:58.03Z</time></trkpt><trkpt lat="39.3941833" lon="16.9988717"><ele>191.0</ele><time>2026-03-29T09:26:59.029Z</time></trkpt><trkpt lat="39.39413" lon="16.9987317"><ele>193.0</ele><time>2026-03-29T09:27:01.03Z</time></trkpt><trkpt lat="39.3940567" lon="16.99863"><ele>192.99999999999997</ele><time>2026-03-29T09:27:03.03Z</time></trkpt><trkpt lat="39.3939633" lon="16.998595"><ele>193.0</ele><time>2026-03-29T09:27:05.03Z</time></trkpt><trkpt lat="39.3938717" lon="16.9985783"><ele>193.0</ele><time>2026-03-29T09:27:07.03Z</time></trkpt><trkpt lat="39.3937783" lon="16.9985717"><ele>193.0</ele><time>2026-03-29T09:27:09.03Z</time></trkpt><trkpt lat="39.3937117" lon="16.9985633"><ele>192.99999999999997</ele><time>2026-03-29T09:27:11.03Z</time></trkpt><trkpt lat="39.3936283" lon="16.99856"><ele>193.0</ele><time>2026-03-29T09:27:58.03Z</time></trkpt><trkpt lat="39.39357" lon="16.9985983"><ele>194.8</ele><time>2026-03-29T09:28:01.029Z</time></trkpt><trkpt lat="39.3935067" lon="16.9986267"><ele>196.60000000000002</ele><time>2026-03-29T09:28:04.03Z</time></trkpt><trkpt lat="39.3933983" lon="16.9986483"><ele>198.39999999999998</ele><time>2026-03-29T09:28:07.03Z</time></trkpt><trkpt lat="39.39329" lon="16.9986317"><ele>200.2</ele><time>2026-03-29T09:28:09.03Z</time></trkpt><trkpt lat="39.39318" lon="16.9985883"><ele>202.0</ele><time>2026-03-29T09:28:11.03Z</time></trkpt><trkpt lat="39.393075" lon="16.9985283"><ele>203.16666666666666</ele><time>2026-03-29T09:28:13.03Z</time></trkpt><trkpt lat="39.3929917" lon="16.9984917"><ele>204.33333333333331</ele><time>2026-03-29T09:28:15.03Z</time></trkpt><trkpt lat="39.39291" lon="16.9984817"><ele>205.5</ele><time>2026-03-29T09:28:17.03Z</time></trkpt><trkpt lat="39.39283" lon="16.9984933"><ele>206.66666666666669</ele><time>2026-03-29T09:28:19.03Z</time></trkpt><trkpt lat="39.3927517" lon="16.9985433"><ele>207.83333333333334</ele><time>2026-03-29T09:28:22.03Z</time></trkpt><trkpt lat="39.3926867" lon="16.9985833"><ele>209.0</ele><time>2026-03-29T09:28:25.029Z</time></trkpt><trkpt lat="39.39262" lon="16.9986167"><ele>209.00000000000003</ele><time>2026-03-29T09:28:27.03Z</time></trkpt><trkpt lat="39.3925333" lon="16.9986333"><ele>209.0</ele><time>2026-03-29T09:28:29.03Z</time></trkpt><trkpt lat="39.3924367" lon="16.9986233"><ele>209.0</ele><time>2026-03-29T09:28:31.03Z</time></trkpt><trkpt lat="39.3923617" lon="16.9986133"><ele>209.0</ele><time>2026-03-29T09:28:33.03Z</time></trkpt><trkpt lat="39.3922733" lon="16.998655"><ele>209.00000000000003</ele><time>2026-03-29T09:28:36.03Z</time></trkpt><trkpt lat="39.3922083" lon="16.9986883"><ele>209.0</ele><time>2026-03-29T09:28:38.03Z</time></trkpt><trkpt lat="39.3921267" lon="16.9986267"><ele>211.00000000000003</ele><time>2026-03-29T09:28:41.03Z</time></trkpt><trkpt lat="39.3920683" lon="16.9985533"><ele>213.0</ele><time>2026-03-29T09:28:43.03Z</time></trkpt><trkpt lat="39.3920017" lon="16.9984983"><ele>215.0</ele><time>2026-03-29T09:28:45.03Z</time></trkpt><trkpt lat="39.3919133" lon="16.9984533"><ele>217.0</ele><time>2026-03-29T09:28:53.029Z</time></trkpt><trkpt lat="39.39185" lon="16.9984067"><ele>219.00000000000003</ele><time>2026-03-29T09:28:56.03Z</time></trkpt><trkpt lat="39.391795" lon="16.99835"><ele>221.0</ele><time>2026-03-29T09:28:59.03Z</time></trkpt><trkpt lat="39.3917433" lon="16.9982983"><ele>221.0</ele><time>2026-03-29T09:29:01.03Z</time></trkpt><trkpt lat="39.3916717" lon="16.99822"><ele>221.00000000000003</ele><time>2026-03-29T09:29:03.03Z</time></trkpt><trkpt lat="39.3915683" lon="16.998145"><ele>221.00000000000003</ele><time>2026-03-29T09:29:05.029Z</time></trkpt><trkpt lat="39.391455" lon="16.9981033"><ele>221.0</ele><time>2026-03-29T09:29:07.03Z</time></trkpt><trkpt lat="39.3913417" lon="16.9980683"><ele>221.0</ele><time>2026-03-29T09:29:09.03Z</time></trkpt><trkpt lat="39.391245" lon="16.9980383"><ele>222.33333333333334</ele><time>2026-03-29T09:29:11.03Z</time></trkpt><trkpt lat="39.3911717" lon="16.9980083"><ele>223.66666666666669</ele><time>2026-03-29T09:29:13.03Z</time></trkpt><trkpt lat="39.3911083" lon="16.997965"><ele>225.0</ele><time>2026-03-29T09:29:15.03Z</time></trkpt><trkpt lat="39.391045" lon="16.9979167"><ele>226.33333333333331</ele><time>2026-03-29T09:29:20.029Z</time></trkpt><trkpt lat="39.3909733" lon="16.9978633"><ele>227.66666666666666</ele><time>2026-03-29T09:29:24.029Z</time></trkpt><trkpt lat="39.3908933" lon="16.997835"><ele>229.0</ele><time>2026-03-29T09:29:26.028Z</time></trkpt><trkpt lat="39.3908017" lon="16.997795"><ele>228.99999999999997</ele><time>2026-03-29T09:29:28.029Z</time></trkpt><trkpt lat="39.390705" lon="16.9977617"><ele>229.0</ele><time>2026-03-29T09:29:30.029Z</time></trkpt><trkpt lat="39.390605" lon="16.9977217"><ele>229.0</ele><time>2026-03-29T09:29:32.029Z</time></trkpt><trkpt lat="39.390535" lon="16.9976783"><ele>229.0</ele><time>2026-03-29T09:29:34.029Z</time></trkpt><trkpt lat="39.39047" lon="16.997635"><ele>228.99999999999997</ele><time>2026-03-29T09:29:36.029Z</time></trkpt><trkpt lat="39.3903867" lon="16.99758"><ele>229.0</ele><time>2026-03-29T09:29:42.029Z</time></trkpt><trkpt lat="39.39033" lon="16.9975333"><ele>228.66666666666666</ele><time>2026-03-29T09:29:44.029Z</time></trkpt><trkpt lat="39.3902817" lon="16.9974583"><ele>228.33333333333331</ele><time>2026-03-29T09:29:46.029Z</time></trkpt><trkpt lat="39.3902467" lon="16.997375"><ele>228.0</ele><time>2026-03-29T09:29:49.029Z</time></trkpt><trkpt lat="39.3902" lon="16.9972883"><ele>227.66666666666669</ele><time>2026-03-29T09:29:52.029Z</time></trkpt><trkpt lat="39.3901517" lon="16.9972"><ele>227.33333333333334</ele><time>2026-03-29T09:29:54.029Z</time></trkpt><trkpt lat="39.3900867" lon="16.9970933"><ele>227.0</ele><time>2026-03-29T09:29:56.029Z</time></trkpt><trkpt lat="39.390015" lon="16.9969917"><ele>227.00000000000003</ele><time>2026-03-29T09:29:58.029Z</time></trkpt><trkpt lat="39.3899433" lon="16.9968983"><ele>227.0</ele><time>2026-03-29T09:30:00.029Z</time></trkpt><trkpt lat="39.3898767" lon="16.9968033"><ele>227.0</ele><time>2026-03-29T09:30:02.029Z</time></trkpt><trkpt lat="39.3898183" lon="16.996735"><ele>227.0</ele><time>2026-03-29T09:30:04.029Z</time></trkpt><trkpt lat="39.3897667" lon="16.9966667"><ele>227.00000000000003</ele><time>2026-03-29T09:30:06.029Z</time></trkpt><trkpt lat="39.3897117" lon="16.9965833"><ele>227.0</ele><time>2026-03-29T09:30:08.029Z</time></trkpt><trkpt lat="39.389645" lon="16.9965117"><ele>228.00000000000003</ele><time>2026-03-29T09:30:10.029Z</time></trkpt><trkpt lat="39.3895767" lon="16.9964517"><ele>229.0</ele><time>2026-03-29T09:30:12.029Z</time></trkpt><trkpt lat="39.3895067" lon="16.9963833"><ele>230.0</ele><time>2026-03-29T09:30:14.029Z</time></trkpt><trkpt lat="39.3894367" lon="16.99631"><ele>231.0</ele><time>2026-03-29T09:30:16.029Z</time></trkpt><trkpt lat="39.389375" lon="16.9962517"><ele>232.00000000000003</ele><time>2026-03-29T09:30:18.029Z</time></trkpt><trkpt lat="39.3893283" lon="16.9961867"><ele>233.0</ele><time>2026-03-29T09:30:20.029Z</time></trkpt><trkpt lat="39.3892667" lon="16.9961083"><ele>233.0</ele><time>2026-03-29T09:30:22.029Z</time></trkpt><trkpt lat="39.3892217" lon="16.9959933"><ele>233.0</ele><time>2026-03-29T09:30:24.029Z</time></trkpt><trkpt lat="39.389175" lon="16.9958583"><ele>233.0</ele><time>2026-03-29T09:30:26.029Z</time></trkpt><trkpt lat="39.3891333" lon="16.9957233"><ele>233.0</ele><time>2026-03-29T09:30:28.029Z</time></trkpt><trkpt lat="39.38908" lon="16.9956133"><ele>233.0</ele><time>2026-03-29T09:30:30.028Z</time></trkpt><trkpt lat="39.38902" lon="16.99553"><ele>232.50000000000003</ele><time>2026-03-29T09:30:32.028Z</time></trkpt><trkpt lat="39.388975" lon="16.9954267"><ele>232.0</ele><time>2026-03-29T09:30:34.029Z</time></trkpt><trkpt lat="39.388915" lon="16.995275"><ele>231.5</ele><time>2026-03-29T09:30:36.029Z</time></trkpt><trkpt lat="39.3888817" lon="16.9951883"><ele>231.0</ele><time>2026-03-29T09:30:37.029Z</time></trkpt><trkpt lat="39.3888517" lon="16.995105"><ele>230.50000000000003</ele><time>2026-03-29T09:30:38.029Z</time></trkpt><trkpt lat="39.3888167" lon="16.9950217"><ele>230.0</ele><time>2026-03-29T09:30:39.029Z</time></trkpt><trkpt lat="39.3887817" lon="16.9949333"><ele>228.8</ele><time>2026-03-29T09:30:40.029Z</time></trkpt><trkpt lat="39.3887517" lon="16.994855"><ele>227.6</ele><time>2026-03-29T09:30:41.029Z</time></trkpt><trkpt lat="39.3886917" lon="16.99471"><ele>226.39999999999998</ele><time>2026-03-29T09:30:43.029Z</time></trkpt><trkpt lat="39.3886233" lon="16.9945733"><ele>225.2</ele><time>2026-03-29T09:30:45.029Z</time></trkpt><trkpt lat="39.3885883" lon="16.9945017"><ele>224.0</ele><time>2026-03-29T09:30:46.029Z</time></trkpt><trkpt lat="39.3885633" lon="16.99442"><ele>224.00000000000003</ele><time>2026-03-29T09:30:47.029Z</time></trkpt><trkpt lat="39.3885417" lon="16.9943433"><ele>224.0</ele><time>2026-03-29T09:30:48.029Z</time></trkpt><trkpt lat="39.388515" lon="16.994195"><ele>224.0</ele><time>2026-03-29T09:30:50.029Z</time></trkpt><trkpt lat="39.388505" lon="16.99411"><ele>224.0</ele><time>2026-03-29T09:30:51.029Z</time></trkpt><trkpt lat="39.38848" lon="16.993945"><ele>224.00000000000003</ele><time>2026-03-29T09:30:53.028Z</time></trkpt><trkpt lat="39.388455" lon="16.9938583"><ele>224.0</ele><time>2026-03-29T09:30:54.029Z</time></trkpt><trkpt lat="39.3884117" lon="16.9937083"><ele>223.6</ele><time>2026-03-29T09:30:56.029Z</time></trkpt><trkpt lat="39.3883933" lon="16.9935917"><ele>223.2</ele><time>2026-03-29T09:30:58.029Z</time></trkpt><trkpt lat="39.3884117" lon="16.99349"><ele>222.79999999999998</ele><time>2026-03-29T09:31:41.028Z</time></trkpt><trkpt lat="39.3884233" lon="16.9933783"><ele>222.39999999999998</ele><time>2026-03-29T09:31:43.029Z</time></trkpt><trkpt lat="39.38842" lon="16.993235"><ele>222.0</ele><time>2026-03-29T09:31:45.029Z</time></trkpt><trkpt lat="39.3884167" lon="16.9930733"><ele>222.0</ele><time>2026-03-29T09:31:47.029Z</time></trkpt><trkpt lat="39.3884167" lon="16.9929867"><ele>222.0</ele><time>2026-03-29T09:31:48.029Z</time></trkpt><trkpt lat="39.3884167" lon="16.99289"><ele>222.0</ele><time>2026-03-29T09:31:49.029Z</time></trkpt><trkpt lat="39.3884083" lon="16.992795"><ele>222.0</ele><time>2026-03-29T09:31:50.029Z</time></trkpt><trkpt lat="39.3884067" lon="16.9927033"><ele>222.0</ele><time>2026-03-29T09:31:51.029Z</time></trkpt><trkpt lat="39.3884067" lon="16.992615"><ele>222.0</ele><time>2026-03-29T09:31:52.029Z</time></trkpt><trkpt lat="39.3884133" lon="16.992525"><ele>222.0</ele><time>2026-03-29T09:31:53.028Z</time></trkpt><trkpt lat="39.38841" lon="16.99244"><ele>222.5</ele><time>2026-03-29T09:31:54.029Z</time></trkpt><trkpt lat="39.3884033" lon="16.992355"><ele>223.0</ele><time>2026-03-29T09:31:55.029Z</time></trkpt><trkpt lat="39.3883833" lon="16.99219"><ele>223.5</ele><time>2026-03-29T09:31:57.029Z</time></trkpt><trkpt lat="39.38838" lon="16.9921067"><ele>224.0</ele><time>2026-03-29T09:31:58.029Z</time></trkpt><trkpt lat="39.3883833" lon="16.99202"><ele>224.5</ele><time>2026-03-29T09:31:59.029Z</time></trkpt><trkpt lat="39.3883883" lon="16.9919383"><ele>225.0</ele><time>2026-03-29T09:32:00.029Z</time></trkpt><trkpt lat="39.388395" lon="16.991855"><ele>225.0</ele><time>2026-03-29T09:32:01.029Z</time></trkpt><trkpt lat="39.3884017" lon="16.9917233"><ele>225.0</ele><time>2026-03-29T09:32:03.028Z</time></trkpt><trkpt lat="39.38839" lon="16.991595"><ele>225.0</ele><time>2026-03-29T09:32:05.029Z</time></trkpt><trkpt lat="39.3883683" lon="16.9914717"><ele>225.0</ele><time>2026-03-29T09:32:07.028Z</time></trkpt><trkpt lat="39.3883683" lon="16.9913467"><ele>225.0</ele><time>2026-03-29T09:32:09.029Z</time></trkpt><trkpt lat="39.3883817" lon="16.9912317"><ele>224.83333333333334</ele><time>2026-03-29T09:32:11.029Z</time></trkpt><trkpt lat="39.3883467" lon="16.99113"><ele>224.66666666666669</ele><time>2026-03-29T09:32:20.028Z</time></trkpt><trkpt lat="39.3882983" lon="16.991055"><ele>224.5</ele><time>2026-03-29T09:32:22.029Z</time></trkpt><trkpt lat="39.3882617" lon="16.990975"><ele>224.33333333333334</ele><time>2026-03-29T09:32:24.029Z</time></trkpt><trkpt lat="39.3882517" lon="16.990885"><ele>224.16666666666669</ele><time>2026-03-29T09:32:26.029Z</time></trkpt><trkpt lat="39.3882421" lon="16.9907695"><ele>224.0</ele><time>2026-03-29T09:32:29.029Z</time></trkpt><trkpt lat="39.3882286" lon="16.9906782"><ele>225.50000000000003</ele><time>2026-03-29T09:32:32.029Z</time></trkpt><trkpt lat="39.3882143" lon="16.9905757"><ele>227.0</ele><time>2026-03-29T09:32:35.029Z</time></trkpt><trkpt lat="39.3882002" lon="16.9904957"><ele>228.5</ele><time>2026-03-29T09:32:37.029Z</time></trkpt><trkpt lat="39.3881679" lon="16.9903814"><ele>230.0</ele><time>2026-03-29T09:32:40.029Z</time></trkpt><trkpt lat="39.3881383" lon="16.9902754"><ele>231.50000000000003</ele><time>2026-03-29T09:32:43.028Z</time></trkpt><trkpt lat="39.3881349" lon="16.9901524"><ele>233.0</ele><time>2026-03-29T09:32:46.029Z</time></trkpt><trkpt lat="39.3881481" lon="16.9900586"><ele>234.66666666666669</ele><time>2026-03-29T09:32:48.029Z</time></trkpt><trkpt lat="39.3881395" lon="16.9899647"><ele>236.33333333333334</ele><time>2026-03-29T09:32:57.029Z</time></trkpt><trkpt lat="39.3881584" lon="16.9898425"><ele>238.0</ele><time>2026-03-29T09:32:59.029Z</time></trkpt><trkpt lat="39.3881764" lon="16.9896752"><ele>239.66666666666669</ele><time>2026-03-29T09:33:01.029Z</time></trkpt><trkpt lat="39.3881861" lon="16.9895814"><ele>241.33333333333334</ele><time>2026-03-29T09:33:02.029Z</time></trkpt><trkpt lat="39.3881948" lon="16.9894853"><ele>243.0</ele><time>2026-03-29T09:33:03.028Z</time></trkpt><trkpt lat="39.3882073" lon="16.9893903"><ele>243.0</ele><time>2026-03-29T09:33:04.029Z</time></trkpt><trkpt lat="39.3882214" lon="16.989293"><ele>243.0</ele><time>2026-03-29T09:33:05.028Z</time></trkpt><trkpt lat="39.3882305" lon="16.989197"><ele>243.0</ele><time>2026-03-29T09:33:06.029Z</time></trkpt><trkpt lat="39.3882401" lon="16.9891019"><ele>243.0</ele><time>2026-03-29T09:33:07.029Z</time></trkpt><trkpt lat="39.3882502" lon="16.9890159"><ele>243.0</ele><time>2026-03-29T09:33:08.028Z</time></trkpt><trkpt lat="39.3882684" lon="16.9889372"><ele>243.0</ele><time>2026-03-29T09:33:09.029Z</time></trkpt><trkpt lat="39.3883149" lon="16.9887948"><ele>244.60000000000002</ele><time>2026-03-29T09:33:11.029Z</time></trkpt><trkpt lat="39.388366" lon="16.9886412"><ele>246.20000000000002</ele><time>2026-03-29T09:33:13.029Z</time></trkpt><trkpt lat="39.3883919" lon="16.9885612"><ele>247.8</ele><time>2026-03-29T09:33:14.029Z</time></trkpt><trkpt lat="39.3884354" lon="16.9884154"><ele>249.4</ele><time>2026-03-29T09:33:16.028Z</time></trkpt><trkpt lat="39.3884828" lon="16.9882676"><ele>251.0</ele><time>2026-03-29T09:33:18.029Z</time></trkpt><trkpt lat="39.3885133" lon="16.9881851"><ele>252.1428571428571</ele><time>2026-03-29T09:33:19.029Z</time></trkpt><trkpt lat="39.3885478" lon="16.9881042"><ele>253.28571428571428</ele><time>2026-03-29T09:33:20.029Z</time></trkpt><trkpt lat="39.3885874" lon="16.988027"><ele>254.42857142857142</ele><time>2026-03-29T09:33:21.029Z</time></trkpt><trkpt lat="39.3886276" lon="16.9879501"><ele>255.57142857142856</ele><time>2026-03-29T09:33:22.029Z</time></trkpt><trkpt lat="39.3886555" lon="16.9878628"><ele>256.7142857142857</ele><time>2026-03-29T09:33:23.028Z</time></trkpt><trkpt lat="39.3886644" lon="16.9877651"><ele>257.85714285714283</ele><time>2026-03-29T09:33:24.029Z</time></trkpt><trkpt lat="39.388655" lon="16.9876739"><ele>259.0</ele><time>2026-03-29T09:33:25.029Z</time></trkpt><trkpt lat="39.3886373" lon="16.987595"><ele>259.0</ele><time>2026-03-29T09:33:26.029Z</time></trkpt><trkpt lat="39.3886132" lon="16.9875197"><ele>259.0</ele><time>2026-03-29T09:33:27.029Z</time></trkpt><trkpt lat="39.3885575" lon="16.9873888"><ele>259.0</ele><time>2026-03-29T09:33:29.029Z</time></trkpt><trkpt lat="39.3885145" lon="16.9872736"><ele>259.0</ele><time>2026-03-29T09:33:31.028Z</time></trkpt><trkpt lat="39.3884834" lon="16.987161"><ele>259.0</ele><time>2026-03-29T09:33:33.029Z</time></trkpt><trkpt lat="39.3884629" lon="16.9870519"><ele>260.16666666666663</ele><time>2026-03-29T09:33:35.029Z</time></trkpt><trkpt lat="39.3884364" lon="16.9869428"><ele>261.3333333333333</ele><time>2026-03-29T09:33:37.029Z</time></trkpt><trkpt lat="39.3884239" lon="16.986855"><ele>262.5</ele><time>2026-03-29T09:33:39.029Z</time></trkpt><trkpt lat="39.3884085" lon="16.9867712"><ele>263.6666666666667</ele><time>2026-03-29T09:33:42.029Z</time></trkpt><trkpt lat="39.3884053" lon="16.9866601"><ele>264.83333333333337</ele><time>2026-03-29T09:33:45.029Z</time></trkpt><trkpt lat="39.388393" lon="16.986557"><ele>266.0</ele><time>2026-03-29T09:33:47.028Z</time></trkpt><trkpt lat="39.3883976" lon="16.986455"><ele>266.2</ele><time>2026-03-29T09:33:49.029Z</time></trkpt><trkpt lat="39.3884125" lon="16.9863499"><ele>266.40000000000003</ele><time>2026-03-29T09:33:51.029Z</time></trkpt><trkpt lat="39.3884211" lon="16.9862203"><ele>266.6</ele><time>2026-03-29T09:33:53.029Z</time></trkpt><trkpt lat="39.3884228" lon="16.9860938"><ele>266.8</ele><time>2026-03-29T09:33:55.029Z</time></trkpt><trkpt lat="39.3884148" lon="16.9859657"><ele>267.0</ele><time>2026-03-29T09:33:57.029Z</time></trkpt><trkpt lat="39.3884005" lon="16.9858208"><ele>267.6666666666667</ele><time>2026-03-29T09:33:59.029Z</time></trkpt><trkpt lat="39.3883893" lon="16.9856553"><ele>268.3333333333333</ele><time>2026-03-29T09:34:01.029Z</time></trkpt><trkpt lat="39.38838" lon="16.985574"><ele>269.0</ele><time>2026-03-29T09:34:02.029Z</time></trkpt><trkpt lat="39.3883715" lon="16.9854921"><ele>269.66666666666663</ele><time>2026-03-29T09:34:03.029Z</time></trkpt><trkpt lat="39.3883581" lon="16.985411"><ele>270.3333333333333</ele><time>2026-03-29T09:34:04.029Z</time></trkpt><trkpt lat="39.3883354" lon="16.9852594"><ele>271.0</ele><time>2026-03-29T09:34:06.029Z</time></trkpt><trkpt lat="39.3883173" lon="16.9851257"><ele>271.0</ele><time>2026-03-29T09:34:08.029Z</time></trkpt><trkpt lat="39.38831" lon="16.9850217"><ele>271.0</ele><time>2026-03-29T09:34:10.029Z</time></trkpt><trkpt lat="39.3883067" lon="16.9849333"><ele>271.0</ele><time>2026-03-29T09:34:12.029Z</time></trkpt><trkpt lat="39.38837" lon="16.984825"><ele>271.0</ele><time>2026-03-29T09:34:15.029Z</time></trkpt><trkpt lat="39.3884467" lon="16.9847383"><ele>271.0</ele><time>2026-03-29T09:34:17.029Z</time></trkpt><trkpt lat="39.3885233" lon="16.984645"><ele>271.0</ele><time>2026-03-29T09:34:19.029Z</time></trkpt><trkpt lat="39.3885767" lon="16.9845633"><ele>271.0</ele><time>2026-03-29T09:34:21.028Z</time></trkpt><trkpt lat="39.3886133" lon="16.9844767"><ele>271.0</ele><time>2026-03-29T09:34:23.028Z</time></trkpt><trkpt lat="39.3886417" lon="16.9843817"><ele>271.0</ele><time>2026-03-29T09:34:25.028Z</time></trkpt><trkpt lat="39.38867" lon="16.9842967"><ele>271.0</ele><time>2026-03-29T09:34:27.029Z</time></trkpt><trkpt lat="39.388695" lon="16.9842183"><ele>271.0</ele><time>2026-03-29T09:34:29.029Z</time></trkpt><trkpt lat="39.3887333" lon="16.9841267"><ele>271.0</ele><time>2026-03-29T09:34:31.028Z</time></trkpt><trkpt lat="39.38878" lon="16.9840317"><ele>271.0</ele><time>2026-03-29T09:34:33.029Z</time></trkpt><trkpt lat="39.388835" lon="16.9839233"><ele>271.0</ele><time>2026-03-29T09:34:35.029Z</time></trkpt><trkpt lat="39.3888733" lon="16.983815"><ele>271.0</ele><time>2026-03-29T09:34:37.029Z</time></trkpt><trkpt lat="39.3889167" lon="16.9837083"><ele>271.0</ele><time>2026-03-29T09:34:39.029Z</time></trkpt><trkpt lat="39.3889883" lon="16.9835733"><ele>267.5</ele><time>2026-03-29T09:34:41.029Z</time></trkpt><trkpt lat="39.3890617" lon="16.98345"><ele>264.0</ele><time>2026-03-29T09:34:43.029Z</time></trkpt><trkpt lat="39.38914" lon="16.98335"><ele>260.5</ele><time>2026-03-29T09:34:45.028Z</time></trkpt><trkpt lat="39.389205" lon="16.983235"><ele>257.0</ele><time>2026-03-29T09:34:47.028Z</time></trkpt><trkpt lat="39.3892467" lon="16.9831"><ele>257.0</ele><time>2026-03-29T09:34:49.029Z</time></trkpt><trkpt lat="39.3892683" lon="16.98302"><ele>257.0</ele><time>2026-03-29T09:34:50.029Z</time></trkpt><trkpt lat="39.3892833" lon="16.98293"><ele>257.0</ele><time>2026-03-29T09:34:51.029Z</time></trkpt><trkpt lat="39.389295" lon="16.9828417"><ele>257.0</ele><time>2026-03-29T09:34:52.029Z</time></trkpt><trkpt lat="39.3893017" lon="16.9827567"><ele>257.0</ele><time>2026-03-29T09:34:53.028Z</time></trkpt><trkpt lat="39.3893083" lon="16.9826733"><ele>257.0</ele><time>2026-03-29T09:34:54.029Z</time></trkpt><trkpt lat="39.3893283" lon="16.9825817"><ele>257.0</ele><time>2026-03-29T09:34:55.029Z</time></trkpt><trkpt lat="39.389355" lon="16.9824933"><ele>257.8</ele><time>2026-03-29T09:34:56.029Z</time></trkpt><trkpt lat="39.3893917" lon="16.98242"><ele>258.6</ele><time>2026-03-29T09:34:57.029Z</time></trkpt><trkpt lat="39.3894433" lon="16.9822767"><ele>259.40000000000003</ele><time>2026-03-29T09:34:59.028Z</time></trkpt><trkpt lat="39.3894833" lon="16.9821367"><ele>260.2</ele><time>2026-03-29T09:35:01.029Z</time></trkpt><trkpt lat="39.3895333" lon="16.982035"><ele>261.0</ele><time>2026-03-29T09:35:03.028Z</time></trkpt><trkpt lat="39.389545" lon="16.9819467"><ele>261.0</ele><time>2026-03-29T09:35:05.029Z</time></trkpt><trkpt lat="39.389525" lon="16.9818317"><ele>261.0</ele><time>2026-03-29T09:35:08.029Z</time></trkpt><trkpt lat="39.3895" lon="16.9817533"><ele>261.0</ele><time>2026-03-29T09:35:11.029Z</time></trkpt><trkpt lat="39.3894933" lon="16.9816267"><ele>261.0</ele><time>2026-03-29T09:35:14.029Z</time></trkpt><trkpt lat="39.38953" lon="16.9815067"><ele>261.0</ele><time>2026-03-29T09:35:16.029Z</time></trkpt><trkpt lat="39.38958" lon="16.9813817"><ele>262.40000000000003</ele><time>2026-03-29T09:35:18.029Z</time></trkpt><trkpt lat="39.3896233" lon="16.9812667"><ele>263.8</ele><time>2026-03-29T09:35:20.029Z</time></trkpt><trkpt lat="39.3896967" lon="16.9811767"><ele>265.20000000000005</ele><time>2026-03-29T09:35:22.029Z</time></trkpt><trkpt lat="39.3897517" lon="16.98106"><ele>266.6</ele><time>2026-03-29T09:35:24.029Z</time></trkpt><trkpt lat="39.389745" lon="16.9809067"><ele>268.0</ele><time>2026-03-29T09:35:26.029Z</time></trkpt><trkpt lat="39.389655" lon="16.98081"><ele>270.66666666666663</ele><time>2026-03-29T09:35:28.028Z</time></trkpt><trkpt lat="39.389545" lon="16.9807867"><ele>273.3333333333333</ele><time>2026-03-29T09:35:30.029Z</time></trkpt><trkpt lat="39.3894567" lon="16.9807567"><ele>276.0</ele><time>2026-03-29T09:35:32.029Z</time></trkpt><trkpt lat="39.38938" lon="16.98067"><ele>278.6666666666667</ele><time>2026-03-29T09:35:34.029Z</time></trkpt><trkpt lat="39.3893467" lon="16.9806"><ele>281.33333333333337</ele><time>2026-03-29T09:35:35.029Z</time></trkpt><trkpt lat="39.3893083" lon="16.9805283"><ele>284.0</ele><time>2026-03-29T09:35:36.028Z</time></trkpt><trkpt lat="39.38921" lon="16.9804383"><ele>284.0</ele><time>2026-03-29T09:35:38.029Z</time></trkpt><trkpt lat="39.3891483" lon="16.9804167"><ele>284.0</ele><time>2026-03-29T09:35:39.029Z</time></trkpt><trkpt lat="39.389085" lon="16.9804"><ele>284.0</ele><time>2026-03-29T09:35:40.029Z</time></trkpt><trkpt lat="39.3890167" lon="16.9803883"><ele>284.0</ele><time>2026-03-29T09:35:41.029Z</time></trkpt><trkpt lat="39.38895" lon="16.9803683"><ele>284.0</ele><time>2026-03-29T09:35:42.029Z</time></trkpt><trkpt lat="39.38888" lon="16.9803433"><ele>284.0</ele><time>2026-03-29T09:35:43.029Z</time></trkpt><trkpt lat="39.388815" lon="16.9803067"><ele>284.0</ele><time>2026-03-29T09:35:44.029Z</time></trkpt><trkpt lat="39.3887583" lon="16.980265"><ele>285.0</ele><time>2026-03-29T09:35:45.029Z</time></trkpt><trkpt lat="39.3886917" lon="16.98015"><ele>286.0</ele><time>2026-03-29T09:35:47.029Z</time></trkpt><trkpt lat="39.3886567" lon="16.9800033"><ele>287.0</ele><time>2026-03-29T09:35:49.029Z</time></trkpt><trkpt lat="39.3886667" lon="16.9798383"><ele>288.0</ele><time>2026-03-29T09:35:51.029Z</time></trkpt><trkpt lat="39.388675" lon="16.9797567"><ele>289.0</ele><time>2026-03-29T09:35:52.028Z</time></trkpt><trkpt lat="39.3886783" lon="16.97962"><ele>289.0</ele><time>2026-03-29T09:35:54.029Z</time></trkpt><trkpt lat="39.3886333" lon="16.9795467"><ele>289.0</ele><time>2026-03-29T09:35:56.029Z</time></trkpt><trkpt lat="39.3885233" lon="16.9795017"><ele>289.0</ele><time>2026-03-29T09:35:58.028Z</time></trkpt><trkpt lat="39.3884667" lon="16.9794617"><ele>289.0</ele><time>2026-03-29T09:35:59.029Z</time></trkpt><trkpt lat="39.3884067" lon="16.9794083"><ele>289.0</ele><time>2026-03-29T09:36:00.029Z</time></trkpt><trkpt lat="39.3883567" lon="16.9793533"><ele>289.0</ele><time>2026-03-29T09:36:01.029Z</time></trkpt><trkpt lat="39.388305" lon="16.9792917"><ele>288.0</ele><time>2026-03-29T09:36:02.029Z</time></trkpt><trkpt lat="39.3882183" lon="16.9791733"><ele>287.0</ele><time>2026-03-29T09:36:04.029Z</time></trkpt><trkpt lat="39.38814" lon="16.9791033"><ele>286.0</ele><time>2026-03-29T09:36:06.029Z</time></trkpt><trkpt lat="39.3880517" lon="16.9790217"><ele>285.0</ele><time>2026-03-29T09:36:08.029Z</time></trkpt><trkpt lat="39.3879633" lon="16.97895"><ele>284.0</ele><time>2026-03-29T09:36:10.029Z</time></trkpt><trkpt lat="39.387865" lon="16.97894"><ele>284.0</ele><time>2026-03-29T09:36:12.029Z</time></trkpt><trkpt lat="39.3877767" lon="16.9789067"><ele>284.0</ele><time>2026-03-29T09:36:15.029Z</time></trkpt><trkpt lat="39.38771" lon="16.9788517"><ele>284.0</ele><time>2026-03-29T09:36:17.029Z</time></trkpt><trkpt lat="39.3876567" lon="16.9787783"><ele>284.0</ele><time>2026-03-29T09:36:19.029Z</time></trkpt><trkpt lat="39.38762" lon="16.9786983"><ele>284.0</ele><time>2026-03-29T09:36:21.029Z</time></trkpt><trkpt lat="39.3876083" lon="16.9785983"><ele>284.0</ele><time>2026-03-29T09:36:23.029Z</time></trkpt><trkpt lat="39.3876067" lon="16.9784967"><ele>284.0</ele><time>2026-03-29T09:36:25.029Z</time></trkpt><trkpt lat="39.3876033" lon="16.978415"><ele>284.0</ele><time>2026-03-29T09:36:27.029Z</time></trkpt><trkpt lat="39.3875867" lon="16.97832"><ele>284.0</ele><time>2026-03-29T09:36:29.029Z</time></trkpt><trkpt lat="39.3875583" lon="16.9782233"><ele>284.0</ele><time>2026-03-29T09:36:31.029Z</time></trkpt><trkpt lat="39.38753" lon="16.978135"><ele>284.0</ele><time>2026-03-29T09:36:33.029Z</time></trkpt><trkpt lat="39.3874967" lon="16.97804"><ele>284.0</ele><time>2026-03-29T09:36:35.029Z</time></trkpt><trkpt lat="39.387465" lon="16.9779633"><ele>284.0</ele><time>2026-03-29T09:36:37.029Z</time></trkpt><trkpt lat="39.3874367" lon="16.9778867"><ele>286.33333333333337</ele><time>2026-03-29T09:36:39.029Z</time></trkpt><trkpt lat="39.38741" lon="16.9778"><ele>288.6666666666667</ele><time>2026-03-29T09:36:41.029Z</time></trkpt><trkpt lat="39.3873733" lon="16.9777067"><ele>291.0</ele><time>2026-03-29T09:36:44.028Z</time></trkpt><trkpt lat="39.3873517" lon="16.97762"><ele>293.3333333333333</ele><time>2026-03-29T09:36:46.029Z</time></trkpt><trkpt lat="39.38733" lon="16.97751"><ele>295.66666666666663</ele><time>2026-03-29T09:36:48.029Z</time></trkpt><trkpt lat="39.3873417" lon="16.9773883"><ele>298.0</ele><time>2026-03-29T09:36:50.029Z</time></trkpt><trkpt lat="39.3873383" lon="16.9772633"><ele>299.0</ele><time>2026-03-29T09:36:52.029Z</time></trkpt><trkpt lat="39.3873067" lon="16.9771167"><ele>300.0</ele><time>2026-03-29T09:36:54.029Z</time></trkpt><trkpt lat="39.3872717" lon="16.9770383"><ele>301.0</ele><time>2026-03-29T09:36:55.029Z</time></trkpt><trkpt lat="39.3872267" lon="16.9769"><ele>302.0</ele><time>2026-03-29T09:36:57.029Z</time></trkpt><trkpt lat="39.3871617" lon="16.9768"><ele>303.0</ele><time>2026-03-29T09:36:59.028Z</time></trkpt><trkpt lat="39.3870717" lon="16.9767133"><ele>302.3333333333333</ele><time>2026-03-29T09:37:01.029Z</time></trkpt><trkpt lat="39.3870167" lon="16.97661"><ele>301.6666666666667</ele><time>2026-03-29T09:37:03.028Z</time></trkpt><trkpt lat="39.3870533" lon="16.976515"><ele>301.0</ele><time>2026-03-29T09:37:05.029Z</time></trkpt><trkpt lat="39.3871383" lon="16.9764183"><ele>300.33333333333337</ele><time>2026-03-29T09:37:07.029Z</time></trkpt><trkpt lat="39.3871683" lon="16.97634"><ele>299.6666666666667</ele><time>2026-03-29T09:37:08.029Z</time></trkpt><trkpt lat="39.3871817" lon="16.97625"><ele>299.0</ele><time>2026-03-29T09:37:09.029Z</time></trkpt><trkpt lat="39.3871933" lon="16.97615"><ele>299.0</ele><time>2026-03-29T09:37:10.028Z</time></trkpt><trkpt lat="39.3872033" lon="16.97605"><ele>299.0</ele><time>2026-03-29T09:37:11.029Z</time></trkpt><trkpt lat="39.38722" lon="16.9759517"><ele>299.0</ele><time>2026-03-29T09:37:12.029Z</time></trkpt><trkpt lat="39.38725" lon="16.975875"><ele>299.0</ele><time>2026-03-29T09:37:13.028Z</time></trkpt><trkpt lat="39.387285" lon="16.9758033"><ele>299.0</ele><time>2026-03-29T09:37:14.028Z</time></trkpt><trkpt lat="39.38733" lon="16.975735"><ele>299.0</ele><time>2026-03-29T09:37:15.029Z</time></trkpt><trkpt lat="39.3873783" lon="16.9756683"><ele>299.0</ele><time>2026-03-29T09:37:16.029Z</time></trkpt><trkpt lat="39.387425" lon="16.9756033"><ele>297.0</ele><time>2026-03-29T09:37:17.029Z</time></trkpt><trkpt lat="39.3874583" lon="16.9755233"><ele>295.0</ele><time>2026-03-29T09:37:18.029Z</time></trkpt><trkpt lat="39.387485" lon="16.9754267"><ele>293.0</ele><time>2026-03-29T09:37:19.029Z</time></trkpt><trkpt lat="39.387515" lon="16.9753433"><ele>291.0</ele><time>2026-03-29T09:37:20.029Z</time></trkpt><trkpt lat="39.38755" lon="16.9752667"><ele>289.0</ele><time>2026-03-29T09:37:21.029Z</time></trkpt><trkpt lat="39.3876017" lon="16.975195"><ele>287.0</ele><time>2026-03-29T09:37:22.029Z</time></trkpt><trkpt lat="39.3876667" lon="16.9751233"><ele>287.0</ele><time>2026-03-29T09:37:23.029Z</time></trkpt><trkpt lat="39.3877333" lon="16.9750567"><ele>287.0</ele><time>2026-03-29T09:37:24.029Z</time></trkpt><trkpt lat="39.3877867" lon="16.9749783"><ele>287.0</ele><time>2026-03-29T09:37:25.029Z</time></trkpt><trkpt lat="39.387835" lon="16.9749"><ele>287.0</ele><time>2026-03-29T09:37:26.029Z</time></trkpt><trkpt lat="39.3878683" lon="16.97483"><ele>287.0</ele><time>2026-03-29T09:37:27.029Z</time></trkpt><trkpt lat="39.3879017" lon="16.9747567"><ele>287.0</ele><time>2026-03-29T09:37:28.029Z</time></trkpt><trkpt lat="39.3879267" lon="16.9746717"><ele>287.0</ele><time>2026-03-29T09:37:29.029Z</time></trkpt><trkpt lat="39.38796" lon="16.9745833"><ele>285.5</ele><time>2026-03-29T09:37:30.029Z</time></trkpt><trkpt lat="39.387995" lon="16.9745017"><ele>284.0</ele><time>2026-03-29T09:37:31.028Z</time></trkpt><trkpt lat="39.388035" lon="16.9744233"><ele>282.5</ele><time>2026-03-29T09:37:32.028Z</time></trkpt><trkpt lat="39.3880783" lon="16.974355"><ele>281.0</ele><time>2026-03-29T09:37:33.029Z</time></trkpt><trkpt lat="39.3881183" lon="16.9742833"><ele>279.5</ele><time>2026-03-29T09:37:34.029Z</time></trkpt><trkpt lat="39.38817" lon="16.974135"><ele>278.0</ele><time>2026-03-29T09:37:36.029Z</time></trkpt><trkpt lat="39.3882083" lon="16.9740567"><ele>281.6666666666667</ele><time>2026-03-29T09:37:37.029Z</time></trkpt><trkpt lat="39.388255" lon="16.9739733"><ele>285.33333333333337</ele><time>2026-03-29T09:37:38.029Z</time></trkpt><trkpt lat="39.3882983" lon="16.9738833"><ele>289.0</ele><time>2026-03-29T09:37:39.029Z</time></trkpt><trkpt lat="39.3883333" lon="16.9737817"><ele>292.6666666666667</ele><time>2026-03-29T09:37:40.029Z</time></trkpt><trkpt lat="39.3883567" lon="16.9736733"><ele>296.3333333333333</ele><time>2026-03-29T09:37:41.028Z</time></trkpt><trkpt lat="39.3883783" lon="16.973565"><ele>300.0</ele><time>2026-03-29T09:37:42.029Z</time></trkpt><trkpt lat="39.3884017" lon="16.973465"><ele>300.0</ele><time>2026-03-29T09:37:43.029Z</time></trkpt><trkpt lat="39.3884233" lon="16.9733783"><ele>300.0</ele><time>2026-03-29T09:37:44.029Z</time></trkpt><trkpt lat="39.3884533" lon="16.9732367"><ele>300.0</ele><time>2026-03-29T09:37:46.029Z</time></trkpt><trkpt lat="39.3884717" lon="16.973145"><ele>300.0</ele><time>2026-03-29T09:37:48.029Z</time></trkpt><trkpt lat="39.3885067" lon="16.9730417"><ele>300.0</ele><time>2026-03-29T09:37:51.029Z</time></trkpt><trkpt lat="39.3885367" lon="16.9729583"><ele>300.0</ele><time>2026-03-29T09:37:53.028Z</time></trkpt><trkpt lat="39.3885767" lon="16.9728417"><ele>299.6666666666667</ele><time>2026-03-29T09:37:55.029Z</time></trkpt><trkpt lat="39.388585" lon="16.9726817"><ele>299.3333333333333</ele><time>2026-03-29T09:37:57.029Z</time></trkpt><trkpt lat="39.3885667" lon="16.9725867"><ele>299.0</ele><time>2026-03-29T09:37:58.029Z</time></trkpt><trkpt lat="39.3885283" lon="16.9724917"><ele>298.66666666666663</ele><time>2026-03-29T09:37:59.029Z</time></trkpt><trkpt lat="39.3884817" lon="16.9724017"><ele>298.3333333333333</ele><time>2026-03-29T09:38:00.029Z</time></trkpt><trkpt lat="39.3884433" lon="16.97231"><ele>298.0</ele><time>2026-03-29T09:38:01.029Z</time></trkpt><trkpt lat="39.3884167" lon="16.9722233"><ele>298.0</ele><time>2026-03-29T09:38:02.029Z</time></trkpt><trkpt lat="39.388395" lon="16.9721017"><ele>298.0</ele><time>2026-03-29T09:38:04.029Z</time></trkpt><trkpt lat="39.38843" lon="16.9719917"><ele>298.0</ele><time>2026-03-29T09:38:07.029Z</time></trkpt><trkpt lat="39.3884783" lon="16.9719383"><ele>298.0</ele><time>2026-03-29T09:38:09.029Z</time></trkpt><trkpt lat="39.388525" lon="16.9718817"><ele>298.0</ele><time>2026-03-29T09:38:11.029Z</time></trkpt><trkpt lat="39.38859" lon="16.9717833"><ele>298.0</ele><time>2026-03-29T09:38:13.029Z</time></trkpt><trkpt lat="39.38864" lon="16.9717283"><ele>297.5</ele><time>2026-03-29T09:38:14.029Z</time></trkpt><trkpt lat="39.388705" lon="16.971675"><ele>297.0</ele><time>2026-03-29T09:38:15.029Z</time></trkpt><trkpt lat="39.3887733" lon="16.9716433"><ele>296.5</ele><time>2026-03-29T09:38:16.029Z</time></trkpt><trkpt lat="39.3888467" lon="16.9716217"><ele>296.0</ele><time>2026-03-29T09:38:17.029Z</time></trkpt><trkpt lat="39.3889217" lon="16.9716133"><ele>295.5</ele><time>2026-03-29T09:38:18.028Z</time></trkpt><trkpt lat="39.389" lon="16.9716"><ele>295.0</ele><time>2026-03-29T09:38:19.029Z</time></trkpt><trkpt lat="39.3890783" lon="16.9716067"><ele>296.16666666666663</ele><time>2026-03-29T09:38:20.029Z</time></trkpt><trkpt lat="39.3891567" lon="16.9716267"><ele>297.3333333333333</ele><time>2026-03-29T09:38:21.029Z</time></trkpt><trkpt lat="39.3892367" lon="16.9716617"><ele>298.5</ele><time>2026-03-29T09:38:22.028Z</time></trkpt><trkpt lat="39.3893117" lon="16.9717083"><ele>299.6666666666667</ele><time>2026-03-29T09:38:23.029Z</time></trkpt><trkpt lat="39.38939" lon="16.97176"><ele>300.83333333333337</ele><time>2026-03-29T09:38:24.029Z</time></trkpt><trkpt lat="39.3894617" lon="16.9718133"><ele>302.0</ele><time>2026-03-29T09:38:25.029Z</time></trkpt><trkpt lat="39.38953" lon="16.9718767"><ele>304.6666666666667</ele><time>2026-03-29T09:38:26.029Z</time></trkpt><trkpt lat="39.3895933" lon="16.9719517"><ele>307.33333333333337</ele><time>2026-03-29T09:38:27.029Z</time></trkpt><trkpt lat="39.3896583" lon="16.9720233"><ele>310.0</ele><time>2026-03-29T09:38:28.028Z</time></trkpt><trkpt lat="39.3897333" lon="16.9720917"><ele>312.6666666666667</ele><time>2026-03-29T09:38:29.028Z</time></trkpt><trkpt lat="39.3898083" lon="16.9721433"><ele>315.3333333333333</ele><time>2026-03-29T09:38:30.029Z</time></trkpt><trkpt lat="39.3898867" lon="16.9721733"><ele>318.0</ele><time>2026-03-29T09:38:31.029Z</time></trkpt><trkpt lat="39.3899667" lon="16.972185"><ele>318.2857142857143</ele><time>2026-03-29T09:38:32.029Z</time></trkpt><trkpt lat="39.3900433" lon="16.9721733"><ele>318.5714285714286</ele><time>2026-03-29T09:38:33.029Z</time></trkpt><trkpt lat="39.390115" lon="16.9721367"><ele>318.8571428571429</ele><time>2026-03-29T09:38:34.029Z</time></trkpt><trkpt lat="39.3901733" lon="16.97208"><ele>319.1428571428571</ele><time>2026-03-29T09:38:35.029Z</time></trkpt><trkpt lat="39.390215" lon="16.972"><ele>319.42857142857144</ele><time>2026-03-29T09:38:36.029Z</time></trkpt><trkpt lat="39.3902233" lon="16.9719117"><ele>319.7142857142857</ele><time>2026-03-29T09:38:37.029Z</time></trkpt><trkpt lat="39.3902233" lon="16.971825"><ele>320.0</ele><time>2026-03-29T09:38:38.029Z</time></trkpt><trkpt lat="39.3902283" lon="16.9716583"><ele>317.0</ele><time>2026-03-29T09:38:40.029Z</time></trkpt><trkpt lat="39.39023" lon="16.9715767"><ele>314.0</ele><time>2026-03-29T09:38:41.029Z</time></trkpt><trkpt lat="39.3902317" lon="16.9714367"><ele>311.0</ele><time>2026-03-29T09:38:43.029Z</time></trkpt><trkpt lat="39.3902183" lon="16.9713"><ele>308.0</ele><time>2026-03-29T09:38:45.028Z</time></trkpt><trkpt lat="39.3901917" lon="16.9711467"><ele>305.0</ele><time>2026-03-29T09:38:47.028Z</time></trkpt><trkpt lat="39.39018" lon="16.9709833"><ele>305.0</ele><time>2026-03-29T09:38:49.029Z</time></trkpt><trkpt lat="39.3901717" lon="16.9709"><ele>305.0</ele><time>2026-03-29T09:38:50.029Z</time></trkpt><trkpt lat="39.39017" lon="16.97081"><ele>305.0</ele><time>2026-03-29T09:38:51.028Z</time></trkpt><trkpt lat="39.3901783" lon="16.9707083"><ele>305.0</ele><time>2026-03-29T09:38:52.029Z</time></trkpt><trkpt lat="39.3901967" lon="16.9706167"><ele>305.0</ele><time>2026-03-29T09:38:53.029Z</time></trkpt><trkpt lat="39.390235" lon="16.9705367"><ele>305.0</ele><time>2026-03-29T09:38:54.028Z</time></trkpt><trkpt lat="39.3902867" lon="16.9704633"><ele>305.0</ele><time>2026-03-29T09:38:55.029Z</time></trkpt><trkpt lat="39.3903317" lon="16.9704"><ele>304.1666666666667</ele><time>2026-03-29T09:38:56.029Z</time></trkpt><trkpt lat="39.39038" lon="16.97033"><ele>303.33333333333337</ele><time>2026-03-29T09:38:57.029Z</time></trkpt><trkpt lat="39.390435" lon="16.97026"><ele>302.5</ele><time>2026-03-29T09:38:58.029Z</time></trkpt><trkpt lat="39.3904917" lon="16.970185"><ele>301.6666666666667</ele><time>2026-03-29T09:38:59.029Z</time></trkpt><trkpt lat="39.390545" lon="16.9700983"><ele>300.8333333333333</ele><time>2026-03-29T09:39:00.029Z</time></trkpt><trkpt lat="39.3905983" lon="16.9700033"><ele>300.0</ele><time>2026-03-29T09:39:01.029Z</time></trkpt><trkpt lat="39.3906583" lon="16.9699033"><ele>302.3333333333333</ele><time>2026-03-29T09:39:02.029Z</time></trkpt><trkpt lat="39.39071" lon="16.9698117"><ele>304.6666666666667</ele><time>2026-03-29T09:39:03.029Z</time></trkpt><trkpt lat="39.3907683" lon="16.96972"><ele>307.0</ele><time>2026-03-29T09:39:04.028Z</time></trkpt><trkpt lat="39.39082" lon="16.9696317"><ele>309.33333333333337</ele><time>2026-03-29T09:39:05.029Z</time></trkpt><trkpt lat="39.3908617" lon="16.969545"><ele>311.6666666666667</ele><time>2026-03-29T09:39:06.028Z</time></trkpt><trkpt lat="39.3909017" lon="16.9694567"><ele>314.0</ele><time>2026-03-29T09:39:07.029Z</time></trkpt><trkpt lat="39.3909367" lon="16.9693733"><ele>314.0</ele><time>2026-03-29T09:39:08.029Z</time></trkpt><trkpt lat="39.3909717" lon="16.9692933"><ele>314.0</ele><time>2026-03-29T09:39:09.029Z</time></trkpt><trkpt lat="39.3910167" lon="16.9691717"><ele>314.0</ele><time>2026-03-29T09:39:11.029Z</time></trkpt><trkpt lat="39.3910583" lon="16.9690683"><ele>314.0</ele><time>2026-03-29T09:39:13.029Z</time></trkpt><trkpt lat="39.391125" lon="16.96891"><ele>314.0</ele><time>2026-03-29T09:39:15.029Z</time></trkpt><trkpt lat="39.3911567" lon="16.9688133"><ele>314.4</ele><time>2026-03-29T09:39:16.029Z</time></trkpt><trkpt lat="39.3911767" lon="16.9687333"><ele>314.79999999999995</ele><time>2026-03-29T09:39:17.029Z</time></trkpt><trkpt lat="39.3911967" lon="16.9686033"><ele>315.20000000000005</ele><time>2026-03-29T09:39:19.028Z</time></trkpt><trkpt lat="39.3912417" lon="16.9684617"><ele>315.6</ele><time>2026-03-29T09:39:21.028Z</time></trkpt><trkpt lat="39.3912683" lon="16.96829"><ele>316.0</ele><time>2026-03-29T09:39:23.029Z</time></trkpt><trkpt lat="39.391275" lon="16.9681933"><ele>316.0</ele><time>2026-03-29T09:39:24.029Z</time></trkpt><trkpt lat="39.3913017" lon="16.9680983"><ele>316.0</ele><time>2026-03-29T09:39:25.028Z</time></trkpt><trkpt lat="39.391335" lon="16.968"><ele>316.0</ele><time>2026-03-29T09:39:26.027Z</time></trkpt><trkpt lat="39.3913817" lon="16.967905"><ele>316.0</ele><time>2026-03-29T09:39:27.027Z</time></trkpt><trkpt lat="39.3914333" lon="16.9677983"><ele>316.0</ele><time>2026-03-29T09:39:28.027Z</time></trkpt><trkpt lat="39.3914917" lon="16.9676933"><ele>316.0</ele><time>2026-03-29T09:39:29.028Z</time></trkpt><trkpt lat="39.3915517" lon="16.9675883"><ele>319.4</ele><time>2026-03-29T09:39:30.027Z</time></trkpt><trkpt lat="39.3916017" lon="16.967475"><ele>322.8</ele><time>2026-03-29T09:39:31.028Z</time></trkpt><trkpt lat="39.3916533" lon="16.96736"><ele>326.2</ele><time>2026-03-29T09:39:32.028Z</time></trkpt><trkpt lat="39.3917017" lon="16.9672517"><ele>329.59999999999997</ele><time>2026-03-29T09:39:33.028Z</time></trkpt><trkpt lat="39.3917483" lon="16.9671433"><ele>333.0</ele><time>2026-03-29T09:39:34.028Z</time></trkpt><trkpt lat="39.3917917" lon="16.9670433"><ele>333.0</ele><time>2026-03-29T09:39:35.028Z</time></trkpt><trkpt lat="39.3918367" lon="16.9669433"><ele>333.0</ele><time>2026-03-29T09:39:36.028Z</time></trkpt><trkpt lat="39.3918917" lon="16.966845"><ele>333.0</ele><time>2026-03-29T09:39:37.028Z</time></trkpt><trkpt lat="39.3919467" lon="16.9667483"><ele>333.0</ele><time>2026-03-29T09:39:38.028Z</time></trkpt><trkpt lat="39.391985" lon="16.9666533"><ele>333.0</ele><time>2026-03-29T09:39:39.028Z</time></trkpt><trkpt lat="39.3920233" lon="16.96656"><ele>333.0</ele><time>2026-03-29T09:39:40.028Z</time></trkpt><trkpt lat="39.3920567" lon="16.966465"><ele>333.5</ele><time>2026-03-29T09:39:41.027Z</time></trkpt><trkpt lat="39.3920717" lon="16.966355"><ele>334.0</ele><time>2026-03-29T09:39:42.028Z</time></trkpt><trkpt lat="39.3920833" lon="16.9662467"><ele>334.5</ele><time>2026-03-29T09:39:43.028Z</time></trkpt><trkpt lat="39.3920983" lon="16.966135"><ele>335.0</ele><time>2026-03-29T09:39:44.028Z</time></trkpt><trkpt lat="39.3921217" lon="16.9660267"><ele>335.5</ele><time>2026-03-29T09:39:45.028Z</time></trkpt><trkpt lat="39.3921533" lon="16.9659167"><ele>336.0</ele><time>2026-03-29T09:39:46.028Z</time></trkpt><trkpt lat="39.39219" lon="16.9658033"><ele>336.0</ele><time>2026-03-29T09:39:47.028Z</time></trkpt><trkpt lat="39.392215" lon="16.965685"><ele>336.0</ele><time>2026-03-29T09:39:48.028Z</time></trkpt><trkpt lat="39.3922383" lon="16.9655717"><ele>336.0</ele><time>2026-03-29T09:39:49.028Z</time></trkpt><trkpt lat="39.3922617" lon="16.9654633"><ele>336.0</ele><time>2026-03-29T09:39:50.028Z</time></trkpt><trkpt lat="39.3922917" lon="16.9653583"><ele>336.0</ele><time>2026-03-29T09:39:51.028Z</time></trkpt><trkpt lat="39.39232" lon="16.9652483"><ele>336.0</ele><time>2026-03-29T09:39:52.028Z</time></trkpt><trkpt lat="39.39234" lon="16.96514"><ele>336.0</ele><time>2026-03-29T09:39:53.028Z</time></trkpt><trkpt lat="39.3923467" lon="16.9650467"><ele>336.0</ele><time>2026-03-29T09:39:54.028Z</time></trkpt><trkpt lat="39.392345" lon="16.9649483"><ele>336.0</ele><time>2026-03-29T09:39:55.028Z</time></trkpt><trkpt lat="39.3923367" lon="16.964865"><ele>336.0</ele><time>2026-03-29T09:39:56.027Z</time></trkpt><trkpt lat="39.3923217" lon="16.9647683"><ele>336.0</ele><time>2026-03-29T09:39:57.028Z</time></trkpt><trkpt lat="39.3923033" lon="16.96468"><ele>336.0</ele><time>2026-03-29T09:39:58.028Z</time></trkpt><trkpt lat="39.3922867" lon="16.9645983"><ele>336.0</ele><time>2026-03-29T09:39:59.028Z</time></trkpt><trkpt lat="39.3922733" lon="16.964515"><ele>336.0</ele><time>2026-03-29T09:40:00.028Z</time></trkpt><trkpt lat="39.3922617" lon="16.9644333"><ele>336.0</ele><time>2026-03-29T09:40:01.028Z</time></trkpt><trkpt lat="39.39224" lon="16.9643"><ele>336.0</ele><time>2026-03-29T09:40:03.028Z</time></trkpt><trkpt lat="39.3922183" lon="16.9642183"><ele>336.0</ele><time>2026-03-29T09:40:05.028Z</time></trkpt><trkpt lat="39.3922167" lon="16.964105"><ele>336.0</ele><time>2026-03-29T09:40:07.028Z</time></trkpt><trkpt lat="39.3922333" lon="16.96393"><ele>336.0</ele><time>2026-03-29T09:40:09.028Z</time></trkpt><trkpt lat="39.3922517" lon="16.9638333"><ele>336.0</ele><time>2026-03-29T09:40:10.028Z</time></trkpt><trkpt lat="39.3922667" lon="16.96374"><ele>336.0</ele><time>2026-03-29T09:40:11.028Z</time></trkpt><trkpt lat="39.3922867" lon="16.9636467"><ele>336.0</ele><time>2026-03-29T09:40:12.027Z</time></trkpt><trkpt lat="39.3923083" lon="16.9635633"><ele>336.0</ele><time>2026-03-29T09:40:13.028Z</time></trkpt><trkpt lat="39.392325" lon="16.963475"><ele>336.0</ele><time>2026-03-29T09:40:14.028Z</time></trkpt><trkpt lat="39.392345" lon="16.9633717"><ele>336.0</ele><time>2026-03-29T09:40:15.028Z</time></trkpt><trkpt lat="39.3923717" lon="16.9632633"><ele>336.20000000000005</ele><time>2026-03-29T09:40:16.028Z</time></trkpt><trkpt lat="39.39239" lon="16.9631517"><ele>336.40000000000003</ele><time>2026-03-29T09:40:17.028Z</time></trkpt><trkpt lat="39.3924067" lon="16.96303"><ele>336.6</ele><time>2026-03-29T09:40:18.028Z</time></trkpt><trkpt lat="39.3924367" lon="16.9629017"><ele>336.8</ele><time>2026-03-29T09:40:19.028Z</time></trkpt><trkpt lat="39.392465" lon="16.9627717"><ele>337.0</ele><time>2026-03-29T09:40:20.028Z</time></trkpt><trkpt lat="39.392505" lon="16.9626383"><ele>337.40000000000003</ele><time>2026-03-29T09:40:21.028Z</time></trkpt><trkpt lat="39.39254" lon="16.9625083"><ele>337.8</ele><time>2026-03-29T09:40:22.027Z</time></trkpt><trkpt lat="39.3925767" lon="16.96237"><ele>338.2</ele><time>2026-03-29T09:40:23.028Z</time></trkpt><trkpt lat="39.3926067" lon="16.9622317"><ele>338.6</ele><time>2026-03-29T09:40:24.028Z</time></trkpt><trkpt lat="39.3926317" lon="16.9621"><ele>339.0</ele><time>2026-03-29T09:40:25.028Z</time></trkpt><trkpt lat="39.39265" lon="16.961965"><ele>339.0</ele><time>2026-03-29T09:40:26.028Z</time></trkpt><trkpt lat="39.3926683" lon="16.961845"><ele>339.0</ele><time>2026-03-29T09:40:27.028Z</time></trkpt><trkpt lat="39.3926733" lon="16.9617533"><ele>339.0</ele><time>2026-03-29T09:40:28.028Z</time></trkpt><trkpt lat="39.392675" lon="16.9616483"><ele>339.0</ele><time>2026-03-29T09:40:29.028Z</time></trkpt><trkpt lat="39.3926817" lon="16.961535"><ele>339.0</ele><time>2026-03-29T09:40:30.028Z</time></trkpt><trkpt lat="39.392695" lon="16.9614"><ele>339.0</ele><time>2026-03-29T09:40:31.027Z</time></trkpt><trkpt lat="39.3927017" lon="16.9612533"><ele>337.5</ele><time>2026-03-29T09:40:32.028Z</time></trkpt><trkpt lat="39.39271" lon="16.9610983"><ele>336.0</ele><time>2026-03-29T09:40:33.027Z</time></trkpt><trkpt lat="39.392715" lon="16.9609267"><ele>334.5</ele><time>2026-03-29T09:40:34.028Z</time></trkpt><trkpt lat="39.3927167" lon="16.960755"><ele>333.0</ele><time>2026-03-29T09:40:35.028Z</time></trkpt><trkpt lat="39.3927133" lon="16.96059"><ele>333.0</ele><time>2026-03-29T09:40:36.027Z</time></trkpt><trkpt lat="39.3927067" lon="16.960425"><ele>333.0</ele><time>2026-03-29T09:40:37.027Z</time></trkpt><trkpt lat="39.392685" lon="16.9602717"><ele>333.0</ele><time>2026-03-29T09:40:38.028Z</time></trkpt><trkpt lat="39.39266" lon="16.96014"><ele>333.0</ele><time>2026-03-29T09:40:39.028Z</time></trkpt><trkpt lat="39.3926417" lon="16.9600217"><ele>333.0</ele><time>2026-03-29T09:40:40.027Z</time></trkpt><trkpt lat="39.392625" lon="16.9599383"><ele>333.0</ele><time>2026-03-29T09:40:41.028Z</time></trkpt><trkpt lat="39.3926217" lon="16.9598233"><ele>333.0</ele><time>2026-03-29T09:40:43.028Z</time></trkpt><trkpt lat="39.3926167" lon="16.9596867"><ele>333.0</ele><time>2026-03-29T09:40:45.027Z</time></trkpt><trkpt lat="39.3926117" lon="16.9596"><ele>333.0</ele><time>2026-03-29T09:40:46.028Z</time></trkpt><trkpt lat="39.3925967" lon="16.9595117"><ele>333.0</ele><time>2026-03-29T09:40:47.028Z</time></trkpt><trkpt lat="39.3925867" lon="16.95941"><ele>333.0</ele><time>2026-03-29T09:40:48.028Z</time></trkpt><trkpt lat="39.392575" lon="16.959295"><ele>332.4</ele><time>2026-03-29T09:40:49.028Z</time></trkpt><trkpt lat="39.3925567" lon="16.9591783"><ele>331.79999999999995</ele><time>2026-03-29T09:40:50.028Z</time></trkpt><trkpt lat="39.3925317" lon="16.9590583"><ele>331.2</ele><time>2026-03-29T09:40:51.028Z</time></trkpt><trkpt lat="39.3925083" lon="16.95894"><ele>330.6</ele><time>2026-03-29T09:40:52.028Z</time></trkpt><trkpt lat="39.3924867" lon="16.958815"><ele>330.0</ele><time>2026-03-29T09:40:53.028Z</time></trkpt><trkpt lat="39.39247" lon="16.9586983"><ele>330.0</ele><time>2026-03-29T09:40:54.028Z</time></trkpt><trkpt lat="39.3924633" lon="16.9585717"><ele>330.0</ele><time>2026-03-29T09:40:55.028Z</time></trkpt><trkpt lat="39.3924517" lon="16.9584383"><ele>330.0</ele><time>2026-03-29T09:40:56.027Z</time></trkpt><trkpt lat="39.392445" lon="16.958305"><ele>330.0</ele><time>2026-03-29T09:40:57.028Z</time></trkpt><trkpt lat="39.392435" lon="16.9581783"><ele>330.0</ele><time>2026-03-29T09:40:58.028Z</time></trkpt><trkpt lat="39.3924267" lon="16.958055"><ele>329.4</ele><time>2026-03-29T09:40:59.028Z</time></trkpt><trkpt lat="39.39241" lon="16.9579417"><ele>328.8</ele><time>2026-03-29T09:41:00.028Z</time></trkpt><trkpt lat="39.3923983" lon="16.95783"><ele>328.20000000000005</ele><time>2026-03-29T09:41:01.027Z</time></trkpt><trkpt lat="39.3923783" lon="16.9577133"><ele>327.6</ele><time>2026-03-29T09:41:02.028Z</time></trkpt><trkpt lat="39.39236" lon="16.957595"><ele>327.0</ele><time>2026-03-29T09:41:03.028Z</time></trkpt><trkpt lat="39.39234" lon="16.9574817"><ele>326.6666666666667</ele><time>2026-03-29T09:41:04.028Z</time></trkpt><trkpt lat="39.3923183" lon="16.9573817"><ele>326.3333333333333</ele><time>2026-03-29T09:41:05.028Z</time></trkpt><trkpt lat="39.3922983" lon="16.9572817"><ele>326.0</ele><time>2026-03-29T09:41:06.028Z</time></trkpt><trkpt lat="39.3922833" lon="16.9571917"><ele>325.66666666666663</ele><time>2026-03-29T09:41:07.028Z</time></trkpt><trkpt lat="39.3922533" lon="16.95707"><ele>325.3333333333333</ele><time>2026-03-29T09:41:09.028Z</time></trkpt><trkpt lat="39.3922117" lon="16.956975"><ele>325.0</ele><time>2026-03-29T09:41:11.028Z</time></trkpt><trkpt lat="39.3921767" lon="16.9569033"><ele>322.66666666666663</ele><time>2026-03-29T09:41:13.028Z</time></trkpt><trkpt lat="39.3921367" lon="16.9568283"><ele>320.3333333333333</ele><time>2026-03-29T09:41:15.028Z</time></trkpt><trkpt lat="39.3920667" lon="16.95671"><ele>318.0</ele><time>2026-03-29T09:41:17.028Z</time></trkpt><trkpt lat="39.39202" lon="16.956635"><ele>315.6666666666667</ele><time>2026-03-29T09:41:18.028Z</time></trkpt><trkpt lat="39.3919717" lon="16.95656"><ele>313.33333333333337</ele><time>2026-03-29T09:41:19.027Z</time></trkpt><trkpt lat="39.3919483" lon="16.95648"><ele>311.0</ele><time>2026-03-29T09:41:20.028Z</time></trkpt><trkpt lat="39.39193" lon="16.9564017"><ele>311.0</ele><time>2026-03-29T09:41:21.028Z</time></trkpt><trkpt lat="39.3919333" lon="16.9563067"><ele>311.0</ele><time>2026-03-29T09:41:22.028Z</time></trkpt><trkpt lat="39.3919433" lon="16.9562083"><ele>311.0</ele><time>2026-03-29T09:41:23.028Z</time></trkpt><trkpt lat="39.39196" lon="16.9561217"><ele>311.0</ele><time>2026-03-29T09:41:24.027Z</time></trkpt><trkpt lat="39.391965" lon="16.95603"><ele>311.0</ele><time>2026-03-29T09:41:25.028Z</time></trkpt><trkpt lat="39.3918967" lon="16.9559117"><ele>311.0</ele><time>2026-03-29T09:41:27.027Z</time></trkpt><trkpt lat="39.39183" lon="16.9558667"><ele>312.2</ele><time>2026-03-29T09:41:28.028Z</time></trkpt><trkpt lat="39.3917517" lon="16.9558367"><ele>313.40000000000003</ele><time>2026-03-29T09:41:29.028Z</time></trkpt><trkpt lat="39.3916683" lon="16.9558367"><ele>314.6</ele><time>2026-03-29T09:41:30.028Z</time></trkpt><trkpt lat="39.3915783" lon="16.9558567"><ele>315.8</ele><time>2026-03-29T09:41:31.028Z</time></trkpt><trkpt lat="39.3914683" lon="16.9558633"><ele>317.0</ele><time>2026-03-29T09:41:32.028Z</time></trkpt><trkpt lat="39.3913567" lon="16.9558617"><ele>317.2</ele><time>2026-03-29T09:41:33.028Z</time></trkpt><trkpt lat="39.3912567" lon="16.9558617"><ele>317.4</ele><time>2026-03-29T09:41:34.028Z</time></trkpt><trkpt lat="39.391155" lon="16.9558767"><ele>317.6</ele><time>2026-03-29T09:41:35.028Z</time></trkpt><trkpt lat="39.391055" lon="16.9559"><ele>317.8</ele><time>2026-03-29T09:41:36.027Z</time></trkpt><trkpt lat="39.3909533" lon="16.9559167"><ele>318.0</ele><time>2026-03-29T09:41:37.028Z</time></trkpt><trkpt lat="39.3908533" lon="16.9559167"><ele>318.0</ele><time>2026-03-29T09:41:38.027Z</time></trkpt><trkpt lat="39.39075" lon="16.9559017"><ele>318.0</ele><time>2026-03-29T09:41:39.028Z</time></trkpt><trkpt lat="39.39065" lon="16.95588"><ele>318.0</ele><time>2026-03-29T09:41:40.028Z</time></trkpt><trkpt lat="39.3905517" lon="16.9558617"><ele>318.0</ele><time>2026-03-29T09:41:41.028Z</time></trkpt><trkpt lat="39.3904433" lon="16.9558433"><ele>318.0</ele><time>2026-03-29T09:41:42.028Z</time></trkpt><trkpt lat="39.3903383" lon="16.9558233"><ele>318.4</ele><time>2026-03-29T09:41:43.028Z</time></trkpt><trkpt lat="39.390245" lon="16.95578"><ele>318.8</ele><time>2026-03-29T09:41:44.028Z</time></trkpt><trkpt lat="39.3901417" lon="16.955735"><ele>319.2</ele><time>2026-03-29T09:41:45.028Z</time></trkpt><trkpt lat="39.3900333" lon="16.9556817"><ele>319.6</ele><time>2026-03-29T09:41:46.028Z</time></trkpt><trkpt lat="39.3899367" lon="16.9556183"><ele>320.0</ele><time>2026-03-29T09:41:47.027Z</time></trkpt><trkpt lat="39.3898583" lon="16.9555617"><ele>320.0</ele><time>2026-03-29T09:41:48.028Z</time></trkpt><trkpt lat="39.3898017" lon="16.9555067"><ele>320.0</ele><time>2026-03-29T09:41:49.027Z</time></trkpt><trkpt lat="39.389725" lon="16.9554217"><ele>320.0</ele><time>2026-03-29T09:41:51.028Z</time></trkpt><trkpt lat="39.389685" lon="16.9553567"><ele>320.0</ele><time>2026-03-29T09:41:53.028Z</time></trkpt><trkpt lat="39.3896017" lon="16.9553183"><ele>320.0</ele><time>2026-03-29T09:41:56.028Z</time></trkpt><trkpt lat="39.3895167" lon="16.9552483"><ele>320.0</ele><time>2026-03-29T09:41:58.028Z</time></trkpt><trkpt lat="39.38946" lon="16.955195"><ele>319.8</ele><time>2026-03-29T09:41:59.028Z</time></trkpt><trkpt lat="39.3893983" lon="16.955135"><ele>319.6</ele><time>2026-03-29T09:42:00.028Z</time></trkpt><trkpt lat="39.3893233" lon="16.95507"><ele>319.4</ele><time>2026-03-29T09:42:01.028Z</time></trkpt><trkpt lat="39.3892433" lon="16.9549883"><ele>319.2</ele><time>2026-03-29T09:42:02.027Z</time></trkpt><trkpt lat="39.3891633" lon="16.9548983"><ele>319.0</ele><time>2026-03-29T09:42:03.027Z</time></trkpt><trkpt lat="39.389085" lon="16.9548117"><ele>319.0</ele><time>2026-03-29T09:42:04.028Z</time></trkpt><trkpt lat="39.3890133" lon="16.9547417"><ele>319.0</ele><time>2026-03-29T09:42:05.028Z</time></trkpt><trkpt lat="39.38893" lon="16.954705"><ele>319.0</ele><time>2026-03-29T09:42:06.028Z</time></trkpt><trkpt lat="39.388845" lon="16.9547083"><ele>319.0</ele><time>2026-03-29T09:42:07.028Z</time></trkpt><trkpt lat="39.38876" lon="16.95473"><ele>319.0</ele><time>2026-03-29T09:42:08.027Z</time></trkpt><trkpt lat="39.38866" lon="16.9547567"><ele>318.0</ele><time>2026-03-29T09:42:09.028Z</time></trkpt><trkpt lat="39.3885467" lon="16.954775"><ele>317.0</ele><time>2026-03-29T09:42:10.028Z</time></trkpt><trkpt lat="39.3884317" lon="16.9547767"><ele>316.0</ele><time>2026-03-29T09:42:11.028Z</time></trkpt><trkpt lat="39.3883117" lon="16.9547867"><ele>315.0</ele><time>2026-03-29T09:42:12.028Z</time></trkpt><trkpt lat="39.3881983" lon="16.9547983"><ele>315.0</ele><time>2026-03-29T09:42:13.028Z</time></trkpt><trkpt lat="39.3880917" lon="16.95482"><ele>315.0</ele><time>2026-03-29T09:42:14.028Z</time></trkpt><trkpt lat="39.388005" lon="16.95485"><ele>315.0</ele><time>2026-03-29T09:42:15.028Z</time></trkpt><trkpt lat="39.38792" lon="16.954865"><ele>315.0</ele><time>2026-03-29T09:42:16.028Z</time></trkpt><trkpt lat="39.38783" lon="16.9548667"><ele>315.0</ele><time>2026-03-29T09:42:17.028Z</time></trkpt><trkpt lat="39.387735" lon="16.9548817"><ele>315.6</ele><time>2026-03-29T09:42:18.028Z</time></trkpt><trkpt lat="39.38764" lon="16.954905"><ele>316.2</ele><time>2026-03-29T09:42:19.028Z</time></trkpt><trkpt lat="39.3875417" lon="16.9549417"><ele>316.8</ele><time>2026-03-29T09:42:20.028Z</time></trkpt><trkpt lat="39.38743" lon="16.9549817"><ele>317.4</ele><time>2026-03-29T09:42:21.028Z</time></trkpt><trkpt lat="39.3873183" lon="16.9550183"><ele>318.0</ele><time>2026-03-29T09:42:22.027Z</time></trkpt><trkpt lat="39.38721" lon="16.9550633"><ele>315.2</ele><time>2026-03-29T09:42:23.028Z</time></trkpt><trkpt lat="39.3871017" lon="16.9550967"><ele>312.4</ele><time>2026-03-29T09:42:24.028Z</time></trkpt><trkpt lat="39.3869967" lon="16.9551233"><ele>309.59999999999997</ele><time>2026-03-29T09:42:25.028Z</time></trkpt><trkpt lat="39.3869" lon="16.95515"><ele>306.8</ele><time>2026-03-29T09:42:26.028Z</time></trkpt><trkpt lat="39.3868167" lon="16.9551633"><ele>304.0</ele><time>2026-03-29T09:42:27.028Z</time></trkpt><trkpt lat="39.3867433" lon="16.9551783"><ele>304.0</ele><time>2026-03-29T09:42:28.028Z</time></trkpt><trkpt lat="39.3866733" lon="16.9552017"><ele>304.0</ele><time>2026-03-29T09:42:29.028Z</time></trkpt><trkpt lat="39.3865983" lon="16.9552267"><ele>304.0</ele><time>2026-03-29T09:42:30.028Z</time></trkpt><trkpt lat="39.3865267" lon="16.9552417"><ele>304.0</ele><time>2026-03-29T09:42:31.028Z</time></trkpt><trkpt lat="39.38643" lon="16.955275"><ele>304.0</ele><time>2026-03-29T09:42:33.027Z</time></trkpt><trkpt lat="39.3863567" lon="16.9553317"><ele>304.0</ele><time>2026-03-29T09:42:36.028Z</time></trkpt><trkpt lat="39.3862833" lon="16.9552967"><ele>304.2</ele><time>2026-03-29T09:42:41.028Z</time></trkpt><trkpt lat="39.3862183" lon="16.95529"><ele>304.4</ele><time>2026-03-29T09:42:43.028Z</time></trkpt><trkpt lat="39.3861333" lon="16.9552867"><ele>304.6</ele><time>2026-03-29T09:42:45.028Z</time></trkpt><trkpt lat="39.3860383" lon="16.955285"><ele>304.8</ele><time>2026-03-29T09:42:47.028Z</time></trkpt><trkpt lat="39.3859367" lon="16.95528"><ele>305.0</ele><time>2026-03-29T09:42:49.028Z</time></trkpt><trkpt lat="39.3858333" lon="16.955275"><ele>305.0</ele><time>2026-03-29T09:42:51.028Z</time></trkpt><trkpt lat="39.3857567" lon="16.9552917"><ele>305.0</ele><time>2026-03-29T09:42:53.027Z</time></trkpt><trkpt lat="39.3856683" lon="16.955275"><ele>305.0</ele><time>2026-03-29T09:42:55.028Z</time></trkpt><trkpt lat="39.3855883" lon="16.9552567"><ele>305.0</ele><time>2026-03-29T09:42:57.028Z</time></trkpt><trkpt lat="39.38551" lon="16.9552417"><ele>305.0</ele><time>2026-03-29T09:43:04.028Z</time></trkpt><trkpt lat="39.385445" lon="16.955255"><ele>305.0</ele><time>2026-03-29T09:43:06.028Z</time></trkpt><trkpt lat="39.3853483" lon="16.9552533"><ele>306.0</ele><time>2026-03-29T09:43:08.028Z</time></trkpt><trkpt lat="39.385285" lon="16.9552467"><ele>307.0</ele><time>2026-03-29T09:43:09.028Z</time></trkpt><trkpt lat="39.3851533" lon="16.95527"><ele>308.0</ele><time>2026-03-29T09:43:11.028Z</time></trkpt><trkpt lat="39.3850717" lon="16.9552817"><ele>309.0</ele><time>2026-03-29T09:43:12.028Z</time></trkpt><trkpt lat="39.3849917" lon="16.9552917"><ele>310.0</ele><time>2026-03-29T09:43:13.028Z</time></trkpt><trkpt lat="39.38492" lon="16.9553033"><ele>311.0</ele><time>2026-03-29T09:43:14.028Z</time></trkpt><trkpt lat="39.384845" lon="16.9553267"><ele>311.0</ele><time>2026-03-29T09:43:15.027Z</time></trkpt><trkpt lat="39.3847783" lon="16.955335"><ele>311.0</ele><time>2026-03-29T09:43:16.028Z</time></trkpt><trkpt lat="39.384715" lon="16.9553417"><ele>311.0</ele><time>2026-03-29T09:43:17.028Z</time></trkpt><trkpt lat="39.38465" lon="16.955345"><ele>311.0</ele><time>2026-03-29T09:43:18.028Z</time></trkpt><trkpt lat="39.384585" lon="16.955345"><ele>311.0</ele><time>2026-03-29T09:43:19.028Z</time></trkpt><trkpt lat="39.3844867" lon="16.95535"><ele>311.0</ele><time>2026-03-29T09:43:21.028Z</time></trkpt><trkpt lat="39.384415" lon="16.9553567"><ele>311.0</ele><time>2026-03-29T09:43:23.028Z</time></trkpt><trkpt lat="39.3842867" lon="16.9553633"><ele>311.83333333333337</ele><time>2026-03-29T09:43:36.027Z</time></trkpt><trkpt lat="39.3842067" lon="16.9553933"><ele>312.6666666666667</ele><time>2026-03-29T09:43:38.028Z</time></trkpt><trkpt lat="39.3840833" lon="16.9554367"><ele>313.5</ele><time>2026-03-29T09:43:40.028Z</time></trkpt><trkpt lat="39.384015" lon="16.9554517"><ele>314.3333333333333</ele><time>2026-03-29T09:43:41.028Z</time></trkpt><trkpt lat="39.3839483" lon="16.9554583"><ele>315.16666666666663</ele><time>2026-03-29T09:43:42.028Z</time></trkpt><trkpt lat="39.383875" lon="16.95547"><ele>316.0</ele><time>2026-03-29T09:43:43.027Z</time></trkpt><trkpt lat="39.3837983" lon="16.9554817"><ele>316.0</ele><time>2026-03-29T09:43:44.027Z</time></trkpt><trkpt lat="39.383715" lon="16.9554783"><ele>316.0</ele><time>2026-03-29T09:43:45.028Z</time></trkpt><trkpt lat="39.3836317" lon="16.95547"><ele>316.0</ele><time>2026-03-29T09:43:46.028Z</time></trkpt><trkpt lat="39.38356" lon="16.955465"><ele>316.0</ele><time>2026-03-29T09:43:47.028Z</time></trkpt><trkpt lat="39.383485" lon="16.9554417"><ele>316.0</ele><time>2026-03-29T09:43:48.028Z</time></trkpt><trkpt lat="39.3834083" lon="16.95541"><ele>316.0</ele><time>2026-03-29T09:43:49.028Z</time></trkpt><trkpt lat="39.3833233" lon="16.9553717"><ele>316.0</ele><time>2026-03-29T09:43:50.028Z</time></trkpt><trkpt lat="39.3832483" lon="16.9553367"><ele>316.0</ele><time>2026-03-29T09:43:51.028Z</time></trkpt><trkpt lat="39.3831633" lon="16.95531"><ele>316.0</ele><time>2026-03-29T09:43:52.027Z</time></trkpt><trkpt lat="39.383075" lon="16.9552917"><ele>316.0</ele><time>2026-03-29T09:43:53.028Z</time></trkpt><trkpt lat="39.3829883" lon="16.9552733"><ele>316.0</ele><time>2026-03-29T09:43:54.028Z</time></trkpt><trkpt lat="39.38292" lon="16.9552583"><ele>316.0</ele><time>2026-03-29T09:43:55.028Z</time></trkpt><trkpt lat="39.38285" lon="16.95524"><ele>315.0</ele><time>2026-03-29T09:43:56.028Z</time></trkpt><trkpt lat="39.3827533" lon="16.9552167"><ele>314.0</ele><time>2026-03-29T09:43:58.028Z</time></trkpt><trkpt lat="39.3826867" lon="16.9552083"><ele>313.0</ele><time>2026-03-29T09:44:01.027Z</time></trkpt><trkpt lat="39.3826083" lon="16.955185"><ele>312.0</ele><time>2026-03-29T09:44:06.028Z</time></trkpt><trkpt lat="39.382525" lon="16.9551633"><ele>311.0</ele><time>2026-03-29T09:44:09.028Z</time></trkpt><trkpt lat="39.3824267" lon="16.9551517"><ele>310.0</ele><time>2026-03-29T09:44:11.028Z</time></trkpt><trkpt lat="39.382305" lon="16.95514"><ele>310.0</ele><time>2026-03-29T09:44:13.028Z</time></trkpt><trkpt lat="39.3821867" lon="16.9551233"><ele>310.0</ele><time>2026-03-29T09:44:15.028Z</time></trkpt><trkpt lat="39.3821067" lon="16.9551167"><ele>310.0</ele><time>2026-03-29T09:44:17.027Z</time></trkpt><trkpt lat="39.3820383" lon="16.9550933"><ele>310.0</ele><time>2026-03-29T09:44:22.028Z</time></trkpt><trkpt lat="39.3819317" lon="16.9550567"><ele>310.0</ele><time>2026-03-29T09:44:25.028Z</time></trkpt><trkpt lat="39.3818667" lon="16.9550433"><ele>310.0</ele><time>2026-03-29T09:44:26.028Z</time></trkpt><trkpt lat="39.3817883" lon="16.9550383"><ele>310.0</ele><time>2026-03-29T09:44:27.028Z</time></trkpt><trkpt lat="39.381715" lon="16.9550467"><ele>310.0</ele><time>2026-03-29T09:44:28.028Z</time></trkpt><trkpt lat="39.3816267" lon="16.955075"><ele>310.0</ele><time>2026-03-29T09:44:30.028Z</time></trkpt><trkpt lat="39.3815367" lon="16.95508"><ele>310.0</ele><time>2026-03-29T09:44:37.028Z</time></trkpt><trkpt lat="39.381465" lon="16.9551033"><ele>310.0</ele><time>2026-03-29T09:44:39.028Z</time></trkpt><trkpt lat="39.3813583" lon="16.9551267"><ele>310.0</ele><time>2026-03-29T09:44:41.028Z</time></trkpt><trkpt lat="39.3812283" lon="16.955135"><ele>310.0</ele><time>2026-03-29T09:44:43.028Z</time></trkpt><trkpt lat="39.3811583" lon="16.9551367"><ele>310.0</ele><time>2026-03-29T09:44:44.028Z</time></trkpt><trkpt lat="39.3810917" lon="16.9551383"><ele>310.0</ele><time>2026-03-29T09:44:45.028Z</time></trkpt><trkpt lat="39.381025" lon="16.9551433"><ele>310.0</ele><time>2026-03-29T09:44:46.028Z</time></trkpt><trkpt lat="39.3809583" lon="16.9551567"><ele>310.0</ele><time>2026-03-29T09:44:47.028Z</time></trkpt><trkpt lat="39.3808933" lon="16.9551817"><ele>310.0</ele><time>2026-03-29T09:44:48.028Z</time></trkpt><trkpt lat="39.3808217" lon="16.9552133"><ele>310.0</ele><time>2026-03-29T09:44:49.028Z</time></trkpt><trkpt lat="39.3807533" lon="16.9552267"><ele>310.0</ele><time>2026-03-29T09:44:50.028Z</time></trkpt><trkpt lat="39.3806567" lon="16.95519"><ele>310.0</ele><time>2026-03-29T09:44:52.028Z</time></trkpt><trkpt lat="39.38058" lon="16.9551367"><ele>310.0</ele><time>2026-03-29T09:44:55.028Z</time></trkpt><trkpt lat="39.38051" lon="16.9551017"><ele>310.0</ele><time>2026-03-29T09:44:58.028Z</time></trkpt><trkpt lat="39.3804333" lon="16.9550667"><ele>310.0</ele><time>2026-03-29T09:45:01.028Z</time></trkpt><trkpt lat="39.3803767" lon="16.9550267"><ele>310.0</ele><time>2026-03-29T09:45:03.028Z</time></trkpt><trkpt lat="39.3803017" lon="16.9549717"><ele>310.6</ele><time>2026-03-29T09:45:06.028Z</time></trkpt><trkpt lat="39.38024" lon="16.95494"><ele>311.2</ele><time>2026-03-29T09:45:09.028Z</time></trkpt><trkpt lat="39.380135" lon="16.9548917"><ele>311.8</ele><time>2026-03-29T09:45:18.028Z</time></trkpt><trkpt lat="39.3800183" lon="16.954805"><ele>312.4</ele><time>2026-03-29T09:45:36.028Z</time></trkpt><trkpt lat="39.379945" lon="16.95473"><ele>313.0</ele><time>2026-03-29T09:45:42.028Z</time></trkpt><trkpt lat="39.3798833" lon="16.9546783"><ele>313.0</ele><time>2026-03-29T09:45:46.028Z</time></trkpt><trkpt lat="39.3798233" lon="16.9546417"><ele>313.0</ele><time>2026-03-29T09:46:17.028Z</time></trkpt><trkpt lat="39.3797417" lon="16.9545767"><ele>313.0</ele><time>2026-03-29T09:46:24.027Z</time></trkpt><trkpt lat="39.379675" lon="16.954535"><ele>313.0</ele><time>2026-03-29T09:46:27.027Z</time></trkpt><trkpt lat="39.3796017" lon="16.9544867"><ele>313.0</ele><time>2026-03-29T09:46:32.028Z</time></trkpt><trkpt lat="39.3794733" lon="16.954405"><ele>314.0</ele><time>2026-03-29T09:46:45.027Z</time></trkpt><trkpt lat="39.3793717" lon="16.95436"><ele>315.0</ele><time>2026-03-29T09:47:01.028Z</time></trkpt><trkpt lat="39.3793" lon="16.9543033"><ele>316.0</ele><time>2026-03-29T09:47:04.028Z</time></trkpt><trkpt lat="39.379225" lon="16.9542617"><ele>317.0</ele><time>2026-03-29T09:47:08.028Z</time></trkpt><trkpt lat="39.379105" lon="16.9542183"><ele>318.0</ele><time>2026-03-29T09:47:19.028Z</time></trkpt><trkpt lat="39.3790383" lon="16.9541917"><ele>314.2</ele><time>2026-03-29T09:47:24.028Z</time></trkpt><trkpt lat="39.3789783" lon="16.9541583"><ele>310.4</ele><time>2026-03-29T09:47:30.028Z</time></trkpt><trkpt lat="39.3789233" lon="16.954105"><ele>306.59999999999997</ele><time>2026-03-29T09:47:36.028Z</time></trkpt><trkpt lat="39.3787933" lon="16.9539867"><ele>302.8</ele><time>2026-03-29T09:47:54.028Z</time></trkpt><trkpt lat="39.378705" lon="16.9538783"><ele>299.0</ele><time>2026-03-29T09:48:09.028Z</time></trkpt><trkpt lat="39.3786483" lon="16.9538083"><ele>299.0</ele><time>2026-03-29T09:48:32.028Z</time></trkpt><trkpt lat="39.3786017" lon="16.95374"><ele>299.0</ele><time>2026-03-29T09:48:37.028Z</time></trkpt><trkpt lat="39.3785183" lon="16.9536383"><ele>299.0</ele><time>2026-03-29T09:48:51.028Z</time></trkpt><trkpt lat="39.37847" lon="16.9535783"><ele>299.0</ele><time>2026-03-29T09:48:56.027Z</time></trkpt><trkpt lat="39.3784" lon="16.9535367"><ele>299.0</ele><time>2026-03-29T09:49:01.028Z</time></trkpt><trkpt lat="39.3783317" lon="16.953495"><ele>299.0</ele><time>2026-03-29T09:49:04.028Z</time></trkpt><trkpt lat="39.378265" lon="16.9534367"><ele>299.0</ele><time>2026-03-29T09:49:07.028Z</time></trkpt><trkpt lat="39.3782017" lon="16.953385"><ele>299.0</ele><time>2026-03-29T09:49:10.028Z</time></trkpt><trkpt lat="39.3781417" lon="16.9533417"><ele>299.0</ele><time>2026-03-29T09:49:13.027Z</time></trkpt><trkpt lat="39.378075" lon="16.953295"><ele>299.0</ele><time>2026-03-29T09:49:30.028Z</time></trkpt><trkpt lat="39.3779717" lon="16.9532767"><ele>299.0</ele><time>2026-03-29T09:59:38.027Z</time></trkpt><trkpt lat="39.3779167" lon="16.9531967"><ele>299.0</ele><time>2026-03-29T10:00:01.027Z</time></trkpt><trkpt lat="39.3778567" lon="16.9531133"><ele>294.85714285714283</ele><time>2026-03-29T10:00:04.027Z</time></trkpt><trkpt lat="39.3777767" lon="16.953075"><ele>290.7142857142857</ele><time>2026-03-29T10:00:08.027Z</time></trkpt><trkpt lat="39.37771" lon="16.953025"><ele>286.57142857142856</ele><time>2026-03-29T10:00:11.027Z</time></trkpt><trkpt lat="39.3776583" lon="16.9529717"><ele>282.42857142857144</ele><time>2026-03-29T10:00:14.027Z</time></trkpt><trkpt lat="39.37762" lon="16.9528917"><ele>278.2857142857143</ele><time>2026-03-29T10:00:35.027Z</time></trkpt><trkpt lat="39.3775717" lon="16.9528117"><ele>274.1428571428571</ele><time>2026-03-29T10:00:40.027Z</time></trkpt><trkpt lat="39.37754" lon="16.952735"><ele>270.0</ele><time>2026-03-29T10:00:43.027Z</time></trkpt><trkpt lat="39.37747" lon="16.9526533"><ele>270.0</ele><time>2026-03-29T10:00:46.027Z</time></trkpt><trkpt lat="39.3773917" lon="16.9526183"><ele>270.0</ele><time>2026-03-29T10:00:48.027Z</time></trkpt><trkpt lat="39.3772983" lon="16.9525633"><ele>270.0</ele><time>2026-03-29T10:00:50.027Z</time></trkpt><trkpt lat="39.377215" lon="16.952505"><ele>270.0</ele><time>2026-03-29T10:00:52.026Z</time></trkpt><trkpt lat="39.3771267" lon="16.95245"><ele>270.0</ele><time>2026-03-29T10:00:54.027Z</time></trkpt><trkpt lat="39.3770267" lon="16.9524067"><ele>265.8</ele><time>2026-03-29T10:00:56.027Z</time></trkpt><trkpt lat="39.3769383" lon="16.952375"><ele>261.6</ele><time>2026-03-29T10:00:58.026Z</time></trkpt><trkpt lat="39.376845" lon="16.9523483"><ele>257.4</ele><time>2026-03-29T10:01:00.027Z</time></trkpt><trkpt lat="39.3767517" lon="16.952295"><ele>253.2</ele><time>2026-03-29T10:01:02.027Z</time></trkpt><trkpt lat="39.376655" lon="16.95226"><ele>249.0</ele><time>2026-03-29T10:01:04.027Z</time></trkpt><trkpt lat="39.37656" lon="16.9522317"><ele>249.0</ele><time>2026-03-29T10:01:06.027Z</time></trkpt><trkpt lat="39.3764767" lon="16.9521983"><ele>249.0</ele><time>2026-03-29T10:01:08.027Z</time></trkpt><trkpt lat="39.3764133" lon="16.95215"><ele>249.0</ele><time>2026-03-29T10:01:10.027Z</time></trkpt><trkpt lat="39.376365" lon="16.952075"><ele>249.0</ele><time>2026-03-29T10:01:12.027Z</time></trkpt><trkpt lat="39.3763183" lon="16.952005"><ele>249.0</ele><time>2026-03-29T10:01:14.027Z</time></trkpt><trkpt lat="39.37625" lon="16.95195"><ele>249.0</ele><time>2026-03-29T10:01:16.027Z</time></trkpt><trkpt lat="39.3761767" lon="16.9518817"><ele>249.33333333333334</ele><time>2026-03-29T10:01:18.027Z</time></trkpt><trkpt lat="39.3761083" lon="16.9518117"><ele>249.66666666666669</ele><time>2026-03-29T10:01:20.027Z</time></trkpt><trkpt lat="39.376045" lon="16.95176"><ele>250.0</ele><time>2026-03-29T10:01:22.027Z</time></trkpt><trkpt lat="39.3759533" lon="16.951725"><ele>250.33333333333334</ele><time>2026-03-29T10:04:03.026Z</time></trkpt><trkpt lat="39.375885" lon="16.9517067"><ele>250.66666666666669</ele><time>2026-03-29T10:04:05.026Z</time></trkpt><trkpt lat="39.3758283" lon="16.9516633"><ele>251.0</ele><time>2026-03-29T10:04:07.027Z</time></trkpt><trkpt lat="39.3757617" lon="16.9515867"><ele>249.5</ele><time>2026-03-29T10:04:10.026Z</time></trkpt><trkpt lat="39.3756767" lon="16.9515217"><ele>248.0</ele><time>2026-03-29T10:04:13.027Z</time></trkpt><trkpt lat="39.375595" lon="16.95143"><ele>246.5</ele><time>2026-03-29T10:04:15.027Z</time></trkpt><trkpt lat="39.3754983" lon="16.951325"><ele>245.0</ele><time>2026-03-29T10:04:17.027Z</time></trkpt><trkpt lat="39.3753917" lon="16.9512633"><ele>245.00000000000003</ele><time>2026-03-29T10:04:19.027Z</time></trkpt><trkpt lat="39.3753117" lon="16.951215"><ele>245.0</ele><time>2026-03-29T10:04:21.026Z</time></trkpt><trkpt lat="39.3752467" lon="16.9511417"><ele>245.0</ele><time>2026-03-29T10:04:23.027Z</time></trkpt><trkpt lat="39.375175" lon="16.951095"><ele>245.0</ele><time>2026-03-29T10:04:26.027Z</time></trkpt><trkpt lat="39.3751067" lon="16.9510617"><ele>245.00000000000003</ele><time>2026-03-29T10:04:29.027Z</time></trkpt><trkpt lat="39.37503" lon="16.9510067"><ele>245.0</ele><time>2026-03-29T10:04:32.027Z</time></trkpt><trkpt lat="39.374975" lon="16.9509567"><ele>245.0</ele><time>2026-03-29T10:04:34.027Z</time></trkpt><trkpt lat="39.37491" lon="16.9509017"><ele>245.0</ele><time>2026-03-29T10:04:37.026Z</time></trkpt><trkpt lat="39.3748483" lon="16.95084"><ele>245.0</ele><time>2026-03-29T10:04:43.027Z</time></trkpt><trkpt lat="39.3747933" lon="16.9507833"><ele>245.0</ele><time>2026-03-29T10:04:46.027Z</time></trkpt><trkpt lat="39.374735" lon="16.9507433"><ele>245.0</ele><time>2026-03-29T10:04:49.027Z</time></trkpt><trkpt lat="39.3746767" lon="16.9506983"><ele>245.0</ele><time>2026-03-29T10:04:52.027Z</time></trkpt><trkpt lat="39.37461" lon="16.9506783"><ele>245.0</ele><time>2026-03-29T10:04:55.026Z</time></trkpt><trkpt lat="39.3745467" lon="16.95067"><ele>243.16666666666669</ele><time>2026-03-29T10:05:18.026Z</time></trkpt><trkpt lat="39.374465" lon="16.9506517"><ele>241.33333333333334</ele><time>2026-03-29T10:05:22.025Z</time></trkpt><trkpt lat="39.3743867" lon="16.9506233"><ele>239.5</ele><time>2026-03-29T10:05:25.026Z</time></trkpt><trkpt lat="39.3743217" lon="16.950635"><ele>237.66666666666669</ele><time>2026-03-29T10:05:27.026Z</time></trkpt><trkpt lat="39.3742517" lon="16.9506583"><ele>235.83333333333334</ele><time>2026-03-29T10:05:29.026Z</time></trkpt><trkpt lat="39.3741817" lon="16.9506067"><ele>234.0</ele><time>2026-03-29T10:05:32.025Z</time></trkpt><trkpt lat="39.3741333" lon="16.95054"><ele>234.0</ele><time>2026-03-29T10:05:34.026Z</time></trkpt><trkpt lat="39.374085" lon="16.950485"><ele>234.0</ele><time>2026-03-29T10:05:36.026Z</time></trkpt><trkpt lat="39.3740133" lon="16.95045"><ele>234.0</ele><time>2026-03-29T10:05:39.026Z</time></trkpt><trkpt lat="39.3739467" lon="16.9504167"><ele>234.0</ele><time>2026-03-29T10:05:43.026Z</time></trkpt><trkpt lat="39.37387" lon="16.9503683"><ele>234.0</ele><time>2026-03-29T10:05:46.025Z</time></trkpt><trkpt lat="39.37379" lon="16.95031"><ele>234.0</ele><time>2026-03-29T10:05:48.025Z</time></trkpt><trkpt lat="39.3737117" lon="16.9502317"><ele>233.16666666666666</ele><time>2026-03-29T10:05:50.025Z</time></trkpt><trkpt lat="39.3736617" lon="16.9501183"><ele>232.33333333333331</ele><time>2026-03-29T10:05:52.025Z</time></trkpt><trkpt lat="39.37363" lon="16.9500083"><ele>231.5</ele><time>2026-03-29T10:05:54.026Z</time></trkpt><trkpt lat="39.37359" lon="16.94992"><ele>230.66666666666666</ele><time>2026-03-29T10:05:56.026Z</time></trkpt><trkpt lat="39.3735417" lon="16.9498417"><ele>229.83333333333331</ele><time>2026-03-29T10:05:58.026Z</time></trkpt><trkpt lat="39.3734917" lon="16.9497817"><ele>229.0</ele><time>2026-03-29T10:06:00.026Z</time></trkpt><trkpt lat="39.37344" lon="16.9497333"><ele>226.83333333333331</ele><time>2026-03-29T10:06:02.026Z</time></trkpt><trkpt lat="39.37337" lon="16.949705"><ele>224.66666666666666</ele><time>2026-03-29T10:06:05.026Z</time></trkpt><trkpt lat="39.3732833" lon="16.94966"><ele>222.5</ele><time>2026-03-29T10:06:08.026Z</time></trkpt><trkpt lat="39.37321" lon="16.9496367"><ele>220.33333333333331</ele><time>2026-03-29T10:06:10.026Z</time></trkpt><trkpt lat="39.3731267" lon="16.9496217"><ele>218.16666666666666</ele><time>2026-03-29T10:06:12.026Z</time></trkpt><trkpt lat="39.3730533" lon="16.949625"><ele>216.0</ele><time>2026-03-29T10:06:14.026Z</time></trkpt><trkpt lat="39.3729733" lon="16.9496317"><ele>213.33333333333334</ele><time>2026-03-29T10:06:16.026Z</time></trkpt><trkpt lat="39.372905" lon="16.9495883"><ele>210.66666666666669</ele><time>2026-03-29T10:06:18.026Z</time></trkpt><trkpt lat="39.3728467" lon="16.9494983"><ele>208.0</ele><time>2026-03-29T10:06:20.026Z</time></trkpt><trkpt lat="39.3727867" lon="16.949415"><ele>205.33333333333334</ele><time>2026-03-29T10:06:22.025Z</time></trkpt><trkpt lat="39.3727283" lon="16.9493417"><ele>202.66666666666669</ele><time>2026-03-29T10:06:24.026Z</time></trkpt><trkpt lat="39.3726567" lon="16.9493"><ele>200.0</ele><time>2026-03-29T10:06:27.026Z</time></trkpt><trkpt lat="39.3725967" lon="16.9492517"><ele>199.33333333333334</ele><time>2026-03-29T10:06:30.026Z</time></trkpt><trkpt lat="39.3725317" lon="16.949205"><ele>198.66666666666669</ele><time>2026-03-29T10:06:32.026Z</time></trkpt><trkpt lat="39.37245" lon="16.9491717"><ele>198.0</ele><time>2026-03-29T10:06:34.026Z</time></trkpt><trkpt lat="39.372385" lon="16.9491067"><ele>197.33333333333331</ele><time>2026-03-29T10:06:36.026Z</time></trkpt><trkpt lat="39.3723283" lon="16.949015"><ele>196.66666666666666</ele><time>2026-03-29T10:06:38.026Z</time></trkpt><trkpt lat="39.372315" lon="16.9489083"><ele>196.0</ele><time>2026-03-29T10:06:40.026Z</time></trkpt><trkpt lat="39.3723167" lon="16.9487967"><ele>196.0</ele><time>2026-03-29T10:06:42.026Z</time></trkpt><trkpt lat="39.3723183" lon="16.948655"><ele>196.0</ele><time>2026-03-29T10:06:44.026Z</time></trkpt><trkpt lat="39.3723033" lon="16.9485133"><ele>196.0</ele><time>2026-03-29T10:06:46.026Z</time></trkpt><trkpt lat="39.3722733" lon="16.9483867"><ele>196.0</ele><time>2026-03-29T10:06:48.026Z</time></trkpt><trkpt lat="39.3722483" lon="16.9482817"><ele>196.0</ele><time>2026-03-29T10:06:50.026Z</time></trkpt><trkpt lat="39.372235" lon="16.9481833"><ele>193.99999999999997</ele><time>2026-03-29T10:06:53.026Z</time></trkpt><trkpt lat="39.3722117" lon="16.94809"><ele>192.0</ele><time>2026-03-29T10:06:58.026Z</time></trkpt><trkpt lat="39.3721867" lon="16.9480133"><ele>190.0</ele><time>2026-03-29T10:07:02.026Z</time></trkpt><trkpt lat="39.372155" lon="16.9479283"><ele>188.0</ele><time>2026-03-29T10:07:05.025Z</time></trkpt><trkpt lat="39.3721267" lon="16.9478233"><ele>186.0</ele><time>2026-03-29T10:07:08.026Z</time></trkpt><trkpt lat="39.3720883" lon="16.94772"><ele>184.0</ele><time>2026-03-29T10:07:11.026Z</time></trkpt><trkpt lat="39.3720467" lon="16.9476467"><ele>183.66666666666669</ele><time>2026-03-29T10:07:14.026Z</time></trkpt><trkpt lat="39.37201" lon="16.9475783"><ele>183.33333333333334</ele><time>2026-03-29T10:07:17.026Z</time></trkpt><trkpt lat="39.3719567" lon="16.9475133"><ele>183.0</ele><time>2026-03-29T10:07:20.026Z</time></trkpt><trkpt lat="39.3718767" lon="16.9474467"><ele>182.66666666666666</ele><time>2026-03-29T10:07:23.026Z</time></trkpt><trkpt lat="39.3718183" lon="16.9473867"><ele>182.33333333333331</ele><time>2026-03-29T10:07:25.026Z</time></trkpt><trkpt lat="39.37177" lon="16.947305"><ele>182.0</ele><time>2026-03-29T10:07:27.026Z</time></trkpt><trkpt lat="39.371715" lon="16.94725"><ele>180.5</ele><time>2026-03-29T10:07:29.026Z</time></trkpt><trkpt lat="39.3716383" lon="16.9471983"><ele>179.0</ele><time>2026-03-29T10:07:32.026Z</time></trkpt><trkpt lat="39.3715767" lon="16.94718"><ele>177.5</ele><time>2026-03-29T10:07:34.026Z</time></trkpt><trkpt lat="39.3715017" lon="16.9471383"><ele>176.0</ele><time>2026-03-29T10:07:36.025Z</time></trkpt><trkpt lat="39.37141" lon="16.947085"><ele>174.5</ele><time>2026-03-29T10:07:38.025Z</time></trkpt><trkpt lat="39.371335" lon="16.9470067"><ele>173.0</ele><time>2026-03-29T10:07:40.026Z</time></trkpt><trkpt lat="39.3712667" lon="16.94691"><ele>171.0</ele><time>2026-03-29T10:07:42.026Z</time></trkpt><trkpt lat="39.3712133" lon="16.946815"><ele>169.0</ele><time>2026-03-29T10:07:44.026Z</time></trkpt><trkpt lat="39.3711667" lon="16.9467433"><ele>167.0</ele><time>2026-03-29T10:07:46.025Z</time></trkpt><trkpt lat="39.3711267" lon="16.94667"><ele>165.0</ele><time>2026-03-29T10:07:49.025Z</time></trkpt><trkpt lat="39.3710633" lon="16.9466033"><ele>163.0</ele><time>2026-03-29T10:07:52.025Z</time></trkpt><trkpt lat="39.3710167" lon="16.946525"><ele>161.0</ele><time>2026-03-29T10:07:54.026Z</time></trkpt><trkpt lat="39.3709917" lon="16.9464367"><ele>159.83333333333331</ele><time>2026-03-29T10:07:56.026Z</time></trkpt><trkpt lat="39.3709983" lon="16.9463483"><ele>158.66666666666666</ele><time>2026-03-29T10:07:58.026Z</time></trkpt><trkpt lat="39.3710333" lon="16.9462667"><ele>157.5</ele><time>2026-03-29T10:08:00.026Z</time></trkpt><trkpt lat="39.371065" lon="16.9461917"><ele>156.33333333333334</ele><time>2026-03-29T10:08:02.026Z</time></trkpt><trkpt lat="39.37104" lon="16.9460583"><ele>155.16666666666669</ele><time>2026-03-29T10:08:32.026Z</time></trkpt><trkpt lat="39.3709683" lon="16.94603"><ele>154.0</ele><time>2026-03-29T10:08:36.026Z</time></trkpt><trkpt lat="39.37092" lon="16.94609"><ele>154.0</ele><time>2026-03-29T10:08:40.025Z</time></trkpt><trkpt lat="39.3708533" lon="16.94614"><ele>154.0</ele><time>2026-03-29T10:08:43.026Z</time></trkpt><trkpt lat="39.370775" lon="16.94617"><ele>154.0</ele><time>2026-03-29T10:08:45.026Z</time></trkpt><trkpt lat="39.3706967" lon="16.946165"><ele>154.0</ele><time>2026-03-29T10:08:47.026Z</time></trkpt><trkpt lat="39.37062" lon="16.9461367"><ele>154.0</ele><time>2026-03-29T10:08:50.026Z</time></trkpt><trkpt lat="39.37056" lon="16.9460983"><ele>154.0</ele><time>2026-03-29T10:09:02.026Z</time></trkpt><trkpt lat="39.3704817" lon="16.9460633"><ele>153.33333333333334</ele><time>2026-03-29T10:09:04.026Z</time></trkpt><trkpt lat="39.3704117" lon="16.945995"><ele>152.66666666666669</ele><time>2026-03-29T10:09:06.026Z</time></trkpt><trkpt lat="39.3703517" lon="16.9459167"><ele>152.0</ele><time>2026-03-29T10:09:08.026Z</time></trkpt><trkpt lat="39.370305" lon="16.945835"><ele>151.33333333333334</ele><time>2026-03-29T10:09:10.026Z</time></trkpt><trkpt lat="39.3702467" lon="16.9458"><ele>150.66666666666666</ele><time>2026-03-29T10:09:13.026Z</time></trkpt><trkpt lat="39.37015" lon="16.9458017"><ele>150.0</ele><time>2026-03-29T10:09:20.026Z</time></trkpt><trkpt lat="39.370065" lon="16.9457817"><ele>150.0</ele><time>2026-03-29T10:09:24.026Z</time></trkpt><trkpt lat="39.3700033" lon="16.9457583"><ele>150.0</ele><time>2026-03-29T10:09:27.026Z</time></trkpt><trkpt lat="39.3700167" lon="16.9456333"><ele>150.0</ele><time>2026-03-29T10:10:24.026Z</time></trkpt><trkpt lat="39.3700533" lon="16.9455583"><ele>150.0</ele><time>2026-03-29T10:10:29.026Z</time></trkpt><trkpt lat="39.3701133" lon="16.945495"><ele>150.0</ele><time>2026-03-29T10:10:32.026Z</time></trkpt><trkpt lat="39.3702" lon="16.9454483"><ele>150.0</ele><time>2026-03-29T10:10:34.026Z</time></trkpt><trkpt lat="39.3703217" lon="16.9453883"><ele>149.99999999999997</ele><time>2026-03-29T10:10:36.026Z</time></trkpt><trkpt lat="39.370395" lon="16.945365"><ele>150.0</ele><time>2026-03-29T10:10:37.026Z</time></trkpt><trkpt lat="39.3704683" lon="16.9453483"><ele>150.0</ele><time>2026-03-29T10:10:38.025Z</time></trkpt><trkpt lat="39.37054" lon="16.9453267"><ele>150.0</ele><time>2026-03-29T10:10:39.025Z</time></trkpt><trkpt lat="39.3706033" lon="16.9453017"><ele>150.0</ele><time>2026-03-29T10:10:40.026Z</time></trkpt><trkpt lat="39.370665" lon="16.9452533"><ele>149.99999999999997</ele><time>2026-03-29T10:10:41.025Z</time></trkpt><trkpt lat="39.37072" lon="16.945195"><ele>150.0</ele><time>2026-03-29T10:10:42.026Z</time></trkpt><trkpt lat="39.3707717" lon="16.9451433"><ele>150.4</ele><time>2026-03-29T10:10:43.026Z</time></trkpt><trkpt lat="39.3708467" lon="16.945075"><ele>150.8</ele><time>2026-03-29T10:10:45.026Z</time></trkpt><trkpt lat="39.3709317" lon="16.9450417"><ele>151.2</ele><time>2026-03-29T10:10:47.026Z</time></trkpt><trkpt lat="39.371035" lon="16.9450017"><ele>151.6</ele><time>2026-03-29T10:10:49.026Z</time></trkpt><trkpt lat="39.3711283" lon="16.944935"><ele>152.0</ele><time>2026-03-29T10:10:51.025Z</time></trkpt><trkpt lat="39.3712033" lon="16.9448267"><ele>153.0</ele><time>2026-03-29T10:10:53.026Z</time></trkpt><trkpt lat="39.3712733" lon="16.9447"><ele>154.0</ele><time>2026-03-29T10:10:55.026Z</time></trkpt><trkpt lat="39.3713367" lon="16.94457"><ele>155.0</ele><time>2026-03-29T10:10:57.026Z</time></trkpt><trkpt lat="39.3713917" lon="16.94445"><ele>156.0</ele><time>2026-03-29T10:10:59.026Z</time></trkpt><trkpt lat="39.37145" lon="16.9443617"><ele>157.0</ele><time>2026-03-29T10:11:01.026Z</time></trkpt><trkpt lat="39.37151" lon="16.94424"><ele>159.0</ele><time>2026-03-29T10:11:03.026Z</time></trkpt><trkpt lat="39.371565" lon="16.9441233"><ele>161.0</ele><time>2026-03-29T10:11:05.026Z</time></trkpt><trkpt lat="39.3716217" lon="16.9440267"><ele>163.0</ele><time>2026-03-29T10:11:07.026Z</time></trkpt><trkpt lat="39.3716767" lon="16.94393"><ele>165.0</ele><time>2026-03-29T10:11:09.026Z</time></trkpt><trkpt lat="39.371725" lon="16.9438117"><ele>167.0</ele><time>2026-03-29T10:11:11.026Z</time></trkpt><trkpt lat="39.371765" lon="16.9437233"><ele>167.0</ele><time>2026-03-29T10:11:13.026Z</time></trkpt><trkpt lat="39.3718067" lon="16.9436467"><ele>167.0</ele><time>2026-03-29T10:11:15.026Z</time></trkpt><trkpt lat="39.3718433" lon="16.943575"><ele>167.0</ele><time>2026-03-29T10:11:17.026Z</time></trkpt><trkpt lat="39.3718717" lon="16.9435"><ele>167.0</ele><time>2026-03-29T10:11:19.026Z</time></trkpt><trkpt lat="39.3719067" lon="16.94343"><ele>167.0</ele><time>2026-03-29T10:11:21.026Z</time></trkpt><trkpt lat="39.371945" lon="16.9433217"><ele>167.0</ele><time>2026-03-29T10:11:24.026Z</time></trkpt><trkpt lat="39.371965" lon="16.94321"><ele>167.0</ele><time>2026-03-29T10:11:26.025Z</time></trkpt><trkpt lat="39.3719717" lon="16.9430717"><ele>168.71428571428572</ele><time>2026-03-29T10:11:28.026Z</time></trkpt><trkpt lat="39.3719733" lon="16.94299"><ele>170.42857142857144</ele><time>2026-03-29T10:11:29.026Z</time></trkpt><trkpt lat="39.371975" lon="16.9429083"><ele>172.14285714285717</ele><time>2026-03-29T10:11:30.026Z</time></trkpt><trkpt lat="39.3719783" lon="16.9428217"><ele>173.85714285714286</ele><time>2026-03-29T10:11:31.025Z</time></trkpt><trkpt lat="39.3719683" lon="16.942665"><ele>175.57142857142858</ele><time>2026-03-29T10:11:33.026Z</time></trkpt><trkpt lat="39.3719617" lon="16.9425817"><ele>177.2857142857143</ele><time>2026-03-29T10:11:34.026Z</time></trkpt><trkpt lat="39.3719567" lon="16.942495"><ele>179.0</ele><time>2026-03-29T10:11:35.025Z</time></trkpt><trkpt lat="39.371965" lon="16.9423333"><ele>180.42857142857144</ele><time>2026-03-29T10:11:37.026Z</time></trkpt><trkpt lat="39.3719767" lon="16.9422517"><ele>181.85714285714286</ele><time>2026-03-29T10:11:38.026Z</time></trkpt><trkpt lat="39.3719933" lon="16.942165"><ele>183.28571428571428</ele><time>2026-03-29T10:11:39.026Z</time></trkpt><trkpt lat="39.372005" lon="16.9420767"><ele>184.71428571428572</ele><time>2026-03-29T10:11:40.026Z</time></trkpt><trkpt lat="39.3720167" lon="16.9419933"><ele>186.14285714285714</ele><time>2026-03-29T10:11:41.026Z</time></trkpt><trkpt lat="39.37204" lon="16.9419133"><ele>187.57142857142858</ele><time>2026-03-29T10:11:42.025Z</time></trkpt><trkpt lat="39.372065" lon="16.941835"><ele>189.0</ele><time>2026-03-29T10:11:43.026Z</time></trkpt><trkpt lat="39.3720833" lon="16.9417483"><ele>190.79999999999998</ele><time>2026-03-29T10:11:44.026Z</time></trkpt><trkpt lat="39.372095" lon="16.941665"><ele>192.6</ele><time>2026-03-29T10:11:45.026Z</time></trkpt><trkpt lat="39.3721117" lon="16.941585"><ele>194.4</ele><time>2026-03-29T10:11:46.026Z</time></trkpt><trkpt lat="39.3721367" lon="16.9414533"><ele>196.2</ele><time>2026-03-29T10:11:48.026Z</time></trkpt><trkpt lat="39.3721667" lon="16.9413233"><ele>198.0</ele><time>2026-03-29T10:11:50.026Z</time></trkpt><trkpt lat="39.37221" lon="16.9411817"><ele>198.0</ele><time>2026-03-29T10:11:52.026Z</time></trkpt><trkpt lat="39.3722333" lon="16.941095"><ele>198.0</ele><time>2026-03-29T10:11:53.026Z</time></trkpt><trkpt lat="39.372265" lon="16.941005"><ele>198.0</ele><time>2026-03-29T10:11:54.026Z</time></trkpt><trkpt lat="39.37229" lon="16.940905"><ele>198.0</ele><time>2026-03-29T10:11:55.026Z</time></trkpt><trkpt lat="39.37231" lon="16.9408083"><ele>198.0</ele><time>2026-03-29T10:11:56.026Z</time></trkpt><trkpt lat="39.3723217" lon="16.940715"><ele>198.0</ele><time>2026-03-29T10:11:57.026Z</time></trkpt><trkpt lat="39.3723417" lon="16.9405883"><ele>202.4</ele><time>2026-03-29T10:11:59.026Z</time></trkpt><trkpt lat="39.3723517" lon="16.9404583"><ele>206.8</ele><time>2026-03-29T10:12:01.026Z</time></trkpt><trkpt lat="39.372385" lon="16.940315"><ele>211.2</ele><time>2026-03-29T10:12:03.026Z</time></trkpt><trkpt lat="39.3723967" lon="16.94019"><ele>215.6</ele><time>2026-03-29T10:12:05.025Z</time></trkpt><trkpt lat="39.3724233" lon="16.9400517"><ele>220.0</ele><time>2026-03-29T10:12:07.026Z</time></trkpt><trkpt lat="39.3724517" lon="16.9399267"><ele>224.2</ele><time>2026-03-29T10:12:09.026Z</time></trkpt><trkpt lat="39.37247" lon="16.9398033"><ele>228.4</ele><time>2026-03-29T10:12:11.026Z</time></trkpt><trkpt lat="39.372485" lon="16.93969"><ele>232.60000000000002</ele><time>2026-03-29T10:12:13.026Z</time></trkpt><trkpt lat="39.37253" lon="16.93957"><ele>236.8</ele><time>2026-03-29T10:12:15.025Z</time></trkpt><trkpt lat="39.37259" lon="16.9394583"><ele>241.0</ele><time>2026-03-29T10:12:17.026Z</time></trkpt><trkpt lat="39.3726617" lon="16.939345"><ele>241.0</ele><time>2026-03-29T10:12:19.026Z</time></trkpt><trkpt lat="39.3727617" lon="16.9392467"><ele>241.0</ele><time>2026-03-29T10:12:21.026Z</time></trkpt><trkpt lat="39.3728633" lon="16.939185"><ele>241.0</ele><time>2026-03-29T10:12:23.026Z</time></trkpt><trkpt lat="39.372955" lon="16.9390983"><ele>241.0</ele><time>2026-03-29T10:12:25.025Z</time></trkpt><trkpt lat="39.3730083" lon="16.9389883"><ele>244.33333333333331</ele><time>2026-03-29T10:12:27.026Z</time></trkpt><trkpt lat="39.3730517" lon="16.9389"><ele>247.66666666666666</ele><time>2026-03-29T10:12:29.026Z</time></trkpt><trkpt lat="39.3731117" lon="16.93882"><ele>251.0</ele><time>2026-03-29T10:12:31.026Z</time></trkpt><trkpt lat="39.3731717" lon="16.9387067"><ele>254.33333333333331</ele><time>2026-03-29T10:12:33.025Z</time></trkpt><trkpt lat="39.3732133" lon="16.9386033"><ele>257.6666666666667</ele><time>2026-03-29T10:12:35.025Z</time></trkpt><trkpt lat="39.3732617" lon="16.938535"><ele>261.0</ele><time>2026-03-29T10:12:37.025Z</time></trkpt><trkpt lat="39.3733233" lon="16.9384933"><ele>261.0</ele><time>2026-03-29T10:12:39.026Z</time></trkpt><trkpt lat="39.3733667" lon="16.9384167"><ele>261.0</ele><time>2026-03-29T10:12:41.025Z</time></trkpt><trkpt lat="39.373365" lon="16.9382583"><ele>261.0</ele><time>2026-03-29T10:12:43.026Z</time></trkpt><trkpt lat="39.3733617" lon="16.9381617"><ele>261.0</ele><time>2026-03-29T10:12:44.026Z</time></trkpt><trkpt lat="39.3733617" lon="16.93806"><ele>261.0</ele><time>2026-03-29T10:12:45.026Z</time></trkpt><trkpt lat="39.3733617" lon="16.9379567"><ele>261.0</ele><time>2026-03-29T10:12:46.026Z</time></trkpt><trkpt lat="39.373355" lon="16.937845"><ele>260.42857142857144</ele><time>2026-03-29T10:12:47.026Z</time></trkpt><trkpt lat="39.3733533" lon="16.9377367"><ele>259.85714285714283</ele><time>2026-03-29T10:12:48.026Z</time></trkpt><trkpt lat="39.3733483" lon="16.9376333"><ele>259.2857142857143</ele><time>2026-03-29T10:12:49.026Z</time></trkpt><trkpt lat="39.37335" lon="16.9375433"><ele>258.7142857142857</ele><time>2026-03-29T10:12:50.026Z</time></trkpt><trkpt lat="39.3733633" lon="16.9374583"><ele>258.14285714285717</ele><time>2026-03-29T10:12:51.026Z</time></trkpt><trkpt lat="39.3733983" lon="16.9373867"><ele>257.57142857142856</ele><time>2026-03-29T10:12:52.026Z</time></trkpt><trkpt lat="39.3734467" lon="16.9373283"><ele>257.0</ele><time>2026-03-29T10:12:53.026Z</time></trkpt><trkpt lat="39.3735" lon="16.9372583"><ele>256.0</ele><time>2026-03-29T10:12:54.026Z</time></trkpt><trkpt lat="39.373545" lon="16.9371883"><ele>255.0</ele><time>2026-03-29T10:12:55.026Z</time></trkpt><trkpt lat="39.3735967" lon="16.9371117"><ele>254.0</ele><time>2026-03-29T10:12:56.026Z</time></trkpt><trkpt lat="39.3736483" lon="16.9370383"><ele>253.0</ele><time>2026-03-29T10:12:57.026Z</time></trkpt><trkpt lat="39.3736933" lon="16.9369667"><ele>252.00000000000003</ele><time>2026-03-29T10:12:58.026Z</time></trkpt><trkpt lat="39.3737867" lon="16.9368567"><ele>251.0</ele><time>2026-03-29T10:13:00.026Z</time></trkpt><trkpt lat="39.3738517" lon="16.93682"><ele>252.20000000000002</ele><time>2026-03-29T10:13:01.026Z</time></trkpt><trkpt lat="39.373915" lon="16.9367933"><ele>253.40000000000003</ele><time>2026-03-29T10:13:02.026Z</time></trkpt><trkpt lat="39.3740367" lon="16.9367583"><ele>254.6</ele><time>2026-03-29T10:13:04.026Z</time></trkpt><trkpt lat="39.3741433" lon="16.9367283"><ele>255.8</ele><time>2026-03-29T10:13:06.026Z</time></trkpt><trkpt lat="39.3742283" lon="16.9366767"><ele>257.0</ele><time>2026-03-29T10:13:08.026Z</time></trkpt><trkpt lat="39.3743167" lon="16.9366167"><ele>257.0</ele><time>2026-03-29T10:13:10.026Z</time></trkpt><trkpt lat="39.3744017" lon="16.93656"><ele>257.0</ele><time>2026-03-29T10:13:12.026Z</time></trkpt><trkpt lat="39.3744967" lon="16.9365217"><ele>257.0</ele><time>2026-03-29T10:13:14.026Z</time></trkpt><trkpt lat="39.37459" lon="16.9364967"><ele>257.0</ele><time>2026-03-29T10:13:16.026Z</time></trkpt><trkpt lat="39.37468" lon="16.9364867"><ele>257.0</ele><time>2026-03-29T10:13:18.026Z</time></trkpt><trkpt lat="39.3747567" lon="16.9364617"><ele>259.2857142857143</ele><time>2026-03-29T10:13:20.026Z</time></trkpt><trkpt lat="39.3748217" lon="16.9364283"><ele>261.57142857142856</ele><time>2026-03-29T10:13:22.026Z</time></trkpt><trkpt lat="39.374885" lon="16.9363883"><ele>263.8571428571429</ele><time>2026-03-29T10:13:24.026Z</time></trkpt><trkpt lat="39.3749467" lon="16.936325"><ele>266.1428571428571</ele><time>2026-03-29T10:13:26.026Z</time></trkpt><trkpt lat="39.3750183" lon="16.936265"><ele>268.42857142857144</ele><time>2026-03-29T10:13:28.026Z</time></trkpt><trkpt lat="39.37508" lon="16.936215"><ele>270.7142857142857</ele><time>2026-03-29T10:13:30.026Z</time></trkpt><trkpt lat="39.3751417" lon="16.9361817"><ele>273.0</ele><time>2026-03-29T10:13:32.026Z</time></trkpt><trkpt lat="39.3752283" lon="16.9361433"><ele>273.0</ele><time>2026-03-29T10:13:34.026Z</time></trkpt><trkpt lat="39.375325" lon="16.936105"><ele>273.0</ele><time>2026-03-29T10:13:36.026Z</time></trkpt><trkpt lat="39.3754317" lon="16.9360617"><ele>273.0</ele><time>2026-03-29T10:13:38.026Z</time></trkpt><trkpt lat="39.3755417" lon="16.9360033"><ele>273.0</ele><time>2026-03-29T10:13:40.026Z</time></trkpt><trkpt lat="39.3756417" lon="16.9359333"><ele>273.0</ele><time>2026-03-29T10:13:42.026Z</time></trkpt><trkpt lat="39.3757283" lon="16.9358467"><ele>271.0</ele><time>2026-03-29T10:13:44.026Z</time></trkpt><trkpt lat="39.3757983" lon="16.9357783"><ele>269.0</ele><time>2026-03-29T10:13:46.025Z</time></trkpt><trkpt lat="39.3758483" lon="16.9357283"><ele>267.0</ele><time>2026-03-29T10:13:48.026Z</time></trkpt><trkpt lat="39.3758867" lon="16.9356567"><ele>265.0</ele><time>2026-03-29T10:13:51.026Z</time></trkpt><trkpt lat="39.3758683" lon="16.935575"><ele>263.0</ele><time>2026-03-29T10:13:53.026Z</time></trkpt><trkpt lat="39.37582" lon="16.93549"><ele>261.0</ele><time>2026-03-29T10:13:55.026Z</time></trkpt><trkpt lat="39.3757667" lon="16.9353967"><ele>261.0</ele><time>2026-03-29T10:13:57.026Z</time></trkpt><trkpt lat="39.3757117" lon="16.9353117"><ele>261.0</ele><time>2026-03-29T10:13:59.026Z</time></trkpt><trkpt lat="39.37565" lon="16.9352133"><ele>261.0</ele><time>2026-03-29T10:14:01.026Z</time></trkpt><trkpt lat="39.3756117" lon="16.9350933"><ele>261.0</ele><time>2026-03-29T10:14:03.025Z</time></trkpt><trkpt lat="39.3756433" lon="16.934955"><ele>261.0</ele><time>2026-03-29T10:14:05.026Z</time></trkpt><trkpt lat="39.3757117" lon="16.9348717"><ele>260.3333333333333</ele><time>2026-03-29T10:14:07.026Z</time></trkpt><trkpt lat="39.3757967" lon="16.9347967"><ele>259.6666666666667</ele><time>2026-03-29T10:14:09.026Z</time></trkpt><trkpt lat="39.375865" lon="16.93473"><ele>259.0</ele><time>2026-03-29T10:14:11.026Z</time></trkpt><trkpt lat="39.37592" lon="16.934675"><ele>258.33333333333337</ele><time>2026-03-29T10:14:13.026Z</time></trkpt><trkpt lat="39.3759717" lon="16.93461"><ele>257.6666666666667</ele><time>2026-03-29T10:14:15.026Z</time></trkpt><trkpt lat="39.3760217" lon="16.93453"><ele>257.0</ele><time>2026-03-29T10:14:17.026Z</time></trkpt><trkpt lat="39.3760733" lon="16.9344233"><ele>257.0</ele><time>2026-03-29T10:14:19.026Z</time></trkpt><trkpt lat="39.3761283" lon="16.9343033"><ele>257.0</ele><time>2026-03-29T10:14:21.026Z</time></trkpt><trkpt lat="39.376175" lon="16.9341917"><ele>257.0</ele><time>2026-03-29T10:14:23.026Z</time></trkpt><trkpt lat="39.3762183" lon="16.9340933"><ele>257.0</ele><time>2026-03-29T10:14:25.026Z</time></trkpt><trkpt lat="39.37626" lon="16.9340167"><ele>257.0</ele><time>2026-03-29T10:14:27.026Z</time></trkpt><trkpt lat="39.3763" lon="16.9339283"><ele>257.0</ele><time>2026-03-29T10:14:29.026Z</time></trkpt><trkpt lat="39.3763367" lon="16.9338317"><ele>259.2</ele><time>2026-03-29T10:14:31.026Z</time></trkpt><trkpt lat="39.376395" lon="16.9337483"><ele>261.4</ele><time>2026-03-29T10:14:33.026Z</time></trkpt><trkpt lat="39.3764583" lon="16.933665"><ele>263.6</ele><time>2026-03-29T10:14:35.026Z</time></trkpt><trkpt lat="39.37652" lon="16.9335733"><ele>265.8</ele><time>2026-03-29T10:14:37.026Z</time></trkpt><trkpt lat="39.3765883" lon="16.9334817"><ele>268.0</ele><time>2026-03-29T10:14:39.025Z</time></trkpt><trkpt lat="39.3766667" lon="16.9333917"><ele>265.57142857142856</ele><time>2026-03-29T10:14:41.026Z</time></trkpt><trkpt lat="39.376715" lon="16.9333333"><ele>263.1428571428571</ele><time>2026-03-29T10:14:43.025Z</time></trkpt><trkpt lat="39.376775" lon="16.9332733"><ele>260.71428571428567</ele><time>2026-03-29T10:14:50.025Z</time></trkpt><trkpt lat="39.3768217" lon="16.9332167"><ele>258.2857142857143</ele><time>2026-03-29T10:14:54.025Z</time></trkpt><trkpt lat="39.3768717" lon="16.9331517"><ele>255.85714285714283</ele><time>2026-03-29T10:14:59.025Z</time></trkpt><trkpt lat="39.376925" lon="16.93309"><ele>253.4285714285714</ele><time>2026-03-29T10:15:02.025Z</time></trkpt><trkpt lat="39.3769933" lon="16.9330417"><ele>250.99999999999997</ele><time>2026-03-29T10:15:05.025Z</time></trkpt><trkpt lat="39.3770467" lon="16.9329867"><ele>251.00000000000003</ele><time>2026-03-29T10:15:09.025Z</time></trkpt><trkpt lat="39.3770917" lon="16.9329267"><ele>251.0</ele><time>2026-03-29T10:15:13.025Z</time></trkpt><trkpt lat="39.3771633" lon="16.9328783"><ele>251.0</ele><time>2026-03-29T10:15:17.025Z</time></trkpt><trkpt lat="39.37722" lon="16.9328367"><ele>251.0</ele><time>2026-03-29T10:15:19.025Z</time></trkpt><trkpt lat="39.3773067" lon="16.93279"><ele>251.00000000000003</ele><time>2026-03-29T10:15:21.025Z</time></trkpt><trkpt lat="39.377395" lon="16.932735"><ele>251.0</ele><time>2026-03-29T10:15:23.025Z</time></trkpt><trkpt lat="39.37746" lon="16.9327"><ele>252.33333333333334</ele><time>2026-03-29T10:15:25.024Z</time></trkpt><trkpt lat="39.3775367" lon="16.9326817"><ele>253.66666666666669</ele><time>2026-03-29T10:15:27.025Z</time></trkpt><trkpt lat="39.3776267" lon="16.93269"><ele>255.0</ele><time>2026-03-29T10:15:30.025Z</time></trkpt><trkpt lat="39.3777067" lon="16.9327433"><ele>256.3333333333333</ele><time>2026-03-29T10:15:32.025Z</time></trkpt><trkpt lat="39.3777817" lon="16.9328117"><ele>257.66666666666663</ele><time>2026-03-29T10:15:34.025Z</time></trkpt><trkpt lat="39.377835" lon="16.9328883"><ele>259.0</ele><time>2026-03-29T10:15:36.024Z</time></trkpt><trkpt lat="39.377885" lon="16.932955"><ele>259.0</ele><time>2026-03-29T10:15:38.024Z</time></trkpt><trkpt lat="39.377935" lon="16.93301"><ele>259.0</ele><time>2026-03-29T10:15:40.025Z</time></trkpt><trkpt lat="39.378005" lon="16.932995"><ele>259.0</ele><time>2026-03-29T10:15:44.025Z</time></trkpt><trkpt lat="39.3780317" lon="16.9328967"><ele>259.0</ele><time>2026-03-29T10:15:47.024Z</time></trkpt><trkpt lat="39.3780617" lon="16.9328033"><ele>259.0</ele><time>2026-03-29T10:15:49.025Z</time></trkpt><trkpt lat="39.378095" lon="16.9327083"><ele>259.0</ele><time>2026-03-29T10:15:51.025Z</time></trkpt><trkpt lat="39.3781483" lon="16.9326133"><ele>258.3333333333333</ele><time>2026-03-29T10:15:53.025Z</time></trkpt><trkpt lat="39.3782133" lon="16.9325483"><ele>257.66666666666663</ele><time>2026-03-29T10:15:55.025Z</time></trkpt><trkpt lat="39.3782767" lon="16.9325267"><ele>257.0</ele><time>2026-03-29T10:15:57.025Z</time></trkpt><trkpt lat="39.3783367" lon="16.9324767"><ele>256.3333333333333</ele><time>2026-03-29T10:16:00.025Z</time></trkpt><trkpt lat="39.3784117" lon="16.9324217"><ele>255.66666666666666</ele><time>2026-03-29T10:16:15.024Z</time></trkpt><trkpt lat="39.3784717" lon="16.932365"><ele>255.0</ele><time>2026-03-29T10:16:26.025Z</time></trkpt><trkpt lat="39.3785383" lon="16.9323067"><ele>255.0</ele><time>2026-03-29T10:16:28.025Z</time></trkpt><trkpt lat="39.3785933" lon="16.932245"><ele>255.0</ele><time>2026-03-29T10:16:30.025Z</time></trkpt><trkpt lat="39.3786517" lon="16.9321883"><ele>255.0</ele><time>2026-03-29T10:16:32.025Z</time></trkpt><trkpt lat="39.3787317" lon="16.93213"><ele>255.0</ele><time>2026-03-29T10:16:35.025Z</time></trkpt><trkpt lat="39.3788067" lon="16.9320867"><ele>255.0</ele><time>2026-03-29T10:16:38.024Z</time></trkpt><trkpt lat="39.3788683" lon="16.932055"><ele>255.0</ele><time>2026-03-29T10:16:41.025Z</time></trkpt><trkpt lat="39.3789433" lon="16.9320417"><ele>257.1666666666667</ele><time>2026-03-29T10:17:04.025Z</time></trkpt><trkpt lat="39.3790067" lon="16.9320517"><ele>259.3333333333333</ele><time>2026-03-29T10:17:09.025Z</time></trkpt><trkpt lat="39.3790883" lon="16.9321"><ele>261.5</ele><time>2026-03-29T10:17:12.025Z</time></trkpt><trkpt lat="39.3791483" lon="16.9321717"><ele>263.66666666666663</ele><time>2026-03-29T10:17:15.025Z</time></trkpt><trkpt lat="39.3791917" lon="16.9322517"><ele>265.8333333333333</ele><time>2026-03-29T10:18:42.025Z</time></trkpt><trkpt lat="39.3792517" lon="16.9322767"><ele>268.0</ele><time>2026-03-29T10:18:47.025Z</time></trkpt><trkpt lat="39.3793267" lon="16.9323033"><ele>268.0</ele><time>2026-03-29T10:19:17.025Z</time></trkpt><trkpt lat="39.3794233" lon="16.93233"><ele>268.0</ele><time>2026-03-29T10:19:19.025Z</time></trkpt><trkpt lat="39.37953" lon="16.9323767"><ele>268.0</ele><time>2026-03-29T10:19:21.025Z</time></trkpt><trkpt lat="39.3796383" lon="16.9324233"><ele>268.0</ele><time>2026-03-29T10:19:23.025Z</time></trkpt><trkpt lat="39.3797483" lon="16.9324433"><ele>268.0</ele><time>2026-03-29T10:19:25.025Z</time></trkpt><trkpt lat="39.379845" lon="16.9324433"><ele>267.66666666666663</ele><time>2026-03-29T10:19:27.025Z</time></trkpt><trkpt lat="39.3799267" lon="16.9324533"><ele>267.3333333333333</ele><time>2026-03-29T10:19:29.024Z</time></trkpt><trkpt lat="39.3800133" lon="16.9324517"><ele>267.0</ele><time>2026-03-29T10:19:31.024Z</time></trkpt><trkpt lat="39.3801167" lon="16.9324067"><ele>266.6666666666667</ele><time>2026-03-29T10:19:33.025Z</time></trkpt><trkpt lat="39.3802083" lon="16.932365"><ele>266.33333333333337</ele><time>2026-03-29T10:19:35.025Z</time></trkpt><trkpt lat="39.3802767" lon="16.9323833"><ele>266.0</ele><time>2026-03-29T10:19:37.025Z</time></trkpt><trkpt lat="39.3803517" lon="16.9324183"><ele>266.0</ele><time>2026-03-29T10:19:39.025Z</time></trkpt><trkpt lat="39.38042" lon="16.9324633"><ele>266.0</ele><time>2026-03-29T10:19:41.024Z</time></trkpt><trkpt lat="39.3804883" lon="16.932515"><ele>266.0</ele><time>2026-03-29T10:19:43.025Z</time></trkpt><trkpt lat="39.380555" lon="16.9325483"><ele>266.0</ele><time>2026-03-29T10:19:45.024Z</time></trkpt><trkpt lat="39.3806217" lon="16.93244"><ele>266.0</ele><time>2026-03-29T10:20:33.025Z</time></trkpt><trkpt lat="39.380605" lon="16.93231"><ele>266.0</ele><time>2026-03-29T10:20:36.025Z</time></trkpt><trkpt lat="39.3805983" lon="16.9321817"><ele>265.6666666666667</ele><time>2026-03-29T10:20:38.024Z</time></trkpt><trkpt lat="39.3805967" lon="16.9320833"><ele>265.33333333333337</ele><time>2026-03-29T10:20:40.025Z</time></trkpt><trkpt lat="39.3805883" lon="16.9319617"><ele>265.0</ele><time>2026-03-29T10:20:43.025Z</time></trkpt><trkpt lat="39.38057" lon="16.9318817"><ele>264.6666666666667</ele><time>2026-03-29T10:20:45.025Z</time></trkpt><trkpt lat="39.38057" lon="16.9317817"><ele>264.3333333333333</ele><time>2026-03-29T10:20:47.025Z</time></trkpt><trkpt lat="39.3805617" lon="16.9316417"><ele>264.0</ele><time>2026-03-29T10:20:49.025Z</time></trkpt><trkpt lat="39.38056" lon="16.93155"><ele>264.0</ele><time>2026-03-29T10:20:50.025Z</time></trkpt><trkpt lat="39.3805683" lon="16.9314483"><ele>264.0</ele><time>2026-03-29T10:20:51.025Z</time></trkpt><trkpt lat="39.380575" lon="16.9313333"><ele>264.0</ele><time>2026-03-29T10:20:52.025Z</time></trkpt><trkpt lat="39.3805883" lon="16.9312217"><ele>264.0</ele><time>2026-03-29T10:20:53.025Z</time></trkpt><trkpt lat="39.3805967" lon="16.9311067"><ele>264.0</ele><time>2026-03-29T10:20:54.025Z</time></trkpt><trkpt lat="39.3805917" lon="16.9309967"><ele>264.0</ele><time>2026-03-29T10:20:55.025Z</time></trkpt><trkpt lat="39.3805667" lon="16.93088"><ele>262.1666666666667</ele><time>2026-03-29T10:20:56.025Z</time></trkpt><trkpt lat="39.38053" lon="16.930775"><ele>260.3333333333333</ele><time>2026-03-29T10:20:57.025Z</time></trkpt><trkpt lat="39.3804933" lon="16.93068"><ele>258.5</ele><time>2026-03-29T10:20:58.025Z</time></trkpt><trkpt lat="39.38046" lon="16.9305933"><ele>256.66666666666663</ele><time>2026-03-29T10:20:59.025Z</time></trkpt><trkpt lat="39.38043" lon="16.9305033"><ele>254.83333333333331</ele><time>2026-03-29T10:21:00.025Z</time></trkpt><trkpt lat="39.3804067" lon="16.9304033"><ele>253.0</ele><time>2026-03-29T10:21:01.024Z</time></trkpt><trkpt lat="39.3803867" lon="16.9303083"><ele>249.99999999999997</ele><time>2026-03-29T10:21:02.025Z</time></trkpt><trkpt lat="39.38038" lon="16.93022"><ele>247.0</ele><time>2026-03-29T10:21:03.025Z</time></trkpt><trkpt lat="39.3804" lon="16.9300967"><ele>244.0</ele><time>2026-03-29T10:21:05.024Z</time></trkpt><trkpt lat="39.3804183" lon="16.9300083"><ele>241.0</ele><time>2026-03-29T10:21:07.025Z</time></trkpt><trkpt lat="39.3804317" lon="16.9299233"><ele>237.99999999999997</ele><time>2026-03-29T10:21:51.025Z</time></trkpt><trkpt lat="39.38044" lon="16.92983"><ele>235.0</ele><time>2026-03-29T10:21:54.025Z</time></trkpt><trkpt lat="39.3804517" lon="16.9297067"><ele>234.66666666666666</ele><time>2026-03-29T10:21:57.025Z</time></trkpt><trkpt lat="39.3804817" lon="16.9295833"><ele>234.33333333333331</ele><time>2026-03-29T10:21:59.025Z</time></trkpt><trkpt lat="39.3805167" lon="16.9294767"><ele>234.0</ele><time>2026-03-29T10:22:01.025Z</time></trkpt><trkpt lat="39.380535" lon="16.9293933"><ele>233.66666666666669</ele><time>2026-03-29T10:22:03.025Z</time></trkpt><trkpt lat="39.3805467" lon="16.9293033"><ele>233.33333333333334</ele><time>2026-03-29T10:22:06.024Z</time></trkpt><trkpt lat="39.3805617" lon="16.929205"><ele>233.0</ele><time>2026-03-29T10:22:09.025Z</time></trkpt><trkpt lat="39.3805533" lon="16.9291183"><ele>234.60000000000002</ele><time>2026-03-29T10:22:12.025Z</time></trkpt><trkpt lat="39.380535" lon="16.929025"><ele>236.20000000000002</ele><time>2026-03-29T10:22:14.025Z</time></trkpt><trkpt lat="39.3805417" lon="16.9289367"><ele>237.8</ele><time>2026-03-29T10:22:16.025Z</time></trkpt><trkpt lat="39.3805633" lon="16.92882"><ele>239.4</ele><time>2026-03-29T10:22:18.025Z</time></trkpt><trkpt lat="39.3805633" lon="16.9286783"><ele>241.0</ele><time>2026-03-29T10:22:20.025Z</time></trkpt><trkpt lat="39.3805433" lon="16.9285317"><ele>241.0</ele><time>2026-03-29T10:22:22.024Z</time></trkpt><trkpt lat="39.3805167" lon="16.9284083"><ele>241.00000000000003</ele><time>2026-03-29T10:22:24.025Z</time></trkpt><trkpt lat="39.3804867" lon="16.9282683"><ele>241.00000000000003</ele><time>2026-03-29T10:22:26.025Z</time></trkpt><trkpt lat="39.3804433" lon="16.9281467"><ele>241.0</ele><time>2026-03-29T10:22:28.025Z</time></trkpt><trkpt lat="39.3804133" lon="16.9280683"><ele>241.0</ele><time>2026-03-29T10:22:30.025Z</time></trkpt><trkpt lat="39.38038" lon="16.927975"><ele>242.16666666666666</ele><time>2026-03-29T10:22:35.024Z</time></trkpt><trkpt lat="39.38035" lon="16.9278883"><ele>243.33333333333331</ele><time>2026-03-29T10:22:38.024Z</time></trkpt><trkpt lat="39.3803033" lon="16.9278233"><ele>244.5</ele><time>2026-03-29T10:22:42.023Z</time></trkpt><trkpt lat="39.3802417" lon="16.9277567"><ele>245.66666666666669</ele><time>2026-03-29T10:22:48.024Z</time></trkpt><trkpt lat="39.380195" lon="16.92768"><ele>246.83333333333334</ele><time>2026-03-29T10:22:51.024Z</time></trkpt><trkpt lat="39.3801567" lon="16.9276117"><ele>248.0</ele><time>2026-03-29T10:22:53.024Z</time></trkpt><trkpt lat="39.3801067" lon="16.9274867"><ele>248.0</ele><time>2026-03-29T10:22:55.024Z</time></trkpt><trkpt lat="39.3800883" lon="16.9274083"><ele>248.0</ele><time>2026-03-29T10:22:56.024Z</time></trkpt><trkpt lat="39.380075" lon="16.9272633"><ele>248.0</ele><time>2026-03-29T10:22:58.024Z</time></trkpt><trkpt lat="39.3800683" lon="16.9271267"><ele>248.0</ele><time>2026-03-29T10:23:00.024Z</time></trkpt><trkpt lat="39.3800483" lon="16.9270167"><ele>248.0</ele><time>2026-03-29T10:23:02.024Z</time></trkpt><trkpt lat="39.3800167" lon="16.926895"><ele>248.0</ele><time>2026-03-29T10:23:04.024Z</time></trkpt><trkpt lat="39.3800233" lon="16.9267517"><ele>248.0</ele><time>2026-03-29T10:23:06.023Z</time></trkpt><trkpt lat="39.3800683" lon="16.92664"><ele>248.0</ele><time>2026-03-29T10:23:08.024Z</time></trkpt><trkpt lat="39.3801017" lon="16.9264883"><ele>248.0</ele><time>2026-03-29T10:23:10.023Z</time></trkpt><trkpt lat="39.380095" lon="16.92633"><ele>248.00000000000003</ele><time>2026-03-29T10:23:12.024Z</time></trkpt><trkpt lat="39.38008" lon="16.9262483"><ele>248.0</ele><time>2026-03-29T10:23:13.023Z</time></trkpt><trkpt lat="39.3800567" lon="16.92612"><ele>248.0</ele><time>2026-03-29T10:23:15.024Z</time></trkpt><trkpt lat="39.380055" lon="16.9260167"><ele>248.0</ele><time>2026-03-29T10:23:17.024Z</time></trkpt><trkpt lat="39.380075" lon="16.9259117"><ele>248.00000000000003</ele><time>2026-03-29T10:23:19.024Z</time></trkpt><trkpt lat="39.38009" lon="16.925775"><ele>248.0</ele><time>2026-03-29T10:23:21.024Z</time></trkpt><trkpt lat="39.3800933" lon="16.9256183"><ele>248.4</ele><time>2026-03-29T10:23:23.024Z</time></trkpt><trkpt lat="39.3800633" lon="16.9254867"><ele>248.8</ele><time>2026-03-29T10:23:25.024Z</time></trkpt><trkpt lat="39.3800133" lon="16.9253517"><ele>249.2</ele><time>2026-03-29T10:23:27.023Z</time></trkpt><trkpt lat="39.3799617" lon="16.92523"><ele>249.6</ele><time>2026-03-29T10:23:29.024Z</time></trkpt><trkpt lat="39.3799217" lon="16.92513"><ele>250.0</ele><time>2026-03-29T10:23:31.023Z</time></trkpt><trkpt lat="39.3798933" lon="16.9249783"><ele>251.0</ele><time>2026-03-29T10:23:33.024Z</time></trkpt><trkpt lat="39.3798767" lon="16.9248317"><ele>252.0</ele><time>2026-03-29T10:23:35.023Z</time></trkpt><trkpt lat="39.3798717" lon="16.9247033"><ele>253.0</ele><time>2026-03-29T10:23:37.023Z</time></trkpt><trkpt lat="39.37986" lon="16.9245817"><ele>254.0</ele><time>2026-03-29T10:23:39.024Z</time></trkpt><trkpt lat="39.379825" lon="16.9244767"><ele>255.0</ele><time>2026-03-29T10:23:41.024Z</time></trkpt><trkpt lat="39.3797733" lon="16.924405"><ele>255.0</ele><time>2026-03-29T10:23:43.024Z</time></trkpt><trkpt lat="39.3797233" lon="16.924345"><ele>255.0</ele><time>2026-03-29T10:23:45.023Z</time></trkpt><trkpt lat="39.3796433" lon="16.9243067"><ele>255.0</ele><time>2026-03-29T10:23:47.024Z</time></trkpt><trkpt lat="39.3795667" lon="16.9242817"><ele>255.0</ele><time>2026-03-29T10:23:49.024Z</time></trkpt><trkpt lat="39.3794783" lon="16.9242567"><ele>255.0</ele><time>2026-03-29T10:23:51.024Z</time></trkpt><trkpt lat="39.3793933" lon="16.9242333"><ele>255.0</ele><time>2026-03-29T10:23:53.024Z</time></trkpt><trkpt lat="39.37932" lon="16.92422"><ele>254.16666666666666</ele><time>2026-03-29T10:23:55.024Z</time></trkpt><trkpt lat="39.37925" lon="16.9241983"><ele>253.33333333333331</ele><time>2026-03-29T10:23:59.024Z</time></trkpt><trkpt lat="39.37918" lon="16.9241533"><ele>252.5</ele><time>2026-03-29T10:24:11.024Z</time></trkpt><trkpt lat="39.3791267" lon="16.924075"><ele>251.66666666666666</ele><time>2026-03-29T10:24:14.024Z</time></trkpt><trkpt lat="39.3790767" lon="16.923975"><ele>250.83333333333331</ele><time>2026-03-29T10:24:17.023Z</time></trkpt><trkpt lat="39.37901" lon="16.92385"><ele>250.0</ele><time>2026-03-29T10:24:19.024Z</time></trkpt><trkpt lat="39.3789567" lon="16.9237467"><ele>250.0</ele><time>2026-03-29T10:24:20.024Z</time></trkpt><trkpt lat="39.378895" lon="16.9236233"><ele>250.0</ele><time>2026-03-29T10:24:21.024Z</time></trkpt><trkpt lat="39.3788267" lon="16.9235017"><ele>250.0</ele><time>2026-03-29T10:24:22.024Z</time></trkpt><trkpt lat="39.378765" lon="16.9233833"><ele>250.0</ele><time>2026-03-29T10:24:23.024Z</time></trkpt><trkpt lat="39.3787217" lon="16.9232833"><ele>250.0</ele><time>2026-03-29T10:24:24.024Z</time></trkpt><trkpt lat="39.3786833" lon="16.92319"><ele>248.85714285714283</ele><time>2026-03-29T10:24:25.024Z</time></trkpt><trkpt lat="39.3786417" lon="16.9231133"><ele>247.71428571428572</ele><time>2026-03-29T10:24:26.024Z</time></trkpt><trkpt lat="39.3785933" lon="16.92304"><ele>246.57142857142856</ele><time>2026-03-29T10:24:27.024Z</time></trkpt><trkpt lat="39.3785483" lon="16.922975"><ele>245.42857142857142</ele><time>2026-03-29T10:24:28.024Z</time></trkpt><trkpt lat="39.3784917" lon="16.9229217"><ele>244.28571428571428</ele><time>2026-03-29T10:24:29.023Z</time></trkpt><trkpt lat="39.37843" lon="16.9228767"><ele>243.14285714285714</ele><time>2026-03-29T10:24:30.023Z</time></trkpt><trkpt lat="39.3783533" lon="16.9228417"><ele>242.0</ele><time>2026-03-29T10:24:31.024Z</time></trkpt><trkpt lat="39.3782767" lon="16.9228217"><ele>242.00000000000003</ele><time>2026-03-29T10:24:32.024Z</time></trkpt><trkpt lat="39.3782117" lon="16.9228217"><ele>242.0</ele><time>2026-03-29T10:24:33.023Z</time></trkpt><trkpt lat="39.3781467" lon="16.922825"><ele>242.0</ele><time>2026-03-29T10:24:34.024Z</time></trkpt><trkpt lat="39.3780833" lon="16.9228283"><ele>242.0</ele><time>2026-03-29T10:24:35.024Z</time></trkpt><trkpt lat="39.3779567" lon="16.92281"><ele>242.00000000000003</ele><time>2026-03-29T10:24:37.024Z</time></trkpt><trkpt lat="39.3778883" lon="16.922795"><ele>242.0</ele><time>2026-03-29T10:24:38.024Z</time></trkpt><trkpt lat="39.3778167" lon="16.9227867"><ele>243.33333333333334</ele><time>2026-03-29T10:24:39.024Z</time></trkpt><trkpt lat="39.3777367" lon="16.92281"><ele>244.66666666666669</ele><time>2026-03-29T10:24:40.023Z</time></trkpt><trkpt lat="39.377655" lon="16.9228667"><ele>246.0</ele><time>2026-03-29T10:24:41.023Z</time></trkpt><trkpt lat="39.3775883" lon="16.9229433"><ele>247.33333333333331</ele><time>2026-03-29T10:24:42.024Z</time></trkpt><trkpt lat="39.3775417" lon="16.923035"><ele>248.66666666666666</ele><time>2026-03-29T10:24:43.024Z</time></trkpt><trkpt lat="39.37752" lon="16.923145"><ele>250.0</ele><time>2026-03-29T10:24:44.024Z</time></trkpt><trkpt lat="39.3775083" lon="16.9232783"><ele>249.75</ele><time>2026-03-29T10:24:45.024Z</time></trkpt><trkpt lat="39.377495" lon="16.92343"><ele>249.5</ele><time>2026-03-29T10:24:46.023Z</time></trkpt><trkpt lat="39.3774683" lon="16.9236017"><ele>249.25</ele><time>2026-03-29T10:24:47.023Z</time></trkpt><trkpt lat="39.3774333" lon="16.9237783"><ele>249.0</ele><time>2026-03-29T10:24:48.024Z</time></trkpt><trkpt lat="39.3774017" lon="16.9239583"><ele>249.0</ele><time>2026-03-29T10:24:49.024Z</time></trkpt><trkpt lat="39.377375" lon="16.92413"><ele>249.0</ele><time>2026-03-29T10:24:50.024Z</time></trkpt><trkpt lat="39.3773483" lon="16.9242967"><ele>249.0</ele><time>2026-03-29T10:24:51.023Z</time></trkpt><trkpt lat="39.37732" lon="16.9244633"><ele>249.0</ele><time>2026-03-29T10:24:52.023Z</time></trkpt><trkpt lat="39.3772883" lon="16.924625"><ele>249.0</ele><time>2026-03-29T10:24:53.024Z</time></trkpt><trkpt lat="39.3772583" lon="16.9247683"><ele>248.99999999999997</ele><time>2026-03-29T10:24:54.024Z</time></trkpt><trkpt lat="39.37722" lon="16.924885"><ele>248.99999999999997</ele><time>2026-03-29T10:24:55.023Z</time></trkpt><trkpt lat="39.3771783" lon="16.9249883"><ele>249.0</ele><time>2026-03-29T10:24:56.024Z</time></trkpt><trkpt lat="39.3771183" lon="16.9250683"><ele>249.0</ele><time>2026-03-29T10:24:57.023Z</time></trkpt><trkpt lat="39.3770317" lon="16.92513"><ele>250.83333333333334</ele><time>2026-03-29T10:24:58.024Z</time></trkpt><trkpt lat="39.3769467" lon="16.9251667"><ele>252.66666666666669</ele><time>2026-03-29T10:24:59.024Z</time></trkpt><trkpt lat="39.3768617" lon="16.92518"><ele>254.5</ele><time>2026-03-29T10:25:00.024Z</time></trkpt><trkpt lat="39.3767833" lon="16.9251617"><ele>256.33333333333337</ele><time>2026-03-29T10:25:01.023Z</time></trkpt><trkpt lat="39.3767083" lon="16.9251183"><ele>258.1666666666667</ele><time>2026-03-29T10:25:02.024Z</time></trkpt><trkpt lat="39.3766433" lon="16.9250467"><ele>260.0</ele><time>2026-03-29T10:25:03.024Z</time></trkpt><trkpt lat="39.3765883" lon="16.9249617"><ele>260.0</ele><time>2026-03-29T10:25:04.024Z</time></trkpt><trkpt lat="39.3765317" lon="16.9248817"><ele>260.0</ele><time>2026-03-29T10:25:05.024Z</time></trkpt><trkpt lat="39.376475" lon="16.9247983"><ele>260.0</ele><time>2026-03-29T10:25:06.024Z</time></trkpt><trkpt lat="39.3764167" lon="16.924715"><ele>260.0</ele><time>2026-03-29T10:25:07.023Z</time></trkpt><trkpt lat="39.37636" lon="16.92463"><ele>260.0</ele><time>2026-03-29T10:25:08.023Z</time></trkpt><trkpt lat="39.3763217" lon="16.924535"><ele>260.0</ele><time>2026-03-29T10:25:09.024Z</time></trkpt><trkpt lat="39.3762867" lon="16.92445"><ele>258.4</ele><time>2026-03-29T10:25:10.024Z</time></trkpt><trkpt lat="39.376265" lon="16.9243467"><ele>256.8</ele><time>2026-03-29T10:25:11.024Z</time></trkpt><trkpt lat="39.3762483" lon="16.9242283"><ele>255.2</ele><time>2026-03-29T10:25:12.024Z</time></trkpt><trkpt lat="39.3762417" lon="16.924095"><ele>253.6</ele><time>2026-03-29T10:25:13.024Z</time></trkpt><trkpt lat="39.3762333" lon="16.923955"><ele>252.0</ele><time>2026-03-29T10:25:14.023Z</time></trkpt><trkpt lat="39.3762083" lon="16.9238183"><ele>252.0</ele><time>2026-03-29T10:25:15.024Z</time></trkpt><trkpt lat="39.3761733" lon="16.9236817"><ele>252.0</ele><time>2026-03-29T10:25:16.023Z</time></trkpt><trkpt lat="39.3761133" lon="16.9235433"><ele>252.0</ele><time>2026-03-29T10:25:17.024Z</time></trkpt><trkpt lat="39.3760283" lon="16.9234117"><ele>252.0</ele><time>2026-03-29T10:25:18.024Z</time></trkpt><trkpt lat="39.375935" lon="16.92328"><ele>255.0</ele><time>2026-03-29T10:25:19.024Z</time></trkpt><trkpt lat="39.375845" lon="16.9231467"><ele>258.0</ele><time>2026-03-29T10:25:20.024Z</time></trkpt><trkpt lat="39.3757717" lon="16.9230067"><ele>261.0</ele><time>2026-03-29T10:25:21.024Z</time></trkpt><trkpt lat="39.3756967" lon="16.92287"><ele>264.0</ele><time>2026-03-29T10:25:22.024Z</time></trkpt><trkpt lat="39.3756333" lon="16.9227383"><ele>264.0</ele><time>2026-03-29T10:25:23.024Z</time></trkpt><trkpt lat="39.3755667" lon="16.9226133"><ele>264.0</ele><time>2026-03-29T10:25:24.023Z</time></trkpt><trkpt lat="39.37551" lon="16.9225083"><ele>264.0</ele><time>2026-03-29T10:25:25.024Z</time></trkpt><trkpt lat="39.3754667" lon="16.9224183"><ele>264.0</ele><time>2026-03-29T10:25:26.024Z</time></trkpt><trkpt lat="39.3754367" lon="16.9223367"><ele>264.0</ele><time>2026-03-29T10:25:27.023Z</time></trkpt><trkpt lat="39.37539" lon="16.9221767"><ele>263.8</ele><time>2026-03-29T10:25:29.024Z</time></trkpt><trkpt lat="39.3753733" lon="16.9220783"><ele>263.59999999999997</ele><time>2026-03-29T10:25:30.023Z</time></trkpt><trkpt lat="39.3753583" lon="16.9219817"><ele>263.4</ele><time>2026-03-29T10:25:31.024Z</time></trkpt><trkpt lat="39.3753433" lon="16.9218633"><ele>263.2</ele><time>2026-03-29T10:25:32.024Z</time></trkpt><trkpt lat="39.375325" lon="16.9217283"><ele>263.0</ele><time>2026-03-29T10:25:33.024Z</time></trkpt><trkpt lat="39.375305" lon="16.9215883"><ele>263.0</ele><time>2026-03-29T10:25:34.024Z</time></trkpt><trkpt lat="39.3752817" lon="16.92145"><ele>263.0</ele><time>2026-03-29T10:25:35.024Z</time></trkpt><trkpt lat="39.3752617" lon="16.92132"><ele>263.0</ele><time>2026-03-29T10:25:36.024Z</time></trkpt><trkpt lat="39.3752483" lon="16.9212033"><ele>263.0</ele><time>2026-03-29T10:25:37.024Z</time></trkpt><trkpt lat="39.375225" lon="16.9210933"><ele>263.0</ele><time>2026-03-29T10:25:38.024Z</time></trkpt><trkpt lat="39.3752" lon="16.920965"><ele>264.0</ele><time>2026-03-29T10:25:39.024Z</time></trkpt><trkpt lat="39.3751817" lon="16.9208367"><ele>265.0</ele><time>2026-03-29T10:25:40.024Z</time></trkpt><trkpt lat="39.375165" lon="16.9206967"><ele>266.0</ele><time>2026-03-29T10:25:41.024Z</time></trkpt><trkpt lat="39.3751517" lon="16.9205483"><ele>267.0</ele><time>2026-03-29T10:25:42.024Z</time></trkpt><trkpt lat="39.37515" lon="16.9203833"><ele>267.0</ele><time>2026-03-29T10:25:43.024Z</time></trkpt><trkpt lat="39.375145" lon="16.9202133"><ele>267.0</ele><time>2026-03-29T10:25:44.024Z</time></trkpt><trkpt lat="39.375145" lon="16.9200483"><ele>267.0</ele><time>2026-03-29T10:25:45.024Z</time></trkpt><trkpt lat="39.3751533" lon="16.9198667"><ele>267.0</ele><time>2026-03-29T10:25:46.024Z</time></trkpt><trkpt lat="39.37516" lon="16.9196783"><ele>267.0</ele><time>2026-03-29T10:25:47.023Z</time></trkpt><trkpt lat="39.3751433" lon="16.9194867"><ele>267.0</ele><time>2026-03-29T10:25:48.024Z</time></trkpt><trkpt lat="39.3751183" lon="16.9193083"><ele>267.0</ele><time>2026-03-29T10:25:49.023Z</time></trkpt><trkpt lat="39.3750767" lon="16.9191367"><ele>267.0</ele><time>2026-03-29T10:25:50.024Z</time></trkpt><trkpt lat="39.3750133" lon="16.9189833"><ele>267.0</ele><time>2026-03-29T10:25:51.024Z</time></trkpt><trkpt lat="39.37494" lon="16.9188483"><ele>267.0</ele><time>2026-03-29T10:25:52.024Z</time></trkpt><trkpt lat="39.37488" lon="16.9187117"><ele>267.0</ele><time>2026-03-29T10:25:53.023Z</time></trkpt><trkpt lat="39.3748467" lon="16.9185617"><ele>267.0</ele><time>2026-03-29T10:25:54.024Z</time></trkpt><trkpt lat="39.374835" lon="16.9183983"><ele>267.3333333333333</ele><time>2026-03-29T10:25:55.024Z</time></trkpt><trkpt lat="39.3748417" lon="16.9182167"><ele>267.66666666666663</ele><time>2026-03-29T10:25:56.024Z</time></trkpt><trkpt lat="39.3748667" lon="16.9180033"><ele>268.0</ele><time>2026-03-29T10:25:57.024Z</time></trkpt><trkpt lat="39.3748933" lon="16.917765"><ele>266.0</ele><time>2026-03-29T10:25:58.024Z</time></trkpt><trkpt lat="39.37491" lon="16.917515"><ele>264.0</ele><time>2026-03-29T10:25:59.023Z</time></trkpt><trkpt lat="39.3749283" lon="16.9172567"><ele>262.0</ele><time>2026-03-29T10:26:00.024Z</time></trkpt><trkpt lat="39.3749483" lon="16.9170133"><ele>262.0</ele><time>2026-03-29T10:26:01.024Z</time></trkpt><trkpt lat="39.3749683" lon="16.9167833"><ele>262.0</ele><time>2026-03-29T10:26:02.024Z</time></trkpt><trkpt lat="39.3749817" lon="16.9165683"><ele>262.0</ele><time>2026-03-29T10:26:03.024Z</time></trkpt><trkpt lat="39.375" lon="16.9163617"><ele>261.0</ele><time>2026-03-29T10:26:04.024Z</time></trkpt><trkpt lat="39.3750183" lon="16.91616"><ele>260.0</ele><time>2026-03-29T10:26:05.024Z</time></trkpt><trkpt lat="39.3750283" lon="16.91597"><ele>259.0</ele><time>2026-03-29T10:26:06.024Z</time></trkpt><trkpt lat="39.3750433" lon="16.915785"><ele>258.0</ele><time>2026-03-29T10:26:07.023Z</time></trkpt><trkpt lat="39.3750567" lon="16.9156017"><ele>257.5</ele><time>2026-03-29T10:26:08.023Z</time></trkpt><trkpt lat="39.37508" lon="16.915425"><ele>257.0</ele><time>2026-03-29T10:26:09.024Z</time></trkpt><trkpt lat="39.3751017" lon="16.9152417"><ele>256.5</ele><time>2026-03-29T10:26:10.023Z</time></trkpt><trkpt lat="39.3751167" lon="16.9150517"><ele>256.0</ele><time>2026-03-29T10:26:11.023Z</time></trkpt><trkpt lat="39.37513" lon="16.9148617"><ele>255.66666666666666</ele><time>2026-03-29T10:26:12.024Z</time></trkpt><trkpt lat="39.375145" lon="16.914665"><ele>255.33333333333331</ele><time>2026-03-29T10:26:13.024Z</time></trkpt><trkpt lat="39.3751567" lon="16.9144717"><ele>255.0</ele><time>2026-03-29T10:26:14.024Z</time></trkpt><trkpt lat="39.37517" lon="16.91428"><ele>254.25</ele><time>2026-03-29T10:26:15.024Z</time></trkpt><trkpt lat="39.3751883" lon="16.9141083"><ele>253.5</ele><time>2026-03-29T10:26:16.024Z</time></trkpt><trkpt lat="39.3752017" lon="16.913955"><ele>252.75</ele><time>2026-03-29T10:26:17.024Z</time></trkpt><trkpt lat="39.3752" lon="16.9138017"><ele>252.0</ele><time>2026-03-29T10:26:18.024Z</time></trkpt><trkpt lat="39.3751867" lon="16.9136467"><ele>252.0</ele><time>2026-03-29T10:26:19.024Z</time></trkpt><trkpt lat="39.375145" lon="16.913505"><ele>252.0</ele><time>2026-03-29T10:26:20.023Z</time></trkpt><trkpt lat="39.3751033" lon="16.913355"><ele>252.0</ele><time>2026-03-29T10:26:21.024Z</time></trkpt><trkpt lat="39.3750417" lon="16.9132133"><ele>252.0</ele><time>2026-03-29T10:26:22.024Z</time></trkpt><trkpt lat="39.3749667" lon="16.91308"><ele>252.25</ele><time>2026-03-29T10:26:23.024Z</time></trkpt><trkpt lat="39.3748867" lon="16.9129467"><ele>252.5</ele><time>2026-03-29T10:26:24.024Z</time></trkpt><trkpt lat="39.3748083" lon="16.91281"><ele>252.75</ele><time>2026-03-29T10:26:25.024Z</time></trkpt><trkpt lat="39.37473" lon="16.9126733"><ele>253.0</ele><time>2026-03-29T10:26:26.023Z</time></trkpt><trkpt lat="39.3746583" lon="16.9125417"><ele>254.0</ele><time>2026-03-29T10:26:27.023Z</time></trkpt><trkpt lat="39.374575" lon="16.91242"><ele>255.0</ele><time>2026-03-29T10:26:28.023Z</time></trkpt><trkpt lat="39.374505" lon="16.9122833"><ele>256.0</ele><time>2026-03-29T10:26:29.024Z</time></trkpt><trkpt lat="39.3744367" lon="16.912155"><ele>257.0</ele><time>2026-03-29T10:26:30.024Z</time></trkpt><trkpt lat="39.3743633" lon="16.912015"><ele>257.0</ele><time>2026-03-29T10:26:31.024Z</time></trkpt><trkpt lat="39.3742817" lon="16.91186"><ele>257.0</ele><time>2026-03-29T10:26:32.024Z</time></trkpt><trkpt lat="39.3741867" lon="16.911705"><ele>257.0</ele><time>2026-03-29T10:26:33.024Z</time></trkpt><trkpt lat="39.3740933" lon="16.9115483"><ele>258.6666666666667</ele><time>2026-03-29T10:26:34.023Z</time></trkpt><trkpt lat="39.374" lon="16.9113833"><ele>260.3333333333333</ele><time>2026-03-29T10:26:35.024Z</time></trkpt><trkpt lat="39.3739017" lon="16.9112183"><ele>262.0</ele><time>2026-03-29T10:26:36.024Z</time></trkpt><trkpt lat="39.373805" lon="16.911055"><ele>263.25</ele><time>2026-03-29T10:26:37.024Z</time></trkpt><trkpt lat="39.37372" lon="16.910905"><ele>264.5</ele><time>2026-03-29T10:26:38.024Z</time></trkpt><trkpt lat="39.3736417" lon="16.91075"><ele>265.75</ele><time>2026-03-29T10:26:39.024Z</time></trkpt><trkpt lat="39.37358" lon="16.9105783"><ele>267.0</ele><time>2026-03-29T10:26:40.024Z</time></trkpt><trkpt lat="39.373525" lon="16.9104017"><ele>267.0</ele><time>2026-03-29T10:26:41.024Z</time></trkpt><trkpt lat="39.3734767" lon="16.9102183"><ele>267.0</ele><time>2026-03-29T10:26:42.024Z</time></trkpt><trkpt lat="39.3734317" lon="16.9100367"><ele>267.0</ele><time>2026-03-29T10:26:43.024Z</time></trkpt><trkpt lat="39.3733833" lon="16.9098567"><ele>267.0</ele><time>2026-03-29T10:26:44.024Z</time></trkpt><trkpt lat="39.3733383" lon="16.9096767"><ele>267.25</ele><time>2026-03-29T10:26:45.023Z</time></trkpt><trkpt lat="39.3732967" lon="16.9095033"><ele>267.5</ele><time>2026-03-29T10:26:46.024Z</time></trkpt><trkpt lat="39.3732567" lon="16.9093333"><ele>267.75</ele><time>2026-03-29T10:26:47.024Z</time></trkpt><trkpt lat="39.37324" lon="16.9091783"><ele>268.0</ele><time>2026-03-29T10:26:48.024Z</time></trkpt><trkpt lat="39.3732383" lon="16.9090217"><ele>268.5</ele><time>2026-03-29T10:26:49.024Z</time></trkpt><trkpt lat="39.3732583" lon="16.9088617"><ele>269.0</ele><time>2026-03-29T10:26:50.024Z</time></trkpt><trkpt lat="39.3733017" lon="16.908695"><ele>269.5</ele><time>2026-03-29T10:26:51.024Z</time></trkpt><trkpt lat="39.3733567" lon="16.908525"><ele>270.0</ele><time>2026-03-29T10:26:52.024Z</time></trkpt><trkpt lat="39.37341" lon="16.90836"><ele>268.0</ele><time>2026-03-29T10:26:53.024Z</time></trkpt><trkpt lat="39.373455" lon="16.90819"><ele>266.0</ele><time>2026-03-29T10:26:54.024Z</time></trkpt><trkpt lat="39.3734983" lon="16.90802"><ele>264.0</ele><time>2026-03-29T10:26:55.024Z</time></trkpt><trkpt lat="39.3735483" lon="16.9078483"><ele>262.0</ele><time>2026-03-29T10:26:56.024Z</time></trkpt><trkpt lat="39.37359" lon="16.907695"><ele>261.2</ele><time>2026-03-29T10:26:57.023Z</time></trkpt><trkpt lat="39.37363" lon="16.90755"><ele>260.4</ele><time>2026-03-29T10:26:58.024Z</time></trkpt><trkpt lat="39.37367" lon="16.9074183"><ele>259.6</ele><time>2026-03-29T10:26:59.023Z</time></trkpt><trkpt lat="39.3737133" lon="16.90729"><ele>258.8</ele><time>2026-03-29T10:27:00.023Z</time></trkpt><trkpt lat="39.37374" lon="16.9071617"><ele>258.0</ele><time>2026-03-29T10:27:01.024Z</time></trkpt><trkpt lat="39.3737517" lon="16.9070217"><ele>258.0</ele><time>2026-03-29T10:27:02.024Z</time></trkpt><trkpt lat="39.3737583" lon="16.90687"><ele>258.0</ele><time>2026-03-29T10:27:03.023Z</time></trkpt><trkpt lat="39.3737633" lon="16.9067267"><ele>258.0</ele><time>2026-03-29T10:27:04.024Z</time></trkpt><trkpt lat="39.3737517" lon="16.9065983"><ele>258.0</ele><time>2026-03-29T10:27:05.024Z</time></trkpt><trkpt lat="39.3737283" lon="16.90649"><ele>258.0</ele><time>2026-03-29T10:27:06.024Z</time></trkpt><trkpt lat="39.3736983" lon="16.9063883"><ele>258.0</ele><time>2026-03-29T10:27:07.024Z</time></trkpt><trkpt lat="39.3736667" lon="16.9063017"><ele>258.0</ele><time>2026-03-29T10:27:08.023Z</time></trkpt><trkpt lat="39.373625" lon="16.9062183"><ele>258.0</ele><time>2026-03-29T10:27:09.024Z</time></trkpt><trkpt lat="39.3735733" lon="16.9061417"><ele>258.0</ele><time>2026-03-29T10:27:10.023Z</time></trkpt><trkpt lat="39.3735217" lon="16.9060833"><ele>258.0</ele><time>2026-03-29T10:27:11.023Z</time></trkpt><trkpt lat="39.373465" lon="16.9060217"><ele>258.0</ele><time>2026-03-29T10:27:12.023Z</time></trkpt><trkpt lat="39.37341" lon="16.9059483"><ele>258.5</ele><time>2026-03-29T10:27:13.024Z</time></trkpt><trkpt lat="39.3733533" lon="16.9058533"><ele>259.0</ele><time>2026-03-29T10:27:14.024Z</time></trkpt><trkpt lat="39.37329" lon="16.9057617"><ele>259.5</ele><time>2026-03-29T10:27:15.024Z</time></trkpt><trkpt lat="39.373235" lon="16.90566"><ele>260.0</ele><time>2026-03-29T10:27:16.024Z</time></trkpt><trkpt lat="39.3731883" lon="16.905575"><ele>260.5</ele><time>2026-03-29T10:27:17.024Z</time></trkpt><trkpt lat="39.37315" lon="16.9055"><ele>261.0</ele><time>2026-03-29T10:27:18.024Z</time></trkpt><trkpt lat="39.373105" lon="16.90539"><ele>261.0</ele><time>2026-03-29T10:27:20.024Z</time></trkpt><trkpt lat="39.3730683" lon="16.9052917"><ele>261.0</ele><time>2026-03-29T10:27:22.024Z</time></trkpt><trkpt lat="39.373025" lon="16.90517"><ele>261.0</ele><time>2026-03-29T10:27:24.024Z</time></trkpt><trkpt lat="39.3729667" lon="16.9050117"><ele>261.0</ele><time>2026-03-29T10:27:26.024Z</time></trkpt><trkpt lat="39.3729283" lon="16.9049183"><ele>261.0</ele><time>2026-03-29T10:27:27.024Z</time></trkpt><trkpt lat="39.3728883" lon="16.904825"><ele>264.2</ele><time>2026-03-29T10:27:28.024Z</time></trkpt><trkpt lat="39.372845" lon="16.9047233"><ele>267.40000000000003</ele><time>2026-03-29T10:27:29.024Z</time></trkpt><trkpt lat="39.3728033" lon="16.9046117"><ele>270.6</ele><time>2026-03-29T10:27:30.024Z</time></trkpt><trkpt lat="39.372755" lon="16.904495"><ele>273.8</ele><time>2026-03-29T10:27:31.023Z</time></trkpt><trkpt lat="39.3727083" lon="16.9043833"><ele>277.0</ele><time>2026-03-29T10:27:32.024Z</time></trkpt><trkpt lat="39.3726583" lon="16.9042683"><ele>277.8</ele><time>2026-03-29T10:27:33.024Z</time></trkpt><trkpt lat="39.3726133" lon="16.90415"><ele>278.6</ele><time>2026-03-29T10:27:34.024Z</time></trkpt><trkpt lat="39.3725733" lon="16.9040367"><ele>279.40000000000003</ele><time>2026-03-29T10:27:35.024Z</time></trkpt><trkpt lat="39.3725367" lon="16.9039333"><ele>280.2</ele><time>2026-03-29T10:27:36.024Z</time></trkpt><trkpt lat="39.37248" lon="16.9038233"><ele>281.0</ele><time>2026-03-29T10:27:37.024Z</time></trkpt><trkpt lat="39.3724183" lon="16.9037033"><ele>281.0</ele><time>2026-03-29T10:27:38.024Z</time></trkpt><trkpt lat="39.3723567" lon="16.9035817"><ele>281.0</ele><time>2026-03-29T10:27:39.024Z</time></trkpt><trkpt lat="39.3722867" lon="16.903475"><ele>281.0</ele><time>2026-03-29T10:27:40.024Z</time></trkpt><trkpt lat="39.3722183" lon="16.9033783"><ele>281.0</ele><time>2026-03-29T10:27:41.024Z</time></trkpt><trkpt lat="39.3721483" lon="16.9032817"><ele>281.0</ele><time>2026-03-29T10:27:42.023Z</time></trkpt><trkpt lat="39.372065" lon="16.90318"><ele>286.5</ele><time>2026-03-29T10:27:43.024Z</time></trkpt><trkpt lat="39.3719733" lon="16.903075"><ele>292.0</ele><time>2026-03-29T10:27:44.024Z</time></trkpt><trkpt lat="39.3718733" lon="16.9029783"><ele>297.5</ele><time>2026-03-29T10:27:45.024Z</time></trkpt><trkpt lat="39.3717717" lon="16.902885"><ele>303.0</ele><time>2026-03-29T10:27:46.023Z</time></trkpt><trkpt lat="39.3716533" lon="16.9028"><ele>303.0</ele><time>2026-03-29T10:27:47.024Z</time></trkpt><trkpt lat="39.3715467" lon="16.9027183"><ele>303.0</ele><time>2026-03-29T10:27:48.024Z</time></trkpt><trkpt lat="39.37143" lon="16.9026533"><ele>303.0</ele><time>2026-03-29T10:27:49.024Z</time></trkpt><trkpt lat="39.3713067" lon="16.9025817"><ele>303.0</ele><time>2026-03-29T10:27:50.024Z</time></trkpt><trkpt lat="39.3711817" lon="16.90249"><ele>308.5</ele><time>2026-03-29T10:27:51.024Z</time></trkpt><trkpt lat="39.3710483" lon="16.902405"><ele>314.0</ele><time>2026-03-29T10:27:52.024Z</time></trkpt><trkpt lat="39.3709217" lon="16.902315"><ele>319.5</ele><time>2026-03-29T10:27:53.024Z</time></trkpt><trkpt lat="39.3707833" lon="16.90224"><ele>325.0</ele><time>2026-03-29T10:27:54.024Z</time></trkpt><trkpt lat="39.3706633" lon="16.9021533"><ele>325.0</ele><time>2026-03-29T10:27:55.024Z</time></trkpt><trkpt lat="39.3705717" lon="16.902065"><ele>325.0</ele><time>2026-03-29T10:27:56.024Z</time></trkpt><trkpt lat="39.3705033" lon="16.9019767"><ele>325.0</ele><time>2026-03-29T10:27:57.024Z</time></trkpt><trkpt lat="39.3704367" lon="16.9018783"><ele>325.0</ele><time>2026-03-29T10:27:58.023Z</time></trkpt><trkpt lat="39.37036" lon="16.9017717"><ele>325.0</ele><time>2026-03-29T10:27:59.024Z</time></trkpt><trkpt lat="39.3702683" lon="16.90166"><ele>328.16666666666663</ele><time>2026-03-29T10:28:00.024Z</time></trkpt><trkpt lat="39.370185" lon="16.9015683"><ele>331.3333333333333</ele><time>2026-03-29T10:28:01.024Z</time></trkpt><trkpt lat="39.3701183" lon="16.9014917"><ele>334.5</ele><time>2026-03-29T10:28:02.024Z</time></trkpt><trkpt lat="39.37007" lon="16.9014267"><ele>337.6666666666667</ele><time>2026-03-29T10:28:03.024Z</time></trkpt><trkpt lat="39.3700283" lon="16.901365"><ele>340.83333333333337</ele><time>2026-03-29T10:28:04.024Z</time></trkpt><trkpt lat="39.3700167" lon="16.9012233"><ele>344.0</ele><time>2026-03-29T10:28:06.024Z</time></trkpt><trkpt lat="39.37003" lon="16.901135"><ele>344.0</ele><time>2026-03-29T10:28:07.024Z</time></trkpt><trkpt lat="39.3700433" lon="16.9010283"><ele>344.0</ele><time>2026-03-29T10:28:08.023Z</time></trkpt><trkpt lat="39.3700617" lon="16.9009233"><ele>344.0</ele><time>2026-03-29T10:28:09.023Z</time></trkpt><trkpt lat="39.370095" lon="16.9008067"><ele>344.0</ele><time>2026-03-29T10:28:10.024Z</time></trkpt><trkpt lat="39.37011" lon="16.9006883"><ele>344.0</ele><time>2026-03-29T10:28:11.024Z</time></trkpt><trkpt lat="39.3701117" lon="16.9005833"><ele>344.0</ele><time>2026-03-29T10:28:12.024Z</time></trkpt><trkpt lat="39.37011" lon="16.9004817"><ele>345.1666666666667</ele><time>2026-03-29T10:28:13.024Z</time></trkpt><trkpt lat="39.3701083" lon="16.90038"><ele>346.33333333333337</ele><time>2026-03-29T10:28:14.024Z</time></trkpt><trkpt lat="39.3701067" lon="16.9002617"><ele>347.5</ele><time>2026-03-29T10:28:15.024Z</time></trkpt><trkpt lat="39.3701117" lon="16.9001433"><ele>348.6666666666667</ele><time>2026-03-29T10:28:16.024Z</time></trkpt><trkpt lat="39.370115" lon="16.9000283"><ele>349.8333333333333</ele><time>2026-03-29T10:28:17.024Z</time></trkpt><trkpt lat="39.37011" lon="16.8999317"><ele>351.0</ele><time>2026-03-29T10:28:18.024Z</time></trkpt><trkpt lat="39.3700867" lon="16.899845"><ele>351.8333333333333</ele><time>2026-03-29T10:28:19.024Z</time></trkpt><trkpt lat="39.370045" lon="16.8997633"><ele>352.6666666666667</ele><time>2026-03-29T10:28:20.024Z</time></trkpt><trkpt lat="39.3700033" lon="16.8996967"><ele>353.5</ele><time>2026-03-29T10:28:21.023Z</time></trkpt><trkpt lat="39.3699183" lon="16.8996433"><ele>354.33333333333337</ele><time>2026-03-29T10:28:23.024Z</time></trkpt><trkpt lat="39.3698217" lon="16.89968"><ele>355.1666666666667</ele><time>2026-03-29T10:28:25.024Z</time></trkpt><trkpt lat="39.3697583" lon="16.8997333"><ele>356.0</ele><time>2026-03-29T10:28:26.024Z</time></trkpt><trkpt lat="39.3696833" lon="16.8998"><ele>360.0</ele><time>2026-03-29T10:28:27.024Z</time></trkpt><trkpt lat="39.3696" lon="16.89988"><ele>364.0</ele><time>2026-03-29T10:28:28.023Z</time></trkpt><trkpt lat="39.3695133" lon="16.8999617"><ele>368.0</ele><time>2026-03-29T10:28:29.024Z</time></trkpt><trkpt lat="39.3694033" lon="16.9000433"><ele>372.0</ele><time>2026-03-29T10:28:30.024Z</time></trkpt><trkpt lat="39.3692933" lon="16.90012"><ele>372.0</ele><time>2026-03-29T10:28:31.024Z</time></trkpt><trkpt lat="39.3692" lon="16.9001833"><ele>372.0</ele><time>2026-03-29T10:28:32.023Z</time></trkpt><trkpt lat="39.3691267" lon="16.9002217"><ele>372.0</ele><time>2026-03-29T10:28:33.024Z</time></trkpt><trkpt lat="39.369015" lon="16.9002"><ele>372.0</ele><time>2026-03-29T10:28:35.024Z</time></trkpt><trkpt lat="39.3689117" lon="16.90007"><ele>372.0</ele><time>2026-03-29T10:28:37.024Z</time></trkpt><trkpt lat="39.3688383" lon="16.9000017"><ele>377.8333333333333</ele><time>2026-03-29T10:28:38.024Z</time></trkpt><trkpt lat="39.3687683" lon="16.8999567"><ele>383.66666666666663</ele><time>2026-03-29T10:28:39.024Z</time></trkpt><trkpt lat="39.3686967" lon="16.8999367"><ele>389.5</ele><time>2026-03-29T10:28:40.024Z</time></trkpt><trkpt lat="39.3686233" lon="16.89994"><ele>395.3333333333333</ele><time>2026-03-29T10:28:41.024Z</time></trkpt><trkpt lat="39.3685367" lon="16.8999817"><ele>401.16666666666663</ele><time>2026-03-29T10:28:42.024Z</time></trkpt><trkpt lat="39.36846" lon="16.9000283"><ele>407.0</ele><time>2026-03-29T10:28:43.024Z</time></trkpt><trkpt lat="39.368385" lon="16.9000817"><ele>404.20000000000005</ele><time>2026-03-29T10:28:44.024Z</time></trkpt><trkpt lat="39.3683133" lon="16.900145"><ele>401.4</ele><time>2026-03-29T10:28:45.024Z</time></trkpt><trkpt lat="39.3682367" lon="16.9002233"><ele>398.6</ele><time>2026-03-29T10:28:46.024Z</time></trkpt><trkpt lat="39.36816" lon="16.90033"><ele>395.79999999999995</ele><time>2026-03-29T10:28:47.024Z</time></trkpt><trkpt lat="39.3680883" lon="16.9004367"><ele>393.0</ele><time>2026-03-29T10:28:48.023Z</time></trkpt><trkpt lat="39.3680233" lon="16.90055"><ele>394.0</ele><time>2026-03-29T10:28:49.024Z</time></trkpt><trkpt lat="39.3679633" lon="16.9006667"><ele>395.0</ele><time>2026-03-29T10:28:50.023Z</time></trkpt><trkpt lat="39.3679033" lon="16.9007867"><ele>396.0</ele><time>2026-03-29T10:28:51.024Z</time></trkpt><trkpt lat="39.3678433" lon="16.9009033"><ele>397.0</ele><time>2026-03-29T10:28:52.024Z</time></trkpt><trkpt lat="39.3677867" lon="16.901015"><ele>398.0</ele><time>2026-03-29T10:28:53.024Z</time></trkpt><trkpt lat="39.3677283" lon="16.9010967"><ele>397.99999999999994</ele><time>2026-03-29T10:28:54.024Z</time></trkpt><trkpt lat="39.3676617" lon="16.9011583"><ele>398.0</ele><time>2026-03-29T10:28:55.024Z</time></trkpt><trkpt lat="39.3675917" lon="16.901195"><ele>398.0</ele><time>2026-03-29T10:28:56.024Z</time></trkpt><trkpt lat="39.367475" lon="16.9011833"><ele>398.0</ele><time>2026-03-29T10:28:58.024Z</time></trkpt><trkpt lat="39.3674" lon="16.9011483"><ele>397.99999999999994</ele><time>2026-03-29T10:28:59.024Z</time></trkpt><trkpt lat="39.367325" lon="16.90112"><ele>398.0</ele><time>2026-03-29T10:29:00.024Z</time></trkpt><trkpt lat="39.36724" lon="16.9011183"><ele>401.0</ele><time>2026-03-29T10:29:01.024Z</time></trkpt><trkpt lat="39.3671417" lon="16.90111"><ele>404.0</ele><time>2026-03-29T10:29:02.024Z</time></trkpt><trkpt lat="39.36704" lon="16.9011433"><ele>407.0</ele><time>2026-03-29T10:29:03.024Z</time></trkpt><trkpt lat="39.3669433" lon="16.9011717"><ele>410.0</ele><time>2026-03-29T10:29:04.024Z</time></trkpt><trkpt lat="39.36685" lon="16.9011967"><ele>413.0</ele><time>2026-03-29T10:29:05.024Z</time></trkpt><trkpt lat="39.3667633" lon="16.9011917"><ele>412.99999999999994</ele><time>2026-03-29T10:29:06.024Z</time></trkpt><trkpt lat="39.366685" lon="16.9011533"><ele>413.0</ele><time>2026-03-29T10:29:07.023Z</time></trkpt><trkpt lat="39.366625" lon="16.90109"><ele>413.0</ele><time>2026-03-29T10:29:08.024Z</time></trkpt><trkpt lat="39.3665667" lon="16.901005"><ele>413.0</ele><time>2026-03-29T10:29:09.024Z</time></trkpt><trkpt lat="39.3665083" lon="16.9009133"><ele>412.99999999999994</ele><time>2026-03-29T10:29:10.024Z</time></trkpt><trkpt lat="39.3664483" lon="16.9008117"><ele>413.0</ele><time>2026-03-29T10:29:11.023Z</time></trkpt><trkpt lat="39.366405" lon="16.90071"><ele>418.49999999999994</ele><time>2026-03-29T10:29:12.024Z</time></trkpt><trkpt lat="39.3663717" lon="16.9006067"><ele>424.0</ele><time>2026-03-29T10:29:13.024Z</time></trkpt><trkpt lat="39.36636" lon="16.9004983"><ele>429.5</ele><time>2026-03-29T10:29:14.024Z</time></trkpt><trkpt lat="39.3663767" lon="16.9003917"><ele>435.0</ele><time>2026-03-29T10:29:15.024Z</time></trkpt><trkpt lat="39.366395" lon="16.90027"><ele>440.49999999999994</ele><time>2026-03-29T10:29:16.024Z</time></trkpt><trkpt lat="39.3663983" lon="16.90015"><ele>446.0</ele><time>2026-03-29T10:29:17.023Z</time></trkpt><trkpt lat="39.3663917" lon="16.9000417"><ele>448.3333333333333</ele><time>2026-03-29T10:29:18.024Z</time></trkpt><trkpt lat="39.36635" lon="16.89995"><ele>450.66666666666663</ele><time>2026-03-29T10:29:19.023Z</time></trkpt><trkpt lat="39.36629" lon="16.8998867"><ele>453.0</ele><time>2026-03-29T10:29:20.024Z</time></trkpt><trkpt lat="39.366205" lon="16.899835"><ele>455.33333333333337</ele><time>2026-03-29T10:29:21.024Z</time></trkpt><trkpt lat="39.3661267" lon="16.89978"><ele>457.6666666666667</ele><time>2026-03-29T10:29:22.024Z</time></trkpt><trkpt lat="39.3660683" lon="16.89974"><ele>460.0</ele><time>2026-03-29T10:29:23.024Z</time></trkpt><trkpt lat="39.3659883" lon="16.8996867"><ele>460.0</ele><time>2026-03-29T10:29:25.023Z</time></trkpt><trkpt lat="39.3658667" lon="16.89965"><ele>460.0</ele><time>2026-03-29T10:29:27.024Z</time></trkpt><trkpt lat="39.365795" lon="16.8996383"><ele>460.0</ele><time>2026-03-29T10:29:28.023Z</time></trkpt><trkpt lat="39.3657017" lon="16.899645"><ele>460.0</ele><time>2026-03-29T10:29:29.024Z</time></trkpt><trkpt lat="39.3656067" lon="16.89965"><ele>460.0</ele><time>2026-03-29T10:29:30.024Z</time></trkpt><trkpt lat="39.3655233" lon="16.8996517"><ele>461.00000000000006</ele><time>2026-03-29T10:29:31.023Z</time></trkpt><trkpt lat="39.3654383" lon="16.8996683"><ele>462.0</ele><time>2026-03-29T10:29:32.024Z</time></trkpt><trkpt lat="39.3653683" lon="16.8996633"><ele>463.0</ele><time>2026-03-29T10:29:33.024Z</time></trkpt><trkpt lat="39.3652617" lon="16.8996283"><ele>464.0</ele><time>2026-03-29T10:29:35.023Z</time></trkpt><trkpt lat="39.3651983" lon="16.8996"><ele>465.00000000000006</ele><time>2026-03-29T10:29:36.024Z</time></trkpt><trkpt lat="39.36513" lon="16.89959"><ele>466.0</ele><time>2026-03-29T10:29:37.023Z</time></trkpt><trkpt lat="39.3650533" lon="16.8995967"><ele>466.0</ele><time>2026-03-29T10:29:38.024Z</time></trkpt><trkpt lat="39.364955" lon="16.89963"><ele>466.0</ele><time>2026-03-29T10:29:39.024Z</time></trkpt><trkpt lat="39.36485" lon="16.8996683"><ele>466.0</ele><time>2026-03-29T10:29:40.024Z</time></trkpt><trkpt lat="39.3647467" lon="16.8997"><ele>466.0</ele><time>2026-03-29T10:29:41.024Z</time></trkpt><trkpt lat="39.3646467" lon="16.89972"><ele>466.0</ele><time>2026-03-29T10:29:42.024Z</time></trkpt><trkpt lat="39.3645533" lon="16.899725"><ele>468.0</ele><time>2026-03-29T10:29:43.023Z</time></trkpt><trkpt lat="39.364455" lon="16.89972"><ele>470.0</ele><time>2026-03-29T10:29:44.024Z</time></trkpt><trkpt lat="39.3643517" lon="16.8997117"><ele>472.0</ele><time>2026-03-29T10:29:45.024Z</time></trkpt><trkpt lat="39.3642567" lon="16.8996967"><ele>474.0</ele><time>2026-03-29T10:29:46.024Z</time></trkpt><trkpt lat="39.3641617" lon="16.8996917"><ele>476.0</ele><time>2026-03-29T10:29:47.024Z</time></trkpt><trkpt lat="39.364075" lon="16.8996767"><ele>475.99999999999994</ele><time>2026-03-29T10:29:48.024Z</time></trkpt><trkpt lat="39.364" lon="16.899645"><ele>476.0</ele><time>2026-03-29T10:29:49.024Z</time></trkpt><trkpt lat="39.36393" lon="16.8996067"><ele>476.0</ele><time>2026-03-29T10:29:50.024Z</time></trkpt><trkpt lat="39.3638567" lon="16.8995867"><ele>476.0</ele><time>2026-03-29T10:29:51.024Z</time></trkpt><trkpt lat="39.363775" lon="16.89959"><ele>475.99999999999994</ele><time>2026-03-29T10:29:52.024Z</time></trkpt><trkpt lat="39.3636883" lon="16.89959"><ele>476.0</ele><time>2026-03-29T10:29:53.024Z</time></trkpt><trkpt lat="39.3636" lon="16.899585"><ele>477.20000000000005</ele><time>2026-03-29T10:29:54.024Z</time></trkpt><trkpt lat="39.363515" lon="16.8995783"><ele>478.40000000000003</ele><time>2026-03-29T10:29:55.024Z</time></trkpt><trkpt lat="39.3634267" lon="16.899575"><ele>479.6</ele><time>2026-03-29T10:29:56.024Z</time></trkpt><trkpt lat="39.36333" lon="16.8995583"><ele>480.8</ele><time>2026-03-29T10:29:57.024Z</time></trkpt><trkpt lat="39.363225" lon="16.8995433"><ele>482.0</ele><time>2026-03-29T10:29:58.023Z</time></trkpt><trkpt lat="39.363115" lon="16.8995333"><ele>482.20000000000005</ele><time>2026-03-29T10:29:59.024Z</time></trkpt><trkpt lat="39.363" lon="16.8995217"><ele>482.40000000000003</ele><time>2026-03-29T10:30:00.023Z</time></trkpt><trkpt lat="39.362895" lon="16.8995017"><ele>482.59999999999997</ele><time>2026-03-29T10:30:01.024Z</time></trkpt><trkpt lat="39.3628067" lon="16.899455"><ele>482.79999999999995</ele><time>2026-03-29T10:30:02.024Z</time></trkpt><trkpt lat="39.3627283" lon="16.8993983"><ele>483.0</ele><time>2026-03-29T10:30:03.024Z</time></trkpt><trkpt lat="39.3626533" lon="16.8993267"><ele>485.0</ele><time>2026-03-29T10:30:04.024Z</time></trkpt><trkpt lat="39.3625917" lon="16.89925"><ele>487.0</ele><time>2026-03-29T10:30:05.024Z</time></trkpt><trkpt lat="39.36253" lon="16.8991783"><ele>489.0</ele><time>2026-03-29T10:30:06.024Z</time></trkpt><trkpt lat="39.3624683" lon="16.8991"><ele>491.0</ele><time>2026-03-29T10:30:07.024Z</time></trkpt><trkpt lat="39.3624067" lon="16.899025"><ele>493.0</ele><time>2026-03-29T10:30:08.024Z</time></trkpt><trkpt lat="39.36235" lon="16.8989567"><ele>495.0</ele><time>2026-03-29T10:30:09.024Z</time></trkpt><trkpt lat="39.3623067" lon="16.8988933"><ele>495.0</ele><time>2026-03-29T10:30:10.024Z</time></trkpt><trkpt lat="39.3623583" lon="16.8988117"><ele>495.0</ele><time>2026-03-29T10:30:13.024Z</time></trkpt><trkpt lat="39.3624583" lon="16.8987533"><ele>495.0</ele><time>2026-03-29T10:30:15.023Z</time></trkpt><trkpt lat="39.3624583" lon="16.8986483"><ele>495.0</ele><time>2026-03-29T10:30:17.024Z</time></trkpt><trkpt lat="39.3623567" lon="16.8985217"><ele>495.0</ele><time>2026-03-29T10:30:19.023Z</time></trkpt><trkpt lat="39.362275" lon="16.8984533"><ele>496.2</ele><time>2026-03-29T10:30:20.024Z</time></trkpt><trkpt lat="39.3621917" lon="16.898375"><ele>497.4</ele><time>2026-03-29T10:30:21.024Z</time></trkpt><trkpt lat="39.3621083" lon="16.898285"><ele>498.6</ele><time>2026-03-29T10:30:22.024Z</time></trkpt><trkpt lat="39.3620383" lon="16.8982067"><ele>499.8</ele><time>2026-03-29T10:30:23.024Z</time></trkpt><trkpt lat="39.3619783" lon="16.8981267"><ele>501.0</ele><time>2026-03-29T10:30:24.024Z</time></trkpt><trkpt lat="39.3619283" lon="16.8980317"><ele>501.0</ele><time>2026-03-29T10:30:25.023Z</time></trkpt><trkpt lat="39.3618917" lon="16.8979183"><ele>501.0</ele><time>2026-03-29T10:30:26.024Z</time></trkpt><trkpt lat="39.3618517" lon="16.897795"><ele>501.0</ele><time>2026-03-29T10:30:27.023Z</time></trkpt><trkpt lat="39.3618183" lon="16.897665"><ele>501.0</ele><time>2026-03-29T10:30:28.023Z</time></trkpt><trkpt lat="39.36179" lon="16.89755"><ele>501.0</ele><time>2026-03-29T10:30:29.024Z</time></trkpt><trkpt lat="39.361755" lon="16.89744"><ele>502.1666666666667</ele><time>2026-03-29T10:30:30.024Z</time></trkpt><trkpt lat="39.36173" lon="16.8973317"><ele>503.33333333333337</ele><time>2026-03-29T10:30:31.024Z</time></trkpt><trkpt lat="39.3617183" lon="16.897235"><ele>504.5</ele><time>2026-03-29T10:30:32.024Z</time></trkpt><trkpt lat="39.3617283" lon="16.89714"><ele>505.6666666666667</ele><time>2026-03-29T10:30:33.024Z</time></trkpt><trkpt lat="39.3617483" lon="16.8970567"><ele>506.83333333333337</ele><time>2026-03-29T10:30:34.024Z</time></trkpt><trkpt lat="39.3617617" lon="16.8969367"><ele>508.0</ele><time>2026-03-29T10:30:36.024Z</time></trkpt><trkpt lat="39.36172" lon="16.8968017"><ele>509.00000000000006</ele><time>2026-03-29T10:30:38.023Z</time></trkpt><trkpt lat="39.3616783" lon="16.896725"><ele>510.0</ele><time>2026-03-29T10:30:39.023Z</time></trkpt><trkpt lat="39.3616317" lon="16.896635"><ele>511.0</ele><time>2026-03-29T10:30:40.024Z</time></trkpt><trkpt lat="39.3615867" lon="16.896535"><ele>512.0</ele><time>2026-03-29T10:30:41.024Z</time></trkpt><trkpt lat="39.3615417" lon="16.89645"><ele>513.0</ele><time>2026-03-29T10:30:42.024Z</time></trkpt><trkpt lat="39.361515" lon="16.8963483"><ele>514.0</ele><time>2026-03-29T10:30:44.024Z</time></trkpt><trkpt lat="39.36153" lon="16.8962533"><ele>514.0</ele><time>2026-03-29T10:30:48.024Z</time></trkpt><trkpt lat="39.3615217" lon="16.89611"><ele>514.0</ele><time>2026-03-29T10:30:50.024Z</time></trkpt><trkpt lat="39.36151" lon="16.8960117"><ele>514.0</ele><time>2026-03-29T10:30:51.023Z</time></trkpt><trkpt lat="39.36148" lon="16.8959117"><ele>514.0</ele><time>2026-03-29T10:30:52.024Z</time></trkpt><trkpt lat="39.3614433" lon="16.8958033"><ele>514.0</ele><time>2026-03-29T10:30:53.024Z</time></trkpt><trkpt lat="39.3613867" lon="16.8957167"><ele>515.3333333333334</ele><time>2026-03-29T10:30:54.024Z</time></trkpt><trkpt lat="39.361325" lon="16.8956417"><ele>516.6666666666667</ele><time>2026-03-29T10:30:55.024Z</time></trkpt><trkpt lat="39.3612567" lon="16.8955817"><ele>518.0</ele><time>2026-03-29T10:30:56.024Z</time></trkpt><trkpt lat="39.3611917" lon="16.8955333"><ele>519.3333333333334</ele><time>2026-03-29T10:30:57.023Z</time></trkpt><trkpt lat="39.361125" lon="16.89547"><ele>520.6666666666666</ele><time>2026-03-29T10:30:58.024Z</time></trkpt><trkpt lat="39.36106" lon="16.8954017"><ele>522.0</ele><time>2026-03-29T10:30:59.024Z</time></trkpt><trkpt lat="39.3609933" lon="16.8953167"><ele>522.0</ele><time>2026-03-29T10:31:00.024Z</time></trkpt><trkpt lat="39.3609333" lon="16.895225"><ele>522.0</ele><time>2026-03-29T10:31:01.024Z</time></trkpt><trkpt lat="39.360875" lon="16.89514"><ele>522.0</ele><time>2026-03-29T10:31:02.024Z</time></trkpt><trkpt lat="39.3608333" lon="16.8950467"><ele>522.0</ele><time>2026-03-29T10:31:03.024Z</time></trkpt><trkpt lat="39.360805" lon="16.894955"><ele>522.0</ele><time>2026-03-29T10:31:04.024Z</time></trkpt><trkpt lat="39.3607817" lon="16.8948517"><ele>522.0</ele><time>2026-03-29T10:31:05.024Z</time></trkpt><trkpt lat="39.3607683" lon="16.894745"><ele>522.8333333333334</ele><time>2026-03-29T10:31:06.024Z</time></trkpt><trkpt lat="39.3607567" lon="16.894645"><ele>523.6666666666666</ele><time>2026-03-29T10:31:07.024Z</time></trkpt><trkpt lat="39.360755" lon="16.89456"><ele>524.5</ele><time>2026-03-29T10:31:08.024Z</time></trkpt><trkpt lat="39.3607483" lon="16.8944133"><ele>525.3333333333333</ele><time>2026-03-29T10:31:10.023Z</time></trkpt><trkpt lat="39.3607433" lon="16.894285"><ele>526.1666666666666</ele><time>2026-03-29T10:31:12.024Z</time></trkpt><trkpt lat="39.3607483" lon="16.89418"><ele>527.0</ele><time>2026-03-29T10:31:14.024Z</time></trkpt><trkpt lat="39.3607467" lon="16.894075"><ele>528.0</ele><time>2026-03-29T10:31:16.024Z</time></trkpt><trkpt lat="39.3607517" lon="16.8939617"><ele>529.0</ele><time>2026-03-29T10:31:18.023Z</time></trkpt><trkpt lat="39.360755" lon="16.8938517"><ele>530.0</ele><time>2026-03-29T10:31:20.023Z</time></trkpt><trkpt lat="39.3607567" lon="16.8937683"><ele>531.0</ele><time>2026-03-29T10:31:22.023Z</time></trkpt><trkpt lat="39.3607617" lon="16.8936783"><ele>532.0</ele><time>2026-03-29T10:31:25.023Z</time></trkpt><trkpt lat="39.3607767" lon="16.8935667"><ele>533.0</ele><time>2026-03-29T10:32:00.023Z</time></trkpt><trkpt lat="39.3607883" lon="16.8934833"><ele>533.1666666666666</ele><time>2026-03-29T10:32:02.023Z</time></trkpt><trkpt lat="39.3607967" lon="16.8933683"><ele>533.3333333333333</ele><time>2026-03-29T10:32:04.023Z</time></trkpt><trkpt lat="39.360795" lon="16.8932733"><ele>533.5</ele><time>2026-03-29T10:32:06.023Z</time></trkpt><trkpt lat="39.3607817" lon="16.8931733"><ele>533.6666666666666</ele><time>2026-03-29T10:32:09.023Z</time></trkpt><trkpt lat="39.3607633" lon="16.8930933"><ele>533.8333333333334</ele><time>2026-03-29T10:32:12.023Z</time></trkpt><trkpt lat="39.3607733" lon="16.8929983"><ele>534.0</ele><time>2026-03-29T10:32:15.023Z</time></trkpt><trkpt lat="39.36079" lon="16.8928833"><ele>534.0</ele><time>2026-03-29T10:32:18.023Z</time></trkpt><trkpt lat="39.3608067" lon="16.8928033"><ele>534.0</ele><time>2026-03-29T10:32:20.023Z</time></trkpt><trkpt lat="39.3608433" lon="16.8926767"><ele>534.0</ele><time>2026-03-29T10:32:23.023Z</time></trkpt><trkpt lat="39.360885" lon="16.892505"><ele>534.0</ele><time>2026-03-29T10:32:25.023Z</time></trkpt><trkpt lat="39.3609" lon="16.8923817"><ele>534.0</ele><time>2026-03-29T10:32:26.023Z</time></trkpt><trkpt lat="39.36092" lon="16.892265"><ele>533.75</ele><time>2026-03-29T10:32:27.023Z</time></trkpt><trkpt lat="39.3609267" lon="16.8921333"><ele>533.5</ele><time>2026-03-29T10:32:28.023Z</time></trkpt><trkpt lat="39.3609383" lon="16.8919817"><ele>533.25</ele><time>2026-03-29T10:32:29.023Z</time></trkpt><trkpt lat="39.3609567" lon="16.891825"><ele>533.0</ele><time>2026-03-29T10:32:30.023Z</time></trkpt><trkpt lat="39.36098" lon="16.891665"><ele>532.5</ele><time>2026-03-29T10:32:31.023Z</time></trkpt><trkpt lat="39.3610167" lon="16.8914867"><ele>532.0</ele><time>2026-03-29T10:32:32.023Z</time></trkpt><trkpt lat="39.3610483" lon="16.8913133"><ele>531.5</ele><time>2026-03-29T10:32:33.023Z</time></trkpt><trkpt lat="39.3610717" lon="16.891155"><ele>531.0</ele><time>2026-03-29T10:32:34.023Z</time></trkpt><trkpt lat="39.3610933" lon="16.8910083"><ele>531.0</ele><time>2026-03-29T10:32:35.023Z</time></trkpt><trkpt lat="39.36112" lon="16.8908733"><ele>531.0</ele><time>2026-03-29T10:32:36.023Z</time></trkpt><trkpt lat="39.36115" lon="16.8907433"><ele>531.0</ele><time>2026-03-29T10:32:37.023Z</time></trkpt><trkpt lat="39.36117" lon="16.8906267"><ele>531.0</ele><time>2026-03-29T10:32:38.023Z</time></trkpt><trkpt lat="39.3611867" lon="16.8905367"><ele>531.0</ele><time>2026-03-29T10:32:39.023Z</time></trkpt><trkpt lat="39.3611917" lon="16.890425"><ele>531.0</ele><time>2026-03-29T10:32:41.023Z</time></trkpt><trkpt lat="39.36118" lon="16.890325"><ele>531.0</ele><time>2026-03-29T10:32:58.023Z</time></trkpt><trkpt lat="39.3611767" lon="16.8902183"><ele>531.0</ele><time>2026-03-29T11:21:21.021Z</time></trkpt><trkpt lat="39.3611883" lon="16.8901033"><ele>531.0</ele><time>2026-03-29T11:21:24.021Z</time></trkpt><trkpt lat="39.361235" lon="16.890035"><ele>531.0</ele><time>2026-03-29T11:21:26.021Z</time></trkpt><trkpt lat="39.3613083" lon="16.89003"><ele>531.0</ele><time>2026-03-29T11:21:28.021Z</time></trkpt><trkpt lat="39.3614117" lon="16.8900183"><ele>532.0</ele><time>2026-03-29T11:21:30.021Z</time></trkpt><trkpt lat="39.361475" lon="16.890005"><ele>533.0</ele><time>2026-03-29T11:21:31.021Z</time></trkpt><trkpt lat="39.3615867" lon="16.88999"><ele>534.0</ele><time>2026-03-29T11:21:33.02Z</time></trkpt><trkpt lat="39.361705" lon="16.8899617"><ele>535.0</ele><time>2026-03-29T11:21:35.02Z</time></trkpt><trkpt lat="39.3618233" lon="16.889925"><ele>536.0</ele><time>2026-03-29T11:21:37.021Z</time></trkpt><trkpt lat="39.361945" lon="16.8898817"><ele>536.0</ele><time>2026-03-29T11:21:39.021Z</time></trkpt><trkpt lat="39.3620133" lon="16.8898467"><ele>536.0</ele><time>2026-03-29T11:21:40.021Z</time></trkpt><trkpt lat="39.3620783" lon="16.8898133"><ele>536.0</ele><time>2026-03-29T11:21:41.02Z</time></trkpt><trkpt lat="39.36214" lon="16.889785"><ele>536.0</ele><time>2026-03-29T11:21:42.021Z</time></trkpt><trkpt lat="39.36225" lon="16.8897667"><ele>536.0</ele><time>2026-03-29T11:21:44.021Z</time></trkpt><trkpt lat="39.36234" lon="16.889735"><ele>536.0</ele><time>2026-03-29T11:21:46.021Z</time></trkpt><trkpt lat="39.3624067" lon="16.8897117"><ele>535.5</ele><time>2026-03-29T11:21:48.021Z</time></trkpt><trkpt lat="39.36249" lon="16.88967"><ele>535.0</ele><time>2026-03-29T11:21:50.021Z</time></trkpt><trkpt lat="39.362585" lon="16.889625"><ele>534.5</ele><time>2026-03-29T11:21:52.021Z</time></trkpt><trkpt lat="39.36266" lon="16.889575"><ele>534.0</ele><time>2026-03-29T11:21:54.02Z</time></trkpt><trkpt lat="39.36272" lon="16.8895383"><ele>533.5</ele><time>2026-03-29T11:21:56.021Z</time></trkpt><trkpt lat="39.3627883" lon="16.8895183"><ele>533.0</ele><time>2026-03-29T11:21:58.021Z</time></trkpt><trkpt lat="39.3628617" lon="16.8894983"><ele>533.0</ele><time>2026-03-29T11:22:00.02Z</time></trkpt><trkpt lat="39.3629567" lon="16.8894667"><ele>533.0</ele><time>2026-03-29T11:22:02.021Z</time></trkpt><trkpt lat="39.36307" lon="16.889445"><ele>533.0</ele><time>2026-03-29T11:22:04.02Z</time></trkpt><trkpt lat="39.363135" lon="16.8894533"><ele>533.0</ele><time>2026-03-29T11:22:05.021Z</time></trkpt><trkpt lat="39.363245" lon="16.88947"><ele>533.0</ele><time>2026-03-29T11:22:07.021Z</time></trkpt><trkpt lat="39.3633333" lon="16.8894967"><ele>533.8333333333333</ele><time>2026-03-29T11:22:09.021Z</time></trkpt><trkpt lat="39.3634133" lon="16.8894717"><ele>534.6666666666666</ele><time>2026-03-29T11:22:11.02Z</time></trkpt><trkpt lat="39.3634933" lon="16.8894317"><ele>535.5</ele><time>2026-03-29T11:22:14.021Z</time></trkpt><trkpt lat="39.3635883" lon="16.8893867"><ele>536.3333333333334</ele><time>2026-03-29T11:22:17.02Z</time></trkpt><trkpt lat="39.3636733" lon="16.8893517"><ele>537.1666666666667</ele><time>2026-03-29T11:22:19.021Z</time></trkpt><trkpt lat="39.363745" lon="16.8892917"><ele>538.0</ele><time>2026-03-29T11:22:21.02Z</time></trkpt><trkpt lat="39.363825" lon="16.8892367"><ele>535.8333333333334</ele><time>2026-03-29T11:22:23.021Z</time></trkpt><trkpt lat="39.36389" lon="16.88918"><ele>533.6666666666667</ele><time>2026-03-29T11:22:25.021Z</time></trkpt><trkpt lat="39.3639467" lon="16.8891283"><ele>531.5</ele><time>2026-03-29T11:22:29.021Z</time></trkpt><trkpt lat="39.3640083" lon="16.8890933"><ele>529.3333333333334</ele><time>2026-03-29T11:22:32.02Z</time></trkpt><trkpt lat="39.364075" lon="16.88905"><ele>527.1666666666666</ele><time>2026-03-29T11:22:34.021Z</time></trkpt><trkpt lat="39.3641583" lon="16.8890233"><ele>525.0</ele><time>2026-03-29T11:22:36.021Z</time></trkpt><trkpt lat="39.3642517" lon="16.888995"><ele>525.0</ele><time>2026-03-29T11:22:38.021Z</time></trkpt><trkpt lat="39.36435" lon="16.888975"><ele>525.0</ele><time>2026-03-29T11:22:40.021Z</time></trkpt><trkpt lat="39.364425" lon="16.8889483"><ele>525.0</ele><time>2026-03-29T11:22:42.021Z</time></trkpt><trkpt lat="39.36451" lon="16.888935"><ele>525.0</ele><time>2026-03-29T11:22:45.021Z</time></trkpt><trkpt lat="39.3645867" lon="16.88891"><ele>525.0</ele><time>2026-03-29T11:22:47.021Z</time></trkpt><trkpt lat="39.36467" lon="16.8888683"><ele>525.0</ele><time>2026-03-29T11:22:49.021Z</time></trkpt><trkpt lat="39.3647383" lon="16.8888567"><ele>524.7142857142857</ele><time>2026-03-29T11:22:51.02Z</time></trkpt><trkpt lat="39.3648067" lon="16.88885"><ele>524.4285714285714</ele><time>2026-03-29T11:22:53.021Z</time></trkpt><trkpt lat="39.364875" lon="16.8888283"><ele>524.1428571428571</ele><time>2026-03-29T11:22:55.021Z</time></trkpt><trkpt lat="39.364955" lon="16.888805"><ele>523.8571428571429</ele><time>2026-03-29T11:22:57.02Z</time></trkpt><trkpt lat="39.36503" lon="16.888795"><ele>523.5714285714286</ele><time>2026-03-29T11:22:59.02Z</time></trkpt><trkpt lat="39.365095" lon="16.8887833"><ele>523.2857142857142</ele><time>2026-03-29T11:23:01.021Z</time></trkpt><trkpt lat="39.36517" lon="16.8887733"><ele>523.0</ele><time>2026-03-29T11:23:03.021Z</time></trkpt><trkpt lat="39.365245" lon="16.8887567"><ele>523.0</ele><time>2026-03-29T11:23:05.021Z</time></trkpt><trkpt lat="39.3653133" lon="16.888745"><ele>523.0</ele><time>2026-03-29T11:23:07.021Z</time></trkpt><trkpt lat="39.3653867" lon="16.8887317"><ele>523.0</ele><time>2026-03-29T11:23:10.021Z</time></trkpt><trkpt lat="39.3654783" lon="16.8887083"><ele>523.0</ele><time>2026-03-29T11:23:13.021Z</time></trkpt><trkpt lat="39.36555" lon="16.8886783"><ele>523.0</ele><time>2026-03-29T11:23:15.021Z</time></trkpt><trkpt lat="39.36563" lon="16.8886517"><ele>523.0</ele><time>2026-03-29T11:23:18.021Z</time></trkpt><trkpt lat="39.3657" lon="16.8886283"><ele>521.2857142857142</ele><time>2026-03-29T11:23:21.021Z</time></trkpt><trkpt lat="39.36578" lon="16.8885933"><ele>519.5714285714286</ele><time>2026-03-29T11:23:24.021Z</time></trkpt><trkpt lat="39.3658483" lon="16.8885633"><ele>517.8571428571429</ele><time>2026-03-29T11:23:26.021Z</time></trkpt><trkpt lat="39.3659233" lon="16.8885233"><ele>516.1428571428571</ele><time>2026-03-29T11:23:28.021Z</time></trkpt><trkpt lat="39.3659817" lon="16.88848"><ele>514.4285714285714</ele><time>2026-03-29T11:23:30.02Z</time></trkpt><trkpt lat="39.366045" lon="16.88843"><ele>512.7142857142857</ele><time>2026-03-29T11:23:32.021Z</time></trkpt><trkpt lat="39.3661" lon="16.8883867"><ele>511.0</ele><time>2026-03-29T11:23:34.021Z</time></trkpt><trkpt lat="39.36617" lon="16.8883283"><ele>510.1666666666667</ele><time>2026-03-29T11:23:38.021Z</time></trkpt><trkpt lat="39.36625" lon="16.88828"><ele>509.33333333333337</ele><time>2026-03-29T11:23:46.021Z</time></trkpt><trkpt lat="39.3663367" lon="16.8882533"><ele>508.5</ele><time>2026-03-29T11:23:49.02Z</time></trkpt><trkpt lat="39.36644" lon="16.8882217"><ele>507.66666666666663</ele><time>2026-03-29T11:23:51.021Z</time></trkpt><trkpt lat="39.3665033" lon="16.8881983"><ele>506.8333333333333</ele><time>2026-03-29T11:23:52.021Z</time></trkpt><trkpt lat="39.36657" lon="16.888175"><ele>506.0</ele><time>2026-03-29T11:23:53.021Z</time></trkpt><trkpt lat="39.366645" lon="16.888145"><ele>506.0</ele><time>2026-03-29T11:23:54.021Z</time></trkpt><trkpt lat="39.3667683" lon="16.88811"><ele>506.0</ele><time>2026-03-29T11:23:56.02Z</time></trkpt><trkpt lat="39.366885" lon="16.8880683"><ele>506.0</ele><time>2026-03-29T11:23:58.021Z</time></trkpt><trkpt lat="39.3669917" lon="16.8880283"><ele>506.0</ele><time>2026-03-29T11:24:00.021Z</time></trkpt><trkpt lat="39.3670967" lon="16.8879833"><ele>508.3333333333333</ele><time>2026-03-29T11:24:02.021Z</time></trkpt><trkpt lat="39.367205" lon="16.8879317"><ele>510.66666666666663</ele><time>2026-03-29T11:24:04.021Z</time></trkpt><trkpt lat="39.3672667" lon="16.88789"><ele>513.0</ele><time>2026-03-29T11:24:05.021Z</time></trkpt><trkpt lat="39.367335" lon="16.8878467"><ele>515.3333333333334</ele><time>2026-03-29T11:24:06.021Z</time></trkpt><trkpt lat="39.3674017" lon="16.8878067"><ele>517.6666666666667</ele><time>2026-03-29T11:24:07.021Z</time></trkpt><trkpt lat="39.3674667" lon="16.88777"><ele>520.0</ele><time>2026-03-29T11:24:08.021Z</time></trkpt><trkpt lat="39.367535" lon="16.8877433"><ele>520.0000000000001</ele><time>2026-03-29T11:24:09.021Z</time></trkpt><trkpt lat="39.3676017" lon="16.8877117"><ele>520.0</ele><time>2026-03-29T11:24:10.02Z</time></trkpt><trkpt lat="39.3676617" lon="16.8876833"><ele>520.0</ele><time>2026-03-29T11:24:11.021Z</time></trkpt><trkpt lat="39.3677233" lon="16.8876567"><ele>520.0</ele><time>2026-03-29T11:24:12.021Z</time></trkpt><trkpt lat="39.3677933" lon="16.8876333"><ele>520.0</ele><time>2026-03-29T11:24:13.021Z</time></trkpt><trkpt lat="39.3678717" lon="16.88761"><ele>520.0000000000001</ele><time>2026-03-29T11:24:14.021Z</time></trkpt><trkpt lat="39.3679467" lon="16.8875817"><ele>520.0</ele><time>2026-03-29T11:24:15.02Z</time></trkpt><trkpt lat="39.36802" lon="16.88756"><ele>519.7142857142858</ele><time>2026-03-29T11:24:16.02Z</time></trkpt><trkpt lat="39.3680933" lon="16.8875333"><ele>519.4285714285714</ele><time>2026-03-29T11:24:17.021Z</time></trkpt><trkpt lat="39.3681633" lon="16.8875117"><ele>519.1428571428571</ele><time>2026-03-29T11:24:18.021Z</time></trkpt><trkpt lat="39.36823" lon="16.887495"><ele>518.8571428571429</ele><time>2026-03-29T11:24:19.021Z</time></trkpt><trkpt lat="39.3682967" lon="16.8874767"><ele>518.5714285714286</ele><time>2026-03-29T11:24:20.021Z</time></trkpt><trkpt lat="39.368365" lon="16.8874567"><ele>518.2857142857143</ele><time>2026-03-29T11:24:21.021Z</time></trkpt><trkpt lat="39.36844" lon="16.8874383"><ele>518.0</ele><time>2026-03-29T11:24:22.021Z</time></trkpt><trkpt lat="39.3685133" lon="16.88742"><ele>518.0</ele><time>2026-03-29T11:24:23.021Z</time></trkpt><trkpt lat="39.368585" lon="16.8873983"><ele>518.0</ele><time>2026-03-29T11:24:24.021Z</time></trkpt><trkpt lat="39.36866" lon="16.8873767"><ele>518.0</ele><time>2026-03-29T11:24:25.021Z</time></trkpt><trkpt lat="39.3687383" lon="16.8873617"><ele>518.0</ele><time>2026-03-29T11:24:26.02Z</time></trkpt><trkpt lat="39.368815" lon="16.887345"><ele>518.0</ele><time>2026-03-29T11:24:27.021Z</time></trkpt><trkpt lat="39.3688783" lon="16.8873167"><ele>518.0</ele><time>2026-03-29T11:24:28.021Z</time></trkpt><trkpt lat="39.368945" lon="16.8872867"><ele>518.0</ele><time>2026-03-29T11:24:29.021Z</time></trkpt><trkpt lat="39.369005" lon="16.8872583"><ele>519.1666666666666</ele><time>2026-03-29T11:24:30.021Z</time></trkpt><trkpt lat="39.3690767" lon="16.88719"><ele>520.3333333333333</ele><time>2026-03-29T11:24:32.021Z</time></trkpt><trkpt lat="39.3691217" lon="16.887105"><ele>521.5</ele><time>2026-03-29T11:24:36.021Z</time></trkpt><trkpt lat="39.3691667" lon="16.8870133"><ele>522.6666666666666</ele><time>2026-03-29T11:24:39.02Z</time></trkpt><trkpt lat="39.36922" lon="16.8869183"><ele>523.8333333333334</ele><time>2026-03-29T11:24:42.021Z</time></trkpt><trkpt lat="39.3692683" lon="16.8868167"><ele>525.0</ele><time>2026-03-29T11:24:44.021Z</time></trkpt><trkpt lat="39.3693333" lon="16.8866917"><ele>525.0</ele><time>2026-03-29T11:24:46.021Z</time></trkpt><trkpt lat="39.3693633" lon="16.886615"><ele>525.0</ele><time>2026-03-29T11:24:47.021Z</time></trkpt><trkpt lat="39.3693967" lon="16.8865417"><ele>525.0</ele><time>2026-03-29T11:24:48.021Z</time></trkpt><trkpt lat="39.36946" lon="16.8864017"><ele>525.0</ele><time>2026-03-29T11:24:50.021Z</time></trkpt><trkpt lat="39.369495" lon="16.8863283"><ele>525.0</ele><time>2026-03-29T11:24:51.021Z</time></trkpt><trkpt lat="39.3695367" lon="16.8862567"><ele>525.0</ele><time>2026-03-29T11:24:52.02Z</time></trkpt><trkpt lat="39.369585" lon="16.8861917"><ele>525.0</ele><time>2026-03-29T11:24:53.021Z</time></trkpt><trkpt lat="39.36964" lon="16.886135"><ele>525.0</ele><time>2026-03-29T11:24:54.021Z</time></trkpt><trkpt lat="39.3697017" lon="16.8860833"><ele>525.0</ele><time>2026-03-29T11:24:55.021Z</time></trkpt><trkpt lat="39.3697633" lon="16.886035"><ele>525.0</ele><time>2026-03-29T11:24:56.021Z</time></trkpt><trkpt lat="39.3698317" lon="16.8859817"><ele>525.0</ele><time>2026-03-29T11:24:57.021Z</time></trkpt><trkpt lat="39.369905" lon="16.8859333"><ele>525.0</ele><time>2026-03-29T11:24:58.021Z</time></trkpt><trkpt lat="39.369965" lon="16.8858867"><ele>525.0</ele><time>2026-03-29T11:24:59.021Z</time></trkpt><trkpt lat="39.370025" lon="16.88584"><ele>525.8571428571429</ele><time>2026-03-29T11:25:00.021Z</time></trkpt><trkpt lat="39.37008" lon="16.8857967"><ele>526.7142857142858</ele><time>2026-03-29T11:25:01.021Z</time></trkpt><trkpt lat="39.3701383" lon="16.8857517"><ele>527.5714285714286</ele><time>2026-03-29T11:25:02.021Z</time></trkpt><trkpt lat="39.3702" lon="16.885705"><ele>528.4285714285714</ele><time>2026-03-29T11:25:03.021Z</time></trkpt><trkpt lat="39.370265" lon="16.885655"><ele>529.2857142857143</ele><time>2026-03-29T11:25:04.021Z</time></trkpt><trkpt lat="39.3703383" lon="16.885615"><ele>530.1428571428571</ele><time>2026-03-29T11:25:05.021Z</time></trkpt><trkpt lat="39.3704083" lon="16.8855667"><ele>531.0</ele><time>2026-03-29T11:25:06.021Z</time></trkpt><trkpt lat="39.370475" lon="16.88552"><ele>531.7142857142858</ele><time>2026-03-29T11:25:07.021Z</time></trkpt><trkpt lat="39.3705417" lon="16.885485"><ele>532.4285714285714</ele><time>2026-03-29T11:25:08.02Z</time></trkpt><trkpt lat="39.3706083" lon="16.8854517"><ele>533.1428571428571</ele><time>2026-03-29T11:25:09.021Z</time></trkpt><trkpt lat="39.3706783" lon="16.885425"><ele>533.8571428571429</ele><time>2026-03-29T11:25:10.02Z</time></trkpt><trkpt lat="39.370745" lon="16.8854017"><ele>534.5714285714286</ele><time>2026-03-29T11:25:11.02Z</time></trkpt><trkpt lat="39.3708167" lon="16.885385"><ele>535.2857142857143</ele><time>2026-03-29T11:25:12.021Z</time></trkpt><trkpt lat="39.370885" lon="16.885375"><ele>536.0</ele><time>2026-03-29T11:25:13.021Z</time></trkpt><trkpt lat="39.3709583" lon="16.8853733"><ele>536.0</ele><time>2026-03-29T11:25:14.021Z</time></trkpt><trkpt lat="39.3710233" lon="16.8853783"><ele>536.0</ele><time>2026-03-29T11:25:15.02Z</time></trkpt><trkpt lat="39.3710917" lon="16.8853917"><ele>536.0</ele><time>2026-03-29T11:25:16.021Z</time></trkpt><trkpt lat="39.3711533" lon="16.8854133"><ele>536.0</ele><time>2026-03-29T11:25:17.021Z</time></trkpt><trkpt lat="39.3712167" lon="16.8854367"><ele>536.0</ele><time>2026-03-29T11:25:18.021Z</time></trkpt><trkpt lat="39.3713383" lon="16.8854833"><ele>536.0</ele><time>2026-03-29T11:25:20.021Z</time></trkpt><trkpt lat="39.371465" lon="16.8855233"><ele>535.5</ele><time>2026-03-29T11:25:22.021Z</time></trkpt><trkpt lat="39.3715317" lon="16.885535"><ele>535.0</ele><time>2026-03-29T11:25:23.021Z</time></trkpt><trkpt lat="39.371595" lon="16.8855367"><ele>534.5</ele><time>2026-03-29T11:25:24.021Z</time></trkpt><trkpt lat="39.3716783" lon="16.8855417"><ele>534.0</ele><time>2026-03-29T11:25:25.02Z</time></trkpt><trkpt lat="39.3717667" lon="16.88555"><ele>533.5</ele><time>2026-03-29T11:25:26.02Z</time></trkpt><trkpt lat="39.3718467" lon="16.8855617"><ele>533.0</ele><time>2026-03-29T11:25:27.02Z</time></trkpt><trkpt lat="39.3719217" lon="16.8855733"><ele>533.0</ele><time>2026-03-29T11:25:28.021Z</time></trkpt><trkpt lat="39.3720033" lon="16.88558"><ele>533.0</ele><time>2026-03-29T11:25:29.021Z</time></trkpt><trkpt lat="39.37212" lon="16.8855967"><ele>533.0</ele><time>2026-03-29T11:25:31.021Z</time></trkpt><trkpt lat="39.3721833" lon="16.8856033"><ele>533.0</ele><time>2026-03-29T11:25:33.021Z</time></trkpt><trkpt lat="39.3722817" lon="16.8855833"><ele>533.0</ele><time>2026-03-29T11:25:36.021Z</time></trkpt><trkpt lat="39.3723883" lon="16.8855583"><ele>532.6666666666666</ele><time>2026-03-29T11:25:38.02Z</time></trkpt><trkpt lat="39.3724517" lon="16.88554"><ele>532.3333333333333</ele><time>2026-03-29T11:25:39.02Z</time></trkpt><trkpt lat="39.372515" lon="16.8855267"><ele>532.0</ele><time>2026-03-29T11:25:40.02Z</time></trkpt><trkpt lat="39.37258" lon="16.8855217"><ele>531.6666666666666</ele><time>2026-03-29T11:25:41.02Z</time></trkpt><trkpt lat="39.3726933" lon="16.885525"><ele>531.3333333333334</ele><time>2026-03-29T11:25:43.019Z</time></trkpt><trkpt lat="39.3727967" lon="16.8855367"><ele>531.0</ele><time>2026-03-29T11:25:45.02Z</time></trkpt><trkpt lat="39.3728933" lon="16.885555"><ele>531.0</ele><time>2026-03-29T11:25:47.02Z</time></trkpt><trkpt lat="39.3729683" lon="16.885585"><ele>531.0</ele><time>2026-03-29T11:25:49.02Z</time></trkpt><trkpt lat="39.37305" lon="16.885625"><ele>531.0</ele><time>2026-03-29T11:25:52.02Z</time></trkpt><trkpt lat="39.37313" lon="16.8856733"><ele>531.0</ele><time>2026-03-29T11:25:55.019Z</time></trkpt><trkpt lat="39.373205" lon="16.8857233"><ele>531.0</ele><time>2026-03-29T11:25:58.02Z</time></trkpt><trkpt lat="39.3732833" lon="16.8857733"><ele>531.0</ele><time>2026-03-29T11:26:00.02Z</time></trkpt><trkpt lat="39.3733733" lon="16.8858533"><ele>532.6666666666666</ele><time>2026-03-29T11:26:02.02Z</time></trkpt><trkpt lat="39.3734533" lon="16.8859483"><ele>534.3333333333334</ele><time>2026-03-29T11:26:04.02Z</time></trkpt><trkpt lat="39.3735333" lon="16.8860017"><ele>536.0</ele><time>2026-03-29T11:26:06.02Z</time></trkpt><trkpt lat="39.3736" lon="16.8860117"><ele>537.6666666666667</ele><time>2026-03-29T11:26:08.02Z</time></trkpt><trkpt lat="39.3736683" lon="16.8860133"><ele>539.3333333333334</ele><time>2026-03-29T11:26:10.02Z</time></trkpt><trkpt lat="39.37374" lon="16.8860217"><ele>541.0</ele><time>2026-03-29T11:26:12.019Z</time></trkpt><trkpt lat="39.3738167" lon="16.8860617"><ele>537.2</ele><time>2026-03-29T11:26:14.02Z</time></trkpt><trkpt lat="39.3738883" lon="16.8861567"><ele>533.4000000000001</ele><time>2026-03-29T11:26:16.019Z</time></trkpt><trkpt lat="39.37393" lon="16.886225"><ele>529.6</ele><time>2026-03-29T11:26:17.02Z</time></trkpt><trkpt lat="39.3739783" lon="16.8863217"><ele>525.8000000000001</ele><time>2026-03-29T11:26:18.02Z</time></trkpt><trkpt lat="39.374025" lon="16.8864233"><ele>522.0</ele><time>2026-03-29T11:26:19.02Z</time></trkpt><trkpt lat="39.3740917" lon="16.8865383"><ele>522.0</ele><time>2026-03-29T11:26:20.02Z</time></trkpt><trkpt lat="39.374155" lon="16.88665"><ele>522.0</ele><time>2026-03-29T11:26:21.02Z</time></trkpt><trkpt lat="39.374215" lon="16.8867517"><ele>522.0</ele><time>2026-03-29T11:26:22.02Z</time></trkpt><trkpt lat="39.37428" lon="16.8868233"><ele>522.0</ele><time>2026-03-29T11:26:23.02Z</time></trkpt><trkpt lat="39.37436" lon="16.88686"><ele>522.0</ele><time>2026-03-29T11:26:24.02Z</time></trkpt><trkpt lat="39.3744467" lon="16.8868733"><ele>522.0</ele><time>2026-03-29T11:26:25.02Z</time></trkpt><trkpt lat="39.3745217" lon="16.8868733"><ele>522.0</ele><time>2026-03-29T11:26:26.02Z</time></trkpt><trkpt lat="39.3745983" lon="16.88688"><ele>522.0</ele><time>2026-03-29T11:26:27.02Z</time></trkpt><trkpt lat="39.3746683" lon="16.88689"><ele>522.0</ele><time>2026-03-29T11:26:28.02Z</time></trkpt><trkpt lat="39.3747967" lon="16.8869217"><ele>522.0</ele><time>2026-03-29T11:26:30.02Z</time></trkpt><trkpt lat="39.37486" lon="16.8869233"><ele>522.0</ele><time>2026-03-29T11:26:31.02Z</time></trkpt><trkpt lat="39.374965" lon="16.88691"><ele>522.0</ele><time>2026-03-29T11:26:33.02Z</time></trkpt><trkpt lat="39.3750417" lon="16.8868917"><ele>522.0</ele><time>2026-03-29T11:26:35.02Z</time></trkpt><trkpt lat="39.375145" lon="16.8868567"><ele>522.0</ele><time>2026-03-29T11:26:37.02Z</time></trkpt><trkpt lat="39.3752617" lon="16.8868433"><ele>522.0</ele><time>2026-03-29T11:26:39.02Z</time></trkpt><trkpt lat="39.3753633" lon="16.8868383"><ele>522.0</ele><time>2026-03-29T11:26:41.02Z</time></trkpt><trkpt lat="39.3754283" lon="16.886845"><ele>522.0</ele><time>2026-03-29T11:26:43.02Z</time></trkpt><trkpt lat="39.3755067" lon="16.886845"><ele>522.0</ele><time>2026-03-29T11:26:46.02Z</time></trkpt><trkpt lat="39.3755783" lon="16.886845"><ele>522.0</ele><time>2026-03-29T11:26:48.02Z</time></trkpt><trkpt lat="39.3756583" lon="16.8868417"><ele>522.0</ele><time>2026-03-29T11:26:50.02Z</time></trkpt><trkpt lat="39.3757367" lon="16.8868167"><ele>522.0</ele><time>2026-03-29T11:26:52.02Z</time></trkpt><trkpt lat="39.3758183" lon="16.88673"><ele>522.0</ele><time>2026-03-29T11:26:54.02Z</time></trkpt><trkpt lat="39.3758617" lon="16.8866667"><ele>521.0</ele><time>2026-03-29T11:26:55.02Z</time></trkpt><trkpt lat="39.3759383" lon="16.8865583"><ele>520.0</ele><time>2026-03-29T11:26:57.02Z</time></trkpt><trkpt lat="39.3760133" lon="16.8864783"><ele>519.0</ele><time>2026-03-29T11:26:59.02Z</time></trkpt><trkpt lat="39.376095" lon="16.8864017"><ele>518.0</ele><time>2026-03-29T11:27:01.02Z</time></trkpt><trkpt lat="39.3761917" lon="16.8863317"><ele>517.0</ele><time>2026-03-29T11:27:03.02Z</time></trkpt><trkpt lat="39.3762517" lon="16.886295"><ele>517.0</ele><time>2026-03-29T11:27:04.02Z</time></trkpt><trkpt lat="39.3763133" lon="16.8862767"><ele>517.0</ele><time>2026-03-29T11:27:05.02Z</time></trkpt><trkpt lat="39.3764167" lon="16.8862283"><ele>517.0</ele><time>2026-03-29T11:27:07.02Z</time></trkpt><trkpt lat="39.3765117" lon="16.8861417"><ele>517.0</ele><time>2026-03-29T11:27:09.02Z</time></trkpt><trkpt lat="39.376595" lon="16.8860683"><ele>517.0</ele><time>2026-03-29T11:27:11.02Z</time></trkpt><trkpt lat="39.3766867" lon="16.886015"><ele>516.0</ele><time>2026-03-29T11:27:13.02Z</time></trkpt><trkpt lat="39.376745" lon="16.8859817"><ele>515.0</ele><time>2026-03-29T11:27:14.02Z</time></trkpt><trkpt lat="39.3768517" lon="16.885925"><ele>514.0</ele><time>2026-03-29T11:27:16.02Z</time></trkpt><trkpt lat="39.3769467" lon="16.8858617"><ele>513.0</ele><time>2026-03-29T11:27:18.02Z</time></trkpt><trkpt lat="39.3769933" lon="16.8857683"><ele>512.0</ele><time>2026-03-29T11:27:20.02Z</time></trkpt><trkpt lat="39.3770417" lon="16.8856183"><ele>511.99999999999994</ele><time>2026-03-29T11:27:22.02Z</time></trkpt><trkpt lat="39.37709" lon="16.8855367"><ele>512.0</ele><time>2026-03-29T11:27:23.02Z</time></trkpt><trkpt lat="39.3771483" lon="16.885455"><ele>512.0</ele><time>2026-03-29T11:27:24.02Z</time></trkpt><trkpt lat="39.3772167" lon="16.88537"><ele>512.0</ele><time>2026-03-29T11:27:25.02Z</time></trkpt><trkpt lat="39.3772867" lon="16.8852917"><ele>511.99999999999994</ele><time>2026-03-29T11:27:26.02Z</time></trkpt><trkpt lat="39.3773433" lon="16.88523"><ele>512.0</ele><time>2026-03-29T11:27:27.019Z</time></trkpt><trkpt lat="39.377395" lon="16.8851833"><ele>512.2</ele><time>2026-03-29T11:27:28.02Z</time></trkpt><trkpt lat="39.3774967" lon="16.8851083"><ele>512.4000000000001</ele><time>2026-03-29T11:27:30.02Z</time></trkpt><trkpt lat="39.3776033" lon="16.8850383"><ele>512.5999999999999</ele><time>2026-03-29T11:27:32.02Z</time></trkpt><trkpt lat="39.3776983" lon="16.8849317"><ele>512.8</ele><time>2026-03-29T11:27:34.019Z</time></trkpt><trkpt lat="39.3777417" lon="16.884865"><ele>513.0</ele><time>2026-03-29T11:27:35.02Z</time></trkpt><trkpt lat="39.37778" lon="16.8847967"><ele>513.0</ele><time>2026-03-29T11:27:36.02Z</time></trkpt><trkpt lat="39.3778083" lon="16.8847217"><ele>513.0</ele><time>2026-03-29T11:27:37.019Z</time></trkpt><trkpt lat="39.3778733" lon="16.8846017"><ele>513.0</ele><time>2026-03-29T11:27:39.02Z</time></trkpt><trkpt lat="39.3779183" lon="16.8845433"><ele>513.0</ele><time>2026-03-29T11:27:40.02Z</time></trkpt><trkpt lat="39.37797" lon="16.8844883"><ele>513.0</ele><time>2026-03-29T11:27:41.02Z</time></trkpt><trkpt lat="39.378025" lon="16.8844433"><ele>513.0</ele><time>2026-03-29T11:27:42.02Z</time></trkpt><trkpt lat="39.3781433" lon="16.8843883"><ele>512.8333333333334</ele><time>2026-03-29T11:27:44.02Z</time></trkpt><trkpt lat="39.3782117" lon="16.88437"><ele>512.6666666666666</ele><time>2026-03-29T11:27:45.02Z</time></trkpt><trkpt lat="39.3782767" lon="16.8843433"><ele>512.5</ele><time>2026-03-29T11:27:46.02Z</time></trkpt><trkpt lat="39.37835" lon="16.884315"><ele>512.3333333333333</ele><time>2026-03-29T11:27:47.02Z</time></trkpt><trkpt lat="39.3784233" lon="16.8842717"><ele>512.1666666666666</ele><time>2026-03-29T11:27:48.02Z</time></trkpt><trkpt lat="39.3784983" lon="16.8842167"><ele>512.0</ele><time>2026-03-29T11:27:49.02Z</time></trkpt><trkpt lat="39.378555" lon="16.8841633"><ele>511.8</ele><time>2026-03-29T11:27:50.02Z</time></trkpt><trkpt lat="39.3786383" lon="16.8840583"><ele>511.6</ele><time>2026-03-29T11:27:52.019Z</time></trkpt><trkpt lat="39.3787017" lon="16.8839683"><ele>511.40000000000003</ele><time>2026-03-29T11:27:54.02Z</time></trkpt><trkpt lat="39.3787617" lon="16.8839033"><ele>511.20000000000005</ele><time>2026-03-29T11:27:56.02Z</time></trkpt><trkpt lat="39.3788233" lon="16.8838183"><ele>511.0</ele><time>2026-03-29T11:27:58.02Z</time></trkpt><trkpt lat="39.3789033" lon="16.8837033"><ele>511.0</ele><time>2026-03-29T11:28:00.02Z</time></trkpt><trkpt lat="39.3789817" lon="16.883585"><ele>511.0</ele><time>2026-03-29T11:28:02.02Z</time></trkpt><trkpt lat="39.37908" lon="16.8834817"><ele>511.0</ele><time>2026-03-29T11:28:04.02Z</time></trkpt><trkpt lat="39.3791383" lon="16.883435"><ele>511.0</ele><time>2026-03-29T11:28:05.02Z</time></trkpt><trkpt lat="39.379235" lon="16.88333"><ele>511.0</ele><time>2026-03-29T11:28:07.02Z</time></trkpt><trkpt lat="39.379285" lon="16.88328"><ele>513.0</ele><time>2026-03-29T11:28:08.019Z</time></trkpt><trkpt lat="39.3793733" lon="16.8831917"><ele>515.0</ele><time>2026-03-29T11:28:10.02Z</time></trkpt><trkpt lat="39.3794833" lon="16.8831217"><ele>517.0</ele><time>2026-03-29T11:28:12.02Z</time></trkpt><trkpt lat="39.37954" lon="16.883085"><ele>519.0</ele><time>2026-03-29T11:28:13.02Z</time></trkpt><trkpt lat="39.3796383" lon="16.883"><ele>521.0</ele><time>2026-03-29T11:28:15.02Z</time></trkpt><trkpt lat="39.3797233" lon="16.8829133"><ele>522.0</ele><time>2026-03-29T11:28:17.02Z</time></trkpt><trkpt lat="39.3798133" lon="16.8828217"><ele>523.0</ele><time>2026-03-29T11:28:19.02Z</time></trkpt><trkpt lat="39.3799083" lon="16.882725"><ele>524.0</ele><time>2026-03-29T11:28:21.02Z</time></trkpt><trkpt lat="39.3800217" lon="16.8826617"><ele>525.0</ele><time>2026-03-29T11:28:23.019Z</time></trkpt><trkpt lat="39.380135" lon="16.88258"><ele>525.0</ele><time>2026-03-29T11:28:25.02Z</time></trkpt><trkpt lat="39.3801967" lon="16.8825367"><ele>525.0</ele><time>2026-03-29T11:28:26.019Z</time></trkpt><trkpt lat="39.3802517" lon="16.8824817"><ele>525.0</ele><time>2026-03-29T11:28:27.02Z</time></trkpt><trkpt lat="39.3803083" lon="16.8824283"><ele>525.0</ele><time>2026-03-29T11:28:28.02Z</time></trkpt><trkpt lat="39.380365" lon="16.8823717"><ele>525.0</ele><time>2026-03-29T11:28:29.019Z</time></trkpt><trkpt lat="39.3804217" lon="16.8823217"><ele>525.0</ele><time>2026-03-29T11:28:30.019Z</time></trkpt><trkpt lat="39.380475" lon="16.8822733"><ele>525.0</ele><time>2026-03-29T11:28:31.02Z</time></trkpt><trkpt lat="39.3805317" lon="16.8822317"><ele>526.1666666666666</ele><time>2026-03-29T11:28:32.02Z</time></trkpt><trkpt lat="39.38059" lon="16.8821867"><ele>527.3333333333334</ele><time>2026-03-29T11:28:33.02Z</time></trkpt><trkpt lat="39.3806433" lon="16.88213"><ele>528.5</ele><time>2026-03-29T11:28:34.02Z</time></trkpt><trkpt lat="39.3807" lon="16.8820567"><ele>529.6666666666667</ele><time>2026-03-29T11:28:35.02Z</time></trkpt><trkpt lat="39.3807533" lon="16.8819733"><ele>530.8333333333334</ele><time>2026-03-29T11:28:36.02Z</time></trkpt><trkpt lat="39.3808017" lon="16.88188"><ele>532.0</ele><time>2026-03-29T11:28:37.02Z</time></trkpt><trkpt lat="39.3808367" lon="16.8817867"><ele>532.0</ele><time>2026-03-29T11:28:38.02Z</time></trkpt><trkpt lat="39.3808633" lon="16.88169"><ele>532.0</ele><time>2026-03-29T11:28:39.02Z</time></trkpt><trkpt lat="39.3808883" lon="16.8815967"><ele>532.0</ele><time>2026-03-29T11:28:40.02Z</time></trkpt><trkpt lat="39.3809117" lon="16.8814983"><ele>532.0</ele><time>2026-03-29T11:28:41.02Z</time></trkpt><trkpt lat="39.380935" lon="16.8814083"><ele>532.0</ele><time>2026-03-29T11:28:42.02Z</time></trkpt><trkpt lat="39.3809633" lon="16.8813217"><ele>532.0</ele><time>2026-03-29T11:28:43.02Z</time></trkpt><trkpt lat="39.381" lon="16.8812367"><ele>532.0</ele><time>2026-03-29T11:28:44.02Z</time></trkpt><trkpt lat="39.3810333" lon="16.88116"><ele>532.0</ele><time>2026-03-29T11:28:45.02Z</time></trkpt><trkpt lat="39.3810733" lon="16.881095"><ele>532.0</ele><time>2026-03-29T11:28:46.02Z</time></trkpt><trkpt lat="39.38117" lon="16.8810067"><ele>532.0</ele><time>2026-03-29T11:28:48.02Z</time></trkpt><trkpt lat="39.38128" lon="16.8809633"><ele>532.0</ele><time>2026-03-29T11:28:50.02Z</time></trkpt><trkpt lat="39.3813867" lon="16.8809417"><ele>530.8000000000001</ele><time>2026-03-29T11:28:52.02Z</time></trkpt><trkpt lat="39.3814733" lon="16.8808717"><ele>529.6</ele><time>2026-03-29T11:28:54.02Z</time></trkpt><trkpt lat="39.3815667" lon="16.8807883"><ele>528.4000000000001</ele><time>2026-03-29T11:28:56.02Z</time></trkpt><trkpt lat="39.3816633" lon="16.88071"><ele>527.2</ele><time>2026-03-29T11:28:58.02Z</time></trkpt><trkpt lat="39.3817683" lon="16.8806667"><ele>526.0</ele><time>2026-03-29T11:29:00.02Z</time></trkpt><trkpt lat="39.3818783" lon="16.88065"><ele>526.0</ele><time>2026-03-29T11:29:02.019Z</time></trkpt><trkpt lat="39.3819467" lon="16.8806317"><ele>526.0</ele><time>2026-03-29T11:29:03.019Z</time></trkpt><trkpt lat="39.3820067" lon="16.8805983"><ele>526.0</ele><time>2026-03-29T11:29:04.02Z</time></trkpt><trkpt lat="39.3820717" lon="16.8805733"><ele>526.0</ele><time>2026-03-29T11:29:05.02Z</time></trkpt><trkpt lat="39.3821833" lon="16.8805517"><ele>526.0</ele><time>2026-03-29T11:29:07.02Z</time></trkpt><trkpt lat="39.382285" lon="16.880525"><ele>526.0</ele><time>2026-03-29T11:29:09.02Z</time></trkpt><trkpt lat="39.3823717" lon="16.88046"><ele>524.8</ele><time>2026-03-29T11:29:11.02Z</time></trkpt><trkpt lat="39.3824883" lon="16.8803883"><ele>523.6</ele><time>2026-03-29T11:29:13.02Z</time></trkpt><trkpt lat="39.3825483" lon="16.8803433"><ele>522.4</ele><time>2026-03-29T11:29:14.02Z</time></trkpt><trkpt lat="39.3826167" lon="16.8803017"><ele>521.2</ele><time>2026-03-29T11:29:15.02Z</time></trkpt><trkpt lat="39.382695" lon="16.8802683"><ele>520.0</ele><time>2026-03-29T11:29:16.02Z</time></trkpt><trkpt lat="39.382785" lon="16.8802367"><ele>520.0</ele><time>2026-03-29T11:29:17.02Z</time></trkpt><trkpt lat="39.3828767" lon="16.8802133"><ele>520.0</ele><time>2026-03-29T11:29:18.02Z</time></trkpt><trkpt lat="39.3829667" lon="16.8802017"><ele>520.0</ele><time>2026-03-29T11:29:19.019Z</time></trkpt><trkpt lat="39.383055" lon="16.8801817"><ele>520.0</ele><time>2026-03-29T11:29:20.02Z</time></trkpt><trkpt lat="39.3831367" lon="16.880175"><ele>520.0</ele><time>2026-03-29T11:29:21.02Z</time></trkpt><trkpt lat="39.3832217" lon="16.88017"><ele>520.0</ele><time>2026-03-29T11:29:22.02Z</time></trkpt><trkpt lat="39.383315" lon="16.8801667"><ele>520.6666666666667</ele><time>2026-03-29T11:29:23.02Z</time></trkpt><trkpt lat="39.383405" lon="16.8801583"><ele>521.3333333333334</ele><time>2026-03-29T11:29:24.02Z</time></trkpt><trkpt lat="39.3834933" lon="16.8801433"><ele>522.0</ele><time>2026-03-29T11:29:25.02Z</time></trkpt><trkpt lat="39.3835833" lon="16.8801283"><ele>522.6666666666666</ele><time>2026-03-29T11:29:26.02Z</time></trkpt><trkpt lat="39.3836583" lon="16.880105"><ele>523.3333333333333</ele><time>2026-03-29T11:29:27.019Z</time></trkpt><trkpt lat="39.38376" lon="16.880095"><ele>524.0</ele><time>2026-03-29T11:29:29.02Z</time></trkpt><trkpt lat="39.3838433" lon="16.8800783"><ele>525.2</ele><time>2026-03-29T11:29:32.02Z</time></trkpt><trkpt lat="39.38394" lon="16.8800767"><ele>526.4</ele><time>2026-03-29T11:29:35.019Z</time></trkpt><trkpt lat="39.3840133" lon="16.8800833"><ele>527.6</ele><time>2026-03-29T11:29:37.019Z</time></trkpt><trkpt lat="39.3841017" lon="16.8800817"><ele>528.8</ele><time>2026-03-29T11:29:39.019Z</time></trkpt><trkpt lat="39.3842067" lon="16.8800883"><ele>530.0</ele><time>2026-03-29T11:29:41.02Z</time></trkpt><trkpt lat="39.3843317" lon="16.88009"><ele>529.9999999999999</ele><time>2026-03-29T11:29:43.019Z</time></trkpt><trkpt lat="39.3844033" lon="16.8800817"><ele>530.0</ele><time>2026-03-29T11:29:44.02Z</time></trkpt><trkpt lat="39.3844767" lon="16.88007"><ele>530.0</ele><time>2026-03-29T11:29:45.02Z</time></trkpt><trkpt lat="39.3845517" lon="16.88007"><ele>530.0</ele><time>2026-03-29T11:29:46.02Z</time></trkpt><trkpt lat="39.3846267" lon="16.8800683"><ele>530.0</ele><time>2026-03-29T11:29:47.02Z</time></trkpt><trkpt lat="39.3847" lon="16.8800683"><ele>529.9999999999999</ele><time>2026-03-29T11:29:48.02Z</time></trkpt><trkpt lat="39.384775" lon="16.8800667"><ele>530.0</ele><time>2026-03-29T11:29:49.02Z</time></trkpt><trkpt lat="39.3848533" lon="16.880055"><ele>528.8333333333333</ele><time>2026-03-29T11:29:50.02Z</time></trkpt><trkpt lat="39.38493" lon="16.88005"><ele>527.6666666666666</ele><time>2026-03-29T11:29:51.02Z</time></trkpt><trkpt lat="39.38501" lon="16.8800433"><ele>526.5</ele><time>2026-03-29T11:29:52.02Z</time></trkpt><trkpt lat="39.3850933" lon="16.8800233"><ele>525.3333333333334</ele><time>2026-03-29T11:29:53.02Z</time></trkpt><trkpt lat="39.3851733" lon="16.8800067"><ele>524.1666666666667</ele><time>2026-03-29T11:29:54.02Z</time></trkpt><trkpt lat="39.3852467" lon="16.8799983"><ele>523.0</ele><time>2026-03-29T11:29:55.02Z</time></trkpt><trkpt lat="39.385315" lon="16.879985"><ele>523.0</ele><time>2026-03-29T11:29:56.02Z</time></trkpt><trkpt lat="39.3853817" lon="16.8799767"><ele>523.0</ele><time>2026-03-29T11:29:57.02Z</time></trkpt><trkpt lat="39.3854883" lon="16.8799367"><ele>523.0</ele><time>2026-03-29T11:29:59.019Z</time></trkpt><trkpt lat="39.3856083" lon="16.8799233"><ele>523.0</ele><time>2026-03-29T11:30:01.02Z</time></trkpt><trkpt lat="39.3857217" lon="16.87989"><ele>523.0</ele><time>2026-03-29T11:30:03.02Z</time></trkpt><trkpt lat="39.3857867" lon="16.8798683"><ele>521.6</ele><time>2026-03-29T11:30:04.02Z</time></trkpt><trkpt lat="39.3858867" lon="16.8798033"><ele>520.1999999999999</ele><time>2026-03-29T11:30:06.02Z</time></trkpt><trkpt lat="39.3859633" lon="16.8797517"><ele>518.8</ele><time>2026-03-29T11:30:08.02Z</time></trkpt><trkpt lat="39.3860233" lon="16.8796717"><ele>517.4</ele><time>2026-03-29T11:30:11.02Z</time></trkpt><trkpt lat="39.3860933" lon="16.8796017"><ele>516.0</ele><time>2026-03-29T11:30:14.02Z</time></trkpt><trkpt lat="39.3861917" lon="16.879525"><ele>516.0</ele><time>2026-03-29T11:30:22.02Z</time></trkpt><trkpt lat="39.3862683" lon="16.87946"><ele>516.0</ele><time>2026-03-29T11:30:25.02Z</time></trkpt><trkpt lat="39.3863383" lon="16.8794017"><ele>516.0</ele><time>2026-03-29T11:30:27.019Z</time></trkpt><trkpt lat="39.3864317" lon="16.8793233"><ele>516.0</ele><time>2026-03-29T11:30:29.02Z</time></trkpt><trkpt lat="39.3865367" lon="16.87923"><ele>516.0</ele><time>2026-03-29T11:30:31.02Z</time></trkpt><trkpt lat="39.3865883" lon="16.87918"><ele>515.2</ele><time>2026-03-29T11:30:32.019Z</time></trkpt><trkpt lat="39.386645" lon="16.8791333"><ele>514.4000000000001</ele><time>2026-03-29T11:30:33.02Z</time></trkpt><trkpt lat="39.3866967" lon="16.8790867"><ele>513.6</ele><time>2026-03-29T11:30:34.02Z</time></trkpt><trkpt lat="39.3868017" lon="16.879015"><ele>512.8000000000001</ele><time>2026-03-29T11:30:36.019Z</time></trkpt><trkpt lat="39.38691" lon="16.8789583"><ele>512.0</ele><time>2026-03-29T11:30:38.019Z</time></trkpt><trkpt lat="39.3870033" lon="16.8788567"><ele>512.0</ele><time>2026-03-29T11:30:40.02Z</time></trkpt><trkpt lat="39.3871" lon="16.8787567"><ele>512.0</ele><time>2026-03-29T11:30:42.02Z</time></trkpt><trkpt lat="39.3871567" lon="16.8787117"><ele>512.0</ele><time>2026-03-29T11:30:43.02Z</time></trkpt><trkpt lat="39.3872183" lon="16.878675"><ele>512.0</ele><time>2026-03-29T11:30:44.02Z</time></trkpt><trkpt lat="39.3873467" lon="16.8786383"><ele>512.0</ele><time>2026-03-29T11:30:46.02Z</time></trkpt><trkpt lat="39.3874117" lon="16.8786183"><ele>511.0</ele><time>2026-03-29T11:30:47.02Z</time></trkpt><trkpt lat="39.38753" lon="16.878565"><ele>510.00000000000006</ele><time>2026-03-29T11:30:49.02Z</time></trkpt><trkpt lat="39.3876367" lon="16.8785217"><ele>509.00000000000006</ele><time>2026-03-29T11:30:51.02Z</time></trkpt><trkpt lat="39.387735" lon="16.8784917"><ele>508.0</ele><time>2026-03-29T11:30:53.02Z</time></trkpt><trkpt lat="39.3878267" lon="16.8784667"><ele>507.0</ele><time>2026-03-29T11:30:56.02Z</time></trkpt><trkpt lat="39.387895" lon="16.8784517"><ele>506.5</ele><time>2026-03-29T11:30:58.02Z</time></trkpt><trkpt lat="39.3879783" lon="16.8784333"><ele>506.0</ele><time>2026-03-29T11:31:00.02Z</time></trkpt><trkpt lat="39.3880683" lon="16.87841"><ele>505.5</ele><time>2026-03-29T11:31:02.02Z</time></trkpt><trkpt lat="39.38814" lon="16.8783683"><ele>505.0</ele><time>2026-03-29T11:31:04.02Z</time></trkpt><trkpt lat="39.3882183" lon="16.878335"><ele>504.5</ele><time>2026-03-29T11:31:07.019Z</time></trkpt><trkpt lat="39.3882817" lon="16.8783367"><ele>504.0</ele><time>2026-03-29T11:31:09.02Z</time></trkpt><trkpt lat="39.3883567" lon="16.8783533"><ele>501.2</ele><time>2026-03-29T11:31:11.02Z</time></trkpt><trkpt lat="39.3884533" lon="16.8783833"><ele>498.4</ele><time>2026-03-29T11:31:13.02Z</time></trkpt><trkpt lat="39.388555" lon="16.878385"><ele>495.6</ele><time>2026-03-29T11:31:15.02Z</time></trkpt><trkpt lat="39.3886683" lon="16.8784017"><ele>492.8</ele><time>2026-03-29T11:31:17.02Z</time></trkpt><trkpt lat="39.38879" lon="16.878425"><ele>490.0</ele><time>2026-03-29T11:31:19.02Z</time></trkpt><trkpt lat="39.3889033" lon="16.8784717"><ele>488.33333333333337</ele><time>2026-03-29T11:31:21.02Z</time></trkpt><trkpt lat="39.3890117" lon="16.8785017"><ele>486.6666666666667</ele><time>2026-03-29T11:31:23.02Z</time></trkpt><trkpt lat="39.3890783" lon="16.8784317"><ele>485.0</ele><time>2026-03-29T11:31:26.02Z</time></trkpt><trkpt lat="39.3891233" lon="16.8783633"><ele>483.33333333333337</ele><time>2026-03-29T11:31:29.02Z</time></trkpt><trkpt lat="39.3892133" lon="16.8783833"><ele>481.6666666666667</ele><time>2026-03-29T11:31:32.02Z</time></trkpt><trkpt lat="39.3892983" lon="16.8783617"><ele>480.0</ele><time>2026-03-29T11:31:34.02Z</time></trkpt><trkpt lat="39.3894083" lon="16.8782733"><ele>480.0</ele><time>2026-03-29T11:31:36.02Z</time></trkpt><trkpt lat="39.3894767" lon="16.878225"><ele>480.0</ele><time>2026-03-29T11:31:37.019Z</time></trkpt><trkpt lat="39.389545" lon="16.8781917"><ele>480.0</ele><time>2026-03-29T11:31:38.02Z</time></trkpt><trkpt lat="39.3896217" lon="16.87818"><ele>480.0</ele><time>2026-03-29T11:31:39.02Z</time></trkpt><trkpt lat="39.3896933" lon="16.8781967"><ele>480.0</ele><time>2026-03-29T11:31:40.02Z</time></trkpt><trkpt lat="39.38976" lon="16.87822"><ele>480.0</ele><time>2026-03-29T11:31:41.02Z</time></trkpt><trkpt lat="39.389825" lon="16.8782317"><ele>480.0</ele><time>2026-03-29T11:31:42.02Z</time></trkpt><trkpt lat="39.389895" lon="16.878225"><ele>479.6666666666667</ele><time>2026-03-29T11:31:43.02Z</time></trkpt><trkpt lat="39.3900067" lon="16.8781883"><ele>479.33333333333337</ele><time>2026-03-29T11:31:45.02Z</time></trkpt><trkpt lat="39.3900933" lon="16.8781733"><ele>479.0</ele><time>2026-03-29T11:31:47.019Z</time></trkpt><trkpt lat="39.3901717" lon="16.8781517"><ele>478.6666666666667</ele><time>2026-03-29T11:31:50.02Z</time></trkpt><trkpt lat="39.3902467" lon="16.8781633"><ele>478.33333333333337</ele><time>2026-03-29T11:31:53.02Z</time></trkpt><trkpt lat="39.3903067" lon="16.878215"><ele>478.0</ele><time>2026-03-29T11:31:55.02Z</time></trkpt><trkpt lat="39.39036" lon="16.8783033"><ele>478.0</ele><time>2026-03-29T11:31:57.02Z</time></trkpt><trkpt lat="39.3904233" lon="16.8784017"><ele>477.99999999999994</ele><time>2026-03-29T11:31:59.02Z</time></trkpt><trkpt lat="39.3905017" lon="16.8784983"><ele>477.99999999999994</ele><time>2026-03-29T11:32:01.02Z</time></trkpt><trkpt lat="39.3905783" lon="16.878575"><ele>478.0</ele><time>2026-03-29T11:32:03.019Z</time></trkpt><trkpt lat="39.3906617" lon="16.8786317"><ele>478.0</ele><time>2026-03-29T11:32:05.02Z</time></trkpt><trkpt lat="39.390745" lon="16.8787117"><ele>478.6666666666667</ele><time>2026-03-29T11:32:07.02Z</time></trkpt><trkpt lat="39.3908017" lon="16.8787883"><ele>479.33333333333337</ele><time>2026-03-29T11:32:09.019Z</time></trkpt><trkpt lat="39.39085" lon="16.8789067"><ele>480.0</ele><time>2026-03-29T11:32:11.02Z</time></trkpt><trkpt lat="39.3908783" lon="16.8789817"><ele>480.66666666666663</ele><time>2026-03-29T11:32:12.02Z</time></trkpt><trkpt lat="39.390905" lon="16.8790567"><ele>481.3333333333333</ele><time>2026-03-29T11:32:13.02Z</time></trkpt><trkpt lat="39.3909483" lon="16.8791233"><ele>482.0</ele><time>2026-03-29T11:32:14.019Z</time></trkpt><trkpt lat="39.391" lon="16.8791933"><ele>481.99999999999994</ele><time>2026-03-29T11:32:15.019Z</time></trkpt><trkpt lat="39.3910617" lon="16.8792517"><ele>482.0</ele><time>2026-03-29T11:32:16.02Z</time></trkpt><trkpt lat="39.3911217" lon="16.8792883"><ele>482.0</ele><time>2026-03-29T11:32:17.019Z</time></trkpt><trkpt lat="39.3912133" lon="16.8793533"><ele>482.0</ele><time>2026-03-29T11:32:19.02Z</time></trkpt><trkpt lat="39.3913017" lon="16.8794583"><ele>481.99999999999994</ele><time>2026-03-29T11:32:21.02Z</time></trkpt><trkpt lat="39.3913583" lon="16.8795217"><ele>482.0</ele><time>2026-03-29T11:32:22.02Z</time></trkpt><trkpt lat="39.3914167" lon="16.8795833"><ele>482.3333333333333</ele><time>2026-03-29T11:32:23.02Z</time></trkpt><trkpt lat="39.391465" lon="16.8796433"><ele>482.66666666666663</ele><time>2026-03-29T11:32:24.02Z</time></trkpt><trkpt lat="39.39155" lon="16.8797467"><ele>483.0</ele><time>2026-03-29T11:32:26.02Z</time></trkpt><trkpt lat="39.3916133" lon="16.8798233"><ele>483.33333333333337</ele><time>2026-03-29T11:32:28.02Z</time></trkpt><trkpt lat="39.3916867" lon="16.879835"><ele>483.6666666666667</ele><time>2026-03-29T11:32:30.02Z</time></trkpt><trkpt lat="39.3917533" lon="16.8798233"><ele>484.0</ele><time>2026-03-29T11:32:32.019Z</time></trkpt><trkpt lat="39.39183" lon="16.8798117"><ele>484.0</ele><time>2026-03-29T11:32:34.02Z</time></trkpt><trkpt lat="39.3919383" lon="16.879815"><ele>484.0</ele><time>2026-03-29T11:32:36.019Z</time></trkpt><trkpt lat="39.39204" lon="16.8798183"><ele>484.0</ele><time>2026-03-29T11:32:38.02Z</time></trkpt><trkpt lat="39.392115" lon="16.87982"><ele>484.0</ele><time>2026-03-29T11:32:40.02Z</time></trkpt><trkpt lat="39.3921417" lon="16.879915"><ele>484.0</ele><time>2026-03-29T11:32:44.02Z</time></trkpt><trkpt lat="39.3920667" lon="16.8799967"><ele>483.6666666666667</ele><time>2026-03-29T11:32:46.02Z</time></trkpt><trkpt lat="39.3919833" lon="16.8801183"><ele>483.33333333333337</ele><time>2026-03-29T11:32:48.02Z</time></trkpt><trkpt lat="39.391955" lon="16.8802083"><ele>483.0</ele><time>2026-03-29T11:32:49.02Z</time></trkpt><trkpt lat="39.39194" lon="16.8803083"><ele>482.66666666666663</ele><time>2026-03-29T11:32:50.019Z</time></trkpt><trkpt lat="39.3919367" lon="16.880415"><ele>482.3333333333333</ele><time>2026-03-29T11:32:51.02Z</time></trkpt><trkpt lat="39.3919417" lon="16.88052"><ele>482.0</ele><time>2026-03-29T11:32:52.019Z</time></trkpt><trkpt lat="39.3919483" lon="16.8806283"><ele>481.99999999999994</ele><time>2026-03-29T11:32:53.02Z</time></trkpt><trkpt lat="39.391975" lon="16.88074"><ele>482.0</ele><time>2026-03-29T11:32:54.02Z</time></trkpt><trkpt lat="39.3920117" lon="16.88086"><ele>482.0</ele><time>2026-03-29T11:32:55.02Z</time></trkpt><trkpt lat="39.392045" lon="16.880965"><ele>482.0</ele><time>2026-03-29T11:32:56.02Z</time></trkpt><trkpt lat="39.3920767" lon="16.881045"><ele>481.99999999999994</ele><time>2026-03-29T11:32:57.02Z</time></trkpt><trkpt lat="39.392115" lon="16.8811233"><ele>482.0</ele><time>2026-03-29T11:32:58.019Z</time></trkpt><trkpt lat="39.3921617" lon="16.8811933"><ele>483.99999999999994</ele><time>2026-03-29T11:32:59.02Z</time></trkpt><trkpt lat="39.3922217" lon="16.881255"><ele>486.0</ele><time>2026-03-29T11:33:00.019Z</time></trkpt><trkpt lat="39.3922767" lon="16.881315"><ele>488.0</ele><time>2026-03-29T11:33:01.019Z</time></trkpt><trkpt lat="39.3923333" lon="16.8813667"><ele>490.0</ele><time>2026-03-29T11:33:02.02Z</time></trkpt><trkpt lat="39.3924317" lon="16.8814383"><ele>491.99999999999994</ele><time>2026-03-29T11:33:04.019Z</time></trkpt><trkpt lat="39.3925433" lon="16.88146"><ele>494.0</ele><time>2026-03-29T11:33:06.02Z</time></trkpt><trkpt lat="39.3926433" lon="16.8814667"><ele>493.99999999999994</ele><time>2026-03-29T11:33:08.02Z</time></trkpt><trkpt lat="39.3927067" lon="16.8815333"><ele>494.0</ele><time>2026-03-29T11:33:10.019Z</time></trkpt><trkpt lat="39.3927267" lon="16.881655"><ele>494.0</ele><time>2026-03-29T11:33:12.02Z</time></trkpt><trkpt lat="39.3927583" lon="16.8817933"><ele>494.0</ele><time>2026-03-29T11:33:14.02Z</time></trkpt><trkpt lat="39.3927767" lon="16.8818817"><ele>493.99999999999994</ele><time>2026-03-29T11:33:15.02Z</time></trkpt><trkpt lat="39.39278" lon="16.8819667"><ele>494.0</ele><time>2026-03-29T11:33:16.02Z</time></trkpt><trkpt lat="39.392765" lon="16.88205"><ele>493.57142857142856</ele><time>2026-03-29T11:33:17.02Z</time></trkpt><trkpt lat="39.3927267" lon="16.8821167"><ele>493.1428571428571</ele><time>2026-03-29T11:33:18.02Z</time></trkpt><trkpt lat="39.3926667" lon="16.8821783"><ele>492.71428571428567</ele><time>2026-03-29T11:33:19.02Z</time></trkpt><trkpt lat="39.3926017" lon="16.8822417"><ele>492.2857142857143</ele><time>2026-03-29T11:33:20.02Z</time></trkpt><trkpt lat="39.39255" lon="16.8823017"><ele>491.8571428571428</ele><time>2026-03-29T11:33:21.019Z</time></trkpt><trkpt lat="39.3925017" lon="16.8823717"><ele>491.4285714285714</ele><time>2026-03-29T11:33:22.02Z</time></trkpt><trkpt lat="39.3924467" lon="16.8824533"><ele>491.0</ele><time>2026-03-29T11:33:23.02Z</time></trkpt><trkpt lat="39.3923867" lon="16.8825433"><ele>489.3333333333333</ele><time>2026-03-29T11:33:24.02Z</time></trkpt><trkpt lat="39.3923267" lon="16.8826333"><ele>487.66666666666663</ele><time>2026-03-29T11:33:25.02Z</time></trkpt><trkpt lat="39.392265" lon="16.8827117"><ele>486.0</ele><time>2026-03-29T11:33:26.02Z</time></trkpt><trkpt lat="39.3922033" lon="16.88278"><ele>484.33333333333337</ele><time>2026-03-29T11:33:27.019Z</time></trkpt><trkpt lat="39.3921467" lon="16.8828467"><ele>482.6666666666667</ele><time>2026-03-29T11:33:28.02Z</time></trkpt><trkpt lat="39.3920883" lon="16.8829617"><ele>481.0</ele><time>2026-03-29T11:33:30.019Z</time></trkpt><trkpt lat="39.3921017" lon="16.8830733"><ele>481.00000000000006</ele><time>2026-03-29T11:33:32.02Z</time></trkpt><trkpt lat="39.3921317" lon="16.8831467"><ele>481.0</ele><time>2026-03-29T11:33:33.02Z</time></trkpt><trkpt lat="39.3921583" lon="16.8832283"><ele>481.0</ele><time>2026-03-29T11:33:34.02Z</time></trkpt><trkpt lat="39.3921817" lon="16.883315"><ele>481.0</ele><time>2026-03-29T11:33:35.02Z</time></trkpt><trkpt lat="39.3921933" lon="16.8833983"><ele>481.00000000000006</ele><time>2026-03-29T11:33:36.02Z</time></trkpt><trkpt lat="39.39215" lon="16.8835417"><ele>481.0</ele><time>2026-03-29T11:33:38.02Z</time></trkpt><trkpt lat="39.3921133" lon="16.88362"><ele>480.1666666666667</ele><time>2026-03-29T11:33:39.02Z</time></trkpt><trkpt lat="39.3920783" lon="16.8837017"><ele>479.33333333333337</ele><time>2026-03-29T11:33:40.02Z</time></trkpt><trkpt lat="39.3920433" lon="16.8837883"><ele>478.5</ele><time>2026-03-29T11:33:41.019Z</time></trkpt><trkpt lat="39.3920083" lon="16.8838817"><ele>477.66666666666663</ele><time>2026-03-29T11:33:42.02Z</time></trkpt><trkpt lat="39.3919883" lon="16.883985"><ele>476.8333333333333</ele><time>2026-03-29T11:33:43.02Z</time></trkpt><trkpt lat="39.39197" lon="16.8840933"><ele>476.0</ele><time>2026-03-29T11:33:44.02Z</time></trkpt><trkpt lat="39.391945" lon="16.8841933"><ele>474.8571428571429</ele><time>2026-03-29T11:33:45.019Z</time></trkpt><trkpt lat="39.3919133" lon="16.8842833"><ele>473.7142857142857</ele><time>2026-03-29T11:33:46.02Z</time></trkpt><trkpt lat="39.3918867" lon="16.884375"><ele>472.57142857142856</ele><time>2026-03-29T11:33:47.02Z</time></trkpt><trkpt lat="39.39186" lon="16.88446"><ele>471.42857142857144</ele><time>2026-03-29T11:33:48.02Z</time></trkpt><trkpt lat="39.39184" lon="16.8845483"><ele>470.28571428571433</ele><time>2026-03-29T11:33:49.019Z</time></trkpt><trkpt lat="39.39182" lon="16.8846433"><ele>469.14285714285717</ele><time>2026-03-29T11:33:50.019Z</time></trkpt><trkpt lat="39.391785" lon="16.8847333"><ele>468.0</ele><time>2026-03-29T11:33:51.019Z</time></trkpt><trkpt lat="39.391755" lon="16.8848233"><ele>468.0</ele><time>2026-03-29T11:33:52.019Z</time></trkpt><trkpt lat="39.39173" lon="16.8849133"><ele>468.0</ele><time>2026-03-29T11:33:53.019Z</time></trkpt><trkpt lat="39.3917017" lon="16.8850033"><ele>468.0</ele><time>2026-03-29T11:33:54.019Z</time></trkpt><trkpt lat="39.3916783" lon="16.8851033"><ele>468.0</ele><time>2026-03-29T11:33:55.019Z</time></trkpt><trkpt lat="39.39165" lon="16.8851917"><ele>468.0</ele><time>2026-03-29T11:33:56.019Z</time></trkpt><trkpt lat="39.39162" lon="16.8852867"><ele>468.0</ele><time>2026-03-29T11:33:57.019Z</time></trkpt><trkpt lat="39.3915933" lon="16.8853767"><ele>465.59999999999997</ele><time>2026-03-29T11:33:58.018Z</time></trkpt><trkpt lat="39.391565" lon="16.8854617"><ele>463.19999999999993</ele><time>2026-03-29T11:33:59.019Z</time></trkpt><trkpt lat="39.39152" lon="16.8856017"><ele>460.8</ele><time>2026-03-29T11:34:01.019Z</time></trkpt><trkpt lat="39.39147" lon="16.8857367"><ele>458.4</ele><time>2026-03-29T11:34:03.019Z</time></trkpt><trkpt lat="39.3914283" lon="16.8858767"><ele>456.0</ele><time>2026-03-29T11:34:05.019Z</time></trkpt><trkpt lat="39.3914033" lon="16.8859617"><ele>453.20000000000005</ele><time>2026-03-29T11:34:06.019Z</time></trkpt><trkpt lat="39.3913833" lon="16.8860483"><ele>450.40000000000003</ele><time>2026-03-29T11:34:07.019Z</time></trkpt><trkpt lat="39.3913683" lon="16.886215"><ele>447.6</ele><time>2026-03-29T11:34:09.019Z</time></trkpt><trkpt lat="39.391365" lon="16.88632"><ele>444.8</ele><time>2026-03-29T11:34:10.019Z</time></trkpt><trkpt lat="39.3913567" lon="16.88643"><ele>442.0</ele><time>2026-03-29T11:34:11.019Z</time></trkpt><trkpt lat="39.39135" lon="16.8865483"><ele>441.50000000000006</ele><time>2026-03-29T11:34:12.019Z</time></trkpt><trkpt lat="39.39134" lon="16.88665"><ele>441.0</ele><time>2026-03-29T11:34:13.019Z</time></trkpt><trkpt lat="39.3913317" lon="16.8867733"><ele>440.5</ele><time>2026-03-29T11:34:14.019Z</time></trkpt><trkpt lat="39.3913217" lon="16.8868917"><ele>440.0</ele><time>2026-03-29T11:34:15.019Z</time></trkpt><trkpt lat="39.3913183" lon="16.8870133"><ele>439.50000000000006</ele><time>2026-03-29T11:34:16.019Z</time></trkpt><trkpt lat="39.39131" lon="16.88712"><ele>439.0</ele><time>2026-03-29T11:34:17.019Z</time></trkpt><trkpt lat="39.3912917" lon="16.887225"><ele>439.00000000000006</ele><time>2026-03-29T11:34:18.019Z</time></trkpt><trkpt lat="39.3912633" lon="16.8873267"><ele>439.0</ele><time>2026-03-29T11:34:19.019Z</time></trkpt><trkpt lat="39.391235" lon="16.8874217"><ele>439.0</ele><time>2026-03-29T11:34:20.019Z</time></trkpt><trkpt lat="39.3911967" lon="16.8875133"><ele>439.0</ele><time>2026-03-29T11:34:21.018Z</time></trkpt><trkpt lat="39.39116" lon="16.887595"><ele>439.00000000000006</ele><time>2026-03-29T11:34:22.019Z</time></trkpt><trkpt lat="39.391125" lon="16.887685"><ele>439.0</ele><time>2026-03-29T11:34:23.019Z</time></trkpt><trkpt lat="39.391095" lon="16.8877767"><ele>438.33333333333337</ele><time>2026-03-29T11:34:24.019Z</time></trkpt><trkpt lat="39.39107" lon="16.8878733"><ele>437.6666666666667</ele><time>2026-03-29T11:34:25.019Z</time></trkpt><trkpt lat="39.3910483" lon="16.8879733"><ele>437.0</ele><time>2026-03-29T11:34:26.019Z</time></trkpt><trkpt lat="39.3910133" lon="16.888065"><ele>436.33333333333337</ele><time>2026-03-29T11:34:27.019Z</time></trkpt><trkpt lat="39.3909867" lon="16.8881683"><ele>435.6666666666667</ele><time>2026-03-29T11:34:28.019Z</time></trkpt><trkpt lat="39.3909683" lon="16.888265"><ele>435.0</ele><time>2026-03-29T11:34:29.019Z</time></trkpt><trkpt lat="39.3909467" lon="16.8883467"><ele>432.0</ele><time>2026-03-29T11:34:30.019Z</time></trkpt><trkpt lat="39.3909083" lon="16.8884983"><ele>429.0</ele><time>2026-03-29T11:34:32.019Z</time></trkpt><trkpt lat="39.390875" lon="16.88857"><ele>426.0</ele><time>2026-03-29T11:34:33.019Z</time></trkpt><trkpt lat="39.3908383" lon="16.8887067"><ele>423.0</ele><time>2026-03-29T11:34:35.019Z</time></trkpt><trkpt lat="39.3908133" lon="16.88885"><ele>420.0</ele><time>2026-03-29T11:34:37.019Z</time></trkpt><trkpt lat="39.3907683" lon="16.888995"><ele>420.0</ele><time>2026-03-29T11:34:39.018Z</time></trkpt><trkpt lat="39.390705" lon="16.88912"><ele>420.0</ele><time>2026-03-29T11:34:41.019Z</time></trkpt><trkpt lat="39.3906267" lon="16.8892383"><ele>420.0</ele><time>2026-03-29T11:34:43.019Z</time></trkpt><trkpt lat="39.39054" lon="16.8893383"><ele>420.0</ele><time>2026-03-29T11:34:45.019Z</time></trkpt><trkpt lat="39.3904667" lon="16.889405"><ele>420.0</ele><time>2026-03-29T11:34:47.019Z</time></trkpt><trkpt lat="39.3903883" lon="16.8894317"><ele>417.8</ele><time>2026-03-29T11:34:49.019Z</time></trkpt><trkpt lat="39.3902967" lon="16.88946"><ele>415.6</ele><time>2026-03-29T11:34:51.019Z</time></trkpt><trkpt lat="39.3902017" lon="16.8894717"><ele>413.4</ele><time>2026-03-29T11:34:53.019Z</time></trkpt><trkpt lat="39.3901067" lon="16.8894883"><ele>411.2</ele><time>2026-03-29T11:34:55.018Z</time></trkpt><trkpt lat="39.3900017" lon="16.8895333"><ele>409.0</ele><time>2026-03-29T11:34:57.019Z</time></trkpt><trkpt lat="39.3899183" lon="16.889575"><ele>409.0</ele><time>2026-03-29T11:34:59.019Z</time></trkpt><trkpt lat="39.3898533" lon="16.8896367"><ele>409.0</ele><time>2026-03-29T11:35:02.019Z</time></trkpt><trkpt lat="39.3898317" lon="16.889775"><ele>409.0</ele><time>2026-03-29T11:35:10.019Z</time></trkpt><trkpt lat="39.38989" lon="16.889825"><ele>409.0</ele><time>2026-03-29T11:35:12.019Z</time></trkpt><trkpt lat="39.39001" lon="16.88986"><ele>409.0</ele><time>2026-03-29T11:35:14.019Z</time></trkpt><trkpt lat="39.3901283" lon="16.88988"><ele>409.00000000000006</ele><time>2026-03-29T11:35:16.019Z</time></trkpt><trkpt lat="39.3902483" lon="16.88988"><ele>409.0</ele><time>2026-03-29T11:35:18.019Z</time></trkpt><trkpt lat="39.3903133" lon="16.8898767"><ele>409.0</ele><time>2026-03-29T11:35:19.019Z</time></trkpt><trkpt lat="39.39042" lon="16.88989"><ele>409.0</ele><time>2026-03-29T11:35:21.019Z</time></trkpt><trkpt lat="39.3904833" lon="16.889905"><ele>409.00000000000006</ele><time>2026-03-29T11:35:22.019Z</time></trkpt><trkpt lat="39.3905483" lon="16.8899183"><ele>409.0</ele><time>2026-03-29T11:35:23.019Z</time></trkpt><trkpt lat="39.3906167" lon="16.8899233"><ele>408.6666666666667</ele><time>2026-03-29T11:35:24.019Z</time></trkpt><trkpt lat="39.3906833" lon="16.8899233"><ele>408.33333333333337</ele><time>2026-03-29T11:35:25.019Z</time></trkpt><trkpt lat="39.3907483" lon="16.88992"><ele>408.0</ele><time>2026-03-29T11:35:26.019Z</time></trkpt><trkpt lat="39.3908583" lon="16.88989"><ele>407.66666666666663</ele><time>2026-03-29T11:35:28.019Z</time></trkpt><trkpt lat="39.3909617" lon="16.8898383"><ele>407.3333333333333</ele><time>2026-03-29T11:35:30.018Z</time></trkpt><trkpt lat="39.39102" lon="16.8898"><ele>407.0</ele><time>2026-03-29T11:35:31.019Z</time></trkpt><trkpt lat="39.39108" lon="16.8897667"><ele>407.0</ele><time>2026-03-29T11:35:32.019Z</time></trkpt><trkpt lat="39.3911633" lon="16.8897167"><ele>407.0</ele><time>2026-03-29T11:35:34.019Z</time></trkpt><trkpt lat="39.391235" lon="16.8897"><ele>407.0</ele><time>2026-03-29T11:35:36.019Z</time></trkpt><trkpt lat="39.3913267" lon="16.88974"><ele>407.0</ele><time>2026-03-29T11:35:38.019Z</time></trkpt><trkpt lat="39.3914283" lon="16.88982"><ele>407.0</ele><time>2026-03-29T11:35:40.019Z</time></trkpt><trkpt lat="39.3915017" lon="16.8898483"><ele>407.0</ele><time>2026-03-29T11:35:43.018Z</time></trkpt><trkpt lat="39.3915967" lon="16.8898583"><ele>407.0</ele><time>2026-03-29T11:35:49.019Z</time></trkpt><trkpt lat="39.39171" lon="16.8898583"><ele>407.0</ele><time>2026-03-29T11:35:51.019Z</time></trkpt><trkpt lat="39.39178" lon="16.8898483"><ele>407.0</ele><time>2026-03-29T11:35:52.018Z</time></trkpt><trkpt lat="39.3918667" lon="16.88983"><ele>407.0</ele><time>2026-03-29T11:35:53.019Z</time></trkpt><trkpt lat="39.39195" lon="16.8898083"><ele>407.00000000000006</ele><time>2026-03-29T11:35:54.018Z</time></trkpt><trkpt lat="39.39203" lon="16.889795"><ele>407.0</ele><time>2026-03-29T11:35:55.019Z</time></trkpt><trkpt lat="39.3920967" lon="16.8897767"><ele>407.0</ele><time>2026-03-29T11:35:56.019Z</time></trkpt><trkpt lat="39.392165" lon="16.88976"><ele>407.0</ele><time>2026-03-29T11:35:57.019Z</time></trkpt><trkpt lat="39.392235" lon="16.8897417"><ele>407.0</ele><time>2026-03-29T11:35:58.018Z</time></trkpt><trkpt lat="39.3923067" lon="16.8897233"><ele>407.00000000000006</ele><time>2026-03-29T11:35:59.019Z</time></trkpt><trkpt lat="39.3923817" lon="16.8897"><ele>407.0</ele><time>2026-03-29T11:36:00.018Z</time></trkpt><trkpt lat="39.3924583" lon="16.8896883"><ele>410.0</ele><time>2026-03-29T11:36:01.019Z</time></trkpt><trkpt lat="39.392545" lon="16.889685"><ele>413.0</ele><time>2026-03-29T11:36:02.019Z</time></trkpt><trkpt lat="39.3926433" lon="16.8896983"><ele>416.0</ele><time>2026-03-29T11:36:03.019Z</time></trkpt><trkpt lat="39.3927433" lon="16.8897167"><ele>419.0</ele><time>2026-03-29T11:36:04.018Z</time></trkpt><trkpt lat="39.3928333" lon="16.8897367"><ele>422.0</ele><time>2026-03-29T11:36:05.018Z</time></trkpt><trkpt lat="39.3929233" lon="16.8897533"><ele>421.99999999999994</ele><time>2026-03-29T11:36:06.019Z</time></trkpt><trkpt lat="39.3930017" lon="16.889765"><ele>422.0</ele><time>2026-03-29T11:36:07.019Z</time></trkpt><trkpt lat="39.3930767" lon="16.8897833"><ele>422.0</ele><time>2026-03-29T11:36:08.019Z</time></trkpt><trkpt lat="39.3931483" lon="16.8898067"><ele>422.0</ele><time>2026-03-29T11:36:09.018Z</time></trkpt><trkpt lat="39.393225" lon="16.8898133"><ele>421.99999999999994</ele><time>2026-03-29T11:36:10.019Z</time></trkpt><trkpt lat="39.3933067" lon="16.8897717"><ele>422.0</ele><time>2026-03-29T11:36:11.019Z</time></trkpt><trkpt lat="39.3933983" lon="16.889715"><ele>423.66666666666663</ele><time>2026-03-29T11:36:12.019Z</time></trkpt><trkpt lat="39.393485" lon="16.8896567"><ele>425.3333333333333</ele><time>2026-03-29T11:36:13.019Z</time></trkpt><trkpt lat="39.3935717" lon="16.8896117"><ele>427.0</ele><time>2026-03-29T11:36:14.019Z</time></trkpt><trkpt lat="39.3936583" lon="16.8895817"><ele>428.66666666666663</ele><time>2026-03-29T11:36:15.018Z</time></trkpt><trkpt lat="39.3937383" lon="16.88958"><ele>430.3333333333333</ele><time>2026-03-29T11:36:16.019Z</time></trkpt><trkpt lat="39.3938067" lon="16.8895967"><ele>432.0</ele><time>2026-03-29T11:36:17.019Z</time></trkpt><trkpt lat="39.3938733" lon="16.8896267"><ele>433.5</ele><time>2026-03-29T11:36:18.019Z</time></trkpt><trkpt lat="39.39394" lon="16.8896483"><ele>435.0</ele><time>2026-03-29T11:36:19.019Z</time></trkpt><trkpt lat="39.39406" lon="16.8896"><ele>436.5</ele><time>2026-03-29T11:36:21.019Z</time></trkpt><trkpt lat="39.39413" lon="16.889555"><ele>438.0</ele><time>2026-03-29T11:36:22.019Z</time></trkpt><trkpt lat="39.39421" lon="16.8895283"><ele>439.5</ele><time>2026-03-29T11:36:23.018Z</time></trkpt><trkpt lat="39.39429" lon="16.8895167"><ele>441.0</ele><time>2026-03-29T11:36:24.019Z</time></trkpt><trkpt lat="39.3943717" lon="16.8895233"><ele>441.0</ele><time>2026-03-29T11:36:25.019Z</time></trkpt><trkpt lat="39.3944617" lon="16.8895383"><ele>441.0</ele><time>2026-03-29T11:36:26.019Z</time></trkpt><trkpt lat="39.394575" lon="16.8895617"><ele>441.0</ele><time>2026-03-29T11:36:27.019Z</time></trkpt><trkpt lat="39.3946883" lon="16.8896017"><ele>441.0</ele><time>2026-03-29T11:36:28.019Z</time></trkpt><trkpt lat="39.394785" lon="16.8896517"><ele>441.0</ele><time>2026-03-29T11:36:29.019Z</time></trkpt><trkpt lat="39.3948683" lon="16.8897167"><ele>440.8333333333333</ele><time>2026-03-29T11:36:30.019Z</time></trkpt><trkpt lat="39.394945" lon="16.8897733"><ele>440.66666666666663</ele><time>2026-03-29T11:36:31.018Z</time></trkpt><trkpt lat="39.3950183" lon="16.8898283"><ele>440.5</ele><time>2026-03-29T11:36:32.019Z</time></trkpt><trkpt lat="39.3950767" lon="16.8898717"><ele>440.3333333333333</ele><time>2026-03-29T11:36:33.019Z</time></trkpt><trkpt lat="39.395145" lon="16.8899217"><ele>440.16666666666663</ele><time>2026-03-29T11:36:34.019Z</time></trkpt><trkpt lat="39.39522" lon="16.889945"><ele>440.0</ele><time>2026-03-29T11:36:35.019Z</time></trkpt><trkpt lat="39.3953" lon="16.8899433"><ele>439.99999999999994</ele><time>2026-03-29T11:36:36.018Z</time></trkpt><trkpt lat="39.3953833" lon="16.8899467"><ele>440.0</ele><time>2026-03-29T11:36:37.019Z</time></trkpt><trkpt lat="39.3954517" lon="16.8899633"><ele>440.0</ele><time>2026-03-29T11:36:38.019Z</time></trkpt><trkpt lat="39.3955117" lon="16.8899883"><ele>440.0</ele><time>2026-03-29T11:36:39.019Z</time></trkpt><trkpt lat="39.3955767" lon="16.8900133"><ele>439.99999999999994</ele><time>2026-03-29T11:36:40.019Z</time></trkpt><trkpt lat="39.3956367" lon="16.8900433"><ele>440.0</ele><time>2026-03-29T11:36:41.018Z</time></trkpt><trkpt lat="39.3957217" lon="16.8901383"><ele>438.99999999999994</ele><time>2026-03-29T11:36:43.019Z</time></trkpt><trkpt lat="39.3957483" lon="16.8902833"><ele>438.0</ele><time>2026-03-29T11:36:45.019Z</time></trkpt><trkpt lat="39.395755" lon="16.8903833"><ele>437.0</ele><time>2026-03-29T11:36:46.019Z</time></trkpt><trkpt lat="39.3957567" lon="16.89048"><ele>436.0</ele><time>2026-03-29T11:36:47.019Z</time></trkpt><trkpt lat="39.3957617" lon="16.8905833"><ele>434.99999999999994</ele><time>2026-03-29T11:36:48.018Z</time></trkpt><trkpt lat="39.3957717" lon="16.8906767"><ele>434.0</ele><time>2026-03-29T11:36:49.019Z</time></trkpt><trkpt lat="39.3958017" lon="16.890805"><ele>434.8333333333333</ele><time>2026-03-29T11:36:51.018Z</time></trkpt><trkpt lat="39.3958267" lon="16.8909267"><ele>435.66666666666663</ele><time>2026-03-29T11:37:17.019Z</time></trkpt><trkpt lat="39.3958733" lon="16.89102"><ele>436.5</ele><time>2026-03-29T11:37:20.019Z</time></trkpt><trkpt lat="39.3959017" lon="16.8910967"><ele>437.33333333333337</ele><time>2026-03-29T11:37:22.019Z</time></trkpt><trkpt lat="39.3959317" lon="16.8911733"><ele>438.1666666666667</ele><time>2026-03-29T11:37:24.019Z</time></trkpt><trkpt lat="39.3959733" lon="16.8912767"><ele>439.0</ele><time>2026-03-29T11:37:26.019Z</time></trkpt><trkpt lat="39.3960267" lon="16.8914067"><ele>439.0</ele><time>2026-03-29T11:37:28.018Z</time></trkpt><trkpt lat="39.39608" lon="16.8915467"><ele>439.0</ele><time>2026-03-29T11:37:30.019Z</time></trkpt><trkpt lat="39.3961383" lon="16.8916667"><ele>439.0</ele><time>2026-03-29T11:37:32.019Z</time></trkpt><trkpt lat="39.3962383" lon="16.8917333"><ele>439.0</ele><time>2026-03-29T11:37:34.019Z</time></trkpt><trkpt lat="39.396335" lon="16.8917717"><ele>439.0</ele><time>2026-03-29T11:37:36.019Z</time></trkpt><trkpt lat="39.396415" lon="16.8918017"><ele>435.0</ele><time>2026-03-29T11:37:38.019Z</time></trkpt><trkpt lat="39.3964833" lon="16.891855"><ele>431.0</ele><time>2026-03-29T11:37:41.019Z</time></trkpt><trkpt lat="39.3965417" lon="16.8919033"><ele>427.0</ele><time>2026-03-29T11:38:23.019Z</time></trkpt><trkpt lat="39.3966167" lon="16.891955"><ele>423.0</ele><time>2026-03-29T11:38:26.018Z</time></trkpt><trkpt lat="39.3966683" lon="16.8920117"><ele>419.0</ele><time>2026-03-29T11:38:29.019Z</time></trkpt><trkpt lat="39.396715" lon="16.8920783"><ele>415.0</ele><time>2026-03-29T11:38:33.019Z</time></trkpt><trkpt lat="39.3967617" lon="16.8921333"><ele>411.0</ele><time>2026-03-29T11:39:03.019Z</time></trkpt><trkpt lat="39.39681" lon="16.89223"><ele>411.0</ele><time>2026-03-29T11:39:06.019Z</time></trkpt><trkpt lat="39.3968367" lon="16.89234"><ele>411.0</ele><time>2026-03-29T11:39:08.019Z</time></trkpt><trkpt lat="39.39685" lon="16.89243"><ele>411.0</ele><time>2026-03-29T11:39:10.019Z</time></trkpt><trkpt lat="39.3968633" lon="16.892525"><ele>411.0</ele><time>2026-03-29T11:39:14.019Z</time></trkpt><trkpt lat="39.396885" lon="16.8926017"><ele>411.0</ele><time>2026-03-29T11:39:19.019Z</time></trkpt><trkpt lat="39.3969083" lon="16.8926983"><ele>411.0</ele><time>2026-03-29T11:39:22.019Z</time></trkpt><trkpt lat="39.3969133" lon="16.8928133"><ele>409.3333333333333</ele><time>2026-03-29T11:39:25.019Z</time></trkpt><trkpt lat="39.3969" lon="16.8929183"><ele>407.66666666666663</ele><time>2026-03-29T11:39:27.019Z</time></trkpt><trkpt lat="39.3969317" lon="16.8930217"><ele>406.0</ele><time>2026-03-29T11:39:29.019Z</time></trkpt><trkpt lat="39.39699" lon="16.89311"><ele>404.3333333333333</ele><time>2026-03-29T11:39:32.019Z</time></trkpt><trkpt lat="39.3970467" lon="16.8931533"><ele>402.66666666666663</ele><time>2026-03-29T11:39:35.018Z</time></trkpt><trkpt lat="39.3971033" lon="16.8932117"><ele>401.0</ele><time>2026-03-29T11:39:39.019Z</time></trkpt><trkpt lat="39.3971683" lon="16.8932617"><ele>398.49999999999994</ele><time>2026-03-29T11:39:42.019Z</time></trkpt><trkpt lat="39.39723" lon="16.8932983"><ele>396.0</ele><time>2026-03-29T11:39:44.019Z</time></trkpt><trkpt lat="39.3972917" lon="16.8933467"><ele>393.5</ele><time>2026-03-29T11:39:46.019Z</time></trkpt><trkpt lat="39.3973467" lon="16.893425"><ele>391.0</ele><time>2026-03-29T11:39:48.019Z</time></trkpt><trkpt lat="39.3973767" lon="16.8935367"><ele>388.49999999999994</ele><time>2026-03-29T11:39:50.019Z</time></trkpt><trkpt lat="39.3974017" lon="16.8936383"><ele>386.0</ele><time>2026-03-29T11:39:52.018Z</time></trkpt><trkpt lat="39.3974483" lon="16.89373"><ele>385.99999999999994</ele><time>2026-03-29T11:39:54.019Z</time></trkpt><trkpt lat="39.39751" lon="16.893785"><ele>386.0</ele><time>2026-03-29T11:39:56.019Z</time></trkpt><trkpt lat="39.3975817" lon="16.8937717"><ele>386.0</ele><time>2026-03-29T11:39:58.019Z</time></trkpt><trkpt lat="39.3976417" lon="16.893695"><ele>386.0</ele><time>2026-03-29T11:40:00.019Z</time></trkpt><trkpt lat="39.3976783" lon="16.8935933"><ele>385.99999999999994</ele><time>2026-03-29T11:40:03.018Z</time></trkpt><trkpt lat="39.3976917" lon="16.8934867"><ele>386.0</ele><time>2026-03-29T11:40:05.019Z</time></trkpt><trkpt lat="39.39775" lon="16.893355"><ele>386.0</ele><time>2026-03-29T11:40:07.019Z</time></trkpt><trkpt lat="39.39785" lon="16.893255"><ele>386.0</ele><time>2026-03-29T11:40:09.019Z</time></trkpt><trkpt lat="39.3979383" lon="16.8931983"><ele>386.0</ele><time>2026-03-29T11:40:11.019Z</time></trkpt><trkpt lat="39.398015" lon="16.8931717"><ele>386.0</ele><time>2026-03-29T11:40:13.018Z</time></trkpt><trkpt lat="39.3980783" lon="16.89319"><ele>386.0</ele><time>2026-03-29T11:40:17.019Z</time></trkpt><trkpt lat="39.39809" lon="16.893305"><ele>380.99999999999994</ele><time>2026-03-29T11:40:21.019Z</time></trkpt><trkpt lat="39.398075" lon="16.893405"><ele>376.0</ele><time>2026-03-29T11:40:24.019Z</time></trkpt><trkpt lat="39.398125" lon="16.8935083"><ele>371.0</ele><time>2026-03-29T11:40:32.019Z</time></trkpt><trkpt lat="39.3981883" lon="16.8935133"><ele>366.0</ele><time>2026-03-29T11:40:34.019Z</time></trkpt><trkpt lat="39.3982683" lon="16.8934983"><ele>361.0</ele><time>2026-03-29T11:40:36.018Z</time></trkpt><trkpt lat="39.3983517" lon="16.8935133"><ele>356.0</ele><time>2026-03-29T11:40:38.019Z</time></trkpt><trkpt lat="39.3984533" lon="16.893525"><ele>354.5</ele><time>2026-03-29T11:40:40.019Z</time></trkpt><trkpt lat="39.398555" lon="16.8935317"><ele>353.0</ele><time>2026-03-29T11:40:42.019Z</time></trkpt><trkpt lat="39.3986383" lon="16.8935617"><ele>351.5</ele><time>2026-03-29T11:40:44.019Z</time></trkpt><trkpt lat="39.3987067" lon="16.8936233"><ele>350.0</ele><time>2026-03-29T11:40:47.019Z</time></trkpt><trkpt lat="39.3987633" lon="16.89368"><ele>348.5</ele><time>2026-03-29T11:40:49.019Z</time></trkpt><trkpt lat="39.398825" lon="16.8937733"><ele>347.0</ele><time>2026-03-29T11:40:51.019Z</time></trkpt><trkpt lat="39.3988567" lon="16.893905"><ele>343.5</ele><time>2026-03-29T11:40:53.019Z</time></trkpt><trkpt lat="39.3988717" lon="16.893985"><ele>340.0</ele><time>2026-03-29T11:40:54.019Z</time></trkpt><trkpt lat="39.398885" lon="16.8940683"><ele>336.5</ele><time>2026-03-29T11:40:55.019Z</time></trkpt><trkpt lat="39.398895" lon="16.89416"><ele>333.0</ele><time>2026-03-29T11:40:56.019Z</time></trkpt><trkpt lat="39.3989083" lon="16.8942417"><ele>329.5</ele><time>2026-03-29T11:40:57.019Z</time></trkpt><trkpt lat="39.3989183" lon="16.8943867"><ele>326.0</ele><time>2026-03-29T11:40:59.019Z</time></trkpt><trkpt lat="39.3989" lon="16.8945117"><ele>325.83333333333337</ele><time>2026-03-29T11:41:01.018Z</time></trkpt><trkpt lat="39.3988683" lon="16.8945833"><ele>325.6666666666667</ele><time>2026-03-29T11:41:03.019Z</time></trkpt><trkpt lat="39.3988267" lon="16.8946467"><ele>325.5</ele><time>2026-03-29T11:41:05.019Z</time></trkpt><trkpt lat="39.3988183" lon="16.8947467"><ele>325.3333333333333</ele><time>2026-03-29T11:41:10.019Z</time></trkpt><trkpt lat="39.398865" lon="16.8948283"><ele>325.16666666666663</ele><time>2026-03-29T11:41:13.019Z</time></trkpt><trkpt lat="39.3988967" lon="16.8949167"><ele>325.0</ele><time>2026-03-29T11:41:15.019Z</time></trkpt><trkpt lat="39.3989783" lon="16.89502"><ele>325.0</ele><time>2026-03-29T11:41:17.019Z</time></trkpt><trkpt lat="39.3990933" lon="16.8950333"><ele>325.0</ele><time>2026-03-29T11:41:19.019Z</time></trkpt><trkpt lat="39.3991717" lon="16.89501"><ele>325.0</ele><time>2026-03-29T11:41:20.019Z</time></trkpt><trkpt lat="39.3992683" lon="16.8949817"><ele>325.0</ele><time>2026-03-29T11:41:21.019Z</time></trkpt><trkpt lat="39.399365" lon="16.8949567"><ele>325.0</ele><time>2026-03-29T11:41:22.019Z</time></trkpt><trkpt lat="39.3994683" lon="16.894945"><ele>325.0</ele><time>2026-03-29T11:41:23.018Z</time></trkpt><trkpt lat="39.3995733" lon="16.89494"><ele>325.0</ele><time>2026-03-29T11:41:24.018Z</time></trkpt><trkpt lat="39.3996733" lon="16.8949217"><ele>325.0</ele><time>2026-03-29T11:41:25.018Z</time></trkpt><trkpt lat="39.3997583" lon="16.8949133"><ele>325.0</ele><time>2026-03-29T11:41:26.019Z</time></trkpt><trkpt lat="39.399845" lon="16.8948867"><ele>325.0</ele><time>2026-03-29T11:41:27.019Z</time></trkpt><trkpt lat="39.3999217" lon="16.8948667"><ele>324.4</ele><time>2026-03-29T11:41:28.019Z</time></trkpt><trkpt lat="39.3999917" lon="16.8948433"><ele>323.8</ele><time>2026-03-29T11:41:29.019Z</time></trkpt><trkpt lat="39.4000583" lon="16.894755"><ele>323.20000000000005</ele><time>2026-03-29T11:41:31.019Z</time></trkpt><trkpt lat="39.4000533" lon="16.8946283"><ele>322.6</ele><time>2026-03-29T11:41:33.019Z</time></trkpt><trkpt lat="39.4000583" lon="16.8944683"><ele>322.0</ele><time>2026-03-29T11:41:35.019Z</time></trkpt><trkpt lat="39.4000933" lon="16.8943167"><ele>321.0</ele><time>2026-03-29T11:41:37.019Z</time></trkpt><trkpt lat="39.400145" lon="16.894195"><ele>320.0</ele><time>2026-03-29T11:41:39.019Z</time></trkpt><trkpt lat="39.4002017" lon="16.8940967"><ele>319.0</ele><time>2026-03-29T11:41:41.018Z</time></trkpt><trkpt lat="39.4002383" lon="16.89402"><ele>318.0</ele><time>2026-03-29T11:41:43.019Z</time></trkpt><trkpt lat="39.4002817" lon="16.893945"><ele>317.0</ele><time>2026-03-29T11:41:45.019Z</time></trkpt><trkpt lat="39.4003217" lon="16.89387"><ele>316.0</ele><time>2026-03-29T11:41:47.018Z</time></trkpt><trkpt lat="39.40036" lon="16.8937917"><ele>316.0</ele><time>2026-03-29T11:41:49.019Z</time></trkpt><trkpt lat="39.4004033" lon="16.8936867"><ele>316.0</ele><time>2026-03-29T11:41:51.019Z</time></trkpt><trkpt lat="39.4004533" lon="16.8935683"><ele>316.0</ele><time>2026-03-29T11:41:53.019Z</time></trkpt><trkpt lat="39.4004833" lon="16.8934433"><ele>316.0</ele><time>2026-03-29T11:41:55.019Z</time></trkpt><trkpt lat="39.4005133" lon="16.8933267"><ele>316.0</ele><time>2026-03-29T11:41:57.019Z</time></trkpt><trkpt lat="39.400545" lon="16.89321"><ele>314.40000000000003</ele><time>2026-03-29T11:41:59.019Z</time></trkpt><trkpt lat="39.4005767" lon="16.893085"><ele>312.8</ele><time>2026-03-29T11:42:01.019Z</time></trkpt><trkpt lat="39.4006033" lon="16.892975"><ele>311.20000000000005</ele><time>2026-03-29T11:42:03.019Z</time></trkpt><trkpt lat="39.4006117" lon="16.8928533"><ele>309.6</ele><time>2026-03-29T11:42:05.019Z</time></trkpt><trkpt lat="39.4006167" lon="16.8927417"><ele>308.0</ele><time>2026-03-29T11:42:07.019Z</time></trkpt><trkpt lat="39.4006283" lon="16.8926217"><ele>306.0</ele><time>2026-03-29T11:42:09.019Z</time></trkpt><trkpt lat="39.4006467" lon="16.8924733"><ele>304.0</ele><time>2026-03-29T11:42:11.019Z</time></trkpt><trkpt lat="39.4006733" lon="16.892395"><ele>302.0</ele><time>2026-03-29T11:42:12.019Z</time></trkpt><trkpt lat="39.4007267" lon="16.8922583"><ele>300.0</ele><time>2026-03-29T11:42:14.019Z</time></trkpt><trkpt lat="39.40079" lon="16.8921533"><ele>298.0</ele><time>2026-03-29T11:42:16.019Z</time></trkpt><trkpt lat="39.400875" lon="16.89209"><ele>298.0</ele><time>2026-03-29T11:42:18.019Z</time></trkpt><trkpt lat="39.400955" lon="16.8920633"><ele>298.0</ele><time>2026-03-29T11:42:20.019Z</time></trkpt><trkpt lat="39.4010217" lon="16.8920633"><ele>298.0</ele><time>2026-03-29T11:42:22.018Z</time></trkpt><trkpt lat="39.40111" lon="16.8920983"><ele>298.0</ele><time>2026-03-29T11:42:25.019Z</time></trkpt><trkpt lat="39.4011767" lon="16.892175"><ele>298.0</ele><time>2026-03-29T11:42:27.019Z</time></trkpt><trkpt lat="39.4012467" lon="16.8921533"><ele>298.0</ele><time>2026-03-29T11:42:30.019Z</time></trkpt><trkpt lat="39.4012567" lon="16.89207"><ele>298.0</ele><time>2026-03-29T11:42:32.019Z</time></trkpt><trkpt lat="39.40126" lon="16.89194"><ele>298.0</ele><time>2026-03-29T11:42:34.019Z</time></trkpt><trkpt lat="39.4012633" lon="16.8918033"><ele>298.0</ele><time>2026-03-29T11:42:36.019Z</time></trkpt><trkpt lat="39.4012667" lon="16.8916783"><ele>298.0</ele><time>2026-03-29T11:42:38.019Z</time></trkpt><trkpt lat="39.4012633" lon="16.891565"><ele>298.0</ele><time>2026-03-29T11:42:40.019Z</time></trkpt><trkpt lat="39.40126" lon="16.8914583"><ele>295.8</ele><time>2026-03-29T11:42:42.019Z</time></trkpt><trkpt lat="39.4012583" lon="16.8913317"><ele>293.6</ele><time>2026-03-29T11:42:44.019Z</time></trkpt><trkpt lat="39.4012417" lon="16.8912233"><ele>291.4</ele><time>2026-03-29T11:42:46.019Z</time></trkpt><trkpt lat="39.4011917" lon="16.8911217"><ele>289.2</ele><time>2026-03-29T11:42:48.019Z</time></trkpt><trkpt lat="39.4011317" lon="16.8910417"><ele>287.0</ele><time>2026-03-29T11:42:50.019Z</time></trkpt><trkpt lat="39.4011" lon="16.8909283"><ele>286.1666666666667</ele><time>2026-03-29T11:42:52.019Z</time></trkpt><trkpt lat="39.4011067" lon="16.89079"><ele>285.33333333333337</ele><time>2026-03-29T11:42:54.019Z</time></trkpt><trkpt lat="39.401115" lon="16.8906783"><ele>284.5</ele><time>2026-03-29T11:42:56.019Z</time></trkpt><trkpt lat="39.4011383" lon="16.89059"><ele>283.6666666666667</ele><time>2026-03-29T11:42:58.019Z</time></trkpt><trkpt lat="39.401155" lon="16.8905"><ele>282.8333333333333</ele><time>2026-03-29T11:43:00.019Z</time></trkpt><trkpt lat="39.4011483" lon="16.8903817"><ele>282.0</ele><time>2026-03-29T11:43:02.019Z</time></trkpt><trkpt lat="39.40112" lon="16.890235"><ele>281.2</ele><time>2026-03-29T11:43:04.019Z</time></trkpt><trkpt lat="39.4010899" lon="16.8900741"><ele>280.4</ele><time>2026-03-29T11:43:06.018Z</time></trkpt><trkpt lat="39.4010859" lon="16.8899852"><ele>279.6</ele><time>2026-03-29T11:43:07.019Z</time></trkpt><trkpt lat="39.4010882" lon="16.8898801"><ele>278.8</ele><time>2026-03-29T11:43:08.019Z</time></trkpt><trkpt lat="39.4011059" lon="16.8897699"><ele>278.0</ele><time>2026-03-29T11:43:09.018Z</time></trkpt><trkpt lat="39.4011365" lon="16.889659"><ele>278.0</ele><time>2026-03-29T11:43:10.019Z</time></trkpt><trkpt lat="39.401174" lon="16.8895663"><ele>278.0</ele><time>2026-03-29T11:43:11.019Z</time></trkpt><trkpt lat="39.4012041" lon="16.8894706"><ele>278.0</ele><time>2026-03-29T11:43:12.018Z</time></trkpt><trkpt lat="39.4012323" lon="16.8893704"><ele>278.0</ele><time>2026-03-29T11:43:13.019Z</time></trkpt><trkpt lat="39.4012481" lon="16.8892693"><ele>278.0</ele><time>2026-03-29T11:43:14.019Z</time></trkpt><trkpt lat="39.4012527" lon="16.8891692"><ele>278.0</ele><time>2026-03-29T11:43:15.019Z</time></trkpt><trkpt lat="39.4012641" lon="16.8890806"><ele>278.6666666666667</ele><time>2026-03-29T11:43:16.019Z</time></trkpt><trkpt lat="39.4012967" lon="16.8890078"><ele>279.33333333333337</ele><time>2026-03-29T11:43:17.019Z</time></trkpt><trkpt lat="39.401369" lon="16.8888861"><ele>280.0</ele><time>2026-03-29T11:43:19.019Z</time></trkpt><trkpt lat="39.4014144" lon="16.888797"><ele>280.6666666666667</ele><time>2026-03-29T11:43:21.019Z</time></trkpt><trkpt lat="39.4014544" lon="16.8887191"><ele>281.3333333333333</ele><time>2026-03-29T11:43:23.019Z</time></trkpt><trkpt lat="39.4014939" lon="16.8886452"><ele>282.0</ele><time>2026-03-29T11:43:25.019Z</time></trkpt><trkpt lat="39.4015393" lon="16.8885781"><ele>278.6</ele><time>2026-03-29T11:43:29.018Z</time></trkpt><trkpt lat="39.401609" lon="16.888505"><ele>275.2</ele><time>2026-03-29T11:43:34.018Z</time></trkpt><trkpt lat="39.4016677" lon="16.8884339"><ele>271.8</ele><time>2026-03-29T11:43:36.019Z</time></trkpt><trkpt lat="39.4017592" lon="16.8883103"><ele>268.4</ele><time>2026-03-29T11:43:38.019Z</time></trkpt><trkpt lat="39.401825" lon="16.8882283"><ele>265.0</ele><time>2026-03-29T11:43:39.019Z</time></trkpt><trkpt lat="39.4018867" lon="16.8881533"><ele>265.0</ele><time>2026-03-29T11:43:40.019Z</time></trkpt><trkpt lat="39.4019433" lon="16.888075"><ele>265.0</ele><time>2026-03-29T11:43:41.018Z</time></trkpt><trkpt lat="39.4019883" lon="16.887985"><ele>265.0</ele><time>2026-03-29T11:43:42.019Z</time></trkpt><trkpt lat="39.40203" lon="16.887905"><ele>265.0</ele><time>2026-03-29T11:43:43.019Z</time></trkpt><trkpt lat="39.4021333" lon="16.887805"><ele>265.0</ele><time>2026-03-29T11:43:45.019Z</time></trkpt><trkpt lat="39.4021883" lon="16.887745"><ele>265.0</ele><time>2026-03-29T11:43:46.019Z</time></trkpt><trkpt lat="39.4022267" lon="16.8876717"><ele>264.8333333333333</ele><time>2026-03-29T11:43:47.019Z</time></trkpt><trkpt lat="39.4022533" lon="16.887595"><ele>264.66666666666663</ele><time>2026-03-29T11:43:48.019Z</time></trkpt><trkpt lat="39.402275" lon="16.887505"><ele>264.5</ele><time>2026-03-29T11:43:49.019Z</time></trkpt><trkpt lat="39.4022867" lon="16.8874183"><ele>264.3333333333333</ele><time>2026-03-29T11:43:50.019Z</time></trkpt><trkpt lat="39.4023067" lon="16.8873367"><ele>264.1666666666667</ele><time>2026-03-29T11:43:51.019Z</time></trkpt><trkpt lat="39.4023383" lon="16.8871983"><ele>264.0</ele><time>2026-03-29T11:43:53.019Z</time></trkpt><trkpt lat="39.4024017" lon="16.88711"><ele>261.59999999999997</ele><time>2026-03-29T11:43:55.019Z</time></trkpt><trkpt lat="39.4024883" lon="16.8870167"><ele>259.2</ele><time>2026-03-29T11:43:57.019Z</time></trkpt><trkpt lat="39.40254" lon="16.8868617"><ele>256.79999999999995</ele><time>2026-03-29T11:43:59.018Z</time></trkpt><trkpt lat="39.40258" lon="16.886785"><ele>254.39999999999998</ele><time>2026-03-29T11:44:00.019Z</time></trkpt><trkpt lat="39.4026267" lon="16.8867167"><ele>252.0</ele><time>2026-03-29T11:44:01.019Z</time></trkpt><trkpt lat="39.4026767" lon="16.8866583"><ele>250.28571428571428</ele><time>2026-03-29T11:44:02.019Z</time></trkpt><trkpt lat="39.4027317" lon="16.8866083"><ele>248.57142857142856</ele><time>2026-03-29T11:44:03.019Z</time></trkpt><trkpt lat="39.402795" lon="16.886555"><ele>246.85714285714286</ele><time>2026-03-29T11:44:04.019Z</time></trkpt><trkpt lat="39.40285" lon="16.8864833"><ele>245.14285714285714</ele><time>2026-03-29T11:44:05.019Z</time></trkpt><trkpt lat="39.4028933" lon="16.8864133"><ele>243.42857142857142</ele><time>2026-03-29T11:44:06.018Z</time></trkpt><trkpt lat="39.4029433" lon="16.8863417"><ele>241.71428571428572</ele><time>2026-03-29T11:44:07.019Z</time></trkpt><trkpt lat="39.40299" lon="16.8862633"><ele>240.0</ele><time>2026-03-29T11:44:08.018Z</time></trkpt><trkpt lat="39.403035" lon="16.8861933"><ele>239.8</ele><time>2026-03-29T11:44:09.019Z</time></trkpt><trkpt lat="39.4030867" lon="16.8861217"><ele>239.6</ele><time>2026-03-29T11:44:10.019Z</time></trkpt><trkpt lat="39.4031383" lon="16.8860667"><ele>239.39999999999998</ele><time>2026-03-29T11:44:11.019Z</time></trkpt><trkpt lat="39.4031883" lon="16.8860117"><ele>239.2</ele><time>2026-03-29T11:44:12.019Z</time></trkpt><trkpt lat="39.40326" lon="16.8858867"><ele>239.0</ele><time>2026-03-29T11:44:14.019Z</time></trkpt><trkpt lat="39.4033017" lon="16.885735"><ele>235.66666666666669</ele><time>2026-03-29T11:44:16.019Z</time></trkpt><trkpt lat="39.4033383" lon="16.885645"><ele>232.33333333333334</ele><time>2026-03-29T11:44:17.019Z</time></trkpt><trkpt lat="39.403385" lon="16.88556"><ele>229.0</ele><time>2026-03-29T11:44:18.018Z</time></trkpt><trkpt lat="39.4034317" lon="16.8854783"><ele>225.66666666666669</ele><time>2026-03-29T11:44:19.019Z</time></trkpt><trkpt lat="39.4034717" lon="16.8854133"><ele>222.33333333333334</ele><time>2026-03-29T11:44:20.018Z</time></trkpt><trkpt lat="39.40352" lon="16.8853567"><ele>219.0</ele><time>2026-03-29T11:44:21.019Z</time></trkpt><trkpt lat="39.4035867" lon="16.8852383"><ele>219.0</ele><time>2026-03-29T11:44:23.019Z</time></trkpt><trkpt lat="39.4036017" lon="16.8851133"><ele>218.99999999999997</ele><time>2026-03-29T11:44:25.018Z</time></trkpt><trkpt lat="39.403575" lon="16.88498"><ele>218.99999999999997</ele><time>2026-03-29T11:44:27.019Z</time></trkpt><trkpt lat="39.40355" lon="16.8848483"><ele>219.0</ele><time>2026-03-29T11:44:29.019Z</time></trkpt><trkpt lat="39.4036117" lon="16.8848917"><ele>219.0</ele><time>2026-03-29T11:44:35.019Z</time></trkpt><trkpt lat="39.4036333" lon="16.8850117"><ele>219.0</ele><time>2026-03-29T11:44:37.018Z</time></trkpt><trkpt lat="39.4036633" lon="16.8851117"><ele>219.0</ele><time>2026-03-29T11:44:39.019Z</time></trkpt><trkpt lat="39.4037317" lon="16.885115"><ele>219.0</ele><time>2026-03-29T11:44:42.018Z</time></trkpt><trkpt lat="39.4037617" lon="16.88502"><ele>219.0</ele><time>2026-03-29T11:44:44.019Z</time></trkpt><trkpt lat="39.403765" lon="16.8849033"><ele>219.0</ele><time>2026-03-29T11:44:46.019Z</time></trkpt><trkpt lat="39.4037617" lon="16.8848117"><ele>219.0</ele><time>2026-03-29T11:44:48.018Z</time></trkpt><trkpt lat="39.4038233" lon="16.88474"><ele>218.2</ele><time>2026-03-29T11:44:51.018Z</time></trkpt><trkpt lat="39.4039167" lon="16.884735"><ele>217.39999999999998</ele><time>2026-03-29T11:44:54.018Z</time></trkpt><trkpt lat="39.40396" lon="16.8846667"><ele>216.6</ele><time>2026-03-29T11:44:56.017Z</time></trkpt><trkpt lat="39.4040033" lon="16.88449"><ele>215.8</ele><time>2026-03-29T11:45:30.018Z</time></trkpt><trkpt lat="39.404025" lon="16.8843967"><ele>215.0</ele><time>2026-03-29T11:45:33.018Z</time></trkpt><trkpt lat="39.4040817" lon="16.8844683"><ele>215.0</ele><time>2026-03-29T11:45:43.018Z</time></trkpt><trkpt lat="39.4041033" lon="16.8846083"><ele>215.0</ele><time>2026-03-29T11:45:45.017Z</time></trkpt><trkpt lat="39.4041133" lon="16.8847717"><ele>215.0</ele><time>2026-03-29T11:45:47.018Z</time></trkpt><trkpt lat="39.4041133" lon="16.8848583"><ele>215.0</ele><time>2026-03-29T11:45:48.018Z</time></trkpt><trkpt lat="39.4041" lon="16.8849533"><ele>215.0</ele><time>2026-03-29T11:45:49.018Z</time></trkpt><trkpt lat="39.4040733" lon="16.8850683"><ele>215.66666666666669</ele><time>2026-03-29T11:45:50.018Z</time></trkpt><trkpt lat="39.40403" lon="16.885155"><ele>216.33333333333334</ele><time>2026-03-29T11:45:51.018Z</time></trkpt><trkpt lat="39.4039867" lon="16.88525"><ele>217.0</ele><time>2026-03-29T11:45:52.017Z</time></trkpt><trkpt lat="39.40394" lon="16.8853317"><ele>217.66666666666669</ele><time>2026-03-29T11:45:53.018Z</time></trkpt><trkpt lat="39.4039" lon="16.8854067"><ele>218.33333333333334</ele><time>2026-03-29T11:45:54.018Z</time></trkpt><trkpt lat="39.4038533" lon="16.8854833"><ele>219.0</ele><time>2026-03-29T11:45:55.018Z</time></trkpt><trkpt lat="39.4038017" lon="16.8855617"><ele>219.0</ele><time>2026-03-29T11:45:56.017Z</time></trkpt><trkpt lat="39.4037533" lon="16.885645"><ele>219.0</ele><time>2026-03-29T11:45:57.018Z</time></trkpt><trkpt lat="39.4037217" lon="16.885745"><ele>219.0</ele><time>2026-03-29T11:45:58.018Z</time></trkpt><trkpt lat="39.403685" lon="16.88584"><ele>219.0</ele><time>2026-03-29T11:45:59.017Z</time></trkpt><trkpt lat="39.4036617" lon="16.8859367"><ele>219.0</ele><time>2026-03-29T11:46:00.018Z</time></trkpt><trkpt lat="39.4036267" lon="16.8860133"><ele>219.0</ele><time>2026-03-29T11:46:01.018Z</time></trkpt><trkpt lat="39.40358" lon="16.8860767"><ele>223.0</ele><time>2026-03-29T11:46:02.017Z</time></trkpt><trkpt lat="39.4034717" lon="16.8861767"><ele>226.99999999999997</ele><time>2026-03-29T11:46:04.018Z</time></trkpt><trkpt lat="39.403385" lon="16.8862917"><ele>230.99999999999997</ele><time>2026-03-29T11:46:06.017Z</time></trkpt><trkpt lat="39.4033133" lon="16.88639"><ele>235.0</ele><time>2026-03-29T11:46:08.018Z</time></trkpt><trkpt lat="39.40335" lon="16.886485"><ele>239.0</ele><time>2026-03-29T11:46:11.018Z</time></trkpt><trkpt lat="39.4034783" lon="16.88642"><ele>239.0</ele><time>2026-03-29T11:46:13.018Z</time></trkpt><trkpt lat="39.403555" lon="16.8863917"><ele>238.99999999999997</ele><time>2026-03-29T11:46:14.018Z</time></trkpt><trkpt lat="39.403625" lon="16.8863917"><ele>238.99999999999997</ele><time>2026-03-29T11:46:15.018Z</time></trkpt><trkpt lat="39.4037283" lon="16.8864217"><ele>239.0</ele><time>2026-03-29T11:46:17.017Z</time></trkpt><trkpt lat="39.4037917" lon="16.8863567"><ele>239.0</ele><time>2026-03-29T11:46:19.018Z</time></trkpt><trkpt lat="39.403845" lon="16.8862183"><ele>238.00000000000003</ele><time>2026-03-29T11:46:21.017Z</time></trkpt><trkpt lat="39.403925" lon="16.886085"><ele>237.0</ele><time>2026-03-29T11:46:23.018Z</time></trkpt><trkpt lat="39.4039683" lon="16.886015"><ele>236.0</ele><time>2026-03-29T11:46:24.018Z</time></trkpt><trkpt lat="39.404015" lon="16.8859383"><ele>235.0</ele><time>2026-03-29T11:46:25.018Z</time></trkpt><trkpt lat="39.404065" lon="16.8858667"><ele>234.00000000000003</ele><time>2026-03-29T11:46:26.017Z</time></trkpt><trkpt lat="39.4041067" lon="16.88579"><ele>233.0</ele><time>2026-03-29T11:46:27.018Z</time></trkpt><trkpt lat="39.40415" lon="16.8857267"><ele>233.00000000000003</ele><time>2026-03-29T11:46:28.017Z</time></trkpt><trkpt lat="39.4042317" lon="16.8856317"><ele>233.0</ele><time>2026-03-29T11:46:30.017Z</time></trkpt><trkpt lat="39.4043383" lon="16.8856033"><ele>233.0</ele><time>2026-03-29T11:46:32.018Z</time></trkpt><trkpt lat="39.4044367" lon="16.8855833"><ele>233.0</ele><time>2026-03-29T11:46:34.018Z</time></trkpt><trkpt lat="39.4044983" lon="16.885555"><ele>233.00000000000003</ele><time>2026-03-29T11:46:35.018Z</time></trkpt><trkpt lat="39.40456" lon="16.8855317"><ele>233.0</ele><time>2026-03-29T11:46:36.018Z</time></trkpt><trkpt lat="39.4046367" lon="16.88558"><ele>233.00000000000003</ele><time>2026-03-29T11:46:38.017Z</time></trkpt><trkpt lat="39.4046133" lon="16.8857133"><ele>233.0</ele><time>2026-03-29T11:46:40.018Z</time></trkpt><trkpt lat="39.40457" lon="16.8857783"><ele>233.0</ele><time>2026-03-29T11:46:41.018Z</time></trkpt><trkpt lat="39.4045167" lon="16.88586"><ele>233.0</ele><time>2026-03-29T11:46:42.018Z</time></trkpt><trkpt lat="39.4044783" lon="16.8859367"><ele>233.00000000000003</ele><time>2026-03-29T11:46:43.018Z</time></trkpt><trkpt lat="39.4044317" lon="16.886005"><ele>233.0</ele><time>2026-03-29T11:46:44.018Z</time></trkpt><trkpt lat="39.4043867" lon="16.8860867"><ele>236.28571428571428</ele><time>2026-03-29T11:46:45.018Z</time></trkpt><trkpt lat="39.4043467" lon="16.88616"><ele>239.57142857142856</ele><time>2026-03-29T11:46:46.018Z</time></trkpt><trkpt lat="39.4042967" lon="16.8862167"><ele>242.85714285714283</ele><time>2026-03-29T11:46:47.018Z</time></trkpt><trkpt lat="39.4042433" lon="16.8862683"><ele>246.14285714285714</ele><time>2026-03-29T11:46:48.018Z</time></trkpt><trkpt lat="39.4041767" lon="16.8863167"><ele>249.4285714285714</ele><time>2026-03-29T11:46:49.018Z</time></trkpt><trkpt lat="39.4041033" lon="16.886375"><ele>252.7142857142857</ele><time>2026-03-29T11:46:50.018Z</time></trkpt><trkpt lat="39.40404" lon="16.8864417"><ele>256.0</ele><time>2026-03-29T11:46:51.018Z</time></trkpt><trkpt lat="39.4039983" lon="16.8865167"><ele>256.0</ele><time>2026-03-29T11:46:52.018Z</time></trkpt><trkpt lat="39.403965" lon="16.8866017"><ele>256.0</ele><time>2026-03-29T11:46:53.018Z</time></trkpt><trkpt lat="39.4039383" lon="16.8866967"><ele>256.0</ele><time>2026-03-29T11:46:54.018Z</time></trkpt><trkpt lat="39.40392" lon="16.8867867"><ele>256.0</ele><time>2026-03-29T11:46:55.018Z</time></trkpt><trkpt lat="39.4038767" lon="16.8869233"><ele>256.0</ele><time>2026-03-29T11:46:57.017Z</time></trkpt><trkpt lat="39.40377" lon="16.8869983"><ele>257.0</ele><time>2026-03-29T11:46:59.018Z</time></trkpt><trkpt lat="39.403685" lon="16.88701"><ele>258.0</ele><time>2026-03-29T11:47:00.018Z</time></trkpt><trkpt lat="39.4035967" lon="16.8870267"><ele>259.0</ele><time>2026-03-29T11:47:01.018Z</time></trkpt><trkpt lat="39.4035217" lon="16.887065"><ele>260.0</ele><time>2026-03-29T11:47:02.018Z</time></trkpt><trkpt lat="39.403455" lon="16.8871083"><ele>261.0</ele><time>2026-03-29T11:47:03.018Z</time></trkpt><trkpt lat="39.4033917" lon="16.8871517"><ele>262.0</ele><time>2026-03-29T11:47:04.017Z</time></trkpt><trkpt lat="39.4033367" lon="16.8871983"><ele>262.0</ele><time>2026-03-29T11:47:05.018Z</time></trkpt><trkpt lat="39.4032683" lon="16.8873117"><ele>262.0</ele><time>2026-03-29T11:47:07.018Z</time></trkpt><trkpt lat="39.403265" lon="16.8874633"><ele>262.0</ele><time>2026-03-29T11:47:09.017Z</time></trkpt><trkpt lat="39.4032983" lon="16.8876067"><ele>262.0</ele><time>2026-03-29T11:47:11.018Z</time></trkpt><trkpt lat="39.4033283" lon="16.8876833"><ele>262.0</ele><time>2026-03-29T11:47:12.018Z</time></trkpt><trkpt lat="39.403395" lon="16.8877867"><ele>264.3333333333333</ele><time>2026-03-29T11:47:14.018Z</time></trkpt><trkpt lat="39.40345" lon="16.8878317"><ele>266.66666666666663</ele><time>2026-03-29T11:47:15.018Z</time></trkpt><trkpt lat="39.4035717" lon="16.8878317"><ele>269.0</ele><time>2026-03-29T11:47:17.017Z</time></trkpt><trkpt lat="39.40364" lon="16.88779"><ele>271.3333333333333</ele><time>2026-03-29T11:47:18.018Z</time></trkpt><trkpt lat="39.4037133" lon="16.8877617"><ele>273.6666666666667</ele><time>2026-03-29T11:47:19.018Z</time></trkpt><trkpt lat="39.4037967" lon="16.8877317"><ele>276.0</ele><time>2026-03-29T11:47:20.018Z</time></trkpt><trkpt lat="39.4038883" lon="16.887715"><ele>276.0</ele><time>2026-03-29T11:47:21.018Z</time></trkpt><trkpt lat="39.40398" lon="16.887695"><ele>276.0</ele><time>2026-03-29T11:47:22.017Z</time></trkpt><trkpt lat="39.4040567" lon="16.8876567"><ele>276.0</ele><time>2026-03-29T11:47:23.017Z</time></trkpt><trkpt lat="39.4041217" lon="16.8875933"><ele>276.0</ele><time>2026-03-29T11:47:24.018Z</time></trkpt><trkpt lat="39.4041867" lon="16.887505"><ele>276.0</ele><time>2026-03-29T11:47:25.018Z</time></trkpt><trkpt lat="39.40425" lon="16.8874133"><ele>276.0</ele><time>2026-03-29T11:47:26.018Z</time></trkpt><trkpt lat="39.4043117" lon="16.8873267"><ele>276.0</ele><time>2026-03-29T11:47:27.018Z</time></trkpt><trkpt lat="39.404375" lon="16.8872467"><ele>276.0</ele><time>2026-03-29T11:47:28.018Z</time></trkpt><trkpt lat="39.4044433" lon="16.8871967"><ele>276.0</ele><time>2026-03-29T11:47:29.018Z</time></trkpt><trkpt lat="39.404515" lon="16.8871833"><ele>276.0</ele><time>2026-03-29T11:47:30.018Z</time></trkpt><trkpt lat="39.4045867" lon="16.8871783"><ele>276.0</ele><time>2026-03-29T11:47:31.018Z</time></trkpt><trkpt lat="39.4046567" lon="16.8871983"><ele>276.0</ele><time>2026-03-29T11:47:32.018Z</time></trkpt><trkpt lat="39.4047533" lon="16.88728"><ele>277.0</ele><time>2026-03-29T11:47:34.018Z</time></trkpt><trkpt lat="39.4047833" lon="16.8873533"><ele>278.0</ele><time>2026-03-29T11:47:35.018Z</time></trkpt><trkpt lat="39.4047933" lon="16.8874417"><ele>279.0</ele><time>2026-03-29T11:47:36.017Z</time></trkpt><trkpt lat="39.40478" lon="16.8875217"><ele>280.0</ele><time>2026-03-29T11:47:37.018Z</time></trkpt><trkpt lat="39.4047533" lon="16.8876067"><ele>281.0</ele><time>2026-03-29T11:47:38.018Z</time></trkpt><trkpt lat="39.4047467" lon="16.8877017"><ele>282.0</ele><time>2026-03-29T11:47:39.018Z</time></trkpt><trkpt lat="39.40474" lon="16.8877967"><ele>283.0</ele><time>2026-03-29T11:47:40.018Z</time></trkpt><trkpt lat="39.4047317" lon="16.8878817"><ele>284.5</ele><time>2026-03-29T11:47:41.018Z</time></trkpt><trkpt lat="39.404725" lon="16.8879633"><ele>286.0</ele><time>2026-03-29T11:47:42.018Z</time></trkpt><trkpt lat="39.4047133" lon="16.88805"><ele>287.5</ele><time>2026-03-29T11:47:43.018Z</time></trkpt><trkpt lat="39.4047033" lon="16.8881333"><ele>289.0</ele><time>2026-03-29T11:47:44.018Z</time></trkpt><trkpt lat="39.4046967" lon="16.8882717"><ele>290.5</ele><time>2026-03-29T11:47:46.018Z</time></trkpt><trkpt lat="39.4046767" lon="16.8884083"><ele>292.0</ele><time>2026-03-29T11:47:48.018Z</time></trkpt><trkpt lat="39.404665" lon="16.88849"><ele>293.0</ele><time>2026-03-29T11:47:49.018Z</time></trkpt><trkpt lat="39.40466" lon="16.8885767"><ele>294.0</ele><time>2026-03-29T11:47:50.017Z</time></trkpt><trkpt lat="39.4046483" lon="16.8886583"><ele>295.0</ele><time>2026-03-29T11:47:51.018Z</time></trkpt><trkpt lat="39.4046267" lon="16.8887417"><ele>296.0</ele><time>2026-03-29T11:47:52.018Z</time></trkpt><trkpt lat="39.4045983" lon="16.8888233"><ele>297.0</ele><time>2026-03-29T11:47:53.018Z</time></trkpt><trkpt lat="39.4045667" lon="16.888905"><ele>298.0</ele><time>2026-03-29T11:47:54.018Z</time></trkpt><trkpt lat="39.40455" lon="16.8890017"><ele>299.0</ele><time>2026-03-29T11:47:55.018Z</time></trkpt><trkpt lat="39.40455" lon="16.88911"><ele>299.0</ele><time>2026-03-29T11:47:56.017Z</time></trkpt><trkpt lat="39.4045533" lon="16.8892133"><ele>299.0</ele><time>2026-03-29T11:47:57.018Z</time></trkpt><trkpt lat="39.4045633" lon="16.8893317"><ele>299.0</ele><time>2026-03-29T11:47:58.018Z</time></trkpt><trkpt lat="39.4045633" lon="16.889455"><ele>299.0</ele><time>2026-03-29T11:47:59.018Z</time></trkpt><trkpt lat="39.40455" lon="16.8895683"><ele>299.0</ele><time>2026-03-29T11:48:00.018Z</time></trkpt><trkpt lat="39.4045367" lon="16.8896683"><ele>299.0</ele><time>2026-03-29T11:48:01.018Z</time></trkpt><trkpt lat="39.4044717" lon="16.8898117"><ele>301.6666666666667</ele><time>2026-03-29T11:48:03.017Z</time></trkpt><trkpt lat="39.404425" lon="16.8898733"><ele>304.33333333333337</ele><time>2026-03-29T11:48:04.018Z</time></trkpt><trkpt lat="39.4043533" lon="16.8899667"><ele>307.0</ele><time>2026-03-29T11:48:06.018Z</time></trkpt><trkpt lat="39.4042883" lon="16.8900617"><ele>309.6666666666667</ele><time>2026-03-29T11:48:08.018Z</time></trkpt><trkpt lat="39.4042467" lon="16.8901283"><ele>312.3333333333333</ele><time>2026-03-29T11:48:09.018Z</time></trkpt><trkpt lat="39.404205" lon="16.890195"><ele>315.0</ele><time>2026-03-29T11:48:10.018Z</time></trkpt><trkpt lat="39.4041683" lon="16.890265"><ele>316.85714285714283</ele><time>2026-03-29T11:48:11.018Z</time></trkpt><trkpt lat="39.4041333" lon="16.8903333"><ele>318.7142857142857</ele><time>2026-03-29T11:48:12.018Z</time></trkpt><trkpt lat="39.4041" lon="16.890405"><ele>320.57142857142856</ele><time>2026-03-29T11:48:13.018Z</time></trkpt><trkpt lat="39.4040717" lon="16.8904833"><ele>322.42857142857144</ele><time>2026-03-29T11:48:14.018Z</time></trkpt><trkpt lat="39.4040483" lon="16.8905733"><ele>324.2857142857143</ele><time>2026-03-29T11:48:15.018Z</time></trkpt><trkpt lat="39.4040283" lon="16.8906583"><ele>326.1428571428571</ele><time>2026-03-29T11:48:16.018Z</time></trkpt><trkpt lat="39.4040017" lon="16.890745"><ele>328.0</ele><time>2026-03-29T11:48:17.018Z</time></trkpt><trkpt lat="39.4039833" lon="16.8908383"><ele>328.3333333333333</ele><time>2026-03-29T11:48:18.018Z</time></trkpt><trkpt lat="39.40395" lon="16.8909317"><ele>328.66666666666663</ele><time>2026-03-29T11:48:19.018Z</time></trkpt><trkpt lat="39.4039083" lon="16.8910333"><ele>329.0</ele><time>2026-03-29T11:48:20.018Z</time></trkpt><trkpt lat="39.4038617" lon="16.89113"><ele>329.3333333333333</ele><time>2026-03-29T11:48:21.018Z</time></trkpt><trkpt lat="39.4038017" lon="16.8912233"><ele>329.6666666666667</ele><time>2026-03-29T11:48:22.018Z</time></trkpt><trkpt lat="39.40375" lon="16.891305"><ele>330.0</ele><time>2026-03-29T11:48:23.018Z</time></trkpt><trkpt lat="39.4036933" lon="16.8913933"><ele>330.0</ele><time>2026-03-29T11:48:24.018Z</time></trkpt><trkpt lat="39.4036383" lon="16.8914917"><ele>330.0</ele><time>2026-03-29T11:48:25.018Z</time></trkpt><trkpt lat="39.4035933" lon="16.8915783"><ele>330.0</ele><time>2026-03-29T11:48:26.018Z</time></trkpt><trkpt lat="39.4035567" lon="16.8916667"><ele>330.0</ele><time>2026-03-29T11:48:27.018Z</time></trkpt><trkpt lat="39.403525" lon="16.8917583"><ele>330.0</ele><time>2026-03-29T11:48:28.018Z</time></trkpt><trkpt lat="39.403495" lon="16.8918433"><ele>330.0</ele><time>2026-03-29T11:48:29.018Z</time></trkpt><trkpt lat="39.4034633" lon="16.8919317"><ele>330.6</ele><time>2026-03-29T11:48:30.017Z</time></trkpt><trkpt lat="39.4034283" lon="16.8920217"><ele>331.2</ele><time>2026-03-29T11:48:31.018Z</time></trkpt><trkpt lat="39.4033817" lon="16.89213"><ele>331.79999999999995</ele><time>2026-03-29T11:48:32.018Z</time></trkpt><trkpt lat="39.403335" lon="16.8922383"><ele>332.4</ele><time>2026-03-29T11:48:33.018Z</time></trkpt><trkpt lat="39.4032983" lon="16.89235"><ele>333.0</ele><time>2026-03-29T11:48:34.017Z</time></trkpt><trkpt lat="39.4032633" lon="16.892465"><ele>333.0</ele><time>2026-03-29T11:48:35.018Z</time></trkpt><trkpt lat="39.4032383" lon="16.89256"><ele>333.0</ele><time>2026-03-29T11:48:36.018Z</time></trkpt><trkpt lat="39.4032167" lon="16.8926783"><ele>333.0</ele><time>2026-03-29T11:48:38.018Z</time></trkpt><trkpt lat="39.4032117" lon="16.8927717"><ele>333.0</ele><time>2026-03-29T11:48:56.018Z</time></trkpt><trkpt lat="39.403205" lon="16.89287"><ele>333.0</ele><time>2026-03-29T11:48:59.017Z</time></trkpt><trkpt lat="39.40322" lon="16.8929767"><ele>333.0</ele><time>2026-03-29T11:49:01.018Z</time></trkpt><trkpt lat="39.4032517" lon="16.89308"><ele>332.59999999999997</ele><time>2026-03-29T11:49:03.017Z</time></trkpt><trkpt lat="39.4033083" lon="16.8931867"><ele>332.2</ele><time>2026-03-29T11:49:05.018Z</time></trkpt><trkpt lat="39.4033733" lon="16.89329"><ele>331.8</ele><time>2026-03-29T11:49:07.018Z</time></trkpt><trkpt lat="39.40346" lon="16.8933983"><ele>331.4</ele><time>2026-03-29T11:49:09.018Z</time></trkpt><trkpt lat="39.40354" lon="16.89349"><ele>331.0</ele><time>2026-03-29T11:49:11.018Z</time></trkpt><trkpt lat="39.40362" lon="16.89354"><ele>329.0</ele><time>2026-03-29T11:49:13.018Z</time></trkpt><trkpt lat="39.403695" lon="16.8935967"><ele>327.0</ele><time>2026-03-29T11:49:15.017Z</time></trkpt><trkpt lat="39.4037633" lon="16.8936733"><ele>325.0</ele><time>2026-03-29T11:49:17.018Z</time></trkpt><trkpt lat="39.4037917" lon="16.8938"><ele>323.0</ele><time>2026-03-29T11:49:19.018Z</time></trkpt><trkpt lat="39.403785" lon="16.8939517"><ele>321.0</ele><time>2026-03-29T11:49:21.017Z</time></trkpt><trkpt lat="39.4037717" lon="16.8940983"><ele>321.0</ele><time>2026-03-29T11:49:23.018Z</time></trkpt><trkpt lat="39.403755" lon="16.894215"><ele>321.0</ele><time>2026-03-29T11:49:25.018Z</time></trkpt><trkpt lat="39.4037467" lon="16.894305"><ele>321.0</ele><time>2026-03-29T11:49:27.017Z</time></trkpt><trkpt lat="39.40374" lon="16.8944033"><ele>321.0</ele><time>2026-03-29T11:49:31.018Z</time></trkpt><trkpt lat="39.4037283" lon="16.8945367"><ele>321.0</ele><time>2026-03-29T11:51:05.018Z</time></trkpt><trkpt lat="39.4037333" lon="16.894655"><ele>321.0</ele><time>2026-03-29T11:51:07.018Z</time></trkpt><trkpt lat="39.4037717" lon="16.8947767"><ele>321.20000000000005</ele><time>2026-03-29T11:51:09.018Z</time></trkpt><trkpt lat="39.4038467" lon="16.8948533"><ele>321.40000000000003</ele><time>2026-03-29T11:51:11.018Z</time></trkpt><trkpt lat="39.4039483" lon="16.8949217"><ele>321.6</ele><time>2026-03-29T11:51:13.018Z</time></trkpt><trkpt lat="39.4040333" lon="16.8949883"><ele>321.8</ele><time>2026-03-29T11:51:15.018Z</time></trkpt><trkpt lat="39.40412" lon="16.89501"><ele>322.0</ele><time>2026-03-29T11:51:17.018Z</time></trkpt><trkpt lat="39.40419" lon="16.8950083"><ele>322.0</ele><time>2026-03-29T11:51:19.018Z</time></trkpt><trkpt lat="39.40425" lon="16.8950383"><ele>322.0</ele><time>2026-03-29T11:51:22.017Z</time></trkpt><trkpt lat="39.404305" lon="16.8951"><ele>322.0</ele><time>2026-03-29T11:51:24.017Z</time></trkpt><trkpt lat="39.4043783" lon="16.89516"><ele>322.0</ele><time>2026-03-29T11:51:26.018Z</time></trkpt><trkpt lat="39.4044567" lon="16.8951733"><ele>322.0</ele><time>2026-03-29T11:51:28.018Z</time></trkpt><trkpt lat="39.4045317" lon="16.895155"><ele>322.0</ele><time>2026-03-29T11:51:30.018Z</time></trkpt><trkpt lat="39.404595" lon="16.895135"><ele>322.0</ele><time>2026-03-29T11:51:32.017Z</time></trkpt><trkpt lat="39.4046867" lon="16.8950767"><ele>321.5</ele><time>2026-03-29T11:51:34.018Z</time></trkpt><trkpt lat="39.4047783" lon="16.895025"><ele>321.0</ele><time>2026-03-29T11:51:36.018Z</time></trkpt><trkpt lat="39.4048417" lon="16.895065"><ele>320.5</ele><time>2026-03-29T11:51:38.018Z</time></trkpt><trkpt lat="39.4049233" lon="16.8951783"><ele>320.0</ele><time>2026-03-29T11:51:40.018Z</time></trkpt><trkpt lat="39.4049617" lon="16.8952567"><ele>319.5</ele><time>2026-03-29T11:51:41.017Z</time></trkpt><trkpt lat="39.404995" lon="16.8953383"><ele>319.0</ele><time>2026-03-29T11:51:42.018Z</time></trkpt><trkpt lat="39.4050333" lon="16.895415"><ele>317.16666666666663</ele><time>2026-03-29T11:51:43.018Z</time></trkpt><trkpt lat="39.4050833" lon="16.895485"><ele>315.3333333333333</ele><time>2026-03-29T11:51:44.017Z</time></trkpt><trkpt lat="39.4051333" lon="16.895545"><ele>313.5</ele><time>2026-03-29T11:51:45.018Z</time></trkpt><trkpt lat="39.4051883" lon="16.8956017"><ele>311.6666666666667</ele><time>2026-03-29T11:51:46.017Z</time></trkpt><trkpt lat="39.405305" lon="16.895655"><ele>309.83333333333337</ele><time>2026-03-29T11:51:48.017Z</time></trkpt><trkpt lat="39.405415" lon="16.8956817"><ele>308.0</ele><time>2026-03-29T11:51:50.018Z</time></trkpt><trkpt lat="39.4055267" lon="16.8956933"><ele>308.0</ele><time>2026-03-29T11:51:52.017Z</time></trkpt><trkpt lat="39.4056317" lon="16.8957333"><ele>308.0</ele><time>2026-03-29T11:51:54.017Z</time></trkpt><trkpt lat="39.4056733" lon="16.8958233"><ele>308.0</ele><time>2026-03-29T11:51:56.018Z</time></trkpt><trkpt lat="39.4056867" lon="16.8959117"><ele>308.0</ele><time>2026-03-29T11:51:58.018Z</time></trkpt><trkpt lat="39.4057267" lon="16.8959817"><ele>308.0</ele><time>2026-03-29T11:52:00.018Z</time></trkpt><trkpt lat="39.4057817" lon="16.8960783"><ele>308.0</ele><time>2026-03-29T11:52:03.018Z</time></trkpt><trkpt lat="39.4058217" lon="16.896155"><ele>306.14285714285717</ele><time>2026-03-29T11:52:05.018Z</time></trkpt><trkpt lat="39.405865" lon="16.896235"><ele>304.2857142857143</ele><time>2026-03-29T11:52:07.018Z</time></trkpt><trkpt lat="39.4059067" lon="16.8963"><ele>302.42857142857144</ele><time>2026-03-29T11:52:09.018Z</time></trkpt><trkpt lat="39.4059417" lon="16.8963683"><ele>300.57142857142856</ele><time>2026-03-29T11:52:11.018Z</time></trkpt><trkpt lat="39.40598" lon="16.8964583"><ele>298.7142857142857</ele><time>2026-03-29T11:52:14.017Z</time></trkpt><trkpt lat="39.406005" lon="16.8965367"><ele>296.8571428571429</ele><time>2026-03-29T11:52:16.018Z</time></trkpt><trkpt lat="39.4060483" lon="16.8966517"><ele>295.0</ele><time>2026-03-29T11:52:18.018Z</time></trkpt><trkpt lat="39.4060783" lon="16.8967817"><ele>292.3333333333333</ele><time>2026-03-29T11:52:20.018Z</time></trkpt><trkpt lat="39.406095" lon="16.8968983"><ele>289.66666666666663</ele><time>2026-03-29T11:52:22.018Z</time></trkpt><trkpt lat="39.40612" lon="16.8970167"><ele>287.0</ele><time>2026-03-29T11:52:24.018Z</time></trkpt><trkpt lat="39.4061417" lon="16.8971317"><ele>284.3333333333333</ele><time>2026-03-29T11:52:26.018Z</time></trkpt><trkpt lat="39.4061617" lon="16.8972167"><ele>281.6666666666667</ele><time>2026-03-29T11:52:28.018Z</time></trkpt><trkpt lat="39.4061917" lon="16.897305"><ele>279.0</ele><time>2026-03-29T11:52:31.018Z</time></trkpt><trkpt lat="39.4061933" lon="16.8973917"><ele>279.0</ele><time>2026-03-29T11:52:34.018Z</time></trkpt><trkpt lat="39.40619" lon="16.8974817"><ele>279.0</ele><time>2026-03-29T11:52:36.018Z</time></trkpt><trkpt lat="39.4062217" lon="16.8975917"><ele>279.0</ele><time>2026-03-29T11:52:38.018Z</time></trkpt><trkpt lat="39.4062817" lon="16.8976933"><ele>279.0</ele><time>2026-03-29T11:52:40.017Z</time></trkpt><trkpt lat="39.4063217" lon="16.8977983"><ele>279.0</ele><time>2026-03-29T11:52:42.018Z</time></trkpt><trkpt lat="39.4063317" lon="16.897925"><ele>279.0</ele><time>2026-03-29T11:52:44.018Z</time></trkpt><trkpt lat="39.4063117" lon="16.8980517"><ele>277.4</ele><time>2026-03-29T11:52:46.018Z</time></trkpt><trkpt lat="39.4062983" lon="16.8981833"><ele>275.79999999999995</ele><time>2026-03-29T11:52:48.017Z</time></trkpt><trkpt lat="39.4062883" lon="16.8983117"><ele>274.20000000000005</ele><time>2026-03-29T11:52:50.018Z</time></trkpt><trkpt lat="39.4062733" lon="16.8984583"><ele>272.6</ele><time>2026-03-29T11:52:52.018Z</time></trkpt><trkpt lat="39.4062617" lon="16.8986217"><ele>271.0</ele><time>2026-03-29T11:52:54.018Z</time></trkpt><trkpt lat="39.4062533" lon="16.89876"><ele>270.0</ele><time>2026-03-29T11:52:56.018Z</time></trkpt><trkpt lat="39.4062433" lon="16.8989117"><ele>269.0</ele><time>2026-03-29T11:52:58.018Z</time></trkpt><trkpt lat="39.4062383" lon="16.8989983"><ele>268.0</ele><time>2026-03-29T11:52:59.018Z</time></trkpt><trkpt lat="39.4062267" lon="16.8990933"><ele>267.0</ele><time>2026-03-29T11:53:00.017Z</time></trkpt><trkpt lat="39.4062117" lon="16.8991767"><ele>266.0</ele><time>2026-03-29T11:53:01.018Z</time></trkpt><trkpt lat="39.40618" lon="16.8993217"><ele>265.0</ele><time>2026-03-29T11:53:03.018Z</time></trkpt><trkpt lat="39.406165" lon="16.8994033"><ele>263.8</ele><time>2026-03-29T11:53:04.018Z</time></trkpt><trkpt lat="39.4061333" lon="16.8995583"><ele>262.6</ele><time>2026-03-29T11:53:06.018Z</time></trkpt><trkpt lat="39.4061167" lon="16.8997"><ele>261.4</ele><time>2026-03-29T11:53:08.018Z</time></trkpt><trkpt lat="39.40608" lon="16.899835"><ele>260.2</ele><time>2026-03-29T11:53:10.018Z</time></trkpt><trkpt lat="39.4060433" lon="16.899915"><ele>259.0</ele><time>2026-03-29T11:53:11.018Z</time></trkpt><trkpt lat="39.4060083" lon="16.8999983"><ele>258.16666666666663</ele><time>2026-03-29T11:53:12.018Z</time></trkpt><trkpt lat="39.405975" lon="16.9000883"><ele>257.3333333333333</ele><time>2026-03-29T11:53:13.017Z</time></trkpt><trkpt lat="39.4059517" lon="16.9001767"><ele>256.5</ele><time>2026-03-29T11:53:14.018Z</time></trkpt><trkpt lat="39.4059367" lon="16.900265"><ele>255.66666666666669</ele><time>2026-03-29T11:53:15.018Z</time></trkpt><trkpt lat="39.4059283" lon="16.9003583"><ele>254.83333333333334</ele><time>2026-03-29T11:53:16.018Z</time></trkpt><trkpt lat="39.4059517" lon="16.900495"><ele>254.0</ele><time>2026-03-29T11:53:18.018Z</time></trkpt><trkpt lat="39.4059367" lon="16.9005983"><ele>254.0</ele><time>2026-03-29T11:53:20.017Z</time></trkpt><trkpt lat="39.4059017" lon="16.90073"><ele>253.99999999999997</ele><time>2026-03-29T11:53:22.018Z</time></trkpt><trkpt lat="39.4058667" lon="16.90089"><ele>253.99999999999997</ele><time>2026-03-29T11:53:24.017Z</time></trkpt><trkpt lat="39.405845" lon="16.900975"><ele>254.0</ele><time>2026-03-29T11:53:25.018Z</time></trkpt><trkpt lat="39.4058267" lon="16.90107"><ele>254.0</ele><time>2026-03-29T11:53:26.017Z</time></trkpt><trkpt lat="39.4058133" lon="16.9011633"><ele>252.6</ele><time>2026-03-29T11:53:27.018Z</time></trkpt><trkpt lat="39.4057983" lon="16.9012583"><ele>251.2</ele><time>2026-03-29T11:53:28.018Z</time></trkpt><trkpt lat="39.4057833" lon="16.90134"><ele>249.79999999999998</ele><time>2026-03-29T11:53:29.018Z</time></trkpt><trkpt lat="39.405745" lon="16.901485"><ele>248.39999999999998</ele><time>2026-03-29T11:53:31.018Z</time></trkpt><trkpt lat="39.405755" lon="16.901645"><ele>247.0</ele><time>2026-03-29T11:53:33.018Z</time></trkpt><trkpt lat="39.4057733" lon="16.9017333"><ele>243.85714285714286</ele><time>2026-03-29T11:53:34.018Z</time></trkpt><trkpt lat="39.4058" lon="16.9018167"><ele>240.71428571428572</ele><time>2026-03-29T11:53:35.018Z</time></trkpt><trkpt lat="39.4058317" lon="16.901895"><ele>237.57142857142858</ele><time>2026-03-29T11:53:36.018Z</time></trkpt><trkpt lat="39.405875" lon="16.9019683"><ele>234.42857142857144</ele><time>2026-03-29T11:53:37.017Z</time></trkpt><trkpt lat="39.4059317" lon="16.9020267"><ele>231.28571428571428</ele><time>2026-03-29T11:53:38.018Z</time></trkpt><trkpt lat="39.40599" lon="16.9020917"><ele>228.14285714285717</ele><time>2026-03-29T11:53:39.018Z</time></trkpt><trkpt lat="39.40604" lon="16.9021617"><ele>225.00000000000003</ele><time>2026-03-29T11:53:40.018Z</time></trkpt><trkpt lat="39.406085" lon="16.902235"><ele>225.0</ele><time>2026-03-29T11:53:41.018Z</time></trkpt><trkpt lat="39.4061267" lon="16.9023033"><ele>225.0</ele><time>2026-03-29T11:53:42.018Z</time></trkpt><trkpt lat="39.4062233" lon="16.9024167"><ele>225.0</ele><time>2026-03-29T11:53:44.018Z</time></trkpt><trkpt lat="39.40628" lon="16.9024717"><ele>225.0</ele><time>2026-03-29T11:53:45.018Z</time></trkpt><trkpt lat="39.4063383" lon="16.9025183"><ele>225.0</ele><time>2026-03-29T11:53:46.018Z</time></trkpt><trkpt lat="39.4063933" lon="16.9025583"><ele>225.0</ele><time>2026-03-29T11:53:47.018Z</time></trkpt><trkpt lat="39.40645" lon="16.902605"><ele>224.66666666666666</ele><time>2026-03-29T11:53:48.018Z</time></trkpt><trkpt lat="39.4065117" lon="16.9026483"><ele>224.33333333333331</ele><time>2026-03-29T11:53:49.017Z</time></trkpt><trkpt lat="39.4065767" lon="16.9026683"><ele>224.0</ele><time>2026-03-29T11:53:50.018Z</time></trkpt><trkpt lat="39.406695" lon="16.9026567"><ele>223.66666666666666</ele><time>2026-03-29T11:53:52.018Z</time></trkpt><trkpt lat="39.4067617" lon="16.9026367"><ele>223.33333333333331</ele><time>2026-03-29T11:53:53.018Z</time></trkpt><trkpt lat="39.40683" lon="16.9026033"><ele>223.0</ele><time>2026-03-29T11:53:54.018Z</time></trkpt><trkpt lat="39.40691" lon="16.9025717"><ele>225.16666666666666</ele><time>2026-03-29T11:53:55.018Z</time></trkpt><trkpt lat="39.406995" lon="16.9025233"><ele>227.33333333333331</ele><time>2026-03-29T11:53:56.018Z</time></trkpt><trkpt lat="39.4070767" lon="16.90248"><ele>229.5</ele><time>2026-03-29T11:53:57.017Z</time></trkpt><trkpt lat="39.40715" lon="16.9024633"><ele>231.66666666666669</ele><time>2026-03-29T11:53:58.018Z</time></trkpt><trkpt lat="39.4072217" lon="16.9024767"><ele>233.83333333333334</ele><time>2026-03-29T11:53:59.018Z</time></trkpt><trkpt lat="39.4072867" lon="16.9025017"><ele>236.0</ele><time>2026-03-29T11:54:00.018Z</time></trkpt><trkpt lat="39.4073533" lon="16.9025267"><ele>236.16666666666669</ele><time>2026-03-29T11:54:01.018Z</time></trkpt><trkpt lat="39.4074267" lon="16.90255"><ele>236.33333333333334</ele><time>2026-03-29T11:54:02.017Z</time></trkpt><trkpt lat="39.4074933" lon="16.9025767"><ele>236.5</ele><time>2026-03-29T11:54:03.018Z</time></trkpt><trkpt lat="39.407555" lon="16.9026033"><ele>236.66666666666669</ele><time>2026-03-29T11:54:04.018Z</time></trkpt><trkpt lat="39.4076483" lon="16.9026867"><ele>236.83333333333334</ele><time>2026-03-29T11:54:06.018Z</time></trkpt><trkpt lat="39.4077083" lon="16.9027433"><ele>237.0</ele><time>2026-03-29T11:54:08.018Z</time></trkpt><trkpt lat="39.4077583" lon="16.9027933"><ele>236.99999999999997</ele><time>2026-03-29T11:54:10.018Z</time></trkpt><trkpt lat="39.407825" lon="16.9028367"><ele>237.0</ele><time>2026-03-29T11:54:13.018Z</time></trkpt><trkpt lat="39.4078883" lon="16.9028783"><ele>236.99999999999997</ele><time>2026-03-29T11:54:20.017Z</time></trkpt><trkpt lat="39.40791" lon="16.902955"><ele>236.99999999999997</ele><time>2026-03-29T11:54:25.018Z</time></trkpt><trkpt lat="39.4079367" lon="16.9030333"><ele>237.0</ele><time>2026-03-29T11:54:27.018Z</time></trkpt><trkpt lat="39.4079483" lon="16.9031333"><ele>236.99999999999997</ele><time>2026-03-29T11:54:29.018Z</time></trkpt><trkpt lat="39.4079667" lon="16.903225"><ele>236.99999999999997</ele><time>2026-03-29T11:54:31.018Z</time></trkpt><trkpt lat="39.408" lon="16.90331"><ele>236.83333333333334</ele><time>2026-03-29T11:54:33.018Z</time></trkpt><trkpt lat="39.4080517" lon="16.9033867"><ele>236.66666666666669</ele><time>2026-03-29T11:54:35.018Z</time></trkpt><trkpt lat="39.4080583" lon="16.9035017"><ele>236.5</ele><time>2026-03-29T11:54:38.018Z</time></trkpt><trkpt lat="39.4080083" lon="16.90358"><ele>236.33333333333334</ele><time>2026-03-29T11:54:40.017Z</time></trkpt><trkpt lat="39.40793" lon="16.903635"><ele>236.16666666666669</ele><time>2026-03-29T11:54:42.018Z</time></trkpt><trkpt lat="39.4078433" lon="16.9036667"><ele>236.0</ele><time>2026-03-29T11:54:44.018Z</time></trkpt><trkpt lat="39.4077583" lon="16.903685"><ele>236.00000000000003</ele><time>2026-03-29T11:54:46.018Z</time></trkpt><trkpt lat="39.40768" lon="16.9036933"><ele>236.0</ele><time>2026-03-29T11:54:48.018Z</time></trkpt><trkpt lat="39.4076133" lon="16.9037233"><ele>236.0</ele><time>2026-03-29T11:54:50.018Z</time></trkpt><trkpt lat="39.40754" lon="16.9037583"><ele>236.0</ele><time>2026-03-29T11:54:53.017Z</time></trkpt><trkpt lat="39.40748" lon="16.9037833"><ele>236.00000000000003</ele><time>2026-03-29T11:54:55.018Z</time></trkpt><trkpt lat="39.407385" lon="16.9038117"><ele>236.0</ele><time>2026-03-29T11:54:57.018Z</time></trkpt><trkpt lat="39.407315" lon="16.9038283"><ele>236.0</ele><time>2026-03-29T11:54:58.018Z</time></trkpt><trkpt lat="39.4072467" lon="16.9038517"><ele>236.0</ele><time>2026-03-29T11:54:59.018Z</time></trkpt><trkpt lat="39.4071767" lon="16.9038917"><ele>236.0</ele><time>2026-03-29T11:55:00.017Z</time></trkpt><trkpt lat="39.4071117" lon="16.9039233"><ele>236.0</ele><time>2026-03-29T11:55:01.018Z</time></trkpt><trkpt lat="39.4070467" lon="16.9039633"><ele>236.0</ele><time>2026-03-29T11:55:02.018Z</time></trkpt><trkpt lat="39.4069883" lon="16.9040083"><ele>236.0</ele><time>2026-03-29T11:55:03.018Z</time></trkpt><trkpt lat="39.4069317" lon="16.9040583"><ele>236.0</ele><time>2026-03-29T11:55:04.017Z</time></trkpt><trkpt lat="39.4068733" lon="16.9041033"><ele>233.33333333333334</ele><time>2026-03-29T11:55:05.018Z</time></trkpt><trkpt lat="39.4068067" lon="16.9041383"><ele>230.66666666666669</ele><time>2026-03-29T11:55:06.018Z</time></trkpt><trkpt lat="39.4067333" lon="16.90416"><ele>228.0</ele><time>2026-03-29T11:55:07.018Z</time></trkpt><trkpt lat="39.4066633" lon="16.9041683"><ele>225.33333333333331</ele><time>2026-03-29T11:55:08.018Z</time></trkpt><trkpt lat="39.4065917" lon="16.9041767"><ele>222.66666666666666</ele><time>2026-03-29T11:55:09.018Z</time></trkpt><trkpt lat="39.4064767" lon="16.90419"><ele>220.0</ele><time>2026-03-29T11:55:11.018Z</time></trkpt><trkpt lat="39.4063783" lon="16.904205"><ele>217.66666666666666</ele><time>2026-03-29T11:55:13.018Z</time></trkpt><trkpt lat="39.406285" lon="16.9042067"><ele>215.33333333333331</ele><time>2026-03-29T11:55:15.018Z</time></trkpt><trkpt lat="39.4062033" lon="16.9041933"><ele>213.0</ele><time>2026-03-29T11:55:17.018Z</time></trkpt><trkpt lat="39.4061283" lon="16.90417"><ele>210.66666666666669</ele><time>2026-03-29T11:55:19.017Z</time></trkpt><trkpt lat="39.4060583" lon="16.904145"><ele>208.33333333333334</ele><time>2026-03-29T11:55:21.018Z</time></trkpt><trkpt lat="39.4059833" lon="16.9041317"><ele>206.0</ele><time>2026-03-29T11:55:23.017Z</time></trkpt><trkpt lat="39.4059067" lon="16.904115"><ele>206.00000000000003</ele><time>2026-03-29T11:55:25.018Z</time></trkpt><trkpt lat="39.405835" lon="16.9041067"><ele>206.0</ele><time>2026-03-29T11:55:27.018Z</time></trkpt><trkpt lat="39.4057717" lon="16.9040933"><ele>206.0</ele><time>2026-03-29T11:55:29.018Z</time></trkpt><trkpt lat="39.4057083" lon="16.9040733"><ele>206.0</ele><time>2026-03-29T11:55:31.018Z</time></trkpt><trkpt lat="39.40563" lon="16.9040767"><ele>206.00000000000003</ele><time>2026-03-29T11:55:34.018Z</time></trkpt><trkpt lat="39.4055833" lon="16.9041483"><ele>206.0</ele><time>2026-03-29T11:55:36.018Z</time></trkpt><trkpt lat="39.4055333" lon="16.904295"><ele>205.16666666666669</ele><time>2026-03-29T11:55:38.017Z</time></trkpt><trkpt lat="39.4055083" lon="16.9043833"><ele>204.33333333333334</ele><time>2026-03-29T11:55:39.018Z</time></trkpt><trkpt lat="39.40548" lon="16.904465"><ele>203.5</ele><time>2026-03-29T11:55:40.018Z</time></trkpt><trkpt lat="39.4054383" lon="16.904555"><ele>202.66666666666669</ele><time>2026-03-29T11:55:41.018Z</time></trkpt><trkpt lat="39.405395" lon="16.90463"><ele>201.83333333333334</ele><time>2026-03-29T11:55:42.018Z</time></trkpt><trkpt lat="39.4053383" lon="16.9047017"><ele>201.0</ele><time>2026-03-29T11:55:43.018Z</time></trkpt><trkpt lat="39.40529" lon="16.9047867"><ele>199.5</ele><time>2026-03-29T11:55:44.018Z</time></trkpt><trkpt lat="39.4052483" lon="16.9048733"><ele>198.0</ele><time>2026-03-29T11:55:45.018Z</time></trkpt><trkpt lat="39.4052" lon="16.904965"><ele>196.5</ele><time>2026-03-29T11:55:46.018Z</time></trkpt><trkpt lat="39.40514" lon="16.9050533"><ele>195.0</ele><time>2026-03-29T11:55:47.018Z</time></trkpt><trkpt lat="39.4050733" lon="16.9051317"><ele>193.5</ele><time>2026-03-29T11:55:48.018Z</time></trkpt><trkpt lat="39.4050117" lon="16.905215"><ele>192.0</ele><time>2026-03-29T11:55:49.018Z</time></trkpt><trkpt lat="39.40495" lon="16.9053067"><ele>192.0</ele><time>2026-03-29T11:55:50.018Z</time></trkpt><trkpt lat="39.4048833" lon="16.9054"><ele>192.0</ele><time>2026-03-29T11:55:51.018Z</time></trkpt><trkpt lat="39.4048217" lon="16.9054783"><ele>192.0</ele><time>2026-03-29T11:55:52.018Z</time></trkpt><trkpt lat="39.4047733" lon="16.9055567"><ele>192.0</ele><time>2026-03-29T11:55:53.018Z</time></trkpt><trkpt lat="39.4047317" lon="16.905635"><ele>192.0</ele><time>2026-03-29T11:55:54.018Z</time></trkpt><trkpt lat="39.4046833" lon="16.905705"><ele>192.0</ele><time>2026-03-29T11:55:55.017Z</time></trkpt><trkpt lat="39.40465" lon="16.9058267"><ele>192.5</ele><time>2026-03-29T11:55:57.018Z</time></trkpt><trkpt lat="39.4046917" lon="16.9059283"><ele>193.0</ele><time>2026-03-29T11:56:00.018Z</time></trkpt><trkpt lat="39.40475" lon="16.9059767"><ele>193.5</ele><time>2026-03-29T11:56:03.017Z</time></trkpt><trkpt lat="39.40475" lon="16.90608"><ele>194.0</ele><time>2026-03-29T11:56:06.018Z</time></trkpt><trkpt lat="39.404685" lon="16.9061667"><ele>194.5</ele><time>2026-03-29T11:56:08.018Z</time></trkpt><trkpt lat="39.4046083" lon="16.906265"><ele>195.0</ele><time>2026-03-29T11:56:10.018Z</time></trkpt><trkpt lat="39.404545" lon="16.9063717"><ele>193.4</ele><time>2026-03-29T11:56:12.018Z</time></trkpt><trkpt lat="39.4045183" lon="16.9065017"><ele>191.8</ele><time>2026-03-29T11:56:14.018Z</time></trkpt><trkpt lat="39.404535" lon="16.9066783"><ele>190.2</ele><time>2026-03-29T11:56:16.018Z</time></trkpt><trkpt lat="39.4045367" lon="16.9067667"><ele>188.6</ele><time>2026-03-29T11:56:17.018Z</time></trkpt><trkpt lat="39.4045283" lon="16.90685"><ele>187.0</ele><time>2026-03-29T11:56:18.017Z</time></trkpt><trkpt lat="39.404465" lon="16.9069633"><ele>187.0</ele><time>2026-03-29T11:56:20.018Z</time></trkpt><trkpt lat="39.4043583" lon="16.9069917"><ele>187.0</ele><time>2026-03-29T11:56:22.018Z</time></trkpt><trkpt lat="39.4042533" lon="16.907055"><ele>187.0</ele><time>2026-03-29T11:56:24.018Z</time></trkpt><trkpt lat="39.4042067" lon="16.9071117"><ele>187.0</ele><time>2026-03-29T11:56:25.018Z</time></trkpt><trkpt lat="39.4041367" lon="16.9072217"><ele>187.0</ele><time>2026-03-29T11:56:27.018Z</time></trkpt><trkpt lat="39.4040883" lon="16.9073067"><ele>187.0</ele><time>2026-03-29T11:56:29.018Z</time></trkpt><trkpt lat="39.40408" lon="16.9074083"><ele>187.0</ele><time>2026-03-29T11:56:32.018Z</time></trkpt><trkpt lat="39.404085" lon="16.9075317"><ele>187.0</ele><time>2026-03-29T11:56:35.017Z</time></trkpt><trkpt lat="39.4040983" lon="16.907655"><ele>187.0</ele><time>2026-03-29T11:56:37.018Z</time></trkpt><trkpt lat="39.4040883" lon="16.9077933"><ele>187.0</ele><time>2026-03-29T11:56:39.018Z</time></trkpt><trkpt lat="39.4040333" lon="16.9079367"><ele>186.28571428571428</ele><time>2026-03-29T11:56:41.018Z</time></trkpt><trkpt lat="39.404005" lon="16.9080117"><ele>185.57142857142858</ele><time>2026-03-29T11:56:42.018Z</time></trkpt><trkpt lat="39.403975" lon="16.9081"><ele>184.85714285714286</ele><time>2026-03-29T11:56:43.018Z</time></trkpt><trkpt lat="39.403965" lon="16.9081917"><ele>184.14285714285714</ele><time>2026-03-29T11:56:44.018Z</time></trkpt><trkpt lat="39.4039583" lon="16.908285"><ele>183.42857142857144</ele><time>2026-03-29T11:56:45.017Z</time></trkpt><trkpt lat="39.403955" lon="16.9083767"><ele>182.71428571428572</ele><time>2026-03-29T11:56:46.018Z</time></trkpt><trkpt lat="39.403955" lon="16.908465"><ele>182.0</ele><time>2026-03-29T11:56:47.018Z</time></trkpt><trkpt lat="39.40391" lon="16.908605"><ele>181.2</ele><time>2026-03-29T11:56:49.018Z</time></trkpt><trkpt lat="39.4038483" lon="16.90871"><ele>180.39999999999998</ele><time>2026-03-29T11:56:51.017Z</time></trkpt><trkpt lat="39.40378" lon="16.9088083"><ele>179.60000000000002</ele><time>2026-03-29T11:56:53.018Z</time></trkpt><trkpt lat="39.4037283" lon="16.9089"><ele>178.8</ele><time>2026-03-29T11:56:55.018Z</time></trkpt><trkpt lat="39.4037183" lon="16.9090233"><ele>178.0</ele><time>2026-03-29T11:56:57.018Z</time></trkpt><trkpt lat="39.4037267" lon="16.909165"><ele>176.33333333333334</ele><time>2026-03-29T11:56:59.018Z</time></trkpt><trkpt lat="39.4037383" lon="16.9093083"><ele>174.66666666666669</ele><time>2026-03-29T11:57:01.018Z</time></trkpt><trkpt lat="39.40375" lon="16.909445"><ele>173.0</ele><time>2026-03-29T11:57:03.018Z</time></trkpt><trkpt lat="39.403755" lon="16.9095267"><ele>171.33333333333334</ele><time>2026-03-29T11:57:04.018Z</time></trkpt><trkpt lat="39.4037517" lon="16.90961"><ele>169.66666666666666</ele><time>2026-03-29T11:57:05.018Z</time></trkpt><trkpt lat="39.4037567" lon="16.909705"><ele>168.0</ele><time>2026-03-29T11:57:06.018Z</time></trkpt><trkpt lat="39.4037717" lon="16.9098017"><ele>168.0</ele><time>2026-03-29T11:57:07.018Z</time></trkpt><trkpt lat="39.4037933" lon="16.9098983"><ele>168.0</ele><time>2026-03-29T11:57:08.018Z</time></trkpt><trkpt lat="39.40382" lon="16.9099917"><ele>168.0</ele><time>2026-03-29T11:57:09.018Z</time></trkpt><trkpt lat="39.403845" lon="16.910085"><ele>168.0</ele><time>2026-03-29T11:57:10.018Z</time></trkpt><trkpt lat="39.4038733" lon="16.9101783"><ele>168.0</ele><time>2026-03-29T11:57:11.018Z</time></trkpt><trkpt lat="39.4039" lon="16.91027"><ele>168.0</ele><time>2026-03-29T11:57:12.018Z</time></trkpt><trkpt lat="39.4039217" lon="16.9103617"><ele>167.28571428571428</ele><time>2026-03-29T11:57:13.018Z</time></trkpt><trkpt lat="39.4039417" lon="16.91045"><ele>166.57142857142856</ele><time>2026-03-29T11:57:14.018Z</time></trkpt><trkpt lat="39.40397" lon="16.9105367"><ele>165.85714285714286</ele><time>2026-03-29T11:57:15.018Z</time></trkpt><trkpt lat="39.4039917" lon="16.9106267"><ele>165.14285714285714</ele><time>2026-03-29T11:57:16.018Z</time></trkpt><trkpt lat="39.4040083" lon="16.9107217"><ele>164.42857142857142</ele><time>2026-03-29T11:57:17.018Z</time></trkpt><trkpt lat="39.4040217" lon="16.9108083"><ele>163.71428571428572</ele><time>2026-03-29T11:57:18.018Z</time></trkpt><trkpt lat="39.404035" lon="16.9108917"><ele>163.0</ele><time>2026-03-29T11:57:19.018Z</time></trkpt><trkpt lat="39.40405" lon="16.9109717"><ele>161.83333333333334</ele><time>2026-03-29T11:57:20.018Z</time></trkpt><trkpt lat="39.4040733" lon="16.91106"><ele>160.66666666666669</ele><time>2026-03-29T11:57:21.017Z</time></trkpt><trkpt lat="39.4041017" lon="16.91114"><ele>159.5</ele><time>2026-03-29T11:57:22.018Z</time></trkpt><trkpt lat="39.4041833" lon="16.9112333"><ele>158.33333333333334</ele><time>2026-03-29T11:57:24.018Z</time></trkpt><trkpt lat="39.40427" lon="16.9112217"><ele>157.16666666666666</ele><time>2026-03-29T11:57:27.018Z</time></trkpt><trkpt lat="39.4042633" lon="16.911335"><ele>156.0</ele><time>2026-03-29T11:57:32.017Z</time></trkpt><trkpt lat="39.4041733" lon="16.9113783"><ele>156.0</ele><time>2026-03-29T11:57:34.017Z</time></trkpt><trkpt lat="39.4040767" lon="16.9113867"><ele>156.0</ele><time>2026-03-29T11:57:36.017Z</time></trkpt><trkpt lat="39.4039783" lon="16.9114117"><ele>156.0</ele><time>2026-03-29T11:57:38.017Z</time></trkpt><trkpt lat="39.4039367" lon="16.911505"><ele>156.0</ele><time>2026-03-29T11:57:40.017Z</time></trkpt><trkpt lat="39.4039333" lon="16.9116583"><ele>156.0</ele><time>2026-03-29T11:57:42.017Z</time></trkpt><trkpt lat="39.4039317" lon="16.9117483"><ele>155.33333333333334</ele><time>2026-03-29T11:57:43.017Z</time></trkpt><trkpt lat="39.4039183" lon="16.91184"><ele>154.66666666666666</ele><time>2026-03-29T11:57:44.017Z</time></trkpt><trkpt lat="39.4038967" lon="16.9119233"><ele>154.0</ele><time>2026-03-29T11:57:45.017Z</time></trkpt><trkpt lat="39.403845" lon="16.9120317"><ele>153.33333333333331</ele><time>2026-03-29T11:57:47.017Z</time></trkpt><trkpt lat="39.4037883" lon="16.9120817"><ele>152.66666666666666</ele><time>2026-03-29T11:57:49.016Z</time></trkpt><trkpt lat="39.4037617" lon="16.912175"><ele>152.0</ele><time>2026-03-29T11:58:23.017Z</time></trkpt><trkpt lat="39.40373" lon="16.9123367"><ele>150.85714285714286</ele><time>2026-03-29T11:58:25.017Z</time></trkpt><trkpt lat="39.4037017" lon="16.9124267"><ele>149.71428571428572</ele><time>2026-03-29T11:58:26.017Z</time></trkpt><trkpt lat="39.403675" lon="16.91252"><ele>148.57142857142858</ele><time>2026-03-29T11:58:27.017Z</time></trkpt><trkpt lat="39.4036483" lon="16.91261"><ele>147.42857142857144</ele><time>2026-03-29T11:58:28.016Z</time></trkpt><trkpt lat="39.403625" lon="16.9127017"><ele>146.28571428571428</ele><time>2026-03-29T11:58:29.017Z</time></trkpt><trkpt lat="39.4035933" lon="16.9127917"><ele>145.14285714285717</ele><time>2026-03-29T11:58:30.017Z</time></trkpt><trkpt lat="39.4035667" lon="16.9128783"><ele>144.0</ele><time>2026-03-29T11:58:31.017Z</time></trkpt><trkpt lat="39.40354" lon="16.912975"><ele>144.0</ele><time>2026-03-29T11:58:32.017Z</time></trkpt><trkpt lat="39.4035117" lon="16.9130667"><ele>144.0</ele><time>2026-03-29T11:58:33.017Z</time></trkpt><trkpt lat="39.4034883" lon="16.9131733"><ele>144.0</ele><time>2026-03-29T11:58:34.017Z</time></trkpt><trkpt lat="39.4034617" lon="16.91327"><ele>144.0</ele><time>2026-03-29T11:58:35.017Z</time></trkpt><trkpt lat="39.40343" lon="16.9133733"><ele>144.0</ele><time>2026-03-29T11:58:36.017Z</time></trkpt><trkpt lat="39.4033867" lon="16.9134583"><ele>144.0</ele><time>2026-03-29T11:58:37.017Z</time></trkpt><trkpt lat="39.4033417" lon="16.9135167"><ele>144.0</ele><time>2026-03-29T11:58:38.017Z</time></trkpt><trkpt lat="39.4032433" lon="16.9135867"><ele>144.0</ele><time>2026-03-29T11:58:40.017Z</time></trkpt><trkpt lat="39.4031417" lon="16.913635"><ele>144.0</ele><time>2026-03-29T11:58:42.017Z</time></trkpt><trkpt lat="39.403065" lon="16.9136667"><ele>144.0</ele><time>2026-03-29T11:58:43.017Z</time></trkpt><trkpt lat="39.402975" lon="16.9136983"><ele>144.0</ele><time>2026-03-29T11:58:44.017Z</time></trkpt><trkpt lat="39.402875" lon="16.9137367"><ele>142.6</ele><time>2026-03-29T11:58:45.017Z</time></trkpt><trkpt lat="39.4027833" lon="16.91379"><ele>141.2</ele><time>2026-03-29T11:58:46.017Z</time></trkpt><trkpt lat="39.402695" lon="16.913845"><ele>139.79999999999998</ele><time>2026-03-29T11:58:47.017Z</time></trkpt><trkpt lat="39.4026183" lon="16.9138983"><ele>138.4</ele><time>2026-03-29T11:58:48.017Z</time></trkpt><trkpt lat="39.4025533" lon="16.913945"><ele>137.0</ele><time>2026-03-29T11:58:49.017Z</time></trkpt><trkpt lat="39.4024767" lon="16.914025"><ele>137.0</ele><time>2026-03-29T11:58:51.017Z</time></trkpt><trkpt lat="39.4023967" lon="16.9140983"><ele>137.0</ele><time>2026-03-29T11:58:53.016Z</time></trkpt><trkpt lat="39.4023067" lon="16.914195"><ele>137.0</ele><time>2026-03-29T11:58:55.016Z</time></trkpt><trkpt lat="39.40222" lon="16.9142717"><ele>137.0</ele><time>2026-03-29T11:58:57.017Z</time></trkpt><trkpt lat="39.4021633" lon="16.914345"><ele>137.0</ele><time>2026-03-29T11:58:59.017Z</time></trkpt><trkpt lat="39.4020783" lon="16.9144183"><ele>136.33333333333331</ele><time>2026-03-29T11:59:01.017Z</time></trkpt><trkpt lat="39.4020233" lon="16.9144767"><ele>135.66666666666666</ele><time>2026-03-29T11:59:02.017Z</time></trkpt><trkpt lat="39.4019617" lon="16.91455"><ele>135.0</ele><time>2026-03-29T11:59:03.017Z</time></trkpt><trkpt lat="39.4018967" lon="16.9146333"><ele>134.33333333333334</ele><time>2026-03-29T11:59:04.016Z</time></trkpt><trkpt lat="39.4018233" lon="16.9147233"><ele>133.66666666666669</ele><time>2026-03-29T11:59:05.016Z</time></trkpt><trkpt lat="39.40176" lon="16.9148233"><ele>133.0</ele><time>2026-03-29T11:59:06.017Z</time></trkpt><trkpt lat="39.4017033" lon="16.914925"><ele>133.0</ele><time>2026-03-29T11:59:07.017Z</time></trkpt><trkpt lat="39.4016567" lon="16.9150417"><ele>133.0</ele><time>2026-03-29T11:59:08.017Z</time></trkpt><trkpt lat="39.40162" lon="16.9151517"><ele>133.0</ele><time>2026-03-29T11:59:09.017Z</time></trkpt><trkpt lat="39.4015867" lon="16.915275"><ele>133.0</ele><time>2026-03-29T11:59:10.016Z</time></trkpt><trkpt lat="39.40157" lon="16.915415"><ele>133.0</ele><time>2026-03-29T11:59:11.017Z</time></trkpt><trkpt lat="39.4015667" lon="16.9155617"><ele>132.6</ele><time>2026-03-29T11:59:12.016Z</time></trkpt><trkpt lat="39.4015617" lon="16.9157117"><ele>132.20000000000002</ele><time>2026-03-29T11:59:13.017Z</time></trkpt><trkpt lat="39.4015467" lon="16.9158517"><ele>131.8</ele><time>2026-03-29T11:59:14.017Z</time></trkpt><trkpt lat="39.4015267" lon="16.9159817"><ele>131.4</ele><time>2026-03-29T11:59:15.017Z</time></trkpt><trkpt lat="39.401505" lon="16.9160983"><ele>131.0</ele><time>2026-03-29T11:59:16.017Z</time></trkpt><trkpt lat="39.401475" lon="16.91619"><ele>131.0</ele><time>2026-03-29T11:59:17.017Z</time></trkpt><trkpt lat="39.4014483" lon="16.9162683"><ele>131.0</ele><time>2026-03-29T11:59:18.017Z</time></trkpt><trkpt lat="39.4014267" lon="16.916385"><ele>131.0</ele><time>2026-03-29T11:59:20.016Z</time></trkpt><trkpt lat="39.4014" lon="16.9164817"><ele>131.0</ele><time>2026-03-29T11:59:24.017Z</time></trkpt><trkpt lat="39.4014067" lon="16.9165983"><ele>131.0</ele><time>2026-03-29T11:59:26.017Z</time></trkpt><trkpt lat="39.4014433" lon="16.9167583"><ele>131.4</ele><time>2026-03-29T11:59:28.017Z</time></trkpt><trkpt lat="39.4014717" lon="16.9168317"><ele>131.8</ele><time>2026-03-29T11:59:29.017Z</time></trkpt><trkpt lat="39.4015267" lon="16.9169733"><ele>132.20000000000002</ele><time>2026-03-29T11:59:31.017Z</time></trkpt><trkpt lat="39.401565" lon="16.9171217"><ele>132.6</ele><time>2026-03-29T11:59:33.017Z</time></trkpt><trkpt lat="39.4015933" lon="16.9172183"><ele>133.0</ele><time>2026-03-29T11:59:34.017Z</time></trkpt><trkpt lat="39.401615" lon="16.91733"><ele>133.0</ele><time>2026-03-29T11:59:35.017Z</time></trkpt><trkpt lat="39.401645" lon="16.9174567"><ele>133.0</ele><time>2026-03-29T11:59:36.017Z</time></trkpt><trkpt lat="39.4016767" lon="16.917605"><ele>133.0</ele><time>2026-03-29T11:59:37.017Z</time></trkpt><trkpt lat="39.4017217" lon="16.9177683"><ele>133.0</ele><time>2026-03-29T11:59:38.017Z</time></trkpt><trkpt lat="39.40176" lon="16.917945"><ele>133.33333333333334</ele><time>2026-03-29T11:59:39.017Z</time></trkpt><trkpt lat="39.401815" lon="16.9181433"><ele>133.66666666666666</ele><time>2026-03-29T11:59:40.017Z</time></trkpt><trkpt lat="39.4018633" lon="16.9183533"><ele>134.0</ele><time>2026-03-29T11:59:41.017Z</time></trkpt><trkpt lat="39.4018917" lon="16.9185433"><ele>133.2</ele><time>2026-03-29T11:59:42.017Z</time></trkpt><trkpt lat="39.4019133" lon="16.9186983"><ele>132.4</ele><time>2026-03-29T11:59:43.017Z</time></trkpt><trkpt lat="39.4019067" lon="16.9188367"><ele>131.6</ele><time>2026-03-29T11:59:44.016Z</time></trkpt><trkpt lat="39.4019033" lon="16.9189683"><ele>130.8</ele><time>2026-03-29T11:59:45.017Z</time></trkpt><trkpt lat="39.401885" lon="16.9191"><ele>130.0</ele><time>2026-03-29T11:59:46.017Z</time></trkpt><trkpt lat="39.40186" lon="16.9192433"><ele>129.4</ele><time>2026-03-29T11:59:47.017Z</time></trkpt><trkpt lat="39.4018317" lon="16.9193817"><ele>128.8</ele><time>2026-03-29T11:59:48.017Z</time></trkpt><trkpt lat="39.401785" lon="16.9195017"><ele>128.2</ele><time>2026-03-29T11:59:49.017Z</time></trkpt><trkpt lat="39.4017383" lon="16.919625"><ele>127.6</ele><time>2026-03-29T11:59:50.017Z</time></trkpt><trkpt lat="39.4016833" lon="16.9197467"><ele>127.0</ele><time>2026-03-29T11:59:51.016Z</time></trkpt><trkpt lat="39.401625" lon="16.91988"><ele>127.0</ele><time>2026-03-29T11:59:52.016Z</time></trkpt><trkpt lat="39.4015683" lon="16.9200033"><ele>126.99999999999999</ele><time>2026-03-29T11:59:53.017Z</time></trkpt><trkpt lat="39.4015433" lon="16.9201317"><ele>126.99999999999999</ele><time>2026-03-29T11:59:54.017Z</time></trkpt><trkpt lat="39.40154" lon="16.920255"><ele>127.0</ele><time>2026-03-29T11:59:55.017Z</time></trkpt><trkpt lat="39.4015517" lon="16.9203783"><ele>127.0</ele><time>2026-03-29T11:59:56.017Z</time></trkpt><trkpt lat="39.4015833" lon="16.9205"><ele>126.0</ele><time>2026-03-29T11:59:57.017Z</time></trkpt><trkpt lat="39.4016167" lon="16.9206333"><ele>124.99999999999999</ele><time>2026-03-29T11:59:58.017Z</time></trkpt><trkpt lat="39.4016383" lon="16.9207767"><ele>123.99999999999999</ele><time>2026-03-29T11:59:59.017Z</time></trkpt><trkpt lat="39.4016483" lon="16.9209017"><ele>123.0</ele><time>2026-03-29T12:00:00.017Z</time></trkpt><trkpt lat="39.401665" lon="16.9210217"><ele>122.0</ele><time>2026-03-29T12:00:01.017Z</time></trkpt><trkpt lat="39.401685" lon="16.9211267"><ele>121.33333333333333</ele><time>2026-03-29T12:00:02.017Z</time></trkpt><trkpt lat="39.4017133" lon="16.921205"><ele>120.66666666666666</ele><time>2026-03-29T12:00:03.017Z</time></trkpt><trkpt lat="39.4017717" lon="16.9212533"><ele>120.0</ele><time>2026-03-29T12:00:04.016Z</time></trkpt><trkpt lat="39.4018567" lon="16.9212967"><ele>119.33333333333334</ele><time>2026-03-29T12:00:05.016Z</time></trkpt><trkpt lat="39.4019533" lon="16.921345"><ele>118.66666666666667</ele><time>2026-03-29T12:00:06.016Z</time></trkpt><trkpt lat="39.4020383" lon="16.9214033"><ele>118.0</ele><time>2026-03-29T12:00:07.017Z</time></trkpt><trkpt lat="39.4021183" lon="16.921465"><ele>118.0</ele><time>2026-03-29T12:00:08.017Z</time></trkpt><trkpt lat="39.4021767" lon="16.921525"><ele>118.00000000000001</ele><time>2026-03-29T12:00:09.017Z</time></trkpt><trkpt lat="39.4022483" lon="16.9215917"><ele>118.00000000000001</ele><time>2026-03-29T12:00:11.017Z</time></trkpt><trkpt lat="39.4023117" lon="16.9216733"><ele>118.0</ele><time>2026-03-29T12:00:14.017Z</time></trkpt><trkpt lat="39.4023733" lon="16.921755"><ele>118.0</ele><time>2026-03-29T12:00:16.017Z</time></trkpt><trkpt lat="39.402435" lon="16.9218833"><ele>118.0</ele><time>2026-03-29T12:00:18.016Z</time></trkpt><trkpt lat="39.4024333" lon="16.9220233"><ele>118.00000000000001</ele><time>2026-03-29T12:00:20.017Z</time></trkpt><trkpt lat="39.4024767" lon="16.9221383"><ele>118.00000000000001</ele><time>2026-03-29T12:00:22.017Z</time></trkpt><trkpt lat="39.4025833" lon="16.9222417"><ele>118.0</ele><time>2026-03-29T12:00:24.017Z</time></trkpt><trkpt lat="39.4026417" lon="16.9223083"><ele>118.0</ele><time>2026-03-29T12:00:25.016Z</time></trkpt><trkpt lat="39.4027" lon="16.9223917"><ele>118.0</ele><time>2026-03-29T12:00:26.017Z</time></trkpt><trkpt lat="39.4027583" lon="16.9224717"><ele>118.00000000000001</ele><time>2026-03-29T12:00:27.017Z</time></trkpt><trkpt lat="39.4028233" lon="16.92256"><ele>118.00000000000001</ele><time>2026-03-29T12:00:28.016Z</time></trkpt><trkpt lat="39.4028983" lon="16.92265"><ele>118.0</ele><time>2026-03-29T12:00:29.017Z</time></trkpt><trkpt lat="39.4029883" lon="16.92274"><ele>118.0</ele><time>2026-03-29T12:00:30.017Z</time></trkpt><trkpt lat="39.4030883" lon="16.9228083"><ele>117.80000000000001</ele><time>2026-03-29T12:00:31.017Z</time></trkpt><trkpt lat="39.403195" lon="16.9228617"><ele>117.60000000000001</ele><time>2026-03-29T12:00:32.017Z</time></trkpt><trkpt lat="39.4032817" lon="16.922935"><ele>117.39999999999999</ele><time>2026-03-29T12:00:33.017Z</time></trkpt><trkpt lat="39.4033567" lon="16.923"><ele>117.19999999999999</ele><time>2026-03-29T12:00:34.017Z</time></trkpt><trkpt lat="39.403425" lon="16.9230717"><ele>117.0</ele><time>2026-03-29T12:00:35.017Z</time></trkpt><trkpt lat="39.403485" lon="16.923155"><ele>117.0</ele><time>2026-03-29T12:00:36.017Z</time></trkpt><trkpt lat="39.4035117" lon="16.9232367"><ele>117.0</ele><time>2026-03-29T12:00:37.016Z</time></trkpt><trkpt lat="39.4035367" lon="16.9233217"><ele>117.0</ele><time>2026-03-29T12:00:38.017Z</time></trkpt><trkpt lat="39.4035333" lon="16.9234117"><ele>117.0</ele><time>2026-03-29T12:00:39.017Z</time></trkpt><trkpt lat="39.40353" lon="16.9234967"><ele>117.0</ele><time>2026-03-29T12:00:40.017Z</time></trkpt><trkpt lat="39.4035383" lon="16.92364"><ele>117.0</ele><time>2026-03-29T12:00:42.017Z</time></trkpt><trkpt lat="39.4035233" lon="16.92375"><ele>118.0</ele><time>2026-03-29T12:00:44.017Z</time></trkpt><trkpt lat="39.4034633" lon="16.9238667"><ele>118.99999999999999</ele><time>2026-03-29T12:00:46.017Z</time></trkpt><trkpt lat="39.403405" lon="16.9239317"><ele>119.99999999999999</ele><time>2026-03-29T12:00:47.017Z</time></trkpt><trkpt lat="39.403335" lon="16.9240117"><ele>121.0</ele><time>2026-03-29T12:00:48.017Z</time></trkpt><trkpt lat="39.403245" lon="16.924115"><ele>122.0</ele><time>2026-03-29T12:00:49.016Z</time></trkpt><trkpt lat="39.4031583" lon="16.9242333"><ele>124.25</ele><time>2026-03-29T12:00:50.016Z</time></trkpt><trkpt lat="39.4030683" lon="16.9243783"><ele>126.5</ele><time>2026-03-29T12:00:51.016Z</time></trkpt><trkpt lat="39.4029783" lon="16.92453"><ele>128.75</ele><time>2026-03-29T12:00:52.017Z</time></trkpt><trkpt lat="39.4029067" lon="16.92467"><ele>131.0</ele><time>2026-03-29T12:00:53.017Z</time></trkpt><trkpt lat="39.4028633" lon="16.924775"><ele>131.0</ele><time>2026-03-29T12:00:54.017Z</time></trkpt><trkpt lat="39.4028333" lon="16.9248533"><ele>131.0</ele><time>2026-03-29T12:00:55.017Z</time></trkpt><trkpt lat="39.4028167" lon="16.9249467"><ele>131.0</ele><time>2026-03-29T12:00:57.017Z</time></trkpt><trkpt lat="39.4029017" lon="16.9249617"><ele>131.0</ele><time>2026-03-29T12:01:01.017Z</time></trkpt><trkpt lat="39.402955" lon="16.9249083"><ele>131.0</ele><time>2026-03-29T12:01:02.017Z</time></trkpt><trkpt lat="39.403035" lon="16.9248067"><ele>131.0</ele><time>2026-03-29T12:01:03.017Z</time></trkpt><trkpt lat="39.4031267" lon="16.9246767"><ele>128.75</ele><time>2026-03-29T12:01:04.016Z</time></trkpt><trkpt lat="39.4032067" lon="16.9245433"><ele>126.5</ele><time>2026-03-29T12:01:05.017Z</time></trkpt><trkpt lat="39.4032883" lon="16.9244233"><ele>124.25</ele><time>2026-03-29T12:01:06.017Z</time></trkpt><trkpt lat="39.4033633" lon="16.9243083"><ele>122.0</ele><time>2026-03-29T12:01:07.017Z</time></trkpt><trkpt lat="39.4034267" lon="16.9242083"><ele>122.0</ele><time>2026-03-29T12:01:08.017Z</time></trkpt><trkpt lat="39.40348" lon="16.9241017"><ele>121.99999999999999</ele><time>2026-03-29T12:01:09.017Z</time></trkpt><trkpt lat="39.4035367" lon="16.9240033"><ele>121.99999999999999</ele><time>2026-03-29T12:01:10.017Z</time></trkpt><trkpt lat="39.40361" lon="16.923905"><ele>122.0</ele><time>2026-03-29T12:01:11.017Z</time></trkpt><trkpt lat="39.40369" lon="16.92382"><ele>122.0</ele><time>2026-03-29T12:01:12.017Z</time></trkpt><trkpt lat="39.4037867" lon="16.9237383"><ele>122.75</ele><time>2026-03-29T12:01:13.017Z</time></trkpt><trkpt lat="39.4038883" lon="16.92366"><ele>123.5</ele><time>2026-03-29T12:01:14.017Z</time></trkpt><trkpt lat="39.4039833" lon="16.9235767"><ele>124.25</ele><time>2026-03-29T12:01:15.017Z</time></trkpt><trkpt lat="39.4040917" lon="16.923485"><ele>125.0</ele><time>2026-03-29T12:01:16.017Z</time></trkpt><trkpt lat="39.4041967" lon="16.9233783"><ele>125.0</ele><time>2026-03-29T12:01:17.017Z</time></trkpt><trkpt lat="39.4042983" lon="16.9232883"><ele>125.0</ele><time>2026-03-29T12:01:18.017Z</time></trkpt><trkpt lat="39.4043933" lon="16.9231933"><ele>125.0</ele><time>2026-03-29T12:01:19.017Z</time></trkpt><trkpt lat="39.4044917" lon="16.92309"><ele>125.0</ele><time>2026-03-29T12:01:20.017Z</time></trkpt><trkpt lat="39.40459" lon="16.9230067"><ele>128.0</ele><time>2026-03-29T12:01:21.017Z</time></trkpt><trkpt lat="39.40468" lon="16.922945"><ele>131.0</ele><time>2026-03-29T12:01:22.017Z</time></trkpt><trkpt lat="39.4047633" lon="16.9229117"><ele>134.0</ele><time>2026-03-29T12:01:23.017Z</time></trkpt><trkpt lat="39.4048467" lon="16.9229083"><ele>137.0</ele><time>2026-03-29T12:01:24.017Z</time></trkpt><trkpt lat="39.40493" lon="16.9229417"><ele>140.0</ele><time>2026-03-29T12:01:25.016Z</time></trkpt><trkpt lat="39.405005" lon="16.9230317"><ele>140.0</ele><time>2026-03-29T12:01:26.017Z</time></trkpt><trkpt lat="39.405055" lon="16.9231433"><ele>140.0</ele><time>2026-03-29T12:01:27.017Z</time></trkpt><trkpt lat="39.4050867" lon="16.9232867"><ele>140.0</ele><time>2026-03-29T12:01:28.016Z</time></trkpt><trkpt lat="39.4051333" lon="16.9234517"><ele>140.0</ele><time>2026-03-29T12:01:29.017Z</time></trkpt><trkpt lat="39.4052017" lon="16.9236133"><ele>141.5</ele><time>2026-03-29T12:01:30.017Z</time></trkpt><trkpt lat="39.40528" lon="16.9237417"><ele>143.0</ele><time>2026-03-29T12:01:31.016Z</time></trkpt><trkpt lat="39.4053583" lon="16.9238383"><ele>144.5</ele><time>2026-03-29T12:01:32.017Z</time></trkpt><trkpt lat="39.4054683" lon="16.92391"><ele>146.0</ele><time>2026-03-29T12:01:33.017Z</time></trkpt><trkpt lat="39.4055883" lon="16.923965"><ele>146.0</ele><time>2026-03-29T12:01:34.017Z</time></trkpt><trkpt lat="39.4057083" lon="16.9240383"><ele>146.0</ele><time>2026-03-29T12:01:35.017Z</time></trkpt><trkpt lat="39.40584" lon="16.9240967"><ele>146.0</ele><time>2026-03-29T12:01:36.017Z</time></trkpt><trkpt lat="39.405965" lon="16.9241817"><ele>146.0</ele><time>2026-03-29T12:01:37.017Z</time></trkpt><trkpt lat="39.4060767" lon="16.9242583"><ele>144.75</ele><time>2026-03-29T12:01:38.017Z</time></trkpt><trkpt lat="39.4061833" lon="16.924325"><ele>143.5</ele><time>2026-03-29T12:01:39.017Z</time></trkpt><trkpt lat="39.406305" lon="16.9243717"><ele>142.25</ele><time>2026-03-29T12:01:40.017Z</time></trkpt><trkpt lat="39.4064283" lon="16.9244083"><ele>141.0</ele><time>2026-03-29T12:01:41.017Z</time></trkpt><trkpt lat="39.40654" lon="16.924425"><ele>139.6</ele><time>2026-03-29T12:01:42.016Z</time></trkpt><trkpt lat="39.40666" lon="16.9244267"><ele>138.2</ele><time>2026-03-29T12:01:43.016Z</time></trkpt><trkpt lat="39.4067617" lon="16.9244283"><ele>136.8</ele><time>2026-03-29T12:01:44.016Z</time></trkpt><trkpt lat="39.4068717" lon="16.9244367"><ele>135.4</ele><time>2026-03-29T12:01:45.017Z</time></trkpt><trkpt lat="39.4069683" lon="16.92445"><ele>134.0</ele><time>2026-03-29T12:01:46.017Z</time></trkpt><trkpt lat="39.40705" lon="16.9244683"><ele>134.0</ele><time>2026-03-29T12:01:47.017Z</time></trkpt><trkpt lat="39.4071233" lon="16.92451"><ele>134.0</ele><time>2026-03-29T12:01:48.016Z</time></trkpt><trkpt lat="39.40719" lon="16.9245517"><ele>134.0</ele><time>2026-03-29T12:01:49.017Z</time></trkpt><trkpt lat="39.4072417" lon="16.9246"><ele>134.0</ele><time>2026-03-29T12:01:50.017Z</time></trkpt><trkpt lat="39.407295" lon="16.9246533"><ele>134.0</ele><time>2026-03-29T12:01:51.017Z</time></trkpt><trkpt lat="39.4073517" lon="16.9247217"><ele>134.0</ele><time>2026-03-29T12:01:52.017Z</time></trkpt><trkpt lat="39.407415" lon="16.9247967"><ele>134.0</ele><time>2026-03-29T12:01:53.016Z</time></trkpt><trkpt lat="39.4074817" lon="16.9248867"><ele>134.8</ele><time>2026-03-29T12:01:54.017Z</time></trkpt><trkpt lat="39.4075283" lon="16.9249867"><ele>135.60000000000002</ele><time>2026-03-29T12:01:55.017Z</time></trkpt><trkpt lat="39.40757" lon="16.925085"><ele>136.4</ele><time>2026-03-29T12:01:56.017Z</time></trkpt><trkpt lat="39.4075933" lon="16.9251883"><ele>137.20000000000002</ele><time>2026-03-29T12:01:57.017Z</time></trkpt><trkpt lat="39.4076117" lon="16.9253033"><ele>138.0</ele><time>2026-03-29T12:01:58.017Z</time></trkpt><trkpt lat="39.407635" lon="16.9254317"><ele>138.0</ele><time>2026-03-29T12:01:59.017Z</time></trkpt><trkpt lat="39.4076467" lon="16.92559"><ele>138.0</ele><time>2026-03-29T12:02:00.017Z</time></trkpt><trkpt lat="39.407675" lon="16.9257583"><ele>138.0</ele><time>2026-03-29T12:02:01.017Z</time></trkpt><trkpt lat="39.407725" lon="16.9259433"><ele>138.0</ele><time>2026-03-29T12:02:02.017Z</time></trkpt><trkpt lat="39.4077833" lon="16.9261283"><ele>136.5</ele><time>2026-03-29T12:02:03.017Z</time></trkpt><trkpt lat="39.4078567" lon="16.926295"><ele>135.0</ele><time>2026-03-29T12:02:04.016Z</time></trkpt><trkpt lat="39.4079283" lon="16.9264467"><ele>133.5</ele><time>2026-03-29T12:02:05.017Z</time></trkpt><trkpt lat="39.4079933" lon="16.9265933"><ele>132.0</ele><time>2026-03-29T12:02:06.017Z</time></trkpt><trkpt lat="39.408035" lon="16.92676"><ele>136.25</ele><time>2026-03-29T12:02:07.016Z</time></trkpt><trkpt lat="39.40805" lon="16.9269417"><ele>140.5</ele><time>2026-03-29T12:02:08.016Z</time></trkpt><trkpt lat="39.4080483" lon="16.9271183"><ele>144.75</ele><time>2026-03-29T12:02:09.017Z</time></trkpt><trkpt lat="39.4080383" lon="16.9272967"><ele>149.0</ele><time>2026-03-29T12:02:10.017Z</time></trkpt><trkpt lat="39.4080333" lon="16.927455"><ele>144.75</ele><time>2026-03-29T12:02:11.017Z</time></trkpt><trkpt lat="39.4080267" lon="16.9276083"><ele>140.5</ele><time>2026-03-29T12:02:12.017Z</time></trkpt><trkpt lat="39.4080367" lon="16.9277583"><ele>136.25</ele><time>2026-03-29T12:02:13.017Z</time></trkpt><trkpt lat="39.4080533" lon="16.9278983"><ele>132.0</ele><time>2026-03-29T12:02:14.017Z</time></trkpt><trkpt lat="39.4080917" lon="16.9280367"><ele>132.0</ele><time>2026-03-29T12:02:15.017Z</time></trkpt><trkpt lat="39.40815" lon="16.9281667"><ele>132.0</ele><time>2026-03-29T12:02:16.017Z</time></trkpt><trkpt lat="39.4082383" lon="16.928275"><ele>132.0</ele><time>2026-03-29T12:02:17.017Z</time></trkpt><trkpt lat="39.4083433" lon="16.9283533"><ele>132.0</ele><time>2026-03-29T12:02:18.016Z</time></trkpt><trkpt lat="39.4084567" lon="16.9283917"><ele>128.5</ele><time>2026-03-29T12:02:19.017Z</time></trkpt><trkpt lat="39.4085817" lon="16.9284033"><ele>125.0</ele><time>2026-03-29T12:02:20.017Z</time></trkpt><trkpt lat="39.4087183" lon="16.92841"><ele>121.5</ele><time>2026-03-29T12:02:21.016Z</time></trkpt><trkpt lat="39.4088567" lon="16.9284133"><ele>118.0</ele><time>2026-03-29T12:02:22.017Z</time></trkpt><trkpt lat="39.408995" lon="16.9284317"><ele>117.60000000000001</ele><time>2026-03-29T12:02:23.017Z</time></trkpt><trkpt lat="39.4091217" lon="16.9284517"><ele>117.20000000000002</ele><time>2026-03-29T12:02:24.017Z</time></trkpt><trkpt lat="39.4092283" lon="16.92847"><ele>116.8</ele><time>2026-03-29T12:02:25.017Z</time></trkpt><trkpt lat="39.40931" lon="16.9285017"><ele>116.4</ele><time>2026-03-29T12:02:26.016Z</time></trkpt><trkpt lat="39.4093833" lon="16.9285433"><ele>116.0</ele><time>2026-03-29T12:02:27.017Z</time></trkpt><trkpt lat="39.40944" lon="16.9286017"><ele>116.00000000000001</ele><time>2026-03-29T12:02:28.017Z</time></trkpt><trkpt lat="39.4094783" lon="16.9286867"><ele>116.0</ele><time>2026-03-29T12:02:29.017Z</time></trkpt><trkpt lat="39.4094933" lon="16.9287733"><ele>116.00000000000001</ele><time>2026-03-29T12:02:30.017Z</time></trkpt><trkpt lat="39.4095033" lon="16.928855"><ele>116.00000000000001</ele><time>2026-03-29T12:02:31.016Z</time></trkpt><trkpt lat="39.4095183" lon="16.9289367"><ele>116.0</ele><time>2026-03-29T12:02:32.017Z</time></trkpt><trkpt lat="39.4095383" lon="16.9290267"><ele>116.00000000000001</ele><time>2026-03-29T12:02:33.017Z</time></trkpt><trkpt lat="39.40956" lon="16.9291217"><ele>116.00000000000001</ele><time>2026-03-29T12:02:34.017Z</time></trkpt><trkpt lat="39.40958" lon="16.9292217"><ele>117.00000000000001</ele><time>2026-03-29T12:02:35.017Z</time></trkpt><trkpt lat="39.4095967" lon="16.9293133"><ele>118.0</ele><time>2026-03-29T12:02:36.017Z</time></trkpt><trkpt lat="39.409615" lon="16.9294083"><ele>119.00000000000001</ele><time>2026-03-29T12:02:37.017Z</time></trkpt><trkpt lat="39.4096267" lon="16.9295017"><ele>120.00000000000001</ele><time>2026-03-29T12:02:38.017Z</time></trkpt><trkpt lat="39.4096417" lon="16.9295967"><ele>121.0</ele><time>2026-03-29T12:02:39.017Z</time></trkpt><trkpt lat="39.409655" lon="16.9296867"><ele>122.00000000000001</ele><time>2026-03-29T12:02:40.017Z</time></trkpt><trkpt lat="39.40967" lon="16.92978"><ele>123.00000000000001</ele><time>2026-03-29T12:02:41.016Z</time></trkpt><trkpt lat="39.4097" lon="16.9299333"><ele>120.85714285714288</ele><time>2026-03-29T12:02:43.017Z</time></trkpt><trkpt lat="39.4097333" lon="16.930085"><ele>118.71428571428572</ele><time>2026-03-29T12:02:45.017Z</time></trkpt><trkpt lat="39.409755" lon="16.9301617"><ele>116.57142857142858</ele><time>2026-03-29T12:02:46.017Z</time></trkpt><trkpt lat="39.4097833" lon="16.9302367"><ele>114.42857142857144</ele><time>2026-03-29T12:02:47.017Z</time></trkpt><trkpt lat="39.409825" lon="16.9303"><ele>112.28571428571428</ele><time>2026-03-29T12:02:48.017Z</time></trkpt><trkpt lat="39.4098717" lon="16.9303633"><ele>110.14285714285714</ele><time>2026-03-29T12:02:49.017Z</time></trkpt><trkpt lat="39.4099233" lon="16.93042"><ele>108.0</ele><time>2026-03-29T12:02:50.017Z</time></trkpt><trkpt lat="39.40999" lon="16.9304733"><ele>108.0</ele><time>2026-03-29T12:02:51.016Z</time></trkpt><trkpt lat="39.41007" lon="16.9305017"><ele>108.00000000000001</ele><time>2026-03-29T12:02:52.017Z</time></trkpt><trkpt lat="39.41016" lon="16.9305183"><ele>108.00000000000001</ele><time>2026-03-29T12:02:53.017Z</time></trkpt><trkpt lat="39.4102483" lon="16.93053"><ele>108.0</ele><time>2026-03-29T12:02:54.016Z</time></trkpt><trkpt lat="39.41036" lon="16.93053"><ele>108.0</ele><time>2026-03-29T12:02:55.016Z</time></trkpt><trkpt lat="39.4104867" lon="16.9305267"><ele>107.0</ele><time>2026-03-29T12:02:56.017Z</time></trkpt><trkpt lat="39.4106167" lon="16.9305167"><ele>106.0</ele><time>2026-03-29T12:02:57.017Z</time></trkpt><trkpt lat="39.4107483" lon="16.9305117"><ele>105.0</ele><time>2026-03-29T12:02:58.017Z</time></trkpt><trkpt lat="39.4108717" lon="16.9305217"><ele>104.0</ele><time>2026-03-29T12:02:59.017Z</time></trkpt><trkpt lat="39.4109883" lon="16.9305417"><ele>103.99999999999999</ele><time>2026-03-29T12:03:00.017Z</time></trkpt><trkpt lat="39.41109" lon="16.930555"><ele>104.0</ele><time>2026-03-29T12:03:01.016Z</time></trkpt><trkpt lat="39.4111767" lon="16.9305567"><ele>104.0</ele><time>2026-03-29T12:03:02.017Z</time></trkpt><trkpt lat="39.411255" lon="16.93056"><ele>104.0</ele><time>2026-03-29T12:03:03.017Z</time></trkpt><trkpt lat="39.4113317" lon="16.93056"><ele>103.99999999999999</ele><time>2026-03-29T12:03:04.017Z</time></trkpt><trkpt lat="39.4114167" lon="16.9305517"><ele>104.0</ele><time>2026-03-29T12:03:05.017Z</time></trkpt><trkpt lat="39.4115" lon="16.9305333"><ele>103.49999999999999</ele><time>2026-03-29T12:03:06.017Z</time></trkpt><trkpt lat="39.4115717" lon="16.9305117"><ele>103.0</ele><time>2026-03-29T12:03:07.017Z</time></trkpt><trkpt lat="39.41165" lon="16.9304817"><ele>102.5</ele><time>2026-03-29T12:03:08.016Z</time></trkpt><trkpt lat="39.4117267" lon="16.9304583"><ele>102.0</ele><time>2026-03-29T12:03:09.017Z</time></trkpt><trkpt lat="39.4118067" lon="16.9304267"><ele>101.49999999999999</ele><time>2026-03-29T12:03:10.017Z</time></trkpt><trkpt lat="39.411895" lon="16.9303983"><ele>101.0</ele><time>2026-03-29T12:03:11.017Z</time></trkpt><trkpt lat="39.411985" lon="16.9303617"><ele>101.0</ele><time>2026-03-29T12:03:12.017Z</time></trkpt><trkpt lat="39.4120783" lon="16.9303167"><ele>101.0</ele><time>2026-03-29T12:03:13.017Z</time></trkpt><trkpt lat="39.4121733" lon="16.93027"><ele>101.0</ele><time>2026-03-29T12:03:14.017Z</time></trkpt><trkpt lat="39.4122783" lon="16.9302217"><ele>101.0</ele><time>2026-03-29T12:03:15.017Z</time></trkpt><trkpt lat="39.412375" lon="16.93017"><ele>101.0</ele><time>2026-03-29T12:03:16.017Z</time></trkpt><trkpt lat="39.4124733" lon="16.9301167"><ele>100.6</ele><time>2026-03-29T12:03:17.017Z</time></trkpt><trkpt lat="39.4125583" lon="16.9300767"><ele>100.19999999999999</ele><time>2026-03-29T12:03:18.017Z</time></trkpt><trkpt lat="39.4126533" lon="16.9300383"><ele>99.80000000000001</ele><time>2026-03-29T12:03:19.017Z</time></trkpt><trkpt lat="39.4127567" lon="16.93002"><ele>99.4</ele><time>2026-03-29T12:03:20.017Z</time></trkpt><trkpt lat="39.4128667" lon="16.9299967"><ele>99.0</ele><time>2026-03-29T12:03:21.016Z</time></trkpt><trkpt lat="39.4129733" lon="16.9299767"><ele>99.80000000000001</ele><time>2026-03-29T12:03:22.017Z</time></trkpt><trkpt lat="39.4130817" lon="16.9299533"><ele>100.60000000000001</ele><time>2026-03-29T12:03:23.017Z</time></trkpt><trkpt lat="39.4131867" lon="16.92994"><ele>101.4</ele><time>2026-03-29T12:03:24.017Z</time></trkpt><trkpt lat="39.4132917" lon="16.9299333"><ele>102.2</ele><time>2026-03-29T12:03:25.017Z</time></trkpt><trkpt lat="39.4134033" lon="16.9299367"><ele>103.0</ele><time>2026-03-29T12:03:26.017Z</time></trkpt><trkpt lat="39.413525" lon="16.9299433"><ele>103.0</ele><time>2026-03-29T12:03:27.017Z</time></trkpt><trkpt lat="39.41365" lon="16.929945"><ele>103.0</ele><time>2026-03-29T12:03:28.016Z</time></trkpt><trkpt lat="39.4137767" lon="16.929955"><ele>103.0</ele><time>2026-03-29T12:03:29.017Z</time></trkpt><trkpt lat="39.4138967" lon="16.9299783"><ele>103.0</ele><time>2026-03-29T12:03:30.017Z</time></trkpt><trkpt lat="39.4140167" lon="16.930025"><ele>101.5</ele><time>2026-03-29T12:03:31.017Z</time></trkpt><trkpt lat="39.4141283" lon="16.9300933"><ele>100.0</ele><time>2026-03-29T12:03:32.017Z</time></trkpt><trkpt lat="39.4142267" lon="16.9301917"><ele>98.5</ele><time>2026-03-29T12:03:33.017Z</time></trkpt><trkpt lat="39.414315" lon="16.9303017"><ele>97.0</ele><time>2026-03-29T12:03:34.017Z</time></trkpt><trkpt lat="39.41438" lon="16.930405"><ele>97.0</ele><time>2026-03-29T12:03:35.017Z</time></trkpt><trkpt lat="39.414445" lon="16.930505"><ele>97.0</ele><time>2026-03-29T12:03:36.017Z</time></trkpt><trkpt lat="39.4144933" lon="16.9306083"><ele>97.0</ele><time>2026-03-29T12:03:37.017Z</time></trkpt><trkpt lat="39.414545" lon="16.93071"><ele>97.0</ele><time>2026-03-29T12:03:38.016Z</time></trkpt><trkpt lat="39.414585" lon="16.9308133"><ele>97.0</ele><time>2026-03-29T12:03:39.017Z</time></trkpt><trkpt lat="39.4146267" lon="16.93092"><ele>96.16666666666667</ele><time>2026-03-29T12:03:40.017Z</time></trkpt><trkpt lat="39.4146717" lon="16.9310233"><ele>95.33333333333334</ele><time>2026-03-29T12:03:41.017Z</time></trkpt><trkpt lat="39.4147233" lon="16.9311167"><ele>94.5</ele><time>2026-03-29T12:03:42.017Z</time></trkpt><trkpt lat="39.4147617" lon="16.931205"><ele>93.66666666666667</ele><time>2026-03-29T12:03:43.017Z</time></trkpt><trkpt lat="39.4147967" lon="16.931285"><ele>92.83333333333334</ele><time>2026-03-29T12:03:44.017Z</time></trkpt><trkpt lat="39.4148333" lon="16.9313533"><ele>92.0</ele><time>2026-03-29T12:03:45.017Z</time></trkpt><trkpt lat="39.4149383" lon="16.9314617"><ele>92.0</ele><time>2026-03-29T12:03:47.017Z</time></trkpt><trkpt lat="39.4150033" lon="16.9315217"><ele>92.0</ele><time>2026-03-29T12:03:48.016Z</time></trkpt><trkpt lat="39.41509" lon="16.93158"><ele>92.0</ele><time>2026-03-29T12:03:49.016Z</time></trkpt><trkpt lat="39.41519" lon="16.9316433"><ele>92.0</ele><time>2026-03-29T12:03:50.017Z</time></trkpt><trkpt lat="39.4153117" lon="16.9317033"><ele>92.0</ele><time>2026-03-29T12:03:51.017Z</time></trkpt><trkpt lat="39.415435" lon="16.93177"><ele>91.39999999999999</ele><time>2026-03-29T12:03:52.016Z</time></trkpt><trkpt lat="39.4155533" lon="16.9318333"><ele>90.8</ele><time>2026-03-29T12:03:53.017Z</time></trkpt><trkpt lat="39.415655" lon="16.9318933"><ele>90.2</ele><time>2026-03-29T12:03:54.017Z</time></trkpt><trkpt lat="39.41574" lon="16.931945"><ele>89.6</ele><time>2026-03-29T12:03:55.017Z</time></trkpt><trkpt lat="39.41581" lon="16.9319917"><ele>89.0</ele><time>2026-03-29T12:03:56.017Z</time></trkpt><trkpt lat="39.4158683" lon="16.9320283"><ele>89.0</ele><time>2026-03-29T12:03:57.017Z</time></trkpt><trkpt lat="39.415955" lon="16.932085"><ele>89.0</ele><time>2026-03-29T12:03:59.016Z</time></trkpt><trkpt lat="39.4160683" lon="16.9321333"><ele>89.0</ele><time>2026-03-29T12:04:01.017Z</time></trkpt><trkpt lat="39.4161317" lon="16.9321667"><ele>89.0</ele><time>2026-03-29T12:04:02.017Z</time></trkpt><trkpt lat="39.416205" lon="16.9321983"><ele>89.0</ele><time>2026-03-29T12:04:03.017Z</time></trkpt><trkpt lat="39.4162767" lon="16.93223"><ele>89.0</ele><time>2026-03-29T12:04:04.017Z</time></trkpt><trkpt lat="39.4163483" lon="16.93227"><ele>89.0</ele><time>2026-03-29T12:04:05.017Z</time></trkpt><trkpt lat="39.4164233" lon="16.9323217"><ele>89.0</ele><time>2026-03-29T12:04:06.017Z</time></trkpt><trkpt lat="39.4165017" lon="16.932375"><ele>89.0</ele><time>2026-03-29T12:04:07.017Z</time></trkpt><trkpt lat="39.4165983" lon="16.9324333"><ele>89.0</ele><time>2026-03-29T12:04:08.017Z</time></trkpt><trkpt lat="39.416705" lon="16.9325017"><ele>89.0</ele><time>2026-03-29T12:04:09.017Z</time></trkpt><trkpt lat="39.4168117" lon="16.9325617"><ele>89.0</ele><time>2026-03-29T12:04:10.017Z</time></trkpt><trkpt lat="39.41692" lon="16.93262"><ele>89.0</ele><time>2026-03-29T12:04:11.017Z</time></trkpt><trkpt lat="39.4170233" lon="16.9326817"><ele>89.0</ele><time>2026-03-29T12:04:12.016Z</time></trkpt><trkpt lat="39.417125" lon="16.9327267"><ele>89.0</ele><time>2026-03-29T12:04:13.017Z</time></trkpt><trkpt lat="39.41723" lon="16.9327883"><ele>89.25</ele><time>2026-03-29T12:04:14.016Z</time></trkpt><trkpt lat="39.4173483" lon="16.9328533"><ele>89.5</ele><time>2026-03-29T12:04:15.017Z</time></trkpt><trkpt lat="39.4174733" lon="16.93292"><ele>89.75</ele><time>2026-03-29T12:04:16.017Z</time></trkpt><trkpt lat="39.4175983" lon="16.9329933"><ele>90.0</ele><time>2026-03-29T12:04:17.017Z</time></trkpt><trkpt lat="39.4177133" lon="16.9330583"><ele>90.0</ele><time>2026-03-29T12:04:18.017Z</time></trkpt><trkpt lat="39.4178233" lon="16.9331133"><ele>90.0</ele><time>2026-03-29T12:04:19.017Z</time></trkpt><trkpt lat="39.417915" lon="16.9331833"><ele>90.0</ele><time>2026-03-29T12:04:20.017Z</time></trkpt><trkpt lat="39.4179983" lon="16.9332383"><ele>90.0</ele><time>2026-03-29T12:04:21.017Z</time></trkpt><trkpt lat="39.4180733" lon="16.9332867"><ele>90.0</ele><time>2026-03-29T12:04:22.017Z</time></trkpt><trkpt lat="39.4181467" lon="16.9333467"><ele>89.25</ele><time>2026-03-29T12:04:23.017Z</time></trkpt><trkpt lat="39.4182283" lon="16.9334183"><ele>88.5</ele><time>2026-03-29T12:04:24.017Z</time></trkpt><trkpt lat="39.41832" lon="16.93351"><ele>87.75</ele><time>2026-03-29T12:04:25.017Z</time></trkpt><trkpt lat="39.4184183" lon="16.9336033"><ele>87.0</ele><time>2026-03-29T12:04:26.016Z</time></trkpt><trkpt lat="39.4185283" lon="16.9337167"><ele>87.0</ele><time>2026-03-29T12:04:27.017Z</time></trkpt><trkpt lat="39.41864" lon="16.9338383"><ele>87.0</ele><time>2026-03-29T12:04:28.017Z</time></trkpt><trkpt lat="39.4187583" lon="16.9339467"><ele>87.0</ele><time>2026-03-29T12:04:29.017Z</time></trkpt><trkpt lat="39.418865" lon="16.9340483"><ele>87.0</ele><time>2026-03-29T12:04:30.017Z</time></trkpt><trkpt lat="39.418965" lon="16.93415"><ele>86.75</ele><time>2026-03-29T12:04:31.016Z</time></trkpt><trkpt lat="39.4190583" lon="16.9342483"><ele>86.5</ele><time>2026-03-29T12:04:32.017Z</time></trkpt><trkpt lat="39.4191517" lon="16.9343517"><ele>86.25</ele><time>2026-03-29T12:04:33.017Z</time></trkpt><trkpt lat="39.4192533" lon="16.9344467"><ele>86.0</ele><time>2026-03-29T12:04:34.017Z</time></trkpt><trkpt lat="39.4193567" lon="16.934535"><ele>86.0</ele><time>2026-03-29T12:04:35.017Z</time></trkpt><trkpt lat="39.4194583" lon="16.9346333"><ele>86.0</ele><time>2026-03-29T12:04:36.017Z</time></trkpt><trkpt lat="39.419565" lon="16.9347433"><ele>86.0</ele><time>2026-03-29T12:04:37.017Z</time></trkpt><trkpt lat="39.4196817" lon="16.9348583"><ele>86.0</ele><time>2026-03-29T12:04:38.017Z</time></trkpt><trkpt lat="39.4197917" lon="16.934955"><ele>86.0</ele><time>2026-03-29T12:04:39.017Z</time></trkpt><trkpt lat="39.4198967" lon="16.9350617"><ele>86.0</ele><time>2026-03-29T12:04:40.017Z</time></trkpt><trkpt lat="39.42" lon="16.9351617"><ele>86.0</ele><time>2026-03-29T12:04:41.017Z</time></trkpt><trkpt lat="39.4201" lon="16.9352583"><ele>86.0</ele><time>2026-03-29T12:04:42.017Z</time></trkpt><trkpt lat="39.4201817" lon="16.935345"><ele>86.0</ele><time>2026-03-29T12:04:43.017Z</time></trkpt><trkpt lat="39.42026" lon="16.93542"><ele>86.0</ele><time>2026-03-29T12:04:44.017Z</time></trkpt><trkpt lat="39.4203183" lon="16.935465"><ele>86.0</ele><time>2026-03-29T12:04:45.017Z</time></trkpt><trkpt lat="39.4203667" lon="16.9355383"><ele>86.0</ele><time>2026-03-29T12:04:47.017Z</time></trkpt><trkpt lat="39.420425" lon="16.9356183"><ele>86.0</ele><time>2026-03-29T12:04:49.017Z</time></trkpt><trkpt lat="39.42048" lon="16.9356883"><ele>86.0</ele><time>2026-03-29T12:04:51.016Z</time></trkpt><trkpt lat="39.420545" lon="16.9357583"><ele>85.83333333333334</ele><time>2026-03-29T12:04:53.016Z</time></trkpt><trkpt lat="39.4206383" lon="16.93584"><ele>85.66666666666667</ele><time>2026-03-29T12:04:55.017Z</time></trkpt><trkpt lat="39.4206967" lon="16.9358983"><ele>85.5</ele><time>2026-03-29T12:04:56.017Z</time></trkpt><trkpt lat="39.4207583" lon="16.93597"><ele>85.33333333333333</ele><time>2026-03-29T12:04:57.016Z</time></trkpt><trkpt lat="39.4208267" lon="16.93604"><ele>85.16666666666666</ele><time>2026-03-29T12:04:58.017Z</time></trkpt><trkpt lat="39.4208917" lon="16.9361167"><ele>85.0</ele><time>2026-03-29T12:04:59.017Z</time></trkpt><trkpt lat="39.42094" lon="16.9361883"><ele>85.0</ele><time>2026-03-29T12:05:00.016Z</time></trkpt><trkpt lat="39.4209883" lon="16.9362583"><ele>85.0</ele><time>2026-03-29T12:05:01.017Z</time></trkpt><trkpt lat="39.4210333" lon="16.9363183"><ele>85.0</ele><time>2026-03-29T12:05:02.017Z</time></trkpt><trkpt lat="39.4211" lon="16.9364183"><ele>85.0</ele><time>2026-03-29T12:05:04.016Z</time></trkpt><trkpt lat="39.4211183" lon="16.9365"><ele>85.0</ele><time>2026-03-29T12:05:05.017Z</time></trkpt><trkpt lat="39.421135" lon="16.9365967"><ele>85.0</ele><time>2026-03-29T12:05:06.017Z</time></trkpt><trkpt lat="39.4211467" lon="16.9366983"><ele>85.0</ele><time>2026-03-29T12:05:07.017Z</time></trkpt><trkpt lat="39.4211617" lon="16.936795"><ele>85.0</ele><time>2026-03-29T12:05:08.017Z</time></trkpt><trkpt lat="39.42117" lon="16.9369083"><ele>85.0</ele><time>2026-03-29T12:05:09.017Z</time></trkpt><trkpt lat="39.4211833" lon="16.9370367"><ele>85.0</ele><time>2026-03-29T12:05:10.017Z</time></trkpt><trkpt lat="39.4212" lon="16.9371833"><ele>85.0</ele><time>2026-03-29T12:05:11.016Z</time></trkpt><trkpt lat="39.42123" lon="16.9373433"><ele>85.0</ele><time>2026-03-29T12:05:12.017Z</time></trkpt><trkpt lat="39.421265" lon="16.937505"><ele>85.0</ele><time>2026-03-29T12:05:13.016Z</time></trkpt><trkpt lat="39.4213067" lon="16.9376617"><ele>85.0</ele><time>2026-03-29T12:05:14.017Z</time></trkpt><trkpt lat="39.4213567" lon="16.9378033"><ele>85.0</ele><time>2026-03-29T12:05:15.017Z</time></trkpt><trkpt lat="39.4214167" lon="16.9379233"><ele>85.5</ele><time>2026-03-29T12:05:16.017Z</time></trkpt><trkpt lat="39.4214817" lon="16.9380333"><ele>86.0</ele><time>2026-03-29T12:05:17.017Z</time></trkpt><trkpt lat="39.4215517" lon="16.938145"><ele>86.5</ele><time>2026-03-29T12:05:18.017Z</time></trkpt><trkpt lat="39.42163" lon="16.938255"><ele>87.0</ele><time>2026-03-29T12:05:19.017Z</time></trkpt><trkpt lat="39.4217133" lon="16.9383833"><ele>85.33333333333333</ele><time>2026-03-29T12:05:20.017Z</time></trkpt><trkpt lat="39.4218033" lon="16.9385267"><ele>83.66666666666666</ele><time>2026-03-29T12:05:21.017Z</time></trkpt><trkpt lat="39.4219083" lon="16.9386767"><ele>82.0</ele><time>2026-03-29T12:05:22.017Z</time></trkpt><trkpt lat="39.422015" lon="16.93884"><ele>82.0</ele><time>2026-03-29T12:05:23.017Z</time></trkpt><trkpt lat="39.4221267" lon="16.9390183"><ele>82.0</ele><time>2026-03-29T12:05:24.017Z</time></trkpt><trkpt lat="39.4222367" lon="16.9391983"><ele>82.0</ele><time>2026-03-29T12:05:25.017Z</time></trkpt><trkpt lat="39.4223633" lon="16.9393967"><ele>84.33333333333333</ele><time>2026-03-29T12:05:26.017Z</time></trkpt><trkpt lat="39.422475" lon="16.9396"><ele>86.66666666666667</ele><time>2026-03-29T12:05:27.017Z</time></trkpt><trkpt lat="39.4225817" lon="16.9397867"><ele>89.0</ele><time>2026-03-29T12:05:28.017Z</time></trkpt><trkpt lat="39.4226783" lon="16.9399633"><ele>88.25</ele><time>2026-03-29T12:05:29.017Z</time></trkpt><trkpt lat="39.42277" lon="16.940125"><ele>87.5</ele><time>2026-03-29T12:05:30.017Z</time></trkpt><trkpt lat="39.4228517" lon="16.9402667"><ele>86.75</ele><time>2026-03-29T12:05:31.017Z</time></trkpt><trkpt lat="39.42293" lon="16.940395"><ele>86.0</ele><time>2026-03-29T12:05:32.016Z</time></trkpt><trkpt lat="39.423015" lon="16.9405167"><ele>87.0</ele><time>2026-03-29T12:05:33.017Z</time></trkpt><trkpt lat="39.4230883" lon="16.9406267"><ele>88.0</ele><time>2026-03-29T12:05:34.016Z</time></trkpt><trkpt lat="39.4231433" lon="16.9407383"><ele>89.0</ele><time>2026-03-29T12:05:35.017Z</time></trkpt><trkpt lat="39.42319" lon="16.9408517"><ele>90.0</ele><time>2026-03-29T12:05:36.017Z</time></trkpt><trkpt lat="39.4232267" lon="16.9409733"><ele>91.0</ele><time>2026-03-29T12:05:37.016Z</time></trkpt><trkpt lat="39.423255" lon="16.9411"><ele>91.0</ele><time>2026-03-29T12:05:38.016Z</time></trkpt><trkpt lat="39.423285" lon="16.9412383"><ele>91.0</ele><time>2026-03-29T12:05:39.017Z</time></trkpt><trkpt lat="39.423305" lon="16.9413833"><ele>91.0</ele><time>2026-03-29T12:05:40.017Z</time></trkpt><trkpt lat="39.4233283" lon="16.9415183"><ele>91.0</ele><time>2026-03-29T12:05:41.016Z</time></trkpt><trkpt lat="39.4233483" lon="16.94165"><ele>91.0</ele><time>2026-03-29T12:05:42.017Z</time></trkpt><trkpt lat="39.4233717" lon="16.9417833"><ele>89.6</ele><time>2026-03-29T12:05:43.017Z</time></trkpt><trkpt lat="39.4234033" lon="16.9419183"><ele>88.19999999999999</ele><time>2026-03-29T12:05:44.017Z</time></trkpt><trkpt lat="39.4234367" lon="16.9420433"><ele>86.80000000000001</ele><time>2026-03-29T12:05:45.017Z</time></trkpt><trkpt lat="39.4234583" lon="16.942175"><ele>85.4</ele><time>2026-03-29T12:05:46.017Z</time></trkpt><trkpt lat="39.4234817" lon="16.9423033"><ele>84.0</ele><time>2026-03-29T12:05:47.017Z</time></trkpt><trkpt lat="39.4235017" lon="16.9424317"><ele>83.2</ele><time>2026-03-29T12:05:48.017Z</time></trkpt><trkpt lat="39.423525" lon="16.9425583"><ele>82.4</ele><time>2026-03-29T12:05:49.017Z</time></trkpt><trkpt lat="39.4235633" lon="16.9426933"><ele>81.6</ele><time>2026-03-29T12:05:50.017Z</time></trkpt><trkpt lat="39.4235967" lon="16.9428267"><ele>80.8</ele><time>2026-03-29T12:05:51.017Z</time></trkpt><trkpt lat="39.42364" lon="16.9429667"><ele>80.0</ele><time>2026-03-29T12:05:52.017Z</time></trkpt><trkpt lat="39.423675" lon="16.9431083"><ele>80.0</ele><time>2026-03-29T12:05:53.017Z</time></trkpt><trkpt lat="39.42371" lon="16.94325"><ele>80.0</ele><time>2026-03-29T12:05:54.017Z</time></trkpt><trkpt lat="39.423745" lon="16.9433733"><ele>80.0</ele><time>2026-03-29T12:05:55.016Z</time></trkpt><trkpt lat="39.423775" lon="16.943485"><ele>80.0</ele><time>2026-03-29T12:05:56.017Z</time></trkpt><trkpt lat="39.42381" lon="16.94359"><ele>80.0</ele><time>2026-03-29T12:05:57.017Z</time></trkpt><trkpt lat="39.4238333" lon="16.9436933"><ele>80.4</ele><time>2026-03-29T12:05:58.017Z</time></trkpt><trkpt lat="39.423865" lon="16.94379"><ele>80.8</ele><time>2026-03-29T12:05:59.017Z</time></trkpt><trkpt lat="39.423905" lon="16.9438867"><ele>81.19999999999999</ele><time>2026-03-29T12:06:00.017Z</time></trkpt><trkpt lat="39.4239583" lon="16.9439817"><ele>81.6</ele><time>2026-03-29T12:06:01.016Z</time></trkpt><trkpt lat="39.4240333" lon="16.9440633"><ele>82.0</ele><time>2026-03-29T12:06:02.017Z</time></trkpt><trkpt lat="39.4241283" lon="16.9441383"><ele>82.0</ele><time>2026-03-29T12:06:03.016Z</time></trkpt><trkpt lat="39.42423" lon="16.94421"><ele>82.0</ele><time>2026-03-29T12:06:04.017Z</time></trkpt><trkpt lat="39.4243317" lon="16.9442917"><ele>82.0</ele><time>2026-03-29T12:06:05.017Z</time></trkpt><trkpt lat="39.4244233" lon="16.944375"><ele>82.0</ele><time>2026-03-29T12:06:06.017Z</time></trkpt><trkpt lat="39.42451" lon="16.9444733"><ele>82.8</ele><time>2026-03-29T12:06:07.017Z</time></trkpt><trkpt lat="39.42459" lon="16.9445783"><ele>83.6</ele><time>2026-03-29T12:06:08.017Z</time></trkpt><trkpt lat="39.4246517" lon="16.94469"><ele>84.39999999999999</ele><time>2026-03-29T12:06:09.017Z</time></trkpt><trkpt lat="39.4246967" lon="16.94481"><ele>85.19999999999999</ele><time>2026-03-29T12:06:10.017Z</time></trkpt><trkpt lat="39.4247333" lon="16.94495"><ele>86.0</ele><time>2026-03-29T12:06:11.017Z</time></trkpt><trkpt lat="39.4247667" lon="16.94509"><ele>84.2</ele><time>2026-03-29T12:06:12.016Z</time></trkpt><trkpt lat="39.4247933" lon="16.945225"><ele>82.39999999999999</ele><time>2026-03-29T12:06:13.017Z</time></trkpt><trkpt lat="39.4248367" lon="16.9453617"><ele>80.6</ele><time>2026-03-29T12:06:14.017Z</time></trkpt><trkpt lat="39.4248933" lon="16.9454867"><ele>78.8</ele><time>2026-03-29T12:06:15.016Z</time></trkpt><trkpt lat="39.4249467" lon="16.9456167"><ele>77.0</ele><time>2026-03-29T12:06:16.017Z</time></trkpt><trkpt lat="39.424995" lon="16.9457517"><ele>76.2</ele><time>2026-03-29T12:06:17.017Z</time></trkpt><trkpt lat="39.42506" lon="16.9458867"><ele>75.4</ele><time>2026-03-29T12:06:18.017Z</time></trkpt><trkpt lat="39.425125" lon="16.9460217"><ele>74.6</ele><time>2026-03-29T12:06:19.017Z</time></trkpt><trkpt lat="39.4251883" lon="16.9461433"><ele>73.8</ele><time>2026-03-29T12:06:20.016Z</time></trkpt><trkpt lat="39.4252483" lon="16.94623"><ele>73.0</ele><time>2026-03-29T12:06:21.017Z</time></trkpt><trkpt lat="39.4253083" lon="16.946325"><ele>73.0</ele><time>2026-03-29T12:06:23.017Z</time></trkpt><trkpt lat="39.4253383" lon="16.9463967"><ele>73.0</ele><time>2026-03-29T12:06:25.017Z</time></trkpt><trkpt lat="39.4253867" lon="16.9465133"><ele>73.0</ele><time>2026-03-29T12:06:27.017Z</time></trkpt><trkpt lat="39.4254567" lon="16.9466417"><ele>73.0</ele><time>2026-03-29T12:06:29.016Z</time></trkpt><trkpt lat="39.42549" lon="16.946715"><ele>73.0</ele><time>2026-03-29T12:06:30.016Z</time></trkpt><trkpt lat="39.42553" lon="16.9467983"><ele>73.0</ele><time>2026-03-29T12:06:31.017Z</time></trkpt><trkpt lat="39.425575" lon="16.94689"><ele>74.0</ele><time>2026-03-29T12:06:32.017Z</time></trkpt><trkpt lat="39.4256183" lon="16.9469917"><ele>75.0</ele><time>2026-03-29T12:06:33.017Z</time></trkpt><trkpt lat="39.42567" lon="16.9470917"><ele>76.0</ele><time>2026-03-29T12:06:34.017Z</time></trkpt><trkpt lat="39.4257217" lon="16.9471967"><ele>77.0</ele><time>2026-03-29T12:06:35.017Z</time></trkpt><trkpt lat="39.425775" lon="16.94731"><ele>78.0</ele><time>2026-03-29T12:06:36.017Z</time></trkpt><trkpt lat="39.42584" lon="16.947415"><ele>78.0</ele><time>2026-03-29T12:06:37.017Z</time></trkpt><trkpt lat="39.4259117" lon="16.9475233"><ele>78.0</ele><time>2026-03-29T12:06:38.016Z</time></trkpt><trkpt lat="39.4259883" lon="16.94763"><ele>78.0</ele><time>2026-03-29T12:06:39.017Z</time></trkpt><trkpt lat="39.426075" lon="16.947735"><ele>78.0</ele><time>2026-03-29T12:06:40.017Z</time></trkpt><trkpt lat="39.4261617" lon="16.947835"><ele>78.0</ele><time>2026-03-29T12:06:41.017Z</time></trkpt><trkpt lat="39.4262483" lon="16.9479317"><ele>78.0</ele><time>2026-03-29T12:06:42.017Z</time></trkpt><trkpt lat="39.4263467" lon="16.9480417"><ele>78.0</ele><time>2026-03-29T12:06:43.016Z</time></trkpt><trkpt lat="39.4264433" lon="16.948145"><ele>78.0</ele><time>2026-03-29T12:06:44.017Z</time></trkpt><trkpt lat="39.426535" lon="16.9482367"><ele>78.0</ele><time>2026-03-29T12:06:45.017Z</time></trkpt><trkpt lat="39.4266333" lon="16.9483233"><ele>78.0</ele><time>2026-03-29T12:06:46.017Z</time></trkpt><trkpt lat="39.426745" lon="16.94839"><ele>78.0</ele><time>2026-03-29T12:06:47.017Z</time></trkpt><trkpt lat="39.426855" lon="16.9484267"><ele>78.0</ele><time>2026-03-29T12:06:48.017Z</time></trkpt><trkpt lat="39.4269817" lon="16.9484467"><ele>76.25</ele><time>2026-03-29T12:06:49.017Z</time></trkpt><trkpt lat="39.4271233" lon="16.9484517"><ele>74.5</ele><time>2026-03-29T12:06:50.017Z</time></trkpt><trkpt lat="39.4272667" lon="16.94844"><ele>72.75</ele><time>2026-03-29T12:06:51.016Z</time></trkpt><trkpt lat="39.42741" lon="16.94843"><ele>71.0</ele><time>2026-03-29T12:06:52.017Z</time></trkpt><trkpt lat="39.4275433" lon="16.948415"><ele>70.6</ele><time>2026-03-29T12:06:53.017Z</time></trkpt><trkpt lat="39.4276583" lon="16.9484133"><ele>70.19999999999999</ele><time>2026-03-29T12:06:54.017Z</time></trkpt><trkpt lat="39.4277667" lon="16.94843"><ele>69.80000000000001</ele><time>2026-03-29T12:06:55.017Z</time></trkpt><trkpt lat="39.42787" lon="16.948465"><ele>69.4</ele><time>2026-03-29T12:06:56.017Z</time></trkpt><trkpt lat="39.4279617" lon="16.9485333"><ele>69.0</ele><time>2026-03-29T12:06:57.017Z</time></trkpt><trkpt lat="39.428055" lon="16.9486217"><ele>69.0</ele><time>2026-03-29T12:06:58.017Z</time></trkpt><trkpt lat="39.428155" lon="16.9487183"><ele>69.0</ele><time>2026-03-29T12:06:59.017Z</time></trkpt><trkpt lat="39.4282617" lon="16.94882"><ele>69.0</ele><time>2026-03-29T12:07:00.017Z</time></trkpt><trkpt lat="39.428365" lon="16.9489117"><ele>69.0</ele><time>2026-03-29T12:07:01.017Z</time></trkpt><trkpt lat="39.4284667" lon="16.9489967"><ele>69.0</ele><time>2026-03-29T12:07:02.017Z</time></trkpt><trkpt lat="39.4285667" lon="16.9490833"><ele>69.0</ele><time>2026-03-29T12:07:03.017Z</time></trkpt><trkpt lat="39.42868" lon="16.949155"><ele>69.0</ele><time>2026-03-29T12:07:04.017Z</time></trkpt><trkpt lat="39.4287983" lon="16.9492117"><ele>69.0</ele><time>2026-03-29T12:07:05.017Z</time></trkpt><trkpt lat="39.4289133" lon="16.9492567"><ele>68.25</ele><time>2026-03-29T12:07:06.017Z</time></trkpt><trkpt lat="39.4290317" lon="16.9493017"><ele>67.5</ele><time>2026-03-29T12:07:07.017Z</time></trkpt><trkpt lat="39.4291583" lon="16.9493383"><ele>66.75</ele><time>2026-03-29T12:07:08.017Z</time></trkpt><trkpt lat="39.4292817" lon="16.9493567"><ele>66.0</ele><time>2026-03-29T12:07:09.017Z</time></trkpt><trkpt lat="39.4293983" lon="16.94937"><ele>66.0</ele><time>2026-03-29T12:07:10.017Z</time></trkpt><trkpt lat="39.4295133" lon="16.94938"><ele>66.0</ele><time>2026-03-29T12:07:11.017Z</time></trkpt><trkpt lat="39.4296317" lon="16.9493867"><ele>66.0</ele><time>2026-03-29T12:07:12.017Z</time></trkpt><trkpt lat="39.4297517" lon="16.9493867"><ele>66.0</ele><time>2026-03-29T12:07:13.017Z</time></trkpt><trkpt lat="39.4298767" lon="16.9493717"><ele>66.25</ele><time>2026-03-29T12:07:14.017Z</time></trkpt><trkpt lat="39.430005" lon="16.9493517"><ele>66.5</ele><time>2026-03-29T12:07:15.017Z</time></trkpt><trkpt lat="39.4301283" lon="16.9493467"><ele>66.75</ele><time>2026-03-29T12:07:16.016Z</time></trkpt><trkpt lat="39.4302533" lon="16.9493483"><ele>67.0</ele><time>2026-03-29T12:07:17.016Z</time></trkpt><trkpt lat="39.43038" lon="16.94935"><ele>67.0</ele><time>2026-03-29T12:07:18.017Z</time></trkpt><trkpt lat="39.4305133" lon="16.949345"><ele>67.0</ele><time>2026-03-29T12:07:19.017Z</time></trkpt><trkpt lat="39.4306383" lon="16.9493383"><ele>67.0</ele><time>2026-03-29T12:07:20.017Z</time></trkpt><trkpt lat="39.43076" lon="16.9493283"><ele>67.0</ele><time>2026-03-29T12:07:21.017Z</time></trkpt><trkpt lat="39.4308933" lon="16.9493183"><ele>67.0</ele><time>2026-03-29T12:07:22.017Z</time></trkpt><trkpt lat="39.431025" lon="16.949315"><ele>67.0</ele><time>2026-03-29T12:07:23.017Z</time></trkpt><trkpt lat="39.4311467" lon="16.9493117"><ele>67.0</ele><time>2026-03-29T12:07:24.016Z</time></trkpt><trkpt lat="39.431255" lon="16.9493217"><ele>67.0</ele><time>2026-03-29T12:07:25.016Z</time></trkpt><trkpt lat="39.4313567" lon="16.9493417"><ele>66.6</ele><time>2026-03-29T12:07:26.017Z</time></trkpt><trkpt lat="39.4314567" lon="16.949385"><ele>66.2</ele><time>2026-03-29T12:07:27.016Z</time></trkpt><trkpt lat="39.431555" lon="16.9494383"><ele>65.8</ele><time>2026-03-29T12:07:28.017Z</time></trkpt><trkpt lat="39.4316567" lon="16.9495"><ele>65.4</ele><time>2026-03-29T12:07:29.017Z</time></trkpt><trkpt lat="39.4317633" lon="16.9495633"><ele>65.0</ele><time>2026-03-29T12:07:30.016Z</time></trkpt><trkpt lat="39.43187" lon="16.9496283"><ele>65.0</ele><time>2026-03-29T12:07:31.017Z</time></trkpt><trkpt lat="39.4319883" lon="16.9496967"><ele>65.0</ele><time>2026-03-29T12:07:32.017Z</time></trkpt><trkpt lat="39.4321083" lon="16.9497667"><ele>65.0</ele><time>2026-03-29T12:07:33.016Z</time></trkpt><trkpt lat="39.4322317" lon="16.9498317"><ele>65.0</ele><time>2026-03-29T12:07:34.017Z</time></trkpt><trkpt lat="39.4323567" lon="16.949895"><ele>64.75</ele><time>2026-03-29T12:07:35.017Z</time></trkpt><trkpt lat="39.432465" lon="16.9499683"><ele>64.5</ele><time>2026-03-29T12:07:36.017Z</time></trkpt><trkpt lat="39.4325767" lon="16.9500483"><ele>64.25</ele><time>2026-03-29T12:07:37.017Z</time></trkpt><trkpt lat="39.4326883" lon="16.9501383"><ele>64.0</ele><time>2026-03-29T12:07:38.017Z</time></trkpt><trkpt lat="39.432795" lon="16.9502417"><ele>64.0</ele><time>2026-03-29T12:07:39.017Z</time></trkpt><trkpt lat="39.4328917" lon="16.9503583"><ele>64.0</ele><time>2026-03-29T12:07:40.017Z</time></trkpt><trkpt lat="39.4329833" lon="16.9504783"><ele>64.0</ele><time>2026-03-29T12:07:41.017Z</time></trkpt><trkpt lat="39.433065" lon="16.9506167"><ele>64.0</ele><time>2026-03-29T12:07:42.017Z</time></trkpt><trkpt lat="39.4331383" lon="16.9507583"><ele>63.75</ele><time>2026-03-29T12:07:43.017Z</time></trkpt><trkpt lat="39.4332133" lon="16.9509033"><ele>63.5</ele><time>2026-03-29T12:07:44.017Z</time></trkpt><trkpt lat="39.433285" lon="16.9510433"><ele>63.25</ele><time>2026-03-29T12:07:45.017Z</time></trkpt><trkpt lat="39.4333567" lon="16.95119"><ele>63.0</ele><time>2026-03-29T12:07:46.017Z</time></trkpt><trkpt lat="39.433435" lon="16.9513333"><ele>63.0</ele><time>2026-03-29T12:07:47.017Z</time></trkpt><trkpt lat="39.4335067" lon="16.95148"><ele>63.0</ele><time>2026-03-29T12:07:48.017Z</time></trkpt><trkpt lat="39.433575" lon="16.9516217"><ele>63.0</ele><time>2026-03-29T12:07:49.016Z</time></trkpt><trkpt lat="39.43365" lon="16.9517717"><ele>63.0</ele><time>2026-03-29T12:07:50.017Z</time></trkpt><trkpt lat="39.4337183" lon="16.951925"><ele>63.0</ele><time>2026-03-29T12:07:51.016Z</time></trkpt><trkpt lat="39.4337867" lon="16.9520717"><ele>63.0</ele><time>2026-03-29T12:07:52.017Z</time></trkpt><trkpt lat="39.4338483" lon="16.9522183"><ele>63.0</ele><time>2026-03-29T12:07:53.017Z</time></trkpt><trkpt lat="39.4339117" lon="16.9523633"><ele>63.0</ele><time>2026-03-29T12:07:54.017Z</time></trkpt><trkpt lat="39.4339717" lon="16.9525283"><ele>62.66666666666667</ele><time>2026-03-29T12:07:55.017Z</time></trkpt><trkpt lat="39.4340283" lon="16.9527067"><ele>62.333333333333336</ele><time>2026-03-29T12:07:56.017Z</time></trkpt><trkpt lat="39.4340717" lon="16.9529033"><ele>62.0</ele><time>2026-03-29T12:07:57.017Z</time></trkpt><trkpt lat="39.4341067" lon="16.9531083"><ele>62.0</ele><time>2026-03-29T12:07:58.017Z</time></trkpt><trkpt lat="39.434135" lon="16.9533267"><ele>62.0</ele><time>2026-03-29T12:07:59.016Z</time></trkpt><trkpt lat="39.4341417" lon="16.9535483"><ele>62.0</ele><time>2026-03-29T12:08:00.017Z</time></trkpt><trkpt lat="39.434135" lon="16.95376"><ele>61.333333333333336</ele><time>2026-03-29T12:08:01.017Z</time></trkpt><trkpt lat="39.434135" lon="16.9539617"><ele>60.66666666666667</ele><time>2026-03-29T12:08:02.017Z</time></trkpt><trkpt lat="39.4341517" lon="16.9541667"><ele>60.0</ele><time>2026-03-29T12:08:03.017Z</time></trkpt><trkpt lat="39.4341717" lon="16.9543683"><ele>59.66666666666667</ele><time>2026-03-29T12:08:04.016Z</time></trkpt><trkpt lat="39.4342067" lon="16.9545667"><ele>59.333333333333336</ele><time>2026-03-29T12:08:05.017Z</time></trkpt><trkpt lat="39.43425" lon="16.954775"><ele>59.0</ele><time>2026-03-29T12:08:06.017Z</time></trkpt><trkpt lat="39.4342967" lon="16.9549767"><ele>59.0</ele><time>2026-03-29T12:08:07.017Z</time></trkpt><trkpt lat="39.43434" lon="16.9551683"><ele>59.0</ele><time>2026-03-29T12:08:08.017Z</time></trkpt><trkpt lat="39.4343767" lon="16.9553583"><ele>59.0</ele><time>2026-03-29T12:08:09.017Z</time></trkpt><trkpt lat="39.4344117" lon="16.95554"><ele>59.0</ele><time>2026-03-29T12:08:10.017Z</time></trkpt><trkpt lat="39.4344433" lon="16.95571"><ele>59.0</ele><time>2026-03-29T12:08:11.017Z</time></trkpt><trkpt lat="39.4344683" lon="16.9558583"><ele>59.0</ele><time>2026-03-29T12:08:12.016Z</time></trkpt><trkpt lat="39.4344933" lon="16.9560083"><ele>59.0</ele><time>2026-03-29T12:08:13.017Z</time></trkpt><trkpt lat="39.4345217" lon="16.95614"><ele>59.0</ele><time>2026-03-29T12:08:14.017Z</time></trkpt><trkpt lat="39.4345533" lon="16.9562667"><ele>59.00000000000001</ele><time>2026-03-29T12:08:15.017Z</time></trkpt><trkpt lat="39.4345767" lon="16.9563967"><ele>59.00000000000001</ele><time>2026-03-29T12:08:16.017Z</time></trkpt><trkpt lat="39.4346" lon="16.9565417"><ele>59.0</ele><time>2026-03-29T12:08:17.016Z</time></trkpt><trkpt lat="39.434635" lon="16.9567017"><ele>59.0</ele><time>2026-03-29T12:08:18.017Z</time></trkpt><trkpt lat="39.43467" lon="16.9568667"><ele>59.0</ele><time>2026-03-29T12:08:19.017Z</time></trkpt><trkpt lat="39.43471" lon="16.9570433"><ele>59.0</ele><time>2026-03-29T12:08:20.017Z</time></trkpt><trkpt lat="39.4347483" lon="16.9572283"><ele>59.0</ele><time>2026-03-29T12:08:21.017Z</time></trkpt><trkpt lat="39.434785" lon="16.9574117"><ele>59.0</ele><time>2026-03-29T12:08:22.017Z</time></trkpt><trkpt lat="39.4348133" lon="16.9575833"><ele>59.0</ele><time>2026-03-29T12:08:23.017Z</time></trkpt><trkpt lat="39.4348467" lon="16.95774"><ele>59.0</ele><time>2026-03-29T12:08:24.016Z</time></trkpt><trkpt lat="39.4348883" lon="16.9578967"><ele>59.0</ele><time>2026-03-29T12:08:25.017Z</time></trkpt><trkpt lat="39.434945" lon="16.958045"><ele>59.0</ele><time>2026-03-29T12:08:26.017Z</time></trkpt><trkpt lat="39.434995" lon="16.9582017"><ele>59.0</ele><time>2026-03-29T12:08:27.016Z</time></trkpt><trkpt lat="39.4350483" lon="16.9583667"><ele>59.0</ele><time>2026-03-29T12:08:28.016Z</time></trkpt><trkpt lat="39.4350983" lon="16.9585433"><ele>59.0</ele><time>2026-03-29T12:08:29.017Z</time></trkpt><trkpt lat="39.43515" lon="16.9587367"><ele>59.0</ele><time>2026-03-29T12:08:30.017Z</time></trkpt><trkpt lat="39.435205" lon="16.9589333"><ele>61.0</ele><time>2026-03-29T12:08:31.016Z</time></trkpt><trkpt lat="39.43525" lon="16.9591367"><ele>63.0</ele><time>2026-03-29T12:08:32.017Z</time></trkpt><trkpt lat="39.4352833" lon="16.95934"><ele>65.0</ele><time>2026-03-29T12:08:33.017Z</time></trkpt><trkpt lat="39.4353067" lon="16.95953"><ele>65.0</ele><time>2026-03-29T12:08:34.016Z</time></trkpt><trkpt lat="39.4353083" lon="16.9597067"><ele>65.0</ele><time>2026-03-29T12:08:35.017Z</time></trkpt><trkpt lat="39.4352967" lon="16.9598767"><ele>65.0</ele><time>2026-03-29T12:08:36.017Z</time></trkpt><trkpt lat="39.4352783" lon="16.9600317"><ele>65.0</ele><time>2026-03-29T12:08:37.017Z</time></trkpt><trkpt lat="39.4352633" lon="16.960175"><ele>64.4</ele><time>2026-03-29T12:08:38.017Z</time></trkpt><trkpt lat="39.435255" lon="16.9603167"><ele>63.8</ele><time>2026-03-29T12:08:39.016Z</time></trkpt><trkpt lat="39.4352483" lon="16.9604483"><ele>63.2</ele><time>2026-03-29T12:08:40.017Z</time></trkpt><trkpt lat="39.435245" lon="16.9605717"><ele>62.6</ele><time>2026-03-29T12:08:41.017Z</time></trkpt><trkpt lat="39.43525" lon="16.9606917"><ele>62.0</ele><time>2026-03-29T12:08:42.017Z</time></trkpt><trkpt lat="39.4352533" lon="16.96081"><ele>64.0</ele><time>2026-03-29T12:08:43.017Z</time></trkpt><trkpt lat="39.43526" lon="16.9609417"><ele>66.0</ele><time>2026-03-29T12:08:44.017Z</time></trkpt><trkpt lat="39.43528" lon="16.961085"><ele>68.0</ele><time>2026-03-29T12:08:45.017Z</time></trkpt><trkpt lat="39.435295" lon="16.9612433"><ele>70.0</ele><time>2026-03-29T12:08:46.017Z</time></trkpt><trkpt lat="39.4353233" lon="16.9614267"><ele>70.0</ele><time>2026-03-29T12:08:47.017Z</time></trkpt><trkpt lat="39.43536" lon="16.9616267"><ele>70.0</ele><time>2026-03-29T12:08:48.017Z</time></trkpt><trkpt lat="39.43539" lon="16.961835"><ele>70.0</ele><time>2026-03-29T12:08:49.017Z</time></trkpt><trkpt lat="39.435425" lon="16.9620567"><ele>65.66666666666666</ele><time>2026-03-29T12:08:50.017Z</time></trkpt><trkpt lat="39.4354617" lon="16.9622833"><ele>61.33333333333333</ele><time>2026-03-29T12:08:51.017Z</time></trkpt><trkpt lat="39.4355" lon="16.9625033"><ele>57.0</ele><time>2026-03-29T12:08:52.017Z</time></trkpt><trkpt lat="39.4355467" lon="16.9627133"><ele>57.0</ele><time>2026-03-29T12:08:53.017Z</time></trkpt><trkpt lat="39.4356017" lon="16.9629067"><ele>57.0</ele><time>2026-03-29T12:08:54.017Z</time></trkpt><trkpt lat="39.4356683" lon="16.9630783"><ele>57.0</ele><time>2026-03-29T12:08:55.017Z</time></trkpt><trkpt lat="39.4357467" lon="16.9632283"><ele>57.0</ele><time>2026-03-29T12:08:56.017Z</time></trkpt><trkpt lat="39.43583" lon="16.9633583"><ele>61.25</ele><time>2026-03-29T12:08:57.017Z</time></trkpt><trkpt lat="39.4359167" lon="16.963485"><ele>65.5</ele><time>2026-03-29T12:08:58.017Z</time></trkpt><trkpt lat="39.4359867" lon="16.9636183"><ele>69.75</ele><time>2026-03-29T12:08:59.017Z</time></trkpt><trkpt lat="39.436065" lon="16.9637417"><ele>74.0</ele><time>2026-03-29T12:09:00.017Z</time></trkpt><trkpt lat="39.4361433" lon="16.9638683"><ele>74.0</ele><time>2026-03-29T12:09:01.016Z</time></trkpt><trkpt lat="39.43623" lon="16.9639967"><ele>74.0</ele><time>2026-03-29T12:09:02.017Z</time></trkpt><trkpt lat="39.4363267" lon="16.9641267"><ele>74.0</ele><time>2026-03-29T12:09:03.017Z</time></trkpt><trkpt lat="39.436435" lon="16.9642417"><ele>74.0</ele><time>2026-03-29T12:09:04.016Z</time></trkpt><trkpt lat="39.43657" lon="16.9643517"><ele>70.33333333333334</ele><time>2026-03-29T12:09:05.017Z</time></trkpt><trkpt lat="39.4366983" lon="16.964455"><ele>66.66666666666667</ele><time>2026-03-29T12:09:06.016Z</time></trkpt><trkpt lat="39.4368367" lon="16.9645583"><ele>63.0</ele><time>2026-03-29T12:09:07.017Z</time></trkpt><trkpt lat="39.4369767" lon="16.9646483"><ele>63.0</ele><time>2026-03-29T12:09:08.017Z</time></trkpt><trkpt lat="39.4371183" lon="16.9647583"><ele>63.0</ele><time>2026-03-29T12:09:09.017Z</time></trkpt><trkpt lat="39.4372533" lon="16.9648833"><ele>63.0</ele><time>2026-03-29T12:09:10.017Z</time></trkpt><trkpt lat="39.4373883" lon="16.9650133"><ele>63.66666666666667</ele><time>2026-03-29T12:09:11.017Z</time></trkpt><trkpt lat="39.43752" lon="16.9651533"><ele>64.33333333333334</ele><time>2026-03-29T12:09:12.017Z</time></trkpt><trkpt lat="39.4376567" lon="16.965305"><ele>65.0</ele><time>2026-03-29T12:09:13.017Z</time></trkpt><trkpt lat="39.4377967" lon="16.96547"><ele>65.0</ele><time>2026-03-29T12:09:14.017Z</time></trkpt><trkpt lat="39.437945" lon="16.965645"><ele>65.0</ele><time>2026-03-29T12:09:15.017Z</time></trkpt><trkpt lat="39.4380967" lon="16.9658333"><ele>65.0</ele><time>2026-03-29T12:09:16.017Z</time></trkpt><trkpt lat="39.4382333" lon="16.96602"><ele>66.0</ele><time>2026-03-29T12:09:17.017Z</time></trkpt><trkpt lat="39.4383783" lon="16.9661917"><ele>67.0</ele><time>2026-03-29T12:09:18.016Z</time></trkpt><trkpt lat="39.4385183" lon="16.9663433"><ele>68.0</ele><time>2026-03-29T12:09:19.017Z</time></trkpt><trkpt lat="39.4386433" lon="16.9664767"><ele>68.0</ele><time>2026-03-29T12:09:20.017Z</time></trkpt><trkpt lat="39.43878" lon="16.966585"><ele>68.0</ele><time>2026-03-29T12:09:21.017Z</time></trkpt><trkpt lat="39.43891" lon="16.9666717"><ele>68.0</ele><time>2026-03-29T12:09:22.017Z</time></trkpt><trkpt lat="39.439015" lon="16.96673"><ele>68.0</ele><time>2026-03-29T12:09:23.017Z</time></trkpt><trkpt lat="39.4391083" lon="16.9667533"><ele>68.66666666666667</ele><time>2026-03-29T12:09:24.017Z</time></trkpt><trkpt lat="39.4391933" lon="16.9667617"><ele>69.33333333333334</ele><time>2026-03-29T12:09:25.017Z</time></trkpt><trkpt lat="39.43927" lon="16.9667833"><ele>70.0</ele><time>2026-03-29T12:09:26.017Z</time></trkpt><trkpt lat="39.439335" lon="16.966805"><ele>70.66666666666667</ele><time>2026-03-29T12:09:27.017Z</time></trkpt><trkpt lat="39.4394" lon="16.9668283"><ele>71.33333333333333</ele><time>2026-03-29T12:09:28.017Z</time></trkpt><trkpt lat="39.4395167" lon="16.9668667"><ele>72.0</ele><time>2026-03-29T12:09:30.017Z</time></trkpt><trkpt lat="39.4395817" lon="16.9668883"><ele>69.5</ele><time>2026-03-29T12:09:31.017Z</time></trkpt><trkpt lat="39.439645" lon="16.96691"><ele>67.0</ele><time>2026-03-29T12:09:32.016Z</time></trkpt><trkpt lat="39.4397233" lon="16.9669333"><ele>64.5</ele><time>2026-03-29T12:09:33.017Z</time></trkpt><trkpt lat="39.4398117" lon="16.9669583"><ele>62.0</ele><time>2026-03-29T12:09:34.017Z</time></trkpt><trkpt lat="39.4399017" lon="16.9669783"><ele>59.5</ele><time>2026-03-29T12:09:35.017Z</time></trkpt><trkpt lat="39.439995" lon="16.967005"><ele>57.0</ele><time>2026-03-29T12:09:36.017Z</time></trkpt><trkpt lat="39.4400817" lon="16.9670317"><ele>57.0</ele><time>2026-03-29T12:09:37.016Z</time></trkpt><trkpt lat="39.4401717" lon="16.9670733"><ele>57.0</ele><time>2026-03-29T12:09:38.017Z</time></trkpt><trkpt lat="39.4402583" lon="16.9671383"><ele>57.0</ele><time>2026-03-29T12:09:39.017Z</time></trkpt><trkpt lat="39.440345" lon="16.9672283"><ele>57.0</ele><time>2026-03-29T12:09:40.017Z</time></trkpt><trkpt lat="39.4404433" lon="16.96734"><ele>57.0</ele><time>2026-03-29T12:09:41.017Z</time></trkpt><trkpt lat="39.4405483" lon="16.9674517"><ele>59.0</ele><time>2026-03-29T12:09:42.017Z</time></trkpt><trkpt lat="39.44066" lon="16.9675767"><ele>61.0</ele><time>2026-03-29T12:09:43.017Z</time></trkpt><trkpt lat="39.440765" lon="16.9677167"><ele>63.0</ele><time>2026-03-29T12:09:44.016Z</time></trkpt><trkpt lat="39.4408833" lon="16.96787"><ele>63.0</ele><time>2026-03-29T12:09:45.017Z</time></trkpt><trkpt lat="39.4410117" lon="16.9680333"><ele>63.0</ele><time>2026-03-29T12:09:46.017Z</time></trkpt><trkpt lat="39.4411417" lon="16.968195"><ele>63.0</ele><time>2026-03-29T12:09:47.017Z</time></trkpt><trkpt lat="39.44126" lon="16.96836"><ele>60.66666666666667</ele><time>2026-03-29T12:09:48.017Z</time></trkpt><trkpt lat="39.4413817" lon="16.9685183"><ele>58.333333333333336</ele><time>2026-03-29T12:09:49.017Z</time></trkpt><trkpt lat="39.4414783" lon="16.9686833"><ele>56.0</ele><time>2026-03-29T12:09:50.017Z</time></trkpt><trkpt lat="39.44155" lon="16.968845"><ele>56.0</ele><time>2026-03-29T12:09:51.017Z</time></trkpt><trkpt lat="39.4416133" lon="16.9689967"><ele>56.0</ele><time>2026-03-29T12:09:52.016Z</time></trkpt><trkpt lat="39.4416533" lon="16.9691317"><ele>56.0</ele><time>2026-03-29T12:09:53.017Z</time></trkpt><trkpt lat="39.4416917" lon="16.9692733"><ele>56.0</ele><time>2026-03-29T12:09:54.017Z</time></trkpt><trkpt lat="39.44173" lon="16.9694017"><ele>58.5</ele><time>2026-03-29T12:09:55.017Z</time></trkpt><trkpt lat="39.4417717" lon="16.969535"><ele>61.0</ele><time>2026-03-29T12:09:56.017Z</time></trkpt><trkpt lat="39.4418067" lon="16.969695"><ele>63.5</ele><time>2026-03-29T12:09:57.017Z</time></trkpt><trkpt lat="39.4418533" lon="16.9698467"><ele>66.0</ele><time>2026-03-29T12:09:58.017Z</time></trkpt><trkpt lat="39.4419067" lon="16.9699967"><ele>67.39999999999999</ele><time>2026-03-29T12:09:59.017Z</time></trkpt><trkpt lat="39.4419667" lon="16.9701217"><ele>68.8</ele><time>2026-03-29T12:10:00.016Z</time></trkpt><trkpt lat="39.44203" lon="16.97023"><ele>70.19999999999999</ele><time>2026-03-29T12:10:01.017Z</time></trkpt><trkpt lat="39.4420917" lon="16.9703283"><ele>71.6</ele><time>2026-03-29T12:10:02.016Z</time></trkpt><trkpt lat="39.442155" lon="16.970405"><ele>73.0</ele><time>2026-03-29T12:10:03.017Z</time></trkpt><trkpt lat="39.4422217" lon="16.9704717"><ele>71.0</ele><time>2026-03-29T12:10:04.017Z</time></trkpt><trkpt lat="39.4422833" lon="16.97054"><ele>69.0</ele><time>2026-03-29T12:10:05.017Z</time></trkpt><trkpt lat="39.44234" lon="16.97061"><ele>67.0</ele><time>2026-03-29T12:10:06.017Z</time></trkpt><trkpt lat="39.442385" lon="16.9706733"><ele>65.0</ele><time>2026-03-29T12:10:07.017Z</time></trkpt><trkpt lat="39.4424533" lon="16.9707683"><ele>62.99999999999999</ele><time>2026-03-29T12:10:09.017Z</time></trkpt><trkpt lat="39.4425017" lon="16.9708517"><ele>61.0</ele><time>2026-03-29T12:10:11.017Z</time></trkpt><trkpt lat="39.44257" lon="16.970935"><ele>60.99999999999999</ele><time>2026-03-29T12:10:13.017Z</time></trkpt><trkpt lat="39.44264" lon="16.9710233"><ele>61.0</ele><time>2026-03-29T12:10:15.017Z</time></trkpt><trkpt lat="39.4427117" lon="16.9711"><ele>61.0</ele><time>2026-03-29T12:10:17.017Z</time></trkpt><trkpt lat="39.44279" lon="16.9711617"><ele>61.0</ele><time>2026-03-29T12:10:19.017Z</time></trkpt><trkpt lat="39.44286" lon="16.9712083"><ele>60.99999999999999</ele><time>2026-03-29T12:10:21.017Z</time></trkpt><trkpt lat="39.442925" lon="16.9712733"><ele>61.0</ele><time>2026-03-29T12:10:23.016Z</time></trkpt><trkpt lat="39.442995" lon="16.971355"><ele>61.666666666666664</ele><time>2026-03-29T12:10:25.017Z</time></trkpt><trkpt lat="39.44305" lon="16.9714517"><ele>62.33333333333333</ele><time>2026-03-29T12:10:27.017Z</time></trkpt><trkpt lat="39.4430967" lon="16.9715383"><ele>63.0</ele><time>2026-03-29T12:10:29.017Z</time></trkpt><trkpt lat="39.4431483" lon="16.971605"><ele>63.66666666666667</ele><time>2026-03-29T12:10:31.017Z</time></trkpt><trkpt lat="39.44321" lon="16.9716833"><ele>64.33333333333334</ele><time>2026-03-29T12:10:33.017Z</time></trkpt><trkpt lat="39.4432733" lon="16.9717617"><ele>65.0</ele><time>2026-03-29T12:10:35.017Z</time></trkpt><trkpt lat="39.4433283" lon="16.9718417"><ele>65.00000000000001</ele><time>2026-03-29T12:10:37.017Z</time></trkpt><trkpt lat="39.443375" lon="16.9719017"><ele>65.0</ele><time>2026-03-29T12:10:39.017Z</time></trkpt><trkpt lat="39.4434367" lon="16.97195"><ele>65.0</ele><time>2026-03-29T12:10:41.017Z</time></trkpt><trkpt lat="39.4435033" lon="16.9719867"><ele>65.0</ele><time>2026-03-29T12:10:43.017Z</time></trkpt><trkpt lat="39.4435717" lon="16.9720267"><ele>65.0</ele><time>2026-03-29T12:10:45.017Z</time></trkpt><trkpt lat="39.443645" lon="16.9720833"><ele>65.00000000000001</ele><time>2026-03-29T12:10:48.017Z</time></trkpt><trkpt lat="39.4437" lon="16.9721333"><ele>65.0</ele><time>2026-03-29T12:10:51.016Z</time></trkpt><trkpt lat="39.44376" lon="16.9721667"><ele>63.16666666666667</ele><time>2026-03-29T12:10:54.017Z</time></trkpt><trkpt lat="39.4438333" lon="16.9721983"><ele>61.333333333333336</ele><time>2026-03-29T12:10:57.017Z</time></trkpt><trkpt lat="39.4439017" lon="16.9722533"><ele>59.5</ele><time>2026-03-29T12:11:00.017Z</time></trkpt><trkpt lat="39.4439667" lon="16.97232"><ele>57.66666666666667</ele><time>2026-03-29T12:11:03.017Z</time></trkpt><trkpt lat="39.44402" lon="16.9723817"><ele>55.833333333333336</ele><time>2026-03-29T12:11:06.017Z</time></trkpt><trkpt lat="39.4440783" lon="16.972445"><ele>54.0</ele><time>2026-03-29T12:11:09.017Z</time></trkpt><trkpt lat="39.4441483" lon="16.9725067"><ele>55.285714285714285</ele><time>2026-03-29T12:11:12.016Z</time></trkpt><trkpt lat="39.4442267" lon="16.97256"><ele>56.57142857142857</ele><time>2026-03-29T12:11:15.017Z</time></trkpt><trkpt lat="39.4442933" lon="16.9726033"><ele>57.85714285714286</ele><time>2026-03-29T12:11:18.017Z</time></trkpt><trkpt lat="39.4443483" lon="16.972645"><ele>59.14285714285714</ele><time>2026-03-29T12:11:21.016Z</time></trkpt><trkpt lat="39.4444117" lon="16.9726917"><ele>60.42857142857143</ele><time>2026-03-29T12:11:39.017Z</time></trkpt><trkpt lat="39.4444833" lon="16.972735"><ele>61.714285714285715</ele><time>2026-03-29T12:11:42.016Z</time></trkpt><trkpt lat="39.444545" lon="16.9727683"><ele>63.0</ele><time>2026-03-29T12:11:45.017Z</time></trkpt><trkpt lat="39.444615" lon="16.9728033"><ele>61.333333333333336</ele><time>2026-03-29T12:11:48.017Z</time></trkpt><trkpt lat="39.44469" lon="16.97284"><ele>59.66666666666667</ele><time>2026-03-29T12:11:51.017Z</time></trkpt><trkpt lat="39.44475" lon="16.9728817"><ele>58.0</ele><time>2026-03-29T12:11:55.017Z</time></trkpt><trkpt lat="39.4448217" lon="16.9729717"><ele>56.333333333333336</ele><time>2026-03-29T12:13:11.017Z</time></trkpt><trkpt lat="39.4448717" lon="16.9730333"><ele>54.66666666666667</ele><time>2026-03-29T12:13:12.017Z</time></trkpt><trkpt lat="39.4449367" lon="16.9730983"><ele>53.0</ele><time>2026-03-29T12:13:13.017Z</time></trkpt><trkpt lat="39.4450117" lon="16.97317"><ele>53.0</ele><time>2026-03-29T12:13:14.016Z</time></trkpt><trkpt lat="39.4450933" lon="16.973245"><ele>53.0</ele><time>2026-03-29T12:13:15.017Z</time></trkpt><trkpt lat="39.4451833" lon="16.9733183"><ele>53.0</ele><time>2026-03-29T12:13:16.016Z</time></trkpt><trkpt lat="39.445285" lon="16.9733867"><ele>53.0</ele><time>2026-03-29T12:13:17.017Z</time></trkpt><trkpt lat="39.4453833" lon="16.97346"><ele>53.0</ele><time>2026-03-29T12:13:18.017Z</time></trkpt><trkpt lat="39.4454833" lon="16.97354"><ele>52.0</ele><time>2026-03-29T12:13:19.017Z</time></trkpt><trkpt lat="39.44558" lon="16.9736333"><ele>51.0</ele><time>2026-03-29T12:13:20.017Z</time></trkpt><trkpt lat="39.4456683" lon="16.97374"><ele>50.0</ele><time>2026-03-29T12:13:21.017Z</time></trkpt><trkpt lat="39.4457417" lon="16.9738767"><ele>49.0</ele><time>2026-03-29T12:13:22.017Z</time></trkpt><trkpt lat="39.4457917" lon="16.9740233"><ele>50.666666666666664</ele><time>2026-03-29T12:13:23.017Z</time></trkpt><trkpt lat="39.445835" lon="16.9742033"><ele>52.33333333333333</ele><time>2026-03-29T12:13:24.017Z</time></trkpt><trkpt lat="39.4458817" lon="16.9744083"><ele>54.0</ele><time>2026-03-29T12:13:25.017Z</time></trkpt><trkpt lat="39.4459367" lon="16.97463"><ele>54.0</ele><time>2026-03-29T12:13:26.017Z</time></trkpt><trkpt lat="39.4459917" lon="16.97486"><ele>54.0</ele><time>2026-03-29T12:13:27.016Z</time></trkpt><trkpt lat="39.446045" lon="16.9750983"><ele>54.0</ele><time>2026-03-29T12:13:28.016Z</time></trkpt><trkpt lat="39.4460983" lon="16.9753317"><ele>56.0</ele><time>2026-03-29T12:13:29.017Z</time></trkpt><trkpt lat="39.446145" lon="16.975555"><ele>58.0</ele><time>2026-03-29T12:13:30.017Z</time></trkpt><trkpt lat="39.4461917" lon="16.9757533"><ele>60.0</ele><time>2026-03-29T12:13:31.017Z</time></trkpt><trkpt lat="39.44623" lon="16.975935"><ele>60.25</ele><time>2026-03-29T12:13:32.017Z</time></trkpt><trkpt lat="39.44626" lon="16.9761067"><ele>60.5</ele><time>2026-03-29T12:13:33.017Z</time></trkpt><trkpt lat="39.4462683" lon="16.9762717"><ele>60.75</ele><time>2026-03-29T12:13:34.017Z</time></trkpt><trkpt lat="39.4462633" lon="16.9764633"><ele>61.0</ele><time>2026-03-29T12:13:35.017Z</time></trkpt><trkpt lat="39.446245" lon="16.9766783"><ele>60.0</ele><time>2026-03-29T12:13:36.017Z</time></trkpt><trkpt lat="39.44622" lon="16.9769217"><ele>59.0</ele><time>2026-03-29T12:13:37.017Z</time></trkpt><trkpt lat="39.4462117" lon="16.9771667"><ele>58.0</ele><time>2026-03-29T12:13:38.017Z</time></trkpt><trkpt lat="39.4461933" lon="16.97739"><ele>56.5</ele><time>2026-03-29T12:13:39.016Z</time></trkpt><trkpt lat="39.446175" lon="16.9775883"><ele>55.0</ele><time>2026-03-29T12:13:40.017Z</time></trkpt><trkpt lat="39.4461533" lon="16.9777567"><ele>53.5</ele><time>2026-03-29T12:13:41.016Z</time></trkpt><trkpt lat="39.4461117" lon="16.9779067"><ele>52.0</ele><time>2026-03-29T12:13:42.017Z</time></trkpt><trkpt lat="39.4460517" lon="16.9780333"><ele>52.0</ele><time>2026-03-29T12:13:43.017Z</time></trkpt><trkpt lat="39.4459667" lon="16.9781233"><ele>52.0</ele><time>2026-03-29T12:13:44.017Z</time></trkpt><trkpt lat="39.44587" lon="16.9781867"><ele>52.0</ele><time>2026-03-29T12:13:45.017Z</time></trkpt><trkpt lat="39.4457517" lon="16.97824"><ele>52.0</ele><time>2026-03-29T12:13:46.017Z</time></trkpt><trkpt lat="39.445615" lon="16.9782717"><ele>50.33333333333333</ele><time>2026-03-29T12:13:47.017Z</time></trkpt><trkpt lat="39.44546" lon="16.9783033"><ele>48.666666666666664</ele><time>2026-03-29T12:13:48.016Z</time></trkpt><trkpt lat="39.4452917" lon="16.9783317"><ele>47.0</ele><time>2026-03-29T12:13:49.017Z</time></trkpt><trkpt lat="39.4451183" lon="16.9783567"><ele>47.0</ele><time>2026-03-29T12:13:50.017Z</time></trkpt><trkpt lat="39.4449583" lon="16.9783783"><ele>47.0</ele><time>2026-03-29T12:13:51.017Z</time></trkpt><trkpt lat="39.44481" lon="16.978405"><ele>47.0</ele><time>2026-03-29T12:13:52.017Z</time></trkpt><trkpt lat="39.4446633" lon="16.9784467"><ele>49.33333333333333</ele><time>2026-03-29T12:13:53.017Z</time></trkpt><trkpt lat="39.44451" lon="16.9785133"><ele>51.666666666666664</ele><time>2026-03-29T12:13:54.017Z</time></trkpt><trkpt lat="39.4443517" lon="16.978595"><ele>54.0</ele><time>2026-03-29T12:13:55.017Z</time></trkpt><trkpt lat="39.4441933" lon="16.9786717"><ele>54.0</ele><time>2026-03-29T12:13:56.017Z</time></trkpt><trkpt lat="39.4440233" lon="16.9787267"><ele>54.0</ele><time>2026-03-29T12:13:57.017Z</time></trkpt><trkpt lat="39.4438567" lon="16.9787667"><ele>54.0</ele><time>2026-03-29T12:13:58.017Z</time></trkpt><trkpt lat="39.4436817" lon="16.9788033"><ele>54.33333333333333</ele><time>2026-03-29T12:13:59.017Z</time></trkpt><trkpt lat="39.4435033" lon="16.97883"><ele>54.666666666666664</ele><time>2026-03-29T12:14:00.017Z</time></trkpt><trkpt lat="39.443335" lon="16.9788467"><ele>55.0</ele><time>2026-03-29T12:14:01.017Z</time></trkpt><trkpt lat="39.4431883" lon="16.9788633"><ele>55.0</ele><time>2026-03-29T12:14:02.017Z</time></trkpt><trkpt lat="39.4430433" lon="16.9788783"><ele>55.0</ele><time>2026-03-29T12:14:03.017Z</time></trkpt><trkpt lat="39.4429033" lon="16.9788933"><ele>55.0</ele><time>2026-03-29T12:14:04.017Z</time></trkpt><trkpt lat="39.44278" lon="16.978895"><ele>55.0</ele><time>2026-03-29T12:14:05.017Z</time></trkpt><trkpt lat="39.4426583" lon="16.9788883"><ele>55.25</ele><time>2026-03-29T12:14:06.017Z</time></trkpt><trkpt lat="39.44253" lon="16.9788717"><ele>55.5</ele><time>2026-03-29T12:14:07.017Z</time></trkpt><trkpt lat="39.442395" lon="16.9788483"><ele>55.75</ele><time>2026-03-29T12:14:08.017Z</time></trkpt><trkpt lat="39.4422633" lon="16.9788233"><ele>56.0</ele><time>2026-03-29T12:14:09.017Z</time></trkpt><trkpt lat="39.4421283" lon="16.9788067"><ele>56.0</ele><time>2026-03-29T12:14:10.017Z</time></trkpt><trkpt lat="39.4419967" lon="16.9788183"><ele>56.0</ele><time>2026-03-29T12:14:11.017Z</time></trkpt><trkpt lat="39.441865" lon="16.97886"><ele>56.0</ele><time>2026-03-29T12:14:12.016Z</time></trkpt><trkpt lat="39.4417417" lon="16.9789317"><ele>56.0</ele><time>2026-03-29T12:14:13.017Z</time></trkpt><trkpt lat="39.4416183" lon="16.9790133"><ele>56.0</ele><time>2026-03-29T12:14:14.017Z</time></trkpt><trkpt lat="39.4415017" lon="16.9790867"><ele>56.0</ele><time>2026-03-29T12:14:15.017Z</time></trkpt><trkpt lat="39.4413883" lon="16.97914"><ele>56.0</ele><time>2026-03-29T12:14:16.017Z</time></trkpt><trkpt lat="39.4412783" lon="16.97916"><ele>56.0</ele><time>2026-03-29T12:14:17.017Z</time></trkpt><trkpt lat="39.4411683" lon="16.9791567"><ele>57.0</ele><time>2026-03-29T12:14:18.017Z</time></trkpt><trkpt lat="39.44106" lon="16.9791217"><ele>58.0</ele><time>2026-03-29T12:14:19.017Z</time></trkpt><trkpt lat="39.4409433" lon="16.9790667"><ele>59.0</ele><time>2026-03-29T12:14:20.017Z</time></trkpt><trkpt lat="39.4408133" lon="16.978995"><ele>60.0</ele><time>2026-03-29T12:14:21.017Z</time></trkpt><trkpt lat="39.4406617" lon="16.9789183"><ele>60.0</ele><time>2026-03-29T12:14:22.017Z</time></trkpt><trkpt lat="39.4405033" lon="16.978845"><ele>60.0</ele><time>2026-03-29T12:14:23.017Z</time></trkpt><trkpt lat="39.4403583" lon="16.9787767"><ele>60.0</ele><time>2026-03-29T12:14:24.017Z</time></trkpt><trkpt lat="39.44024" lon="16.9787267"><ele>60.0</ele><time>2026-03-29T12:14:25.017Z</time></trkpt><trkpt lat="39.4401467" lon="16.9786883"><ele>59.833333333333336</ele><time>2026-03-29T12:14:26.017Z</time></trkpt><trkpt lat="39.44007" lon="16.9786567"><ele>59.66666666666667</ele><time>2026-03-29T12:14:27.017Z</time></trkpt><trkpt lat="39.4399967" lon="16.9786433"><ele>59.5</ele><time>2026-03-29T12:14:29.017Z</time></trkpt><trkpt lat="39.43995" lon="16.9787217"><ele>59.333333333333336</ele><time>2026-03-29T12:14:53.017Z</time></trkpt><trkpt lat="39.4398867" lon="16.9788183"><ele>59.16666666666667</ele><time>2026-03-29T12:14:56.017Z</time></trkpt><trkpt lat="39.4398233" lon="16.978895"><ele>59.0</ele><time>2026-03-29T12:14:59.017Z</time></trkpt><trkpt lat="39.43975" lon="16.978975"><ele>59.00000000000001</ele><time>2026-03-29T12:15:01.017Z</time></trkpt><trkpt lat="39.4396833" lon="16.9790217"><ele>59.0</ele><time>2026-03-29T12:15:02.017Z</time></trkpt><trkpt lat="39.4396067" lon="16.9790767"><ele>59.0</ele><time>2026-03-29T12:15:03.016Z</time></trkpt><trkpt lat="39.4395283" lon="16.979125"><ele>59.0</ele><time>2026-03-29T12:15:04.017Z</time></trkpt><trkpt lat="39.439455" lon="16.97917"><ele>59.00000000000001</ele><time>2026-03-29T12:15:05.017Z</time></trkpt><trkpt lat="39.4393933" lon="16.9792233"><ele>59.0</ele><time>2026-03-29T12:15:06.017Z</time></trkpt><trkpt lat="39.4393333" lon="16.9792833"><ele>58.333333333333336</ele><time>2026-03-29T12:15:07.017Z</time></trkpt><trkpt lat="39.4392683" lon="16.979355"><ele>57.66666666666667</ele><time>2026-03-29T12:15:08.017Z</time></trkpt><trkpt lat="39.4392117" lon="16.979435"><ele>57.0</ele><time>2026-03-29T12:15:09.017Z</time></trkpt><trkpt lat="39.43916" lon="16.9795217"><ele>56.33333333333333</ele><time>2026-03-29T12:15:10.017Z</time></trkpt><trkpt lat="39.4391217" lon="16.9796167"><ele>55.666666666666664</ele><time>2026-03-29T12:15:11.017Z</time></trkpt><trkpt lat="39.439095" lon="16.97971"><ele>55.0</ele><time>2026-03-29T12:15:12.017Z</time></trkpt><trkpt lat="39.4390767" lon="16.9797983"><ele>54.99999999999999</ele><time>2026-03-29T12:15:13.017Z</time></trkpt><trkpt lat="39.439065" lon="16.9798817"><ele>55.0</ele><time>2026-03-29T12:15:14.017Z</time></trkpt><trkpt lat="39.4390533" lon="16.979965"><ele>55.0</ele><time>2026-03-29T12:15:15.017Z</time></trkpt><trkpt lat="39.439045" lon="16.9800667"><ele>55.0</ele><time>2026-03-29T12:15:16.016Z</time></trkpt><trkpt lat="39.4390367" lon="16.98019"><ele>54.99999999999999</ele><time>2026-03-29T12:15:17.017Z</time></trkpt><trkpt lat="39.4390233" lon="16.98034"><ele>55.0</ele><time>2026-03-29T12:15:18.017Z</time></trkpt><trkpt lat="39.43901" lon="16.9804917"><ele>55.2</ele><time>2026-03-29T12:15:19.016Z</time></trkpt><trkpt lat="39.439" lon="16.98064"><ele>55.4</ele><time>2026-03-29T12:15:20.017Z</time></trkpt><trkpt lat="39.438995" lon="16.9807733"><ele>55.599999999999994</ele><time>2026-03-29T12:15:21.017Z</time></trkpt><trkpt lat="39.4390033" lon="16.9808917"><ele>55.8</ele><time>2026-03-29T12:15:22.016Z</time></trkpt><trkpt lat="39.4390333" lon="16.9810083"><ele>56.0</ele><time>2026-03-29T12:15:23.016Z</time></trkpt><trkpt lat="39.4390717" lon="16.9811117"><ele>56.333333333333336</ele><time>2026-03-29T12:15:24.017Z</time></trkpt><trkpt lat="39.4391083" lon="16.9812067"><ele>56.66666666666667</ele><time>2026-03-29T12:15:25.017Z</time></trkpt><trkpt lat="39.43914" lon="16.9812983"><ele>57.0</ele><time>2026-03-29T12:15:26.016Z</time></trkpt><trkpt lat="39.4391583" lon="16.9813817"><ele>57.33333333333333</ele><time>2026-03-29T12:15:27.017Z</time></trkpt><trkpt lat="39.4391633" lon="16.9814783"><ele>57.666666666666664</ele><time>2026-03-29T12:15:28.016Z</time></trkpt><trkpt lat="39.43915" lon="16.9815917"><ele>58.0</ele><time>2026-03-29T12:15:29.017Z</time></trkpt><trkpt lat="39.43912" lon="16.9817183"><ele>57.99999999999999</ele><time>2026-03-29T12:15:30.017Z</time></trkpt><trkpt lat="39.4390917" lon="16.9818417"><ele>58.0</ele><time>2026-03-29T12:15:31.017Z</time></trkpt><trkpt lat="39.4390683" lon="16.9819617"><ele>58.0</ele><time>2026-03-29T12:15:32.017Z</time></trkpt><trkpt lat="39.4390583" lon="16.9820817"><ele>58.0</ele><time>2026-03-29T12:15:33.017Z</time></trkpt><trkpt lat="39.43906" lon="16.9821833"><ele>57.99999999999999</ele><time>2026-03-29T12:15:34.017Z</time></trkpt><trkpt lat="39.4390767" lon="16.9822817"><ele>58.0</ele><time>2026-03-29T12:15:35.017Z</time></trkpt><trkpt lat="39.439115" lon="16.9823917"><ele>58.0</ele><time>2026-03-29T12:15:36.017Z</time></trkpt><trkpt lat="39.439155" lon="16.9824833"><ele>58.0</ele><time>2026-03-29T12:15:37.016Z</time></trkpt><trkpt lat="39.4392033" lon="16.9825767"><ele>58.0</ele><time>2026-03-29T12:15:38.017Z</time></trkpt><trkpt lat="39.4392617" lon="16.982665"><ele>58.0</ele><time>2026-03-29T12:15:39.017Z</time></trkpt><trkpt lat="39.4393383" lon="16.982755"><ele>58.0</ele><time>2026-03-29T12:15:40.017Z</time></trkpt><trkpt lat="39.43942" lon="16.9828367"><ele>58.2</ele><time>2026-03-29T12:15:41.017Z</time></trkpt><trkpt lat="39.4395067" lon="16.9829017"><ele>58.4</ele><time>2026-03-29T12:15:42.017Z</time></trkpt><trkpt lat="39.4395983" lon="16.9829567"><ele>58.60000000000001</ele><time>2026-03-29T12:15:43.017Z</time></trkpt><trkpt lat="39.4397" lon="16.98301"><ele>58.800000000000004</ele><time>2026-03-29T12:15:44.017Z</time></trkpt><trkpt lat="39.4398" lon="16.9830717"><ele>59.0</ele><time>2026-03-29T12:15:45.016Z</time></trkpt><trkpt lat="39.43991" lon="16.983135"><ele>59.25</ele><time>2026-03-29T12:15:46.017Z</time></trkpt><trkpt lat="39.4400267" lon="16.983195"><ele>59.5</ele><time>2026-03-29T12:15:47.017Z</time></trkpt><trkpt lat="39.44014" lon="16.9832517"><ele>59.75</ele><time>2026-03-29T12:15:48.017Z</time></trkpt><trkpt lat="39.4402567" lon="16.9832883"><ele>60.0</ele><time>2026-03-29T12:15:49.017Z</time></trkpt><trkpt lat="39.44036" lon="16.9833233"><ele>61.2</ele><time>2026-03-29T12:15:50.017Z</time></trkpt><trkpt lat="39.4404533" lon="16.983365"><ele>62.4</ele><time>2026-03-29T12:15:51.016Z</time></trkpt><trkpt lat="39.440545" lon="16.9834267"><ele>63.599999999999994</ele><time>2026-03-29T12:15:52.016Z</time></trkpt><trkpt lat="39.4406383" lon="16.9834817"><ele>64.8</ele><time>2026-03-29T12:15:53.017Z</time></trkpt><trkpt lat="39.44073" lon="16.9835283"><ele>66.0</ele><time>2026-03-29T12:15:54.016Z</time></trkpt><trkpt lat="39.4408183" lon="16.9835583"><ele>67.0</ele><time>2026-03-29T12:15:55.017Z</time></trkpt><trkpt lat="39.4409117" lon="16.9835783"><ele>68.0</ele><time>2026-03-29T12:15:56.016Z</time></trkpt><trkpt lat="39.441" lon="16.9835933"><ele>69.0</ele><time>2026-03-29T12:15:57.017Z</time></trkpt><trkpt lat="39.44107" lon="16.9835983"><ele>70.0</ele><time>2026-03-29T12:15:58.017Z</time></trkpt><trkpt lat="39.44119" lon="16.98361"><ele>71.0</ele><time>2026-03-29T12:16:00.016Z</time></trkpt><trkpt lat="39.4412833" lon="16.983615"><ele>70.5</ele><time>2026-03-29T12:16:02.017Z</time></trkpt><trkpt lat="39.4413467" lon="16.9836467"><ele>70.0</ele><time>2026-03-29T12:16:04.016Z</time></trkpt><trkpt lat="39.44139" lon="16.9837117"><ele>69.5</ele><time>2026-03-29T12:16:06.016Z</time></trkpt><trkpt lat="39.44143" lon="16.9837867"><ele>69.0</ele><time>2026-03-29T12:16:08.016Z</time></trkpt><trkpt lat="39.4414933" lon="16.98389"><ele>68.5</ele><time>2026-03-29T12:16:10.016Z</time></trkpt><trkpt lat="39.441535" lon="16.9839633"><ele>68.0</ele><time>2026-03-29T12:16:11.016Z</time></trkpt><trkpt lat="39.4415883" lon="16.984045"><ele>68.0</ele><time>2026-03-29T12:16:12.016Z</time></trkpt><trkpt lat="39.44164" lon="16.9841367"><ele>68.0</ele><time>2026-03-29T12:16:13.016Z</time></trkpt><trkpt lat="39.4416983" lon="16.9842383"><ele>68.0</ele><time>2026-03-29T12:16:14.016Z</time></trkpt><trkpt lat="39.441755" lon="16.98434"><ele>68.0</ele><time>2026-03-29T12:16:15.016Z</time></trkpt><trkpt lat="39.4418183" lon="16.98442"><ele>68.0</ele><time>2026-03-29T12:16:16.016Z</time></trkpt><trkpt lat="39.4418967" lon="16.98447"><ele>70.2</ele><time>2026-03-29T12:16:17.016Z</time></trkpt><trkpt lat="39.4419683" lon="16.9845"><ele>72.4</ele><time>2026-03-29T12:16:18.016Z</time></trkpt><trkpt lat="39.442065" lon="16.9845133"><ele>74.60000000000001</ele><time>2026-03-29T12:16:19.016Z</time></trkpt><trkpt lat="39.4421783" lon="16.9845083"><ele>76.8</ele><time>2026-03-29T12:16:20.016Z</time></trkpt><trkpt lat="39.4422917" lon="16.9845017"><ele>79.0</ele><time>2026-03-29T12:16:21.016Z</time></trkpt><trkpt lat="39.442405" lon="16.9845183"><ele>79.0</ele><time>2026-03-29T12:16:22.016Z</time></trkpt><trkpt lat="39.4425233" lon="16.984555"><ele>79.0</ele><time>2026-03-29T12:16:23.016Z</time></trkpt><trkpt lat="39.44264" lon="16.9846267"><ele>79.0</ele><time>2026-03-29T12:16:24.016Z</time></trkpt><trkpt lat="39.4427617" lon="16.9847033"><ele>79.0</ele><time>2026-03-29T12:16:25.016Z</time></trkpt><trkpt lat="39.4429017" lon="16.9847917"><ele>78.66666666666666</ele><time>2026-03-29T12:16:26.016Z</time></trkpt><trkpt lat="39.4430433" lon="16.9848783"><ele>78.33333333333333</ele><time>2026-03-29T12:16:27.016Z</time></trkpt><trkpt lat="39.4431933" lon="16.9849633"><ele>78.0</ele><time>2026-03-29T12:16:28.016Z</time></trkpt><trkpt lat="39.4433383" lon="16.98505"><ele>79.75</ele><time>2026-03-29T12:16:29.016Z</time></trkpt><trkpt lat="39.4434667" lon="16.98512"><ele>81.5</ele><time>2026-03-29T12:16:30.016Z</time></trkpt><trkpt lat="39.4435833" lon="16.9851583"><ele>83.25</ele><time>2026-03-29T12:16:31.015Z</time></trkpt><trkpt lat="39.4437033" lon="16.9851717"><ele>85.0</ele><time>2026-03-29T12:16:32.016Z</time></trkpt><trkpt lat="39.4438283" lon="16.9851717"><ele>85.0</ele><time>2026-03-29T12:16:33.016Z</time></trkpt><trkpt lat="39.4439533" lon="16.9851683"><ele>85.0</ele><time>2026-03-29T12:16:34.016Z</time></trkpt><trkpt lat="39.4440833" lon="16.9851683"><ele>85.0</ele><time>2026-03-29T12:16:35.016Z</time></trkpt><trkpt lat="39.4442133" lon="16.9851617"><ele>85.0</ele><time>2026-03-29T12:16:36.016Z</time></trkpt><trkpt lat="39.4443333" lon="16.985145"><ele>85.0</ele><time>2026-03-29T12:16:37.016Z</time></trkpt><trkpt lat="39.4444367" lon="16.985145"><ele>85.0</ele><time>2026-03-29T12:16:38.016Z</time></trkpt><trkpt lat="39.444525" lon="16.9851783"><ele>85.0</ele><time>2026-03-29T12:16:39.016Z</time></trkpt><trkpt lat="39.4445867" lon="16.9852433"><ele>85.0</ele><time>2026-03-29T12:16:40.016Z</time></trkpt><trkpt lat="39.4446267" lon="16.985325"><ele>85.0</ele><time>2026-03-29T12:16:41.016Z</time></trkpt><trkpt lat="39.4446617" lon="16.9854233"><ele>85.0</ele><time>2026-03-29T12:16:42.016Z</time></trkpt><trkpt lat="39.444695" lon="16.9855283"><ele>85.0</ele><time>2026-03-29T12:16:43.016Z</time></trkpt><trkpt lat="39.4447267" lon="16.9856333"><ele>85.0</ele><time>2026-03-29T12:16:44.016Z</time></trkpt><trkpt lat="39.4447733" lon="16.9857267"><ele>85.0</ele><time>2026-03-29T12:16:45.016Z</time></trkpt><trkpt lat="39.44483" lon="16.98579"><ele>85.0</ele><time>2026-03-29T12:16:46.016Z</time></trkpt><trkpt lat="39.4448967" lon="16.98583"><ele>85.0</ele><time>2026-03-29T12:16:47.016Z</time></trkpt><trkpt lat="39.444985" lon="16.9858583"><ele>85.0</ele><time>2026-03-29T12:16:48.015Z</time></trkpt><trkpt lat="39.44508" lon="16.985875"><ele>86.2</ele><time>2026-03-29T12:16:49.016Z</time></trkpt><trkpt lat="39.445185" lon="16.98589"><ele>87.4</ele><time>2026-03-29T12:16:50.016Z</time></trkpt><trkpt lat="39.4452967" lon="16.9859033"><ele>88.6</ele><time>2026-03-29T12:16:51.016Z</time></trkpt><trkpt lat="39.4454017" lon="16.985915"><ele>89.8</ele><time>2026-03-29T12:16:52.016Z</time></trkpt><trkpt lat="39.445495" lon="16.9859383"><ele>91.0</ele><time>2026-03-29T12:16:53.016Z</time></trkpt><trkpt lat="39.4455767" lon="16.9859783"><ele>91.0</ele><time>2026-03-29T12:16:54.016Z</time></trkpt><trkpt lat="39.4456417" lon="16.98605"><ele>91.0</ele><time>2026-03-29T12:16:55.016Z</time></trkpt><trkpt lat="39.44568" lon="16.98613"><ele>91.0</ele><time>2026-03-29T12:16:56.016Z</time></trkpt><trkpt lat="39.44569" lon="16.9862283"><ele>91.0</ele><time>2026-03-29T12:16:57.015Z</time></trkpt><trkpt lat="39.4456767" lon="16.9863333"><ele>91.0</ele><time>2026-03-29T12:16:58.016Z</time></trkpt><trkpt lat="39.4456483" lon="16.9864583"><ele>91.0</ele><time>2026-03-29T12:16:59.016Z</time></trkpt><trkpt lat="39.4456217" lon="16.9866033"><ele>93.19999999999999</ele><time>2026-03-29T12:17:00.016Z</time></trkpt><trkpt lat="39.4456033" lon="16.986755"><ele>95.39999999999999</ele><time>2026-03-29T12:17:01.016Z</time></trkpt><trkpt lat="39.44559" lon="16.98689"><ele>97.6</ele><time>2026-03-29T12:17:02.016Z</time></trkpt><trkpt lat="39.44559" lon="16.9870117"><ele>99.8</ele><time>2026-03-29T12:17:03.016Z</time></trkpt><trkpt lat="39.445605" lon="16.987125"><ele>102.0</ele><time>2026-03-29T12:17:04.016Z</time></trkpt><trkpt lat="39.4456383" lon="16.9872183"><ele>102.0</ele><time>2026-03-29T12:17:05.016Z</time></trkpt><trkpt lat="39.4456883" lon="16.9873067"><ele>102.0</ele><time>2026-03-29T12:17:06.016Z</time></trkpt><trkpt lat="39.4457433" lon="16.9873983"><ele>102.0</ele><time>2026-03-29T12:17:07.016Z</time></trkpt><trkpt lat="39.445785" lon="16.9875067"><ele>102.0</ele><time>2026-03-29T12:17:08.016Z</time></trkpt><trkpt lat="39.44582" lon="16.987635"><ele>102.0</ele><time>2026-03-29T12:17:09.016Z</time></trkpt><trkpt lat="39.4458433" lon="16.9877567"><ele>103.39999999999999</ele><time>2026-03-29T12:17:10.016Z</time></trkpt><trkpt lat="39.4458533" lon="16.9878817"><ele>104.8</ele><time>2026-03-29T12:17:11.015Z</time></trkpt><trkpt lat="39.4458567" lon="16.9880117"><ele>106.2</ele><time>2026-03-29T12:17:12.016Z</time></trkpt><trkpt lat="39.4458583" lon="16.98814"><ele>107.6</ele><time>2026-03-29T12:17:13.016Z</time></trkpt><trkpt lat="39.4458667" lon="16.9882667"><ele>109.0</ele><time>2026-03-29T12:17:14.015Z</time></trkpt><trkpt lat="39.4458833" lon="16.988395"><ele>110.4</ele><time>2026-03-29T12:17:15.016Z</time></trkpt><trkpt lat="39.445915" lon="16.9885083"><ele>111.80000000000001</ele><time>2026-03-29T12:17:16.016Z</time></trkpt><trkpt lat="39.445945" lon="16.988615"><ele>113.19999999999999</ele><time>2026-03-29T12:17:17.016Z</time></trkpt><trkpt lat="39.4459767" lon="16.988715"><ele>114.6</ele><time>2026-03-29T12:17:18.016Z</time></trkpt><trkpt lat="39.446" lon="16.988805"><ele>116.0</ele><time>2026-03-29T12:17:19.016Z</time></trkpt><trkpt lat="39.44602" lon="16.9889633"><ele>116.0</ele><time>2026-03-29T12:17:21.015Z</time></trkpt><trkpt lat="39.445975" lon="16.989095"><ele>116.0</ele><time>2026-03-29T12:17:23.016Z</time></trkpt><trkpt lat="39.4458883" lon="16.9891517"><ele>116.0</ele><time>2026-03-29T12:17:25.016Z</time></trkpt><trkpt lat="39.4457917" lon="16.9891717"><ele>116.0</ele><time>2026-03-29T12:17:27.015Z</time></trkpt><trkpt lat="39.44569" lon="16.989215"><ele>116.0</ele><time>2026-03-29T12:17:29.016Z</time></trkpt><trkpt lat="39.4455833" lon="16.98927"><ele>115.66666666666666</ele><time>2026-03-29T12:17:31.016Z</time></trkpt><trkpt lat="39.4455167" lon="16.9893083"><ele>115.33333333333333</ele><time>2026-03-29T12:17:33.016Z</time></trkpt><trkpt lat="39.4454467" lon="16.9893417"><ele>115.0</ele><time>2026-03-29T12:17:39.015Z</time></trkpt><trkpt lat="39.445385" lon="16.98938"><ele>114.66666666666666</ele><time>2026-03-29T12:17:42.016Z</time></trkpt><trkpt lat="39.445315" lon="16.9894083"><ele>114.33333333333333</ele><time>2026-03-29T12:17:44.015Z</time></trkpt><trkpt lat="39.44523" lon="16.989435"><ele>114.0</ele><time>2026-03-29T12:17:46.016Z</time></trkpt><trkpt lat="39.4451283" lon="16.9894733"><ele>117.6</ele><time>2026-03-29T12:17:48.016Z</time></trkpt><trkpt lat="39.4450317" lon="16.9894983"><ele>121.2</ele><time>2026-03-29T12:17:50.015Z</time></trkpt><trkpt lat="39.444925" lon="16.9895283"><ele>124.79999999999998</ele><time>2026-03-29T12:17:52.016Z</time></trkpt><trkpt lat="39.44485" lon="16.98954"><ele>128.4</ele><time>2026-03-29T12:17:54.016Z</time></trkpt><trkpt lat="39.4447717" lon="16.9895683"><ele>132.0</ele><time>2026-03-29T12:17:56.016Z</time></trkpt><trkpt lat="39.444675" lon="16.9895867"><ele>135.4</ele><time>2026-03-29T12:17:58.016Z</time></trkpt><trkpt lat="39.4445633" lon="16.989625"><ele>138.79999999999998</ele><time>2026-03-29T12:18:00.016Z</time></trkpt><trkpt lat="39.44449" lon="16.9896517"><ele>142.2</ele><time>2026-03-29T12:18:01.015Z</time></trkpt><trkpt lat="39.444415" lon="16.98968"><ele>145.6</ele><time>2026-03-29T12:18:02.016Z</time></trkpt><trkpt lat="39.4443483" lon="16.9897083"><ele>149.0</ele><time>2026-03-29T12:18:03.016Z</time></trkpt><trkpt lat="39.4442383" lon="16.9897583"><ele>149.0</ele><time>2026-03-29T12:18:05.016Z</time></trkpt><trkpt lat="39.4441417" lon="16.989785"><ele>149.0</ele><time>2026-03-29T12:18:07.016Z</time></trkpt><trkpt lat="39.4440383" lon="16.9897633"><ele>149.0</ele><time>2026-03-29T12:18:09.016Z</time></trkpt><trkpt lat="39.44393" lon="16.9897117"><ele>149.0</ele><time>2026-03-29T12:18:11.016Z</time></trkpt><trkpt lat="39.4438333" lon="16.989665"><ele>149.0</ele><time>2026-03-29T12:18:13.015Z</time></trkpt><trkpt lat="39.4437517" lon="16.9896183"><ele>154.0</ele><time>2026-03-29T12:18:15.016Z</time></trkpt><trkpt lat="39.44366" lon="16.989575"><ele>159.0</ele><time>2026-03-29T12:18:17.016Z</time></trkpt><trkpt lat="39.4435583" lon="16.9895333"><ele>164.0</ele><time>2026-03-29T12:18:19.016Z</time></trkpt><trkpt lat="39.4434617" lon="16.9894883"><ele>169.0</ele><time>2026-03-29T12:18:21.016Z</time></trkpt><trkpt lat="39.4433583" lon="16.989475"><ele>174.0</ele><time>2026-03-29T12:18:23.016Z</time></trkpt><trkpt lat="39.4432533" lon="16.98947"><ele>174.0</ele><time>2026-03-29T12:18:25.015Z</time></trkpt><trkpt lat="39.44317" lon="16.98941"><ele>174.0</ele><time>2026-03-29T12:18:27.016Z</time></trkpt><trkpt lat="39.4430867" lon="16.9893683"><ele>174.0</ele><time>2026-03-29T12:18:29.016Z</time></trkpt><trkpt lat="39.443005" lon="16.98933"><ele>174.0</ele><time>2026-03-29T12:18:31.016Z</time></trkpt><trkpt lat="39.442915" lon="16.9893117"><ele>174.0</ele><time>2026-03-29T12:18:33.016Z</time></trkpt><trkpt lat="39.4428383" lon="16.98932"><ele>174.0</ele><time>2026-03-29T12:18:35.016Z</time></trkpt><trkpt lat="39.442765" lon="16.9892983"><ele>173.5</ele><time>2026-03-29T12:18:37.016Z</time></trkpt><trkpt lat="39.4426933" lon="16.98927"><ele>173.0</ele><time>2026-03-29T12:18:39.016Z</time></trkpt><trkpt lat="39.4426117" lon="16.989255"><ele>172.5</ele><time>2026-03-29T12:18:41.016Z</time></trkpt><trkpt lat="39.442535" lon="16.9891933"><ele>172.0</ele><time>2026-03-29T12:18:43.016Z</time></trkpt><trkpt lat="39.4424683" lon="16.9890917"><ele>171.5</ele><time>2026-03-29T12:18:45.016Z</time></trkpt><trkpt lat="39.4424117" lon="16.9890117"><ele>171.0</ele><time>2026-03-29T12:18:47.016Z</time></trkpt><trkpt lat="39.442355" lon="16.9889417"><ele>171.0</ele><time>2026-03-29T12:18:49.016Z</time></trkpt><trkpt lat="39.4422667" lon="16.9888733"><ele>171.0</ele><time>2026-03-29T12:18:51.016Z</time></trkpt><trkpt lat="39.4421483" lon="16.98882"><ele>171.0</ele><time>2026-03-29T12:18:53.016Z</time></trkpt><trkpt lat="39.44208" lon="16.9888033"><ele>171.0</ele><time>2026-03-29T12:18:54.015Z</time></trkpt><trkpt lat="39.4419717" lon="16.9887567"><ele>171.0</ele><time>2026-03-29T12:18:56.016Z</time></trkpt><trkpt lat="39.4418917" lon="16.9886867"><ele>174.16666666666666</ele><time>2026-03-29T12:18:58.016Z</time></trkpt><trkpt lat="39.4418133" lon="16.988635"><ele>177.33333333333334</ele><time>2026-03-29T12:19:00.016Z</time></trkpt><trkpt lat="39.4417517" lon="16.9886067"><ele>180.5</ele><time>2026-03-29T12:19:02.016Z</time></trkpt><trkpt lat="39.4416783" lon="16.9885733"><ele>183.66666666666669</ele><time>2026-03-29T12:19:04.016Z</time></trkpt><trkpt lat="39.4415833" lon="16.9885433"><ele>186.83333333333334</ele><time>2026-03-29T12:19:06.016Z</time></trkpt><trkpt lat="39.4414767" lon="16.98854"><ele>190.0</ele><time>2026-03-29T12:19:08.016Z</time></trkpt><trkpt lat="39.4413467" lon="16.9885533"><ele>190.5</ele><time>2026-03-29T12:19:10.016Z</time></trkpt><trkpt lat="39.4412667" lon="16.988555"><ele>191.0</ele><time>2026-03-29T12:19:11.016Z</time></trkpt><trkpt lat="39.4412" lon="16.9885383"><ele>191.5</ele><time>2026-03-29T12:19:12.015Z</time></trkpt><trkpt lat="39.441125" lon="16.9885183"><ele>192.0</ele><time>2026-03-29T12:19:13.015Z</time></trkpt><trkpt lat="39.441015" lon="16.988465"><ele>192.49999999999997</ele><time>2026-03-29T12:19:15.016Z</time></trkpt><trkpt lat="39.4409183" lon="16.98843"><ele>193.0</ele><time>2026-03-29T12:19:17.016Z</time></trkpt><trkpt lat="39.4408117" lon="16.988415"><ele>193.0</ele><time>2026-03-29T12:19:19.016Z</time></trkpt><trkpt lat="39.440705" lon="16.9884183"><ele>193.0</ele><time>2026-03-29T12:19:21.015Z</time></trkpt><trkpt lat="39.4405967" lon="16.9884367"><ele>193.0</ele><time>2026-03-29T12:19:23.016Z</time></trkpt><trkpt lat="39.44049" lon="16.988485"><ele>193.0</ele><time>2026-03-29T12:19:25.016Z</time></trkpt><trkpt lat="39.4404" lon="16.988575"><ele>193.0</ele><time>2026-03-29T12:19:27.016Z</time></trkpt><trkpt lat="39.440315" lon="16.98868"><ele>193.16666666666666</ele><time>2026-03-29T12:19:29.016Z</time></trkpt><trkpt lat="39.4402633" lon="16.98873"><ele>193.33333333333331</ele><time>2026-03-29T12:19:30.016Z</time></trkpt><trkpt lat="39.4401667" lon="16.9887567"><ele>193.5</ele><time>2026-03-29T12:19:32.016Z</time></trkpt><trkpt lat="39.4400767" lon="16.9887133"><ele>193.66666666666669</ele><time>2026-03-29T12:19:34.016Z</time></trkpt><trkpt lat="39.4399867" lon="16.9887067"><ele>193.83333333333334</ele><time>2026-03-29T12:19:36.016Z</time></trkpt><trkpt lat="39.439905" lon="16.9887067"><ele>194.0</ele><time>2026-03-29T12:19:38.016Z</time></trkpt><trkpt lat="39.4398283" lon="16.9887067"><ele>194.00000000000003</ele><time>2026-03-29T12:19:40.016Z</time></trkpt><trkpt lat="39.4397267" lon="16.9887317"><ele>194.0</ele><time>2026-03-29T12:19:42.016Z</time></trkpt><trkpt lat="39.4396167" lon="16.988785"><ele>194.0</ele><time>2026-03-29T12:19:44.016Z</time></trkpt><trkpt lat="39.43955" lon="16.98881"><ele>194.0</ele><time>2026-03-29T12:19:45.016Z</time></trkpt><trkpt lat="39.4394867" lon="16.98884"><ele>194.00000000000003</ele><time>2026-03-29T12:19:46.016Z</time></trkpt><trkpt lat="39.4394283" lon="16.988885"><ele>194.0</ele><time>2026-03-29T12:19:47.016Z</time></trkpt><trkpt lat="39.4393767" lon="16.9889317"><ele>193.16666666666669</ele><time>2026-03-29T12:19:48.015Z</time></trkpt><trkpt lat="39.439305" lon="16.9890483"><ele>192.33333333333334</ele><time>2026-03-29T12:19:50.016Z</time></trkpt><trkpt lat="39.4392683" lon="16.98912"><ele>191.5</ele><time>2026-03-29T12:19:51.016Z</time></trkpt><trkpt lat="39.439225" lon="16.98919"><ele>190.66666666666669</ele><time>2026-03-29T12:19:52.016Z</time></trkpt><trkpt lat="39.4391483" lon="16.9893283"><ele>189.83333333333334</ele><time>2026-03-29T12:19:54.016Z</time></trkpt><trkpt lat="39.4391117" lon="16.989395"><ele>189.0</ele><time>2026-03-29T12:19:55.016Z</time></trkpt><trkpt lat="39.4390633" lon="16.9894567"><ele>188.0</ele><time>2026-03-29T12:19:56.016Z</time></trkpt><trkpt lat="39.4390117" lon="16.989515"><ele>187.0</ele><time>2026-03-29T12:19:57.016Z</time></trkpt><trkpt lat="39.438955" lon="16.98958"><ele>186.0</ele><time>2026-03-29T12:19:58.016Z</time></trkpt><trkpt lat="39.4389" lon="16.989635"><ele>185.0</ele><time>2026-03-29T12:19:59.016Z</time></trkpt><trkpt lat="39.4388533" lon="16.98969"><ele>184.0</ele><time>2026-03-29T12:20:00.016Z</time></trkpt><trkpt lat="39.4388067" lon="16.98975"><ele>183.0</ele><time>2026-03-29T12:20:01.016Z</time></trkpt><trkpt lat="39.438765" lon="16.9898117"><ele>182.0</ele><time>2026-03-29T12:20:02.016Z</time></trkpt><trkpt lat="39.43872" lon="16.98987"><ele>182.0</ele><time>2026-03-29T12:20:03.016Z</time></trkpt><trkpt lat="39.4386717" lon="16.989925"><ele>182.0</ele><time>2026-03-29T12:20:04.015Z</time></trkpt><trkpt lat="39.438585" lon="16.9900117"><ele>182.0</ele><time>2026-03-29T12:20:06.016Z</time></trkpt><trkpt lat="39.4385217" lon="16.990095"><ele>182.0</ele><time>2026-03-29T12:20:08.016Z</time></trkpt><trkpt lat="39.4384583" lon="16.990145"><ele>182.0</ele><time>2026-03-29T12:20:10.016Z</time></trkpt><trkpt lat="39.4383917" lon="16.9901717"><ele>182.0</ele><time>2026-03-29T12:20:12.016Z</time></trkpt><trkpt lat="39.4383283" lon="16.9901967"><ele>181.66666666666666</ele><time>2026-03-29T12:20:16.016Z</time></trkpt><trkpt lat="39.4382617" lon="16.9902317"><ele>181.33333333333331</ele><time>2026-03-29T12:20:19.016Z</time></trkpt><trkpt lat="39.438205" lon="16.9902717"><ele>181.0</ele><time>2026-03-29T12:20:21.016Z</time></trkpt><trkpt lat="39.438145" lon="16.990345"><ele>180.66666666666666</ele><time>2026-03-29T12:20:24.016Z</time></trkpt><trkpt lat="39.4380933" lon="16.9904017"><ele>180.33333333333334</ele><time>2026-03-29T12:20:26.016Z</time></trkpt><trkpt lat="39.4380317" lon="16.9904933"><ele>180.0</ele><time>2026-03-29T12:20:28.016Z</time></trkpt><trkpt lat="39.4379567" lon="16.9905917"><ele>180.0</ele><time>2026-03-29T12:20:30.016Z</time></trkpt><trkpt lat="39.4378667" lon="16.9906667"><ele>180.0</ele><time>2026-03-29T12:20:32.015Z</time></trkpt><trkpt lat="39.4378083" lon="16.9907033"><ele>180.0</ele><time>2026-03-29T12:20:33.015Z</time></trkpt><trkpt lat="39.4377567" lon="16.990755"><ele>180.0</ele><time>2026-03-29T12:20:34.016Z</time></trkpt><trkpt lat="39.437705" lon="16.990805"><ele>180.0</ele><time>2026-03-29T12:20:35.016Z</time></trkpt><trkpt lat="39.4376183" lon="16.9909183"><ele>180.0</ele><time>2026-03-29T12:20:37.016Z</time></trkpt><trkpt lat="39.4375383" lon="16.9910367"><ele>179.66666666666666</ele><time>2026-03-29T12:20:39.016Z</time></trkpt><trkpt lat="39.437465" lon="16.9911467"><ele>179.33333333333334</ele><time>2026-03-29T12:20:41.015Z</time></trkpt><trkpt lat="39.4373667" lon="16.99122"><ele>179.0</ele><time>2026-03-29T12:20:43.016Z</time></trkpt><trkpt lat="39.4373033" lon="16.9912517"><ele>178.66666666666669</ele><time>2026-03-29T12:20:44.016Z</time></trkpt><trkpt lat="39.4372417" lon="16.9912817"><ele>178.33333333333334</ele><time>2026-03-29T12:20:45.016Z</time></trkpt><trkpt lat="39.4371767" lon="16.99131"><ele>178.0</ele><time>2026-03-29T12:20:46.016Z</time></trkpt><trkpt lat="39.437085" lon="16.9914033"><ele>178.0</ele><time>2026-03-29T12:20:48.016Z</time></trkpt><trkpt lat="39.4370167" lon="16.9915383"><ele>178.0</ele><time>2026-03-29T12:20:50.016Z</time></trkpt><trkpt lat="39.4369833" lon="16.9916183"><ele>178.0</ele><time>2026-03-29T12:20:51.016Z</time></trkpt><trkpt lat="39.4369467" lon="16.9917"><ele>178.0</ele><time>2026-03-29T12:20:52.016Z</time></trkpt><trkpt lat="39.4369017" lon="16.9917633"><ele>178.0</ele><time>2026-03-29T12:20:53.016Z</time></trkpt><trkpt lat="39.43685" lon="16.9918133"><ele>178.0</ele><time>2026-03-29T12:20:54.016Z</time></trkpt><trkpt lat="39.4367833" lon="16.9918567"><ele>180.66666666666669</ele><time>2026-03-29T12:20:55.016Z</time></trkpt><trkpt lat="39.4367217" lon="16.991905"><ele>183.33333333333334</ele><time>2026-03-29T12:20:56.016Z</time></trkpt><trkpt lat="39.43667" lon="16.99196"><ele>186.0</ele><time>2026-03-29T12:20:57.016Z</time></trkpt><trkpt lat="39.4366083" lon="16.9920967"><ele>188.66666666666669</ele><time>2026-03-29T12:20:59.016Z</time></trkpt><trkpt lat="39.4366017" lon="16.9921883"><ele>191.33333333333334</ele><time>2026-03-29T12:21:00.016Z</time></trkpt><trkpt lat="39.4365917" lon="16.9922733"><ele>194.0</ele><time>2026-03-29T12:21:01.016Z</time></trkpt><trkpt lat="39.436565" lon="16.9923483"><ele>194.00000000000003</ele><time>2026-03-29T12:21:02.016Z</time></trkpt><trkpt lat="39.4364733" lon="16.9924333"><ele>194.0</ele><time>2026-03-29T12:21:04.016Z</time></trkpt><trkpt lat="39.4363967" lon="16.9924367"><ele>194.0</ele><time>2026-03-29T12:21:05.016Z</time></trkpt><trkpt lat="39.436325" lon="16.992435"><ele>194.0</ele><time>2026-03-29T12:21:06.016Z</time></trkpt><trkpt lat="39.436255" lon="16.9924533"><ele>194.00000000000003</ele><time>2026-03-29T12:21:07.016Z</time></trkpt><trkpt lat="39.4361933" lon="16.9924917"><ele>194.0</ele><time>2026-03-29T12:21:08.016Z</time></trkpt><trkpt lat="39.4361233" lon="16.9925833"><ele>193.33333333333334</ele><time>2026-03-29T12:21:10.016Z</time></trkpt><trkpt lat="39.4360983" lon="16.99269"><ele>192.66666666666669</ele><time>2026-03-29T12:21:12.016Z</time></trkpt><trkpt lat="39.436095" lon="16.9928317"><ele>192.0</ele><time>2026-03-29T12:21:19.016Z</time></trkpt><trkpt lat="39.436095" lon="16.9929267"><ele>191.33333333333334</ele><time>2026-03-29T12:21:22.016Z</time></trkpt><trkpt lat="39.43608" lon="16.99301"><ele>190.66666666666669</ele><time>2026-03-29T12:21:25.016Z</time></trkpt><trkpt lat="39.436005" lon="16.993085"><ele>190.0</ele><time>2026-03-29T12:21:33.015Z</time></trkpt><trkpt lat="39.43592" lon="16.9931167"><ele>190.0</ele><time>2026-03-29T12:21:36.016Z</time></trkpt><trkpt lat="39.4358583" lon="16.9931583"><ele>190.0</ele><time>2026-03-29T12:21:38.016Z</time></trkpt><trkpt lat="39.4357983" lon="16.9932167"><ele>190.0</ele><time>2026-03-29T12:21:40.015Z</time></trkpt><trkpt lat="39.435735" lon="16.9932767"><ele>190.0</ele><time>2026-03-29T12:21:42.016Z</time></trkpt><trkpt lat="39.43567" lon="16.99331"><ele>190.0</ele><time>2026-03-29T12:21:44.016Z</time></trkpt><trkpt lat="39.4355983" lon="16.9933517"><ele>190.0</ele><time>2026-03-29T12:21:47.016Z</time></trkpt><trkpt lat="39.4355383" lon="16.9933767"><ele>190.0</ele><time>2026-03-29T12:21:49.016Z</time></trkpt><trkpt lat="39.4354567" lon="16.9934033"><ele>190.4</ele><time>2026-03-29T12:21:51.016Z</time></trkpt><trkpt lat="39.435375" lon="16.9934183"><ele>190.8</ele><time>2026-03-29T12:21:53.016Z</time></trkpt><trkpt lat="39.4352783" lon="16.9934317"><ele>191.2</ele><time>2026-03-29T12:21:55.016Z</time></trkpt><trkpt lat="39.435165" lon="16.99347"><ele>191.6</ele><time>2026-03-29T12:21:57.016Z</time></trkpt><trkpt lat="39.4350533" lon="16.993525"><ele>192.0</ele><time>2026-03-29T12:21:59.016Z</time></trkpt><trkpt lat="39.4349617" lon="16.9936083"><ele>192.0</ele><time>2026-03-29T12:22:01.016Z</time></trkpt><trkpt lat="39.4349183" lon="16.99369"><ele>192.0</ele><time>2026-03-29T12:22:03.016Z</time></trkpt><trkpt lat="39.4348783" lon="16.9938033"><ele>192.0</ele><time>2026-03-29T12:22:06.016Z</time></trkpt><trkpt lat="39.434855" lon="16.99391"><ele>192.0</ele><time>2026-03-29T12:22:08.016Z</time></trkpt><trkpt lat="39.4348367" lon="16.9940217"><ele>192.0</ele><time>2026-03-29T12:22:10.016Z</time></trkpt><trkpt lat="39.4348" lon="16.9941583"><ele>193.5</ele><time>2026-03-29T12:22:12.016Z</time></trkpt><trkpt lat="39.4347483" lon="16.9942867"><ele>195.0</ele><time>2026-03-29T12:22:14.016Z</time></trkpt><trkpt lat="39.4346967" lon="16.9944233"><ele>196.5</ele><time>2026-03-29T12:22:16.015Z</time></trkpt><trkpt lat="39.43467" lon="16.9945033"><ele>198.0</ele><time>2026-03-29T12:22:17.016Z</time></trkpt><trkpt lat="39.434645" lon="16.9945883"><ele>199.5</ele><time>2026-03-29T12:22:18.015Z</time></trkpt><trkpt lat="39.4346367" lon="16.99468"><ele>201.0</ele><time>2026-03-29T12:22:19.016Z</time></trkpt><trkpt lat="39.4346283" lon="16.9947733"><ele>198.0</ele><time>2026-03-29T12:22:20.015Z</time></trkpt><trkpt lat="39.4346283" lon="16.9948683"><ele>195.0</ele><time>2026-03-29T12:22:21.016Z</time></trkpt><trkpt lat="39.43462" lon="16.9949533"><ele>192.0</ele><time>2026-03-29T12:22:22.016Z</time></trkpt><trkpt lat="39.4346083" lon="16.9950367"><ele>189.0</ele><time>2026-03-29T12:22:23.016Z</time></trkpt><trkpt lat="39.434595" lon="16.9951167"><ele>186.0</ele><time>2026-03-29T12:22:24.016Z</time></trkpt><trkpt lat="39.4345633" lon="16.9952567"><ele>183.0</ele><time>2026-03-29T12:22:26.016Z</time></trkpt><trkpt lat="39.4345233" lon="16.9953867"><ele>183.0</ele><time>2026-03-29T12:22:28.015Z</time></trkpt><trkpt lat="39.43448" lon="16.9955267"><ele>183.0</ele><time>2026-03-29T12:22:30.016Z</time></trkpt><trkpt lat="39.4344267" lon="16.9956667"><ele>183.0</ele><time>2026-03-29T12:22:32.016Z</time></trkpt><trkpt lat="39.434365" lon="16.9957917"><ele>183.0</ele><time>2026-03-29T12:22:34.016Z</time></trkpt><trkpt lat="39.434305" lon="16.995905"><ele>184.2</ele><time>2026-03-29T12:22:36.015Z</time></trkpt><trkpt lat="39.434265" lon="16.99603"><ele>185.4</ele><time>2026-03-29T12:22:38.016Z</time></trkpt><trkpt lat="39.4342683" lon="16.9961717"><ele>186.6</ele><time>2026-03-29T12:22:40.016Z</time></trkpt><trkpt lat="39.4342883" lon="16.9963317"><ele>187.79999999999998</ele><time>2026-03-29T12:22:42.016Z</time></trkpt><trkpt lat="39.434295" lon="16.9964183"><ele>189.0</ele><time>2026-03-29T12:22:43.016Z</time></trkpt><trkpt lat="39.434255" lon="16.996575"><ele>190.6</ele><time>2026-03-29T12:22:45.016Z</time></trkpt><trkpt lat="39.4342183" lon="16.9967283"><ele>192.2</ele><time>2026-03-29T12:22:47.016Z</time></trkpt><trkpt lat="39.4342433" lon="16.9968883"><ele>193.79999999999998</ele><time>2026-03-29T12:22:49.015Z</time></trkpt><trkpt lat="39.4342617" lon="16.9969817"><ele>195.39999999999998</ele><time>2026-03-29T12:22:50.016Z</time></trkpt><trkpt lat="39.4342717" lon="16.9970817"><ele>197.0</ele><time>2026-03-29T12:22:51.016Z</time></trkpt><trkpt lat="39.4342683" lon="16.9971667"><ele>197.0</ele><time>2026-03-29T12:22:52.015Z</time></trkpt><trkpt lat="39.4342383" lon="16.9973167"><ele>197.0</ele><time>2026-03-29T12:22:54.016Z</time></trkpt><trkpt lat="39.4341967" lon="16.9974383"><ele>197.0</ele><time>2026-03-29T12:22:56.015Z</time></trkpt><trkpt lat="39.4341567" lon="16.9975517"><ele>197.0</ele><time>2026-03-29T12:22:58.016Z</time></trkpt><trkpt lat="39.4341083" lon="16.9976317"><ele>197.0</ele><time>2026-03-29T12:23:10.015Z</time></trkpt><trkpt lat="39.43399" lon="16.9977183"><ele>197.33333333333334</ele><time>2026-03-29T12:23:18.016Z</time></trkpt><trkpt lat="39.4339133" lon="16.9977467"><ele>197.66666666666669</ele><time>2026-03-29T12:23:20.016Z</time></trkpt><trkpt lat="39.4338483" lon="16.9977617"><ele>198.0</ele><time>2026-03-29T12:23:22.015Z</time></trkpt><trkpt lat="39.4337767" lon="16.9977833"><ele>198.33333333333331</ele><time>2026-03-29T12:23:39.016Z</time></trkpt><trkpt lat="39.433675" lon="16.9978367"><ele>198.66666666666666</ele><time>2026-03-29T12:23:41.015Z</time></trkpt><trkpt lat="39.4336133" lon="16.997875"><ele>199.0</ele><time>2026-03-29T12:23:42.016Z</time></trkpt><trkpt lat="39.433515" lon="16.9979583"><ele>199.0</ele><time>2026-03-29T12:23:44.016Z</time></trkpt><trkpt lat="39.4334533" lon="16.99804"><ele>199.0</ele><time>2026-03-29T12:23:46.016Z</time></trkpt><trkpt lat="39.4334" lon="16.9981"><ele>199.0</ele><time>2026-03-29T12:23:48.016Z</time></trkpt><trkpt lat="39.4333317" lon="16.998175"><ele>199.0</ele><time>2026-03-29T12:23:51.016Z</time></trkpt><trkpt lat="39.4332667" lon="16.9982617"><ele>199.0</ele><time>2026-03-29T12:23:53.015Z</time></trkpt><trkpt lat="39.4331833" lon="16.9983917"><ele>200.0</ele><time>2026-03-29T12:23:55.016Z</time></trkpt><trkpt lat="39.4331283" lon="16.998445"><ele>201.0</ele><time>2026-03-29T12:23:56.016Z</time></trkpt><trkpt lat="39.43307" lon="16.9984883"><ele>202.0</ele><time>2026-03-29T12:23:57.015Z</time></trkpt><trkpt lat="39.4329883" lon="16.9985867"><ele>203.0</ele><time>2026-03-29T12:23:59.016Z</time></trkpt><trkpt lat="39.43292" lon="16.998675"><ele>204.0</ele><time>2026-03-29T12:24:01.016Z</time></trkpt><trkpt lat="39.4328383" lon="16.9987633"><ele>204.79999999999998</ele><time>2026-03-29T12:24:03.016Z</time></trkpt><trkpt lat="39.4327883" lon="16.9988917"><ele>205.6</ele><time>2026-03-29T12:24:05.016Z</time></trkpt><trkpt lat="39.4327833" lon="16.998995"><ele>206.4</ele><time>2026-03-29T12:24:07.016Z</time></trkpt><trkpt lat="39.432775" lon="16.9990967"><ele>207.2</ele><time>2026-03-29T12:24:10.016Z</time></trkpt><trkpt lat="39.4327383" lon="16.9992333"><ele>208.0</ele><time>2026-03-29T12:24:13.016Z</time></trkpt><trkpt lat="39.4327167" lon="16.9993183"><ele>208.2</ele><time>2026-03-29T12:24:14.016Z</time></trkpt><trkpt lat="39.4326867" lon="16.99941"><ele>208.4</ele><time>2026-03-29T12:24:15.016Z</time></trkpt><trkpt lat="39.43266" lon="16.9995017"><ele>208.6</ele><time>2026-03-29T12:24:16.016Z</time></trkpt><trkpt lat="39.43263" lon="16.9995783"><ele>208.79999999999998</ele><time>2026-03-29T12:24:17.016Z</time></trkpt><trkpt lat="39.4325867" lon="16.9997233"><ele>209.0</ele><time>2026-03-29T12:24:19.016Z</time></trkpt><trkpt lat="39.432555" lon="16.9998617"><ele>209.0</ele><time>2026-03-29T12:24:21.016Z</time></trkpt><trkpt lat="39.432555" lon="17.0"><ele>209.0</ele><time>2026-03-29T12:24:23.016Z</time></trkpt><trkpt lat="39.432525" lon="17.0001117"><ele>209.0</ele><time>2026-03-29T12:24:25.016Z</time></trkpt><trkpt lat="39.432455" lon="17.000195"><ele>209.0</ele><time>2026-03-29T12:24:27.016Z</time></trkpt><trkpt lat="39.4323633" lon="17.000275"><ele>209.0</ele><time>2026-03-29T12:24:29.016Z</time></trkpt><trkpt lat="39.4322983" lon="17.0003567"><ele>209.00000000000003</ele><time>2026-03-29T12:24:31.015Z</time></trkpt><trkpt lat="39.432255" lon="17.0004467"><ele>209.0</ele><time>2026-03-29T12:24:33.016Z</time></trkpt><trkpt lat="39.4322233" lon="17.0005467"><ele>209.0</ele><time>2026-03-29T12:24:35.016Z</time></trkpt><trkpt lat="39.4322033" lon="17.0006567"><ele>209.0</ele><time>2026-03-29T12:24:37.016Z</time></trkpt><trkpt lat="39.432185" lon="17.0007667"><ele>209.00000000000003</ele><time>2026-03-29T12:24:39.016Z</time></trkpt><trkpt lat="39.432185" lon="17.0008683"><ele>209.0</ele><time>2026-03-29T12:24:41.016Z</time></trkpt><trkpt lat="39.4322083" lon="17.0009483"><ele>210.16666666666669</ele><time>2026-03-29T12:24:49.016Z</time></trkpt><trkpt lat="39.4322983" lon="17.0009433"><ele>211.33333333333334</ele><time>2026-03-29T12:24:53.015Z</time></trkpt><trkpt lat="39.432365" lon="17.0008967"><ele>212.5</ele><time>2026-03-29T12:24:55.016Z</time></trkpt><trkpt lat="39.43245" lon="17.000865"><ele>213.66666666666669</ele><time>2026-03-29T12:24:57.016Z</time></trkpt><trkpt lat="39.43253" lon="17.000855"><ele>214.83333333333334</ele><time>2026-03-29T12:24:59.016Z</time></trkpt><trkpt lat="39.4325933" lon="17.0009"><ele>216.0</ele><time>2026-03-29T12:25:02.016Z</time></trkpt><trkpt lat="39.4326383" lon="17.0009817"><ele>216.0</ele><time>2026-03-29T12:25:05.016Z</time></trkpt><trkpt lat="39.4326067" lon="17.0010533"><ele>216.0</ele><time>2026-03-29T12:25:09.016Z</time></trkpt><trkpt lat="39.432555" lon="17.0011"><ele>216.0</ele><time>2026-03-29T12:25:12.016Z</time></trkpt><trkpt lat="39.4325033" lon="17.0011767"><ele>216.0</ele><time>2026-03-29T12:25:15.016Z</time></trkpt><trkpt lat="39.43245" lon="17.0012633"><ele>216.0</ele><time>2026-03-29T12:25:18.016Z</time></trkpt><trkpt lat="39.4324183" lon="17.0013583"><ele>216.0</ele><time>2026-03-29T12:25:21.016Z</time></trkpt><trkpt lat="39.4324467" lon="17.00145"><ele>216.0</ele><time>2026-03-29T12:25:24.016Z</time></trkpt><trkpt lat="39.4324967" lon="17.0015467"><ele>216.0</ele><time>2026-03-29T12:25:27.016Z</time></trkpt><trkpt lat="39.4325333" lon="17.0016533"><ele>216.0</ele><time>2026-03-29T12:25:30.016Z</time></trkpt><trkpt lat="39.4325833" lon="17.0017617"><ele>216.0</ele><time>2026-03-29T12:25:33.015Z</time></trkpt><trkpt lat="39.4326133" lon="17.001835"><ele>216.0</ele><time>2026-03-29T12:25:35.015Z</time></trkpt><trkpt lat="39.43263" lon="17.001935"><ele>216.0</ele><time>2026-03-29T12:25:38.016Z</time></trkpt><trkpt lat="39.4326683" lon="17.0020383"><ele>216.0</ele><time>2026-03-29T12:25:41.016Z</time></trkpt><trkpt lat="39.4327317" lon="17.0020717"><ele>218.83333333333334</ele><time>2026-03-29T12:25:43.016Z</time></trkpt><trkpt lat="39.432805" lon="17.0021183"><ele>221.66666666666669</ele><time>2026-03-29T12:25:46.016Z</time></trkpt><trkpt lat="39.4328483" lon="17.0022117"><ele>224.5</ele><time>2026-03-29T12:25:49.016Z</time></trkpt><trkpt lat="39.4328917" lon="17.0022717"><ele>227.33333333333334</ele><time>2026-03-29T12:25:51.016Z</time></trkpt><trkpt lat="39.4329783" lon="17.0023"><ele>230.16666666666669</ele><time>2026-03-29T12:25:54.016Z</time></trkpt><trkpt lat="39.433075" lon="17.0023133"><ele>233.0</ele><time>2026-03-29T12:25:57.015Z</time></trkpt><trkpt lat="39.433135" lon="17.0023817"><ele>233.0</ele><time>2026-03-29T12:26:00.015Z</time></trkpt><trkpt lat="39.4330867" lon="17.0024867"><ele>233.0</ele><time>2026-03-29T12:26:03.016Z</time></trkpt><trkpt lat="39.433" lon="17.0025467"><ele>233.0</ele><time>2026-03-29T12:26:05.015Z</time></trkpt><trkpt lat="39.432915" lon="17.0026083"><ele>233.0</ele><time>2026-03-29T12:26:07.015Z</time></trkpt><trkpt lat="39.4328267" lon="17.0026683"><ele>233.0</ele><time>2026-03-29T12:26:09.016Z</time></trkpt><trkpt lat="39.432765" lon="17.0027267"><ele>235.00000000000003</ele><time>2026-03-29T12:26:11.016Z</time></trkpt><trkpt lat="39.4327083" lon="17.0027683"><ele>237.0</ele><time>2026-03-29T12:26:14.015Z</time></trkpt><trkpt lat="39.4326167" lon="17.0028517"><ele>239.0</ele><time>2026-03-29T12:26:25.016Z</time></trkpt><trkpt lat="39.432575" lon="17.0029217"><ele>241.0</ele><time>2026-03-29T12:26:26.016Z</time></trkpt><trkpt lat="39.4325283" lon="17.0030217"><ele>243.00000000000003</ele><time>2026-03-29T12:26:27.016Z</time></trkpt><trkpt lat="39.43249" lon="17.0031533"><ele>245.0</ele><time>2026-03-29T12:26:28.015Z</time></trkpt><trkpt lat="39.4324567" lon="17.0032783"><ele>245.83333333333334</ele><time>2026-03-29T12:26:29.016Z</time></trkpt><trkpt lat="39.4324083" lon="17.0033733"><ele>246.66666666666669</ele><time>2026-03-29T12:26:30.015Z</time></trkpt><trkpt lat="39.4323417" lon="17.0034517"><ele>247.5</ele><time>2026-03-29T12:26:31.015Z</time></trkpt><trkpt lat="39.4322633" lon="17.0035067"><ele>248.33333333333331</ele><time>2026-03-29T12:26:32.016Z</time></trkpt><trkpt lat="39.4321733" lon="17.003535"><ele>249.16666666666666</ele><time>2026-03-29T12:26:33.015Z</time></trkpt><trkpt lat="39.432085" lon="17.0035433"><ele>250.0</ele><time>2026-03-29T12:26:34.016Z</time></trkpt><trkpt lat="39.43201" lon="17.00353"><ele>250.0</ele><time>2026-03-29T12:26:35.015Z</time></trkpt><trkpt lat="39.43194" lon="17.0035033"><ele>250.0</ele><time>2026-03-29T12:26:36.016Z</time></trkpt><trkpt lat="39.4318767" lon="17.00346"><ele>250.0</ele><time>2026-03-29T12:26:37.016Z</time></trkpt><trkpt lat="39.4318283" lon="17.003405"><ele>250.0</ele><time>2026-03-29T12:26:38.015Z</time></trkpt><trkpt lat="39.4317783" lon="17.003355"><ele>250.0</ele><time>2026-03-29T12:26:39.016Z</time></trkpt><trkpt lat="39.4317167" lon="17.0032967"><ele>250.0</ele><time>2026-03-29T12:26:40.016Z</time></trkpt><trkpt lat="39.4316533" lon="17.00324"><ele>250.0</ele><time>2026-03-29T12:26:41.016Z</time></trkpt><trkpt lat="39.43159" lon="17.0031883"><ele>249.14285714285714</ele><time>2026-03-29T12:26:42.016Z</time></trkpt><trkpt lat="39.43155" lon="17.00311"><ele>248.28571428571428</ele><time>2026-03-29T12:26:43.016Z</time></trkpt><trkpt lat="39.4315183" lon="17.0030183"><ele>247.42857142857142</ele><time>2026-03-29T12:26:44.016Z</time></trkpt><trkpt lat="39.4314917" lon="17.002915"><ele>246.57142857142856</ele><time>2026-03-29T12:26:45.016Z</time></trkpt><trkpt lat="39.4314617" lon="17.00283"><ele>245.71428571428572</ele><time>2026-03-29T12:26:46.016Z</time></trkpt><trkpt lat="39.4314217" lon="17.0027567"><ele>244.85714285714283</ele><time>2026-03-29T12:26:47.016Z</time></trkpt><trkpt lat="39.431365" lon="17.002705"><ele>243.99999999999997</ele><time>2026-03-29T12:26:48.016Z</time></trkpt><trkpt lat="39.431295" lon="17.0026717"><ele>248.33333333333331</ele><time>2026-03-29T12:26:49.016Z</time></trkpt><trkpt lat="39.4312167" lon="17.0026667"><ele>252.66666666666666</ele><time>2026-03-29T12:26:50.016Z</time></trkpt><trkpt lat="39.4311417" lon="17.0026683"><ele>257.0</ele><time>2026-03-29T12:26:51.016Z</time></trkpt><trkpt lat="39.4310717" lon="17.0026783"><ele>261.3333333333333</ele><time>2026-03-29T12:26:52.016Z</time></trkpt><trkpt lat="39.4309967" lon="17.0026767"><ele>265.6666666666667</ele><time>2026-03-29T12:26:53.016Z</time></trkpt><trkpt lat="39.4309183" lon="17.0026683"><ele>270.0</ele><time>2026-03-29T12:26:54.016Z</time></trkpt><trkpt lat="39.4308433" lon="17.002665"><ele>270.0</ele><time>2026-03-29T12:26:55.016Z</time></trkpt><trkpt lat="39.4307767" lon="17.0026667"><ele>270.0</ele><time>2026-03-29T12:26:56.016Z</time></trkpt><trkpt lat="39.430705" lon="17.0026617"><ele>270.0</ele><time>2026-03-29T12:26:57.015Z</time></trkpt><trkpt lat="39.4305867" lon="17.002635"><ele>270.0</ele><time>2026-03-29T12:26:59.016Z</time></trkpt><trkpt lat="39.4304717" lon="17.0025933"><ele>270.0</ele><time>2026-03-29T12:27:01.016Z</time></trkpt><trkpt lat="39.4303767" lon="17.0024983"><ele>273.8333333333333</ele><time>2026-03-29T12:27:03.016Z</time></trkpt><trkpt lat="39.4303083" lon="17.0023733"><ele>277.6666666666667</ele><time>2026-03-29T12:27:05.015Z</time></trkpt><trkpt lat="39.4302567" lon="17.0023233"><ele>281.5</ele><time>2026-03-29T12:27:06.016Z</time></trkpt><trkpt lat="39.4301533" lon="17.0023583"><ele>285.33333333333337</ele><time>2026-03-29T12:27:08.016Z</time></trkpt><trkpt lat="39.4301" lon="17.0024167"><ele>289.1666666666667</ele><time>2026-03-29T12:27:09.016Z</time></trkpt><trkpt lat="39.4300333" lon="17.0024783"><ele>293.0</ele><time>2026-03-29T12:27:10.016Z</time></trkpt><trkpt lat="39.4299467" lon="17.00253"><ele>293.0</ele><time>2026-03-29T12:27:11.016Z</time></trkpt><trkpt lat="39.4298617" lon="17.002585"><ele>293.0</ele><time>2026-03-29T12:27:12.016Z</time></trkpt><trkpt lat="39.4298" lon="17.0026183"><ele>293.0</ele><time>2026-03-29T12:27:13.016Z</time></trkpt><trkpt lat="39.4297167" lon="17.00266"><ele>293.0</ele><time>2026-03-29T12:27:15.016Z</time></trkpt><trkpt lat="39.4297267" lon="17.0025633"><ele>293.0</ele><time>2026-03-29T12:27:19.016Z</time></trkpt><trkpt lat="39.4297883" lon="17.002525"><ele>293.0</ele><time>2026-03-29T12:27:20.016Z</time></trkpt><trkpt lat="39.4298633" lon="17.0024667"><ele>293.6</ele><time>2026-03-29T12:27:21.015Z</time></trkpt><trkpt lat="39.42992" lon="17.002385"><ele>294.20000000000005</ele><time>2026-03-29T12:27:22.016Z</time></trkpt><trkpt lat="39.42997" lon="17.0022867"><ele>294.8</ele><time>2026-03-29T12:27:23.016Z</time></trkpt><trkpt lat="39.4300117" lon="17.0021767"><ele>295.40000000000003</ele><time>2026-03-29T12:27:24.016Z</time></trkpt><trkpt lat="39.43004" lon="17.002065"><ele>296.0</ele><time>2026-03-29T12:27:25.016Z</time></trkpt><trkpt lat="39.430055" lon="17.0019483"><ele>296.0</ele><time>2026-03-29T12:27:26.016Z</time></trkpt><trkpt lat="39.430055" lon="17.0018333"><ele>296.0</ele><time>2026-03-29T12:27:27.016Z</time></trkpt><trkpt lat="39.4300367" lon="17.0017183"><ele>296.0</ele><time>2026-03-29T12:27:28.016Z</time></trkpt><trkpt lat="39.4300067" lon="17.0016117"><ele>296.0</ele><time>2026-03-29T12:27:29.016Z</time></trkpt><trkpt lat="39.429965" lon="17.0015233"><ele>296.0</ele><time>2026-03-29T12:27:30.016Z</time></trkpt><trkpt lat="39.42991" lon="17.0014467"><ele>296.0</ele><time>2026-03-29T12:27:31.016Z</time></trkpt><trkpt lat="39.4298517" lon="17.0013767"><ele>294.2</ele><time>2026-03-29T12:27:32.016Z</time></trkpt><trkpt lat="39.4297867" lon="17.0013"><ele>292.40000000000003</ele><time>2026-03-29T12:27:33.016Z</time></trkpt><trkpt lat="39.4297167" lon="17.00122"><ele>290.6</ele><time>2026-03-29T12:27:34.016Z</time></trkpt><trkpt lat="39.4296417" lon="17.0011383"><ele>288.8</ele><time>2026-03-29T12:27:35.015Z</time></trkpt><trkpt lat="39.4295683" lon="17.0010567"><ele>287.0</ele><time>2026-03-29T12:27:36.016Z</time></trkpt><trkpt lat="39.4294833" lon="17.0009833"><ele>291.8</ele><time>2026-03-29T12:27:37.016Z</time></trkpt><trkpt lat="39.4293917" lon="17.0009167"><ele>296.6</ele><time>2026-03-29T12:27:38.016Z</time></trkpt><trkpt lat="39.42929" lon="17.0008667"><ele>301.40000000000003</ele><time>2026-03-29T12:27:39.016Z</time></trkpt><trkpt lat="39.429185" lon="17.0008367"><ele>306.2</ele><time>2026-03-29T12:27:40.016Z</time></trkpt><trkpt lat="39.4290967" lon="17.0008367"><ele>311.0</ele><time>2026-03-29T12:27:41.016Z</time></trkpt><trkpt lat="39.4289967" lon="17.0008517"><ele>311.0</ele><time>2026-03-29T12:27:42.016Z</time></trkpt><trkpt lat="39.4288917" lon="17.00088"><ele>311.0</ele><time>2026-03-29T12:27:43.016Z</time></trkpt><trkpt lat="39.42878" lon="17.0009217"><ele>311.0</ele><time>2026-03-29T12:27:44.016Z</time></trkpt><trkpt lat="39.42867" lon="17.00098"><ele>311.0</ele><time>2026-03-29T12:27:45.015Z</time></trkpt><trkpt lat="39.428565" lon="17.0010583"><ele>309.25</ele><time>2026-03-29T12:27:46.016Z</time></trkpt><trkpt lat="39.4284817" lon="17.0011683"><ele>307.5</ele><time>2026-03-29T12:27:47.016Z</time></trkpt><trkpt lat="39.428405" lon="17.0012917"><ele>305.75</ele><time>2026-03-29T12:27:48.016Z</time></trkpt><trkpt lat="39.4283267" lon="17.001415"><ele>304.0</ele><time>2026-03-29T12:27:49.016Z</time></trkpt><trkpt lat="39.42825" lon="17.00156"><ele>305.0</ele><time>2026-03-29T12:27:50.016Z</time></trkpt><trkpt lat="39.4281533" lon="17.0017017"><ele>306.0</ele><time>2026-03-29T12:27:51.016Z</time></trkpt><trkpt lat="39.4280567" lon="17.0018333"><ele>307.0</ele><time>2026-03-29T12:27:52.016Z</time></trkpt><trkpt lat="39.4279533" lon="17.001935"><ele>308.0</ele><time>2026-03-29T12:27:53.016Z</time></trkpt><trkpt lat="39.4278333" lon="17.002005"><ele>308.0</ele><time>2026-03-29T12:27:54.016Z</time></trkpt><trkpt lat="39.4277067" lon="17.0020583"><ele>308.0</ele><time>2026-03-29T12:27:55.016Z</time></trkpt><trkpt lat="39.427575" lon="17.0020817"><ele>308.0</ele><time>2026-03-29T12:27:56.016Z</time></trkpt><trkpt lat="39.427455" lon="17.0021067"><ele>308.0</ele><time>2026-03-29T12:27:57.016Z</time></trkpt><trkpt lat="39.4273467" lon="17.00211"><ele>308.0</ele><time>2026-03-29T12:27:58.016Z</time></trkpt><trkpt lat="39.427235" lon="17.0021217"><ele>308.0</ele><time>2026-03-29T12:27:59.016Z</time></trkpt><trkpt lat="39.42714" lon="17.002135"><ele>308.0</ele><time>2026-03-29T12:28:00.016Z</time></trkpt><trkpt lat="39.4270433" lon="17.0021667"><ele>308.0</ele><time>2026-03-29T12:28:01.016Z</time></trkpt><trkpt lat="39.42694" lon="17.0022233"><ele>308.0</ele><time>2026-03-29T12:28:02.016Z</time></trkpt><trkpt lat="39.4268267" lon="17.0023017"><ele>307.5</ele><time>2026-03-29T12:28:03.016Z</time></trkpt><trkpt lat="39.4267017" lon="17.002395"><ele>307.0</ele><time>2026-03-29T12:28:04.015Z</time></trkpt><trkpt lat="39.4265667" lon="17.0024767"><ele>306.5</ele><time>2026-03-29T12:28:05.016Z</time></trkpt><trkpt lat="39.42644" lon="17.00256"><ele>306.0</ele><time>2026-03-29T12:28:06.016Z</time></trkpt><trkpt lat="39.4263217" lon="17.0026317"><ele>309.20000000000005</ele><time>2026-03-29T12:28:07.016Z</time></trkpt><trkpt lat="39.4262233" lon="17.0026817"><ele>312.40000000000003</ele><time>2026-03-29T12:28:08.016Z</time></trkpt><trkpt lat="39.426135" lon="17.0027283"><ele>315.6</ele><time>2026-03-29T12:28:09.016Z</time></trkpt><trkpt lat="39.42605" lon="17.0027817"><ele>318.8</ele><time>2026-03-29T12:28:10.016Z</time></trkpt><trkpt lat="39.4259683" lon="17.0028383"><ele>322.0</ele><time>2026-03-29T12:28:11.016Z</time></trkpt><trkpt lat="39.4259" lon="17.0028917"><ele>322.0</ele><time>2026-03-29T12:28:12.016Z</time></trkpt><trkpt lat="39.4258467" lon="17.0029567"><ele>322.0</ele><time>2026-03-29T12:28:13.016Z</time></trkpt><trkpt lat="39.425795" lon="17.0030233"><ele>322.0</ele><time>2026-03-29T12:28:14.015Z</time></trkpt><trkpt lat="39.4257367" lon="17.0030883"><ele>322.0</ele><time>2026-03-29T12:28:15.016Z</time></trkpt><trkpt lat="39.4256833" lon="17.0031533"><ele>322.0</ele><time>2026-03-29T12:28:16.016Z</time></trkpt><trkpt lat="39.4256183" lon="17.00323"><ele>322.0</ele><time>2026-03-29T12:28:18.016Z</time></trkpt><trkpt lat="39.4255567" lon="17.0033183"><ele>324.5</ele><time>2026-03-29T12:28:30.015Z</time></trkpt><trkpt lat="39.425575" lon="17.0034533"><ele>327.0</ele><time>2026-03-29T12:28:33.016Z</time></trkpt><trkpt lat="39.4256083" lon="17.0036"><ele>329.5</ele><time>2026-03-29T12:28:35.016Z</time></trkpt><trkpt lat="39.4256117" lon="17.0036817"><ele>332.0</ele><time>2026-03-29T12:28:36.016Z</time></trkpt><trkpt lat="39.4255967" lon="17.0037733"><ele>334.5</ele><time>2026-03-29T12:28:37.016Z</time></trkpt><trkpt lat="39.4255717" lon="17.00386"><ele>337.0</ele><time>2026-03-29T12:28:38.016Z</time></trkpt><trkpt lat="39.4255267" lon="17.003955"><ele>337.0</ele><time>2026-03-29T12:28:39.015Z</time></trkpt><trkpt lat="39.4254833" lon="17.0040467"><ele>337.0</ele><time>2026-03-29T12:28:40.016Z</time></trkpt><trkpt lat="39.4254467" lon="17.0041367"><ele>337.0</ele><time>2026-03-29T12:28:41.016Z</time></trkpt><trkpt lat="39.42543" lon="17.0042333"><ele>337.0</ele><time>2026-03-29T12:28:42.016Z</time></trkpt><trkpt lat="39.4254083" lon="17.0043133"><ele>337.0</ele><time>2026-03-29T12:28:43.016Z</time></trkpt><trkpt lat="39.4253833" lon="17.004395"><ele>337.0</ele><time>2026-03-29T12:28:44.016Z</time></trkpt><trkpt lat="39.4252883" lon="17.0045067"><ele>339.0</ele><time>2026-03-29T12:28:46.016Z</time></trkpt><trkpt lat="39.42522" lon="17.00453"><ele>341.0</ele><time>2026-03-29T12:28:47.016Z</time></trkpt><trkpt lat="39.425095" lon="17.0045867"><ele>343.0</ele><time>2026-03-29T12:28:49.015Z</time></trkpt><trkpt lat="39.4250217" lon="17.0046333"><ele>345.0</ele><time>2026-03-29T12:28:50.016Z</time></trkpt><trkpt lat="39.4249517" lon="17.004705"><ele>347.0</ele><time>2026-03-29T12:28:51.016Z</time></trkpt><trkpt lat="39.4248967" lon="17.0047633"><ele>349.0</ele><time>2026-03-29T12:28:52.016Z</time></trkpt><trkpt lat="39.42483" lon="17.004815"><ele>349.0</ele><time>2026-03-29T12:28:53.016Z</time></trkpt><trkpt lat="39.4247583" lon="17.0048567"><ele>349.0</ele><time>2026-03-29T12:28:54.016Z</time></trkpt><trkpt lat="39.4246867" lon="17.0048933"><ele>349.0</ele><time>2026-03-29T12:28:55.016Z</time></trkpt><trkpt lat="39.4246183" lon="17.0049233"><ele>349.0</ele><time>2026-03-29T12:28:56.016Z</time></trkpt><trkpt lat="39.4245517" lon="17.0049483"><ele>349.0</ele><time>2026-03-29T12:28:57.016Z</time></trkpt><trkpt lat="39.4244767" lon="17.0049817"><ele>349.0</ele><time>2026-03-29T12:28:58.016Z</time></trkpt><trkpt lat="39.4244033" lon="17.0050167"><ele>347.3333333333333</ele><time>2026-03-29T12:28:59.016Z</time></trkpt><trkpt lat="39.4243283" lon="17.00506"><ele>345.66666666666663</ele><time>2026-03-29T12:29:00.016Z</time></trkpt><trkpt lat="39.42425" lon="17.0051017"><ele>344.0</ele><time>2026-03-29T12:29:01.016Z</time></trkpt><trkpt lat="39.4241817" lon="17.0051333"><ele>342.3333333333333</ele><time>2026-03-29T12:29:02.016Z</time></trkpt><trkpt lat="39.4241183" lon="17.0051517"><ele>340.6666666666667</ele><time>2026-03-29T12:29:03.016Z</time></trkpt><trkpt lat="39.4240233" lon="17.0051617"><ele>339.0</ele><time>2026-03-29T12:29:05.016Z</time></trkpt><trkpt lat="39.4239017" lon="17.0051183"><ele>339.0</ele><time>2026-03-29T12:29:07.015Z</time></trkpt><trkpt lat="39.423835" lon="17.0051083"><ele>339.0</ele><time>2026-03-29T12:29:08.015Z</time></trkpt><trkpt lat="39.42377" lon="17.0050983"><ele>339.0</ele><time>2026-03-29T12:29:09.016Z</time></trkpt><trkpt lat="39.4236983" lon="17.0051233"><ele>339.0</ele><time>2026-03-29T12:29:10.016Z</time></trkpt><trkpt lat="39.4236333" lon="17.0051733"><ele>339.0</ele><time>2026-03-29T12:29:11.016Z</time></trkpt><trkpt lat="39.4235633" lon="17.00524"><ele>339.0</ele><time>2026-03-29T12:29:12.016Z</time></trkpt><trkpt lat="39.4235067" lon="17.0053183"><ele>339.0</ele><time>2026-03-29T12:29:13.016Z</time></trkpt><trkpt lat="39.4234533" lon="17.0054117"><ele>339.0</ele><time>2026-03-29T12:29:14.016Z</time></trkpt><trkpt lat="39.42342" lon="17.0055217"><ele>339.0</ele><time>2026-03-29T12:29:15.016Z</time></trkpt><trkpt lat="39.4233917" lon="17.00565"><ele>339.0</ele><time>2026-03-29T12:29:16.015Z</time></trkpt><trkpt lat="39.423365" lon="17.005745"><ele>339.0</ele><time>2026-03-29T12:29:17.016Z</time></trkpt><trkpt lat="39.423325" lon="17.005825"><ele>339.0</ele><time>2026-03-29T12:29:18.016Z</time></trkpt><trkpt lat="39.4232717" lon="17.0058833"><ele>339.0</ele><time>2026-03-29T12:29:19.016Z</time></trkpt><trkpt lat="39.4231933" lon="17.0059483"><ele>339.0</ele><time>2026-03-29T12:29:21.016Z</time></trkpt><trkpt lat="39.42309" lon="17.0060567"><ele>339.0</ele><time>2026-03-29T12:29:23.016Z</time></trkpt><trkpt lat="39.4230167" lon="17.00611"><ele>339.0</ele><time>2026-03-29T12:29:24.016Z</time></trkpt><trkpt lat="39.4229367" lon="17.0061567"><ele>339.0</ele><time>2026-03-29T12:29:25.015Z</time></trkpt><trkpt lat="39.4228467" lon="17.0062067"><ele>342.2</ele><time>2026-03-29T12:29:26.016Z</time></trkpt><trkpt lat="39.4227567" lon="17.006255"><ele>345.4</ele><time>2026-03-29T12:29:27.016Z</time></trkpt><trkpt lat="39.4226833" lon="17.0063033"><ele>348.6</ele><time>2026-03-29T12:29:28.016Z</time></trkpt><trkpt lat="39.4226083" lon="17.00634"><ele>351.8</ele><time>2026-03-29T12:29:29.016Z</time></trkpt><trkpt lat="39.4225233" lon="17.0064083"><ele>355.0</ele><time>2026-03-29T12:29:30.016Z</time></trkpt><trkpt lat="39.4224467" lon="17.006475"><ele>355.0</ele><time>2026-03-29T12:29:31.016Z</time></trkpt><trkpt lat="39.4223833" lon="17.0065483"><ele>355.0</ele><time>2026-03-29T12:29:32.016Z</time></trkpt><trkpt lat="39.42232" lon="17.0066067"><ele>355.0</ele><time>2026-03-29T12:29:33.016Z</time></trkpt><trkpt lat="39.4222483" lon="17.006685"><ele>355.0</ele><time>2026-03-29T12:29:34.016Z</time></trkpt><trkpt lat="39.4221783" lon="17.0067633"><ele>355.0</ele><time>2026-03-29T12:29:35.016Z</time></trkpt><trkpt lat="39.4221067" lon="17.0068233"><ele>355.0</ele><time>2026-03-29T12:29:36.016Z</time></trkpt><trkpt lat="39.422045" lon="17.0068717"><ele>352.3333333333333</ele><time>2026-03-29T12:29:37.016Z</time></trkpt><trkpt lat="39.4219783" lon="17.006895"><ele>349.66666666666663</ele><time>2026-03-29T12:29:38.016Z</time></trkpt><trkpt lat="39.4219083" lon="17.0068933"><ele>347.0</ele><time>2026-03-29T12:29:39.016Z</time></trkpt><trkpt lat="39.4218283" lon="17.00689"><ele>344.3333333333333</ele><time>2026-03-29T12:29:40.016Z</time></trkpt><trkpt lat="39.4217433" lon="17.0069133"><ele>341.6666666666667</ele><time>2026-03-29T12:29:41.016Z</time></trkpt><trkpt lat="39.42165" lon="17.0069367"><ele>339.0</ele><time>2026-03-29T12:29:42.016Z</time></trkpt><trkpt lat="39.4215733" lon="17.0069583"><ele>339.0</ele><time>2026-03-29T12:29:43.015Z</time></trkpt><trkpt lat="39.4214983" lon="17.0069583"><ele>339.0</ele><time>2026-03-29T12:29:44.016Z</time></trkpt><trkpt lat="39.42138" lon="17.00695"><ele>339.0</ele><time>2026-03-29T12:29:46.016Z</time></trkpt><trkpt lat="39.4213133" lon="17.0069817"><ele>339.0</ele><time>2026-03-29T12:29:47.015Z</time></trkpt><trkpt lat="39.4212667" lon="17.0070367"><ele>339.0</ele><time>2026-03-29T12:29:48.016Z</time></trkpt><trkpt lat="39.421245" lon="17.0071983"><ele>336.79999999999995</ele><time>2026-03-29T12:29:50.015Z</time></trkpt><trkpt lat="39.4211933" lon="17.0073317"><ele>334.59999999999997</ele><time>2026-03-29T12:29:52.015Z</time></trkpt><trkpt lat="39.4211067" lon="17.0074017"><ele>332.4</ele><time>2026-03-29T12:29:54.016Z</time></trkpt><trkpt lat="39.4209867" lon="17.0074483"><ele>330.2</ele><time>2026-03-29T12:29:56.016Z</time></trkpt><trkpt lat="39.42092" lon="17.0074817"><ele>328.0</ele><time>2026-03-29T12:29:57.016Z</time></trkpt><trkpt lat="39.4208683" lon="17.0075283"><ele>325.5</ele><time>2026-03-29T12:29:58.016Z</time></trkpt><trkpt lat="39.4208083" lon="17.0075967"><ele>323.0</ele><time>2026-03-29T12:30:00.016Z</time></trkpt><trkpt lat="39.420765" lon="17.0076617"><ele>320.5</ele><time>2026-03-29T12:30:02.016Z</time></trkpt><trkpt lat="39.4206917" lon="17.0077533"><ele>318.0</ele><time>2026-03-29T12:30:04.016Z</time></trkpt><trkpt lat="39.42064" lon="17.007815"><ele>315.5</ele><time>2026-03-29T12:30:05.016Z</time></trkpt><trkpt lat="39.4205883" lon="17.00788"><ele>313.0</ele><time>2026-03-29T12:30:06.016Z</time></trkpt><trkpt lat="39.4205467" lon="17.0079433"><ele>310.4</ele><time>2026-03-29T12:30:07.015Z</time></trkpt><trkpt lat="39.420465" lon="17.0080717"><ele>307.8</ele><time>2026-03-29T12:30:09.016Z</time></trkpt><trkpt lat="39.4204217" lon="17.00815"><ele>305.2</ele><time>2026-03-29T12:30:10.016Z</time></trkpt><trkpt lat="39.4203833" lon="17.0082383"><ele>302.6</ele><time>2026-03-29T12:30:11.016Z</time></trkpt><trkpt lat="39.4203483" lon="17.00834"><ele>300.0</ele><time>2026-03-29T12:30:12.016Z</time></trkpt><trkpt lat="39.42032" lon="17.008455"><ele>300.0</ele><time>2026-03-29T12:30:13.016Z</time></trkpt><trkpt lat="39.42027" lon="17.0085667"><ele>300.0</ele><time>2026-03-29T12:30:14.016Z</time></trkpt><trkpt lat="39.4202083" lon="17.0086767"><ele>300.0</ele><time>2026-03-29T12:30:15.016Z</time></trkpt><trkpt lat="39.4201483" lon="17.0087817"><ele>300.0</ele><time>2026-03-29T12:30:16.016Z</time></trkpt><trkpt lat="39.42008" lon="17.0088767"><ele>300.0</ele><time>2026-03-29T12:30:17.015Z</time></trkpt><trkpt lat="39.4200117" lon="17.00896"><ele>300.0</ele><time>2026-03-29T12:30:18.016Z</time></trkpt><trkpt lat="39.4199433" lon="17.0090333"><ele>300.0</ele><time>2026-03-29T12:30:19.016Z</time></trkpt><trkpt lat="39.419895" lon="17.0090983"><ele>300.0</ele><time>2026-03-29T12:30:20.016Z</time></trkpt><trkpt lat="39.4198467" lon="17.0091783"><ele>300.0</ele><time>2026-03-29T12:30:21.016Z</time></trkpt><trkpt lat="39.4198167" lon="17.00927"><ele>300.0</ele><time>2026-03-29T12:30:22.015Z</time></trkpt><trkpt lat="39.4198067" lon="17.0093733"><ele>300.0</ele><time>2026-03-29T12:30:23.016Z</time></trkpt><trkpt lat="39.4198017" lon="17.0094667"><ele>302.3333333333333</ele><time>2026-03-29T12:30:24.016Z</time></trkpt><trkpt lat="39.4198083" lon="17.00956"><ele>304.6666666666667</ele><time>2026-03-29T12:30:25.016Z</time></trkpt><trkpt lat="39.4198167" lon="17.009665"><ele>307.0</ele><time>2026-03-29T12:30:26.016Z</time></trkpt><trkpt lat="39.4198233" lon="17.009765"><ele>309.33333333333337</ele><time>2026-03-29T12:30:27.016Z</time></trkpt><trkpt lat="39.4198117" lon="17.0098533"><ele>311.6666666666667</ele><time>2026-03-29T12:30:28.016Z</time></trkpt><trkpt lat="39.419745" lon="17.0099833"><ele>314.0</ele><time>2026-03-29T12:30:30.016Z</time></trkpt><trkpt lat="39.4196733" lon="17.01014"><ele>314.1666666666667</ele><time>2026-03-29T12:30:32.016Z</time></trkpt><trkpt lat="39.4196417" lon="17.010225"><ele>314.33333333333337</ele><time>2026-03-29T12:30:33.016Z</time></trkpt><trkpt lat="39.41961" lon="17.0103033"><ele>314.5</ele><time>2026-03-29T12:30:34.016Z</time></trkpt><trkpt lat="39.4195267" lon="17.0103867"><ele>314.6666666666667</ele><time>2026-03-29T12:30:36.016Z</time></trkpt><trkpt lat="39.4194083" lon="17.0103733"><ele>314.8333333333333</ele><time>2026-03-29T12:30:38.016Z</time></trkpt><trkpt lat="39.4193417" lon="17.0103767"><ele>315.0</ele><time>2026-03-29T12:30:39.016Z</time></trkpt><trkpt lat="39.4192683" lon="17.0104117"><ele>315.0</ele><time>2026-03-29T12:30:40.016Z</time></trkpt><trkpt lat="39.4192083" lon="17.01046"><ele>315.0</ele><time>2026-03-29T12:30:41.015Z</time></trkpt><trkpt lat="39.4191483" lon="17.010515"><ele>315.0</ele><time>2026-03-29T12:30:42.016Z</time></trkpt><trkpt lat="39.4190883" lon="17.0105967"><ele>315.0</ele><time>2026-03-29T12:30:43.016Z</time></trkpt><trkpt lat="39.4190467" lon="17.0106883"><ele>315.0</ele><time>2026-03-29T12:30:44.016Z</time></trkpt><trkpt lat="39.4190333" lon="17.0107817"><ele>315.0</ele><time>2026-03-29T12:30:45.016Z</time></trkpt><trkpt lat="39.4190317" lon="17.010885"><ele>314.4</ele><time>2026-03-29T12:30:46.016Z</time></trkpt><trkpt lat="39.4190517" lon="17.011"><ele>313.8</ele><time>2026-03-29T12:30:47.016Z</time></trkpt><trkpt lat="39.4190883" lon="17.0111233"><ele>313.2</ele><time>2026-03-29T12:30:48.016Z</time></trkpt><trkpt lat="39.4191283" lon="17.0112433"><ele>312.6</ele><time>2026-03-29T12:30:49.016Z</time></trkpt><trkpt lat="39.4191767" lon="17.0113483"><ele>312.0</ele><time>2026-03-29T12:30:50.016Z</time></trkpt><trkpt lat="39.4192033" lon="17.0114367"><ele>312.0</ele><time>2026-03-29T12:30:51.016Z</time></trkpt><trkpt lat="39.4192067" lon="17.0115483"><ele>312.0</ele><time>2026-03-29T12:30:53.016Z</time></trkpt><trkpt lat="39.41913" lon="17.0116367"><ele>312.0</ele><time>2026-03-29T12:30:55.016Z</time></trkpt><trkpt lat="39.4190433" lon="17.011705"><ele>312.0</ele><time>2026-03-29T12:30:57.016Z</time></trkpt><trkpt lat="39.4189633" lon="17.011735"><ele>312.0</ele><time>2026-03-29T12:30:59.016Z</time></trkpt><trkpt lat="39.4188633" lon="17.0117633"><ele>309.2857142857143</ele><time>2026-03-29T12:31:01.016Z</time></trkpt><trkpt lat="39.4188033" lon="17.0117917"><ele>306.57142857142856</ele><time>2026-03-29T12:31:02.015Z</time></trkpt><trkpt lat="39.418745" lon="17.0118417"><ele>303.85714285714283</ele><time>2026-03-29T12:31:03.016Z</time></trkpt><trkpt lat="39.4186933" lon="17.0119067"><ele>301.1428571428571</ele><time>2026-03-29T12:31:04.016Z</time></trkpt><trkpt lat="39.4186633" lon="17.0119967"><ele>298.42857142857144</ele><time>2026-03-29T12:31:05.016Z</time></trkpt><trkpt lat="39.41864" lon="17.0120917"><ele>295.71428571428567</ele><time>2026-03-29T12:31:06.016Z</time></trkpt><trkpt lat="39.418615" lon="17.0121883"><ele>293.0</ele><time>2026-03-29T12:31:07.015Z</time></trkpt><trkpt lat="39.4185783" lon="17.0122567"><ele>293.0</ele><time>2026-03-29T12:31:08.016Z</time></trkpt><trkpt lat="39.4185267" lon="17.012315"><ele>293.0</ele><time>2026-03-29T12:31:09.016Z</time></trkpt><trkpt lat="39.4184533" lon="17.0123717"><ele>293.0</ele><time>2026-03-29T12:31:10.016Z</time></trkpt><trkpt lat="39.4183683" lon="17.01242"><ele>293.0</ele><time>2026-03-29T12:31:11.016Z</time></trkpt><trkpt lat="39.4182883" lon="17.01247"><ele>293.0</ele><time>2026-03-29T12:31:12.016Z</time></trkpt><trkpt lat="39.418215" lon="17.0125267"><ele>293.0</ele><time>2026-03-29T12:31:13.015Z</time></trkpt><trkpt lat="39.41815" lon="17.012595"><ele>292.5</ele><time>2026-03-29T12:31:14.016Z</time></trkpt><trkpt lat="39.418095" lon="17.0126717"><ele>292.0</ele><time>2026-03-29T12:31:15.015Z</time></trkpt><trkpt lat="39.4180517" lon="17.0127567"><ele>291.5</ele><time>2026-03-29T12:31:16.016Z</time></trkpt><trkpt lat="39.4180267" lon="17.0128533"><ele>291.0</ele><time>2026-03-29T12:31:17.016Z</time></trkpt><trkpt lat="39.4180217" lon="17.01297"><ele>290.5</ele><time>2026-03-29T12:31:18.016Z</time></trkpt><trkpt lat="39.41801" lon="17.0130733"><ele>290.0</ele><time>2026-03-29T12:31:19.015Z</time></trkpt><trkpt lat="39.4179883" lon="17.0131583"><ele>288.33333333333337</ele><time>2026-03-29T12:31:20.016Z</time></trkpt><trkpt lat="39.4179533" lon="17.0132467"><ele>286.6666666666667</ele><time>2026-03-29T12:31:21.016Z</time></trkpt><trkpt lat="39.417905" lon="17.0133333"><ele>285.0</ele><time>2026-03-29T12:31:22.016Z</time></trkpt><trkpt lat="39.4178567" lon="17.0134283"><ele>283.3333333333333</ele><time>2026-03-29T12:31:23.016Z</time></trkpt><trkpt lat="39.4178067" lon="17.0135267"><ele>281.66666666666663</ele><time>2026-03-29T12:31:24.016Z</time></trkpt><trkpt lat="39.4177567" lon="17.0136283"><ele>280.0</ele><time>2026-03-29T12:31:25.016Z</time></trkpt><trkpt lat="39.4177133" lon="17.01372"><ele>280.0</ele><time>2026-03-29T12:31:26.015Z</time></trkpt><trkpt lat="39.4176883" lon="17.0138033"><ele>280.0</ele><time>2026-03-29T12:31:27.015Z</time></trkpt><trkpt lat="39.41767" lon="17.013895"><ele>280.0</ele><time>2026-03-29T12:31:28.016Z</time></trkpt><trkpt lat="39.417635" lon="17.0139967"><ele>280.0</ele><time>2026-03-29T12:31:29.016Z</time></trkpt><trkpt lat="39.417595" lon="17.0141017"><ele>280.0</ele><time>2026-03-29T12:31:30.016Z</time></trkpt><trkpt lat="39.4175667" lon="17.0142133"><ele>280.0</ele><time>2026-03-29T12:31:31.016Z</time></trkpt><trkpt lat="39.4175467" lon="17.0143233"><ele>281.5</ele><time>2026-03-29T12:31:32.016Z</time></trkpt><trkpt lat="39.417515" lon="17.0144167"><ele>283.0</ele><time>2026-03-29T12:31:33.016Z</time></trkpt><trkpt lat="39.4174733" lon="17.0145"><ele>284.5</ele><time>2026-03-29T12:31:34.016Z</time></trkpt><trkpt lat="39.4174183" lon="17.0145517"><ele>286.0</ele><time>2026-03-29T12:31:35.016Z</time></trkpt><trkpt lat="39.417345" lon="17.0145933"><ele>287.5</ele><time>2026-03-29T12:31:36.016Z</time></trkpt><trkpt lat="39.4172667" lon="17.0146133"><ele>289.0</ele><time>2026-03-29T12:31:37.016Z</time></trkpt><trkpt lat="39.4171817" lon="17.0146217"><ele>288.66666666666663</ele><time>2026-03-29T12:31:38.016Z</time></trkpt><trkpt lat="39.417095" lon="17.0146217"><ele>288.3333333333333</ele><time>2026-03-29T12:31:39.016Z</time></trkpt><trkpt lat="39.417015" lon="17.0146117"><ele>288.0</ele><time>2026-03-29T12:31:40.016Z</time></trkpt><trkpt lat="39.4169183" lon="17.01461"><ele>287.6666666666667</ele><time>2026-03-29T12:31:41.016Z</time></trkpt><trkpt lat="39.4168417" lon="17.0146233"><ele>287.33333333333337</ele><time>2026-03-29T12:31:42.016Z</time></trkpt><trkpt lat="39.41677" lon="17.0146567"><ele>287.0</ele><time>2026-03-29T12:31:43.016Z</time></trkpt><trkpt lat="39.4167033" lon="17.01469"><ele>287.0</ele><time>2026-03-29T12:31:44.016Z</time></trkpt><trkpt lat="39.4166433" lon="17.0147267"><ele>287.0</ele><time>2026-03-29T12:31:45.016Z</time></trkpt><trkpt lat="39.4165467" lon="17.0147983"><ele>287.0</ele><time>2026-03-29T12:31:47.016Z</time></trkpt><trkpt lat="39.4164917" lon="17.014885"><ele>287.0</ele><time>2026-03-29T12:31:49.016Z</time></trkpt><trkpt lat="39.416445" lon="17.0150467"><ele>287.0</ele><time>2026-03-29T12:31:51.015Z</time></trkpt><trkpt lat="39.4164367" lon="17.0151517"><ele>287.83333333333337</ele><time>2026-03-29T12:31:52.016Z</time></trkpt><trkpt lat="39.4164367" lon="17.01526"><ele>288.6666666666667</ele><time>2026-03-29T12:31:53.016Z</time></trkpt><trkpt lat="39.4164417" lon="17.015375"><ele>289.5</ele><time>2026-03-29T12:31:54.015Z</time></trkpt><trkpt lat="39.4164367" lon="17.015475"><ele>290.3333333333333</ele><time>2026-03-29T12:31:55.016Z</time></trkpt><trkpt lat="39.4164133" lon="17.0155617"><ele>291.16666666666663</ele><time>2026-03-29T12:31:56.016Z</time></trkpt><trkpt lat="39.416385" lon="17.0156633"><ele>292.0</ele><time>2026-03-29T12:31:57.016Z</time></trkpt><trkpt lat="39.4163733" lon="17.015765"><ele>291.16666666666663</ele><time>2026-03-29T12:31:58.016Z</time></trkpt><trkpt lat="39.416375" lon="17.0158633"><ele>290.3333333333333</ele><time>2026-03-29T12:31:59.016Z</time></trkpt><trkpt lat="39.4163817" lon="17.0159667"><ele>289.5</ele><time>2026-03-29T12:32:00.016Z</time></trkpt><trkpt lat="39.416375" lon="17.016055"><ele>288.6666666666667</ele><time>2026-03-29T12:32:01.016Z</time></trkpt><trkpt lat="39.4163433" lon="17.01613"><ele>287.83333333333337</ele><time>2026-03-29T12:32:02.016Z</time></trkpt><trkpt lat="39.4162983" lon="17.0162017"><ele>287.0</ele><time>2026-03-29T12:32:03.016Z</time></trkpt><trkpt lat="39.416235" lon="17.0162833"><ele>286.6666666666667</ele><time>2026-03-29T12:32:04.015Z</time></trkpt><trkpt lat="39.416175" lon="17.0163583"><ele>286.33333333333337</ele><time>2026-03-29T12:32:05.015Z</time></trkpt><trkpt lat="39.41613" lon="17.0164233"><ele>286.0</ele><time>2026-03-29T12:32:06.016Z</time></trkpt><trkpt lat="39.416085" lon="17.0165067"><ele>285.6666666666667</ele><time>2026-03-29T12:32:07.016Z</time></trkpt><trkpt lat="39.4160433" lon="17.0166017"><ele>285.3333333333333</ele><time>2026-03-29T12:32:08.015Z</time></trkpt><trkpt lat="39.4159967" lon="17.0166833"><ele>285.0</ele><time>2026-03-29T12:32:09.016Z</time></trkpt><trkpt lat="39.4159417" lon="17.0167633"><ele>285.0</ele><time>2026-03-29T12:32:10.016Z</time></trkpt><trkpt lat="39.4158783" lon="17.0168417"><ele>285.0</ele><time>2026-03-29T12:32:11.016Z</time></trkpt><trkpt lat="39.41581" lon="17.01691"><ele>285.0</ele><time>2026-03-29T12:32:12.016Z</time></trkpt><trkpt lat="39.41574" lon="17.0169683"><ele>285.0</ele><time>2026-03-29T12:32:13.016Z</time></trkpt><trkpt lat="39.4156617" lon="17.0170167"><ele>285.0</ele><time>2026-03-29T12:32:14.016Z</time></trkpt><trkpt lat="39.4155767" lon="17.0170617"><ele>285.0</ele><time>2026-03-29T12:32:15.016Z</time></trkpt><trkpt lat="39.4155" lon="17.01711"><ele>280.8333333333333</ele><time>2026-03-29T12:32:16.015Z</time></trkpt><trkpt lat="39.4154367" lon="17.0171667"><ele>276.6666666666667</ele><time>2026-03-29T12:32:17.016Z</time></trkpt><trkpt lat="39.4153833" lon="17.01723"><ele>272.5</ele><time>2026-03-29T12:32:18.016Z</time></trkpt><trkpt lat="39.4153267" lon="17.0173067"><ele>268.33333333333337</ele><time>2026-03-29T12:32:19.016Z</time></trkpt><trkpt lat="39.4152833" lon="17.017395"><ele>264.1666666666667</ele><time>2026-03-29T12:32:20.016Z</time></trkpt><trkpt lat="39.4152483" lon="17.01749"><ele>260.0</ele><time>2026-03-29T12:32:21.016Z</time></trkpt><trkpt lat="39.4152233" lon="17.0176033"><ele>260.0</ele><time>2026-03-29T12:32:22.015Z</time></trkpt><trkpt lat="39.4152033" lon="17.01773"><ele>260.0</ele><time>2026-03-29T12:32:23.016Z</time></trkpt><trkpt lat="39.4151783" lon="17.0178617"><ele>260.0</ele><time>2026-03-29T12:32:24.016Z</time></trkpt><trkpt lat="39.4151567" lon="17.0179917"><ele>260.0</ele><time>2026-03-29T12:32:25.016Z</time></trkpt><trkpt lat="39.415135" lon="17.0181183"><ele>260.0</ele><time>2026-03-29T12:32:26.016Z</time></trkpt><trkpt lat="39.4151083" lon="17.0182533"><ele>262.0</ele><time>2026-03-29T12:32:27.016Z</time></trkpt><trkpt lat="39.4150767" lon="17.0183667"><ele>264.0</ele><time>2026-03-29T12:32:28.016Z</time></trkpt><trkpt lat="39.415035" lon="17.0184667"><ele>266.0</ele><time>2026-03-29T12:32:29.015Z</time></trkpt><trkpt lat="39.4149867" lon="17.0185533"><ele>268.0</ele><time>2026-03-29T12:32:30.016Z</time></trkpt><trkpt lat="39.4149467" lon="17.0186467"><ele>270.0</ele><time>2026-03-29T12:32:31.015Z</time></trkpt><trkpt lat="39.4149117" lon="17.0187367"><ele>272.0</ele><time>2026-03-29T12:32:32.016Z</time></trkpt><trkpt lat="39.41488" lon="17.01883"><ele>272.0</ele><time>2026-03-29T12:32:33.016Z</time></trkpt><trkpt lat="39.4148517" lon="17.018925"><ele>272.0</ele><time>2026-03-29T12:32:34.016Z</time></trkpt><trkpt lat="39.4148383" lon="17.0190283"><ele>272.0</ele><time>2026-03-29T12:32:35.016Z</time></trkpt><trkpt lat="39.4148317" lon="17.0191383"><ele>272.0</ele><time>2026-03-29T12:32:36.016Z</time></trkpt><trkpt lat="39.4148433" lon="17.019245"><ele>272.0</ele><time>2026-03-29T12:32:37.016Z</time></trkpt><trkpt lat="39.4148517" lon="17.019335"><ele>272.0</ele><time>2026-03-29T12:32:38.016Z</time></trkpt><trkpt lat="39.414845" lon="17.0194183"><ele>271.1666666666667</ele><time>2026-03-29T12:32:39.016Z</time></trkpt><trkpt lat="39.4148133" lon="17.0194933"><ele>270.33333333333337</ele><time>2026-03-29T12:32:40.016Z</time></trkpt><trkpt lat="39.4147617" lon="17.0195633"><ele>269.5</ele><time>2026-03-29T12:32:41.015Z</time></trkpt><trkpt lat="39.4147133" lon="17.0196367"><ele>268.6666666666667</ele><time>2026-03-29T12:32:42.015Z</time></trkpt><trkpt lat="39.414665" lon="17.0197233"><ele>267.8333333333333</ele><time>2026-03-29T12:32:43.016Z</time></trkpt><trkpt lat="39.41462" lon="17.0198167"><ele>267.0</ele><time>2026-03-29T12:32:44.016Z</time></trkpt><trkpt lat="39.41458" lon="17.0199183"><ele>269.5714285714286</ele><time>2026-03-29T12:32:45.016Z</time></trkpt><trkpt lat="39.414545" lon="17.020015"><ele>272.14285714285717</ele><time>2026-03-29T12:32:46.016Z</time></trkpt><trkpt lat="39.4145233" lon="17.0201067"><ele>274.7142857142857</ele><time>2026-03-29T12:32:47.016Z</time></trkpt><trkpt lat="39.4145183" lon="17.02021"><ele>277.28571428571433</ele><time>2026-03-29T12:32:48.016Z</time></trkpt><trkpt lat="39.41452" lon="17.020305"><ele>279.8571428571429</ele><time>2026-03-29T12:32:49.016Z</time></trkpt><trkpt lat="39.41452" lon="17.020395"><ele>282.42857142857144</ele><time>2026-03-29T12:32:50.016Z</time></trkpt><trkpt lat="39.414515" lon="17.020485"><ele>285.0</ele><time>2026-03-29T12:32:51.016Z</time></trkpt><trkpt lat="39.4145" lon="17.0205767"><ele>285.0</ele><time>2026-03-29T12:32:52.016Z</time></trkpt><trkpt lat="39.4144817" lon="17.0206817"><ele>285.0</ele><time>2026-03-29T12:32:53.016Z</time></trkpt><trkpt lat="39.41446" lon="17.0207983"><ele>285.0</ele><time>2026-03-29T12:32:54.016Z</time></trkpt><trkpt lat="39.4144333" lon="17.0209267"><ele>285.0</ele><time>2026-03-29T12:32:55.016Z</time></trkpt><trkpt lat="39.4144117" lon="17.0210333"><ele>285.0</ele><time>2026-03-29T12:32:56.016Z</time></trkpt><trkpt lat="39.41441" lon="17.0211883"><ele>286.0</ele><time>2026-03-29T12:32:58.016Z</time></trkpt><trkpt lat="39.4144417" lon="17.021265"><ele>287.0</ele><time>2026-03-29T12:32:59.016Z</time></trkpt><trkpt lat="39.4144983" lon="17.0213433"><ele>288.0</ele><time>2026-03-29T12:33:00.016Z</time></trkpt><trkpt lat="39.4145733" lon="17.021425"><ele>289.0</ele><time>2026-03-29T12:33:01.015Z</time></trkpt><trkpt lat="39.4146417" lon="17.0215067"><ele>290.0</ele><time>2026-03-29T12:33:02.015Z</time></trkpt><trkpt lat="39.414695" lon="17.0215817"><ele>291.0</ele><time>2026-03-29T12:33:03.016Z</time></trkpt><trkpt lat="39.4147517" lon="17.0216367"><ele>294.5</ele><time>2026-03-29T12:33:04.015Z</time></trkpt><trkpt lat="39.4148117" lon="17.0216767"><ele>298.0</ele><time>2026-03-29T12:33:05.016Z</time></trkpt><trkpt lat="39.4149383" lon="17.021715"><ele>301.5</ele><time>2026-03-29T12:33:07.016Z</time></trkpt><trkpt lat="39.415" lon="17.021735"><ele>305.0</ele><time>2026-03-29T12:33:08.016Z</time></trkpt><trkpt lat="39.415065" lon="17.0217567"><ele>308.5</ele><time>2026-03-29T12:33:09.016Z</time></trkpt><trkpt lat="39.4151217" lon="17.021795"><ele>312.0</ele><time>2026-03-29T12:33:10.016Z</time></trkpt><trkpt lat="39.4151833" lon="17.0218383"><ele>312.0</ele><time>2026-03-29T12:33:11.016Z</time></trkpt><trkpt lat="39.4152717" lon="17.021945"><ele>312.0</ele><time>2026-03-29T12:33:13.016Z</time></trkpt><trkpt lat="39.4153217" lon="17.02202"><ele>312.0</ele><time>2026-03-29T12:33:14.016Z</time></trkpt><trkpt lat="39.415365" lon="17.0221033"><ele>312.0</ele><time>2026-03-29T12:33:15.016Z</time></trkpt><trkpt lat="39.415415" lon="17.02219"><ele>312.0</ele><time>2026-03-29T12:33:16.016Z</time></trkpt><trkpt lat="39.4154533" lon="17.0222883"><ele>312.0</ele><time>2026-03-29T12:33:17.015Z</time></trkpt><trkpt lat="39.4155017" lon="17.0223767"><ele>313.6666666666667</ele><time>2026-03-29T12:33:18.016Z</time></trkpt><trkpt lat="39.4155467" lon="17.022465"><ele>315.3333333333333</ele><time>2026-03-29T12:33:19.016Z</time></trkpt><trkpt lat="39.4155883" lon="17.0225433"><ele>317.0</ele><time>2026-03-29T12:33:20.016Z</time></trkpt><trkpt lat="39.415625" lon="17.02262"><ele>318.66666666666663</ele><time>2026-03-29T12:33:21.015Z</time></trkpt><trkpt lat="39.41568" lon="17.0227533"><ele>320.3333333333333</ele><time>2026-03-29T12:33:23.016Z</time></trkpt><trkpt lat="39.4157" lon="17.0228317"><ele>322.0</ele><time>2026-03-29T12:33:24.016Z</time></trkpt><trkpt lat="39.415745" lon="17.0229533"><ele>322.40000000000003</ele><time>2026-03-29T12:33:26.016Z</time></trkpt><trkpt lat="39.41581" lon="17.0230683"><ele>322.8</ele><time>2026-03-29T12:33:28.016Z</time></trkpt><trkpt lat="39.4158717" lon="17.0231633"><ele>323.2</ele><time>2026-03-29T12:33:30.015Z</time></trkpt><trkpt lat="39.415955" lon="17.0232233"><ele>323.6</ele><time>2026-03-29T12:33:32.016Z</time></trkpt><trkpt lat="39.4160367" lon="17.02322"><ele>324.0</ele><time>2026-03-29T12:33:34.016Z</time></trkpt><trkpt lat="39.4161733" lon="17.0231867"><ele>324.0</ele><time>2026-03-29T12:33:36.016Z</time></trkpt><trkpt lat="39.4162583" lon="17.023175"><ele>324.0</ele><time>2026-03-29T12:33:37.016Z</time></trkpt><trkpt lat="39.4163433" lon="17.0231617"><ele>324.0</ele><time>2026-03-29T12:33:38.016Z</time></trkpt><trkpt lat="39.4164317" lon="17.023165"><ele>324.0</ele><time>2026-03-29T12:33:39.016Z</time></trkpt><trkpt lat="39.4165267" lon="17.02318"><ele>324.0</ele><time>2026-03-29T12:33:40.016Z</time></trkpt><trkpt lat="39.4166117" lon="17.0231883"><ele>324.0</ele><time>2026-03-29T12:33:41.016Z</time></trkpt><trkpt lat="39.4166983" lon="17.0232067"><ele>323.0</ele><time>2026-03-29T12:33:42.015Z</time></trkpt><trkpt lat="39.41679" lon="17.023225"><ele>322.0</ele><time>2026-03-29T12:33:43.016Z</time></trkpt><trkpt lat="39.4168817" lon="17.0232333"><ele>321.0</ele><time>2026-03-29T12:33:44.016Z</time></trkpt><trkpt lat="39.4169733" lon="17.02325"><ele>320.0</ele><time>2026-03-29T12:33:45.016Z</time></trkpt><trkpt lat="39.4170567" lon="17.0232683"><ele>319.0</ele><time>2026-03-29T12:33:46.016Z</time></trkpt><trkpt lat="39.4171683" lon="17.0232483"><ele>315.2</ele><time>2026-03-29T12:33:47.016Z</time></trkpt><trkpt lat="39.4173067" lon="17.0232217"><ele>311.4</ele><time>2026-03-29T12:33:49.015Z</time></trkpt><trkpt lat="39.41741" lon="17.0231467"><ele>307.6</ele><time>2026-03-29T12:33:51.016Z</time></trkpt><trkpt lat="39.4174583" lon="17.0230667"><ele>303.8</ele><time>2026-03-29T12:33:54.016Z</time></trkpt><trkpt lat="39.4174917" lon="17.0229783"><ele>300.0</ele><time>2026-03-29T12:33:57.016Z</time></trkpt><trkpt lat="39.4175417" lon="17.0229033"><ele>300.0</ele><time>2026-03-29T12:33:59.016Z</time></trkpt><trkpt lat="39.4176217" lon="17.022835"><ele>300.0</ele><time>2026-03-29T12:34:01.016Z</time></trkpt><trkpt lat="39.4177067" lon="17.022775"><ele>300.0</ele><time>2026-03-29T12:34:03.016Z</time></trkpt><trkpt lat="39.41779" lon="17.0227167"><ele>300.0</ele><time>2026-03-29T12:34:05.016Z</time></trkpt><trkpt lat="39.4178867" lon="17.0226783"><ele>300.0</ele><time>2026-03-29T12:34:07.016Z</time></trkpt><trkpt lat="39.4179833" lon="17.0226483"><ele>298.8</ele><time>2026-03-29T12:34:09.016Z</time></trkpt><trkpt lat="39.418095" lon="17.0225883"><ele>297.6</ele><time>2026-03-29T12:34:11.016Z</time></trkpt><trkpt lat="39.4182033" lon="17.0225"><ele>296.4</ele><time>2026-03-29T12:34:13.016Z</time></trkpt><trkpt lat="39.418265" lon="17.02246"><ele>295.2</ele><time>2026-03-29T12:34:14.016Z</time></trkpt><trkpt lat="39.4183283" lon="17.0224333"><ele>294.0</ele><time>2026-03-29T12:34:15.016Z</time></trkpt><trkpt lat="39.418455" lon="17.0224217"><ele>293.1666666666667</ele><time>2026-03-29T12:34:17.016Z</time></trkpt><trkpt lat="39.4185833" lon="17.0224433"><ele>292.3333333333333</ele><time>2026-03-29T12:34:19.016Z</time></trkpt><trkpt lat="39.4186533" lon="17.0224517"><ele>291.5</ele><time>2026-03-29T12:34:20.016Z</time></trkpt><trkpt lat="39.4187183" lon="17.0224683"><ele>290.66666666666663</ele><time>2026-03-29T12:34:21.016Z</time></trkpt><trkpt lat="39.4187883" lon="17.0224767"><ele>289.8333333333333</ele><time>2026-03-29T12:34:22.016Z</time></trkpt><trkpt lat="39.4188717" lon="17.02249"><ele>289.0</ele><time>2026-03-29T12:34:23.015Z</time></trkpt><trkpt lat="39.4189617" lon="17.02251"><ele>289.0</ele><time>2026-03-29T12:34:24.016Z</time></trkpt><trkpt lat="39.4190517" lon="17.0225217"><ele>289.0</ele><time>2026-03-29T12:34:25.016Z</time></trkpt><trkpt lat="39.419145" lon="17.0225183"><ele>289.0</ele><time>2026-03-29T12:34:26.016Z</time></trkpt><trkpt lat="39.4192383" lon="17.0225067"><ele>289.0</ele><time>2026-03-29T12:34:27.016Z</time></trkpt><trkpt lat="39.41932" lon="17.0225117"><ele>289.0</ele><time>2026-03-29T12:34:28.016Z</time></trkpt><trkpt lat="39.41942" lon="17.02255"><ele>289.0</ele><time>2026-03-29T12:34:30.016Z</time></trkpt><trkpt lat="39.419495" lon="17.0225867"><ele>289.0</ele><time>2026-03-29T12:34:33.016Z</time></trkpt><trkpt lat="39.41956" lon="17.022625"><ele>289.0</ele><time>2026-03-29T12:34:35.015Z</time></trkpt><trkpt lat="39.4196417" lon="17.0226633"><ele>289.0</ele><time>2026-03-29T12:34:37.016Z</time></trkpt><trkpt lat="39.4197333" lon="17.0226683"><ele>289.0</ele><time>2026-03-29T12:34:39.016Z</time></trkpt><trkpt lat="39.41982" lon="17.0227333"><ele>289.0</ele><time>2026-03-29T12:34:41.016Z</time></trkpt><trkpt lat="39.419845" lon="17.0228267"><ele>288.0</ele><time>2026-03-29T12:34:43.016Z</time></trkpt><trkpt lat="39.4198133" lon="17.022915"><ele>287.0</ele><time>2026-03-29T12:34:45.016Z</time></trkpt><trkpt lat="39.4197733" lon="17.0230067"><ele>286.0</ele><time>2026-03-29T12:34:47.015Z</time></trkpt><trkpt lat="39.4197433" lon="17.023105"><ele>285.0</ele><time>2026-03-29T12:34:49.016Z</time></trkpt><trkpt lat="39.419725" lon="17.0231883"><ele>284.0</ele><time>2026-03-29T12:34:51.016Z</time></trkpt><trkpt lat="39.4197333" lon="17.0233067"><ele>283.0</ele><time>2026-03-29T12:34:57.016Z</time></trkpt><trkpt lat="39.41974" lon="17.0234133"><ele>283.16666666666663</ele><time>2026-03-29T12:35:00.015Z</time></trkpt><trkpt lat="39.4197167" lon="17.0235067"><ele>283.3333333333333</ele><time>2026-03-29T12:35:02.016Z</time></trkpt><trkpt lat="39.4196717" lon="17.023615"><ele>283.5</ele><time>2026-03-29T12:35:05.016Z</time></trkpt><trkpt lat="39.4196083" lon="17.023665"><ele>283.6666666666667</ele><time>2026-03-29T12:35:07.016Z</time></trkpt><trkpt lat="39.41953" lon="17.023645"><ele>283.83333333333337</ele><time>2026-03-29T12:35:09.016Z</time></trkpt><trkpt lat="39.4194483" lon="17.0235983"><ele>284.0</ele><time>2026-03-29T12:35:11.016Z</time></trkpt><trkpt lat="39.419345" lon="17.0236017"><ele>284.0</ele><time>2026-03-29T12:35:13.016Z</time></trkpt><trkpt lat="39.4192867" lon="17.023685"><ele>284.0</ele><time>2026-03-29T12:35:15.016Z</time></trkpt><trkpt lat="39.419295" lon="17.0237717"><ele>284.0</ele><time>2026-03-29T12:35:17.015Z</time></trkpt><trkpt lat="39.4193283" lon="17.02389"><ele>284.0</ele><time>2026-03-29T12:35:20.016Z</time></trkpt><trkpt lat="39.4193367" lon="17.02398"><ele>284.0</ele><time>2026-03-29T12:35:22.015Z</time></trkpt><trkpt lat="39.41937" lon="17.0240867"><ele>284.0</ele><time>2026-03-29T12:35:25.015Z</time></trkpt><trkpt lat="39.4194183" lon="17.0241567"><ele>278.8</ele><time>2026-03-29T12:35:27.015Z</time></trkpt><trkpt lat="39.4194783" lon="17.0242433"><ele>273.59999999999997</ele><time>2026-03-29T12:35:29.014Z</time></trkpt><trkpt lat="39.4195583" lon="17.0243367"><ele>268.4</ele><time>2026-03-29T12:35:31.015Z</time></trkpt><trkpt lat="39.4196017" lon="17.0244017"><ele>263.2</ele><time>2026-03-29T12:35:32.015Z</time></trkpt><trkpt lat="39.419665" lon="17.024495"><ele>258.0</ele><time>2026-03-29T12:35:34.015Z</time></trkpt><trkpt lat="39.4197467" lon="17.0245683"><ele>257.4</ele><time>2026-03-29T12:35:36.015Z</time></trkpt><trkpt lat="39.4198283" lon="17.024665"><ele>256.8</ele><time>2026-03-29T12:35:38.014Z</time></trkpt><trkpt lat="39.4198733" lon="17.024725"><ele>256.2</ele><time>2026-03-29T12:35:39.015Z</time></trkpt><trkpt lat="39.419965" lon="17.0248133"><ele>255.6</ele><time>2026-03-29T12:35:41.014Z</time></trkpt><trkpt lat="39.42005" lon="17.0248683"><ele>255.0</ele><time>2026-03-29T12:35:43.015Z</time></trkpt><trkpt lat="39.4201433" lon="17.0249333"><ele>251.6</ele><time>2026-03-29T12:35:45.015Z</time></trkpt><trkpt lat="39.4202433" lon="17.0250317"><ele>248.2</ele><time>2026-03-29T12:35:47.014Z</time></trkpt><trkpt lat="39.4202983" lon="17.0250717"><ele>244.8</ele><time>2026-03-29T12:35:48.015Z</time></trkpt><trkpt lat="39.4203867" lon="17.025145"><ele>241.4</ele><time>2026-03-29T12:35:50.015Z</time></trkpt><trkpt lat="39.4204767" lon="17.0251817"><ele>238.0</ele><time>2026-03-29T12:35:52.015Z</time></trkpt><trkpt lat="39.4205817" lon="17.0251833"><ele>235.60000000000002</ele><time>2026-03-29T12:35:54.015Z</time></trkpt><trkpt lat="39.4206883" lon="17.02522"><ele>233.20000000000002</ele><time>2026-03-29T12:35:56.015Z</time></trkpt><trkpt lat="39.4207483" lon="17.025285"><ele>230.8</ele><time>2026-03-29T12:35:58.015Z</time></trkpt><trkpt lat="39.42081" lon="17.0253817"><ele>228.4</ele><time>2026-03-29T12:36:00.015Z</time></trkpt><trkpt lat="39.4208767" lon="17.0254633"><ele>226.0</ele><time>2026-03-29T12:36:02.015Z</time></trkpt><trkpt lat="39.4209417" lon="17.0255533"><ele>226.0</ele><time>2026-03-29T12:36:04.015Z</time></trkpt><trkpt lat="39.4209833" lon="17.02569"><ele>226.00000000000003</ele><time>2026-03-29T12:36:06.015Z</time></trkpt><trkpt lat="39.4210133" lon="17.0257767"><ele>226.00000000000003</ele><time>2026-03-29T12:36:07.015Z</time></trkpt><trkpt lat="39.4210633" lon="17.0258667"><ele>226.0</ele><time>2026-03-29T12:36:08.015Z</time></trkpt><trkpt lat="39.4211283" lon="17.0259567"><ele>226.0</ele><time>2026-03-29T12:36:09.015Z</time></trkpt><trkpt lat="39.4212017" lon="17.026055"><ele>224.5</ele><time>2026-03-29T12:36:10.015Z</time></trkpt><trkpt lat="39.4212833" lon="17.0261467"><ele>223.0</ele><time>2026-03-29T12:36:11.015Z</time></trkpt><trkpt lat="39.4213733" lon="17.0262367"><ele>221.5</ele><time>2026-03-29T12:36:12.015Z</time></trkpt><trkpt lat="39.4214683" lon="17.02633"><ele>220.0</ele><time>2026-03-29T12:36:13.015Z</time></trkpt><trkpt lat="39.4215633" lon="17.0264267"><ele>216.5</ele><time>2026-03-29T12:36:14.015Z</time></trkpt><trkpt lat="39.4216633" lon="17.0265183"><ele>213.0</ele><time>2026-03-29T12:36:15.015Z</time></trkpt><trkpt lat="39.42177" lon="17.0266083"><ele>209.5</ele><time>2026-03-29T12:36:16.015Z</time></trkpt><trkpt lat="39.4218633" lon="17.0266933"><ele>206.0</ele><time>2026-03-29T12:36:17.015Z</time></trkpt><trkpt lat="39.4219617" lon="17.026775"><ele>205.5</ele><time>2026-03-29T12:36:18.015Z</time></trkpt><trkpt lat="39.4220617" lon="17.0268533"><ele>205.0</ele><time>2026-03-29T12:36:19.015Z</time></trkpt><trkpt lat="39.4221633" lon="17.0269333"><ele>204.5</ele><time>2026-03-29T12:36:20.015Z</time></trkpt><trkpt lat="39.4222717" lon="17.027"><ele>204.0</ele><time>2026-03-29T12:36:21.015Z</time></trkpt><trkpt lat="39.422375" lon="17.0270683"><ele>202.39999999999998</ele><time>2026-03-29T12:36:22.015Z</time></trkpt><trkpt lat="39.42247" lon="17.0271233"><ele>200.8</ele><time>2026-03-29T12:36:23.014Z</time></trkpt><trkpt lat="39.422555" lon="17.0271767"><ele>199.2</ele><time>2026-03-29T12:36:24.015Z</time></trkpt><trkpt lat="39.42262" lon="17.027245"><ele>197.60000000000002</ele><time>2026-03-29T12:36:25.015Z</time></trkpt><trkpt lat="39.4226583" lon="17.027335"><ele>196.0</ele><time>2026-03-29T12:36:26.015Z</time></trkpt><trkpt lat="39.422685" lon="17.027455"><ele>196.49999999999997</ele><time>2026-03-29T12:36:27.015Z</time></trkpt><trkpt lat="39.42271" lon="17.027575"><ele>197.0</ele><time>2026-03-29T12:36:28.014Z</time></trkpt><trkpt lat="39.4227333" lon="17.0277"><ele>197.5</ele><time>2026-03-29T12:36:29.015Z</time></trkpt><trkpt lat="39.4227567" lon="17.0278083"><ele>198.0</ele><time>2026-03-29T12:36:30.014Z</time></trkpt><trkpt lat="39.4227733" lon="17.0278933"><ele>198.49999999999997</ele><time>2026-03-29T12:36:31.015Z</time></trkpt><trkpt lat="39.42276" lon="17.02798"><ele>199.0</ele><time>2026-03-29T12:36:32.015Z</time></trkpt><trkpt lat="39.4227417" lon="17.0280667"><ele>198.99999999999997</ele><time>2026-03-29T12:36:33.015Z</time></trkpt><trkpt lat="39.422735" lon="17.028165"><ele>199.0</ele><time>2026-03-29T12:36:34.015Z</time></trkpt><trkpt lat="39.422745" lon="17.028255"><ele>199.0</ele><time>2026-03-29T12:36:35.015Z</time></trkpt><trkpt lat="39.4227817" lon="17.028345"><ele>199.0</ele><time>2026-03-29T12:36:36.015Z</time></trkpt><trkpt lat="39.4228383" lon="17.0284383"><ele>198.99999999999997</ele><time>2026-03-29T12:36:37.015Z</time></trkpt><trkpt lat="39.4229167" lon="17.0285217"><ele>199.0</ele><time>2026-03-29T12:36:38.014Z</time></trkpt><trkpt lat="39.4230083" lon="17.0286117"><ele>200.5</ele><time>2026-03-29T12:36:39.015Z</time></trkpt><trkpt lat="39.4231033" lon="17.0286933"><ele>202.0</ele><time>2026-03-29T12:36:40.015Z</time></trkpt><trkpt lat="39.4232083" lon="17.0287567"><ele>203.5</ele><time>2026-03-29T12:36:41.015Z</time></trkpt><trkpt lat="39.42332" lon="17.0288317"><ele>205.0</ele><time>2026-03-29T12:36:42.015Z</time></trkpt><trkpt lat="39.4234283" lon="17.0289083"><ele>205.0</ele><time>2026-03-29T12:36:43.015Z</time></trkpt><trkpt lat="39.4235367" lon="17.0289767"><ele>205.0</ele><time>2026-03-29T12:36:44.015Z</time></trkpt><trkpt lat="39.4236367" lon="17.029045"><ele>205.0</ele><time>2026-03-29T12:36:45.015Z</time></trkpt><trkpt lat="39.4237483" lon="17.029105"><ele>205.0</ele><time>2026-03-29T12:36:46.014Z</time></trkpt><trkpt lat="39.4238517" lon="17.0291383"><ele>202.0</ele><time>2026-03-29T12:36:47.015Z</time></trkpt><trkpt lat="39.4239517" lon="17.0291683"><ele>199.0</ele><time>2026-03-29T12:36:48.015Z</time></trkpt><trkpt lat="39.4240533" lon="17.0291917"><ele>196.0</ele><time>2026-03-29T12:36:49.015Z</time></trkpt><trkpt lat="39.4241433" lon="17.0292217"><ele>193.0</ele><time>2026-03-29T12:36:50.015Z</time></trkpt><trkpt lat="39.4242317" lon="17.029275"><ele>190.0</ele><time>2026-03-29T12:36:51.015Z</time></trkpt><trkpt lat="39.4242917" lon="17.0293633"><ele>190.0</ele><time>2026-03-29T12:36:52.015Z</time></trkpt><trkpt lat="39.4243367" lon="17.02946"><ele>190.0</ele><time>2026-03-29T12:36:53.015Z</time></trkpt><trkpt lat="39.42437" lon="17.029565"><ele>190.0</ele><time>2026-03-29T12:36:54.014Z</time></trkpt><trkpt lat="39.4244117" lon="17.02968"><ele>190.0</ele><time>2026-03-29T12:36:55.015Z</time></trkpt><trkpt lat="39.4244633" lon="17.0297883"><ele>190.0</ele><time>2026-03-29T12:36:56.014Z</time></trkpt><trkpt lat="39.4245167" lon="17.029895"><ele>188.6</ele><time>2026-03-29T12:36:57.015Z</time></trkpt><trkpt lat="39.4245783" lon="17.0299967"><ele>187.2</ele><time>2026-03-29T12:36:58.015Z</time></trkpt><trkpt lat="39.4246467" lon="17.03008"><ele>185.8</ele><time>2026-03-29T12:36:59.015Z</time></trkpt><trkpt lat="39.4247317" lon="17.030155"><ele>184.4</ele><time>2026-03-29T12:37:00.015Z</time></trkpt><trkpt lat="39.4248183" lon="17.0302117"><ele>183.0</ele><time>2026-03-29T12:37:01.015Z</time></trkpt><trkpt lat="39.4249083" lon="17.0302583"><ele>179.60000000000002</ele><time>2026-03-29T12:37:02.015Z</time></trkpt><trkpt lat="39.4250017" lon="17.030305"><ele>176.20000000000002</ele><time>2026-03-29T12:37:03.014Z</time></trkpt><trkpt lat="39.425095" lon="17.0303483"><ele>172.8</ele><time>2026-03-29T12:37:04.015Z</time></trkpt><trkpt lat="39.4251967" lon="17.0303967"><ele>169.4</ele><time>2026-03-29T12:37:05.015Z</time></trkpt><trkpt lat="39.4252883" lon="17.0304383"><ele>166.0</ele><time>2026-03-29T12:37:06.015Z</time></trkpt><trkpt lat="39.4253733" lon="17.0304933"><ele>166.0</ele><time>2026-03-29T12:37:07.015Z</time></trkpt><trkpt lat="39.4254483" lon="17.0305617"><ele>166.0</ele><time>2026-03-29T12:37:08.015Z</time></trkpt><trkpt lat="39.42552" lon="17.0306433"><ele>166.0</ele><time>2026-03-29T12:37:09.015Z</time></trkpt><trkpt lat="39.4255717" lon="17.0307317"><ele>166.0</ele><time>2026-03-29T12:37:10.015Z</time></trkpt><trkpt lat="39.4256133" lon="17.0308333"><ele>166.0</ele><time>2026-03-29T12:37:11.015Z</time></trkpt><trkpt lat="39.425655" lon="17.0309417"><ele>166.60000000000002</ele><time>2026-03-29T12:37:12.015Z</time></trkpt><trkpt lat="39.4256967" lon="17.031065"><ele>167.2</ele><time>2026-03-29T12:37:13.015Z</time></trkpt><trkpt lat="39.42574" lon="17.0311883"><ele>167.8</ele><time>2026-03-29T12:37:14.015Z</time></trkpt><trkpt lat="39.4257917" lon="17.0313117"><ele>168.39999999999998</ele><time>2026-03-29T12:37:15.015Z</time></trkpt><trkpt lat="39.4258333" lon="17.0314333"><ele>169.0</ele><time>2026-03-29T12:37:16.015Z</time></trkpt><trkpt lat="39.4258733" lon="17.0315533"><ele>167.66666666666669</ele><time>2026-03-29T12:37:17.015Z</time></trkpt><trkpt lat="39.4259017" lon="17.0316633"><ele>166.33333333333334</ele><time>2026-03-29T12:37:18.015Z</time></trkpt><trkpt lat="39.425925" lon="17.0317733"><ele>165.0</ele><time>2026-03-29T12:37:19.014Z</time></trkpt><trkpt lat="39.4259367" lon="17.0318783"><ele>163.66666666666666</ele><time>2026-03-29T12:37:20.015Z</time></trkpt><trkpt lat="39.42595" lon="17.0319733"><ele>162.33333333333331</ele><time>2026-03-29T12:37:21.014Z</time></trkpt><trkpt lat="39.4259667" lon="17.03206"><ele>161.0</ele><time>2026-03-29T12:37:22.015Z</time></trkpt><trkpt lat="39.425985" lon="17.0321467"><ele>161.0</ele><time>2026-03-29T12:37:23.014Z</time></trkpt><trkpt lat="39.4260117" lon="17.0322433"><ele>161.0</ele><time>2026-03-29T12:37:24.014Z</time></trkpt><trkpt lat="39.4260467" lon="17.03234"><ele>161.0</ele><time>2026-03-29T12:37:25.015Z</time></trkpt><trkpt lat="39.42608" lon="17.0324333"><ele>161.0</ele><time>2026-03-29T12:37:26.014Z</time></trkpt><trkpt lat="39.4261117" lon="17.0325233"><ele>161.0</ele><time>2026-03-29T12:37:27.015Z</time></trkpt><trkpt lat="39.4261517" lon="17.032625"><ele>161.0</ele><time>2026-03-29T12:37:28.015Z</time></trkpt><trkpt lat="39.4261983" lon="17.0326917"><ele>160.66666666666666</ele><time>2026-03-29T12:37:29.014Z</time></trkpt><trkpt lat="39.4262533" lon="17.0327683"><ele>160.33333333333331</ele><time>2026-03-29T12:37:30.015Z</time></trkpt><trkpt lat="39.4263217" lon="17.032825"><ele>160.0</ele><time>2026-03-29T12:37:31.015Z</time></trkpt><trkpt lat="39.4264017" lon="17.0328667"><ele>159.66666666666666</ele><time>2026-03-29T12:37:32.014Z</time></trkpt><trkpt lat="39.42649" lon="17.0329133"><ele>159.33333333333334</ele><time>2026-03-29T12:37:33.015Z</time></trkpt><trkpt lat="39.4265733" lon="17.0329517"><ele>159.0</ele><time>2026-03-29T12:37:34.014Z</time></trkpt><trkpt lat="39.4266567" lon="17.0329867"><ele>159.0</ele><time>2026-03-29T12:37:35.015Z</time></trkpt><trkpt lat="39.4267417" lon="17.03299"><ele>159.0</ele><time>2026-03-29T12:37:36.015Z</time></trkpt><trkpt lat="39.426825" lon="17.0329833"><ele>159.0</ele><time>2026-03-29T12:37:37.014Z</time></trkpt><trkpt lat="39.426905" lon="17.0329767"><ele>159.0</ele><time>2026-03-29T12:37:38.015Z</time></trkpt><trkpt lat="39.4269833" lon="17.0329783"><ele>159.0</ele><time>2026-03-29T12:37:39.015Z</time></trkpt><trkpt lat="39.4270617" lon="17.033"><ele>159.0</ele><time>2026-03-29T12:37:40.015Z</time></trkpt><trkpt lat="39.42714" lon="17.0330417"><ele>155.66666666666666</ele><time>2026-03-29T12:37:41.015Z</time></trkpt><trkpt lat="39.4272167" lon="17.03309"><ele>152.33333333333334</ele><time>2026-03-29T12:37:42.015Z</time></trkpt><trkpt lat="39.427285" lon="17.0331433"><ele>149.0</ele><time>2026-03-29T12:37:43.015Z</time></trkpt><trkpt lat="39.4273617" lon="17.0332083"><ele>145.66666666666669</ele><time>2026-03-29T12:37:44.015Z</time></trkpt><trkpt lat="39.4274333" lon="17.0332817"><ele>142.33333333333334</ele><time>2026-03-29T12:37:45.015Z</time></trkpt><trkpt lat="39.427495" lon="17.03336"><ele>139.0</ele><time>2026-03-29T12:37:46.015Z</time></trkpt><trkpt lat="39.4275533" lon="17.0334383"><ele>136.8</ele><time>2026-03-29T12:37:47.015Z</time></trkpt><trkpt lat="39.42761" lon="17.0335183"><ele>134.60000000000002</ele><time>2026-03-29T12:37:48.015Z</time></trkpt><trkpt lat="39.4276383" lon="17.0336233"><ele>132.4</ele><time>2026-03-29T12:37:49.015Z</time></trkpt><trkpt lat="39.4276583" lon="17.0337483"><ele>130.20000000000002</ele><time>2026-03-29T12:37:50.015Z</time></trkpt><trkpt lat="39.4276783" lon="17.03388"><ele>128.0</ele><time>2026-03-29T12:37:51.015Z</time></trkpt><trkpt lat="39.4276983" lon="17.034005"><ele>128.0</ele><time>2026-03-29T12:37:52.015Z</time></trkpt><trkpt lat="39.427725" lon="17.0341333"><ele>128.0</ele><time>2026-03-29T12:37:53.015Z</time></trkpt><trkpt lat="39.4277567" lon="17.03426"><ele>128.0</ele><time>2026-03-29T12:37:54.015Z</time></trkpt><trkpt lat="39.4278033" lon="17.0343767"><ele>128.0</ele><time>2026-03-29T12:37:55.015Z</time></trkpt><trkpt lat="39.4278483" lon="17.03448"><ele>128.0</ele><time>2026-03-29T12:37:56.015Z</time></trkpt><trkpt lat="39.4278883" lon="17.034575"><ele>126.33333333333333</ele><time>2026-03-29T12:37:57.015Z</time></trkpt><trkpt lat="39.4279333" lon="17.0346483"><ele>124.66666666666666</ele><time>2026-03-29T12:37:58.015Z</time></trkpt><trkpt lat="39.4279833" lon="17.0347083"><ele>123.0</ele><time>2026-03-29T12:37:59.015Z</time></trkpt><trkpt lat="39.4280467" lon="17.0347567"><ele>121.33333333333334</ele><time>2026-03-29T12:38:00.015Z</time></trkpt><trkpt lat="39.428115" lon="17.0347817"><ele>119.66666666666667</ele><time>2026-03-29T12:38:01.015Z</time></trkpt><trkpt lat="39.4281967" lon="17.0348083"><ele>118.0</ele><time>2026-03-29T12:38:02.014Z</time></trkpt><trkpt lat="39.4282717" lon="17.0348483"><ele>116.80000000000001</ele><time>2026-03-29T12:38:03.015Z</time></trkpt><trkpt lat="39.4283417" lon="17.03491"><ele>115.60000000000001</ele><time>2026-03-29T12:38:04.015Z</time></trkpt><trkpt lat="39.4284033" lon="17.03501"><ele>114.39999999999999</ele><time>2026-03-29T12:38:05.015Z</time></trkpt><trkpt lat="39.4284533" lon="17.03511"><ele>113.19999999999999</ele><time>2026-03-29T12:38:06.014Z</time></trkpt><trkpt lat="39.4284867" lon="17.035215"><ele>112.0</ele><time>2026-03-29T12:38:07.015Z</time></trkpt><trkpt lat="39.4285117" lon="17.0353333"><ele>112.00000000000001</ele><time>2026-03-29T12:38:08.015Z</time></trkpt><trkpt lat="39.4285267" lon="17.0354383"><ele>112.0</ele><time>2026-03-29T12:38:09.015Z</time></trkpt><trkpt lat="39.428555" lon="17.0355417"><ele>112.0</ele><time>2026-03-29T12:38:10.015Z</time></trkpt><trkpt lat="39.4285867" lon="17.0356467"><ele>112.0</ele><time>2026-03-29T12:38:11.015Z</time></trkpt><trkpt lat="39.4286133" lon="17.0357583"><ele>112.00000000000001</ele><time>2026-03-29T12:38:12.015Z</time></trkpt><trkpt lat="39.4286317" lon="17.0358667"><ele>112.0</ele><time>2026-03-29T12:38:13.015Z</time></trkpt><trkpt lat="39.428635" lon="17.0359733"><ele>111.57142857142857</ele><time>2026-03-29T12:38:14.015Z</time></trkpt><trkpt lat="39.428635" lon="17.0360683"><ele>111.14285714285714</ele><time>2026-03-29T12:38:15.015Z</time></trkpt><trkpt lat="39.4286267" lon="17.0361567"><ele>110.71428571428572</ele><time>2026-03-29T12:38:16.015Z</time></trkpt><trkpt lat="39.4286117" lon="17.0362383"><ele>110.28571428571428</ele><time>2026-03-29T12:38:17.015Z</time></trkpt><trkpt lat="39.428585" lon="17.036315"><ele>109.85714285714286</ele><time>2026-03-29T12:38:18.015Z</time></trkpt><trkpt lat="39.428555" lon="17.036395"><ele>109.42857142857143</ele><time>2026-03-29T12:38:19.015Z</time></trkpt><trkpt lat="39.428535" lon="17.0364867"><ele>109.0</ele><time>2026-03-29T12:38:20.015Z</time></trkpt><trkpt lat="39.42853" lon="17.03657"><ele>108.00000000000001</ele><time>2026-03-29T12:38:21.014Z</time></trkpt><trkpt lat="39.4285533" lon="17.03666"><ele>107.0</ele><time>2026-03-29T12:38:22.015Z</time></trkpt><trkpt lat="39.4285983" lon="17.036745"><ele>106.0</ele><time>2026-03-29T12:38:23.015Z</time></trkpt><trkpt lat="39.4286567" lon="17.0368217"><ele>105.0</ele><time>2026-03-29T12:38:24.014Z</time></trkpt><trkpt lat="39.4287133" lon="17.0368833"><ele>104.00000000000001</ele><time>2026-03-29T12:38:25.015Z</time></trkpt><trkpt lat="39.428775" lon="17.036945"><ele>103.0</ele><time>2026-03-29T12:38:26.015Z</time></trkpt><trkpt lat="39.4288617" lon="17.0370533"><ele>101.2</ele><time>2026-03-29T12:38:28.015Z</time></trkpt><trkpt lat="39.4289067" lon="17.0371817"><ele>99.4</ele><time>2026-03-29T12:38:30.015Z</time></trkpt><trkpt lat="39.428885" lon="17.037315"><ele>97.60000000000001</ele><time>2026-03-29T12:38:32.014Z</time></trkpt><trkpt lat="39.4288133" lon="17.0374133"><ele>95.80000000000001</ele><time>2026-03-29T12:38:34.015Z</time></trkpt><trkpt lat="39.428785" lon="17.0375383"><ele>94.0</ele><time>2026-03-29T12:38:36.015Z</time></trkpt><trkpt lat="39.42884" lon="17.0376633"><ele>93.83333333333333</ele><time>2026-03-29T12:38:38.014Z</time></trkpt><trkpt lat="39.4288933" lon="17.0377217"><ele>93.66666666666666</ele><time>2026-03-29T12:38:39.015Z</time></trkpt><trkpt lat="39.428955" lon="17.037785"><ele>93.5</ele><time>2026-03-29T12:38:40.015Z</time></trkpt><trkpt lat="39.4290233" lon="17.0378483"><ele>93.33333333333333</ele><time>2026-03-29T12:38:41.015Z</time></trkpt><trkpt lat="39.4290917" lon="17.0379083"><ele>93.16666666666667</ele><time>2026-03-29T12:38:42.015Z</time></trkpt><trkpt lat="39.4291633" lon="17.03796"><ele>93.0</ele><time>2026-03-29T12:38:43.015Z</time></trkpt><trkpt lat="39.4292417" lon="17.038"><ele>93.0</ele><time>2026-03-29T12:38:44.015Z</time></trkpt><trkpt lat="39.4293317" lon="17.03804"><ele>93.0</ele><time>2026-03-29T12:38:45.015Z</time></trkpt><trkpt lat="39.42944" lon="17.03807"><ele>93.0</ele><time>2026-03-29T12:38:46.015Z</time></trkpt><trkpt lat="39.429555" lon="17.03811"><ele>93.0</ele><time>2026-03-29T12:38:47.015Z</time></trkpt><trkpt lat="39.4296617" lon="17.0381467"><ele>93.0</ele><time>2026-03-29T12:38:48.014Z</time></trkpt><trkpt lat="39.429765" lon="17.0382"><ele>90.4</ele><time>2026-03-29T12:38:49.014Z</time></trkpt><trkpt lat="39.4298517" lon="17.0382867"><ele>87.80000000000001</ele><time>2026-03-29T12:38:50.015Z</time></trkpt><trkpt lat="39.4299117" lon="17.03839"><ele>85.2</ele><time>2026-03-29T12:38:51.015Z</time></trkpt><trkpt lat="39.4299717" lon="17.0384983"><ele>82.6</ele><time>2026-03-29T12:38:52.015Z</time></trkpt><trkpt lat="39.4300233" lon="17.03863"><ele>80.0</ele><time>2026-03-29T12:38:53.015Z</time></trkpt><trkpt lat="39.430065" lon="17.038765"><ele>80.25</ele><time>2026-03-29T12:38:54.015Z</time></trkpt><trkpt lat="39.4301067" lon="17.0389117"><ele>80.5</ele><time>2026-03-29T12:38:55.015Z</time></trkpt><trkpt lat="39.4301383" lon="17.0390617"><ele>80.75</ele><time>2026-03-29T12:38:56.015Z</time></trkpt><trkpt lat="39.4301683" lon="17.0392167"><ele>81.0</ele><time>2026-03-29T12:38:57.015Z</time></trkpt><trkpt lat="39.4301833" lon="17.0393717"><ele>81.0</ele><time>2026-03-29T12:38:58.014Z</time></trkpt><trkpt lat="39.43018" lon="17.039515"><ele>81.0</ele><time>2026-03-29T12:38:59.015Z</time></trkpt><trkpt lat="39.430185" lon="17.03964"><ele>81.0</ele><time>2026-03-29T12:39:00.014Z</time></trkpt><trkpt lat="39.4301967" lon="17.0397367"><ele>81.0</ele><time>2026-03-29T12:39:01.015Z</time></trkpt><trkpt lat="39.430235" lon="17.0398167"><ele>81.0</ele><time>2026-03-29T12:39:02.014Z</time></trkpt><trkpt lat="39.4302917" lon="17.0398717"><ele>81.0</ele><time>2026-03-29T12:39:03.015Z</time></trkpt><trkpt lat="39.43037" lon="17.03992"><ele>80.66666666666667</ele><time>2026-03-29T12:39:04.015Z</time></trkpt><trkpt lat="39.43045" lon="17.0399967"><ele>80.33333333333333</ele><time>2026-03-29T12:39:05.015Z</time></trkpt><trkpt lat="39.4305083" lon="17.04009"><ele>80.0</ele><time>2026-03-29T12:39:06.015Z</time></trkpt><trkpt lat="39.430535" lon="17.0402033"><ele>79.66666666666666</ele><time>2026-03-29T12:39:07.015Z</time></trkpt><trkpt lat="39.430525" lon="17.040295"><ele>79.33333333333333</ele><time>2026-03-29T12:39:08.015Z</time></trkpt><trkpt lat="39.4304817" lon="17.0403567"><ele>79.0</ele><time>2026-03-29T12:39:09.014Z</time></trkpt><trkpt lat="39.4304217" lon="17.0404217"><ele>79.0</ele><time>2026-03-29T12:39:10.015Z</time></trkpt><trkpt lat="39.4303683" lon="17.0404983"><ele>79.0</ele><time>2026-03-29T12:39:11.015Z</time></trkpt><trkpt lat="39.43032" lon="17.040595"><ele>79.0</ele><time>2026-03-29T12:39:12.015Z</time></trkpt><trkpt lat="39.4302867" lon="17.040695"><ele>79.0</ele><time>2026-03-29T12:39:13.015Z</time></trkpt><trkpt lat="39.4302767" lon="17.040815"><ele>79.0</ele><time>2026-03-29T12:39:14.015Z</time></trkpt><trkpt lat="39.4302733" lon="17.0409367"><ele>79.0</ele><time>2026-03-29T12:39:15.015Z</time></trkpt><trkpt lat="39.430265" lon="17.041055"><ele>78.83333333333333</ele><time>2026-03-29T12:39:16.015Z</time></trkpt><trkpt lat="39.4302433" lon="17.0411767"><ele>78.66666666666666</ele><time>2026-03-29T12:39:17.015Z</time></trkpt><trkpt lat="39.4302217" lon="17.0412817"><ele>78.5</ele><time>2026-03-29T12:39:18.015Z</time></trkpt><trkpt lat="39.4301933" lon="17.0413833"><ele>78.33333333333333</ele><time>2026-03-29T12:39:19.015Z</time></trkpt><trkpt lat="39.4301717" lon="17.041475"><ele>78.16666666666667</ele><time>2026-03-29T12:39:20.015Z</time></trkpt><trkpt lat="39.4301483" lon="17.041555"><ele>78.0</ele><time>2026-03-29T12:39:21.015Z</time></trkpt><trkpt lat="39.4301283" lon="17.041635"><ele>77.85714285714286</ele><time>2026-03-29T12:39:22.015Z</time></trkpt><trkpt lat="39.4301083" lon="17.0417233"><ele>77.71428571428571</ele><time>2026-03-29T12:39:23.015Z</time></trkpt><trkpt lat="39.430095" lon="17.0418083"><ele>77.57142857142857</ele><time>2026-03-29T12:39:24.014Z</time></trkpt><trkpt lat="39.4300817" lon="17.04189"><ele>77.42857142857143</ele><time>2026-03-29T12:39:25.015Z</time></trkpt><trkpt lat="39.4300617" lon="17.04197"><ele>77.28571428571428</ele><time>2026-03-29T12:39:26.015Z</time></trkpt><trkpt lat="39.4300367" lon="17.0420667"><ele>77.14285714285714</ele><time>2026-03-29T12:39:27.015Z</time></trkpt><trkpt lat="39.4300167" lon="17.0421683"><ele>77.0</ele><time>2026-03-29T12:39:28.015Z</time></trkpt><trkpt lat="39.4300067" lon="17.04227"><ele>77.0</ele><time>2026-03-29T12:39:29.014Z</time></trkpt><trkpt lat="39.4299983" lon="17.04237"><ele>77.0</ele><time>2026-03-29T12:39:30.015Z</time></trkpt><trkpt lat="39.4299933" lon="17.042465"><ele>77.0</ele><time>2026-03-29T12:39:31.015Z</time></trkpt><trkpt lat="39.429985" lon="17.0425633"><ele>77.0</ele><time>2026-03-29T12:39:32.015Z</time></trkpt><trkpt lat="39.4299767" lon="17.0426567"><ele>77.0</ele><time>2026-03-29T12:39:33.015Z</time></trkpt><trkpt lat="39.4299717" lon="17.0427567"><ele>77.0</ele><time>2026-03-29T12:39:34.015Z</time></trkpt><trkpt lat="39.4299683" lon="17.0428483"><ele>77.0</ele><time>2026-03-29T12:39:35.015Z</time></trkpt><trkpt lat="39.429965" lon="17.042945"><ele>77.0</ele><time>2026-03-29T12:39:36.015Z</time></trkpt><trkpt lat="39.429965" lon="17.04304"><ele>77.0</ele><time>2026-03-29T12:39:37.014Z</time></trkpt><trkpt lat="39.4299767" lon="17.0431317"><ele>77.0</ele><time>2026-03-29T12:39:38.015Z</time></trkpt><trkpt lat="39.4299883" lon="17.0432217"><ele>77.0</ele><time>2026-03-29T12:39:39.015Z</time></trkpt><trkpt lat="39.4300133" lon="17.0433167"><ele>77.0</ele><time>2026-03-29T12:39:40.015Z</time></trkpt><trkpt lat="39.4300617" lon="17.0434167"><ele>77.0</ele><time>2026-03-29T12:39:41.015Z</time></trkpt><trkpt lat="39.4301167" lon="17.04351"><ele>76.33333333333334</ele><time>2026-03-29T12:39:42.015Z</time></trkpt><trkpt lat="39.4301717" lon="17.04359"><ele>75.66666666666667</ele><time>2026-03-29T12:39:43.014Z</time></trkpt><trkpt lat="39.4302217" lon="17.0436683"><ele>75.0</ele><time>2026-03-29T12:39:44.015Z</time></trkpt><trkpt lat="39.43027" lon="17.043755"><ele>74.33333333333333</ele><time>2026-03-29T12:39:45.014Z</time></trkpt><trkpt lat="39.430315" lon="17.04384"><ele>73.66666666666666</ele><time>2026-03-29T12:39:46.015Z</time></trkpt><trkpt lat="39.4303633" lon="17.0439233"><ele>73.0</ele><time>2026-03-29T12:39:47.015Z</time></trkpt><trkpt lat="39.430405" lon="17.0440017"><ele>73.0</ele><time>2026-03-29T12:39:48.015Z</time></trkpt><trkpt lat="39.4304467" lon="17.0440917"><ele>73.0</ele><time>2026-03-29T12:39:49.015Z</time></trkpt><trkpt lat="39.430485" lon="17.0441967"><ele>73.0</ele><time>2026-03-29T12:39:50.015Z</time></trkpt><trkpt lat="39.430525" lon="17.044315"><ele>73.0</ele><time>2026-03-29T12:39:51.015Z</time></trkpt><trkpt lat="39.4305667" lon="17.0444317"><ele>73.0</ele><time>2026-03-29T12:39:52.015Z</time></trkpt><trkpt lat="39.4306117" lon="17.044545"><ele>72.5</ele><time>2026-03-29T12:39:53.014Z</time></trkpt><trkpt lat="39.430665" lon="17.0446467"><ele>72.0</ele><time>2026-03-29T12:39:54.014Z</time></trkpt><trkpt lat="39.43071" lon="17.0447117"><ele>71.5</ele><time>2026-03-29T12:39:55.015Z</time></trkpt><trkpt lat="39.4308067" lon="17.044785"><ele>71.0</ele><time>2026-03-29T12:39:57.015Z</time></trkpt><trkpt lat="39.4308683" lon="17.04481"><ele>70.5</ele><time>2026-03-29T12:39:58.015Z</time></trkpt><trkpt lat="39.4309417" lon="17.0448333"><ele>70.0</ele><time>2026-03-29T12:39:59.015Z</time></trkpt><trkpt lat="39.4310283" lon="17.0448517"><ele>70.0</ele><time>2026-03-29T12:40:00.015Z</time></trkpt><trkpt lat="39.431115" lon="17.0448817"><ele>70.0</ele><time>2026-03-29T12:40:01.015Z</time></trkpt><trkpt lat="39.4312033" lon="17.0449"><ele>70.0</ele><time>2026-03-29T12:40:02.015Z</time></trkpt><trkpt lat="39.4312967" lon="17.04492"><ele>70.0</ele><time>2026-03-29T12:40:03.015Z</time></trkpt><trkpt lat="39.4313767" lon="17.0449433"><ele>70.0</ele><time>2026-03-29T12:40:04.015Z</time></trkpt><trkpt lat="39.4314633" lon="17.0449717"><ele>70.0</ele><time>2026-03-29T12:40:05.015Z</time></trkpt><trkpt lat="39.4315467" lon="17.0449967"><ele>69.0</ele><time>2026-03-29T12:40:06.015Z</time></trkpt><trkpt lat="39.4316333" lon="17.045015"><ele>68.0</ele><time>2026-03-29T12:40:07.015Z</time></trkpt><trkpt lat="39.4317117" lon="17.0450267"><ele>67.0</ele><time>2026-03-29T12:40:08.015Z</time></trkpt><trkpt lat="39.4317767" lon="17.0450533"><ele>66.0</ele><time>2026-03-29T12:40:09.015Z</time></trkpt><trkpt lat="39.43189" lon="17.0451467"><ele>65.0</ele><time>2026-03-29T12:40:11.014Z</time></trkpt><trkpt lat="39.431945" lon="17.0452233"><ele>65.0</ele><time>2026-03-29T12:40:12.015Z</time></trkpt><trkpt lat="39.4320017" lon="17.0453183"><ele>65.0</ele><time>2026-03-29T12:40:13.014Z</time></trkpt><trkpt lat="39.4320567" lon="17.0454117"><ele>65.0</ele><time>2026-03-29T12:40:14.015Z</time></trkpt><trkpt lat="39.4321117" lon="17.045505"><ele>65.0</ele><time>2026-03-29T12:40:15.015Z</time></trkpt><trkpt lat="39.4321667" lon="17.04559"><ele>65.0</ele><time>2026-03-29T12:40:16.015Z</time></trkpt><trkpt lat="39.432225" lon="17.0456733"><ele>65.0</ele><time>2026-03-29T12:40:17.015Z</time></trkpt><trkpt lat="39.4322783" lon="17.045755"><ele>63.6</ele><time>2026-03-29T12:40:18.015Z</time></trkpt><trkpt lat="39.4323367" lon="17.0458433"><ele>62.2</ele><time>2026-03-29T12:40:19.014Z</time></trkpt><trkpt lat="39.4323933" lon="17.04593"><ele>60.8</ele><time>2026-03-29T12:40:20.015Z</time></trkpt><trkpt lat="39.4324467" lon="17.0460317"><ele>59.4</ele><time>2026-03-29T12:40:21.015Z</time></trkpt><trkpt lat="39.4324933" lon="17.0461333"><ele>58.0</ele><time>2026-03-29T12:40:22.014Z</time></trkpt><trkpt lat="39.4325433" lon="17.0462417"><ele>57.99999999999999</ele><time>2026-03-29T12:40:23.015Z</time></trkpt><trkpt lat="39.4325933" lon="17.0463333"><ele>58.0</ele><time>2026-03-29T12:40:24.015Z</time></trkpt><trkpt lat="39.4326433" lon="17.04641"><ele>58.0</ele><time>2026-03-29T12:40:25.014Z</time></trkpt><trkpt lat="39.4326917" lon="17.046475"><ele>58.0</ele><time>2026-03-29T12:40:26.015Z</time></trkpt><trkpt lat="39.4327433" lon="17.0465267"><ele>57.99999999999999</ele><time>2026-03-29T12:40:27.015Z</time></trkpt><trkpt lat="39.4328233" lon="17.0466217"><ele>58.0</ele><time>2026-03-29T12:40:29.015Z</time></trkpt><trkpt lat="39.4329083" lon="17.0467167"><ele>57.0</ele><time>2026-03-29T12:40:31.015Z</time></trkpt><trkpt lat="39.4330017" lon="17.04682"><ele>56.0</ele><time>2026-03-29T12:40:33.015Z</time></trkpt><trkpt lat="39.4330567" lon="17.04688"><ele>55.0</ele><time>2026-03-29T12:40:34.015Z</time></trkpt><trkpt lat="39.4331133" lon="17.046945"><ele>54.0</ele><time>2026-03-29T12:40:35.015Z</time></trkpt><trkpt lat="39.4331833" lon="17.047015"><ele>53.0</ele><time>2026-03-29T12:40:36.015Z</time></trkpt><trkpt lat="39.4332617" lon="17.0470833"><ele>53.00000000000001</ele><time>2026-03-29T12:40:37.015Z</time></trkpt><trkpt lat="39.4333367" lon="17.0471433"><ele>53.0</ele><time>2026-03-29T12:40:38.015Z</time></trkpt><trkpt lat="39.4334067" lon="17.0472017"><ele>53.0</ele><time>2026-03-29T12:40:39.015Z</time></trkpt><trkpt lat="39.433475" lon="17.0472533"><ele>53.0</ele><time>2026-03-29T12:40:40.015Z</time></trkpt><trkpt lat="39.4335383" lon="17.0472983"><ele>53.00000000000001</ele><time>2026-03-29T12:40:41.015Z</time></trkpt><trkpt lat="39.4336" lon="17.0473333"><ele>53.0</ele><time>2026-03-29T12:40:42.015Z</time></trkpt><trkpt lat="39.4336633" lon="17.0473617"><ele>53.0</ele><time>2026-03-29T12:40:43.015Z</time></trkpt><trkpt lat="39.433725" lon="17.0473917"><ele>53.0</ele><time>2026-03-29T12:40:44.015Z</time></trkpt><trkpt lat="39.4337917" lon="17.04742"><ele>53.0</ele><time>2026-03-29T12:40:45.014Z</time></trkpt><trkpt lat="39.4338567" lon="17.0474467"><ele>53.0</ele><time>2026-03-29T12:40:46.015Z</time></trkpt><trkpt lat="39.4339283" lon="17.0474883"><ele>53.0</ele><time>2026-03-29T12:40:47.015Z</time></trkpt><trkpt lat="39.433985" lon="17.0475367"><ele>53.0</ele><time>2026-03-29T12:40:48.015Z</time></trkpt><trkpt lat="39.4340267" lon="17.0476333"><ele>53.0</ele><time>2026-03-29T12:40:50.014Z</time></trkpt><trkpt lat="39.4340533" lon="17.0477183"><ele>53.16666666666667</ele><time>2026-03-29T12:40:52.015Z</time></trkpt><trkpt lat="39.43408" lon="17.0478183"><ele>53.333333333333336</ele><time>2026-03-29T12:40:54.015Z</time></trkpt><trkpt lat="39.4340783" lon="17.0479233"><ele>53.5</ele><time>2026-03-29T12:40:56.015Z</time></trkpt><trkpt lat="39.4340767" lon="17.04808"><ele>53.66666666666667</ele><time>2026-03-29T12:40:58.015Z</time></trkpt><trkpt lat="39.4340867" lon="17.048165"><ele>53.833333333333336</ele><time>2026-03-29T12:40:59.015Z</time></trkpt><trkpt lat="39.4341117" lon="17.0482517"><ele>54.0</ele><time>2026-03-29T12:41:00.015Z</time></trkpt><trkpt lat="39.4341467" lon="17.0483267"><ele>54.14285714285714</ele><time>2026-03-29T12:41:01.015Z</time></trkpt><trkpt lat="39.4341883" lon="17.048395"><ele>54.285714285714285</ele><time>2026-03-29T12:41:02.015Z</time></trkpt><trkpt lat="39.43423" lon="17.0484683"><ele>54.42857142857143</ele><time>2026-03-29T12:41:03.014Z</time></trkpt><trkpt lat="39.4342717" lon="17.0485333"><ele>54.57142857142857</ele><time>2026-03-29T12:41:04.015Z</time></trkpt><trkpt lat="39.4343133" lon="17.0486133"><ele>54.714285714285715</ele><time>2026-03-29T12:41:05.015Z</time></trkpt><trkpt lat="39.4343633" lon="17.0486917"><ele>54.857142857142854</ele><time>2026-03-29T12:41:06.015Z</time></trkpt><trkpt lat="39.43441" lon="17.0487733"><ele>55.0</ele><time>2026-03-29T12:41:07.015Z</time></trkpt><trkpt lat="39.4344617" lon="17.048855"><ele>55.0</ele><time>2026-03-29T12:41:08.015Z</time></trkpt><trkpt lat="39.43452" lon="17.0489417"><ele>55.0</ele><time>2026-03-29T12:41:09.015Z</time></trkpt><trkpt lat="39.43458" lon="17.04903"><ele>55.0</ele><time>2026-03-29T12:41:10.015Z</time></trkpt><trkpt lat="39.4346367" lon="17.0491233"><ele>55.0</ele><time>2026-03-29T12:41:11.015Z</time></trkpt><trkpt lat="39.4346933" lon="17.0492117"><ele>55.0</ele><time>2026-03-29T12:41:12.015Z</time></trkpt><trkpt lat="39.4347517" lon="17.0493067"><ele>52.83333333333333</ele><time>2026-03-29T12:41:13.015Z</time></trkpt><trkpt lat="39.434805" lon="17.0493833"><ele>50.666666666666664</ele><time>2026-03-29T12:41:14.015Z</time></trkpt><trkpt lat="39.4348517" lon="17.0494767"><ele>48.5</ele><time>2026-03-29T12:41:15.014Z</time></trkpt><trkpt lat="39.4348983" lon="17.0495767"><ele>46.33333333333333</ele><time>2026-03-29T12:41:16.015Z</time></trkpt><trkpt lat="39.434945" lon="17.0496783"><ele>44.166666666666664</ele><time>2026-03-29T12:41:17.015Z</time></trkpt><trkpt lat="39.4349967" lon="17.0497767"><ele>42.0</ele><time>2026-03-29T12:41:18.015Z</time></trkpt><trkpt lat="39.435055" lon="17.049865"><ele>42.0</ele><time>2026-03-29T12:41:19.015Z</time></trkpt><trkpt lat="39.4351317" lon="17.049935"><ele>42.0</ele><time>2026-03-29T12:41:20.014Z</time></trkpt><trkpt lat="39.4352167" lon="17.0499917"><ele>42.0</ele><time>2026-03-29T12:41:21.015Z</time></trkpt><trkpt lat="39.4353033" lon="17.0500433"><ele>42.0</ele><time>2026-03-29T12:41:22.015Z</time></trkpt><trkpt lat="39.4353933" lon="17.0500817"><ele>42.0</ele><time>2026-03-29T12:41:23.015Z</time></trkpt><trkpt lat="39.4354833" lon="17.0501283"><ele>38.6</ele><time>2026-03-29T12:41:24.015Z</time></trkpt><trkpt lat="39.4355833" lon="17.0501767"><ele>35.2</ele><time>2026-03-29T12:41:25.015Z</time></trkpt><trkpt lat="39.4356767" lon="17.0502283"><ele>31.8</ele><time>2026-03-29T12:41:26.015Z</time></trkpt><trkpt lat="39.435765" lon="17.0502817"><ele>28.4</ele><time>2026-03-29T12:41:27.015Z</time></trkpt><trkpt lat="39.435855" lon="17.0503283"><ele>25.0</ele><time>2026-03-29T12:41:28.015Z</time></trkpt><trkpt lat="39.4359467" lon="17.05037"><ele>25.0</ele><time>2026-03-29T12:41:29.014Z</time></trkpt><trkpt lat="39.4360483" lon="17.0504133"><ele>25.0</ele><time>2026-03-29T12:41:30.015Z</time></trkpt><trkpt lat="39.4361533" lon="17.0504667"><ele>25.0</ele><time>2026-03-29T12:41:31.015Z</time></trkpt><trkpt lat="39.4362517" lon="17.0505333"><ele>25.0</ele><time>2026-03-29T12:41:32.015Z</time></trkpt><trkpt lat="39.4363467" lon="17.0506067"><ele>25.0</ele><time>2026-03-29T12:41:33.015Z</time></trkpt><trkpt lat="39.4364317" lon="17.0506867"><ele>24.0</ele><time>2026-03-29T12:41:34.015Z</time></trkpt><trkpt lat="39.4365067" lon="17.050765"><ele>23.0</ele><time>2026-03-29T12:41:35.015Z</time></trkpt><trkpt lat="39.4365883" lon="17.0508383"><ele>22.0</ele><time>2026-03-29T12:41:36.015Z</time></trkpt><trkpt lat="39.4366683" lon="17.0509067"><ele>21.0</ele><time>2026-03-29T12:41:37.015Z</time></trkpt><trkpt lat="39.4367517" lon="17.0509733"><ele>20.0</ele><time>2026-03-29T12:41:38.015Z</time></trkpt><trkpt lat="39.4368383" lon="17.0510433"><ele>20.0</ele><time>2026-03-29T12:41:39.014Z</time></trkpt><trkpt lat="39.4369183" lon="17.0511133"><ele>20.0</ele><time>2026-03-29T12:41:40.015Z</time></trkpt><trkpt lat="39.4369867" lon="17.0511683"><ele>20.0</ele><time>2026-03-29T12:41:41.015Z</time></trkpt><trkpt lat="39.4370517" lon="17.0511933"><ele>20.0</ele><time>2026-03-29T12:41:42.015Z</time></trkpt><trkpt lat="39.437165" lon="17.051245"><ele>20.0</ele><time>2026-03-29T12:41:44.015Z</time></trkpt><trkpt lat="39.4372733" lon="17.0512967"><ele>19.666666666666668</ele><time>2026-03-29T12:41:46.015Z</time></trkpt><trkpt lat="39.4373383" lon="17.0513333"><ele>19.333333333333336</ele><time>2026-03-29T12:41:47.015Z</time></trkpt><trkpt lat="39.4374033" lon="17.0513683"><ele>19.0</ele><time>2026-03-29T12:41:48.014Z</time></trkpt><trkpt lat="39.4374667" lon="17.0514067"><ele>18.666666666666668</ele><time>2026-03-29T12:41:49.015Z</time></trkpt><trkpt lat="39.4375717" lon="17.0514617"><ele>18.333333333333332</ele><time>2026-03-29T12:41:51.015Z</time></trkpt><trkpt lat="39.4376417" lon="17.0514833"><ele>18.0</ele><time>2026-03-29T12:41:53.015Z</time></trkpt><trkpt lat="39.4377" lon="17.0515317"><ele>18.0</ele><time>2026-03-29T12:41:56.015Z</time></trkpt><trkpt lat="39.4377633" lon="17.0515883"><ele>18.0</ele><time>2026-03-29T12:41:59.015Z</time></trkpt><trkpt lat="39.4378133" lon="17.0516417"><ele>18.0</ele><time>2026-03-29T12:42:02.015Z</time></trkpt><trkpt lat="39.4378283" lon="17.0517267"><ele>18.0</ele><time>2026-03-29T12:42:06.015Z</time></trkpt><trkpt lat="39.4377717" lon="17.051825"><ele>18.0</ele><time>2026-03-29T12:42:09.015Z</time></trkpt><trkpt lat="39.4376983" lon="17.05191"><ele>18.0</ele><time>2026-03-29T12:42:11.015Z</time></trkpt><trkpt lat="39.43764" lon="17.0519733"><ele>17.833333333333332</ele><time>2026-03-29T12:42:13.014Z</time></trkpt><trkpt lat="39.4375933" lon="17.0520317"><ele>17.666666666666668</ele><time>2026-03-29T12:42:15.015Z</time></trkpt><trkpt lat="39.4375417" lon="17.0520967"><ele>17.5</ele><time>2026-03-29T12:42:17.014Z</time></trkpt><trkpt lat="39.43747" lon="17.0521983"><ele>17.333333333333336</ele><time>2026-03-29T12:42:19.014Z</time></trkpt><trkpt lat="39.4374" lon="17.05229"><ele>17.166666666666668</ele><time>2026-03-29T12:42:21.015Z</time></trkpt><trkpt lat="39.4373383" lon="17.0523783"><ele>17.0</ele><time>2026-03-29T12:42:23.014Z</time></trkpt><trkpt lat="39.4372583" lon="17.0524867"><ele>16.5</ele><time>2026-03-29T12:42:25.015Z</time></trkpt><trkpt lat="39.4372167" lon="17.0525517"><ele>16.0</ele><time>2026-03-29T12:42:26.015Z</time></trkpt><trkpt lat="39.4371683" lon="17.05263"><ele>15.5</ele><time>2026-03-29T12:42:27.015Z</time></trkpt><trkpt lat="39.437115" lon="17.0527033"><ele>15.0</ele><time>2026-03-29T12:42:28.015Z</time></trkpt><trkpt lat="39.43707" lon="17.0527733"><ele>14.500000000000002</ele><time>2026-03-29T12:42:29.014Z</time></trkpt><trkpt lat="39.4369817" lon="17.0528833"><ele>14.0</ele><time>2026-03-29T12:42:31.015Z</time></trkpt><trkpt lat="39.43691" lon="17.0529867"><ele>14.6</ele><time>2026-03-29T12:42:33.015Z</time></trkpt><trkpt lat="39.4368217" lon="17.0530783"><ele>15.2</ele><time>2026-03-29T12:42:35.015Z</time></trkpt><trkpt lat="39.4367733" lon="17.05314"><ele>15.799999999999999</ele><time>2026-03-29T12:42:36.014Z</time></trkpt><trkpt lat="39.4367317" lon="17.05321"><ele>16.4</ele><time>2026-03-29T12:42:37.014Z</time></trkpt><trkpt lat="39.43666" lon="17.053325"><ele>17.0</ele><time>2026-03-29T12:42:39.015Z</time></trkpt><trkpt lat="39.4366" lon="17.0534367"><ele>17.0</ele><time>2026-03-29T12:42:41.014Z</time></trkpt><trkpt lat="39.4365317" lon="17.0535767"><ele>17.0</ele><time>2026-03-29T12:42:43.015Z</time></trkpt><trkpt lat="39.43648" lon="17.0536633"><ele>17.0</ele><time>2026-03-29T12:42:44.015Z</time></trkpt><trkpt lat="39.43642" lon="17.053745"><ele>17.0</ele><time>2026-03-29T12:42:45.015Z</time></trkpt><trkpt lat="39.4363433" lon="17.0538283"><ele>17.0</ele><time>2026-03-29T12:42:46.015Z</time></trkpt><trkpt lat="39.4362583" lon="17.0539117"><ele>16.8</ele><time>2026-03-29T12:42:47.015Z</time></trkpt><trkpt lat="39.4361733" lon="17.0540033"><ele>16.6</ele><time>2026-03-29T12:42:48.014Z</time></trkpt><trkpt lat="39.436095" lon="17.0540933"><ele>16.400000000000002</ele><time>2026-03-29T12:42:49.015Z</time></trkpt><trkpt lat="39.4360233" lon="17.0541833"><ele>16.2</ele><time>2026-03-29T12:42:50.015Z</time></trkpt><trkpt lat="39.4359433" lon="17.0542667"><ele>16.0</ele><time>2026-03-29T12:42:51.015Z</time></trkpt><trkpt lat="39.43587" lon="17.054355"><ele>16.0</ele><time>2026-03-29T12:42:52.015Z</time></trkpt><trkpt lat="39.4357933" lon="17.0544517"><ele>16.0</ele><time>2026-03-29T12:42:53.015Z</time></trkpt><trkpt lat="39.4357117" lon="17.05454"><ele>16.0</ele><time>2026-03-29T12:42:54.015Z</time></trkpt><trkpt lat="39.4356283" lon="17.054625"><ele>16.0</ele><time>2026-03-29T12:42:55.015Z</time></trkpt><trkpt lat="39.4355467" lon="17.0547183"><ele>16.0</ele><time>2026-03-29T12:42:56.015Z</time></trkpt><trkpt lat="39.4354667" lon="17.054815"><ele>15.600000000000001</ele><time>2026-03-29T12:42:57.015Z</time></trkpt><trkpt lat="39.4353967" lon="17.0549117"><ele>15.200000000000001</ele><time>2026-03-29T12:42:58.015Z</time></trkpt><trkpt lat="39.435325" lon="17.0549967"><ele>14.799999999999999</ele><time>2026-03-29T12:42:59.015Z</time></trkpt><trkpt lat="39.435255" lon="17.05508"><ele>14.399999999999999</ele><time>2026-03-29T12:43:00.015Z</time></trkpt><trkpt lat="39.4351883" lon="17.0551667"><ele>14.0</ele><time>2026-03-29T12:43:01.015Z</time></trkpt><trkpt lat="39.435115" lon="17.0552567"><ele>14.000000000000002</ele><time>2026-03-29T12:43:02.015Z</time></trkpt><trkpt lat="39.4350467" lon="17.055335"><ele>14.0</ele><time>2026-03-29T12:43:03.014Z</time></trkpt><trkpt lat="39.4349833" lon="17.0554217"><ele>14.0</ele><time>2026-03-29T12:43:04.015Z</time></trkpt><trkpt lat="39.4349183" lon="17.0555017"><ele>14.0</ele><time>2026-03-29T12:43:05.015Z</time></trkpt><trkpt lat="39.4348567" lon="17.0555733"><ele>14.000000000000002</ele><time>2026-03-29T12:43:06.015Z</time></trkpt><trkpt lat="39.434795" lon="17.055635"><ele>14.0</ele><time>2026-03-29T12:43:07.015Z</time></trkpt><trkpt lat="39.434735" lon="17.0557033"><ele>14.000000000000002</ele><time>2026-03-29T12:43:08.015Z</time></trkpt><trkpt lat="39.434675" lon="17.05578"><ele>14.0</ele><time>2026-03-29T12:43:09.015Z</time></trkpt><trkpt lat="39.4346117" lon="17.0558583"><ele>14.0</ele><time>2026-03-29T12:43:10.015Z</time></trkpt><trkpt lat="39.4345417" lon="17.0559383"><ele>14.0</ele><time>2026-03-29T12:43:11.015Z</time></trkpt><trkpt lat="39.434465" lon="17.0560033"><ele>14.000000000000002</ele><time>2026-03-29T12:43:12.015Z</time></trkpt><trkpt lat="39.4343883" lon="17.0560533"><ele>14.0</ele><time>2026-03-29T12:43:13.015Z</time></trkpt><trkpt lat="39.4343017" lon="17.056095"><ele>13.2</ele><time>2026-03-29T12:43:14.015Z</time></trkpt><trkpt lat="39.4342083" lon="17.0561233"><ele>12.399999999999999</ele><time>2026-03-29T12:43:15.015Z</time></trkpt><trkpt lat="39.4341167" lon="17.0561367"><ele>11.6</ele><time>2026-03-29T12:43:16.015Z</time></trkpt><trkpt lat="39.4340267" lon="17.0561417"><ele>10.8</ele><time>2026-03-29T12:43:17.015Z</time></trkpt><trkpt lat="39.4339367" lon="17.0561417"><ele>10.0</ele><time>2026-03-29T12:43:18.015Z</time></trkpt><trkpt lat="39.433855" lon="17.0561283"><ele>10.833333333333334</ele><time>2026-03-29T12:43:19.015Z</time></trkpt><trkpt lat="39.4337883" lon="17.0561117"><ele>11.666666666666668</ele><time>2026-03-29T12:43:20.015Z</time></trkpt><trkpt lat="39.4337167" lon="17.0560867"><ele>12.5</ele><time>2026-03-29T12:43:21.015Z</time></trkpt><trkpt lat="39.433655" lon="17.05606"><ele>13.333333333333334</ele><time>2026-03-29T12:43:22.015Z</time></trkpt><trkpt lat="39.4335483" lon="17.056005"><ele>14.166666666666666</ele><time>2026-03-29T12:43:24.014Z</time></trkpt><trkpt lat="39.4334583" lon="17.0559567"><ele>15.0</ele><time>2026-03-29T12:43:26.015Z</time></trkpt><trkpt lat="39.433385" lon="17.055915"><ele>15.0</ele><time>2026-03-29T12:43:29.015Z</time></trkpt><trkpt lat="39.4333167" lon="17.05589"><ele>15.0</ele><time>2026-03-29T12:43:33.015Z</time></trkpt><trkpt lat="39.4333067" lon="17.0559983"><ele>15.0</ele><time>2026-03-29T12:43:36.015Z</time></trkpt><trkpt lat="39.43336" lon="17.056095"><ele>15.0</ele><time>2026-03-29T12:43:38.015Z</time></trkpt><trkpt lat="39.4332867" lon="17.0561717"><ele>15.0</ele><time>2026-03-29T12:43:41.015Z</time></trkpt><trkpt lat="39.4331767" lon="17.0561967"><ele>15.0</ele><time>2026-03-29T12:43:43.015Z</time></trkpt><trkpt lat="39.43308" lon="17.0562483"><ele>15.0</ele><time>2026-03-29T12:43:45.015Z</time></trkpt><trkpt lat="39.43299" lon="17.0563383"><ele>15.0</ele><time>2026-03-29T12:43:47.015Z</time></trkpt><trkpt lat="39.4328983" lon="17.05644"><ele>15.0</ele><time>2026-03-29T12:43:49.015Z</time></trkpt><trkpt lat="39.4328283" lon="17.056535"><ele>15.0</ele><time>2026-03-29T12:43:51.015Z</time></trkpt><trkpt lat="39.4327867" lon="17.05665"><ele>18.0</ele><time>2026-03-29T12:43:53.015Z</time></trkpt><trkpt lat="39.4327433" lon="17.0567483"><ele>21.0</ele><time>2026-03-29T12:43:55.015Z</time></trkpt><trkpt lat="39.432715" lon="17.05684"><ele>24.0</ele><time>2026-03-29T12:43:57.015Z</time></trkpt><trkpt lat="39.43272" lon="17.05694"><ele>27.0</ele><time>2026-03-29T12:43:59.015Z</time></trkpt><trkpt lat="39.43266" lon="17.057005"><ele>30.0</ele><time>2026-03-29T12:44:01.014Z</time></trkpt><trkpt lat="39.4325783" lon="17.057015"><ele>33.0</ele><time>2026-03-29T12:44:04.015Z</time></trkpt><trkpt lat="39.4325033" lon="17.0570367"><ele>33.0</ele><time>2026-03-29T12:44:06.015Z</time></trkpt><trkpt lat="39.4323817" lon="17.0570917"><ele>33.0</ele><time>2026-03-29T12:44:08.015Z</time></trkpt><trkpt lat="39.43232" lon="17.0571283"><ele>33.0</ele><time>2026-03-29T12:44:09.015Z</time></trkpt><trkpt lat="39.4322583" lon="17.0571567"><ele>33.0</ele><time>2026-03-29T12:44:10.015Z</time></trkpt><trkpt lat="39.4321967" lon="17.05719"><ele>33.0</ele><time>2026-03-29T12:44:11.015Z</time></trkpt><trkpt lat="39.4321317" lon="17.05722"><ele>33.0</ele><time>2026-03-29T12:44:12.015Z</time></trkpt><trkpt lat="39.4320667" lon="17.0572533"><ele>33.666666666666664</ele><time>2026-03-29T12:44:13.014Z</time></trkpt><trkpt lat="39.4319983" lon="17.05728"><ele>34.333333333333336</ele><time>2026-03-29T12:44:14.015Z</time></trkpt><trkpt lat="39.43193" lon="17.0572833"><ele>35.0</ele><time>2026-03-29T12:44:15.015Z</time></trkpt><trkpt lat="39.43186" lon="17.057275"><ele>35.66666666666667</ele><time>2026-03-29T12:44:16.014Z</time></trkpt><trkpt lat="39.4317833" lon="17.0572733"><ele>36.333333333333336</ele><time>2026-03-29T12:44:17.015Z</time></trkpt><trkpt lat="39.4317017" lon="17.0572667"><ele>37.0</ele><time>2026-03-29T12:44:18.015Z</time></trkpt><trkpt lat="39.4316183" lon="17.0572633"><ele>37.0</ele><time>2026-03-29T12:44:19.015Z</time></trkpt><trkpt lat="39.4315383" lon="17.0572483"><ele>37.0</ele><time>2026-03-29T12:44:20.015Z</time></trkpt><trkpt lat="39.4314633" lon="17.05723"><ele>37.0</ele><time>2026-03-29T12:44:21.015Z</time></trkpt><trkpt lat="39.4313867" lon="17.0572017"><ele>37.0</ele><time>2026-03-29T12:44:22.015Z</time></trkpt><trkpt lat="39.4313133" lon="17.05717"><ele>37.0</ele><time>2026-03-29T12:44:23.014Z</time></trkpt><trkpt lat="39.4312433" lon="17.0571333"><ele>37.0</ele><time>2026-03-29T12:44:24.015Z</time></trkpt><trkpt lat="39.4311667" lon="17.0571033"><ele>37.8</ele><time>2026-03-29T12:44:25.015Z</time></trkpt><trkpt lat="39.431085" lon="17.05707"><ele>38.6</ele><time>2026-03-29T12:44:26.015Z</time></trkpt><trkpt lat="39.4309983" lon="17.057025"><ele>39.4</ele><time>2026-03-29T12:44:27.015Z</time></trkpt><trkpt lat="39.4309017" lon="17.05698"><ele>40.199999999999996</ele><time>2026-03-29T12:44:28.015Z</time></trkpt><trkpt lat="39.430815" lon="17.0569333"><ele>41.0</ele><time>2026-03-29T12:44:29.015Z</time></trkpt><trkpt lat="39.4307333" lon="17.0569017"><ele>41.0</ele><time>2026-03-29T12:44:30.015Z</time></trkpt><trkpt lat="39.4306617" lon="17.0568767"><ele>41.0</ele><time>2026-03-29T12:44:31.015Z</time></trkpt><trkpt lat="39.430585" lon="17.05686"><ele>41.0</ele><time>2026-03-29T12:44:32.014Z</time></trkpt><trkpt lat="39.4305133" lon="17.056855"><ele>41.0</ele><time>2026-03-29T12:44:33.015Z</time></trkpt><trkpt lat="39.4304333" lon="17.056855"><ele>41.0</ele><time>2026-03-29T12:44:34.015Z</time></trkpt><trkpt lat="39.4303467" lon="17.0568617"><ele>41.0</ele><time>2026-03-29T12:44:35.015Z</time></trkpt><trkpt lat="39.430265" lon="17.0568567"><ele>42.4</ele><time>2026-03-29T12:44:36.015Z</time></trkpt><trkpt lat="39.4301867" lon="17.0568667"><ele>43.8</ele><time>2026-03-29T12:44:37.015Z</time></trkpt><trkpt lat="39.4300883" lon="17.0568617"><ele>45.199999999999996</ele><time>2026-03-29T12:44:39.014Z</time></trkpt><trkpt lat="39.4299933" lon="17.0568417"><ele>46.599999999999994</ele><time>2026-03-29T12:44:41.015Z</time></trkpt><trkpt lat="39.4298783" lon="17.0568017"><ele>48.0</ele><time>2026-03-29T12:44:43.014Z</time></trkpt><trkpt lat="39.42976" lon="17.0567517"><ele>47.99999999999999</ele><time>2026-03-29T12:44:45.015Z</time></trkpt><trkpt lat="39.42969" lon="17.0567283"><ele>48.0</ele><time>2026-03-29T12:44:46.015Z</time></trkpt><trkpt lat="39.4296133" lon="17.0567133"><ele>48.0</ele><time>2026-03-29T12:44:47.015Z</time></trkpt><trkpt lat="39.4295417" lon="17.0566883"><ele>48.0</ele><time>2026-03-29T12:44:48.015Z</time></trkpt><trkpt lat="39.4294683" lon="17.056665"><ele>48.0</ele><time>2026-03-29T12:44:49.014Z</time></trkpt><trkpt lat="39.4294017" lon="17.0566467"><ele>47.99999999999999</ele><time>2026-03-29T12:44:50.015Z</time></trkpt><trkpt lat="39.42933" lon="17.0566217"><ele>48.0</ele><time>2026-03-29T12:44:51.014Z</time></trkpt><trkpt lat="39.4292633" lon="17.0565883"><ele>48.166666666666664</ele><time>2026-03-29T12:44:52.014Z</time></trkpt><trkpt lat="39.4291917" lon="17.0565433"><ele>48.33333333333333</ele><time>2026-03-29T12:44:53.015Z</time></trkpt><trkpt lat="39.4291167" lon="17.0565067"><ele>48.5</ele><time>2026-03-29T12:44:54.015Z</time></trkpt><trkpt lat="39.429045" lon="17.0564767"><ele>48.666666666666664</ele><time>2026-03-29T12:44:55.015Z</time></trkpt><trkpt lat="39.4289717" lon="17.0564517"><ele>48.83333333333333</ele><time>2026-03-29T12:44:56.015Z</time></trkpt><trkpt lat="39.4288983" lon="17.0564133"><ele>49.0</ele><time>2026-03-29T12:44:57.015Z</time></trkpt><trkpt lat="39.42883" lon="17.056365"><ele>49.33333333333333</ele><time>2026-03-29T12:44:58.015Z</time></trkpt><trkpt lat="39.42876" lon="17.0563167"><ele>49.666666666666664</ele><time>2026-03-29T12:44:59.014Z</time></trkpt><trkpt lat="39.428695" lon="17.05627"><ele>50.0</ele><time>2026-03-29T12:45:00.015Z</time></trkpt><trkpt lat="39.4286133" lon="17.0562233"><ele>50.33333333333333</ele><time>2026-03-29T12:45:01.015Z</time></trkpt><trkpt lat="39.4285217" lon="17.05618"><ele>50.666666666666664</ele><time>2026-03-29T12:45:02.015Z</time></trkpt><trkpt lat="39.4284267" lon="17.0561383"><ele>51.0</ele><time>2026-03-29T12:45:03.015Z</time></trkpt><trkpt lat="39.4283283" lon="17.0560983"><ele>51.0</ele><time>2026-03-29T12:45:04.014Z</time></trkpt><trkpt lat="39.4282267" lon="17.0560583"><ele>51.0</ele><time>2026-03-29T12:45:05.015Z</time></trkpt><trkpt lat="39.42813" lon="17.0560267"><ele>51.0</ele><time>2026-03-29T12:45:06.015Z</time></trkpt><trkpt lat="39.428035" lon="17.0559883"><ele>51.0</ele><time>2026-03-29T12:45:07.015Z</time></trkpt><trkpt lat="39.4279483" lon="17.05593"><ele>51.0</ele><time>2026-03-29T12:45:08.014Z</time></trkpt><trkpt lat="39.42786" lon="17.05587"><ele>51.4</ele><time>2026-03-29T12:45:09.015Z</time></trkpt><trkpt lat="39.4277783" lon="17.0558267"><ele>51.8</ele><time>2026-03-29T12:45:10.014Z</time></trkpt><trkpt lat="39.4276917" lon="17.055775"><ele>52.199999999999996</ele><time>2026-03-29T12:45:11.015Z</time></trkpt><trkpt lat="39.42761" lon="17.0557167"><ele>52.599999999999994</ele><time>2026-03-29T12:45:12.015Z</time></trkpt><trkpt lat="39.4275433" lon="17.0556467"><ele>53.0</ele><time>2026-03-29T12:45:13.015Z</time></trkpt><trkpt lat="39.4274933" lon="17.05555"><ele>53.0</ele><time>2026-03-29T12:45:14.015Z</time></trkpt><trkpt lat="39.427455" lon="17.0554367"><ele>53.0</ele><time>2026-03-29T12:45:15.015Z</time></trkpt><trkpt lat="39.42742" lon="17.0553233"><ele>53.0</ele><time>2026-03-29T12:45:16.014Z</time></trkpt><trkpt lat="39.4273667" lon="17.05523"><ele>53.0</ele><time>2026-03-29T12:45:17.015Z</time></trkpt><trkpt lat="39.427315" lon="17.055135"><ele>53.0</ele><time>2026-03-29T12:45:18.015Z</time></trkpt><trkpt lat="39.4272517" lon="17.0550467"><ele>53.0</ele><time>2026-03-29T12:45:19.015Z</time></trkpt><trkpt lat="39.427185" lon="17.054955"><ele>53.0</ele><time>2026-03-29T12:45:20.014Z</time></trkpt><trkpt lat="39.427105" lon="17.0548633"><ele>53.0</ele><time>2026-03-29T12:45:21.014Z</time></trkpt><trkpt lat="39.4270167" lon="17.0547833"><ele>53.0</ele><time>2026-03-29T12:45:22.015Z</time></trkpt><trkpt lat="39.4269433" lon="17.0547"><ele>53.0</ele><time>2026-03-29T12:45:23.015Z</time></trkpt><trkpt lat="39.4268967" lon="17.0546067"><ele>53.50000000000001</ele><time>2026-03-29T12:45:24.015Z</time></trkpt><trkpt lat="39.4268617" lon="17.05451"><ele>54.0</ele><time>2026-03-29T12:45:25.015Z</time></trkpt><trkpt lat="39.4268433" lon="17.0544033"><ele>54.5</ele><time>2026-03-29T12:45:26.015Z</time></trkpt><trkpt lat="39.4268267" lon="17.0542933"><ele>55.0</ele><time>2026-03-29T12:45:27.015Z</time></trkpt><trkpt lat="39.4268" lon="17.0541883"><ele>55.50000000000001</ele><time>2026-03-29T12:45:28.015Z</time></trkpt><trkpt lat="39.4267617" lon="17.0540983"><ele>56.0</ele><time>2026-03-29T12:45:29.015Z</time></trkpt><trkpt lat="39.4267083" lon="17.0540233"><ele>56.0</ele><time>2026-03-29T12:45:30.015Z</time></trkpt><trkpt lat="39.4266367" lon="17.05394"><ele>55.99999999999999</ele><time>2026-03-29T12:45:31.015Z</time></trkpt><trkpt lat="39.426565" lon="17.05385"><ele>55.99999999999999</ele><time>2026-03-29T12:45:32.015Z</time></trkpt><trkpt lat="39.4264933" lon="17.05377"><ele>56.0</ele><time>2026-03-29T12:45:33.015Z</time></trkpt><trkpt lat="39.4264333" lon="17.053685"><ele>56.0</ele><time>2026-03-29T12:45:34.014Z</time></trkpt><trkpt lat="39.42637" lon="17.0536117"><ele>55.833333333333336</ele><time>2026-03-29T12:45:35.014Z</time></trkpt><trkpt lat="39.42631" lon="17.0535283"><ele>55.66666666666667</ele><time>2026-03-29T12:45:36.015Z</time></trkpt><trkpt lat="39.426255" lon="17.0534583"><ele>55.5</ele><time>2026-03-29T12:45:37.015Z</time></trkpt><trkpt lat="39.4262067" lon="17.053375"><ele>55.33333333333333</ele><time>2026-03-29T12:45:38.015Z</time></trkpt><trkpt lat="39.4261567" lon="17.0533217"><ele>55.166666666666664</ele><time>2026-03-29T12:45:39.015Z</time></trkpt><trkpt lat="39.42607" lon="17.0533067"><ele>55.0</ele><time>2026-03-29T12:45:41.015Z</time></trkpt><trkpt lat="39.4259633" lon="17.0533467"><ele>55.0</ele><time>2026-03-29T12:45:43.015Z</time></trkpt><trkpt lat="39.425885" lon="17.0533717"><ele>55.0</ele><time>2026-03-29T12:45:44.015Z</time></trkpt><trkpt lat="39.4257933" lon="17.0533767"><ele>55.0</ele><time>2026-03-29T12:45:45.015Z</time></trkpt><trkpt lat="39.4256867" lon="17.053365"><ele>55.0</ele><time>2026-03-29T12:45:46.015Z</time></trkpt><trkpt lat="39.4255933" lon="17.0533683"><ele>55.0</ele><time>2026-03-29T12:45:47.014Z</time></trkpt><trkpt lat="39.4255" lon="17.0533767"><ele>54.2</ele><time>2026-03-29T12:45:48.015Z</time></trkpt><trkpt lat="39.4254083" lon="17.0534083"><ele>53.4</ele><time>2026-03-29T12:45:49.015Z</time></trkpt><trkpt lat="39.4253233" lon="17.0534483"><ele>52.599999999999994</ele><time>2026-03-29T12:45:50.015Z</time></trkpt><trkpt lat="39.425235" lon="17.0534783"><ele>51.8</ele><time>2026-03-29T12:45:51.015Z</time></trkpt><trkpt lat="39.4251383" lon="17.0534833"><ele>51.0</ele><time>2026-03-29T12:45:52.015Z</time></trkpt><trkpt lat="39.42505" lon="17.0534733"><ele>51.0</ele><time>2026-03-29T12:45:53.015Z</time></trkpt><trkpt lat="39.4249633" lon="17.0534517"><ele>51.0</ele><time>2026-03-29T12:45:54.014Z</time></trkpt><trkpt lat="39.4248783" lon="17.053405"><ele>51.0</ele><time>2026-03-29T12:45:56.015Z</time></trkpt><trkpt lat="39.4247667" lon="17.0535167"><ele>51.0</ele><time>2026-03-29T12:45:59.015Z</time></trkpt><trkpt lat="39.424685" lon="17.0536383"><ele>51.0</ele><time>2026-03-29T12:46:00.015Z</time></trkpt><trkpt lat="39.4245683" lon="17.0538017"><ele>51.0</ele><time>2026-03-29T12:46:01.014Z</time></trkpt><trkpt lat="39.42445" lon="17.0539817"><ele>51.0</ele><time>2026-03-29T12:46:02.015Z</time></trkpt><trkpt lat="39.4243517" lon="17.054165"><ele>51.0</ele><time>2026-03-29T12:46:03.015Z</time></trkpt><trkpt lat="39.4242767" lon="17.05436"><ele>51.0</ele><time>2026-03-29T12:46:04.015Z</time></trkpt><trkpt lat="39.4242233" lon="17.0545717"><ele>51.0</ele><time>2026-03-29T12:46:05.015Z</time></trkpt><trkpt lat="39.4241933" lon="17.054795"><ele>51.0</ele><time>2026-03-29T12:46:06.014Z</time></trkpt><trkpt lat="39.4241867" lon="17.05503"><ele>50.66666666666667</ele><time>2026-03-29T12:46:07.014Z</time></trkpt><trkpt lat="39.4241817" lon="17.0552733"><ele>50.333333333333336</ele><time>2026-03-29T12:46:08.015Z</time></trkpt><trkpt lat="39.4241733" lon="17.05553"><ele>50.0</ele><time>2026-03-29T12:46:09.015Z</time></trkpt><trkpt lat="39.4241517" lon="17.0557683"><ele>49.66666666666667</ele><time>2026-03-29T12:46:10.014Z</time></trkpt><trkpt lat="39.4241167" lon="17.056"><ele>49.33333333333333</ele><time>2026-03-29T12:46:11.015Z</time></trkpt><trkpt lat="39.42406" lon="17.0562167"><ele>49.0</ele><time>2026-03-29T12:46:12.015Z</time></trkpt><trkpt lat="39.4239817" lon="17.0563933"><ele>49.0</ele><time>2026-03-29T12:46:13.015Z</time></trkpt><trkpt lat="39.423875" lon="17.05655"><ele>49.0</ele><time>2026-03-29T12:46:14.014Z</time></trkpt><trkpt lat="39.42373" lon="17.0566983"><ele>49.0</ele><time>2026-03-29T12:46:15.015Z</time></trkpt><trkpt lat="39.4235567" lon="17.05683"><ele>49.666666666666664</ele><time>2026-03-29T12:46:16.015Z</time></trkpt><trkpt lat="39.4233767" lon="17.05694"><ele>50.33333333333333</ele><time>2026-03-29T12:46:17.015Z</time></trkpt><trkpt lat="39.4231917" lon="17.0570533"><ele>51.0</ele><time>2026-03-29T12:46:18.015Z</time></trkpt><trkpt lat="39.4230317" lon="17.0572"><ele>50.0</ele><time>2026-03-29T12:46:19.015Z</time></trkpt><trkpt lat="39.42289" lon="17.0573617"><ele>49.0</ele><time>2026-03-29T12:46:20.014Z</time></trkpt><trkpt lat="39.4227617" lon="17.0575517"><ele>48.0</ele><time>2026-03-29T12:46:21.015Z</time></trkpt><trkpt lat="39.42264" lon="17.05775"><ele>47.333333333333336</ele><time>2026-03-29T12:46:22.015Z</time></trkpt><trkpt lat="39.4225167" lon="17.0579617"><ele>46.66666666666667</ele><time>2026-03-29T12:46:23.015Z</time></trkpt><trkpt lat="39.422375" lon="17.0581717"><ele>46.0</ele><time>2026-03-29T12:46:24.015Z</time></trkpt><trkpt lat="39.4222267" lon="17.0583883"><ele>42.66666666666667</ele><time>2026-03-29T12:46:25.015Z</time></trkpt><trkpt lat="39.4220733" lon="17.0585983"><ele>39.333333333333336</ele><time>2026-03-29T12:46:26.014Z</time></trkpt><trkpt lat="39.4219183" lon="17.0588033"><ele>36.0</ele><time>2026-03-29T12:46:27.014Z</time></trkpt><trkpt lat="39.4217633" lon="17.0590033"><ele>37.666666666666664</ele><time>2026-03-29T12:46:28.015Z</time></trkpt><trkpt lat="39.421615" lon="17.0591983"><ele>39.33333333333333</ele><time>2026-03-29T12:46:29.015Z</time></trkpt><trkpt lat="39.4214717" lon="17.0593783"><ele>41.0</ele><time>2026-03-29T12:46:30.014Z</time></trkpt><trkpt lat="39.42134" lon="17.05954"><ele>39.666666666666664</ele><time>2026-03-29T12:46:31.015Z</time></trkpt><trkpt lat="39.4212033" lon="17.0597167"><ele>38.333333333333336</ele><time>2026-03-29T12:46:32.015Z</time></trkpt><trkpt lat="39.4210817" lon="17.05988"><ele>37.0</ele><time>2026-03-29T12:46:33.015Z</time></trkpt><trkpt lat="39.4209533" lon="17.0600217"><ele>37.0</ele><time>2026-03-29T12:46:34.015Z</time></trkpt><trkpt lat="39.4208133" lon="17.0601583"><ele>37.0</ele><time>2026-03-29T12:46:35.015Z</time></trkpt><trkpt lat="39.4206783" lon="17.0602933"><ele>37.0</ele><time>2026-03-29T12:46:36.014Z</time></trkpt><trkpt lat="39.42053" lon="17.06042"><ele>34.333333333333336</ele><time>2026-03-29T12:46:37.015Z</time></trkpt><trkpt lat="39.4203867" lon="17.0605383"><ele>31.666666666666664</ele><time>2026-03-29T12:46:38.015Z</time></trkpt><trkpt lat="39.420235" lon="17.060645"><ele>29.0</ele><time>2026-03-29T12:46:39.015Z</time></trkpt><trkpt lat="39.4200667" lon="17.06075"><ele>29.0</ele><time>2026-03-29T12:46:40.015Z</time></trkpt><trkpt lat="39.4198967" lon="17.06085"><ele>29.0</ele><time>2026-03-29T12:46:41.015Z</time></trkpt><trkpt lat="39.419725" lon="17.0609583"><ele>29.0</ele><time>2026-03-29T12:46:42.015Z</time></trkpt><trkpt lat="39.4195733" lon="17.0610433"><ele>29.0</ele><time>2026-03-29T12:46:43.015Z</time></trkpt><trkpt lat="39.4194317" lon="17.0611267"><ele>29.0</ele><time>2026-03-29T12:46:44.014Z</time></trkpt><trkpt lat="39.4192967" lon="17.06122"><ele>29.0</ele><time>2026-03-29T12:46:45.015Z</time></trkpt><trkpt lat="39.4191667" lon="17.061295"><ele>29.0</ele><time>2026-03-29T12:46:46.015Z</time></trkpt><trkpt lat="39.41906" lon="17.0613883"><ele>29.0</ele><time>2026-03-29T12:46:47.014Z</time></trkpt><trkpt lat="39.4189567" lon="17.0615133"><ele>29.0</ele><time>2026-03-29T12:46:48.015Z</time></trkpt><trkpt lat="39.4188733" lon="17.0616683"><ele>29.0</ele><time>2026-03-29T12:46:49.015Z</time></trkpt><trkpt lat="39.4188133" lon="17.0618217"><ele>28.25</ele><time>2026-03-29T12:46:50.014Z</time></trkpt><trkpt lat="39.41877" lon="17.061975"><ele>27.5</ele><time>2026-03-29T12:46:51.015Z</time></trkpt><trkpt lat="39.418745" lon="17.0621283"><ele>26.75</ele><time>2026-03-29T12:46:52.015Z</time></trkpt><trkpt lat="39.4187367" lon="17.062275"><ele>26.0</ele><time>2026-03-29T12:46:53.015Z</time></trkpt><trkpt lat="39.41873" lon="17.0624067"><ele>25.833333333333332</ele><time>2026-03-29T12:46:54.015Z</time></trkpt><trkpt lat="39.41872" lon="17.0625333"><ele>25.666666666666664</ele><time>2026-03-29T12:46:55.015Z</time></trkpt><trkpt lat="39.4187133" lon="17.062655"><ele>25.5</ele><time>2026-03-29T12:46:56.015Z</time></trkpt><trkpt lat="39.418705" lon="17.0627617"><ele>25.333333333333336</ele><time>2026-03-29T12:46:57.015Z</time></trkpt><trkpt lat="39.4186983" lon="17.0628567"><ele>25.166666666666668</ele><time>2026-03-29T12:46:58.015Z</time></trkpt><trkpt lat="39.4186933" lon="17.0629433"><ele>25.0</ele><time>2026-03-29T12:46:59.015Z</time></trkpt><trkpt lat="39.41868" lon="17.06308"><ele>25.0</ele><time>2026-03-29T12:47:01.015Z</time></trkpt><trkpt lat="39.4186583" lon="17.0631883"><ele>25.0</ele><time>2026-03-29T12:47:03.014Z</time></trkpt><trkpt lat="39.4185967" lon="17.0632417"><ele>25.0</ele><time>2026-03-29T12:47:05.015Z</time></trkpt><trkpt lat="39.41854" lon="17.063195"><ele>25.0</ele><time>2026-03-29T12:47:08.015Z</time></trkpt><trkpt lat="39.418485" lon="17.0630933"><ele>25.0</ele><time>2026-03-29T12:47:11.015Z</time></trkpt><trkpt lat="39.4183867" lon="17.062945"><ele>25.0</ele><time>2026-03-29T12:47:13.015Z</time></trkpt><trkpt lat="39.4183067" lon="17.0628317"><ele>25.0</ele><time>2026-03-29T12:47:14.015Z</time></trkpt><trkpt lat="39.41821" lon="17.0627033"><ele>25.0</ele><time>2026-03-29T12:47:15.015Z</time></trkpt><trkpt lat="39.4181083" lon="17.0625783"><ele>25.0</ele><time>2026-03-29T12:47:16.015Z</time></trkpt><trkpt lat="39.4180133" lon="17.0624433"><ele>24.8</ele><time>2026-03-29T12:47:17.015Z</time></trkpt><trkpt lat="39.417955" lon="17.0623233"><ele>24.6</ele><time>2026-03-29T12:47:18.015Z</time></trkpt><trkpt lat="39.417925" lon="17.0622033"><ele>24.4</ele><time>2026-03-29T12:47:19.015Z</time></trkpt><trkpt lat="39.41792" lon="17.06208"><ele>24.2</ele><time>2026-03-29T12:47:20.015Z</time></trkpt><trkpt lat="39.417935" lon="17.061945"><ele>24.0</ele><time>2026-03-29T12:47:21.015Z</time></trkpt><trkpt lat="39.417945" lon="17.0618117"><ele>24.0</ele><time>2026-03-29T12:47:22.015Z</time></trkpt><trkpt lat="39.4179417" lon="17.06171"><ele>24.0</ele><time>2026-03-29T12:47:23.015Z</time></trkpt><trkpt lat="39.4179067" lon="17.06161"><ele>24.0</ele><time>2026-03-29T12:47:24.015Z</time></trkpt><trkpt lat="39.4178567" lon="17.061505"><ele>24.0</ele><time>2026-03-29T12:47:25.014Z</time></trkpt><trkpt lat="39.417785" lon="17.0613867"><ele>24.0</ele><time>2026-03-29T12:47:26.015Z</time></trkpt><trkpt lat="39.4177033" lon="17.0612433"><ele>26.0</ele><time>2026-03-29T12:47:27.015Z</time></trkpt><trkpt lat="39.4176133" lon="17.0610933"><ele>28.0</ele><time>2026-03-29T12:47:28.014Z</time></trkpt><trkpt lat="39.41752" lon="17.0609467"><ele>30.0</ele><time>2026-03-29T12:47:29.015Z</time></trkpt><trkpt lat="39.4174317" lon="17.060805"><ele>32.0</ele><time>2026-03-29T12:47:30.015Z</time></trkpt><trkpt lat="39.41734" lon="17.0606333"><ele>30.666666666666664</ele><time>2026-03-29T12:47:31.015Z</time></trkpt><trkpt lat="39.417265" lon="17.0604467"><ele>29.333333333333336</ele><time>2026-03-29T12:47:32.015Z</time></trkpt><trkpt lat="39.4172" lon="17.0602417"><ele>28.0</ele><time>2026-03-29T12:47:33.015Z</time></trkpt><trkpt lat="39.4171367" lon="17.0600367"><ele>28.5</ele><time>2026-03-29T12:47:34.015Z</time></trkpt><trkpt lat="39.4170767" lon="17.059845"><ele>29.0</ele><time>2026-03-29T12:47:35.015Z</time></trkpt><trkpt lat="39.417" lon="17.0596733"><ele>29.5</ele><time>2026-03-29T12:47:36.015Z</time></trkpt><trkpt lat="39.4169133" lon="17.059545"><ele>30.0</ele><time>2026-03-29T12:47:37.015Z</time></trkpt><trkpt lat="39.4168283" lon="17.059435"><ele>30.0</ele><time>2026-03-29T12:47:38.015Z</time></trkpt><trkpt lat="39.416765" lon="17.0593267"><ele>30.0</ele><time>2026-03-29T12:47:39.015Z</time></trkpt><trkpt lat="39.4167333" lon="17.0592283"><ele>30.0</ele><time>2026-03-29T12:47:40.015Z</time></trkpt><trkpt lat="39.4167317" lon="17.059145"><ele>30.0</ele><time>2026-03-29T12:47:41.015Z</time></trkpt><trkpt lat="39.4167617" lon="17.0590583"><ele>30.0</ele><time>2026-03-29T12:47:42.015Z</time></trkpt><trkpt lat="39.4168183" lon="17.058965"><ele>30.0</ele><time>2026-03-29T12:47:43.015Z</time></trkpt><trkpt lat="39.4168867" lon="17.058855"><ele>30.5</ele><time>2026-03-29T12:47:44.015Z</time></trkpt><trkpt lat="39.4169883" lon="17.0587267"><ele>31.0</ele><time>2026-03-29T12:47:45.015Z</time></trkpt><trkpt lat="39.4170833" lon="17.0585883"><ele>31.5</ele><time>2026-03-29T12:47:46.015Z</time></trkpt><trkpt lat="39.41715" lon="17.0584683"><ele>32.0</ele><time>2026-03-29T12:47:47.015Z</time></trkpt><trkpt lat="39.4171917" lon="17.0583533"><ele>34.83333333333333</ele><time>2026-03-29T12:47:48.014Z</time></trkpt><trkpt lat="39.417195" lon="17.0582533"><ele>37.666666666666664</ele><time>2026-03-29T12:47:49.015Z</time></trkpt><trkpt lat="39.4171717" lon="17.0581633"><ele>40.5</ele><time>2026-03-29T12:47:50.015Z</time></trkpt><trkpt lat="39.4171283" lon="17.058075"><ele>43.33333333333333</ele><time>2026-03-29T12:47:51.015Z</time></trkpt><trkpt lat="39.417075" lon="17.0580133"><ele>46.166666666666664</ele><time>2026-03-29T12:47:52.015Z</time></trkpt><trkpt lat="39.4169917" lon="17.057955"><ele>49.0</ele><time>2026-03-29T12:47:53.015Z</time></trkpt><trkpt lat="39.4168767" lon="17.0578867"><ele>49.0</ele><time>2026-03-29T12:47:54.015Z</time></trkpt><trkpt lat="39.4167467" lon="17.0578083"><ele>49.0</ele><time>2026-03-29T12:47:55.015Z</time></trkpt><trkpt lat="39.4166283" lon="17.05772"><ele>49.0</ele><time>2026-03-29T12:47:56.015Z</time></trkpt><trkpt lat="39.416515" lon="17.0576033"><ele>49.0</ele><time>2026-03-29T12:47:57.015Z</time></trkpt><trkpt lat="39.4164117" lon="17.057485"><ele>51.75</ele><time>2026-03-29T12:47:58.015Z</time></trkpt><trkpt lat="39.4163217" lon="17.0573683"><ele>54.5</ele><time>2026-03-29T12:47:59.015Z</time></trkpt><trkpt lat="39.4162417" lon="17.0572633"><ele>57.25</ele><time>2026-03-29T12:48:00.014Z</time></trkpt><trkpt lat="39.41618" lon="17.05715"><ele>60.0</ele><time>2026-03-29T12:48:01.015Z</time></trkpt><trkpt lat="39.416125" lon="17.0570317"><ele>55.0</ele><time>2026-03-29T12:48:02.015Z</time></trkpt><trkpt lat="39.4160733" lon="17.0569033"><ele>50.0</ele><time>2026-03-29T12:48:03.015Z</time></trkpt><trkpt lat="39.41603" lon="17.0567733"><ele>45.0</ele><time>2026-03-29T12:48:04.015Z</time></trkpt><trkpt lat="39.415985" lon="17.0566367"><ele>40.0</ele><time>2026-03-29T12:48:05.015Z</time></trkpt><trkpt lat="39.4159383" lon="17.0565017"><ele>40.0</ele><time>2026-03-29T12:48:06.014Z</time></trkpt><trkpt lat="39.41589" lon="17.05639"><ele>40.0</ele><time>2026-03-29T12:48:07.015Z</time></trkpt><trkpt lat="39.4158317" lon="17.056275"><ele>40.0</ele><time>2026-03-29T12:48:08.015Z</time></trkpt><trkpt lat="39.4157767" lon="17.0561467"><ele>40.0</ele><time>2026-03-29T12:48:09.015Z</time></trkpt><trkpt lat="39.4157267" lon="17.056"><ele>40.0</ele><time>2026-03-29T12:48:10.015Z</time></trkpt><trkpt lat="39.4156833" lon="17.05583"><ele>41.0</ele><time>2026-03-29T12:48:11.014Z</time></trkpt><trkpt lat="39.415635" lon="17.0556467"><ele>42.0</ele><time>2026-03-29T12:48:12.014Z</time></trkpt><trkpt lat="39.415595" lon="17.0555"><ele>43.0</ele><time>2026-03-29T12:48:13.015Z</time></trkpt><trkpt lat="39.4155633" lon="17.0553733"><ele>44.0</ele><time>2026-03-29T12:48:14.014Z</time></trkpt><trkpt lat="39.4155433" lon="17.0552683"><ele>44.0</ele><time>2026-03-29T12:48:15.015Z</time></trkpt><trkpt lat="39.4155217" lon="17.05518"><ele>44.0</ele><time>2026-03-29T12:48:16.015Z</time></trkpt><trkpt lat="39.4155017" lon="17.0550933"><ele>44.0</ele><time>2026-03-29T12:48:17.015Z</time></trkpt><trkpt lat="39.415475" lon="17.0549933"><ele>44.0</ele><time>2026-03-29T12:48:18.015Z</time></trkpt><trkpt lat="39.4154433" lon="17.054875"><ele>44.0</ele><time>2026-03-29T12:48:19.015Z</time></trkpt><trkpt lat="39.41541" lon="17.0547267"><ele>44.0</ele><time>2026-03-29T12:48:20.015Z</time></trkpt><trkpt lat="39.41537" lon="17.0545733"><ele>43.75</ele><time>2026-03-29T12:48:21.015Z</time></trkpt><trkpt lat="39.4153283" lon="17.0544117"><ele>43.5</ele><time>2026-03-29T12:48:22.015Z</time></trkpt><trkpt lat="39.415285" lon="17.0542633"><ele>43.25</ele><time>2026-03-29T12:48:23.015Z</time></trkpt><trkpt lat="39.4152483" lon="17.0541117"><ele>43.0</ele><time>2026-03-29T12:48:24.015Z</time></trkpt><trkpt lat="39.4152033" lon="17.053975"><ele>43.0</ele><time>2026-03-29T12:48:25.015Z</time></trkpt><trkpt lat="39.4151467" lon="17.0538467"><ele>43.0</ele><time>2026-03-29T12:48:26.015Z</time></trkpt><trkpt lat="39.4150833" lon="17.0537117"><ele>43.0</ele><time>2026-03-29T12:48:27.015Z</time></trkpt><trkpt lat="39.4150217" lon="17.05355"><ele>43.0</ele><time>2026-03-29T12:48:28.015Z</time></trkpt><trkpt lat="39.4149667" lon="17.053365"><ele>45.0</ele><time>2026-03-29T12:48:29.015Z</time></trkpt><trkpt lat="39.4149167" lon="17.0531583"><ele>47.0</ele><time>2026-03-29T12:48:30.015Z</time></trkpt><trkpt lat="39.4148633" lon="17.0529567"><ele>49.0</ele><time>2026-03-29T12:48:31.015Z</time></trkpt><trkpt lat="39.41481" lon="17.0527717"><ele>49.0</ele><time>2026-03-29T12:48:32.015Z</time></trkpt><trkpt lat="39.4147767" lon="17.0525983"><ele>49.0</ele><time>2026-03-29T12:48:33.015Z</time></trkpt><trkpt lat="39.4147533" lon="17.0524367"><ele>49.0</ele><time>2026-03-29T12:48:34.015Z</time></trkpt><trkpt lat="39.414745" lon="17.0522633"><ele>49.0</ele><time>2026-03-29T12:48:35.015Z</time></trkpt><trkpt lat="39.4147267" lon="17.0520867"><ele>50.0</ele><time>2026-03-29T12:48:36.015Z</time></trkpt><trkpt lat="39.4146967" lon="17.0519233"><ele>51.0</ele><time>2026-03-29T12:48:37.015Z</time></trkpt><trkpt lat="39.4146383" lon="17.0517733"><ele>52.0</ele><time>2026-03-29T12:48:38.014Z</time></trkpt><trkpt lat="39.41457" lon="17.0516367"><ele>53.0</ele><time>2026-03-29T12:48:39.015Z</time></trkpt><trkpt lat="39.4144933" lon="17.051505"><ele>53.0</ele><time>2026-03-29T12:48:40.015Z</time></trkpt><trkpt lat="39.4144217" lon="17.0513583"><ele>53.0</ele><time>2026-03-29T12:48:41.015Z</time></trkpt><trkpt lat="39.414365" lon="17.051195"><ele>53.0</ele><time>2026-03-29T12:48:42.014Z</time></trkpt><trkpt lat="39.4142983" lon="17.05103"><ele>53.0</ele><time>2026-03-29T12:48:43.015Z</time></trkpt><trkpt lat="39.41423" lon="17.050885"><ele>55.0</ele><time>2026-03-29T12:48:44.014Z</time></trkpt><trkpt lat="39.41416" lon="17.05076"><ele>57.0</ele><time>2026-03-29T12:48:45.015Z</time></trkpt><trkpt lat="39.4140933" lon="17.05065"><ele>59.0</ele><time>2026-03-29T12:48:46.015Z</time></trkpt><trkpt lat="39.4140217" lon="17.050545"><ele>61.0</ele><time>2026-03-29T12:48:47.015Z</time></trkpt><trkpt lat="39.41395" lon="17.0504383"><ele>63.0</ele><time>2026-03-29T12:48:48.015Z</time></trkpt><trkpt lat="39.4138917" lon="17.050325"><ele>63.0</ele><time>2026-03-29T12:48:49.015Z</time></trkpt><trkpt lat="39.4138533" lon="17.0502067"><ele>63.0</ele><time>2026-03-29T12:48:50.015Z</time></trkpt><trkpt lat="39.4138267" lon="17.0500783"><ele>63.0</ele><time>2026-03-29T12:48:51.015Z</time></trkpt><trkpt lat="39.4138167" lon="17.049955"><ele>63.0</ele><time>2026-03-29T12:48:52.015Z</time></trkpt><trkpt lat="39.4138217" lon="17.0498283"><ele>63.0</ele><time>2026-03-29T12:48:53.015Z</time></trkpt><trkpt lat="39.413825" lon="17.0497017"><ele>59.8</ele><time>2026-03-29T12:48:54.015Z</time></trkpt><trkpt lat="39.4138117" lon="17.04958"><ele>56.599999999999994</ele><time>2026-03-29T12:48:55.015Z</time></trkpt><trkpt lat="39.4137783" lon="17.049475"><ele>53.400000000000006</ele><time>2026-03-29T12:48:56.015Z</time></trkpt><trkpt lat="39.41373" lon="17.0493833"><ele>50.2</ele><time>2026-03-29T12:48:57.015Z</time></trkpt><trkpt lat="39.41366" lon="17.0493033"><ele>47.0</ele><time>2026-03-29T12:48:58.015Z</time></trkpt><trkpt lat="39.4135767" lon="17.0492233"><ele>47.0</ele><time>2026-03-29T12:48:59.015Z</time></trkpt><trkpt lat="39.4134783" lon="17.0491467"><ele>47.0</ele><time>2026-03-29T12:49:00.015Z</time></trkpt><trkpt lat="39.4133917" lon="17.04908"><ele>47.0</ele><time>2026-03-29T12:49:01.015Z</time></trkpt><trkpt lat="39.4133233" lon="17.0490067"><ele>47.0</ele><time>2026-03-29T12:49:02.015Z</time></trkpt><trkpt lat="39.41326" lon="17.0489367"><ele>47.0</ele><time>2026-03-29T12:49:03.015Z</time></trkpt><trkpt lat="39.41321" lon="17.0488633"><ele>48.83333333333333</ele><time>2026-03-29T12:49:04.014Z</time></trkpt><trkpt lat="39.4131583" lon="17.0487783"><ele>50.666666666666664</ele><time>2026-03-29T12:49:05.015Z</time></trkpt><trkpt lat="39.4131233" lon="17.0486817"><ele>52.5</ele><time>2026-03-29T12:49:06.015Z</time></trkpt><trkpt lat="39.4131083" lon="17.0485767"><ele>54.33333333333333</ele><time>2026-03-29T12:49:07.015Z</time></trkpt><trkpt lat="39.4131083" lon="17.0484783"><ele>56.166666666666664</ele><time>2026-03-29T12:49:08.015Z</time></trkpt><trkpt lat="39.4131067" lon="17.048365"><ele>58.0</ele><time>2026-03-29T12:49:09.015Z</time></trkpt><trkpt lat="39.4130983" lon="17.0482383"><ele>58.5</ele><time>2026-03-29T12:49:10.015Z</time></trkpt><trkpt lat="39.4130817" lon="17.0480967"><ele>59.0</ele><time>2026-03-29T12:49:11.015Z</time></trkpt><trkpt lat="39.4130433" lon="17.0479533"><ele>59.5</ele><time>2026-03-29T12:49:12.015Z</time></trkpt><trkpt lat="39.4129967" lon="17.0478133"><ele>60.0</ele><time>2026-03-29T12:49:13.015Z</time></trkpt><trkpt lat="39.4129633" lon="17.04768"><ele>56.2</ele><time>2026-03-29T12:49:14.015Z</time></trkpt><trkpt lat="39.4129417" lon="17.0475483"><ele>52.4</ele><time>2026-03-29T12:49:15.015Z</time></trkpt><trkpt lat="39.4129367" lon="17.047415"><ele>48.599999999999994</ele><time>2026-03-29T12:49:16.015Z</time></trkpt><trkpt lat="39.412935" lon="17.04727"><ele>44.8</ele><time>2026-03-29T12:49:17.015Z</time></trkpt><trkpt lat="39.41295" lon="17.047135"><ele>41.0</ele><time>2026-03-29T12:49:18.015Z</time></trkpt><trkpt lat="39.412985" lon="17.047005"><ele>43.0</ele><time>2026-03-29T12:49:19.015Z</time></trkpt><trkpt lat="39.4130317" lon="17.0469033"><ele>45.0</ele><time>2026-03-29T12:49:20.015Z</time></trkpt><trkpt lat="39.4130833" lon="17.0468233"><ele>47.0</ele><time>2026-03-29T12:49:21.014Z</time></trkpt><trkpt lat="39.4131067" lon="17.046735"><ele>49.0</ele><time>2026-03-29T12:49:22.015Z</time></trkpt><trkpt lat="39.4131117" lon="17.0466317"><ele>51.00000000000001</ele><time>2026-03-29T12:49:23.015Z</time></trkpt><trkpt lat="39.4131" lon="17.0465233"><ele>53.0</ele><time>2026-03-29T12:49:24.015Z</time></trkpt><trkpt lat="39.4130783" lon="17.0464"><ele>55.0</ele><time>2026-03-29T12:49:25.015Z</time></trkpt><trkpt lat="39.4130567" lon="17.0462617"><ele>57.0</ele><time>2026-03-29T12:49:26.015Z</time></trkpt><trkpt lat="39.41303" lon="17.0461017"><ele>59.0</ele><time>2026-03-29T12:49:27.015Z</time></trkpt><trkpt lat="39.4130117" lon="17.04592"><ele>61.0</ele><time>2026-03-29T12:49:28.015Z</time></trkpt><trkpt lat="39.413" lon="17.0457367"><ele>61.75</ele><time>2026-03-29T12:49:29.015Z</time></trkpt><trkpt lat="39.4130117" lon="17.0455633"><ele>62.5</ele><time>2026-03-29T12:49:30.015Z</time></trkpt><trkpt lat="39.4130267" lon="17.045415"><ele>63.25</ele><time>2026-03-29T12:49:31.015Z</time></trkpt><trkpt lat="39.4130467" lon="17.045285"><ele>64.0</ele><time>2026-03-29T12:49:32.015Z</time></trkpt><trkpt lat="39.4130933" lon="17.0451717"><ele>64.0</ele><time>2026-03-29T12:49:33.015Z</time></trkpt><trkpt lat="39.4131483" lon="17.04504"><ele>64.0</ele><time>2026-03-29T12:49:34.015Z</time></trkpt><trkpt lat="39.4132067" lon="17.044915"><ele>64.0</ele><time>2026-03-29T12:49:35.015Z</time></trkpt><trkpt lat="39.4132417" lon="17.04477"><ele>64.0</ele><time>2026-03-29T12:49:36.015Z</time></trkpt><trkpt lat="39.41326" lon="17.0446333"><ele>63.800000000000004</ele><time>2026-03-29T12:49:37.015Z</time></trkpt><trkpt lat="39.41326" lon="17.0445017"><ele>63.60000000000001</ele><time>2026-03-29T12:49:38.015Z</time></trkpt><trkpt lat="39.4132383" lon="17.04436"><ele>63.4</ele><time>2026-03-29T12:49:39.015Z</time></trkpt><trkpt lat="39.4132183" lon="17.0442283"><ele>63.2</ele><time>2026-03-29T12:49:40.015Z</time></trkpt><trkpt lat="39.41321" lon="17.044105"><ele>63.0</ele><time>2026-03-29T12:49:41.015Z</time></trkpt><trkpt lat="39.4131983" lon="17.0439633"><ele>63.25</ele><time>2026-03-29T12:49:42.015Z</time></trkpt><trkpt lat="39.4131817" lon="17.0438017"><ele>63.5</ele><time>2026-03-29T12:49:43.015Z</time></trkpt><trkpt lat="39.4131633" lon="17.0436267"><ele>63.75</ele><time>2026-03-29T12:49:44.015Z</time></trkpt><trkpt lat="39.4131517" lon="17.04344"><ele>64.0</ele><time>2026-03-29T12:49:45.015Z</time></trkpt><trkpt lat="39.4131517" lon="17.0432767"><ele>64.0</ele><time>2026-03-29T12:49:46.015Z</time></trkpt><trkpt lat="39.4131383" lon="17.0431383"><ele>64.0</ele><time>2026-03-29T12:49:47.015Z</time></trkpt><trkpt lat="39.4131217" lon="17.0430183"><ele>64.0</ele><time>2026-03-29T12:49:48.015Z</time></trkpt><trkpt lat="39.4130683" lon="17.04293"><ele>64.0</ele><time>2026-03-29T12:49:49.014Z</time></trkpt><trkpt lat="39.4130033" lon="17.0428667"><ele>64.0</ele><time>2026-03-29T12:49:50.015Z</time></trkpt><trkpt lat="39.412905" lon="17.04282"><ele>62.0</ele><time>2026-03-29T12:49:51.014Z</time></trkpt><trkpt lat="39.412785" lon="17.04278"><ele>60.0</ele><time>2026-03-29T12:49:52.015Z</time></trkpt><trkpt lat="39.412655" lon="17.042735"><ele>58.0</ele><time>2026-03-29T12:49:53.015Z</time></trkpt><trkpt lat="39.412525" lon="17.0426933"><ele>56.0</ele><time>2026-03-29T12:49:54.015Z</time></trkpt><trkpt lat="39.4124133" lon="17.0426733"><ele>56.0</ele><time>2026-03-29T12:49:55.014Z</time></trkpt><trkpt lat="39.4123183" lon="17.0426683"><ele>55.99999999999999</ele><time>2026-03-29T12:49:56.015Z</time></trkpt><trkpt lat="39.412225" lon="17.0426883"><ele>55.99999999999999</ele><time>2026-03-29T12:49:57.015Z</time></trkpt><trkpt lat="39.4121283" lon="17.0427233"><ele>56.0</ele><time>2026-03-29T12:49:58.015Z</time></trkpt><trkpt lat="39.4120383" lon="17.0427567"><ele>56.0</ele><time>2026-03-29T12:49:59.015Z</time></trkpt><trkpt lat="39.4119467" lon="17.0427883"><ele>56.0</ele><time>2026-03-29T12:50:00.015Z</time></trkpt><trkpt lat="39.4118483" lon="17.042825"><ele>55.99999999999999</ele><time>2026-03-29T12:50:01.014Z</time></trkpt><trkpt lat="39.411745" lon="17.0428583"><ele>55.99999999999999</ele><time>2026-03-29T12:50:02.015Z</time></trkpt><trkpt lat="39.4116317" lon="17.0428917"><ele>56.0</ele><time>2026-03-29T12:50:03.015Z</time></trkpt><trkpt lat="39.4115233" lon="17.0429217"><ele>56.0</ele><time>2026-03-29T12:50:04.015Z</time></trkpt><trkpt lat="39.41142" lon="17.0429483"><ele>54.4</ele><time>2026-03-29T12:50:05.014Z</time></trkpt><trkpt lat="39.4113133" lon="17.04298"><ele>52.8</ele><time>2026-03-29T12:50:06.015Z</time></trkpt><trkpt lat="39.4112117" lon="17.0430067"><ele>51.199999999999996</ele><time>2026-03-29T12:50:07.015Z</time></trkpt><trkpt lat="39.4111133" lon="17.0430417"><ele>49.599999999999994</ele><time>2026-03-29T12:50:08.015Z</time></trkpt><trkpt lat="39.4110167" lon="17.0430717"><ele>48.0</ele><time>2026-03-29T12:50:09.014Z</time></trkpt><trkpt lat="39.410925" lon="17.0430933"><ele>48.0</ele><time>2026-03-29T12:50:10.015Z</time></trkpt><trkpt lat="39.41085" lon="17.04311"><ele>48.0</ele><time>2026-03-29T12:50:11.015Z</time></trkpt><trkpt lat="39.410775" lon="17.0431133"><ele>48.0</ele><time>2026-03-29T12:50:12.014Z</time></trkpt><trkpt lat="39.41071" lon="17.0431"><ele>48.0</ele><time>2026-03-29T12:50:13.015Z</time></trkpt><trkpt lat="39.410605" lon="17.0430033"><ele>48.0</ele><time>2026-03-29T12:50:15.015Z</time></trkpt><trkpt lat="39.4105683" lon="17.04291"><ele>48.0</ele><time>2026-03-29T12:50:16.015Z</time></trkpt><trkpt lat="39.4105517" lon="17.0428083"><ele>48.0</ele><time>2026-03-29T12:50:17.015Z</time></trkpt><trkpt lat="39.4105333" lon="17.0427233"><ele>48.0</ele><time>2026-03-29T12:50:18.014Z</time></trkpt><trkpt lat="39.410485" lon="17.042595"><ele>48.0</ele><time>2026-03-29T12:50:20.015Z</time></trkpt><trkpt lat="39.410485" lon="17.0424483"><ele>48.0</ele><time>2026-03-29T12:50:22.015Z</time></trkpt><trkpt lat="39.4105117" lon="17.0423317"><ele>48.0</ele><time>2026-03-29T12:50:24.015Z</time></trkpt><trkpt lat="39.4105417" lon="17.0422467"><ele>48.4</ele><time>2026-03-29T12:50:26.015Z</time></trkpt><trkpt lat="39.4105617" lon="17.042135"><ele>48.8</ele><time>2026-03-29T12:50:28.015Z</time></trkpt><trkpt lat="39.4105583" lon="17.0420067"><ele>49.2</ele><time>2026-03-29T12:50:30.015Z</time></trkpt><trkpt lat="39.4105033" lon="17.041925"><ele>49.6</ele><time>2026-03-29T12:50:32.015Z</time></trkpt><trkpt lat="39.410415" lon="17.0419917"><ele>50.0</ele><time>2026-03-29T12:50:34.015Z</time></trkpt><trkpt lat="39.4103683" lon="17.0420817"><ele>49.0</ele><time>2026-03-29T12:50:35.014Z</time></trkpt><trkpt lat="39.4103167" lon="17.0421883"><ele>48.0</ele><time>2026-03-29T12:50:36.015Z</time></trkpt><trkpt lat="39.4102533" lon="17.0423117"><ele>47.0</ele><time>2026-03-29T12:50:37.015Z</time></trkpt><trkpt lat="39.41019" lon="17.0424367"><ele>46.0</ele><time>2026-03-29T12:50:38.015Z</time></trkpt><trkpt lat="39.4101433" lon="17.0425683"><ele>45.0</ele><time>2026-03-29T12:50:39.015Z</time></trkpt><trkpt lat="39.4101183" lon="17.0427267"><ele>45.0</ele><time>2026-03-29T12:50:40.014Z</time></trkpt><trkpt lat="39.4100967" lon="17.0428817"><ele>45.0</ele><time>2026-03-29T12:50:41.015Z</time></trkpt><trkpt lat="39.4100717" lon="17.0430317"><ele>45.0</ele><time>2026-03-29T12:50:42.015Z</time></trkpt><trkpt lat="39.4100333" lon="17.0431717"><ele>45.0</ele><time>2026-03-29T12:50:43.014Z</time></trkpt><trkpt lat="39.4100033" lon="17.0433233"><ele>45.2</ele><time>2026-03-29T12:50:44.014Z</time></trkpt><trkpt lat="39.4099833" lon="17.0434717"><ele>45.4</ele><time>2026-03-29T12:50:45.014Z</time></trkpt><trkpt lat="39.4099717" lon="17.0436117"><ele>45.599999999999994</ele><time>2026-03-29T12:50:46.015Z</time></trkpt><trkpt lat="39.4099533" lon="17.0437417"><ele>45.8</ele><time>2026-03-29T12:50:47.015Z</time></trkpt><trkpt lat="39.4099217" lon="17.0438567"><ele>46.0</ele><time>2026-03-29T12:50:48.015Z</time></trkpt><trkpt lat="39.4098733" lon="17.0439833"><ele>46.0</ele><time>2026-03-29T12:50:49.015Z</time></trkpt><trkpt lat="39.4098317" lon="17.044115"><ele>46.0</ele><time>2026-03-29T12:50:50.015Z</time></trkpt><trkpt lat="39.4097967" lon="17.04426"><ele>46.0</ele><time>2026-03-29T12:50:51.015Z</time></trkpt><trkpt lat="39.4097783" lon="17.0444217"><ele>46.0</ele><time>2026-03-29T12:50:52.015Z</time></trkpt><trkpt lat="39.4097683" lon="17.0445983"><ele>46.25</ele><time>2026-03-29T12:50:53.014Z</time></trkpt><trkpt lat="39.4097483" lon="17.044785"><ele>46.5</ele><time>2026-03-29T12:50:54.014Z</time></trkpt><trkpt lat="39.4097317" lon="17.0449683"><ele>46.75</ele><time>2026-03-29T12:50:55.015Z</time></trkpt><trkpt lat="39.409715" lon="17.04517"><ele>47.0</ele><time>2026-03-29T12:50:56.015Z</time></trkpt><trkpt lat="39.4096983" lon="17.0453617"><ele>46.5</ele><time>2026-03-29T12:50:57.015Z</time></trkpt><trkpt lat="39.4096783" lon="17.0455617"><ele>46.0</ele><time>2026-03-29T12:50:58.015Z</time></trkpt><trkpt lat="39.4096567" lon="17.0457467"><ele>45.5</ele><time>2026-03-29T12:50:59.015Z</time></trkpt><trkpt lat="39.4096367" lon="17.0459167"><ele>45.0</ele><time>2026-03-29T12:51:00.015Z</time></trkpt><trkpt lat="39.4096283" lon="17.0460583"><ele>45.0</ele><time>2026-03-29T12:51:01.015Z</time></trkpt><trkpt lat="39.4096333" lon="17.0461717"><ele>45.0</ele><time>2026-03-29T12:51:02.015Z</time></trkpt><trkpt lat="39.4096417" lon="17.0462633"><ele>45.0</ele><time>2026-03-29T12:51:03.015Z</time></trkpt><trkpt lat="39.4096633" lon="17.0463867"><ele>45.0</ele><time>2026-03-29T12:51:05.014Z</time></trkpt><trkpt lat="39.4096683" lon="17.0464867"><ele>45.0</ele><time>2026-03-29T12:51:09.015Z</time></trkpt><trkpt lat="39.4096567" lon="17.0465683"><ele>45.0</ele><time>2026-03-29T12:51:13.015Z</time></trkpt><trkpt lat="39.409635" lon="17.04665"><ele>48.0</ele><time>2026-03-29T12:51:42.015Z</time></trkpt><trkpt lat="39.4096283" lon="17.046765"><ele>51.0</ele><time>2026-03-29T12:53:08.014Z</time></trkpt><trkpt lat="39.409615" lon="17.0468767"><ele>54.0</ele><time>2026-03-29T12:53:11.013Z</time></trkpt><trkpt lat="39.4096117" lon="17.0469733"><ele>57.0</ele><time>2026-03-29T12:53:13.013Z</time></trkpt><trkpt lat="39.4095867" lon="17.04713"><ele>60.0</ele><time>2026-03-29T12:53:15.014Z</time></trkpt><trkpt lat="39.40957" lon="17.0472233"><ele>63.0</ele><time>2026-03-29T12:53:16.013Z</time></trkpt><trkpt lat="39.409545" lon="17.047335"><ele>63.0</ele><time>2026-03-29T12:53:17.014Z</time></trkpt><trkpt lat="39.4095167" lon="17.0474533"><ele>63.0</ele><time>2026-03-29T12:53:18.014Z</time></trkpt><trkpt lat="39.409485" lon="17.0475617"><ele>63.0</ele><time>2026-03-29T12:53:19.014Z</time></trkpt><trkpt lat="39.4094433" lon="17.0476567"><ele>63.0</ele><time>2026-03-29T12:53:20.013Z</time></trkpt><trkpt lat="39.409395" lon="17.04774"><ele>63.0</ele><time>2026-03-29T12:53:21.014Z</time></trkpt><trkpt lat="39.409335" lon="17.047815"><ele>63.0</ele><time>2026-03-29T12:53:22.014Z</time></trkpt><trkpt lat="39.409265" lon="17.047885"><ele>64.6</ele><time>2026-03-29T12:53:23.014Z</time></trkpt><trkpt lat="39.4091833" lon="17.047955"><ele>66.19999999999999</ele><time>2026-03-29T12:53:24.014Z</time></trkpt><trkpt lat="39.409095" lon="17.048015"><ele>67.8</ele><time>2026-03-29T12:53:25.014Z</time></trkpt><trkpt lat="39.4089983" lon="17.0480767"><ele>69.39999999999999</ele><time>2026-03-29T12:53:26.014Z</time></trkpt><trkpt lat="39.408905" lon="17.04815"><ele>71.0</ele><time>2026-03-29T12:53:27.014Z</time></trkpt><trkpt lat="39.4088233" lon="17.0482267"><ele>74.8</ele><time>2026-03-29T12:53:28.014Z</time></trkpt><trkpt lat="39.4087317" lon="17.0482933"><ele>78.6</ele><time>2026-03-29T12:53:29.014Z</time></trkpt><trkpt lat="39.408635" lon="17.048345"><ele>82.4</ele><time>2026-03-29T12:53:30.014Z</time></trkpt><trkpt lat="39.4085317" lon="17.048385"><ele>86.2</ele><time>2026-03-29T12:53:31.013Z</time></trkpt><trkpt lat="39.408415" lon="17.0484233"><ele>90.0</ele><time>2026-03-29T12:53:32.014Z</time></trkpt><trkpt lat="39.408295" lon="17.0484567"><ele>90.0</ele><time>2026-03-29T12:53:33.014Z</time></trkpt><trkpt lat="39.4081733" lon="17.0484867"><ele>90.0</ele><time>2026-03-29T12:53:34.014Z</time></trkpt><trkpt lat="39.4080583" lon="17.0485133"><ele>90.0</ele><time>2026-03-29T12:53:35.014Z</time></trkpt><trkpt lat="39.4079417" lon="17.0485333"><ele>90.0</ele><time>2026-03-29T12:53:36.014Z</time></trkpt><trkpt lat="39.40782" lon="17.048545"><ele>92.25</ele><time>2026-03-29T12:53:37.014Z</time></trkpt><trkpt lat="39.407685" lon="17.0485633"><ele>94.5</ele><time>2026-03-29T12:53:38.014Z</time></trkpt><trkpt lat="39.4075417" lon="17.0485683"><ele>96.75</ele><time>2026-03-29T12:53:39.014Z</time></trkpt><trkpt lat="39.4074017" lon="17.0485717"><ele>99.0</ele><time>2026-03-29T12:53:40.014Z</time></trkpt><trkpt lat="39.4072733" lon="17.0485667"><ele>101.6</ele><time>2026-03-29T12:53:41.013Z</time></trkpt><trkpt lat="39.40716" lon="17.0485617"><ele>104.2</ele><time>2026-03-29T12:53:42.014Z</time></trkpt><trkpt lat="39.4070517" lon="17.0485617"><ele>106.79999999999998</ele><time>2026-03-29T12:53:43.014Z</time></trkpt><trkpt lat="39.4069683" lon="17.0485483"><ele>109.39999999999999</ele><time>2026-03-29T12:53:44.014Z</time></trkpt><trkpt lat="39.4068883" lon="17.0485367"><ele>112.0</ele><time>2026-03-29T12:53:45.013Z</time></trkpt><trkpt lat="39.4068117" lon="17.048515"><ele>112.00000000000001</ele><time>2026-03-29T12:53:46.014Z</time></trkpt><trkpt lat="39.4067517" lon="17.0484833"><ele>112.0</ele><time>2026-03-29T12:53:47.014Z</time></trkpt><trkpt lat="39.4067033" lon="17.04843"><ele>112.0</ele><time>2026-03-29T12:53:48.014Z</time></trkpt><trkpt lat="39.4066517" lon="17.0482783"><ele>112.0</ele><time>2026-03-29T12:53:50.014Z</time></trkpt><trkpt lat="39.4066417" lon="17.0481717"><ele>112.00000000000001</ele><time>2026-03-29T12:53:51.013Z</time></trkpt><trkpt lat="39.406635" lon="17.0480533"><ele>112.0</ele><time>2026-03-29T12:53:52.013Z</time></trkpt><trkpt lat="39.4066317" lon="17.0479433"><ele>112.33333333333334</ele><time>2026-03-29T12:53:53.014Z</time></trkpt><trkpt lat="39.40661" lon="17.0478383"><ele>112.66666666666667</ele><time>2026-03-29T12:53:54.014Z</time></trkpt><trkpt lat="39.4065833" lon="17.04774"><ele>113.0</ele><time>2026-03-29T12:53:55.013Z</time></trkpt><trkpt lat="39.4065467" lon="17.04764"><ele>113.33333333333334</ele><time>2026-03-29T12:53:56.014Z</time></trkpt><trkpt lat="39.4064917" lon="17.0475533"><ele>113.66666666666667</ele><time>2026-03-29T12:53:57.014Z</time></trkpt><trkpt lat="39.4064233" lon="17.04749"><ele>114.0</ele><time>2026-03-29T12:53:58.014Z</time></trkpt><trkpt lat="39.406345" lon="17.047435"><ele>118.0</ele><time>2026-03-29T12:53:59.014Z</time></trkpt><trkpt lat="39.4062617" lon="17.0474"><ele>122.0</ele><time>2026-03-29T12:54:00.014Z</time></trkpt><trkpt lat="39.4061883" lon="17.04739"><ele>126.0</ele><time>2026-03-29T12:54:01.014Z</time></trkpt><trkpt lat="39.4061217" lon="17.0474083"><ele>130.0</ele><time>2026-03-29T12:54:02.014Z</time></trkpt><trkpt lat="39.4060483" lon="17.0474783"><ele>134.0</ele><time>2026-03-29T12:54:04.013Z</time></trkpt><trkpt lat="39.4060783" lon="17.0476417"><ele>134.0</ele><time>2026-03-29T12:54:06.014Z</time></trkpt><trkpt lat="39.4061167" lon="17.04773"><ele>134.0</ele><time>2026-03-29T12:54:07.013Z</time></trkpt><trkpt lat="39.40615" lon="17.0478233"><ele>134.0</ele><time>2026-03-29T12:54:08.014Z</time></trkpt><trkpt lat="39.40617" lon="17.0479183"><ele>134.0</ele><time>2026-03-29T12:54:09.014Z</time></trkpt><trkpt lat="39.4061767" lon="17.048015"><ele>134.0</ele><time>2026-03-29T12:54:10.014Z</time></trkpt><trkpt lat="39.4061833" lon="17.0481167"><ele>134.0</ele><time>2026-03-29T12:54:11.013Z</time></trkpt><trkpt lat="39.4061883" lon="17.0482167"><ele>134.66666666666666</ele><time>2026-03-29T12:54:12.014Z</time></trkpt><trkpt lat="39.4061683" lon="17.0482967"><ele>135.33333333333331</ele><time>2026-03-29T12:54:13.014Z</time></trkpt><trkpt lat="39.406125" lon="17.048365"><ele>136.0</ele><time>2026-03-29T12:54:14.014Z</time></trkpt><trkpt lat="39.4060733" lon="17.04844"><ele>136.66666666666666</ele><time>2026-03-29T12:54:15.014Z</time></trkpt><trkpt lat="39.406025" lon="17.0485317"><ele>137.33333333333334</ele><time>2026-03-29T12:54:16.014Z</time></trkpt><trkpt lat="39.4059667" lon="17.0486317"><ele>138.0</ele><time>2026-03-29T12:54:17.014Z</time></trkpt><trkpt lat="39.40589" lon="17.0487317"><ele>138.0</ele><time>2026-03-29T12:54:18.014Z</time></trkpt><trkpt lat="39.4058017" lon="17.048825"><ele>138.0</ele><time>2026-03-29T12:54:19.014Z</time></trkpt><trkpt lat="39.4057017" lon="17.04891"><ele>138.0</ele><time>2026-03-29T12:54:20.014Z</time></trkpt><trkpt lat="39.4055933" lon="17.04899"><ele>138.0</ele><time>2026-03-29T12:54:21.013Z</time></trkpt><trkpt lat="39.4054867" lon="17.0490717"><ele>140.66666666666666</ele><time>2026-03-29T12:54:22.014Z</time></trkpt><trkpt lat="39.405405" lon="17.0491533"><ele>143.33333333333334</ele><time>2026-03-29T12:54:23.014Z</time></trkpt><trkpt lat="39.4053383" lon="17.0492383"><ele>146.0</ele><time>2026-03-29T12:54:24.014Z</time></trkpt><trkpt lat="39.4052867" lon="17.0493267"><ele>148.66666666666669</ele><time>2026-03-29T12:54:25.014Z</time></trkpt><trkpt lat="39.4052567" lon="17.049425"><ele>151.33333333333334</ele><time>2026-03-29T12:54:26.014Z</time></trkpt><trkpt lat="39.4052467" lon="17.0495267"><ele>154.0</ele><time>2026-03-29T12:54:27.014Z</time></trkpt><trkpt lat="39.4052433" lon="17.049625"><ele>154.0</ele><time>2026-03-29T12:54:28.014Z</time></trkpt><trkpt lat="39.40525" lon="17.049715"><ele>154.0</ele><time>2026-03-29T12:54:29.014Z</time></trkpt><trkpt lat="39.4052633" lon="17.0498483"><ele>154.0</ele><time>2026-03-29T12:54:31.013Z</time></trkpt><trkpt lat="39.405305" lon="17.0499533"><ele>154.0</ele><time>2026-03-29T12:54:40.013Z</time></trkpt><trkpt lat="39.4053517" lon="17.0500117"><ele>154.0</ele><time>2026-03-29T12:54:42.014Z</time></trkpt><trkpt lat="39.405415" lon="17.050085"><ele>154.0</ele><time>2026-03-29T12:54:44.014Z</time></trkpt><trkpt lat="39.4055133" lon="17.0502067"><ele>153.2</ele><time>2026-03-29T12:54:46.014Z</time></trkpt><trkpt lat="39.4055617" lon="17.0502683"><ele>152.4</ele><time>2026-03-29T12:54:47.014Z</time></trkpt><trkpt lat="39.4056367" lon="17.0503683"><ele>151.6</ele><time>2026-03-29T12:54:49.014Z</time></trkpt><trkpt lat="39.40565" lon="17.050455"><ele>150.8</ele><time>2026-03-29T12:54:51.014Z</time></trkpt><trkpt lat="39.4055717" lon="17.0504783"><ele>150.0</ele><time>2026-03-29T12:54:53.014Z</time></trkpt><trkpt lat="39.4054433" lon="17.0504833"><ele>149.99999999999997</ele><time>2026-03-29T12:54:55.014Z</time></trkpt><trkpt lat="39.40537" lon="17.0504833"><ele>150.0</ele><time>2026-03-29T12:54:56.014Z</time></trkpt><trkpt lat="39.4053" lon="17.05049"><ele>150.0</ele><time>2026-03-29T12:54:57.014Z</time></trkpt><trkpt lat="39.405225" lon="17.0504917"><ele>150.0</ele><time>2026-03-29T12:54:58.014Z</time></trkpt><trkpt lat="39.4051417" lon="17.050495"><ele>150.0</ele><time>2026-03-29T12:54:59.014Z</time></trkpt><trkpt lat="39.4050667" lon="17.050505"><ele>149.99999999999997</ele><time>2026-03-29T12:55:00.013Z</time></trkpt><trkpt lat="39.404995" lon="17.0505083"><ele>150.0</ele><time>2026-03-29T12:55:01.014Z</time></trkpt><trkpt lat="39.4049167" lon="17.0505167"><ele>150.0</ele><time>2026-03-29T12:55:02.014Z</time></trkpt><trkpt lat="39.404835" lon="17.0505233"><ele>150.0</ele><time>2026-03-29T12:55:03.014Z</time></trkpt><trkpt lat="39.4047583" lon="17.0505283"><ele>150.0</ele><time>2026-03-29T12:55:04.014Z</time></trkpt><trkpt lat="39.4046883" lon="17.0505333"><ele>150.0</ele><time>2026-03-29T12:55:05.014Z</time></trkpt><trkpt lat="39.4046183" lon="17.0505317"><ele>150.0</ele><time>2026-03-29T12:55:06.014Z</time></trkpt><trkpt lat="39.4045367" lon="17.0505367"><ele>150.0</ele><time>2026-03-29T12:55:07.014Z</time></trkpt><trkpt lat="39.4044567" lon="17.0505417"><ele>149.83333333333334</ele><time>2026-03-29T12:55:08.014Z</time></trkpt><trkpt lat="39.4043767" lon="17.05055"><ele>149.66666666666666</ele><time>2026-03-29T12:55:09.013Z</time></trkpt><trkpt lat="39.4043" lon="17.0505583"><ele>149.5</ele><time>2026-03-29T12:55:10.014Z</time></trkpt><trkpt lat="39.4042233" lon="17.05056"><ele>149.33333333333331</ele><time>2026-03-29T12:55:11.014Z</time></trkpt><trkpt lat="39.4041417" lon="17.05056"><ele>149.16666666666666</ele><time>2026-03-29T12:55:12.013Z</time></trkpt><trkpt lat="39.4040583" lon="17.0505567"><ele>149.0</ele><time>2026-03-29T12:55:13.014Z</time></trkpt><trkpt lat="39.4039767" lon="17.0505583"><ele>149.0</ele><time>2026-03-29T12:55:14.014Z</time></trkpt><trkpt lat="39.4038817" lon="17.050555"><ele>149.0</ele><time>2026-03-29T12:55:15.014Z</time></trkpt><trkpt lat="39.4037967" lon="17.050545"><ele>149.0</ele><time>2026-03-29T12:55:16.014Z</time></trkpt><trkpt lat="39.4037067" lon="17.05053"><ele>149.0</ele><time>2026-03-29T12:55:17.014Z</time></trkpt><trkpt lat="39.403625" lon="17.05051"><ele>149.0</ele><time>2026-03-29T12:55:18.013Z</time></trkpt><trkpt lat="39.4035433" lon="17.050495"><ele>149.0</ele><time>2026-03-29T12:55:19.014Z</time></trkpt><trkpt lat="39.40346" lon="17.0504933"><ele>148.71428571428572</ele><time>2026-03-29T12:55:20.014Z</time></trkpt><trkpt lat="39.403385" lon="17.0505067"><ele>148.42857142857142</ele><time>2026-03-29T12:55:21.014Z</time></trkpt><trkpt lat="39.40332" lon="17.05052"><ele>148.14285714285714</ele><time>2026-03-29T12:55:22.014Z</time></trkpt><trkpt lat="39.4032533" lon="17.050525"><ele>147.85714285714286</ele><time>2026-03-29T12:55:23.014Z</time></trkpt><trkpt lat="39.4031883" lon="17.0505217"><ele>147.57142857142856</ele><time>2026-03-29T12:55:24.014Z</time></trkpt><trkpt lat="39.4031267" lon="17.0505"><ele>147.28571428571428</ele><time>2026-03-29T12:55:25.014Z</time></trkpt><trkpt lat="39.4030633" lon="17.0504683"><ele>147.0</ele><time>2026-03-29T12:55:26.013Z</time></trkpt><trkpt lat="39.403" lon="17.050435"><ele>145.14285714285714</ele><time>2026-03-29T12:55:27.014Z</time></trkpt><trkpt lat="39.4029367" lon="17.050405"><ele>143.28571428571428</ele><time>2026-03-29T12:55:28.014Z</time></trkpt><trkpt lat="39.40287" lon="17.05038"><ele>141.42857142857144</ele><time>2026-03-29T12:55:29.014Z</time></trkpt><trkpt lat="39.4027983" lon="17.0503717"><ele>139.57142857142856</ele><time>2026-03-29T12:55:30.014Z</time></trkpt><trkpt lat="39.4027283" lon="17.050375"><ele>137.71428571428572</ele><time>2026-03-29T12:55:31.014Z</time></trkpt><trkpt lat="39.4026517" lon="17.050385"><ele>135.85714285714286</ele><time>2026-03-29T12:55:32.014Z</time></trkpt><trkpt lat="39.4025817" lon="17.050395"><ele>134.0</ele><time>2026-03-29T12:55:33.014Z</time></trkpt><trkpt lat="39.4025167" lon="17.0504067"><ele>134.0</ele><time>2026-03-29T12:55:34.014Z</time></trkpt><trkpt lat="39.4024033" lon="17.0504167"><ele>134.0</ele><time>2026-03-29T12:55:36.014Z</time></trkpt><trkpt lat="39.402295" lon="17.0503983"><ele>134.0</ele><time>2026-03-29T12:55:38.014Z</time></trkpt><trkpt lat="39.4021833" lon="17.0503267"><ele>134.0</ele><time>2026-03-29T12:55:40.014Z</time></trkpt><trkpt lat="39.4020683" lon="17.050275"><ele>131.83333333333331</ele><time>2026-03-29T12:55:42.014Z</time></trkpt><trkpt lat="39.4019617" lon="17.050255"><ele>129.66666666666666</ele><time>2026-03-29T12:55:44.014Z</time></trkpt><trkpt lat="39.4018933" lon="17.0502633"><ele>127.5</ele><time>2026-03-29T12:55:45.014Z</time></trkpt><trkpt lat="39.4018267" lon="17.05027"><ele>125.33333333333334</ele><time>2026-03-29T12:55:46.014Z</time></trkpt><trkpt lat="39.4017533" lon="17.0502667"><ele>123.16666666666667</ele><time>2026-03-29T12:55:47.014Z</time></trkpt><trkpt lat="39.4016767" lon="17.0502567"><ele>121.0</ele><time>2026-03-29T12:55:48.014Z</time></trkpt><trkpt lat="39.4016133" lon="17.05023"><ele>121.0</ele><time>2026-03-29T12:55:49.014Z</time></trkpt><trkpt lat="39.4015217" lon="17.050155"><ele>121.0</ele><time>2026-03-29T12:55:51.014Z</time></trkpt><trkpt lat="39.4014367" lon="17.0500633"><ele>121.0</ele><time>2026-03-29T12:55:53.013Z</time></trkpt><trkpt lat="39.4013283" lon="17.05001"><ele>121.0</ele><time>2026-03-29T12:55:55.014Z</time></trkpt><trkpt lat="39.40122" lon="17.049995"><ele>121.0</ele><time>2026-03-29T12:55:57.014Z</time></trkpt><trkpt lat="39.4011383" lon="17.0500067"><ele>120.33333333333334</ele><time>2026-03-29T12:55:59.013Z</time></trkpt><trkpt lat="39.4010733" lon="17.0500167"><ele>119.66666666666667</ele><time>2026-03-29T12:56:02.014Z</time></trkpt><trkpt lat="39.400995" lon="17.0500167"><ele>119.0</ele><time>2026-03-29T12:56:06.014Z</time></trkpt><trkpt lat="39.4009083" lon="17.0499983"><ele>118.33333333333334</ele><time>2026-03-29T12:56:09.014Z</time></trkpt><trkpt lat="39.4008433" lon="17.04999"><ele>117.66666666666667</ele><time>2026-03-29T12:56:12.014Z</time></trkpt><trkpt lat="39.40074" lon="17.04996"><ele>117.0</ele><time>2026-03-29T12:56:15.013Z</time></trkpt><trkpt lat="39.4006417" lon="17.0499167"><ele>117.0</ele><time>2026-03-29T12:56:17.014Z</time></trkpt><trkpt lat="39.40056" lon="17.0498317"><ele>116.99999999999999</ele><time>2026-03-29T12:56:19.014Z</time></trkpt><trkpt lat="39.4004567" lon="17.0497617"><ele>116.99999999999999</ele><time>2026-03-29T12:56:21.014Z</time></trkpt><trkpt lat="39.4003233" lon="17.049715"><ele>117.0</ele><time>2026-03-29T12:56:23.014Z</time></trkpt><trkpt lat="39.4002567" lon="17.0496833"><ele>117.0</ele><time>2026-03-29T12:56:24.014Z</time></trkpt><trkpt lat="39.40019" lon="17.0496533"><ele>112.33333333333333</ele><time>2026-03-29T12:56:25.014Z</time></trkpt><trkpt lat="39.4001" lon="17.0496067"><ele>107.66666666666667</ele><time>2026-03-29T12:56:27.014Z</time></trkpt><trkpt lat="39.4000217" lon="17.0496367"><ele>103.0</ele><time>2026-03-29T12:56:30.014Z</time></trkpt><trkpt lat="39.4000317" lon="17.0497233"><ele>98.33333333333334</ele><time>2026-03-29T12:56:32.014Z</time></trkpt><trkpt lat="39.4001067" lon="17.0498517"><ele>93.66666666666667</ele><time>2026-03-29T12:56:34.014Z</time></trkpt><trkpt lat="39.4001533" lon="17.0499333"><ele>89.0</ele><time>2026-03-29T12:56:35.014Z</time></trkpt><trkpt lat="39.40018" lon="17.0500117"><ele>88.0</ele><time>2026-03-29T12:56:36.014Z</time></trkpt><trkpt lat="39.4001867" lon="17.0501433"><ele>87.0</ele><time>2026-03-29T12:56:38.014Z</time></trkpt><trkpt lat="39.40016" lon="17.0502233"><ele>86.0</ele><time>2026-03-29T12:56:40.014Z</time></trkpt><trkpt lat="39.400145" lon="17.0503433"><ele>85.0</ele><time>2026-03-29T12:56:50.014Z</time></trkpt><trkpt lat="39.4001817" lon="17.0504317"><ele>84.0</ele><time>2026-03-29T12:56:54.014Z</time></trkpt><trkpt lat="39.4002283" lon="17.0504867"><ele>83.0</ele><time>2026-03-29T12:56:59.014Z</time></trkpt><trkpt lat="39.4002117" lon="17.0506117"><ele>83.0</ele><time>2026-03-29T12:57:06.014Z</time></trkpt><trkpt lat="39.4002283" lon="17.0507133"><ele>83.0</ele><time>2026-03-29T12:57:09.014Z</time></trkpt><trkpt lat="39.400295" lon="17.0508117"><ele>83.0</ele><time>2026-03-29T12:57:11.014Z</time></trkpt><trkpt lat="39.400375" lon="17.0509417"><ele>83.0</ele><time>2026-03-29T12:57:13.014Z</time></trkpt><trkpt lat="39.4004233" lon="17.0511017"><ele>83.0</ele><time>2026-03-29T12:57:15.014Z</time></trkpt><trkpt lat="39.4004833" lon="17.0512517"><ele>83.0</ele><time>2026-03-29T12:57:17.014Z</time></trkpt><trkpt lat="39.4005183" lon="17.0513217"><ele>83.0</ele><time>2026-03-29T12:57:18.014Z</time></trkpt><trkpt lat="39.40058" lon="17.0514517"><ele>83.0</ele><time>2026-03-29T12:57:20.014Z</time></trkpt><trkpt lat="39.4006317" lon="17.051535"><ele>83.0</ele><time>2026-03-29T12:57:22.014Z</time></trkpt><trkpt lat="39.40069" lon="17.0516283"><ele>83.0</ele><time>2026-03-29T12:57:38.014Z</time></trkpt><trkpt lat="39.400715" lon="17.051705"><ele>83.0</ele><time>2026-03-29T12:57:42.014Z</time></trkpt><trkpt lat="39.4007367" lon="17.0517967"><ele>82.0</ele><time>2026-03-29T12:57:46.014Z</time></trkpt><trkpt lat="39.4007817" lon="17.0518717"><ele>81.0</ele><time>2026-03-29T12:57:49.014Z</time></trkpt><trkpt lat="39.40085" lon="17.0519367"><ele>80.0</ele><time>2026-03-29T12:58:08.014Z</time></trkpt><trkpt lat="39.4009017" lon="17.05199"><ele>79.0</ele><time>2026-03-29T12:58:11.014Z</time></trkpt><trkpt lat="39.4009667" lon="17.052025"><ele>78.0</ele><time>2026-03-29T12:58:16.014Z</time></trkpt><trkpt lat="39.40103" lon="17.0520467"><ele>77.0</ele><time>2026-03-29T12:58:20.013Z</time></trkpt><trkpt lat="39.40109" lon="17.0520917"><ele>76.0</ele><time>2026-03-29T12:58:24.014Z</time></trkpt><trkpt lat="39.4010917" lon="17.0522"><ele>76.0</ele><time>2026-03-29T12:58:28.014Z</time></trkpt><trkpt lat="39.4011683" lon="17.05227"><ele>76.0</ele><time>2026-03-29T12:58:31.014Z</time></trkpt><trkpt lat="39.4012533" lon="17.052285"><ele>76.0</ele><time>2026-03-29T12:58:33.014Z</time></trkpt><trkpt lat="39.401315" lon="17.0523067"><ele>76.0</ele><time>2026-03-29T12:58:35.014Z</time></trkpt><trkpt lat="39.4014117" lon="17.05234"><ele>76.0</ele><time>2026-03-29T12:58:43.014Z</time></trkpt><trkpt lat="39.401485" lon="17.052355"><ele>76.0</ele><time>2026-03-29T12:58:44.014Z</time></trkpt><trkpt lat="39.4015633" lon="17.05237"><ele>75.66666666666666</ele><time>2026-03-29T12:58:45.014Z</time></trkpt><trkpt lat="39.4016483" lon="17.0524017"><ele>75.33333333333333</ele><time>2026-03-29T12:58:46.014Z</time></trkpt><trkpt lat="39.4017333" lon="17.05244"><ele>75.0</ele><time>2026-03-29T12:58:47.014Z</time></trkpt><trkpt lat="39.4018033" lon="17.052485"><ele>74.66666666666667</ele><time>2026-03-29T12:58:48.014Z</time></trkpt><trkpt lat="39.401865" lon="17.0525333"><ele>74.33333333333334</ele><time>2026-03-29T12:58:49.014Z</time></trkpt><trkpt lat="39.4019283" lon="17.0525883"><ele>74.0</ele><time>2026-03-29T12:58:50.014Z</time></trkpt><trkpt lat="39.4019933" lon="17.0526517"><ele>74.0</ele><time>2026-03-29T12:58:51.014Z</time></trkpt><trkpt lat="39.4020367" lon="17.0527117"><ele>74.0</ele><time>2026-03-29T12:58:52.013Z</time></trkpt><trkpt lat="39.4020817" lon="17.0528367"><ele>74.0</ele><time>2026-03-29T12:58:54.014Z</time></trkpt><trkpt lat="39.4020917" lon="17.0529367"><ele>74.0</ele><time>2026-03-29T12:58:56.013Z</time></trkpt><trkpt lat="39.4020883" lon="17.053035"><ele>74.0</ele><time>2026-03-29T12:58:59.014Z</time></trkpt><trkpt lat="39.4021167" lon="17.05311"><ele>74.0</ele><time>2026-03-29T12:59:02.014Z</time></trkpt><trkpt lat="39.4021967" lon="17.053165"><ele>74.2</ele><time>2026-03-29T12:59:05.014Z</time></trkpt><trkpt lat="39.402265" lon="17.0532383"><ele>74.4</ele><time>2026-03-29T12:59:07.013Z</time></trkpt><trkpt lat="39.4023233" lon="17.0533133"><ele>74.6</ele><time>2026-03-29T12:59:09.013Z</time></trkpt><trkpt lat="39.4024" lon="17.0534167"><ele>74.8</ele><time>2026-03-29T12:59:11.014Z</time></trkpt><trkpt lat="39.4024367" lon="17.0535483"><ele>75.0</ele><time>2026-03-29T12:59:13.013Z</time></trkpt><trkpt lat="39.4024467" lon="17.0536433"><ele>75.0</ele><time>2026-03-29T12:59:15.013Z</time></trkpt><trkpt lat="39.40251" lon="17.0537633"><ele>75.0</ele><time>2026-03-29T12:59:27.013Z</time></trkpt><trkpt lat="39.402555" lon="17.0538217"><ele>75.0</ele><time>2026-03-29T12:59:30.014Z</time></trkpt><trkpt lat="39.4026183" lon="17.0538617"><ele>75.0</ele><time>2026-03-29T12:59:34.014Z</time></trkpt><trkpt lat="39.4026733" lon="17.0539233"><ele>75.0</ele><time>2026-03-29T12:59:38.013Z</time></trkpt><trkpt lat="39.40274" lon="17.05401"><ele>75.0</ele><time>2026-03-29T12:59:47.014Z</time></trkpt><trkpt lat="39.4028183" lon="17.0540633"><ele>74.83333333333333</ele><time>2026-03-29T12:59:56.014Z</time></trkpt><trkpt lat="39.402865" lon="17.0541367"><ele>74.66666666666667</ele><time>2026-03-29T13:00:02.014Z</time></trkpt><trkpt lat="39.402915" lon="17.0542017"><ele>74.5</ele><time>2026-03-29T13:00:06.014Z</time></trkpt><trkpt lat="39.4029533" lon="17.054285"><ele>74.33333333333334</ele><time>2026-03-29T13:00:10.014Z</time></trkpt><trkpt lat="39.4030067" lon="17.0543783"><ele>74.16666666666667</ele><time>2026-03-29T13:00:13.013Z</time></trkpt><trkpt lat="39.403045" lon="17.05446"><ele>74.0</ele><time>2026-03-29T13:00:15.014Z</time></trkpt><trkpt lat="39.4031083" lon="17.0545383"><ele>74.0</ele><time>2026-03-29T13:00:17.014Z</time></trkpt><trkpt lat="39.4031867" lon="17.0546217"><ele>74.0</ele><time>2026-03-29T13:00:19.013Z</time></trkpt><trkpt lat="39.4032417" lon="17.05472"><ele>74.0</ele><time>2026-03-29T13:00:21.014Z</time></trkpt><trkpt lat="39.403305" lon="17.05481"><ele>74.0</ele><time>2026-03-29T13:00:23.014Z</time></trkpt><trkpt lat="39.4033683" lon="17.0548633"><ele>74.0</ele><time>2026-03-29T13:00:25.014Z</time></trkpt><trkpt lat="39.4034567" lon="17.054935"><ele>72.60000000000001</ele><time>2026-03-29T13:00:42.014Z</time></trkpt><trkpt lat="39.4035117" lon="17.054975"><ele>71.2</ele><time>2026-03-29T13:00:43.013Z</time></trkpt><trkpt lat="39.4036167" lon="17.0550533"><ele>69.80000000000001</ele><time>2026-03-29T13:00:45.014Z</time></trkpt><trkpt lat="39.4036467" lon="17.0551533"><ele>68.4</ele><time>2026-03-29T13:00:47.014Z</time></trkpt><trkpt lat="39.4035783" lon="17.0552617"><ele>67.0</ele><time>2026-03-29T13:00:49.014Z</time></trkpt><trkpt lat="39.4035233" lon="17.0553317"><ele>67.0</ele><time>2026-03-29T13:00:50.014Z</time></trkpt><trkpt lat="39.4034733" lon="17.0554067"><ele>67.0</ele><time>2026-03-29T13:00:51.014Z</time></trkpt><trkpt lat="39.4034317" lon="17.0554917"><ele>67.0</ele><time>2026-03-29T13:00:52.014Z</time></trkpt><trkpt lat="39.4033967" lon="17.0555633"><ele>67.0</ele><time>2026-03-29T13:00:53.013Z</time></trkpt><trkpt lat="39.4033683" lon="17.05564"><ele>67.0</ele><time>2026-03-29T13:00:54.014Z</time></trkpt><trkpt lat="39.4033417" lon="17.0557433"><ele>67.0</ele><time>2026-03-29T13:00:56.014Z</time></trkpt><trkpt lat="39.4033267" lon="17.0558383"><ele>67.0</ele><time>2026-03-29T13:01:00.014Z</time></trkpt><trkpt lat="39.40331" lon="17.0559583"><ele>66.5</ele><time>2026-03-29T13:01:03.014Z</time></trkpt><trkpt lat="39.40331" lon="17.0560817"><ele>66.0</ele><time>2026-03-29T13:01:05.014Z</time></trkpt><trkpt lat="39.4033383" lon="17.05622"><ele>65.5</ele><time>2026-03-29T13:01:07.014Z</time></trkpt><trkpt lat="39.40336" lon="17.0563033"><ele>65.0</ele><time>2026-03-29T13:01:08.014Z</time></trkpt><trkpt lat="39.403385" lon="17.0563833"><ele>64.5</ele><time>2026-03-29T13:01:09.013Z</time></trkpt><trkpt lat="39.4034133" lon="17.0564633"><ele>64.0</ele><time>2026-03-29T13:01:10.014Z</time></trkpt><trkpt lat="39.4034433" lon="17.05654"><ele>63.83333333333333</ele><time>2026-03-29T13:01:11.014Z</time></trkpt><trkpt lat="39.4034783" lon="17.0566433"><ele>63.666666666666664</ele><time>2026-03-29T13:01:13.014Z</time></trkpt><trkpt lat="39.403535" lon="17.0567083"><ele>63.5</ele><time>2026-03-29T13:01:15.014Z</time></trkpt><trkpt lat="39.4035867" lon="17.056765"><ele>63.33333333333333</ele><time>2026-03-29T13:01:17.013Z</time></trkpt><trkpt lat="39.403645" lon="17.0568283"><ele>63.166666666666664</ele><time>2026-03-29T13:01:19.014Z</time></trkpt><trkpt lat="39.4037167" lon="17.05692"><ele>63.0</ele><time>2026-03-29T13:01:21.014Z</time></trkpt><trkpt lat="39.4037567" lon="17.0569833"><ele>63.0</ele><time>2026-03-29T13:01:22.014Z</time></trkpt><trkpt lat="39.4037983" lon="17.057055"><ele>63.0</ele><time>2026-03-29T13:01:23.014Z</time></trkpt><trkpt lat="39.4038367" lon="17.0572083"><ele>63.0</ele><time>2026-03-29T13:01:25.014Z</time></trkpt><trkpt lat="39.4038483" lon="17.0572967"><ele>63.0</ele><time>2026-03-29T13:01:26.014Z</time></trkpt><trkpt lat="39.4038667" lon="17.0573933"><ele>63.0</ele><time>2026-03-29T13:01:27.014Z</time></trkpt><trkpt lat="39.403885" lon="17.0574933"><ele>63.0</ele><time>2026-03-29T13:01:28.014Z</time></trkpt><trkpt lat="39.4039083" lon="17.057575"><ele>63.166666666666664</ele><time>2026-03-29T13:01:29.014Z</time></trkpt><trkpt lat="39.4039583" lon="17.05767"><ele>63.33333333333333</ele><time>2026-03-29T13:01:31.013Z</time></trkpt><trkpt lat="39.4040167" lon="17.0577183"><ele>63.5</ele><time>2026-03-29T13:01:36.013Z</time></trkpt><trkpt lat="39.4040783" lon="17.057745"><ele>63.666666666666664</ele><time>2026-03-29T13:01:41.014Z</time></trkpt><trkpt lat="39.4041433" lon="17.0577967"><ele>63.83333333333333</ele><time>2026-03-29T13:01:46.014Z</time></trkpt><trkpt lat="39.404225" lon="17.057875"><ele>64.0</ele><time>2026-03-29T13:01:49.014Z</time></trkpt><trkpt lat="39.4043017" lon="17.0579333"><ele>63.99999999999999</ele><time>2026-03-29T13:01:51.013Z</time></trkpt><trkpt lat="39.4043883" lon="17.0580083"><ele>64.0</ele><time>2026-03-29T13:01:53.014Z</time></trkpt><trkpt lat="39.404415" lon="17.0580867"><ele>64.0</ele><time>2026-03-29T13:01:54.014Z</time></trkpt><trkpt lat="39.4044417" lon="17.058165"><ele>64.0</ele><time>2026-03-29T13:01:55.014Z</time></trkpt><trkpt lat="39.4044583" lon="17.0582517"><ele>63.99999999999999</ele><time>2026-03-29T13:01:56.014Z</time></trkpt><trkpt lat="39.404485" lon="17.0583517"><ele>64.0</ele><time>2026-03-29T13:01:57.014Z</time></trkpt><trkpt lat="39.4045217" lon="17.0584317"><ele>64.0</ele><time>2026-03-29T13:01:58.014Z</time></trkpt><trkpt lat="39.404565" lon="17.0585033"><ele>63.99999999999999</ele><time>2026-03-29T13:01:59.013Z</time></trkpt><trkpt lat="39.4046117" lon="17.0585583"><ele>64.0</ele><time>2026-03-29T13:02:00.013Z</time></trkpt><trkpt lat="39.4046583" lon="17.058615"><ele>64.0</ele><time>2026-03-29T13:02:01.014Z</time></trkpt><trkpt lat="39.4047067" lon="17.0586683"><ele>63.99999999999999</ele><time>2026-03-29T13:02:02.014Z</time></trkpt><trkpt lat="39.4047583" lon="17.0587367"><ele>64.0</ele><time>2026-03-29T13:02:03.014Z</time></trkpt><trkpt lat="39.404805" lon="17.0588017"><ele>64.0</ele><time>2026-03-29T13:02:04.014Z</time></trkpt><trkpt lat="39.40486" lon="17.0588567"><ele>63.99999999999999</ele><time>2026-03-29T13:02:05.014Z</time></trkpt><trkpt lat="39.4049233" lon="17.0589183"><ele>64.0</ele><time>2026-03-29T13:02:06.014Z</time></trkpt><trkpt lat="39.4049833" lon="17.05899"><ele>64.0</ele><time>2026-03-29T13:02:07.013Z</time></trkpt><trkpt lat="39.4050333" lon="17.0590467"><ele>64.0</ele><time>2026-03-29T13:02:08.014Z</time></trkpt><trkpt lat="39.40507" lon="17.059115"><ele>63.99999999999999</ele><time>2026-03-29T13:02:09.014Z</time></trkpt><trkpt lat="39.4051283" lon="17.0592317"><ele>64.0</ele><time>2026-03-29T13:02:11.013Z</time></trkpt><trkpt lat="39.405145" lon="17.0593183"><ele>62.83333333333333</ele><time>2026-03-29T13:02:12.014Z</time></trkpt><trkpt lat="39.405155" lon="17.05941"><ele>61.666666666666664</ele><time>2026-03-29T13:02:13.014Z</time></trkpt><trkpt lat="39.4051633" lon="17.0594967"><ele>60.5</ele><time>2026-03-29T13:02:14.014Z</time></trkpt><trkpt lat="39.4051617" lon="17.059585"><ele>59.33333333333333</ele><time>2026-03-29T13:02:15.013Z</time></trkpt><trkpt lat="39.4051433" lon="17.0596633"><ele>58.166666666666664</ele><time>2026-03-29T13:02:16.013Z</time></trkpt><trkpt lat="39.405085" lon="17.0598133"><ele>57.0</ele><time>2026-03-29T13:02:18.014Z</time></trkpt><trkpt lat="39.405055" lon="17.0598967"><ele>57.0</ele><time>2026-03-29T13:02:19.014Z</time></trkpt><trkpt lat="39.40503" lon="17.0599867"><ele>57.0</ele><time>2026-03-29T13:02:20.014Z</time></trkpt><trkpt lat="39.4050017" lon="17.0600917"><ele>57.0</ele><time>2026-03-29T13:02:21.014Z</time></trkpt><trkpt lat="39.4049683" lon="17.0601983"><ele>57.0</ele><time>2026-03-29T13:02:22.013Z</time></trkpt><trkpt lat="39.4049367" lon="17.0603167"><ele>57.0</ele><time>2026-03-29T13:02:23.014Z</time></trkpt><trkpt lat="39.4049" lon="17.0604217"><ele>57.0</ele><time>2026-03-29T13:02:24.014Z</time></trkpt><trkpt lat="39.404875" lon="17.0605133"><ele>57.0</ele><time>2026-03-29T13:02:25.013Z</time></trkpt><trkpt lat="39.4048383" lon="17.0606117"><ele>57.0</ele><time>2026-03-29T13:02:27.013Z</time></trkpt><trkpt lat="39.40478" lon="17.0606967"><ele>57.0</ele><time>2026-03-29T13:02:29.014Z</time></trkpt><trkpt lat="39.4046967" lon="17.060795"><ele>57.0</ele><time>2026-03-29T13:02:31.014Z</time></trkpt><trkpt lat="39.404615" lon="17.06091"><ele>57.0</ele><time>2026-03-29T13:02:33.013Z</time></trkpt><trkpt lat="39.4046" lon="17.0610317"><ele>56.5</ele><time>2026-03-29T13:02:35.013Z</time></trkpt><trkpt lat="39.404635" lon="17.0611783"><ele>56.0</ele><time>2026-03-29T13:02:37.013Z</time></trkpt><trkpt lat="39.4046833" lon="17.06124"><ele>55.5</ele><time>2026-03-29T13:02:38.013Z</time></trkpt><trkpt lat="39.4047867" lon="17.0613333"><ele>55.0</ele><time>2026-03-29T13:02:40.013Z</time></trkpt><trkpt lat="39.4048417" lon="17.0613817"><ele>54.5</ele><time>2026-03-29T13:02:41.013Z</time></trkpt><trkpt lat="39.4049033" lon="17.06141"><ele>54.0</ele><time>2026-03-29T13:02:42.013Z</time></trkpt><trkpt lat="39.404975" lon="17.0614433"><ele>54.0</ele><time>2026-03-29T13:02:43.013Z</time></trkpt><trkpt lat="39.40506" lon="17.06148"><ele>54.0</ele><time>2026-03-29T13:02:44.013Z</time></trkpt><trkpt lat="39.4051367" lon="17.0615117"><ele>54.0</ele><time>2026-03-29T13:02:45.013Z</time></trkpt><trkpt lat="39.405205" lon="17.0615467"><ele>54.0</ele><time>2026-03-29T13:02:46.013Z</time></trkpt><trkpt lat="39.4052983" lon="17.06163"><ele>54.0</ele><time>2026-03-29T13:02:48.013Z</time></trkpt><trkpt lat="39.4053" lon="17.06174"><ele>54.0</ele><time>2026-03-29T13:02:50.012Z</time></trkpt><trkpt lat="39.4052917" lon="17.0618833"><ele>54.0</ele><time>2026-03-29T13:02:52.013Z</time></trkpt><trkpt lat="39.405335" lon="17.0620133"><ele>54.0</ele><time>2026-03-29T13:02:54.013Z</time></trkpt><trkpt lat="39.4053783" lon="17.0620833"><ele>54.0</ele><time>2026-03-29T13:02:55.013Z</time></trkpt><trkpt lat="39.4054267" lon="17.062165"><ele>54.0</ele><time>2026-03-29T13:02:56.013Z</time></trkpt><trkpt lat="39.4054667" lon="17.0622467"><ele>54.0</ele><time>2026-03-29T13:02:57.013Z</time></trkpt><trkpt lat="39.4055017" lon="17.0623383"><ele>54.0</ele><time>2026-03-29T13:02:58.013Z</time></trkpt><trkpt lat="39.405535" lon="17.0624333"><ele>53.6</ele><time>2026-03-29T13:02:59.013Z</time></trkpt><trkpt lat="39.4055617" lon="17.06253"><ele>53.2</ele><time>2026-03-29T13:03:00.013Z</time></trkpt><trkpt lat="39.405555" lon="17.0626917"><ele>52.800000000000004</ele><time>2026-03-29T13:03:02.012Z</time></trkpt><trkpt lat="39.40552" lon="17.062785"><ele>52.400000000000006</ele><time>2026-03-29T13:03:03.013Z</time></trkpt><trkpt lat="39.4054883" lon="17.06289"><ele>52.0</ele><time>2026-03-29T13:03:04.013Z</time></trkpt><trkpt lat="39.4054583" lon="17.0629883"><ele>51.666666666666664</ele><time>2026-03-29T13:03:05.013Z</time></trkpt><trkpt lat="39.4054533" lon="17.0630817"><ele>51.33333333333333</ele><time>2026-03-29T13:03:06.013Z</time></trkpt><trkpt lat="39.405465" lon="17.06322"><ele>51.0</ele><time>2026-03-29T13:03:08.013Z</time></trkpt><trkpt lat="39.40548" lon="17.0633217"><ele>50.66666666666667</ele><time>2026-03-29T13:03:10.013Z</time></trkpt><trkpt lat="39.405495" lon="17.063435"><ele>50.333333333333336</ele><time>2026-03-29T13:03:12.013Z</time></trkpt><trkpt lat="39.4055233" lon="17.0635467"><ele>50.0</ele><time>2026-03-29T13:03:14.013Z</time></trkpt><trkpt lat="39.405585" lon="17.0636767"><ele>50.0</ele><time>2026-03-29T13:03:16.013Z</time></trkpt><trkpt lat="39.405665" lon="17.0637733"><ele>50.0</ele><time>2026-03-29T13:03:18.013Z</time></trkpt><trkpt lat="39.4057483" lon="17.0638183"><ele>50.0</ele><time>2026-03-29T13:03:20.013Z</time></trkpt><trkpt lat="39.4058167" lon="17.063895"><ele>50.0</ele><time>2026-03-29T13:03:22.013Z</time></trkpt><trkpt lat="39.40585" lon="17.0640267"><ele>50.0</ele><time>2026-03-29T13:03:24.013Z</time></trkpt><trkpt lat="39.405845" lon="17.0641083"><ele>50.0</ele><time>2026-03-29T13:03:25.012Z</time></trkpt><trkpt lat="39.4058417" lon="17.0641917"><ele>50.0</ele><time>2026-03-29T13:03:26.013Z</time></trkpt><trkpt lat="39.4058333" lon="17.06435"><ele>50.0</ele><time>2026-03-29T13:03:28.013Z</time></trkpt><trkpt lat="39.4058267" lon="17.0645017"><ele>50.0</ele><time>2026-03-29T13:03:30.013Z</time></trkpt><trkpt lat="39.4058283" lon="17.064635"><ele>50.0</ele><time>2026-03-29T13:03:32.013Z</time></trkpt><trkpt lat="39.405825" lon="17.0647233"><ele>50.00000000000001</ele><time>2026-03-29T13:04:48.013Z</time></trkpt><trkpt lat="39.405835" lon="17.0648267"><ele>50.0</ele><time>2026-03-29T13:04:51.013Z</time></trkpt><trkpt lat="39.4058683" lon="17.0649183"><ele>50.0</ele><time>2026-03-29T13:04:55.013Z</time></trkpt><trkpt lat="39.4059167" lon="17.06502"><ele>50.0</ele><time>2026-03-29T13:04:58.013Z</time></trkpt><trkpt lat="39.4059667" lon="17.0651267"><ele>50.00000000000001</ele><time>2026-03-29T13:05:00.013Z</time></trkpt><trkpt lat="39.4060283" lon="17.0652267"><ele>50.0</ele><time>2026-03-29T13:05:02.013Z</time></trkpt><trkpt lat="39.4060883" lon="17.065325"><ele>50.00000000000001</ele><time>2026-03-29T13:05:04.012Z</time></trkpt><trkpt lat="39.406095" lon="17.0654167"><ele>50.0</ele><time>2026-03-29T13:05:06.013Z</time></trkpt><trkpt lat="39.406075" lon="17.0655133"><ele>50.0</ele><time>2026-03-29T13:05:08.013Z</time></trkpt><trkpt lat="39.40604" lon="17.065595"><ele>50.0</ele><time>2026-03-29T13:05:10.013Z</time></trkpt><trkpt lat="39.406015" lon="17.0656767"><ele>50.0</ele><time>2026-03-29T13:05:12.013Z</time></trkpt><trkpt lat="39.405975" lon="17.065755"><ele>50.00000000000001</ele><time>2026-03-29T13:05:15.013Z</time></trkpt><trkpt lat="39.4059433" lon="17.06583"><ele>50.0</ele><time>2026-03-29T13:05:18.013Z</time></trkpt><trkpt lat="39.4059167" lon="17.0659217"><ele>50.00000000000001</ele><time>2026-03-29T13:05:21.013Z</time></trkpt><trkpt lat="39.4059" lon="17.0660067"><ele>50.0</ele><time>2026-03-29T13:05:24.013Z</time></trkpt><trkpt lat="39.4058917" lon="17.0661133"><ele>50.0</ele><time>2026-03-29T13:05:26.013Z</time></trkpt><trkpt lat="39.4058767" lon="17.0662617"><ele>50.0</ele><time>2026-03-29T13:05:28.013Z</time></trkpt><trkpt lat="39.4058567" lon="17.06637"><ele>50.00000000000001</ele><time>2026-03-29T13:05:30.013Z</time></trkpt><trkpt lat="39.4058367" lon="17.0664683"><ele>50.0</ele><time>2026-03-29T13:05:32.013Z</time></trkpt><trkpt lat="39.4057917" lon="17.0665567"><ele>51.333333333333336</ele><time>2026-03-29T13:05:35.012Z</time></trkpt><trkpt lat="39.4057767" lon="17.0666633"><ele>52.66666666666667</ele><time>2026-03-29T13:05:41.013Z</time></trkpt><trkpt lat="39.4057667" lon="17.0667533"><ele>54.0</ele><time>2026-03-29T13:05:43.013Z</time></trkpt><trkpt lat="39.4057567" lon="17.0668517"><ele>55.33333333333333</ele><time>2026-03-29T13:05:45.013Z</time></trkpt><trkpt lat="39.4057617" lon="17.0669667"><ele>56.666666666666664</ele><time>2026-03-29T13:05:47.013Z</time></trkpt><trkpt lat="39.405765" lon="17.0671083"><ele>58.0</ele><time>2026-03-29T13:05:49.013Z</time></trkpt><trkpt lat="39.4057567" lon="17.0672333"><ele>58.0</ele><time>2026-03-29T13:05:51.013Z</time></trkpt><trkpt lat="39.4057467" lon="17.067335"><ele>58.0</ele><time>2026-03-29T13:05:53.013Z</time></trkpt><trkpt lat="39.4057267" lon="17.0674467"><ele>58.0</ele><time>2026-03-29T13:05:55.012Z</time></trkpt><trkpt lat="39.4056933" lon="17.0675883"><ele>58.0</ele><time>2026-03-29T13:05:57.013Z</time></trkpt><trkpt lat="39.40566" lon="17.067745"><ele>58.0</ele><time>2026-03-29T13:05:59.013Z</time></trkpt><trkpt lat="39.4056283" lon="17.067835"><ele>60.33333333333333</ele><time>2026-03-29T13:06:00.013Z</time></trkpt><trkpt lat="39.4055967" lon="17.0679267"><ele>62.666666666666664</ele><time>2026-03-29T13:06:01.012Z</time></trkpt><trkpt lat="39.405565" lon="17.0680167"><ele>65.0</ele><time>2026-03-29T13:06:02.013Z</time></trkpt><trkpt lat="39.4055417" lon="17.0681"><ele>67.33333333333333</ele><time>2026-03-29T13:06:03.013Z</time></trkpt><trkpt lat="39.40548" lon="17.0682167"><ele>69.66666666666667</ele><time>2026-03-29T13:06:05.013Z</time></trkpt><trkpt lat="39.4054067" lon="17.0683183"><ele>72.0</ele><time>2026-03-29T13:06:07.013Z</time></trkpt><trkpt lat="39.4053133" lon="17.068425"><ele>73.00000000000001</ele><time>2026-03-29T13:06:09.013Z</time></trkpt><trkpt lat="39.4052667" lon="17.068495"><ele>74.0</ele><time>2026-03-29T13:06:10.013Z</time></trkpt><trkpt lat="39.4052283" lon="17.06856"><ele>75.0</ele><time>2026-03-29T13:06:11.013Z</time></trkpt><trkpt lat="39.4051683" lon="17.0686567"><ele>76.0</ele><time>2026-03-29T13:06:13.013Z</time></trkpt><trkpt lat="39.4051367" lon="17.0687333"><ele>77.0</ele><time>2026-03-29T13:06:15.013Z</time></trkpt><trkpt lat="39.40508" lon="17.0688067"><ele>78.00000000000001</ele><time>2026-03-29T13:06:17.013Z</time></trkpt><trkpt lat="39.4050283" lon="17.0688567"><ele>79.0</ele><time>2026-03-29T13:06:18.012Z</time></trkpt><trkpt lat="39.4049583" lon="17.0689033"><ele>79.0</ele><time>2026-03-29T13:06:19.013Z</time></trkpt><trkpt lat="39.4048633" lon="17.06895"><ele>79.0</ele><time>2026-03-29T13:06:20.013Z</time></trkpt><trkpt lat="39.4047483" lon="17.069005"><ele>79.0</ele><time>2026-03-29T13:06:21.013Z</time></trkpt><trkpt lat="39.40463" lon="17.069085"><ele>79.0</ele><time>2026-03-29T13:06:22.013Z</time></trkpt><trkpt lat="39.4045133" lon="17.0691933"><ele>79.0</ele><time>2026-03-29T13:06:23.013Z</time></trkpt><trkpt lat="39.4044067" lon="17.06933"><ele>79.0</ele><time>2026-03-29T13:06:24.013Z</time></trkpt><trkpt lat="39.40429" lon="17.06948"><ele>79.0</ele><time>2026-03-29T13:06:25.013Z</time></trkpt><trkpt lat="39.40418" lon="17.0696417"><ele>79.0</ele><time>2026-03-29T13:06:26.013Z</time></trkpt><trkpt lat="39.40406" lon="17.0698033"><ele>79.0</ele><time>2026-03-29T13:06:27.013Z</time></trkpt><trkpt lat="39.403935" lon="17.0699783"><ele>79.0</ele><time>2026-03-29T13:06:28.013Z</time></trkpt><trkpt lat="39.403795" lon="17.0701617"><ele>80.0</ele><time>2026-03-29T13:06:29.013Z</time></trkpt><trkpt lat="39.403655" lon="17.07035"><ele>81.0</ele><time>2026-03-29T13:06:30.013Z</time></trkpt><trkpt lat="39.403505" lon="17.0705467"><ele>82.0</ele><time>2026-03-29T13:06:31.013Z</time></trkpt><trkpt lat="39.4033583" lon="17.0707333"><ele>81.66666666666666</ele><time>2026-03-29T13:06:32.013Z</time></trkpt><trkpt lat="39.4032167" lon="17.0708783"><ele>81.33333333333333</ele><time>2026-03-29T13:06:33.013Z</time></trkpt><trkpt lat="39.403065" lon="17.0709733"><ele>81.0</ele><time>2026-03-29T13:06:34.013Z</time></trkpt><trkpt lat="39.4029117" lon="17.0710383"><ele>81.0</ele><time>2026-03-29T13:06:35.013Z</time></trkpt><trkpt lat="39.4027717" lon="17.071065"><ele>81.0</ele><time>2026-03-29T13:06:36.013Z</time></trkpt><trkpt lat="39.4026233" lon="17.0710817"><ele>81.0</ele><time>2026-03-29T13:06:37.013Z</time></trkpt><trkpt lat="39.4024683" lon="17.0710667"><ele>81.0</ele><time>2026-03-29T13:06:38.013Z</time></trkpt><trkpt lat="39.402305" lon="17.0710583"><ele>80.66666666666667</ele><time>2026-03-29T13:06:39.013Z</time></trkpt><trkpt lat="39.4021367" lon="17.0710533"><ele>80.33333333333334</ele><time>2026-03-29T13:06:40.013Z</time></trkpt><trkpt lat="39.4019633" lon="17.0710467"><ele>80.0</ele><time>2026-03-29T13:06:41.013Z</time></trkpt><trkpt lat="39.4017917" lon="17.0710533"><ele>80.0</ele><time>2026-03-29T13:06:42.013Z</time></trkpt><trkpt lat="39.4016183" lon="17.0710633"><ele>80.0</ele><time>2026-03-29T13:06:43.013Z</time></trkpt><trkpt lat="39.4014533" lon="17.07108"><ele>80.0</ele><time>2026-03-29T13:06:44.013Z</time></trkpt><trkpt lat="39.4012833" lon="17.0710833"><ele>79.66666666666667</ele><time>2026-03-29T13:06:45.013Z</time></trkpt><trkpt lat="39.401115" lon="17.0711"><ele>79.33333333333333</ele><time>2026-03-29T13:06:46.013Z</time></trkpt><trkpt lat="39.40095" lon="17.0711133"><ele>79.0</ele><time>2026-03-29T13:06:47.013Z</time></trkpt><trkpt lat="39.4008033" lon="17.0711283"><ele>79.0</ele><time>2026-03-29T13:06:48.013Z</time></trkpt><trkpt lat="39.4006617" lon="17.071155"><ele>79.0</ele><time>2026-03-29T13:06:49.013Z</time></trkpt><trkpt lat="39.40054" lon="17.0711833"><ele>79.0</ele><time>2026-03-29T13:06:50.013Z</time></trkpt><trkpt lat="39.40043" lon="17.07121"><ele>79.0</ele><time>2026-03-29T13:06:51.013Z</time></trkpt><trkpt lat="39.400335" lon="17.0712267"><ele>79.83333333333333</ele><time>2026-03-29T13:06:52.013Z</time></trkpt><trkpt lat="39.400245" lon="17.0712517"><ele>80.66666666666666</ele><time>2026-03-29T13:06:53.013Z</time></trkpt><trkpt lat="39.4001683" lon="17.07128"><ele>81.5</ele><time>2026-03-29T13:06:54.013Z</time></trkpt><trkpt lat="39.4000933" lon="17.0713083"><ele>82.33333333333333</ele><time>2026-03-29T13:06:55.013Z</time></trkpt><trkpt lat="39.4000183" lon="17.0713433"><ele>83.16666666666667</ele><time>2026-03-29T13:06:56.013Z</time></trkpt><trkpt lat="39.3999317" lon="17.071385"><ele>84.0</ele><time>2026-03-29T13:06:57.013Z</time></trkpt><trkpt lat="39.3998383" lon="17.07144"><ele>84.0</ele><time>2026-03-29T13:06:58.013Z</time></trkpt><trkpt lat="39.39975" lon="17.07149"><ele>84.0</ele><time>2026-03-29T13:06:59.013Z</time></trkpt><trkpt lat="39.3996683" lon="17.0715417"><ele>84.0</ele><time>2026-03-29T13:07:00.013Z</time></trkpt><trkpt lat="39.3995917" lon="17.0716"><ele>84.0</ele><time>2026-03-29T13:07:01.013Z</time></trkpt><trkpt lat="39.3995083" lon="17.0716533"><ele>84.0</ele><time>2026-03-29T13:07:02.013Z</time></trkpt><trkpt lat="39.3994267" lon="17.0717033"><ele>84.80000000000001</ele><time>2026-03-29T13:07:03.013Z</time></trkpt><trkpt lat="39.3993383" lon="17.0717483"><ele>85.60000000000001</ele><time>2026-03-29T13:07:04.013Z</time></trkpt><trkpt lat="39.3992467" lon="17.0717933"><ele>86.4</ele><time>2026-03-29T13:07:05.013Z</time></trkpt><trkpt lat="39.3991433" lon="17.0718367"><ele>87.2</ele><time>2026-03-29T13:07:06.013Z</time></trkpt><trkpt lat="39.3990383" lon="17.0718717"><ele>88.0</ele><time>2026-03-29T13:07:07.012Z</time></trkpt><trkpt lat="39.3989367" lon="17.0719017"><ele>88.0</ele><time>2026-03-29T13:07:08.013Z</time></trkpt><trkpt lat="39.3988433" lon="17.0719333"><ele>88.0</ele><time>2026-03-29T13:07:09.013Z</time></trkpt><trkpt lat="39.3987533" lon="17.0719617"><ele>88.0</ele><time>2026-03-29T13:07:10.013Z</time></trkpt><trkpt lat="39.398655" lon="17.07199"><ele>88.0</ele><time>2026-03-29T13:07:11.013Z</time></trkpt><trkpt lat="39.398555" lon="17.072025"><ele>88.0</ele><time>2026-03-29T13:07:12.013Z</time></trkpt><trkpt lat="39.3984367" lon="17.0720583"><ele>89.0</ele><time>2026-03-29T13:07:13.013Z</time></trkpt><trkpt lat="39.3983217" lon="17.0721017"><ele>90.0</ele><time>2026-03-29T13:07:14.013Z</time></trkpt><trkpt lat="39.3982017" lon="17.0721383"><ele>91.0</ele><time>2026-03-29T13:07:15.013Z</time></trkpt><trkpt lat="39.3980667" lon="17.0721967"><ele>92.0</ele><time>2026-03-29T13:07:16.013Z</time></trkpt><trkpt lat="39.3979217" lon="17.072265"><ele>91.0</ele><time>2026-03-29T13:07:17.013Z</time></trkpt><trkpt lat="39.3977817" lon="17.0723433"><ele>90.0</ele><time>2026-03-29T13:07:18.013Z</time></trkpt><trkpt lat="39.3976417" lon="17.0724317"><ele>89.0</ele><time>2026-03-29T13:07:19.013Z</time></trkpt><trkpt lat="39.3975" lon="17.0725233"><ele>89.0</ele><time>2026-03-29T13:07:20.012Z</time></trkpt><trkpt lat="39.3973633" lon="17.0726133"><ele>89.0</ele><time>2026-03-29T13:07:21.013Z</time></trkpt><trkpt lat="39.39723" lon="17.0727017"><ele>89.0</ele><time>2026-03-29T13:07:22.013Z</time></trkpt><trkpt lat="39.3971" lon="17.0727917"><ele>91.0</ele><time>2026-03-29T13:07:23.013Z</time></trkpt><trkpt lat="39.39697" lon="17.0728817"><ele>93.0</ele><time>2026-03-29T13:07:24.013Z</time></trkpt><trkpt lat="39.39685" lon="17.0729717"><ele>95.0</ele><time>2026-03-29T13:07:25.013Z</time></trkpt><trkpt lat="39.3967317" lon="17.0730633"><ele>97.0</ele><time>2026-03-29T13:07:26.013Z</time></trkpt><trkpt lat="39.3966133" lon="17.07316"><ele>97.0</ele><time>2026-03-29T13:07:27.013Z</time></trkpt><trkpt lat="39.3965033" lon="17.0732533"><ele>97.0</ele><time>2026-03-29T13:07:28.013Z</time></trkpt><trkpt lat="39.3963933" lon="17.0733433"><ele>97.0</ele><time>2026-03-29T13:07:29.013Z</time></trkpt><trkpt lat="39.3962933" lon="17.0734167"><ele>97.0</ele><time>2026-03-29T13:07:30.012Z</time></trkpt><trkpt lat="39.3962" lon="17.0734933"><ele>97.00000000000001</ele><time>2026-03-29T13:07:31.013Z</time></trkpt><trkpt lat="39.396115" lon="17.073565"><ele>97.0</ele><time>2026-03-29T13:07:32.013Z</time></trkpt><trkpt lat="39.396045" lon="17.0736283"><ele>97.0</ele><time>2026-03-29T13:07:33.013Z</time></trkpt><trkpt lat="39.39598" lon="17.0736817"><ele>97.0</ele><time>2026-03-29T13:07:34.012Z</time></trkpt><trkpt lat="39.395925" lon="17.07373"><ele>97.00000000000001</ele><time>2026-03-29T13:07:35.013Z</time></trkpt><trkpt lat="39.39584" lon="17.0737917"><ele>97.0</ele><time>2026-03-29T13:07:37.013Z</time></trkpt><trkpt lat="39.3958283" lon="17.073895"><ele>97.0</ele><time>2026-03-29T13:07:40.013Z</time></trkpt><trkpt lat="39.3958917" lon="17.0739583"><ele>97.0</ele><time>2026-03-29T13:07:43.012Z</time></trkpt><trkpt lat="39.3959967" lon="17.0739917"><ele>97.0</ele><time>2026-03-29T13:07:45.013Z</time></trkpt><trkpt lat="39.3960567" lon="17.0740217"><ele>97.0</ele><time>2026-03-29T13:07:46.012Z</time></trkpt><trkpt lat="39.396125" lon="17.0740367"><ele>97.0</ele><time>2026-03-29T13:07:47.013Z</time></trkpt><trkpt lat="39.3962533" lon="17.0739933"><ele>97.00000000000001</ele><time>2026-03-29T13:07:49.013Z</time></trkpt><trkpt lat="39.396315" lon="17.0739767"><ele>97.0</ele><time>2026-03-29T13:07:50.013Z</time></trkpt><trkpt lat="39.3964417" lon="17.0739967"><ele>97.0</ele><time>2026-03-29T13:07:52.013Z</time></trkpt><trkpt lat="39.3965033" lon="17.07404"><ele>97.0</ele><time>2026-03-29T13:07:53.013Z</time></trkpt><trkpt lat="39.39656" lon="17.0740967"><ele>97.00000000000001</ele><time>2026-03-29T13:07:54.013Z</time></trkpt><trkpt lat="39.39661" lon="17.07415"><ele>97.0</ele><time>2026-03-29T13:07:55.013Z</time></trkpt><trkpt lat="39.3966617" lon="17.074215"><ele>95.71428571428571</ele><time>2026-03-29T13:07:56.012Z</time></trkpt><trkpt lat="39.396705" lon="17.074275"><ele>94.42857142857143</ele><time>2026-03-29T13:07:57.013Z</time></trkpt><trkpt lat="39.39675" lon="17.07434"><ele>93.14285714285714</ele><time>2026-03-29T13:07:58.013Z</time></trkpt><trkpt lat="39.396795" lon="17.074405"><ele>91.85714285714286</ele><time>2026-03-29T13:07:59.013Z</time></trkpt><trkpt lat="39.39684" lon="17.0744733"><ele>90.57142857142857</ele><time>2026-03-29T13:08:00.013Z</time></trkpt><trkpt lat="39.3968867" lon="17.074545"><ele>89.28571428571429</ele><time>2026-03-29T13:08:01.013Z</time></trkpt><trkpt lat="39.3969383" lon="17.0746117"><ele>88.0</ele><time>2026-03-29T13:08:02.013Z</time></trkpt><trkpt lat="39.3969917" lon="17.0746783"><ele>88.0</ele><time>2026-03-29T13:08:03.013Z</time></trkpt><trkpt lat="39.3970467" lon="17.0747417"><ele>88.0</ele><time>2026-03-29T13:08:04.012Z</time></trkpt><trkpt lat="39.3970983" lon="17.0747983"><ele>88.0</ele><time>2026-03-29T13:08:05.013Z</time></trkpt><trkpt lat="39.397155" lon="17.0748517"><ele>88.0</ele><time>2026-03-29T13:08:06.013Z</time></trkpt><trkpt lat="39.3972217" lon="17.074895"><ele>88.0</ele><time>2026-03-29T13:08:07.013Z</time></trkpt><trkpt lat="39.39729" lon="17.07495"><ele>88.0</ele><time>2026-03-29T13:08:08.012Z</time></trkpt><trkpt lat="39.39735" lon="17.0750067"><ele>88.0</ele><time>2026-03-29T13:08:09.013Z</time></trkpt><trkpt lat="39.3974117" lon="17.0750633"><ele>86.83333333333333</ele><time>2026-03-29T13:08:10.013Z</time></trkpt><trkpt lat="39.3974767" lon="17.07512"><ele>85.66666666666666</ele><time>2026-03-29T13:08:11.013Z</time></trkpt><trkpt lat="39.3975367" lon="17.0751817"><ele>84.5</ele><time>2026-03-29T13:08:12.013Z</time></trkpt><trkpt lat="39.3975983" lon="17.0752467"><ele>83.33333333333333</ele><time>2026-03-29T13:08:13.013Z</time></trkpt><trkpt lat="39.3976583" lon="17.0753033"><ele>82.16666666666667</ele><time>2026-03-29T13:08:14.012Z</time></trkpt><trkpt lat="39.3977233" lon="17.075355"><ele>81.0</ele><time>2026-03-29T13:08:15.012Z</time></trkpt><trkpt lat="39.3977817" lon="17.0754033"><ele>81.0</ele><time>2026-03-29T13:08:16.013Z</time></trkpt><trkpt lat="39.39784" lon="17.0754533"><ele>81.0</ele><time>2026-03-29T13:08:17.013Z</time></trkpt><trkpt lat="39.3978967" lon="17.0755033"><ele>81.0</ele><time>2026-03-29T13:08:18.013Z</time></trkpt><trkpt lat="39.39796" lon="17.075565"><ele>81.0</ele><time>2026-03-29T13:08:19.013Z</time></trkpt><trkpt lat="39.3980117" lon="17.075625"><ele>81.0</ele><time>2026-03-29T13:08:20.013Z</time></trkpt><trkpt lat="39.39807" lon="17.0756817"><ele>81.0</ele><time>2026-03-29T13:08:21.013Z</time></trkpt><trkpt lat="39.3981317" lon="17.0757317"><ele>81.0</ele><time>2026-03-29T13:08:22.013Z</time></trkpt><trkpt lat="39.3982017" lon="17.0757667"><ele>80.66666666666667</ele><time>2026-03-29T13:08:23.013Z</time></trkpt><trkpt lat="39.3982733" lon="17.07579"><ele>80.33333333333333</ele><time>2026-03-29T13:08:24.013Z</time></trkpt><trkpt lat="39.3983483" lon="17.0758183"><ele>80.0</ele><time>2026-03-29T13:08:25.013Z</time></trkpt><trkpt lat="39.39842" lon="17.0758467"><ele>79.66666666666666</ele><time>2026-03-29T13:08:26.013Z</time></trkpt><trkpt lat="39.3984967" lon="17.07589"><ele>79.33333333333333</ele><time>2026-03-29T13:08:27.013Z</time></trkpt><trkpt lat="39.39857" lon="17.075945"><ele>79.0</ele><time>2026-03-29T13:08:28.013Z</time></trkpt><trkpt lat="39.3986483" lon="17.0760017"><ele>79.0</ele><time>2026-03-29T13:08:29.012Z</time></trkpt><trkpt lat="39.3987267" lon="17.0760617"><ele>79.0</ele><time>2026-03-29T13:08:30.013Z</time></trkpt><trkpt lat="39.398815" lon="17.0761167"><ele>79.0</ele><time>2026-03-29T13:08:31.013Z</time></trkpt><trkpt lat="39.398905" lon="17.0761683"><ele>79.0</ele><time>2026-03-29T13:08:32.013Z</time></trkpt><trkpt lat="39.3989883" lon="17.0762333"><ele>79.0</ele><time>2026-03-29T13:08:33.013Z</time></trkpt><trkpt lat="39.3990717" lon="17.07629"><ele>78.33333333333333</ele><time>2026-03-29T13:08:34.013Z</time></trkpt><trkpt lat="39.399155" lon="17.0763467"><ele>77.66666666666666</ele><time>2026-03-29T13:08:35.013Z</time></trkpt><trkpt lat="39.3992333" lon="17.076395"><ele>77.0</ele><time>2026-03-29T13:08:36.012Z</time></trkpt><trkpt lat="39.3993167" lon="17.07645"><ele>76.33333333333333</ele><time>2026-03-29T13:08:37.012Z</time></trkpt><trkpt lat="39.3993917" lon="17.0765017"><ele>75.66666666666667</ele><time>2026-03-29T13:08:38.012Z</time></trkpt><trkpt lat="39.3994617" lon="17.0765733"><ele>75.0</ele><time>2026-03-29T13:08:39.013Z</time></trkpt><trkpt lat="39.3995233" lon="17.07665"><ele>74.4</ele><time>2026-03-29T13:08:40.013Z</time></trkpt><trkpt lat="39.399585" lon="17.0767317"><ele>73.8</ele><time>2026-03-29T13:08:41.013Z</time></trkpt><trkpt lat="39.3996533" lon="17.0768217"><ele>73.2</ele><time>2026-03-29T13:08:42.013Z</time></trkpt><trkpt lat="39.3997183" lon="17.0769133"><ele>72.6</ele><time>2026-03-29T13:08:43.013Z</time></trkpt><trkpt lat="39.3997933" lon="17.076995"><ele>72.0</ele><time>2026-03-29T13:08:44.013Z</time></trkpt><trkpt lat="39.3998717" lon="17.077075"><ele>71.6</ele><time>2026-03-29T13:08:45.013Z</time></trkpt><trkpt lat="39.3999483" lon="17.0771567"><ele>71.2</ele><time>2026-03-29T13:08:46.013Z</time></trkpt><trkpt lat="39.4000217" lon="17.0772533"><ele>70.8</ele><time>2026-03-29T13:08:47.013Z</time></trkpt><trkpt lat="39.4000917" lon="17.077345"><ele>70.4</ele><time>2026-03-29T13:08:48.013Z</time></trkpt><trkpt lat="39.4001567" lon="17.077445"><ele>70.0</ele><time>2026-03-29T13:08:49.013Z</time></trkpt><trkpt lat="39.4002283" lon="17.0775467"><ele>70.0</ele><time>2026-03-29T13:08:50.013Z</time></trkpt><trkpt lat="39.400285" lon="17.07764"><ele>70.0</ele><time>2026-03-29T13:08:51.013Z</time></trkpt><trkpt lat="39.4003467" lon="17.0777383"><ele>70.0</ele><time>2026-03-29T13:08:52.013Z</time></trkpt><trkpt lat="39.4004083" lon="17.077845"><ele>70.0</ele><time>2026-03-29T13:08:53.013Z</time></trkpt><trkpt lat="39.4004717" lon="17.0779433"><ele>70.0</ele><time>2026-03-29T13:08:54.013Z</time></trkpt><trkpt lat="39.4005367" lon="17.078035"><ele>70.0</ele><time>2026-03-29T13:08:55.013Z</time></trkpt><trkpt lat="39.4006" lon="17.0781267"><ele>70.0</ele><time>2026-03-29T13:08:56.013Z</time></trkpt><trkpt lat="39.4006517" lon="17.0782133"><ele>70.0</ele><time>2026-03-29T13:08:57.013Z</time></trkpt><trkpt lat="39.40071" lon="17.0782917"><ele>70.0</ele><time>2026-03-29T13:08:58.013Z</time></trkpt><trkpt lat="39.4007667" lon="17.0783567"><ele>70.0</ele><time>2026-03-29T13:08:59.012Z</time></trkpt><trkpt lat="39.4008317" lon="17.0784083"><ele>70.0</ele><time>2026-03-29T13:09:00.012Z</time></trkpt><trkpt lat="39.400905" lon="17.0784583"><ele>69.83333333333333</ele><time>2026-03-29T13:09:01.012Z</time></trkpt><trkpt lat="39.40099" lon="17.0785033"><ele>69.66666666666666</ele><time>2026-03-29T13:09:02.013Z</time></trkpt><trkpt lat="39.4010733" lon="17.0785367"><ele>69.5</ele><time>2026-03-29T13:09:03.012Z</time></trkpt><trkpt lat="39.4011483" lon="17.078575"><ele>69.33333333333333</ele><time>2026-03-29T13:09:04.013Z</time></trkpt><trkpt lat="39.401225" lon="17.0786267"><ele>69.16666666666667</ele><time>2026-03-29T13:09:05.013Z</time></trkpt><trkpt lat="39.4012983" lon="17.0786817"><ele>69.0</ele><time>2026-03-29T13:09:06.013Z</time></trkpt><trkpt lat="39.4013717" lon="17.0787383"><ele>69.0</ele><time>2026-03-29T13:09:07.012Z</time></trkpt><trkpt lat="39.40144" lon="17.0787883"><ele>69.0</ele><time>2026-03-29T13:09:08.012Z</time></trkpt><trkpt lat="39.4015067" lon="17.0788283"><ele>69.0</ele><time>2026-03-29T13:09:09.013Z</time></trkpt><trkpt lat="39.4015817" lon="17.07886"><ele>69.0</ele><time>2026-03-29T13:09:10.013Z</time></trkpt><trkpt lat="39.4016617" lon="17.078895"><ele>69.0</ele><time>2026-03-29T13:09:11.013Z</time></trkpt><trkpt lat="39.401745" lon="17.07893"><ele>69.0</ele><time>2026-03-29T13:09:12.013Z</time></trkpt><trkpt lat="39.40183" lon="17.0789683"><ele>69.0</ele><time>2026-03-29T13:09:13.013Z</time></trkpt><trkpt lat="39.4019117" lon="17.0790017"><ele>69.0</ele><time>2026-03-29T13:09:14.013Z</time></trkpt><trkpt lat="39.40199" lon="17.0790383"><ele>69.0</ele><time>2026-03-29T13:09:15.013Z</time></trkpt><trkpt lat="39.4020683" lon="17.079055"><ele>69.0</ele><time>2026-03-29T13:09:16.013Z</time></trkpt><trkpt lat="39.4021417" lon="17.07905"><ele>69.0</ele><time>2026-03-29T13:09:17.012Z</time></trkpt><trkpt lat="39.4022217" lon="17.07904"><ele>69.0</ele><time>2026-03-29T13:09:18.013Z</time></trkpt><trkpt lat="39.40231" lon="17.0790333"><ele>69.33333333333333</ele><time>2026-03-29T13:09:19.013Z</time></trkpt><trkpt lat="39.40239" lon="17.0790283"><ele>69.66666666666667</ele><time>2026-03-29T13:09:20.013Z</time></trkpt><trkpt lat="39.402475" lon="17.07905"><ele>70.0</ele><time>2026-03-29T13:09:21.013Z</time></trkpt><trkpt lat="39.4025533" lon="17.0790883"><ele>70.33333333333334</ele><time>2026-03-29T13:09:22.013Z</time></trkpt><trkpt lat="39.4026383" lon="17.0791317"><ele>70.66666666666667</ele><time>2026-03-29T13:09:23.013Z</time></trkpt><trkpt lat="39.4027183" lon="17.079185"><ele>71.0</ele><time>2026-03-29T13:09:24.012Z</time></trkpt><trkpt lat="39.4027833" lon="17.0792483"><ele>71.0</ele><time>2026-03-29T13:09:25.012Z</time></trkpt><trkpt lat="39.4028367" lon="17.0793017"><ele>71.0</ele><time>2026-03-29T13:09:26.013Z</time></trkpt><trkpt lat="39.4029067" lon="17.07938"><ele>71.0</ele><time>2026-03-29T13:09:28.013Z</time></trkpt><trkpt lat="39.4029633" lon="17.0794267"><ele>71.0</ele><time>2026-03-29T13:09:31.013Z</time></trkpt><trkpt lat="39.4030133" lon="17.0794767"><ele>71.0</ele><time>2026-03-29T13:09:34.013Z</time></trkpt><trkpt lat="39.4030717" lon="17.0795283"><ele>71.0</ele><time>2026-03-29T13:09:36.013Z</time></trkpt><trkpt lat="39.4031483" lon="17.0795983"><ele>70.0</ele><time>2026-03-29T13:09:38.013Z</time></trkpt><trkpt lat="39.40326" lon="17.0796633"><ele>69.0</ele><time>2026-03-29T13:09:40.013Z</time></trkpt><trkpt lat="39.4033217" lon="17.079695"><ele>68.0</ele><time>2026-03-29T13:09:41.013Z</time></trkpt><trkpt lat="39.4033883" lon="17.0797217"><ele>67.0</ele><time>2026-03-29T13:09:42.013Z</time></trkpt><trkpt lat="39.403455" lon="17.0797517"><ele>66.0</ele><time>2026-03-29T13:09:43.013Z</time></trkpt><trkpt lat="39.4035233" lon="17.0797817"><ele>65.0</ele><time>2026-03-29T13:09:44.013Z</time></trkpt><trkpt lat="39.4035933" lon="17.0798117"><ele>65.00000000000001</ele><time>2026-03-29T13:09:45.013Z</time></trkpt><trkpt lat="39.4036533" lon="17.07984"><ele>65.0</ele><time>2026-03-29T13:09:46.013Z</time></trkpt><trkpt lat="39.403715" lon="17.079875"><ele>65.0</ele><time>2026-03-29T13:09:47.013Z</time></trkpt><trkpt lat="39.4037833" lon="17.0799167"><ele>65.0</ele><time>2026-03-29T13:09:48.013Z</time></trkpt><trkpt lat="39.403845" lon="17.0799533"><ele>65.0</ele><time>2026-03-29T13:09:49.013Z</time></trkpt><trkpt lat="39.4039167" lon="17.0799867"><ele>65.00000000000001</ele><time>2026-03-29T13:09:51.013Z</time></trkpt><trkpt lat="39.4039867" lon="17.08003"><ele>65.0</ele><time>2026-03-29T13:09:55.013Z</time></trkpt><trkpt lat="39.4040483" lon="17.080055"><ele>64.16666666666667</ele><time>2026-03-29T13:09:58.013Z</time></trkpt><trkpt lat="39.40413" lon="17.0800733"><ele>63.333333333333336</ele><time>2026-03-29T13:10:02.013Z</time></trkpt><trkpt lat="39.4041967" lon="17.0800883"><ele>62.5</ele><time>2026-03-29T13:10:04.013Z</time></trkpt><trkpt lat="39.40429" lon="17.0800917"><ele>61.66666666666667</ele><time>2026-03-29T13:10:06.013Z</time></trkpt><trkpt lat="39.4043767" lon="17.0800733"><ele>60.833333333333336</ele><time>2026-03-29T13:10:08.013Z</time></trkpt><trkpt lat="39.4044683" lon="17.0800517"><ele>60.0</ele><time>2026-03-29T13:10:10.013Z</time></trkpt><trkpt lat="39.4045683" lon="17.0800333"><ele>59.5</ele><time>2026-03-29T13:10:12.013Z</time></trkpt><trkpt lat="39.40467" lon="17.08002"><ele>59.0</ele><time>2026-03-29T13:10:14.013Z</time></trkpt><trkpt lat="39.4047467" lon="17.0800133"><ele>58.5</ele><time>2026-03-29T13:10:16.012Z</time></trkpt><trkpt lat="39.4048183" lon="17.0800217"><ele>58.0</ele><time>2026-03-29T13:10:19.013Z</time></trkpt><trkpt lat="39.40489" lon="17.08003"><ele>57.5</ele><time>2026-03-29T13:10:21.013Z</time></trkpt><trkpt lat="39.4049717" lon="17.080055"><ele>57.0</ele><time>2026-03-29T13:10:23.012Z</time></trkpt><trkpt lat="39.4050633" lon="17.08008"><ele>57.0</ele><time>2026-03-29T13:10:25.013Z</time></trkpt><trkpt lat="39.4051733" lon="17.080145"><ele>57.0</ele><time>2026-03-29T13:10:27.013Z</time></trkpt><trkpt lat="39.4052317" lon="17.0801917"><ele>57.0</ele><time>2026-03-29T13:10:28.013Z</time></trkpt><trkpt lat="39.40529" lon="17.0802467"><ele>57.0</ele><time>2026-03-29T13:10:29.012Z</time></trkpt><trkpt lat="39.4053617" lon="17.080295"><ele>57.0</ele><time>2026-03-29T13:10:30.013Z</time></trkpt><trkpt lat="39.405425" lon="17.0803483"><ele>57.0</ele><time>2026-03-29T13:10:31.013Z</time></trkpt><trkpt lat="39.40549" lon="17.080415"><ele>57.166666666666664</ele><time>2026-03-29T13:10:32.013Z</time></trkpt><trkpt lat="39.405555" lon="17.080485"><ele>57.33333333333333</ele><time>2026-03-29T13:10:33.013Z</time></trkpt><trkpt lat="39.405625" lon="17.0805583"><ele>57.5</ele><time>2026-03-29T13:10:34.013Z</time></trkpt><trkpt lat="39.4056933" lon="17.0806267"><ele>57.666666666666664</ele><time>2026-03-29T13:10:35.013Z</time></trkpt><trkpt lat="39.4057467" lon="17.0806917"><ele>57.83333333333333</ele><time>2026-03-29T13:10:36.013Z</time></trkpt><trkpt lat="39.4057933" lon="17.0807567"><ele>58.0</ele><time>2026-03-29T13:10:37.013Z</time></trkpt><trkpt lat="39.4058417" lon="17.0808267"><ele>57.99999999999999</ele><time>2026-03-29T13:10:38.013Z</time></trkpt><trkpt lat="39.405895" lon="17.0809117"><ele>58.0</ele><time>2026-03-29T13:10:39.012Z</time></trkpt><trkpt lat="39.4059467" lon="17.0809967"><ele>58.0</ele><time>2026-03-29T13:10:40.013Z</time></trkpt><trkpt lat="39.406" lon="17.08109"><ele>58.0</ele><time>2026-03-29T13:10:41.013Z</time></trkpt><trkpt lat="39.406065" lon="17.0811717"><ele>57.99999999999999</ele><time>2026-03-29T13:10:42.013Z</time></trkpt><trkpt lat="39.406135" lon="17.0812467"><ele>58.0</ele><time>2026-03-29T13:10:43.013Z</time></trkpt><trkpt lat="39.4062133" lon="17.0812967"><ele>57.99999999999999</ele><time>2026-03-29T13:10:44.013Z</time></trkpt><trkpt lat="39.4062967" lon="17.0813533"><ele>58.0</ele><time>2026-03-29T13:10:45.012Z</time></trkpt><trkpt lat="39.406375" lon="17.08141"><ele>58.0</ele><time>2026-03-29T13:10:46.013Z</time></trkpt><trkpt lat="39.40645" lon="17.081475"><ele>58.0</ele><time>2026-03-29T13:10:47.013Z</time></trkpt><trkpt lat="39.40652" lon="17.0815317"><ele>57.99999999999999</ele><time>2026-03-29T13:10:48.013Z</time></trkpt><trkpt lat="39.40659" lon="17.0815817"><ele>58.0</ele><time>2026-03-29T13:10:49.013Z</time></trkpt><trkpt lat="39.4066483" lon="17.08163"><ele>58.166666666666664</ele><time>2026-03-29T13:10:50.013Z</time></trkpt><trkpt lat="39.406715" lon="17.0816733"><ele>58.33333333333333</ele><time>2026-03-29T13:10:51.013Z</time></trkpt><trkpt lat="39.406785" lon="17.0817183"><ele>58.5</ele><time>2026-03-29T13:10:52.012Z</time></trkpt><trkpt lat="39.4068667" lon="17.0817617"><ele>58.66666666666667</ele><time>2026-03-29T13:10:53.013Z</time></trkpt><trkpt lat="39.4069483" lon="17.08181"><ele>58.833333333333336</ele><time>2026-03-29T13:10:54.013Z</time></trkpt><trkpt lat="39.4070367" lon="17.0818533"><ele>59.0</ele><time>2026-03-29T13:10:55.013Z</time></trkpt><trkpt lat="39.4071233" lon="17.0818917"><ele>59.400000000000006</ele><time>2026-03-29T13:10:56.012Z</time></trkpt><trkpt lat="39.4072167" lon="17.0819283"><ele>59.800000000000004</ele><time>2026-03-29T13:10:57.013Z</time></trkpt><trkpt lat="39.4073133" lon="17.0819683"><ele>60.199999999999996</ele><time>2026-03-29T13:10:58.013Z</time></trkpt><trkpt lat="39.4074017" lon="17.08201"><ele>60.599999999999994</ele><time>2026-03-29T13:10:59.012Z</time></trkpt><trkpt lat="39.40749" lon="17.0820483"><ele>61.0</ele><time>2026-03-29T13:11:00.013Z</time></trkpt><trkpt lat="39.4075817" lon="17.0820833"><ele>61.0</ele><time>2026-03-29T13:11:01.012Z</time></trkpt><trkpt lat="39.4076717" lon="17.0821233"><ele>60.99999999999999</ele><time>2026-03-29T13:11:02.012Z</time></trkpt><trkpt lat="39.4077567" lon="17.082175"><ele>60.99999999999999</ele><time>2026-03-29T13:11:03.012Z</time></trkpt><trkpt lat="39.4078317" lon="17.0822233"><ele>61.0</ele><time>2026-03-29T13:11:04.013Z</time></trkpt><trkpt lat="39.4079083" lon="17.0822817"><ele>61.0</ele><time>2026-03-29T13:11:05.012Z</time></trkpt><trkpt lat="39.4079817" lon="17.08235"><ele>60.83333333333333</ele><time>2026-03-29T13:11:06.012Z</time></trkpt><trkpt lat="39.4080617" lon="17.0824183"><ele>60.666666666666664</ele><time>2026-03-29T13:11:07.013Z</time></trkpt><trkpt lat="39.4081317" lon="17.082475"><ele>60.5</ele><time>2026-03-29T13:11:08.013Z</time></trkpt><trkpt lat="39.4082033" lon="17.08254"><ele>60.33333333333333</ele><time>2026-03-29T13:11:09.013Z</time></trkpt><trkpt lat="39.4082717" lon="17.0826083"><ele>60.166666666666664</ele><time>2026-03-29T13:11:10.013Z</time></trkpt><trkpt lat="39.40834" lon="17.0826717"><ele>60.0</ele><time>2026-03-29T13:11:11.012Z</time></trkpt><trkpt lat="39.408405" lon="17.082735"><ele>60.0</ele><time>2026-03-29T13:11:12.013Z</time></trkpt><trkpt lat="39.40848" lon="17.0827933"><ele>60.0</ele><time>2026-03-29T13:11:13.013Z</time></trkpt><trkpt lat="39.4085567" lon="17.0828617"><ele>60.0</ele><time>2026-03-29T13:11:14.013Z</time></trkpt><trkpt lat="39.4086267" lon="17.0829267"><ele>60.0</ele><time>2026-03-29T13:11:15.013Z</time></trkpt><trkpt lat="39.4086983" lon="17.0829933"><ele>60.0</ele><time>2026-03-29T13:11:16.013Z</time></trkpt><trkpt lat="39.4087667" lon="17.0830583"><ele>60.0</ele><time>2026-03-29T13:11:17.012Z</time></trkpt><trkpt lat="39.4088367" lon="17.0831217"><ele>59.666666666666664</ele><time>2026-03-29T13:11:18.013Z</time></trkpt><trkpt lat="39.4089017" lon="17.0831783"><ele>59.33333333333333</ele><time>2026-03-29T13:11:19.013Z</time></trkpt><trkpt lat="39.40897" lon="17.0832417"><ele>59.0</ele><time>2026-03-29T13:11:20.013Z</time></trkpt><trkpt lat="39.4090433" lon="17.0832983"><ele>58.666666666666664</ele><time>2026-03-29T13:11:21.013Z</time></trkpt><trkpt lat="39.409125" lon="17.083355"><ele>58.33333333333333</ele><time>2026-03-29T13:11:22.013Z</time></trkpt><trkpt lat="39.4092067" lon="17.0834217"><ele>58.0</ele><time>2026-03-29T13:11:23.013Z</time></trkpt><trkpt lat="39.409295" lon="17.0834867"><ele>57.99999999999999</ele><time>2026-03-29T13:11:24.013Z</time></trkpt><trkpt lat="39.4093817" lon="17.0835483"><ele>58.0</ele><time>2026-03-29T13:11:25.013Z</time></trkpt><trkpt lat="39.4094583" lon="17.083615"><ele>58.0</ele><time>2026-03-29T13:11:26.013Z</time></trkpt><trkpt lat="39.40953" lon="17.083675"><ele>58.0</ele><time>2026-03-29T13:11:27.013Z</time></trkpt><trkpt lat="39.4096033" lon="17.083725"><ele>57.99999999999999</ele><time>2026-03-29T13:11:28.013Z</time></trkpt><trkpt lat="39.40967" lon="17.083795"><ele>58.0</ele><time>2026-03-29T13:11:29.012Z</time></trkpt><trkpt lat="39.4097333" lon="17.0838783"><ele>58.0</ele><time>2026-03-29T13:11:30.013Z</time></trkpt><trkpt lat="39.4097783" lon="17.0839783"><ele>58.0</ele><time>2026-03-29T13:11:31.013Z</time></trkpt><trkpt lat="39.4098083" lon="17.0840917"><ele>58.0</ele><time>2026-03-29T13:11:32.012Z</time></trkpt><trkpt lat="39.4098317" lon="17.0842133"><ele>58.0</ele><time>2026-03-29T13:11:33.013Z</time></trkpt><trkpt lat="39.4098583" lon="17.084335"><ele>58.0</ele><time>2026-03-29T13:11:34.012Z</time></trkpt><trkpt lat="39.4098833" lon="17.0844567"><ele>57.99999999999999</ele><time>2026-03-29T13:11:35.013Z</time></trkpt><trkpt lat="39.409915" lon="17.0845783"><ele>58.0</ele><time>2026-03-29T13:11:36.013Z</time></trkpt><trkpt lat="39.4099517" lon="17.0846783"><ele>58.0</ele><time>2026-03-29T13:11:37.013Z</time></trkpt><trkpt lat="39.409985" lon="17.0847717"><ele>58.0</ele><time>2026-03-29T13:11:38.013Z</time></trkpt><trkpt lat="39.4100183" lon="17.0848633"><ele>57.99999999999999</ele><time>2026-03-29T13:11:39.013Z</time></trkpt><trkpt lat="39.41005" lon="17.0849417"><ele>58.0</ele><time>2026-03-29T13:11:40.013Z</time></trkpt><trkpt lat="39.4100867" lon="17.085025"><ele>57.599999999999994</ele><time>2026-03-29T13:11:41.013Z</time></trkpt><trkpt lat="39.4101233" lon="17.0851183"><ele>57.199999999999996</ele><time>2026-03-29T13:11:42.013Z</time></trkpt><trkpt lat="39.4101567" lon="17.0852267"><ele>56.8</ele><time>2026-03-29T13:11:43.013Z</time></trkpt><trkpt lat="39.4101867" lon="17.0853317"><ele>56.4</ele><time>2026-03-29T13:11:44.013Z</time></trkpt><trkpt lat="39.4102133" lon="17.085455"><ele>56.0</ele><time>2026-03-29T13:11:45.013Z</time></trkpt><trkpt lat="39.4102367" lon="17.0855867"><ele>56.0</ele><time>2026-03-29T13:11:46.013Z</time></trkpt><trkpt lat="39.41026" lon="17.08572"><ele>55.99999999999999</ele><time>2026-03-29T13:11:47.013Z</time></trkpt><trkpt lat="39.41027" lon="17.0858467"><ele>55.99999999999999</ele><time>2026-03-29T13:11:48.013Z</time></trkpt><trkpt lat="39.410285" lon="17.0859833"><ele>56.0</ele><time>2026-03-29T13:11:49.013Z</time></trkpt><trkpt lat="39.4103033" lon="17.0861217"><ele>56.0</ele><time>2026-03-29T13:11:50.013Z</time></trkpt><trkpt lat="39.4103233" lon="17.086265"><ele>55.599999999999994</ele><time>2026-03-29T13:11:51.013Z</time></trkpt><trkpt lat="39.4103467" lon="17.0864033"><ele>55.199999999999996</ele><time>2026-03-29T13:11:52.013Z</time></trkpt><trkpt lat="39.4103683" lon="17.086535"><ele>54.800000000000004</ele><time>2026-03-29T13:11:53.013Z</time></trkpt><trkpt lat="39.4103967" lon="17.0866733"><ele>54.400000000000006</ele><time>2026-03-29T13:11:54.013Z</time></trkpt><trkpt lat="39.410415" lon="17.0868083"><ele>54.0</ele><time>2026-03-29T13:11:55.013Z</time></trkpt><trkpt lat="39.4104417" lon="17.08694"><ele>54.0</ele><time>2026-03-29T13:11:56.012Z</time></trkpt><trkpt lat="39.4104717" lon="17.08706"><ele>54.00000000000001</ele><time>2026-03-29T13:11:57.013Z</time></trkpt><trkpt lat="39.4105067" lon="17.0871783"><ele>54.00000000000001</ele><time>2026-03-29T13:11:58.012Z</time></trkpt><trkpt lat="39.4105367" lon="17.087295"><ele>54.0</ele><time>2026-03-29T13:11:59.013Z</time></trkpt><trkpt lat="39.41057" lon="17.0874183"><ele>54.0</ele><time>2026-03-29T13:12:00.013Z</time></trkpt><trkpt lat="39.410605" lon="17.0875417"><ele>53.2</ele><time>2026-03-29T13:12:01.013Z</time></trkpt><trkpt lat="39.4106383" lon="17.087655"><ele>52.400000000000006</ele><time>2026-03-29T13:12:02.012Z</time></trkpt><trkpt lat="39.41067" lon="17.0877783"><ele>51.6</ele><time>2026-03-29T13:12:03.013Z</time></trkpt><trkpt lat="39.4106967" lon="17.0879067"><ele>50.8</ele><time>2026-03-29T13:12:04.013Z</time></trkpt><trkpt lat="39.41072" lon="17.0880367"><ele>50.0</ele><time>2026-03-29T13:12:05.013Z</time></trkpt><trkpt lat="39.4107467" lon="17.0881617"><ele>49.6</ele><time>2026-03-29T13:12:06.013Z</time></trkpt><trkpt lat="39.4107833" lon="17.088285"><ele>49.2</ele><time>2026-03-29T13:12:07.013Z</time></trkpt><trkpt lat="39.410825" lon="17.088405"><ele>48.8</ele><time>2026-03-29T13:12:08.012Z</time></trkpt><trkpt lat="39.4108667" lon="17.088525"><ele>48.4</ele><time>2026-03-29T13:12:09.013Z</time></trkpt><trkpt lat="39.4109083" lon="17.0886517"><ele>48.0</ele><time>2026-03-29T13:12:10.012Z</time></trkpt><trkpt lat="39.4109483" lon="17.0887717"><ele>48.0</ele><time>2026-03-29T13:12:11.013Z</time></trkpt><trkpt lat="39.4109883" lon="17.0888783"><ele>48.0</ele><time>2026-03-29T13:12:12.013Z</time></trkpt><trkpt lat="39.4110267" lon="17.0889717"><ele>48.0</ele><time>2026-03-29T13:12:13.013Z</time></trkpt><trkpt lat="39.4110633" lon="17.0890383"><ele>48.0</ele><time>2026-03-29T13:12:14.013Z</time></trkpt><trkpt lat="39.4111133" lon="17.0891183"><ele>48.0</ele><time>2026-03-29T13:12:38.013Z</time></trkpt><trkpt lat="39.4111517" lon="17.0892317"><ele>48.0</ele><time>2026-03-29T13:12:40.013Z</time></trkpt><trkpt lat="39.411205" lon="17.0893617"><ele>47.2</ele><time>2026-03-29T13:12:42.012Z</time></trkpt><trkpt lat="39.411245" lon="17.0894267"><ele>46.4</ele><time>2026-03-29T13:12:43.013Z</time></trkpt><trkpt lat="39.4113267" lon="17.0895533"><ele>45.6</ele><time>2026-03-29T13:12:45.013Z</time></trkpt><trkpt lat="39.4113983" lon="17.0896733"><ele>44.800000000000004</ele><time>2026-03-29T13:12:47.013Z</time></trkpt><trkpt lat="39.4114633" lon="17.08981"><ele>44.0</ele><time>2026-03-29T13:12:49.013Z</time></trkpt><trkpt lat="39.41152" lon="17.0899583"><ele>42.33333333333333</ele><time>2026-03-29T13:12:51.013Z</time></trkpt><trkpt lat="39.4115433" lon="17.09004"><ele>40.666666666666664</ele><time>2026-03-29T13:12:52.013Z</time></trkpt><trkpt lat="39.4115683" lon="17.09013"><ele>39.0</ele><time>2026-03-29T13:12:53.013Z</time></trkpt><trkpt lat="39.4115933" lon="17.090225"><ele>37.333333333333336</ele><time>2026-03-29T13:12:54.013Z</time></trkpt><trkpt lat="39.41162" lon="17.09032"><ele>35.66666666666667</ele><time>2026-03-29T13:12:55.013Z</time></trkpt><trkpt lat="39.41164" lon="17.090425"><ele>34.0</ele><time>2026-03-29T13:12:56.013Z</time></trkpt><trkpt lat="39.41167" lon="17.0905283"><ele>34.0</ele><time>2026-03-29T13:12:57.013Z</time></trkpt><trkpt lat="39.4117017" lon="17.090635"><ele>34.0</ele><time>2026-03-29T13:12:58.013Z</time></trkpt><trkpt lat="39.4117283" lon="17.0907433"><ele>34.0</ele><time>2026-03-29T13:12:59.013Z</time></trkpt><trkpt lat="39.4117617" lon="17.0908533"><ele>34.0</ele><time>2026-03-29T13:13:00.013Z</time></trkpt><trkpt lat="39.4117833" lon="17.0909617"><ele>34.0</ele><time>2026-03-29T13:13:01.013Z</time></trkpt><trkpt lat="39.4118117" lon="17.0910767"><ele>34.0</ele><time>2026-03-29T13:13:02.012Z</time></trkpt><trkpt lat="39.4118433" lon="17.0911883"><ele>32.333333333333336</ele><time>2026-03-29T13:13:03.012Z</time></trkpt><trkpt lat="39.4118733" lon="17.0913017"><ele>30.666666666666668</ele><time>2026-03-29T13:13:04.013Z</time></trkpt><trkpt lat="39.4118983" lon="17.0914183"><ele>29.0</ele><time>2026-03-29T13:13:05.012Z</time></trkpt><trkpt lat="39.4119117" lon="17.0915317"><ele>27.333333333333336</ele><time>2026-03-29T13:13:06.013Z</time></trkpt><trkpt lat="39.4119183" lon="17.09164"><ele>25.666666666666668</ele><time>2026-03-29T13:13:07.013Z</time></trkpt><trkpt lat="39.4119217" lon="17.09174"><ele>24.0</ele><time>2026-03-29T13:13:08.013Z</time></trkpt><trkpt lat="39.4119183" lon="17.0918267"><ele>22.599999999999998</ele><time>2026-03-29T13:13:09.013Z</time></trkpt><trkpt lat="39.4118817" lon="17.0919517"><ele>21.2</ele><time>2026-03-29T13:13:11.013Z</time></trkpt><trkpt lat="39.41182" lon="17.0920467"><ele>19.799999999999997</ele><time>2026-03-29T13:13:13.013Z</time></trkpt><trkpt lat="39.4117883" lon="17.0921567"><ele>18.4</ele><time>2026-03-29T13:13:15.013Z</time></trkpt><trkpt lat="39.4118267" lon="17.0922967"><ele>17.0</ele><time>2026-03-29T13:13:17.013Z</time></trkpt><trkpt lat="39.4118633" lon="17.092385"><ele>16.0</ele><time>2026-03-29T13:13:18.012Z</time></trkpt><trkpt lat="39.4119067" lon="17.0924783"><ele>15.0</ele><time>2026-03-29T13:13:19.013Z</time></trkpt><trkpt lat="39.41194" lon="17.0925833"><ele>14.0</ele><time>2026-03-29T13:13:20.012Z</time></trkpt><trkpt lat="39.4119617" lon="17.09269"><ele>13.0</ele><time>2026-03-29T13:13:21.013Z</time></trkpt><trkpt lat="39.41197" lon="17.092795"><ele>12.0</ele><time>2026-03-29T13:13:22.013Z</time></trkpt><trkpt lat="39.4119717" lon="17.0929017"><ele>11.0</ele><time>2026-03-29T13:13:23.013Z</time></trkpt><trkpt lat="39.4119617" lon="17.0930117"><ele>11.0</ele><time>2026-03-29T13:13:24.013Z</time></trkpt><trkpt lat="39.4119433" lon="17.0931217"><ele>11.0</ele><time>2026-03-29T13:13:25.013Z</time></trkpt><trkpt lat="39.4119283" lon="17.0932333"><ele>11.0</ele><time>2026-03-29T13:13:26.013Z</time></trkpt><trkpt lat="39.4119183" lon="17.0933633"><ele>11.0</ele><time>2026-03-29T13:13:28.013Z</time></trkpt><trkpt lat="39.41186" lon="17.0934067"><ele>11.0</ele><time>2026-03-29T13:13:31.013Z</time></trkpt><trkpt lat="39.4117817" lon="17.0933983"><ele>11.0</ele><time>2026-03-29T13:13:33.013Z</time></trkpt><trkpt lat="39.4116633" lon="17.0933783"><ele>10.571428571428571</ele><time>2026-03-29T13:13:35.012Z</time></trkpt><trkpt lat="39.411595" lon="17.0933833"><ele>10.142857142857142</ele><time>2026-03-29T13:13:36.012Z</time></trkpt><trkpt lat="39.4115267" lon="17.0933983"><ele>9.714285714285714</ele><time>2026-03-29T13:13:37.012Z</time></trkpt><trkpt lat="39.4114583" lon="17.0934183"><ele>9.285714285714285</ele><time>2026-03-29T13:13:38.012Z</time></trkpt><trkpt lat="39.4113867" lon="17.0934367"><ele>8.857142857142856</ele><time>2026-03-29T13:13:39.012Z</time></trkpt><trkpt lat="39.4113117" lon="17.0934567"><ele>8.428571428571429</ele><time>2026-03-29T13:13:40.011Z</time></trkpt><trkpt lat="39.41124" lon="17.09347"><ele>8.0</ele><time>2026-03-29T13:13:41.012Z</time></trkpt><trkpt lat="39.411165" lon="17.0934717"><ele>7.857142857142857</ele><time>2026-03-29T13:13:42.012Z</time></trkpt><trkpt lat="39.4110983" lon="17.09346"><ele>7.7142857142857135</ele><time>2026-03-29T13:13:43.012Z</time></trkpt><trkpt lat="39.4110283" lon="17.0934383"><ele>7.571428571428571</ele><time>2026-03-29T13:13:44.012Z</time></trkpt><trkpt lat="39.4109517" lon="17.093425"><ele>7.428571428571429</ele><time>2026-03-29T13:13:45.012Z</time></trkpt><trkpt lat="39.4108733" lon="17.0934117"><ele>7.285714285714286</ele><time>2026-03-29T13:13:46.012Z</time></trkpt><trkpt lat="39.4108033" lon="17.0934017"><ele>7.142857142857142</ele><time>2026-03-29T13:13:47.012Z</time></trkpt><trkpt lat="39.410735" lon="17.0934"><ele>7.0</ele><time>2026-03-29T13:13:48.012Z</time></trkpt><trkpt lat="39.4106717" lon="17.0934133"><ele>7.0</ele><time>2026-03-29T13:13:49.012Z</time></trkpt><trkpt lat="39.4106017" lon="17.0934317"><ele>6.999999999999999</ele><time>2026-03-29T13:13:50.012Z</time></trkpt><trkpt lat="39.4105417" lon="17.0934583"><ele>6.999999999999999</ele><time>2026-03-29T13:13:51.011Z</time></trkpt><trkpt lat="39.410435" lon="17.0935133"><ele>7.0</ele><time>2026-03-29T13:13:53.012Z</time></trkpt><trkpt lat="39.410315" lon="17.0935567"><ele>7.0</ele><time>2026-03-29T13:13:55.012Z</time></trkpt><trkpt lat="39.4102117" lon="17.0936183"><ele>7.6</ele><time>2026-03-29T13:13:57.011Z</time></trkpt><trkpt lat="39.4101717" lon="17.09371"><ele>8.2</ele><time>2026-03-29T13:13:59.012Z</time></trkpt><trkpt lat="39.410195" lon="17.0938067"><ele>8.8</ele><time>2026-03-29T13:14:01.012Z</time></trkpt><trkpt lat="39.4102217" lon="17.0939417"><ele>9.4</ele><time>2026-03-29T13:14:03.012Z</time></trkpt><trkpt lat="39.4101933" lon="17.094075"><ele>10.0</ele><time>2026-03-29T13:14:05.011Z</time></trkpt><trkpt lat="39.410095" lon="17.0941267"><ele>10.0</ele><time>2026-03-29T13:14:07.012Z</time></trkpt><trkpt lat="39.40998" lon="17.09415"><ele>10.0</ele><time>2026-03-29T13:14:09.012Z</time></trkpt><trkpt lat="39.4099133" lon="17.09421"><ele>10.0</ele><time>2026-03-29T13:14:11.011Z</time></trkpt><trkpt lat="39.4098833" lon="17.0942817"><ele>10.0</ele><time>2026-03-29T13:14:13.012Z</time></trkpt><trkpt lat="39.4098183" lon="17.0943067"><ele>10.0</ele><time>2026-03-29T13:14:15.012Z</time></trkpt><trkpt lat="39.4097367" lon="17.0942983"><ele>10.0</ele><time>2026-03-29T13:14:17.012Z</time></trkpt><trkpt lat="39.4096667" lon="17.0942967"><ele>9.833333333333334</ele><time>2026-03-29T13:14:19.012Z</time></trkpt><trkpt lat="39.4095933" lon="17.09432"><ele>9.666666666666668</ele><time>2026-03-29T13:14:21.012Z</time></trkpt><trkpt lat="39.409525" lon="17.0943317"><ele>9.5</ele><time>2026-03-29T13:14:23.012Z</time></trkpt><trkpt lat="39.4094433" lon="17.0943183"><ele>9.333333333333334</ele><time>2026-03-29T13:14:25.012Z</time></trkpt><trkpt lat="39.4093567" lon="17.094275"><ele>9.166666666666666</ele><time>2026-03-29T13:14:27.012Z</time></trkpt><trkpt lat="39.4092683" lon="17.0942167"><ele>9.0</ele><time>2026-03-29T13:14:29.011Z</time></trkpt><trkpt lat="39.4091933" lon="17.0941617"><ele>9.0</ele><time>2026-03-29T13:14:31.012Z</time></trkpt><trkpt lat="39.409135" lon="17.0941033"><ele>9.0</ele><time>2026-03-29T13:14:33.012Z</time></trkpt><trkpt lat="39.4090717" lon="17.094045"><ele>9.0</ele><time>2026-03-29T13:14:35.012Z</time></trkpt><trkpt lat="39.4089983" lon="17.0939783"><ele>9.0</ele><time>2026-03-29T13:14:37.012Z</time></trkpt><trkpt lat="39.4089017" lon="17.0939283"><ele>9.0</ele><time>2026-03-29T13:14:39.012Z</time></trkpt><trkpt lat="39.4087817" lon="17.09389"><ele>9.5</ele><time>2026-03-29T13:14:41.012Z</time></trkpt><trkpt lat="39.4086683" lon="17.0938833"><ele>10.0</ele><time>2026-03-29T13:14:43.011Z</time></trkpt><trkpt lat="39.4086033" lon="17.0938917"><ele>10.5</ele><time>2026-03-29T13:14:44.012Z</time></trkpt><trkpt lat="39.4085383" lon="17.09389"><ele>11.0</ele><time>2026-03-29T13:14:45.012Z</time></trkpt><trkpt lat="39.40847" lon="17.0938967"><ele>11.5</ele><time>2026-03-29T13:14:46.012Z</time></trkpt><trkpt lat="39.4083983" lon="17.09389"><ele>12.0</ele><time>2026-03-29T13:14:47.012Z</time></trkpt><trkpt lat="39.408315" lon="17.0938867"><ele>12.0</ele><time>2026-03-29T13:14:48.012Z</time></trkpt><trkpt lat="39.4082317" lon="17.0939017"><ele>12.0</ele><time>2026-03-29T13:14:49.012Z</time></trkpt><trkpt lat="39.4081467" lon="17.0939317"><ele>12.0</ele><time>2026-03-29T13:14:50.012Z</time></trkpt><trkpt lat="39.4080633" lon="17.0939733"><ele>12.0</ele><time>2026-03-29T13:14:51.012Z</time></trkpt><trkpt lat="39.4079933" lon="17.0940117"><ele>12.0</ele><time>2026-03-29T13:14:52.012Z</time></trkpt><trkpt lat="39.4079267" lon="17.0940467"><ele>12.0</ele><time>2026-03-29T13:14:53.012Z</time></trkpt><trkpt lat="39.4078683" lon="17.0940917"><ele>12.0</ele><time>2026-03-29T13:14:54.012Z</time></trkpt><trkpt lat="39.4078133" lon="17.0941417"><ele>12.0</ele><time>2026-03-29T13:14:55.012Z</time></trkpt><trkpt lat="39.4077283" lon="17.0942317"><ele>12.0</ele><time>2026-03-29T13:14:57.012Z</time></trkpt><trkpt lat="39.4076333" lon="17.094325"><ele>12.0</ele><time>2026-03-29T13:14:59.012Z</time></trkpt><trkpt lat="39.4075767" lon="17.0943667"><ele>12.0</ele><time>2026-03-29T13:15:00.012Z</time></trkpt><trkpt lat="39.4074817" lon="17.09445"><ele>12.0</ele><time>2026-03-29T13:15:02.012Z</time></trkpt><trkpt lat="39.40739" lon="17.0945433"><ele>12.0</ele><time>2026-03-29T13:15:04.011Z</time></trkpt><trkpt lat="39.407315" lon="17.0946283"><ele>12.0</ele><time>2026-03-29T13:15:06.012Z</time></trkpt><trkpt lat="39.4072533" lon="17.0946933"><ele>12.0</ele><time>2026-03-29T13:15:08.012Z</time></trkpt><trkpt lat="39.4071883" lon="17.0947717"><ele>12.0</ele><time>2026-03-29T13:15:10.012Z</time></trkpt><trkpt lat="39.40711" lon="17.0948617"><ele>12.166666666666666</ele><time>2026-03-29T13:15:12.012Z</time></trkpt><trkpt lat="39.4070467" lon="17.0949083"><ele>12.333333333333332</ele><time>2026-03-29T13:15:14.012Z</time></trkpt><trkpt lat="39.4069633" lon="17.0949583"><ele>12.5</ele><time>2026-03-29T13:15:16.011Z</time></trkpt><trkpt lat="39.406905" lon="17.094995"><ele>12.666666666666666</ele><time>2026-03-29T13:15:17.012Z</time></trkpt><trkpt lat="39.40684" lon="17.09503"><ele>12.833333333333332</ele><time>2026-03-29T13:15:18.012Z</time></trkpt><trkpt lat="39.40677" lon="17.095055"><ele>13.0</ele><time>2026-03-29T13:15:19.011Z</time></trkpt><trkpt lat="39.40669" lon="17.0950733"><ele>12.999999999999998</ele><time>2026-03-29T13:15:20.012Z</time></trkpt><trkpt lat="39.4066067" lon="17.0950867"><ele>13.0</ele><time>2026-03-29T13:15:21.012Z</time></trkpt><trkpt lat="39.40653" lon="17.0951067"><ele>13.0</ele><time>2026-03-29T13:15:22.012Z</time></trkpt><trkpt lat="39.40644" lon="17.0951233"><ele>13.0</ele><time>2026-03-29T13:15:23.012Z</time></trkpt><trkpt lat="39.406355" lon="17.0951317"><ele>12.999999999999998</ele><time>2026-03-29T13:15:24.011Z</time></trkpt><trkpt lat="39.40628" lon="17.0951417"><ele>13.0</ele><time>2026-03-29T13:15:25.012Z</time></trkpt><trkpt lat="39.4061633" lon="17.0951767"><ele>13.4</ele><time>2026-03-29T13:15:27.012Z</time></trkpt><trkpt lat="39.4060583" lon="17.09522"><ele>13.8</ele><time>2026-03-29T13:15:29.011Z</time></trkpt><trkpt lat="39.4059683" lon="17.0952817"><ele>14.2</ele><time>2026-03-29T13:15:31.012Z</time></trkpt><trkpt lat="39.40591" lon="17.0953417"><ele>14.6</ele><time>2026-03-29T13:15:33.012Z</time></trkpt><trkpt lat="39.4058617" lon="17.0954183"><ele>15.0</ele><time>2026-03-29T13:15:35.012Z</time></trkpt><trkpt lat="39.4057983" lon="17.0955533"><ele>15.0</ele><time>2026-03-29T13:15:37.012Z</time></trkpt><trkpt lat="39.4057633" lon="17.0956367"><ele>15.0</ele><time>2026-03-29T13:15:38.012Z</time></trkpt><trkpt lat="39.4057217" lon="17.0957117"><ele>15.0</ele><time>2026-03-29T13:15:39.012Z</time></trkpt><trkpt lat="39.4056783" lon="17.0957817"><ele>15.0</ele><time>2026-03-29T13:15:40.012Z</time></trkpt><trkpt lat="39.40563" lon="17.09585"><ele>15.0</ele><time>2026-03-29T13:15:41.011Z</time></trkpt><trkpt lat="39.40558" lon="17.0959217"><ele>15.0</ele><time>2026-03-29T13:15:42.012Z</time></trkpt><trkpt lat="39.405515" lon="17.095995"><ele>15.0</ele><time>2026-03-29T13:15:43.012Z</time></trkpt><trkpt lat="39.4054683" lon="17.096085"><ele>14.857142857142858</ele><time>2026-03-29T13:15:44.012Z</time></trkpt><trkpt lat="39.405425" lon="17.09617"><ele>14.714285714285714</ele><time>2026-03-29T13:15:45.012Z</time></trkpt><trkpt lat="39.4053733" lon="17.0962367"><ele>14.571428571428571</ele><time>2026-03-29T13:15:46.012Z</time></trkpt><trkpt lat="39.405315" lon="17.0962917"><ele>14.428571428571429</ele><time>2026-03-29T13:15:47.012Z</time></trkpt><trkpt lat="39.4052583" lon="17.0963433"><ele>14.285714285714285</ele><time>2026-03-29T13:15:48.012Z</time></trkpt><trkpt lat="39.4052017" lon="17.0963933"><ele>14.142857142857142</ele><time>2026-03-29T13:15:49.012Z</time></trkpt><trkpt lat="39.4051467" lon="17.0964417"><ele>14.0</ele><time>2026-03-29T13:15:50.012Z</time></trkpt><trkpt lat="39.40503" lon="17.0964933"><ele>14.000000000000002</ele><time>2026-03-29T13:15:52.012Z</time></trkpt><trkpt lat="39.4049233" lon="17.096495"><ele>14.0</ele><time>2026-03-29T13:15:54.012Z</time></trkpt><trkpt lat="39.4048483" lon="17.0965183"><ele>14.0</ele><time>2026-03-29T13:15:56.012Z</time></trkpt><trkpt lat="39.4047817" lon="17.0965383"><ele>14.0</ele><time>2026-03-29T13:15:58.011Z</time></trkpt><trkpt lat="39.404685" lon="17.0965383"><ele>14.000000000000002</ele><time>2026-03-29T13:16:00.012Z</time></trkpt><trkpt lat="39.4046217" lon="17.0965417"><ele>14.0</ele><time>2026-03-29T13:16:01.011Z</time></trkpt><trkpt lat="39.4045583" lon="17.0965467"><ele>14.166666666666668</ele><time>2026-03-29T13:16:02.012Z</time></trkpt><trkpt lat="39.4044917" lon="17.0965683"><ele>14.333333333333334</ele><time>2026-03-29T13:16:03.011Z</time></trkpt><trkpt lat="39.4044283" lon="17.096595"><ele>14.5</ele><time>2026-03-29T13:16:04.012Z</time></trkpt><trkpt lat="39.4043083" lon="17.0966117"><ele>14.666666666666668</ele><time>2026-03-29T13:16:06.012Z</time></trkpt><trkpt lat="39.4042433" lon="17.0966033"><ele>14.833333333333334</ele><time>2026-03-29T13:16:07.012Z</time></trkpt><trkpt lat="39.4041783" lon="17.0965883"><ele>15.0</ele><time>2026-03-29T13:16:08.012Z</time></trkpt><trkpt lat="39.4041033" lon="17.0965683"><ele>15.5</ele><time>2026-03-29T13:16:09.012Z</time></trkpt><trkpt lat="39.404025" lon="17.096545"><ele>16.0</ele><time>2026-03-29T13:16:10.012Z</time></trkpt><trkpt lat="39.4039467" lon="17.0965167"><ele>16.5</ele><time>2026-03-29T13:16:11.012Z</time></trkpt><trkpt lat="39.40386" lon="17.09649"><ele>17.0</ele><time>2026-03-29T13:16:12.012Z</time></trkpt><trkpt lat="39.4037833" lon="17.096475"><ele>17.5</ele><time>2026-03-29T13:16:13.012Z</time></trkpt><trkpt lat="39.403705" lon="17.0964717"><ele>18.0</ele><time>2026-03-29T13:16:14.012Z</time></trkpt><trkpt lat="39.4036383" lon="17.0964717"><ele>18.0</ele><time>2026-03-29T13:16:15.012Z</time></trkpt><trkpt lat="39.4035333" lon="17.096485"><ele>18.0</ele><time>2026-03-29T13:16:17.012Z</time></trkpt><trkpt lat="39.4034367" lon="17.09648"><ele>18.0</ele><time>2026-03-29T13:16:19.012Z</time></trkpt><trkpt lat="39.403355" lon="17.09647"><ele>18.0</ele><time>2026-03-29T13:16:21.012Z</time></trkpt><trkpt lat="39.40327" lon="17.09652"><ele>18.0</ele><time>2026-03-29T13:16:23.012Z</time></trkpt><trkpt lat="39.4031917" lon="17.0965883"><ele>18.0</ele><time>2026-03-29T13:16:25.011Z</time></trkpt><trkpt lat="39.403135" lon="17.0966917"><ele>18.0</ele><time>2026-03-29T13:16:27.012Z</time></trkpt><trkpt lat="39.4030933" lon="17.0967633"><ele>18.0</ele><time>2026-03-29T13:16:29.012Z</time></trkpt><trkpt lat="39.4030817" lon="17.0968733"><ele>18.0</ele><time>2026-03-29T13:16:31.012Z</time></trkpt><trkpt lat="39.4030633" lon="17.097"><ele>18.0</ele><time>2026-03-29T13:16:33.012Z</time></trkpt><trkpt lat="39.403" lon="17.09707"><ele>18.0</ele><time>2026-03-29T13:16:35.012Z</time></trkpt><trkpt lat="39.40292" lon="17.0970883"><ele>18.166666666666668</ele><time>2026-03-29T13:16:37.012Z</time></trkpt><trkpt lat="39.402855" lon="17.0970733"><ele>18.333333333333332</ele><time>2026-03-29T13:16:40.012Z</time></trkpt><trkpt lat="39.4027917" lon="17.097075"><ele>18.5</ele><time>2026-03-29T13:16:43.012Z</time></trkpt><trkpt lat="39.4027167" lon="17.0970833"><ele>18.666666666666664</ele><time>2026-03-29T13:16:46.012Z</time></trkpt><trkpt lat="39.40265" lon="17.0971433"><ele>18.833333333333332</ele><time>2026-03-29T13:16:48.012Z</time></trkpt><trkpt lat="39.4025717" lon="17.0972283"><ele>19.0</ele><time>2026-03-29T13:16:50.011Z</time></trkpt><trkpt lat="39.4024967" lon="17.097305"><ele>19.0</ele><time>2026-03-29T13:16:52.012Z</time></trkpt><trkpt lat="39.40242" lon="17.0973767"><ele>19.0</ele><time>2026-03-29T13:16:54.012Z</time></trkpt><trkpt lat="39.4023517" lon="17.0974433"><ele>19.0</ele><time>2026-03-29T13:16:56.012Z</time></trkpt><trkpt lat="39.4022667" lon="17.0975067"><ele>19.0</ele><time>2026-03-29T13:16:58.012Z</time></trkpt><trkpt lat="39.4021967" lon="17.09759"><ele>19.0</ele><time>2026-03-29T13:17:00.012Z</time></trkpt><trkpt lat="39.4021467" lon="17.0977283"><ele>19.333333333333332</ele><time>2026-03-29T13:17:02.011Z</time></trkpt><trkpt lat="39.4021" lon="17.0978433"><ele>19.666666666666664</ele><time>2026-03-29T13:17:04.012Z</time></trkpt><trkpt lat="39.40205" lon="17.0979067"><ele>20.0</ele><time>2026-03-29T13:17:06.012Z</time></trkpt><trkpt lat="39.4019933" lon="17.097975"><ele>20.333333333333332</ele><time>2026-03-29T13:17:10.012Z</time></trkpt><trkpt lat="39.4019583" lon="17.0980583"><ele>20.666666666666668</ele><time>2026-03-29T13:17:15.012Z</time></trkpt><trkpt lat="39.401895" lon="17.0981167"><ele>21.0</ele><time>2026-03-29T13:17:18.012Z</time></trkpt><trkpt lat="39.4018" lon="17.098135"><ele>21.0</ele><time>2026-03-29T13:17:20.012Z</time></trkpt><trkpt lat="39.40167" lon="17.0981433"><ele>21.0</ele><time>2026-03-29T13:17:22.012Z</time></trkpt><trkpt lat="39.4015883" lon="17.0981533"><ele>21.0</ele><time>2026-03-29T13:17:23.012Z</time></trkpt><trkpt lat="39.4015167" lon="17.0981617"><ele>21.0</ele><time>2026-03-29T13:17:24.012Z</time></trkpt><trkpt lat="39.40145" lon="17.0981817"><ele>21.0</ele><time>2026-03-29T13:17:25.012Z</time></trkpt><trkpt lat="39.4013533" lon="17.0982867"><ele>21.333333333333332</ele><time>2026-03-29T13:17:27.012Z</time></trkpt><trkpt lat="39.4013033" lon="17.0983667"><ele>21.666666666666668</ele><time>2026-03-29T13:17:28.012Z</time></trkpt><trkpt lat="39.4012617" lon="17.0984617"><ele>22.0</ele><time>2026-03-29T13:17:29.011Z</time></trkpt><trkpt lat="39.4012133" lon="17.0985417"><ele>22.333333333333336</ele><time>2026-03-29T13:17:30.011Z</time></trkpt><trkpt lat="39.401165" lon="17.098645"><ele>22.666666666666668</ele><time>2026-03-29T13:17:31.012Z</time></trkpt><trkpt lat="39.4011067" lon="17.0987467"><ele>23.0</ele><time>2026-03-29T13:17:32.012Z</time></trkpt><trkpt lat="39.4010583" lon="17.0988367"><ele>23.0</ele><time>2026-03-29T13:17:33.012Z</time></trkpt><trkpt lat="39.4010067" lon="17.098905"><ele>23.0</ele><time>2026-03-29T13:17:34.012Z</time></trkpt><trkpt lat="39.40095" lon="17.098965"><ele>23.0</ele><time>2026-03-29T13:17:35.012Z</time></trkpt><trkpt lat="39.4008983" lon="17.0990233"><ele>23.0</ele><time>2026-03-29T13:17:36.012Z</time></trkpt><trkpt lat="39.4008917" lon="17.099125"><ele>23.0</ele><time>2026-03-29T13:17:38.012Z</time></trkpt><trkpt lat="39.400995" lon="17.0991433"><ele>23.0</ele><time>2026-03-29T13:17:40.012Z</time></trkpt><trkpt lat="39.4010633" lon="17.099135"><ele>23.28571428571429</ele><time>2026-03-29T13:17:41.012Z</time></trkpt><trkpt lat="39.40113" lon="17.099135"><ele>23.57142857142857</ele><time>2026-03-29T13:17:42.012Z</time></trkpt><trkpt lat="39.4011933" lon="17.0991317"><ele>23.857142857142858</ele><time>2026-03-29T13:17:43.012Z</time></trkpt><trkpt lat="39.401265" lon="17.0991417"><ele>24.142857142857146</ele><time>2026-03-29T13:17:44.012Z</time></trkpt><trkpt lat="39.401335" lon="17.0991667"><ele>24.42857142857143</ele><time>2026-03-29T13:17:45.012Z</time></trkpt><trkpt lat="39.4014083" lon="17.0991917"><ele>24.714285714285715</ele><time>2026-03-29T13:17:46.012Z</time></trkpt><trkpt lat="39.40148" lon="17.0992183"><ele>25.0</ele><time>2026-03-29T13:17:47.012Z</time></trkpt><trkpt lat="39.4015483" lon="17.09925"><ele>26.333333333333336</ele><time>2026-03-29T13:17:48.012Z</time></trkpt><trkpt lat="39.4016167" lon="17.0992817"><ele>27.666666666666668</ele><time>2026-03-29T13:17:49.011Z</time></trkpt><trkpt lat="39.401675" lon="17.0993267"><ele>29.0</ele><time>2026-03-29T13:17:50.011Z</time></trkpt><trkpt lat="39.4017033" lon="17.0994483"><ele>30.333333333333336</ele><time>2026-03-29T13:17:52.011Z</time></trkpt><trkpt lat="39.4016133" lon="17.09954"><ele>31.666666666666668</ele><time>2026-03-29T13:17:54.012Z</time></trkpt><trkpt lat="39.401535" lon="17.0995783"><ele>33.0</ele><time>2026-03-29T13:17:55.011Z</time></trkpt><trkpt lat="39.4014567" lon="17.0996333"><ele>33.0</ele><time>2026-03-29T13:17:56.012Z</time></trkpt><trkpt lat="39.4013667" lon="17.0997"><ele>33.0</ele><time>2026-03-29T13:17:57.012Z</time></trkpt><trkpt lat="39.4012817" lon="17.099775"><ele>33.0</ele><time>2026-03-29T13:17:58.012Z</time></trkpt><trkpt lat="39.4012033" lon="17.0998583"><ele>33.0</ele><time>2026-03-29T13:17:59.011Z</time></trkpt><trkpt lat="39.4011417" lon="17.0999517"><ele>33.0</ele><time>2026-03-29T13:18:00.012Z</time></trkpt><trkpt lat="39.4010817" lon="17.100045"><ele>33.833333333333336</ele><time>2026-03-29T13:18:01.012Z</time></trkpt><trkpt lat="39.4010283" lon="17.100145"><ele>34.666666666666664</ele><time>2026-03-29T13:18:02.011Z</time></trkpt><trkpt lat="39.4009733" lon="17.1002483"><ele>35.5</ele><time>2026-03-29T13:18:03.012Z</time></trkpt><trkpt lat="39.4009183" lon="17.1003483"><ele>36.33333333333333</ele><time>2026-03-29T13:18:04.011Z</time></trkpt><trkpt lat="39.4008667" lon="17.10043"><ele>37.166666666666664</ele><time>2026-03-29T13:18:05.012Z</time></trkpt><trkpt lat="39.4008217" lon="17.1005083"><ele>38.0</ele><time>2026-03-29T13:18:06.012Z</time></trkpt><trkpt lat="39.4007883" lon="17.1005883"><ele>38.0</ele><time>2026-03-29T13:18:07.011Z</time></trkpt><trkpt lat="39.4007533" lon="17.100675"><ele>38.0</ele><time>2026-03-29T13:18:08.012Z</time></trkpt><trkpt lat="39.4007267" lon="17.1007633"><ele>38.0</ele><time>2026-03-29T13:18:09.012Z</time></trkpt><trkpt lat="39.400705" lon="17.1008633"><ele>38.0</ele><time>2026-03-29T13:18:10.012Z</time></trkpt><trkpt lat="39.4006783" lon="17.100955"><ele>38.0</ele><time>2026-03-29T13:18:11.012Z</time></trkpt><trkpt lat="39.4006317" lon="17.1010333"><ele>38.0</ele><time>2026-03-29T13:18:12.012Z</time></trkpt><trkpt lat="39.40058" lon="17.1010983"><ele>39.4</ele><time>2026-03-29T13:18:13.012Z</time></trkpt><trkpt lat="39.4005167" lon="17.1011567"><ele>40.8</ele><time>2026-03-29T13:18:14.012Z</time></trkpt><trkpt lat="39.4004333" lon="17.10122"><ele>42.2</ele><time>2026-03-29T13:18:15.012Z</time></trkpt><trkpt lat="39.4003433" lon="17.101285"><ele>43.6</ele><time>2026-03-29T13:18:16.012Z</time></trkpt><trkpt lat="39.4002417" lon="17.1013483"><ele>45.0</ele><time>2026-03-29T13:18:17.012Z</time></trkpt><trkpt lat="39.4001367" lon="17.10141"><ele>45.0</ele><time>2026-03-29T13:18:18.012Z</time></trkpt><trkpt lat="39.4000317" lon="17.1014633"><ele>45.0</ele><time>2026-03-29T13:18:19.012Z</time></trkpt><trkpt lat="39.39991" lon="17.1014917"><ele>45.0</ele><time>2026-03-29T13:18:20.012Z</time></trkpt><trkpt lat="39.3997867" lon="17.1014983"><ele>45.0</ele><time>2026-03-29T13:18:21.012Z</time></trkpt><trkpt lat="39.3996617" lon="17.1014983"><ele>45.2</ele><time>2026-03-29T13:18:22.012Z</time></trkpt><trkpt lat="39.3995367" lon="17.1014983"><ele>45.4</ele><time>2026-03-29T13:18:23.012Z</time></trkpt><trkpt lat="39.39942" lon="17.1015067"><ele>45.599999999999994</ele><time>2026-03-29T13:18:24.012Z</time></trkpt><trkpt lat="39.3993183" lon="17.101505"><ele>45.8</ele><time>2026-03-29T13:18:25.012Z</time></trkpt><trkpt lat="39.3992217" lon="17.1014733"><ele>46.0</ele><time>2026-03-29T13:18:26.012Z</time></trkpt><trkpt lat="39.3991417" lon="17.101405"><ele>46.0</ele><time>2026-03-29T13:18:27.011Z</time></trkpt><trkpt lat="39.3990567" lon="17.101325"><ele>46.0</ele><time>2026-03-29T13:18:28.012Z</time></trkpt><trkpt lat="39.39897" lon="17.1012467"><ele>46.0</ele><time>2026-03-29T13:18:29.012Z</time></trkpt><trkpt lat="39.39887" lon="17.101175"><ele>46.0</ele><time>2026-03-29T13:18:30.012Z</time></trkpt><trkpt lat="39.3987567" lon="17.10111"><ele>46.0</ele><time>2026-03-29T13:18:31.012Z</time></trkpt><trkpt lat="39.3986367" lon="17.101035"><ele>46.75</ele><time>2026-03-29T13:18:32.011Z</time></trkpt><trkpt lat="39.39852" lon="17.1009633"><ele>47.5</ele><time>2026-03-29T13:18:33.012Z</time></trkpt><trkpt lat="39.3984083" lon="17.1008917"><ele>48.25</ele><time>2026-03-29T13:18:34.012Z</time></trkpt><trkpt lat="39.3983033" lon="17.1008617"><ele>49.0</ele><time>2026-03-29T13:18:35.012Z</time></trkpt><trkpt lat="39.3981933" lon="17.1008633"><ele>49.0</ele><time>2026-03-29T13:18:36.012Z</time></trkpt><trkpt lat="39.3980867" lon="17.1008733"><ele>49.0</ele><time>2026-03-29T13:18:37.012Z</time></trkpt><trkpt lat="39.3979733" lon="17.1008883"><ele>49.0</ele><time>2026-03-29T13:18:38.012Z</time></trkpt><trkpt lat="39.39786" lon="17.1009067"><ele>49.0</ele><time>2026-03-29T13:18:39.011Z</time></trkpt><trkpt lat="39.39774" lon="17.1009183"><ele>49.0</ele><time>2026-03-29T13:18:40.011Z</time></trkpt><trkpt lat="39.3976267" lon="17.1009267"><ele>49.0</ele><time>2026-03-29T13:18:41.011Z</time></trkpt><trkpt lat="39.39752" lon="17.100935"><ele>49.0</ele><time>2026-03-29T13:18:42.012Z</time></trkpt><trkpt lat="39.397435" lon="17.100975"><ele>49.0</ele><time>2026-03-29T13:18:43.012Z</time></trkpt><trkpt lat="39.3973683" lon="17.1010467"><ele>49.0</ele><time>2026-03-29T13:18:44.012Z</time></trkpt><trkpt lat="39.3973183" lon="17.1011417"><ele>49.0</ele><time>2026-03-29T13:18:45.012Z</time></trkpt><trkpt lat="39.397275" lon="17.1012533"><ele>49.0</ele><time>2026-03-29T13:18:46.011Z</time></trkpt><trkpt lat="39.3972183" lon="17.101365"><ele>49.0</ele><time>2026-03-29T13:18:47.012Z</time></trkpt><trkpt lat="39.3971517" lon="17.10146"><ele>49.0</ele><time>2026-03-29T13:18:48.012Z</time></trkpt><trkpt lat="39.3970567" lon="17.10155"><ele>49.0</ele><time>2026-03-29T13:18:49.012Z</time></trkpt><trkpt lat="39.3969533" lon="17.10164"><ele>49.75</ele><time>2026-03-29T13:18:50.012Z</time></trkpt><trkpt lat="39.3968317" lon="17.10173"><ele>50.5</ele><time>2026-03-29T13:18:51.011Z</time></trkpt><trkpt lat="39.3967183" lon="17.1018117"><ele>51.25</ele><time>2026-03-29T13:18:52.011Z</time></trkpt><trkpt lat="39.3965867" lon="17.1018717"><ele>52.0</ele><time>2026-03-29T13:18:53.012Z</time></trkpt><trkpt lat="39.396435" lon="17.1019333"><ele>52.0</ele><time>2026-03-29T13:18:54.012Z</time></trkpt><trkpt lat="39.3962633" lon="17.10201"><ele>52.0</ele><time>2026-03-29T13:18:55.012Z</time></trkpt><trkpt lat="39.3961033" lon="17.102105"><ele>52.0</ele><time>2026-03-29T13:18:56.012Z</time></trkpt><trkpt lat="39.3959483" lon="17.102175"><ele>52.0</ele><time>2026-03-29T13:18:57.012Z</time></trkpt><trkpt lat="39.3957933" lon="17.102235"><ele>52.0</ele><time>2026-03-29T13:18:58.012Z</time></trkpt><trkpt lat="39.395645" lon="17.1023"><ele>52.0</ele><time>2026-03-29T13:18:59.012Z</time></trkpt><trkpt lat="39.3955017" lon="17.102385"><ele>52.25</ele><time>2026-03-29T13:19:00.012Z</time></trkpt><trkpt lat="39.3953683" lon="17.1024867"><ele>52.5</ele><time>2026-03-29T13:19:01.011Z</time></trkpt><trkpt lat="39.3952567" lon="17.1025683"><ele>52.75</ele><time>2026-03-29T13:19:02.012Z</time></trkpt><trkpt lat="39.3951583" lon="17.1026367"><ele>53.0</ele><time>2026-03-29T13:19:03.012Z</time></trkpt><trkpt lat="39.3950717" lon="17.102685"><ele>53.00000000000001</ele><time>2026-03-29T13:19:04.012Z</time></trkpt><trkpt lat="39.3950017" lon="17.102735"><ele>53.0</ele><time>2026-03-29T13:19:05.012Z</time></trkpt><trkpt lat="39.394945" lon="17.1027717"><ele>53.0</ele><time>2026-03-29T13:19:06.012Z</time></trkpt><trkpt lat="39.3948633" lon="17.1028317"><ele>53.0</ele><time>2026-03-29T13:19:08.011Z</time></trkpt><trkpt lat="39.3947783" lon="17.1028767"><ele>53.00000000000001</ele><time>2026-03-29T13:19:11.012Z</time></trkpt><trkpt lat="39.3946933" lon="17.102925"><ele>53.0</ele><time>2026-03-29T13:19:13.012Z</time></trkpt><trkpt lat="39.39463" lon="17.1029617"><ele>52.8</ele><time>2026-03-29T13:19:14.012Z</time></trkpt><trkpt lat="39.3945517" lon="17.103"><ele>52.599999999999994</ele><time>2026-03-29T13:19:15.012Z</time></trkpt><trkpt lat="39.3944633" lon="17.103045"><ele>52.400000000000006</ele><time>2026-03-29T13:19:16.011Z</time></trkpt><trkpt lat="39.394365" lon="17.103085"><ele>52.2</ele><time>2026-03-29T13:19:17.012Z</time></trkpt><trkpt lat="39.3942533" lon="17.1031217"><ele>52.0</ele><time>2026-03-29T13:19:18.012Z</time></trkpt><trkpt lat="39.394135" lon="17.1031583"><ele>52.0</ele><time>2026-03-29T13:19:19.011Z</time></trkpt><trkpt lat="39.3940117" lon="17.1032"><ele>52.0</ele><time>2026-03-29T13:19:20.012Z</time></trkpt><trkpt lat="39.3938917" lon="17.1032283"><ele>52.0</ele><time>2026-03-29T13:19:21.012Z</time></trkpt><trkpt lat="39.3937833" lon="17.1032433"><ele>52.0</ele><time>2026-03-29T13:19:22.011Z</time></trkpt><trkpt lat="39.3936617" lon="17.1032333"><ele>52.5</ele><time>2026-03-29T13:19:23.012Z</time></trkpt><trkpt lat="39.3935417" lon="17.10321"><ele>53.0</ele><time>2026-03-29T13:19:24.012Z</time></trkpt><trkpt lat="39.3934133" lon="17.1031883"><ele>53.5</ele><time>2026-03-29T13:19:25.012Z</time></trkpt><trkpt lat="39.393285" lon="17.1031683"><ele>54.0</ele><time>2026-03-29T13:19:26.012Z</time></trkpt><trkpt lat="39.3931567" lon="17.1031517"><ele>54.0</ele><time>2026-03-29T13:19:27.012Z</time></trkpt><trkpt lat="39.3930233" lon="17.1031367"><ele>54.0</ele><time>2026-03-29T13:19:28.012Z</time></trkpt><trkpt lat="39.3928917" lon="17.103115"><ele>54.0</ele><time>2026-03-29T13:19:29.012Z</time></trkpt><trkpt lat="39.3927633" lon="17.1030833"><ele>54.0</ele><time>2026-03-29T13:19:30.012Z</time></trkpt><trkpt lat="39.3926317" lon="17.10305"><ele>54.75</ele><time>2026-03-29T13:19:31.012Z</time></trkpt><trkpt lat="39.392495" lon="17.1030067"><ele>55.5</ele><time>2026-03-29T13:19:32.012Z</time></trkpt><trkpt lat="39.3923617" lon="17.1029683"><ele>56.25</ele><time>2026-03-29T13:19:33.012Z</time></trkpt><trkpt lat="39.3922283" lon="17.1029333"><ele>57.0</ele><time>2026-03-29T13:19:34.012Z</time></trkpt><trkpt lat="39.3921017" lon="17.102895"><ele>57.25</ele><time>2026-03-29T13:19:35.012Z</time></trkpt><trkpt lat="39.3919783" lon="17.1028617"><ele>57.5</ele><time>2026-03-29T13:19:36.012Z</time></trkpt><trkpt lat="39.3918617" lon="17.1028317"><ele>57.75</ele><time>2026-03-29T13:19:37.012Z</time></trkpt><trkpt lat="39.3917483" lon="17.1028067"><ele>58.0</ele><time>2026-03-29T13:19:38.012Z</time></trkpt><trkpt lat="39.3916483" lon="17.1027883"><ele>58.0</ele><time>2026-03-29T13:19:39.012Z</time></trkpt><trkpt lat="39.39155" lon="17.1027667"><ele>58.0</ele><time>2026-03-29T13:19:40.012Z</time></trkpt><trkpt lat="39.39146" lon="17.1027483"><ele>58.0</ele><time>2026-03-29T13:19:41.012Z</time></trkpt><trkpt lat="39.391385" lon="17.10273"><ele>58.0</ele><time>2026-03-29T13:19:42.012Z</time></trkpt><trkpt lat="39.3913183" lon="17.102715"><ele>58.0</ele><time>2026-03-29T13:19:43.011Z</time></trkpt><trkpt lat="39.391205" lon="17.102685"><ele>58.166666666666664</ele><time>2026-03-29T13:19:45.012Z</time></trkpt><trkpt lat="39.39112" lon="17.1026683"><ele>58.33333333333333</ele><time>2026-03-29T13:19:47.012Z</time></trkpt><trkpt lat="39.3910383" lon="17.102655"><ele>58.5</ele><time>2026-03-29T13:19:49.012Z</time></trkpt><trkpt lat="39.39096" lon="17.1026367"><ele>58.66666666666667</ele><time>2026-03-29T13:19:51.012Z</time></trkpt><trkpt lat="39.39088" lon="17.1026217"><ele>58.833333333333336</ele><time>2026-03-29T13:19:53.011Z</time></trkpt><trkpt lat="39.3908183" lon="17.1025967"><ele>59.0</ele><time>2026-03-29T13:19:56.012Z</time></trkpt><trkpt lat="39.3907033" lon="17.1025633"><ele>59.0</ele><time>2026-03-29T13:20:09.012Z</time></trkpt><trkpt lat="39.3905967" lon="17.10253"><ele>59.0</ele><time>2026-03-29T13:20:10.012Z</time></trkpt><trkpt lat="39.39047" lon="17.1024917"><ele>59.0</ele><time>2026-03-29T13:20:11.011Z</time></trkpt><trkpt lat="39.3903267" lon="17.10244"><ele>59.0</ele><time>2026-03-29T13:20:12.012Z</time></trkpt><trkpt lat="39.3901667" lon="17.1023783"><ele>59.0</ele><time>2026-03-29T13:20:13.012Z</time></trkpt><trkpt lat="39.3900183" lon="17.1023183"><ele>59.0</ele><time>2026-03-29T13:20:14.012Z</time></trkpt><trkpt lat="39.38988" lon="17.1022667"><ele>59.0</ele><time>2026-03-29T13:20:15.012Z</time></trkpt><trkpt lat="39.3897517" lon="17.102225"><ele>59.0</ele><time>2026-03-29T13:20:16.012Z</time></trkpt><trkpt lat="39.3896433" lon="17.1021933"><ele>59.50000000000001</ele><time>2026-03-29T13:20:17.012Z</time></trkpt><trkpt lat="39.389565" lon="17.1021583"><ele>60.0</ele><time>2026-03-29T13:20:18.012Z</time></trkpt><trkpt lat="39.38949" lon="17.1021417"><ele>60.5</ele><time>2026-03-29T13:20:19.012Z</time></trkpt><trkpt lat="39.38941" lon="17.1021317"><ele>61.0</ele><time>2026-03-29T13:20:20.012Z</time></trkpt><trkpt lat="39.3893217" lon="17.1021567"><ele>61.50000000000001</ele><time>2026-03-29T13:20:21.012Z</time></trkpt><trkpt lat="39.3892133" lon="17.1022"><ele>62.0</ele><time>2026-03-29T13:20:22.012Z</time></trkpt><trkpt lat="39.3890867" lon="17.102225"><ele>62.0</ele><time>2026-03-29T13:20:23.011Z</time></trkpt><trkpt lat="39.3889633" lon="17.1022467"><ele>62.0</ele><time>2026-03-29T13:20:24.011Z</time></trkpt><trkpt lat="39.3888367" lon="17.102265"><ele>62.0</ele><time>2026-03-29T13:20:25.012Z</time></trkpt><trkpt lat="39.388715" lon="17.1022783"><ele>62.0</ele><time>2026-03-29T13:20:26.012Z</time></trkpt><trkpt lat="39.3885933" lon="17.1022917"><ele>62.0</ele><time>2026-03-29T13:20:27.012Z</time></trkpt><trkpt lat="39.388475" lon="17.10231"><ele>62.0</ele><time>2026-03-29T13:20:28.012Z</time></trkpt><trkpt lat="39.3883717" lon="17.10233"><ele>62.0</ele><time>2026-03-29T13:20:29.012Z</time></trkpt><trkpt lat="39.3882617" lon="17.102345"><ele>62.0</ele><time>2026-03-29T13:20:30.012Z</time></trkpt><trkpt lat="39.3881533" lon="17.102365"><ele>62.0</ele><time>2026-03-29T13:20:31.011Z</time></trkpt><trkpt lat="39.3880433" lon="17.102385"><ele>62.0</ele><time>2026-03-29T13:20:32.012Z</time></trkpt><trkpt lat="39.3879217" lon="17.102405"><ele>62.0</ele><time>2026-03-29T13:20:33.012Z</time></trkpt><trkpt lat="39.3878" lon="17.1024233"><ele>62.0</ele><time>2026-03-29T13:20:34.012Z</time></trkpt><trkpt lat="39.3876917" lon="17.1024417"><ele>62.0</ele><time>2026-03-29T13:20:35.011Z</time></trkpt><trkpt lat="39.3875917" lon="17.1024533"><ele>61.833333333333336</ele><time>2026-03-29T13:20:36.011Z</time></trkpt><trkpt lat="39.3875" lon="17.10247"><ele>61.66666666666667</ele><time>2026-03-29T13:20:37.012Z</time></trkpt><trkpt lat="39.3874033" lon="17.10249"><ele>61.5</ele><time>2026-03-29T13:20:38.012Z</time></trkpt><trkpt lat="39.38732" lon="17.102505"><ele>61.33333333333333</ele><time>2026-03-29T13:20:39.012Z</time></trkpt><trkpt lat="39.3872367" lon="17.1025167"><ele>61.166666666666664</ele><time>2026-03-29T13:20:40.012Z</time></trkpt><trkpt lat="39.387165" lon="17.1025333"><ele>61.0</ele><time>2026-03-29T13:20:41.012Z</time></trkpt><trkpt lat="39.3870833" lon="17.10255"><ele>61.33333333333333</ele><time>2026-03-29T13:20:42.012Z</time></trkpt><trkpt lat="39.3870067" lon="17.1025633"><ele>61.666666666666664</ele><time>2026-03-29T13:20:43.012Z</time></trkpt><trkpt lat="39.3869233" lon="17.102575"><ele>62.0</ele><time>2026-03-29T13:20:44.012Z</time></trkpt><trkpt lat="39.3868417" lon="17.1025917"><ele>62.33333333333333</ele><time>2026-03-29T13:20:45.011Z</time></trkpt><trkpt lat="39.3867517" lon="17.1026"><ele>62.666666666666664</ele><time>2026-03-29T13:20:46.012Z</time></trkpt><trkpt lat="39.386665" lon="17.1026133"><ele>63.0</ele><time>2026-03-29T13:20:47.012Z</time></trkpt><trkpt lat="39.3865733" lon="17.10263"><ele>63.0</ele><time>2026-03-29T13:20:48.012Z</time></trkpt><trkpt lat="39.3864933" lon="17.1026433"><ele>63.0</ele><time>2026-03-29T13:20:49.012Z</time></trkpt><trkpt lat="39.3864167" lon="17.1026567"><ele>63.0</ele><time>2026-03-29T13:20:50.011Z</time></trkpt><trkpt lat="39.38635" lon="17.102665"><ele>63.0</ele><time>2026-03-29T13:20:51.012Z</time></trkpt><trkpt lat="39.38628" lon="17.1026833"><ele>63.0</ele><time>2026-03-29T13:20:53.012Z</time></trkpt><trkpt lat="39.38621" lon="17.1026967"><ele>63.0</ele><time>2026-03-29T13:20:55.012Z</time></trkpt><trkpt lat="39.38611" lon="17.102735"><ele>63.333333333333336</ele><time>2026-03-29T13:20:57.012Z</time></trkpt><trkpt lat="39.386045" lon="17.102745"><ele>63.66666666666667</ele><time>2026-03-29T13:20:58.011Z</time></trkpt><trkpt lat="39.3859433" lon="17.1027633"><ele>64.0</ele><time>2026-03-29T13:21:00.012Z</time></trkpt><trkpt lat="39.38597" lon="17.1028783"><ele>64.33333333333334</ele><time>2026-03-29T13:21:03.012Z</time></trkpt><trkpt lat="39.3860217" lon="17.10293"><ele>64.66666666666667</ele><time>2026-03-29T13:21:04.012Z</time></trkpt><trkpt lat="39.386065" lon="17.1029933"><ele>65.0</ele><time>2026-03-29T13:21:05.012Z</time></trkpt><trkpt lat="39.3860833" lon="17.1031183"><ele>64.8</ele><time>2026-03-29T13:21:07.012Z</time></trkpt><trkpt lat="39.3860267" lon="17.1032733"><ele>64.6</ele><time>2026-03-29T13:21:09.012Z</time></trkpt><trkpt lat="39.385995" lon="17.1033733"><ele>64.4</ele><time>2026-03-29T13:21:10.012Z</time></trkpt><trkpt lat="39.385965" lon="17.103475"><ele>64.2</ele><time>2026-03-29T13:21:11.012Z</time></trkpt><trkpt lat="39.3859317" lon="17.1035817"><ele>64.0</ele><time>2026-03-29T13:21:12.011Z</time></trkpt><trkpt lat="39.385905" lon="17.1036883"><ele>63.99999999999999</ele><time>2026-03-29T13:21:13.012Z</time></trkpt><trkpt lat="39.38589" lon="17.1037817"><ele>64.0</ele><time>2026-03-29T13:21:14.012Z</time></trkpt><trkpt lat="39.38591" lon="17.1038667"><ele>64.0</ele><time>2026-03-29T13:21:15.011Z</time></trkpt><trkpt lat="39.3859817" lon="17.1039833"><ele>64.0</ele><time>2026-03-29T13:21:17.012Z</time></trkpt><trkpt lat="39.3860667" lon="17.10408"><ele>63.99999999999999</ele><time>2026-03-29T13:21:19.012Z</time></trkpt><trkpt lat="39.38611" lon="17.1041433"><ele>64.0</ele><time>2026-03-29T13:21:20.012Z</time></trkpt><trkpt lat="39.38613" lon="17.1043017"><ele>63.83333333333333</ele><time>2026-03-29T13:21:22.012Z</time></trkpt><trkpt lat="39.386115" lon="17.104395"><ele>63.666666666666664</ele><time>2026-03-29T13:21:23.012Z</time></trkpt><trkpt lat="39.386095" lon="17.1044867"><ele>63.5</ele><time>2026-03-29T13:21:24.012Z</time></trkpt><trkpt lat="39.3861017" lon="17.1045683"><ele>63.33333333333333</ele><time>2026-03-29T13:21:25.012Z</time></trkpt><trkpt lat="39.38619" lon="17.1046617"><ele>63.166666666666664</ele><time>2026-03-29T13:21:27.012Z</time></trkpt><trkpt lat="39.3862583" lon="17.1046883"><ele>63.0</ele><time>2026-03-29T13:21:28.012Z</time></trkpt><trkpt lat="39.38634" lon="17.10472"><ele>63.2</ele><time>2026-03-29T13:21:29.012Z</time></trkpt><trkpt lat="39.38643" lon="17.10475"><ele>63.4</ele><time>2026-03-29T13:21:30.012Z</time></trkpt><trkpt lat="39.3865217" lon="17.1047833"><ele>63.60000000000001</ele><time>2026-03-29T13:21:31.012Z</time></trkpt><trkpt lat="39.386605" lon="17.1048283"><ele>63.800000000000004</ele><time>2026-03-29T13:21:32.012Z</time></trkpt><trkpt lat="39.3866867" lon="17.1048767"><ele>64.0</ele><time>2026-03-29T13:21:33.011Z</time></trkpt><trkpt lat="39.3867667" lon="17.10492"><ele>64.16666666666666</ele><time>2026-03-29T13:21:34.012Z</time></trkpt><trkpt lat="39.3868417" lon="17.1049617"><ele>64.33333333333333</ele><time>2026-03-29T13:21:35.012Z</time></trkpt><trkpt lat="39.3869133" lon="17.1049983"><ele>64.5</ele><time>2026-03-29T13:21:36.012Z</time></trkpt><trkpt lat="39.3869717" lon="17.1050333"><ele>64.66666666666667</ele><time>2026-03-29T13:21:37.012Z</time></trkpt><trkpt lat="39.3870333" lon="17.10506"><ele>64.83333333333334</ele><time>2026-03-29T13:21:38.011Z</time></trkpt><trkpt lat="39.387145" lon="17.105125"><ele>65.0</ele><time>2026-03-29T13:21:40.011Z</time></trkpt><trkpt lat="39.3872583" lon="17.1051817"><ele>65.0</ele><time>2026-03-29T13:21:42.012Z</time></trkpt><trkpt lat="39.38736" lon="17.1052517"><ele>65.0</ele><time>2026-03-29T13:21:44.012Z</time></trkpt><trkpt lat="39.3874117" lon="17.1053533"><ele>65.0</ele><time>2026-03-29T13:21:46.012Z</time></trkpt><trkpt lat="39.38739" lon="17.10546"><ele>65.0</ele><time>2026-03-29T13:21:48.012Z</time></trkpt><trkpt lat="39.387325" lon="17.105535"><ele>65.0</ele><time>2026-03-29T13:21:50.012Z</time></trkpt><trkpt lat="39.3872267" lon="17.1055983"><ele>64.42857142857143</ele><time>2026-03-29T13:21:52.012Z</time></trkpt><trkpt lat="39.3871533" lon="17.1056633"><ele>63.85714285714286</ele><time>2026-03-29T13:21:54.012Z</time></trkpt><trkpt lat="39.3870817" lon="17.1057067"><ele>63.285714285714285</ele><time>2026-03-29T13:21:57.012Z</time></trkpt><trkpt lat="39.3870233" lon="17.1057383"><ele>62.714285714285715</ele><time>2026-03-29T13:22:00.012Z</time></trkpt><trkpt lat="39.3869667" lon="17.1058033"><ele>62.14285714285714</ele><time>2026-03-29T13:22:03.012Z</time></trkpt><trkpt lat="39.3869333" lon="17.1058833"><ele>61.57142857142856</ele><time>2026-03-29T13:22:07.012Z</time></trkpt><trkpt lat="39.3869033" lon="17.1059583"><ele>60.99999999999999</ele><time>2026-03-29T13:22:10.012Z</time></trkpt><trkpt lat="39.386865" lon="17.106045"><ele>60.199999999999996</ele><time>2026-03-29T13:22:12.012Z</time></trkpt><trkpt lat="39.3868433" lon="17.1061533"><ele>59.39999999999999</ele><time>2026-03-29T13:22:14.011Z</time></trkpt><trkpt lat="39.38687" lon="17.1062883"><ele>58.6</ele><time>2026-03-29T13:22:16.012Z</time></trkpt><trkpt lat="39.38693" lon="17.1064267"><ele>57.8</ele><time>2026-03-29T13:22:18.012Z</time></trkpt><trkpt lat="39.3869667" lon="17.1065067"><ele>57.0</ele><time>2026-03-29T13:22:19.012Z</time></trkpt><trkpt lat="39.386995" lon="17.1065967"><ele>57.0</ele><time>2026-03-29T13:22:20.012Z</time></trkpt><trkpt lat="39.3870383" lon="17.10669"><ele>57.0</ele><time>2026-03-29T13:22:21.012Z</time></trkpt><trkpt lat="39.3870783" lon="17.1067817"><ele>57.0</ele><time>2026-03-29T13:22:22.012Z</time></trkpt><trkpt lat="39.38712" lon="17.1068817"><ele>57.0</ele><time>2026-03-29T13:22:23.011Z</time></trkpt><trkpt lat="39.3871583" lon="17.1069867"><ele>57.0</ele><time>2026-03-29T13:22:24.012Z</time></trkpt><trkpt lat="39.387175" lon="17.1070883"><ele>57.0</ele><time>2026-03-29T13:22:25.012Z</time></trkpt><trkpt lat="39.38718" lon="17.107195"><ele>57.0</ele><time>2026-03-29T13:22:26.012Z</time></trkpt><trkpt lat="39.38717" lon="17.1072967"><ele>57.0</ele><time>2026-03-29T13:22:27.012Z</time></trkpt><trkpt lat="39.3871517" lon="17.107385"><ele>57.0</ele><time>2026-03-29T13:22:28.012Z</time></trkpt><trkpt lat="39.3871217" lon="17.1075417"><ele>57.0</ele><time>2026-03-29T13:22:30.012Z</time></trkpt><trkpt lat="39.3871417" lon="17.1076683"><ele>57.0</ele><time>2026-03-29T13:22:32.011Z</time></trkpt><trkpt lat="39.387175" lon="17.1077633"><ele>56.333333333333336</ele><time>2026-03-29T13:22:34.012Z</time></trkpt><trkpt lat="39.3872167" lon="17.107885"><ele>55.66666666666667</ele><time>2026-03-29T13:22:36.012Z</time></trkpt><trkpt lat="39.3872567" lon="17.10795"><ele>55.0</ele><time>2026-03-29T13:22:37.012Z</time></trkpt><trkpt lat="39.3873083" lon="17.1080167"><ele>54.333333333333336</ele><time>2026-03-29T13:22:38.012Z</time></trkpt><trkpt lat="39.3873617" lon="17.10808"><ele>53.66666666666667</ele><time>2026-03-29T13:22:39.011Z</time></trkpt><trkpt lat="39.3874183" lon="17.1081417"><ele>53.0</ele><time>2026-03-29T13:22:40.012Z</time></trkpt><trkpt lat="39.3874783" lon="17.1082033"><ele>52.00000000000001</ele><time>2026-03-29T13:22:41.012Z</time></trkpt><trkpt lat="39.38755" lon="17.1082517"><ele>51.0</ele><time>2026-03-29T13:22:42.012Z</time></trkpt><trkpt lat="39.3876333" lon="17.1083017"><ele>50.0</ele><time>2026-03-29T13:22:43.012Z</time></trkpt><trkpt lat="39.387715" lon="17.10836"><ele>49.0</ele><time>2026-03-29T13:22:44.012Z</time></trkpt><trkpt lat="39.3877967" lon="17.1084183"><ele>48.0</ele><time>2026-03-29T13:22:45.011Z</time></trkpt><trkpt lat="39.38787" lon="17.1084683"><ele>47.0</ele><time>2026-03-29T13:22:46.012Z</time></trkpt><trkpt lat="39.3879367" lon="17.1085017"><ele>47.0</ele><time>2026-03-29T13:22:47.012Z</time></trkpt><trkpt lat="39.3880033" lon="17.1085383"><ele>47.0</ele><time>2026-03-29T13:22:48.012Z</time></trkpt><trkpt lat="39.3880717" lon="17.108575"><ele>47.0</ele><time>2026-03-29T13:22:49.012Z</time></trkpt><trkpt lat="39.388135" lon="17.1086217"><ele>47.0</ele><time>2026-03-29T13:22:50.012Z</time></trkpt><trkpt lat="39.388185" lon="17.1086817"><ele>47.0</ele><time>2026-03-29T13:22:51.012Z</time></trkpt><trkpt lat="39.38823" lon="17.1087517"><ele>47.0</ele><time>2026-03-29T13:22:52.012Z</time></trkpt><trkpt lat="39.388275" lon="17.1088283"><ele>47.0</ele><time>2026-03-29T13:22:53.012Z</time></trkpt><trkpt lat="39.3883283" lon="17.108905"><ele>47.166666666666664</ele><time>2026-03-29T13:22:54.012Z</time></trkpt><trkpt lat="39.3883917" lon="17.1089767"><ele>47.33333333333333</ele><time>2026-03-29T13:22:55.012Z</time></trkpt><trkpt lat="39.38846" lon="17.1090467"><ele>47.5</ele><time>2026-03-29T13:22:56.012Z</time></trkpt><trkpt lat="39.38853" lon="17.1091117"><ele>47.666666666666664</ele><time>2026-03-29T13:22:57.012Z</time></trkpt><trkpt lat="39.38858" lon="17.10918"><ele>47.833333333333336</ele><time>2026-03-29T13:22:58.012Z</time></trkpt><trkpt lat="39.388635" lon="17.10929"><ele>48.0</ele><time>2026-03-29T13:23:00.012Z</time></trkpt><trkpt lat="39.3886817" lon="17.1093667"><ele>48.166666666666664</ele><time>2026-03-29T13:23:22.012Z</time></trkpt><trkpt lat="39.3887267" lon="17.10944"><ele>48.33333333333333</ele><time>2026-03-29T13:27:47.012Z</time></trkpt><trkpt lat="39.3887933" lon="17.1095"><ele>48.5</ele><time>2026-03-29T13:27:49.012Z</time></trkpt><trkpt lat="39.3888583" lon="17.10958"><ele>48.666666666666664</ele><time>2026-03-29T13:27:51.012Z</time></trkpt><trkpt lat="39.3889167" lon="17.10969"><ele>48.83333333333333</ele><time>2026-03-29T13:27:53.012Z</time></trkpt><trkpt lat="39.3889433" lon="17.109805"><ele>49.0</ele><time>2026-03-29T13:27:55.012Z</time></trkpt><trkpt lat="39.3889717" lon="17.1099183"><ele>47.49999999999999</ele><time>2026-03-29T13:27:57.012Z</time></trkpt><trkpt lat="39.3889983" lon="17.1100233"><ele>46.0</ele><time>2026-03-29T13:27:59.012Z</time></trkpt><trkpt lat="39.3890317" lon="17.1101"><ele>44.5</ele><time>2026-03-29T13:28:01.012Z</time></trkpt><trkpt lat="39.3890717" lon="17.1101817"><ele>43.0</ele><time>2026-03-29T13:28:04.012Z</time></trkpt><trkpt lat="39.3891017" lon="17.1102617"><ele>41.5</ele><time>2026-03-29T13:28:06.012Z</time></trkpt><trkpt lat="39.3891483" lon="17.1103433"><ele>40.0</ele><time>2026-03-29T13:28:08.012Z</time></trkpt><trkpt lat="39.3892083" lon="17.1104517"><ele>40.0</ele><time>2026-03-29T13:28:10.012Z</time></trkpt><trkpt lat="39.389285" lon="17.1105833"><ele>40.0</ele><time>2026-03-29T13:28:12.012Z</time></trkpt><trkpt lat="39.38932" lon="17.1106867"><ele>40.0</ele><time>2026-03-29T13:28:14.012Z</time></trkpt><trkpt lat="39.389275" lon="17.1108033"><ele>40.0</ele><time>2026-03-29T13:28:16.012Z</time></trkpt><trkpt lat="39.389215" lon="17.1109217"><ele>40.0</ele><time>2026-03-29T13:28:18.011Z</time></trkpt><trkpt lat="39.389175" lon="17.11106"><ele>39.57142857142857</ele><time>2026-03-29T13:28:20.011Z</time></trkpt><trkpt lat="39.3891517" lon="17.1111367"><ele>39.142857142857146</ele><time>2026-03-29T13:28:21.011Z</time></trkpt><trkpt lat="39.38912" lon="17.1112167"><ele>38.714285714285715</ele><time>2026-03-29T13:28:22.01Z</time></trkpt><trkpt lat="39.3890867" lon="17.1113017"><ele>38.285714285714285</ele><time>2026-03-29T13:28:23.01Z</time></trkpt><trkpt lat="39.389065" lon="17.111395"><ele>37.857142857142854</ele><time>2026-03-29T13:28:24.011Z</time></trkpt><trkpt lat="39.389035" lon="17.1114867"><ele>37.42857142857143</ele><time>2026-03-29T13:28:25.011Z</time></trkpt><trkpt lat="39.3890217" lon="17.111595"><ele>37.0</ele><time>2026-03-29T13:28:26.011Z</time></trkpt><trkpt lat="39.3890133" lon="17.1117167"><ele>36.2</ele><time>2026-03-29T13:28:27.011Z</time></trkpt><trkpt lat="39.3890283" lon="17.11184"><ele>35.400000000000006</ele><time>2026-03-29T13:28:28.011Z</time></trkpt><trkpt lat="39.3890517" lon="17.1119633"><ele>34.599999999999994</ele><time>2026-03-29T13:28:29.011Z</time></trkpt><trkpt lat="39.389085" lon="17.1120817"><ele>33.8</ele><time>2026-03-29T13:28:30.011Z</time></trkpt><trkpt lat="39.3891267" lon="17.112205"><ele>33.0</ele><time>2026-03-29T13:28:31.011Z</time></trkpt><trkpt lat="39.3891767" lon="17.1123083"><ele>32.6</ele><time>2026-03-29T13:28:32.011Z</time></trkpt><trkpt lat="39.3892333" lon="17.1124067"><ele>32.199999999999996</ele><time>2026-03-29T13:28:33.011Z</time></trkpt><trkpt lat="39.389295" lon="17.1125017"><ele>31.8</ele><time>2026-03-29T13:28:34.011Z</time></trkpt><trkpt lat="39.3893617" lon="17.11259"><ele>31.4</ele><time>2026-03-29T13:28:35.011Z</time></trkpt><trkpt lat="39.389425" lon="17.1126883"><ele>31.0</ele><time>2026-03-29T13:28:36.011Z</time></trkpt><trkpt lat="39.389495" lon="17.112785"><ele>31.0</ele><time>2026-03-29T13:28:37.01Z</time></trkpt><trkpt lat="39.3895683" lon="17.1128917"><ele>31.0</ele><time>2026-03-29T13:28:38.01Z</time></trkpt><trkpt lat="39.3896383" lon="17.113"><ele>31.0</ele><time>2026-03-29T13:28:39.01Z</time></trkpt><trkpt lat="39.3896983" lon="17.11311"><ele>31.0</ele><time>2026-03-29T13:28:40.01Z</time></trkpt><trkpt lat="39.3897417" lon="17.1132267"><ele>31.0</ele><time>2026-03-29T13:28:41.01Z</time></trkpt><trkpt lat="39.3897683" lon="17.1133267"><ele>30.857142857142858</ele><time>2026-03-29T13:28:42.011Z</time></trkpt><trkpt lat="39.3897833" lon="17.1134067"><ele>30.714285714285715</ele><time>2026-03-29T13:28:43.011Z</time></trkpt><trkpt lat="39.3897917" lon="17.1134967"><ele>30.571428571428573</ele><time>2026-03-29T13:28:45.011Z</time></trkpt><trkpt lat="39.38979" lon="17.113585"><ele>30.42857142857143</ele><time>2026-03-29T13:28:47.011Z</time></trkpt><trkpt lat="39.3897733" lon="17.1137317"><ele>30.285714285714285</ele><time>2026-03-29T13:28:49.01Z</time></trkpt><trkpt lat="39.3897683" lon="17.1138183"><ele>30.142857142857146</ele><time>2026-03-29T13:28:50.011Z</time></trkpt><trkpt lat="39.3897567" lon="17.1139"><ele>30.0</ele><time>2026-03-29T13:28:51.011Z</time></trkpt><trkpt lat="39.3897483" lon="17.114025"><ele>30.0</ele><time>2026-03-29T13:28:53.01Z</time></trkpt><trkpt lat="39.3896917" lon="17.1140967"><ele>30.0</ele><time>2026-03-29T13:28:56.011Z</time></trkpt><trkpt lat="39.389625" lon="17.11409"><ele>30.0</ele><time>2026-03-29T13:28:58.011Z</time></trkpt><trkpt lat="39.3895433" lon="17.1141067"><ele>30.0</ele><time>2026-03-29T13:29:00.011Z</time></trkpt><trkpt lat="39.3894733" lon="17.1141783"><ele>30.0</ele><time>2026-03-29T13:29:02.011Z</time></trkpt><trkpt lat="39.3893533" lon="17.1142633"><ele>30.42857142857143</ele><time>2026-03-29T13:29:04.011Z</time></trkpt><trkpt lat="39.3892783" lon="17.114315"><ele>30.857142857142854</ele><time>2026-03-29T13:29:05.011Z</time></trkpt><trkpt lat="39.3891983" lon="17.1143583"><ele>31.285714285714285</ele><time>2026-03-29T13:29:06.011Z</time></trkpt><trkpt lat="39.3891267" lon="17.1143883"><ele>31.714285714285715</ele><time>2026-03-29T13:29:07.011Z</time></trkpt><trkpt lat="39.3890583" lon="17.1144067"><ele>32.142857142857146</ele><time>2026-03-29T13:29:08.011Z</time></trkpt><trkpt lat="39.3889933" lon="17.1144067"><ele>32.57142857142857</ele><time>2026-03-29T13:29:09.01Z</time></trkpt><trkpt lat="39.3889267" lon="17.1143983"><ele>33.0</ele><time>2026-03-29T13:29:10.011Z</time></trkpt><trkpt lat="39.3888533" lon="17.11439"><ele>35.2</ele><time>2026-03-29T13:29:11.01Z</time></trkpt><trkpt lat="39.38877" lon="17.1143783"><ele>37.4</ele><time>2026-03-29T13:29:12.011Z</time></trkpt><trkpt lat="39.3886783" lon="17.1143633"><ele>39.6</ele><time>2026-03-29T13:29:13.011Z</time></trkpt><trkpt lat="39.3885917" lon="17.114355"><ele>41.800000000000004</ele><time>2026-03-29T13:29:14.011Z</time></trkpt><trkpt lat="39.3884783" lon="17.1143667"><ele>44.0</ele><time>2026-03-29T13:29:16.011Z</time></trkpt><trkpt lat="39.3884083" lon="17.1144367"><ele>44.0</ele><time>2026-03-29T13:29:18.01Z</time></trkpt><trkpt lat="39.3883717" lon="17.1145333"><ele>44.0</ele><time>2026-03-29T13:29:20.011Z</time></trkpt><trkpt lat="39.3883317" lon="17.1146183"><ele>44.0</ele><time>2026-03-29T13:29:22.011Z</time></trkpt><trkpt lat="39.3882634" lon="17.1147044"><ele>44.0</ele><time>2026-03-29T13:29:24.011Z</time></trkpt><trkpt lat="39.3881957" lon="17.1148187"><ele>44.0</ele><time>2026-03-29T13:29:26.011Z</time></trkpt><trkpt lat="39.3881525" lon="17.1148786"><ele>44.0</ele><time>2026-03-29T13:29:27.011Z</time></trkpt><trkpt lat="39.3881022" lon="17.1149407"><ele>43.400000000000006</ele><time>2026-03-29T13:29:28.011Z</time></trkpt><trkpt lat="39.3880395" lon="17.1150091"><ele>42.8</ele><time>2026-03-29T13:29:29.011Z</time></trkpt><trkpt lat="39.3879587" lon="17.1150766"><ele>42.2</ele><time>2026-03-29T13:29:30.011Z</time></trkpt><trkpt lat="39.3878559" lon="17.1151412"><ele>41.599999999999994</ele><time>2026-03-29T13:29:31.011Z</time></trkpt><trkpt lat="39.3877516" lon="17.1151824"><ele>41.0</ele><time>2026-03-29T13:29:32.011Z</time></trkpt><trkpt lat="39.3876465" lon="17.1152034"><ele>42.0</ele><time>2026-03-29T13:29:33.011Z</time></trkpt><trkpt lat="39.3875554" lon="17.1152045"><ele>43.0</ele><time>2026-03-29T13:29:34.011Z</time></trkpt><trkpt lat="39.3874821" lon="17.1151883"><ele>44.0</ele><time>2026-03-29T13:29:35.011Z</time></trkpt><trkpt lat="39.387412" lon="17.115158"><ele>45.0</ele><time>2026-03-29T13:29:36.011Z</time></trkpt><trkpt lat="39.3873371" lon="17.1151219"><ele>46.0</ele><time>2026-03-29T13:29:37.011Z</time></trkpt><trkpt lat="39.3872528" lon="17.1150899"><ele>47.0</ele><time>2026-03-29T13:29:38.011Z</time></trkpt><trkpt lat="39.3871594" lon="17.1150541"><ele>47.0</ele><time>2026-03-29T13:29:39.011Z</time></trkpt><trkpt lat="39.3870663" lon="17.1150272"><ele>47.0</ele><time>2026-03-29T13:29:40.011Z</time></trkpt><trkpt lat="39.3869823" lon="17.1150009"><ele>47.0</ele><time>2026-03-29T13:29:41.01Z</time></trkpt><trkpt lat="39.386904" lon="17.1149644"><ele>47.0</ele><time>2026-03-29T13:29:42.011Z</time></trkpt><trkpt lat="39.3868285" lon="17.114918"><ele>47.0</ele><time>2026-03-29T13:29:43.011Z</time></trkpt><trkpt lat="39.3867503" lon="17.1148805"><ele>47.0</ele><time>2026-03-29T13:29:44.011Z</time></trkpt><trkpt lat="39.3866771" lon="17.1148643"><ele>47.33333333333333</ele><time>2026-03-29T13:29:45.011Z</time></trkpt><trkpt lat="39.3865923" lon="17.1148597"><ele>47.666666666666664</ele><time>2026-03-29T13:29:46.011Z</time></trkpt><trkpt lat="39.3865073" lon="17.1148656"><ele>48.0</ele><time>2026-03-29T13:29:47.011Z</time></trkpt><trkpt lat="39.3864235" lon="17.1148788"><ele>48.33333333333333</ele><time>2026-03-29T13:29:48.01Z</time></trkpt><trkpt lat="39.3863451" lon="17.1148859"><ele>48.666666666666664</ele><time>2026-03-29T13:29:49.011Z</time></trkpt><trkpt lat="39.3862782" lon="17.1148938"><ele>49.0</ele><time>2026-03-29T13:29:50.01Z</time></trkpt><trkpt lat="39.3861686" lon="17.1149345"><ele>48.99999999999999</ele><time>2026-03-29T13:29:52.011Z</time></trkpt><trkpt lat="39.3860591" lon="17.1149202"><ele>49.0</ele><time>2026-03-29T13:29:54.01Z</time></trkpt><trkpt lat="39.3860029" lon="17.1148676"><ele>49.0</ele><time>2026-03-29T13:29:55.011Z</time></trkpt><trkpt lat="39.3859449" lon="17.1148131"><ele>49.0</ele><time>2026-03-29T13:29:56.011Z</time></trkpt><trkpt lat="39.385877" lon="17.1147834"><ele>48.99999999999999</ele><time>2026-03-29T13:29:57.011Z</time></trkpt><trkpt lat="39.3858095" lon="17.11478"><ele>49.0</ele><time>2026-03-29T13:29:58.011Z</time></trkpt><trkpt lat="39.3857452" lon="17.1148073"><ele>49.0</ele><time>2026-03-29T13:29:59.011Z</time></trkpt><trkpt lat="39.3856712" lon="17.1148542"><ele>49.0</ele><time>2026-03-29T13:30:00.011Z</time></trkpt><trkpt lat="39.3855817" lon="17.1149367"><ele>49.0</ele><time>2026-03-29T13:30:01.01Z</time></trkpt><trkpt lat="39.3855033" lon="17.1150117"><ele>49.0</ele><time>2026-03-29T13:30:02.011Z</time></trkpt><trkpt lat="39.385425" lon="17.1150817"><ele>49.0</ele><time>2026-03-29T13:30:03.011Z</time></trkpt><trkpt lat="39.3853667" lon="17.11516"><ele>49.666666666666664</ele><time>2026-03-29T13:30:04.01Z</time></trkpt><trkpt lat="39.3853083" lon="17.115225"><ele>50.33333333333333</ele><time>2026-03-29T13:30:05.011Z</time></trkpt><trkpt lat="39.385245" lon="17.1153017"><ele>51.0</ele><time>2026-03-29T13:30:06.011Z</time></trkpt><trkpt lat="39.3852" lon="17.1153833"><ele>51.66666666666667</ele><time>2026-03-29T13:30:07.01Z</time></trkpt><trkpt lat="39.385165" lon="17.1154717"><ele>52.333333333333336</ele><time>2026-03-29T13:30:08.011Z</time></trkpt><trkpt lat="39.3851317" lon="17.1155583"><ele>53.0</ele><time>2026-03-29T13:30:09.011Z</time></trkpt><trkpt lat="39.385105" lon="17.1156383"><ele>53.16666666666667</ele><time>2026-03-29T13:30:10.011Z</time></trkpt><trkpt lat="39.3850183" lon="17.115745"><ele>53.333333333333336</ele><time>2026-03-29T13:30:12.011Z</time></trkpt><trkpt lat="39.3849533" lon="17.115795"><ele>53.5</ele><time>2026-03-29T13:30:13.011Z</time></trkpt><trkpt lat="39.3848933" lon="17.11585"><ele>53.66666666666667</ele><time>2026-03-29T13:30:14.011Z</time></trkpt><trkpt lat="39.384825" lon="17.1159033"><ele>53.833333333333336</ele><time>2026-03-29T13:30:15.011Z</time></trkpt><trkpt lat="39.3847483" lon="17.1159617"><ele>54.0</ele><time>2026-03-29T13:30:16.011Z</time></trkpt><trkpt lat="39.3846717" lon="17.116025"><ele>54.0</ele><time>2026-03-29T13:30:17.011Z</time></trkpt><trkpt lat="39.3845883" lon="17.1160933"><ele>54.00000000000001</ele><time>2026-03-29T13:30:18.011Z</time></trkpt><trkpt lat="39.38452" lon="17.1161633"><ele>54.00000000000001</ele><time>2026-03-29T13:30:19.01Z</time></trkpt><trkpt lat="39.38446" lon="17.11623"><ele>54.0</ele><time>2026-03-29T13:30:20.011Z</time></trkpt><trkpt lat="39.3843483" lon="17.1162883"><ele>54.0</ele><time>2026-03-29T13:30:22.011Z</time></trkpt><trkpt lat="39.384225" lon="17.11625"><ele>54.0</ele><time>2026-03-29T13:30:24.01Z</time></trkpt><trkpt lat="39.3841517" lon="17.116235"><ele>54.0</ele><time>2026-03-29T13:30:25.011Z</time></trkpt><trkpt lat="39.38408" lon="17.1162333"><ele>54.0</ele><time>2026-03-29T13:30:26.011Z</time></trkpt><trkpt lat="39.3840033" lon="17.1162517"><ele>54.0</ele><time>2026-03-29T13:30:27.011Z</time></trkpt><trkpt lat="39.3839333" lon="17.11628"><ele>54.0</ele><time>2026-03-29T13:30:28.011Z</time></trkpt><trkpt lat="39.3838667" lon="17.1162967"><ele>54.0</ele><time>2026-03-29T13:30:29.011Z</time></trkpt><trkpt lat="39.3838017" lon="17.11632"><ele>54.0</ele><time>2026-03-29T13:30:30.011Z</time></trkpt><trkpt lat="39.3837383" lon="17.116325"><ele>53.333333333333336</ele><time>2026-03-29T13:30:31.01Z</time></trkpt><trkpt lat="39.3836367" lon="17.1163583"><ele>52.66666666666667</ele><time>2026-03-29T13:30:33.011Z</time></trkpt><trkpt lat="39.3835658" lon="17.1163669"><ele>52.0</ele><time>2026-03-29T13:30:36.011Z</time></trkpt><trkpt lat="39.3834889" lon="17.1163575"><ele>51.333333333333336</ele><time>2026-03-29T13:30:39.011Z</time></trkpt><trkpt lat="39.3834268" lon="17.1163084"><ele>50.66666666666667</ele><time>2026-03-29T13:30:41.01Z</time></trkpt><trkpt lat="39.383401" lon="17.1162025"><ele>50.0</ele><time>2026-03-29T13:30:43.011Z</time></trkpt><trkpt lat="39.3834074" lon="17.1160377"><ele>50.00000000000001</ele><time>2026-03-29T13:30:45.011Z</time></trkpt><trkpt lat="39.3834097" lon="17.1159472"><ele>50.0</ele><time>2026-03-29T13:30:46.011Z</time></trkpt><trkpt lat="39.3834069" lon="17.1158518"><ele>50.0</ele><time>2026-03-29T13:30:47.01Z</time></trkpt><trkpt lat="39.3834006" lon="17.1157567"><ele>50.0</ele><time>2026-03-29T13:30:48.011Z</time></trkpt><trkpt lat="39.3833879" lon="17.115667"><ele>50.00000000000001</ele><time>2026-03-29T13:30:49.011Z</time></trkpt><trkpt lat="39.3833657" lon="17.1155369"><ele>50.0</ele><time>2026-03-29T13:30:51.011Z</time></trkpt><trkpt lat="39.3833523" lon="17.1154506"><ele>50.57142857142858</ele><time>2026-03-29T13:30:53.011Z</time></trkpt><trkpt lat="39.3833384" lon="17.1153645"><ele>51.142857142857146</ele><time>2026-03-29T13:30:55.011Z</time></trkpt><trkpt lat="39.3833202" lon="17.1152841"><ele>51.714285714285715</ele><time>2026-03-29T13:30:57.011Z</time></trkpt><trkpt lat="39.3833083" lon="17.1152033"><ele>52.28571428571429</ele><time>2026-03-29T13:31:29.011Z</time></trkpt><trkpt lat="39.383325" lon="17.1153117"><ele>52.857142857142854</ele><time>2026-03-29T13:31:32.011Z</time></trkpt><trkpt lat="39.3833417" lon="17.1154117"><ele>53.42857142857143</ele><time>2026-03-29T13:31:34.011Z</time></trkpt><trkpt lat="39.383355" lon="17.1154983"><ele>54.0</ele><time>2026-03-29T13:31:36.011Z</time></trkpt><trkpt lat="39.38337" lon="17.1155867"><ele>54.0</ele><time>2026-03-29T13:31:38.011Z</time></trkpt><trkpt lat="39.383385" lon="17.1156817"><ele>54.0</ele><time>2026-03-29T13:31:40.011Z</time></trkpt><trkpt lat="39.3833983" lon="17.1157767"><ele>54.0</ele><time>2026-03-29T13:31:42.011Z</time></trkpt><trkpt lat="39.3833967" lon="17.1158867"><ele>54.0</ele><time>2026-03-29T13:31:44.01Z</time></trkpt><trkpt lat="39.383405" lon="17.11598"><ele>54.0</ele><time>2026-03-29T13:31:46.011Z</time></trkpt><trkpt lat="39.3834083" lon="17.116085"><ele>54.0</ele><time>2026-03-29T13:31:48.011Z</time></trkpt><trkpt lat="39.3834067" lon="17.1161933"><ele>53.333333333333336</ele><time>2026-03-29T13:31:50.01Z</time></trkpt><trkpt lat="39.383395" lon="17.1163067"><ele>52.66666666666667</ele><time>2026-03-29T13:31:52.011Z</time></trkpt><trkpt lat="39.3834717" lon="17.1163667"><ele>52.0</ele><time>2026-03-29T13:32:00.01Z</time></trkpt><trkpt lat="39.3835517" lon="17.1163683"><ele>51.333333333333336</ele><time>2026-03-29T13:32:02.011Z</time></trkpt><trkpt lat="39.383635" lon="17.1163233"><ele>50.66666666666667</ele><time>2026-03-29T13:32:04.011Z</time></trkpt><trkpt lat="39.3836933" lon="17.11629"><ele>50.0</ele><time>2026-03-29T13:32:05.011Z</time></trkpt><trkpt lat="39.383765" lon="17.1162533"><ele>50.0</ele><time>2026-03-29T13:32:06.011Z</time></trkpt><trkpt lat="39.3838417" lon="17.1162133"><ele>50.0</ele><time>2026-03-29T13:32:07.011Z</time></trkpt><trkpt lat="39.38393" lon="17.1161733"><ele>50.0</ele><time>2026-03-29T13:32:08.01Z</time></trkpt><trkpt lat="39.384035" lon="17.1161367"><ele>50.0</ele><time>2026-03-29T13:32:09.011Z</time></trkpt><trkpt lat="39.3841483" lon="17.11611"><ele>50.0</ele><time>2026-03-29T13:32:10.011Z</time></trkpt><trkpt lat="39.384255" lon="17.1160933"><ele>50.57142857142858</ele><time>2026-03-29T13:32:11.011Z</time></trkpt><trkpt lat="39.3843383" lon="17.1160633"><ele>51.142857142857146</ele><time>2026-03-29T13:32:12.011Z</time></trkpt><trkpt lat="39.3844" lon="17.116005"><ele>51.714285714285715</ele><time>2026-03-29T13:32:13.011Z</time></trkpt><trkpt lat="39.3844383" lon="17.1159367"><ele>52.28571428571429</ele><time>2026-03-29T13:32:14.011Z</time></trkpt><trkpt lat="39.3844567" lon="17.11585"><ele>52.857142857142854</ele><time>2026-03-29T13:32:15.011Z</time></trkpt><trkpt lat="39.3844567" lon="17.1157683"><ele>53.42857142857143</ele><time>2026-03-29T13:32:16.011Z</time></trkpt><trkpt lat="39.3844917" lon="17.115665"><ele>54.0</ele><time>2026-03-29T13:32:18.011Z</time></trkpt><trkpt lat="39.3844983" lon="17.1155617"><ele>58.0</ele><time>2026-03-29T13:32:20.011Z</time></trkpt><trkpt lat="39.3844367" lon="17.1155333"><ele>58.0</ele><time>2026-03-29T13:32:23.011Z</time></trkpt></trkseg></trk></gpx>